<?xml version='1.0' encoding='UTF-8'?><gpx version="1.1" creator="JPX - https://github.com/jenetics/jpx" xmlns="http://www.topografix.com/GPX/1/1"><trk><trkseg><trkpt lat="45.664304280374374" lon="9.98456510927369"><ele>196.0</ele><time>2026-04-27T06:58:27Z</time></trkpt><trkpt lat="45.66433779241249" lon="9.984684772025293"><ele>196.0</ele><time>2026-04-27T06:58:36Z</time></trkpt><trkpt lat="45.664369290511026" lon="9.98479940808144"><ele>196.0</ele><time>2026-04-27T06:58:39Z</time></trkpt><trkpt lat="45.66440744701276" lon="9.98444804381089"><ele>196.0</ele><time>2026-04-27T06:58:49Z</time></trkpt><trkpt lat="45.66437363821108" lon="9.984261565743207"><ele>194.66666666666666</ele><time>2026-04-27T06:58:50Z</time></trkpt><trkpt lat="45.66433310111609" lon="9.984042669043548"><ele>193.33333333333331</ele><time>2026-04-27T06:58:51Z</time></trkpt><trkpt lat="45.66429171287958" lon="9.98381078034686"><ele>192.0</ele><time>2026-04-27T06:58:52Z</time></trkpt><trkpt lat="45.664247759144416" lon="9.983571727459124"><ele>191.33333333333334</ele><time>2026-04-27T06:58:53Z</time></trkpt><trkpt lat="45.66420046040065" lon="9.983340618756328"><ele>190.66666666666669</ele><time>2026-04-27T06:58:54Z</time></trkpt><trkpt lat="45.6641562040755" lon="9.983118522703304"><ele>190.0</ele><time>2026-04-27T06:58:55Z</time></trkpt><trkpt lat="45.66411429394471" lon="9.982918341363208"><ele>190.0</ele><time>2026-04-27T06:58:56Z</time></trkpt><trkpt lat="45.66407360470611" lon="9.982716661579815"><ele>190.0</ele><time>2026-04-27T06:58:57Z</time></trkpt><trkpt lat="45.66404031595749" lon="9.982524208625575"><ele>190.0</ele><time>2026-04-27T06:58:58Z</time></trkpt><trkpt lat="45.66400675786856" lon="9.982330033249973"><ele>190.0</ele><time>2026-04-27T06:58:59Z</time></trkpt><trkpt lat="45.66397659362261" lon="9.982148307291936"><ele>189.6</ele><time>2026-04-27T06:59:00Z</time></trkpt><trkpt lat="45.663941695552666" lon="9.981989145800494"><ele>189.2</ele><time>2026-04-27T06:59:01Z</time></trkpt><trkpt lat="45.66390612286794" lon="9.981843910874677"><ele>188.8</ele><time>2026-04-27T06:59:02Z</time></trkpt><trkpt lat="45.66386689281778" lon="9.98173508389331"><ele>188.4</ele><time>2026-04-27T06:59:03Z</time></trkpt><trkpt lat="45.66382613081506" lon="9.981636102922474"><ele>188.0</ele><time>2026-04-27T06:59:04Z</time></trkpt><trkpt lat="45.663799165860254" lon="9.981508389227612"><ele>188.0</ele><time>2026-04-27T06:59:05Z</time></trkpt><trkpt lat="45.66376972423606" lon="9.981352802595053"><ele>188.0</ele><time>2026-04-27T06:59:06Z</time></trkpt><trkpt lat="45.66373123271424" lon="9.981188028610742"><ele>188.0</ele><time>2026-04-27T06:59:07Z</time></trkpt><trkpt lat="45.663695359455346" lon="9.98099629048004"><ele>188.0</ele><time>2026-04-27T06:59:08Z</time></trkpt><trkpt lat="45.66364893405841" lon="9.980795858417238"><ele>189.66666666666666</ele><time>2026-04-27T06:59:09Z</time></trkpt><trkpt lat="45.66358881762353" lon="9.980592527784099"><ele>191.33333333333331</ele><time>2026-04-27T06:59:10Z</time></trkpt><trkpt lat="45.663538593719586" lon="9.980395066674488"><ele>193.0</ele><time>2026-04-27T06:59:11Z</time></trkpt><trkpt lat="45.66347399995758" lon="9.980197606526232"><ele>192.0</ele><time>2026-04-27T06:59:12Z</time></trkpt><trkpt lat="45.66340506856629" lon="9.980001853760168"><ele>191.0</ele><time>2026-04-27T06:59:13Z</time></trkpt><trkpt lat="45.66331704083904" lon="9.979798416846386"><ele>190.0</ele><time>2026-04-27T06:59:14Z</time></trkpt><trkpt lat="45.663250493123655" lon="9.979610554842196"><ele>190.0</ele><time>2026-04-27T06:59:15Z</time></trkpt><trkpt lat="45.66318163179997" lon="9.979434659539054"><ele>190.0</ele><time>2026-04-27T06:59:16Z</time></trkpt><trkpt lat="45.66310865130915" lon="9.979254893553353"><ele>190.0</ele><time>2026-04-27T06:59:17Z</time></trkpt><trkpt lat="45.663032731286904" lon="9.979073596229869"><ele>190.0</ele><time>2026-04-27T06:59:18Z</time></trkpt><trkpt lat="45.662975217204064" lon="9.97894712124139"><ele>189.5</ele><time>2026-04-27T06:59:19Z</time></trkpt><trkpt lat="45.662934701305886" lon="9.978791885632901"><ele>189.0</ele><time>2026-04-27T06:59:20Z</time></trkpt><trkpt lat="45.662878439461664" lon="9.97862525819911"><ele>188.5</ele><time>2026-04-27T06:59:21Z</time></trkpt><trkpt lat="45.66281948839679" lon="9.978477056369373"><ele>188.0</ele><time>2026-04-27T06:59:22Z</time></trkpt><trkpt lat="45.66274993689314" lon="9.97831879195875"><ele>191.5</ele><time>2026-04-27T06:59:23Z</time></trkpt><trkpt lat="45.66274693836783" lon="9.978160386230208"><ele>195.0</ele><time>2026-04-27T06:59:24Z</time></trkpt><trkpt lat="45.66268241079816" lon="9.977992866421653"><ele>198.5</ele><time>2026-04-27T06:59:25Z</time></trkpt><trkpt lat="45.66263088375434" lon="9.977848438372542"><ele>202.0</ele><time>2026-04-27T06:59:26Z</time></trkpt><trkpt lat="45.66256198737007" lon="9.977679698947234"><ele>202.0</ele><time>2026-04-27T06:59:27Z</time></trkpt><trkpt lat="45.6624976203593" lon="9.977520710857092"><ele>202.0</ele><time>2026-04-27T06:59:28Z</time></trkpt><trkpt lat="45.662442862552474" lon="9.977361450133865"><ele>202.0</ele><time>2026-04-27T06:59:29Z</time></trkpt><trkpt lat="45.66240803341351" lon="9.977217488112379"><ele>202.0</ele><time>2026-04-27T06:59:30Z</time></trkpt><trkpt lat="45.66234115670424" lon="9.97702930703557"><ele>198.33333333333331</ele><time>2026-04-27T06:59:31Z</time></trkpt><trkpt lat="45.66227312036469" lon="9.9768339229506"><ele>194.66666666666666</ele><time>2026-04-27T06:59:32Z</time></trkpt><trkpt lat="45.66221229552337" lon="9.976629643578864"><ele>191.0</ele><time>2026-04-27T06:59:33Z</time></trkpt><trkpt lat="45.6621418484835" lon="9.976413179418559"><ele>192.0</ele><time>2026-04-27T06:59:34Z</time></trkpt><trkpt lat="45.662080645966675" lon="9.97616059609849"><ele>193.0</ele><time>2026-04-27T06:59:35Z</time></trkpt><trkpt lat="45.66201206754892" lon="9.975872607827732"><ele>194.0</ele><time>2026-04-27T06:59:36Z</time></trkpt><trkpt lat="45.66193645096795" lon="9.975592770811813"><ele>194.0</ele><time>2026-04-27T06:59:37Z</time></trkpt><trkpt lat="45.6618659739429" lon="9.975361222659396"><ele>194.0</ele><time>2026-04-27T06:59:38Z</time></trkpt><trkpt lat="45.661799802212265" lon="9.975150680206402"><ele>194.0</ele><time>2026-04-27T06:59:39Z</time></trkpt><trkpt lat="45.66175481456173" lon="9.974943613550534"><ele>193.25</ele><time>2026-04-27T06:59:40Z</time></trkpt><trkpt lat="45.66169887713613" lon="9.974757321817956"><ele>192.5</ele><time>2026-04-27T06:59:41Z</time></trkpt><trkpt lat="45.661645042868386" lon="9.974576588414036"><ele>191.75</ele><time>2026-04-27T06:59:42Z</time></trkpt><trkpt lat="45.661598785623944" lon="9.97440204112676"><ele>191.0</ele><time>2026-04-27T06:59:43Z</time></trkpt><trkpt lat="45.66154649957717" lon="9.9742018339016"><ele>190.0</ele><time>2026-04-27T06:59:44Z</time></trkpt><trkpt lat="45.66149347786381" lon="9.974004076516854"><ele>189.0</ele><time>2026-04-27T06:59:45Z</time></trkpt><trkpt lat="45.66143491537849" lon="9.973811365878051"><ele>188.0</ele><time>2026-04-27T06:59:46Z</time></trkpt><trkpt lat="45.661374373893715" lon="9.97361208059836"><ele>187.0</ele><time>2026-04-27T06:59:47Z</time></trkpt><trkpt lat="45.661379012631365" lon="9.973440609063244"><ele>186.25</ele><time>2026-04-27T06:59:48Z</time></trkpt><trkpt lat="45.66132957100218" lon="9.973250785899191"><ele>185.5</ele><time>2026-04-27T06:59:49Z</time></trkpt><trkpt lat="45.66127508303882" lon="9.973062096928892"><ele>184.75</ele><time>2026-04-27T06:59:50Z</time></trkpt><trkpt lat="45.661223234060095" lon="9.97287349829997"><ele>184.0</ele><time>2026-04-27T06:59:51Z</time></trkpt><trkpt lat="45.66116561246427" lon="9.972677846380943"><ele>185.25</ele><time>2026-04-27T06:59:52Z</time></trkpt><trkpt lat="45.66111355372579" lon="9.972513748111385"><ele>186.5</ele><time>2026-04-27T06:59:53Z</time></trkpt><trkpt lat="45.66105409704225" lon="9.972358099132817"><ele>187.75</ele><time>2026-04-27T06:59:54Z</time></trkpt><trkpt lat="45.66097917922139" lon="9.972199509364884"><ele>189.0</ele><time>2026-04-27T06:59:55Z</time></trkpt><trkpt lat="45.66089324077042" lon="9.97203133366284"><ele>189.0</ele><time>2026-04-27T06:59:56Z</time></trkpt><trkpt lat="45.660802371652096" lon="9.971877268954866"><ele>189.0</ele><time>2026-04-27T06:59:57Z</time></trkpt><trkpt lat="45.66070120752962" lon="9.971713683426355"><ele>189.0</ele><time>2026-04-27T06:59:58Z</time></trkpt><trkpt lat="45.66060700047618" lon="9.971550412463888"><ele>189.0</ele><time>2026-04-27T06:59:59Z</time></trkpt><trkpt lat="45.660495930657945" lon="9.971390671493547"><ele>189.25</ele><time>2026-04-27T07:00:00Z</time></trkpt><trkpt lat="45.66039406083622" lon="9.971254743691032"><ele>189.5</ele><time>2026-04-27T07:00:01Z</time></trkpt><trkpt lat="45.66029406865158" lon="9.971113022741523"><ele>189.75</ele><time>2026-04-27T07:00:02Z</time></trkpt><trkpt lat="45.66017967786071" lon="9.970964412026673"><ele>190.0</ele><time>2026-04-27T07:00:03Z</time></trkpt><trkpt lat="45.660086508014935" lon="9.970834146750903"><ele>190.0</ele><time>2026-04-27T07:00:04Z</time></trkpt><trkpt lat="45.65999821549897" lon="9.970714924507796"><ele>190.0</ele><time>2026-04-27T07:00:05Z</time></trkpt><trkpt lat="45.659921853055785" lon="9.970620692412904"><ele>190.0</ele><time>2026-04-27T07:00:06Z</time></trkpt><trkpt lat="45.65985552399112" lon="9.970522237302234"><ele>190.0</ele><time>2026-04-27T07:00:07Z</time></trkpt><trkpt lat="45.65979436855879" lon="9.970419355145522"><ele>190.0</ele><time>2026-04-27T07:00:08Z</time></trkpt><trkpt lat="45.65972108017287" lon="9.970321427118796"><ele>190.0</ele><time>2026-04-27T07:00:09Z</time></trkpt><trkpt lat="45.65965357399887" lon="9.97022375364407"><ele>190.0</ele><time>2026-04-27T07:00:10Z</time></trkpt><trkpt lat="45.65958176559705" lon="9.970124306269952"><ele>190.0</ele><time>2026-04-27T07:00:11Z</time></trkpt><trkpt lat="45.659492754099624" lon="9.970001016060184"><ele>190.0</ele><time>2026-04-27T07:00:12Z</time></trkpt><trkpt lat="45.659402168446064" lon="9.969869853326161"><ele>190.0</ele><time>2026-04-27T07:00:13Z</time></trkpt><trkpt lat="45.65931176921046" lon="9.969738656855766"><ele>191.0</ele><time>2026-04-27T07:00:14Z</time></trkpt><trkpt lat="45.6592259673126" lon="9.969617354461445"><ele>192.0</ele><time>2026-04-27T07:00:15Z</time></trkpt><trkpt lat="45.65912215549955" lon="9.969482987079559"><ele>193.0</ele><time>2026-04-27T07:00:16Z</time></trkpt><trkpt lat="45.659028308536065" lon="9.969354023353619"><ele>194.0</ele><time>2026-04-27T07:00:17Z</time></trkpt><trkpt lat="45.65893064606946" lon="9.969223508048659"><ele>193.5</ele><time>2026-04-27T07:00:18Z</time></trkpt><trkpt lat="45.65883027187013" lon="9.969089105557751"><ele>193.0</ele><time>2026-04-27T07:00:19Z</time></trkpt><trkpt lat="45.65874075341213" lon="9.968962796701184"><ele>192.5</ele><time>2026-04-27T07:00:20Z</time></trkpt><trkpt lat="45.658649577192364" lon="9.968836920396376"><ele>192.0</ele><time>2026-04-27T07:00:21Z</time></trkpt><trkpt lat="45.65856181860785" lon="9.968710473857017"><ele>192.0</ele><time>2026-04-27T07:00:22Z</time></trkpt><trkpt lat="45.658471494739906" lon="9.96858250887959"><ele>192.0</ele><time>2026-04-27T07:00:23Z</time></trkpt><trkpt lat="45.658390279843196" lon="9.96844571266405"><ele>192.0</ele><time>2026-04-27T07:00:24Z</time></trkpt><trkpt lat="45.65832657053973" lon="9.968307045426712"><ele>192.0</ele><time>2026-04-27T07:00:25Z</time></trkpt><trkpt lat="45.65827072916697" lon="9.968169935069687"><ele>191.5</ele><time>2026-04-27T07:00:26Z</time></trkpt><trkpt lat="45.65823457014339" lon="9.968048245147255"><ele>191.0</ele><time>2026-04-27T07:00:27Z</time></trkpt><trkpt lat="45.65819418842116" lon="9.967931466885275"><ele>190.5</ele><time>2026-04-27T07:00:28Z</time></trkpt><trkpt lat="45.658165700309006" lon="9.967820701606177"><ele>190.0</ele><time>2026-04-27T07:00:29Z</time></trkpt><trkpt lat="45.65815502247052" lon="9.967706104817545"><ele>189.5</ele><time>2026-04-27T07:00:30Z</time></trkpt><trkpt lat="45.65813951729496" lon="9.967614128586465"><ele>189.0</ele><time>2026-04-27T07:00:31Z</time></trkpt><trkpt lat="45.65810622253112" lon="9.967463657077564"><ele>188.79999999999998</ele><time>2026-04-27T07:00:33Z</time></trkpt><trkpt lat="45.6580854361718" lon="9.967270900580093"><ele>188.6</ele><time>2026-04-27T07:00:35Z</time></trkpt><trkpt lat="45.658086106171645" lon="9.967145475520704"><ele>188.4</ele><time>2026-04-27T07:00:36Z</time></trkpt><trkpt lat="45.658080573038845" lon="9.966994202865221"><ele>188.2</ele><time>2026-04-27T07:00:37Z</time></trkpt><trkpt lat="45.65808704709615" lon="9.96683276299583"><ele>188.0</ele><time>2026-04-27T07:00:38Z</time></trkpt><trkpt lat="45.65810740356294" lon="9.9666521149551"><ele>188.5</ele><time>2026-04-27T07:00:39Z</time></trkpt><trkpt lat="45.6581352926713" lon="9.966463360290614"><ele>189.0</ele><time>2026-04-27T07:00:40Z</time></trkpt><trkpt lat="45.65817781083703" lon="9.966299806367994"><ele>189.5</ele><time>2026-04-27T07:00:41Z</time></trkpt><trkpt lat="45.65822731392721" lon="9.966139230787144"><ele>190.0</ele><time>2026-04-27T07:00:42Z</time></trkpt><trkpt lat="45.65827951490415" lon="9.96599370702098"><ele>190.0</ele><time>2026-04-27T07:00:43Z</time></trkpt><trkpt lat="45.658333297537105" lon="9.965868224369485"><ele>190.0</ele><time>2026-04-27T07:00:44Z</time></trkpt><trkpt lat="45.65839163367137" lon="9.965758167437764"><ele>190.0</ele><time>2026-04-27T07:00:45Z</time></trkpt><trkpt lat="45.65844443355752" lon="9.965650766624787"><ele>190.0</ele><time>2026-04-27T07:00:46Z</time></trkpt><trkpt lat="45.65849996104343" lon="9.96555189706603"><ele>190.0</ele><time>2026-04-27T07:00:47Z</time></trkpt><trkpt lat="45.65854955456554" lon="9.965445418308253"><ele>189.83333333333334</ele><time>2026-04-27T07:00:48Z</time></trkpt><trkpt lat="45.658595950948715" lon="9.96534098599136"><ele>189.66666666666669</ele><time>2026-04-27T07:00:49Z</time></trkpt><trkpt lat="45.65864024929004" lon="9.965233814831649"><ele>189.5</ele><time>2026-04-27T07:00:50Z</time></trkpt><trkpt lat="45.65868585960426" lon="9.965129337705315"><ele>189.33333333333334</ele><time>2026-04-27T07:00:51Z</time></trkpt><trkpt lat="45.658749944269026" lon="9.965063545826451"><ele>189.16666666666666</ele><time>2026-04-27T07:00:52Z</time></trkpt><trkpt lat="45.65881150942102" lon="9.96500231313242"><ele>189.0</ele><time>2026-04-27T07:00:53Z</time></trkpt><trkpt lat="45.65885686224312" lon="9.964910172444537"><ele>188.75</ele><time>2026-04-27T07:00:54Z</time></trkpt><trkpt lat="45.65889312393828" lon="9.96478733050843"><ele>188.5</ele><time>2026-04-27T07:00:55Z</time></trkpt><trkpt lat="45.658947658732714" lon="9.964650223308253"><ele>188.25</ele><time>2026-04-27T07:00:56Z</time></trkpt><trkpt lat="45.65902902767687" lon="9.96452372009999"><ele>188.0</ele><time>2026-04-27T07:00:57Z</time></trkpt><trkpt lat="45.659146846006195" lon="9.96442463823918"><ele>188.0</ele><time>2026-04-27T07:00:58Z</time></trkpt><trkpt lat="45.65923595313001" lon="9.96427889773923"><ele>188.0</ele><time>2026-04-27T07:00:59Z</time></trkpt><trkpt lat="45.65932598727925" lon="9.964126312510903"><ele>188.0</ele><time>2026-04-27T07:01:00Z</time></trkpt><trkpt lat="45.6594087421505" lon="9.9639860636818"><ele>188.0</ele><time>2026-04-27T07:01:01Z</time></trkpt><trkpt lat="45.65949499317738" lon="9.963842229486332"><ele>188.0</ele><time>2026-04-27T07:01:02Z</time></trkpt><trkpt lat="45.65958054816555" lon="9.963699030561356"><ele>188.0</ele><time>2026-04-27T07:01:03Z</time></trkpt><trkpt lat="45.659663961915655" lon="9.963559415546978"><ele>188.0</ele><time>2026-04-27T07:01:04Z</time></trkpt><trkpt lat="45.65974931304324" lon="9.963416557823638"><ele>188.0</ele><time>2026-04-27T07:01:05Z</time></trkpt><trkpt lat="45.659840463402354" lon="9.96326399356426"><ele>188.0</ele><time>2026-04-27T07:01:06Z</time></trkpt><trkpt lat="45.65992480660386" lon="9.963123742256823"><ele>188.0</ele><time>2026-04-27T07:01:07Z</time></trkpt><trkpt lat="45.65999790531309" lon="9.963002207016453"><ele>188.0</ele><time>2026-04-27T07:01:08Z</time></trkpt><trkpt lat="45.660073673664115" lon="9.96287612804737"><ele>188.0</ele><time>2026-04-27T07:01:09Z</time></trkpt><trkpt lat="45.660153394415474" lon="9.962742974085009"><ele>188.0</ele><time>2026-04-27T07:01:10Z</time></trkpt><trkpt lat="45.66022077107903" lon="9.96259664923653"><ele>188.0</ele><time>2026-04-27T07:01:11Z</time></trkpt><trkpt lat="45.660301372115455" lon="9.962460727559069"><ele>188.0</ele><time>2026-04-27T07:01:12Z</time></trkpt><trkpt lat="45.660380949413735" lon="9.962325166137315"><ele>188.0</ele><time>2026-04-27T07:01:13Z</time></trkpt><trkpt lat="45.66046259727951" lon="9.962190482505846"><ele>188.5</ele><time>2026-04-27T07:01:14Z</time></trkpt><trkpt lat="45.66054801952347" lon="9.96205806224385"><ele>189.0</ele><time>2026-04-27T07:01:15Z</time></trkpt><trkpt lat="45.66063066650458" lon="9.961927662521704"><ele>189.5</ele><time>2026-04-27T07:01:16Z</time></trkpt><trkpt lat="45.660710690489786" lon="9.961795815281238"><ele>190.0</ele><time>2026-04-27T07:01:17Z</time></trkpt><trkpt lat="45.660789397431486" lon="9.961661421709382"><ele>190.0</ele><time>2026-04-27T07:01:18Z</time></trkpt><trkpt lat="45.66086819242347" lon="9.961533231594643"><ele>190.0</ele><time>2026-04-27T07:01:19Z</time></trkpt><trkpt lat="45.66094708467833" lon="9.961395287552389"><ele>190.0</ele><time>2026-04-27T07:01:20Z</time></trkpt><trkpt lat="45.66103032338628" lon="9.961250545590307"><ele>190.0</ele><time>2026-04-27T07:01:21Z</time></trkpt><trkpt lat="45.66111907395968" lon="9.961102168224961"><ele>189.5</ele><time>2026-04-27T07:01:22Z</time></trkpt><trkpt lat="45.66124777525163" lon="9.960986402242385"><ele>189.0</ele><time>2026-04-27T07:01:23Z</time></trkpt><trkpt lat="45.661337555103394" lon="9.960846946374442"><ele>188.5</ele><time>2026-04-27T07:01:24Z</time></trkpt><trkpt lat="45.66141912671901" lon="9.960723308252907"><ele>188.0</ele><time>2026-04-27T07:01:25Z</time></trkpt><trkpt lat="45.6614991290025" lon="9.960592539188793"><ele>188.0</ele><time>2026-04-27T07:01:26Z</time></trkpt><trkpt lat="45.66158117170268" lon="9.960458158810736"><ele>188.0</ele><time>2026-04-27T07:01:27Z</time></trkpt><trkpt lat="45.66166465611262" lon="9.960321693581307"><ele>188.0</ele><time>2026-04-27T07:01:28Z</time></trkpt><trkpt lat="45.66174006377317" lon="9.960201525555854"><ele>188.0</ele><time>2026-04-27T07:01:29Z</time></trkpt><trkpt lat="45.661815714013564" lon="9.960082868769511"><ele>187.75</ele><time>2026-04-27T07:01:30Z</time></trkpt><trkpt lat="45.66188524144498" lon="9.959959979274332"><ele>187.5</ele><time>2026-04-27T07:01:31Z</time></trkpt><trkpt lat="45.66195847739015" lon="9.95983601950911"><ele>187.25</ele><time>2026-04-27T07:01:32Z</time></trkpt><trkpt lat="45.66203341736686" lon="9.959700109217078"><ele>187.0</ele><time>2026-04-27T07:01:33Z</time></trkpt><trkpt lat="45.66210971867174" lon="9.959569010464884"><ele>187.0</ele><time>2026-04-27T07:01:34Z</time></trkpt><trkpt lat="45.662180208958766" lon="9.959452727293936"><ele>187.0</ele><time>2026-04-27T07:01:35Z</time></trkpt><trkpt lat="45.66224762694751" lon="9.959325671884423"><ele>187.0</ele><time>2026-04-27T07:01:36Z</time></trkpt><trkpt lat="45.66231132806969" lon="9.959215070811837"><ele>187.0</ele><time>2026-04-27T07:01:37Z</time></trkpt><trkpt lat="45.66238307093087" lon="9.959100383081699"><ele>187.0</ele><time>2026-04-27T07:01:38Z</time></trkpt><trkpt lat="45.66244959251279" lon="9.95897716737023"><ele>187.6</ele><time>2026-04-27T07:01:39Z</time></trkpt><trkpt lat="45.66251430388364" lon="9.958859463955724"><ele>188.2</ele><time>2026-04-27T07:01:40Z</time></trkpt><trkpt lat="45.66258007771164" lon="9.95875465794373"><ele>188.8</ele><time>2026-04-27T07:01:41Z</time></trkpt><trkpt lat="45.66264259090468" lon="9.958651036348629"><ele>189.4</ele><time>2026-04-27T07:01:42Z</time></trkpt><trkpt lat="45.66269637514344" lon="9.95855680384059"><ele>190.0</ele><time>2026-04-27T07:01:43Z</time></trkpt><trkpt lat="45.66275011066747" lon="9.958469113753257"><ele>189.83333333333334</ele><time>2026-04-27T07:01:44Z</time></trkpt><trkpt lat="45.662800779353155" lon="9.958375553428395"><ele>189.66666666666669</ele><time>2026-04-27T07:01:45Z</time></trkpt><trkpt lat="45.66285915933442" lon="9.958289705258723"><ele>189.5</ele><time>2026-04-27T07:01:46Z</time></trkpt><trkpt lat="45.66291489491404" lon="9.95820491617224"><ele>189.33333333333334</ele><time>2026-04-27T07:01:47Z</time></trkpt><trkpt lat="45.662965252213255" lon="9.958133534415445"><ele>189.16666666666666</ele><time>2026-04-27T07:01:48Z</time></trkpt><trkpt lat="45.66303666831937" lon="9.958014915565263"><ele>189.0</ele><time>2026-04-27T07:01:50Z</time></trkpt><trkpt lat="45.66311245649364" lon="9.957859983317649"><ele>189.0</ele><time>2026-04-27T07:01:52Z</time></trkpt><trkpt lat="45.66315825695772" lon="9.957762189769952"><ele>189.0</ele><time>2026-04-27T07:01:53Z</time></trkpt><trkpt lat="45.6632046263437" lon="9.957680844157572"><ele>189.0</ele><time>2026-04-27T07:01:54Z</time></trkpt><trkpt lat="45.66326641308466" lon="9.957564130839499"><ele>189.0</ele><time>2026-04-27T07:01:56Z</time></trkpt><trkpt lat="45.663320654648956" lon="9.957451003743932"><ele>189.0</ele><time>2026-04-27T07:01:59Z</time></trkpt><trkpt lat="45.66336524966655" lon="9.957332731487586"><ele>189.0</ele><time>2026-04-27T07:02:01Z</time></trkpt><trkpt lat="45.66342959177062" lon="9.957247060525857"><ele>189.0</ele><time>2026-04-27T07:02:03Z</time></trkpt><trkpt lat="45.66352974392225" lon="9.957155443732661"><ele>189.0</ele><time>2026-04-27T07:02:05Z</time></trkpt><trkpt lat="45.66359178550267" lon="9.957127109255818"><ele>189.0</ele><time>2026-04-27T07:02:06Z</time></trkpt><trkpt lat="45.663655165738064" lon="9.957093488508043"><ele>189.0</ele><time>2026-04-27T07:02:07Z</time></trkpt><trkpt lat="45.66372539212046" lon="9.957079266202072"><ele>189.0</ele><time>2026-04-27T07:02:08Z</time></trkpt><trkpt lat="45.663838034353574" lon="9.957036610680921"><ele>189.0</ele><time>2026-04-27T07:02:10Z</time></trkpt><trkpt lat="45.663959880623125" lon="9.957039002914007"><ele>189.0</ele><time>2026-04-27T07:02:12Z</time></trkpt><trkpt lat="45.66406333818508" lon="9.957064272309111"><ele>189.0</ele><time>2026-04-27T07:02:14Z</time></trkpt><trkpt lat="45.66416012531449" lon="9.957082700455816"><ele>189.0</ele><time>2026-04-27T07:02:16Z</time></trkpt><trkpt lat="45.66429401854009" lon="9.957102617830976"><ele>189.0</ele><time>2026-04-27T07:02:18Z</time></trkpt><trkpt lat="45.664377422484684" lon="9.957119588681701"><ele>189.0</ele><time>2026-04-27T07:02:19Z</time></trkpt><trkpt lat="45.6644608160072" lon="9.957129425444418"><ele>188.5</ele><time>2026-04-27T07:02:20Z</time></trkpt><trkpt lat="45.66452570548949" lon="9.957126072157223"><ele>188.0</ele><time>2026-04-27T07:02:21Z</time></trkpt><trkpt lat="45.66459275287658" lon="9.957097085893412"><ele>187.5</ele><time>2026-04-27T07:02:22Z</time></trkpt><trkpt lat="45.66465645604221" lon="9.957053454018034"><ele>187.0</ele><time>2026-04-27T07:02:23Z</time></trkpt><trkpt lat="45.66472570291289" lon="9.956984746493838"><ele>186.5</ele><time>2026-04-27T07:02:24Z</time></trkpt><trkpt lat="45.66478004471141" lon="9.956886501710194"><ele>186.0</ele><time>2026-04-27T07:02:25Z</time></trkpt><trkpt lat="45.664833370551925" lon="9.956800256658004"><ele>186.0</ele><time>2026-04-27T07:02:26Z</time></trkpt><trkpt lat="45.66487558440757" lon="9.956718671668721"><ele>186.0</ele><time>2026-04-27T07:02:27Z</time></trkpt><trkpt lat="45.664907257085694" lon="9.956640060833257"><ele>186.0</ele><time>2026-04-27T07:02:28Z</time></trkpt><trkpt lat="45.66497342411944" lon="9.956521228353159"><ele>186.0</ele><time>2026-04-27T07:02:30Z</time></trkpt><trkpt lat="45.665061538190876" lon="9.956418015226914"><ele>186.0</ele><time>2026-04-27T07:02:32Z</time></trkpt><trkpt lat="45.66509171198442" lon="9.956337338563792"><ele>186.0</ele><time>2026-04-27T07:02:33Z</time></trkpt><trkpt lat="45.66513774773995" lon="9.95621991193383"><ele>186.0</ele><time>2026-04-27T07:02:35Z</time></trkpt><trkpt lat="45.66524341823138" lon="9.956247979134929"><ele>186.0</ele><time>2026-04-27T07:02:37Z</time></trkpt><trkpt lat="45.66530910806135" lon="9.956312510919386"><ele>186.0</ele><time>2026-04-27T07:02:38Z</time></trkpt><trkpt lat="45.66538652159011" lon="9.956379077724737"><ele>186.0</ele><time>2026-04-27T07:02:39Z</time></trkpt><trkpt lat="45.665475267742885" lon="9.956431633147774"><ele>186.0</ele><time>2026-04-27T07:02:40Z</time></trkpt><trkpt lat="45.66551171459908" lon="9.956542492956505"><ele>186.00000000000003</ele><time>2026-04-27T07:02:41Z</time></trkpt><trkpt lat="45.665580048997114" lon="9.956602724847832"><ele>186.0</ele><time>2026-04-27T07:02:42Z</time></trkpt><trkpt lat="45.66563406465864" lon="9.956650237209923"><ele>186.0</ele><time>2026-04-27T07:02:43Z</time></trkpt><trkpt lat="45.66570071803059" lon="9.956683786316688"><ele>186.0</ele><time>2026-04-27T07:02:44Z</time></trkpt><trkpt lat="45.66574324380871" lon="9.956752443909252"><ele>186.0</ele><time>2026-04-27T07:02:45Z</time></trkpt><trkpt lat="45.66580496814369" lon="9.956808121511356"><ele>186.00000000000003</ele><time>2026-04-27T07:02:46Z</time></trkpt><trkpt lat="45.665863198523255" lon="9.956859765262703"><ele>186.0</ele><time>2026-04-27T07:02:47Z</time></trkpt><trkpt lat="45.66592829130688" lon="9.956914882405728"><ele>186.60000000000002</ele><time>2026-04-27T07:02:48Z</time></trkpt><trkpt lat="45.66601640052019" lon="9.956990712468262"><ele>187.2</ele><time>2026-04-27T07:02:50Z</time></trkpt><trkpt lat="45.6660794261287" lon="9.957043729543432"><ele>187.8</ele><time>2026-04-27T07:02:52Z</time></trkpt><trkpt lat="45.66609446492539" lon="9.957177296936507"><ele>188.39999999999998</ele><time>2026-04-27T07:02:55Z</time></trkpt><trkpt lat="45.66602475497506" lon="9.95726838793243"><ele>189.0</ele><time>2026-04-27T07:02:57Z</time></trkpt><trkpt lat="45.66596234878558" lon="9.957376022989289"><ele>189.0</ele><time>2026-04-27T07:02:59Z</time></trkpt><trkpt lat="45.665922255814415" lon="9.957501084900649"><ele>189.0</ele><time>2026-04-27T07:03:01Z</time></trkpt><trkpt lat="45.665894955838034" lon="9.957625454046882"><ele>189.0</ele><time>2026-04-27T07:03:03Z</time></trkpt><trkpt lat="45.66584831657048" lon="9.9577638038138"><ele>189.0</ele><time>2026-04-27T07:03:05Z</time></trkpt><trkpt lat="45.66579802934363" lon="9.957917890734205"><ele>189.0</ele><time>2026-04-27T07:03:07Z</time></trkpt><trkpt lat="45.665745775016376" lon="9.958066780571608"><ele>189.33333333333334</ele><time>2026-04-27T07:03:09Z</time></trkpt><trkpt lat="45.66568736063542" lon="9.958217774035312"><ele>189.66666666666666</ele><time>2026-04-27T07:03:11Z</time></trkpt><trkpt lat="45.665656483297624" lon="9.958345079887911"><ele>190.0</ele><time>2026-04-27T07:03:13Z</time></trkpt><trkpt lat="45.66564607464692" lon="9.958467147683026"><ele>190.33333333333331</ele><time>2026-04-27T07:03:15Z</time></trkpt><trkpt lat="45.66563962999418" lon="9.958568673523219"><ele>190.66666666666666</ele><time>2026-04-27T07:03:17Z</time></trkpt><trkpt lat="45.66563476839107" lon="9.958677253362994"><ele>191.0</ele><time>2026-04-27T07:03:19Z</time></trkpt><trkpt lat="45.66563070753797" lon="9.95878989174028"><ele>191.0</ele><time>2026-04-27T07:03:21Z</time></trkpt><trkpt lat="45.66562879108006" lon="9.95891745917782"><ele>191.0</ele><time>2026-04-27T07:03:23Z</time></trkpt><trkpt lat="45.665636904463916" lon="9.95906600523886"><ele>191.0</ele><time>2026-04-27T07:03:25Z</time></trkpt><trkpt lat="45.66562571378774" lon="9.959160241551855"><ele>191.0</ele><time>2026-04-27T07:03:26Z</time></trkpt><trkpt lat="45.66561929547399" lon="9.959269505563094"><ele>191.0</ele><time>2026-04-27T07:03:27Z</time></trkpt><trkpt lat="45.665612639499514" lon="9.959366973051342"><ele>191.0</ele><time>2026-04-27T07:03:28Z</time></trkpt><trkpt lat="45.66560955816001" lon="9.959469553333044"><ele>191.16666666666666</ele><time>2026-04-27T07:03:29Z</time></trkpt><trkpt lat="45.665612059117166" lon="9.959580964147674"><ele>191.33333333333331</ele><time>2026-04-27T07:03:30Z</time></trkpt><trkpt lat="45.66561498130472" lon="9.959699419453454"><ele>191.5</ele><time>2026-04-27T07:03:31Z</time></trkpt><trkpt lat="45.66562036145525" lon="9.959821821433696"><ele>191.66666666666666</ele><time>2026-04-27T07:03:32Z</time></trkpt><trkpt lat="45.66562170740417" lon="9.959934908986448"><ele>191.83333333333334</ele><time>2026-04-27T07:03:33Z</time></trkpt><trkpt lat="45.665631263460156" lon="9.960054645633997"><ele>192.0</ele><time>2026-04-27T07:03:34Z</time></trkpt><trkpt lat="45.665637544412384" lon="9.960171753220871"><ele>191.6</ele><time>2026-04-27T07:03:35Z</time></trkpt><trkpt lat="45.665651215770424" lon="9.96028759073818"><ele>191.2</ele><time>2026-04-27T07:03:36Z</time></trkpt><trkpt lat="45.66569148357025" lon="9.96039731436146"><ele>190.8</ele><time>2026-04-27T07:03:37Z</time></trkpt><trkpt lat="45.66574291892985" lon="9.960520950888164"><ele>190.4</ele><time>2026-04-27T07:03:38Z</time></trkpt><trkpt lat="45.665793368748346" lon="9.960668401816685"><ele>190.0</ele><time>2026-04-27T07:03:39Z</time></trkpt><trkpt lat="45.665853074633844" lon="9.960759085102382"><ele>190.0</ele><time>2026-04-27T07:03:40Z</time></trkpt><trkpt lat="45.66589028076502" lon="9.96085944598791"><ele>190.0</ele><time>2026-04-27T07:03:41Z</time></trkpt><trkpt lat="45.665932153206136" lon="9.960927955691071"><ele>190.0</ele><time>2026-04-27T07:03:42Z</time></trkpt><trkpt lat="45.66599348476232" lon="9.961059261468725"><ele>190.0</ele><time>2026-04-27T07:03:44Z</time></trkpt><trkpt lat="45.666033269759566" lon="9.961144463599346"><ele>190.0</ele><time>2026-04-27T07:03:45Z</time></trkpt><trkpt lat="45.66607055544266" lon="9.961224313286861"><ele>190.0</ele><time>2026-04-27T07:03:46Z</time></trkpt><trkpt lat="45.66612309636248" lon="9.961382779719786"><ele>190.0</ele><time>2026-04-27T07:03:48Z</time></trkpt><trkpt lat="45.666201102754634" lon="9.96151218928706"><ele>190.0</ele><time>2026-04-27T07:03:50Z</time></trkpt><trkpt lat="45.66624065024563" lon="9.961599928846738"><ele>190.0</ele><time>2026-04-27T07:03:51Z</time></trkpt><trkpt lat="45.66628529757264" lon="9.961698982841558"><ele>190.0</ele><time>2026-04-27T07:03:52Z</time></trkpt><trkpt lat="45.66632747098729" lon="9.961803773557847"><ele>190.0</ele><time>2026-04-27T07:03:53Z</time></trkpt><trkpt lat="45.66637005209714" lon="9.961888149039119"><ele>190.0</ele><time>2026-04-27T07:03:54Z</time></trkpt><trkpt lat="45.66641584324801" lon="9.961981618523696"><ele>190.0</ele><time>2026-04-27T07:03:55Z</time></trkpt><trkpt lat="45.666467576102725" lon="9.962084467321464"><ele>190.0</ele><time>2026-04-27T07:03:56Z</time></trkpt><trkpt lat="45.66652505643612" lon="9.962197807388328"><ele>190.0</ele><time>2026-04-27T07:03:57Z</time></trkpt><trkpt lat="45.66657488491221" lon="9.962296662944576"><ele>190.0</ele><time>2026-04-27T07:03:58Z</time></trkpt><trkpt lat="45.66661270808068" lon="9.96238185247828"><ele>190.0</ele><time>2026-04-27T07:03:59Z</time></trkpt><trkpt lat="45.66666326876428" lon="9.962477649482045"><ele>190.0</ele><time>2026-04-27T07:04:00Z</time></trkpt><trkpt lat="45.66670959046482" lon="9.96258488961782"><ele>190.0</ele><time>2026-04-27T07:04:01Z</time></trkpt><trkpt lat="45.66675425888504" lon="9.962689243664562"><ele>190.0</ele><time>2026-04-27T07:04:02Z</time></trkpt><trkpt lat="45.666777631710644" lon="9.962774166495656"><ele>190.0</ele><time>2026-04-27T07:04:03Z</time></trkpt><trkpt lat="45.66682423292348" lon="9.96289811488052"><ele>190.0</ele><time>2026-04-27T07:04:05Z</time></trkpt><trkpt lat="45.66689166338101" lon="9.963058432298357"><ele>190.0</ele><time>2026-04-27T07:04:07Z</time></trkpt><trkpt lat="45.66695438835582" lon="9.963096726371218"><ele>190.0</ele><time>2026-04-27T07:04:08Z</time></trkpt><trkpt lat="45.66700520855948" lon="9.963153336512628"><ele>190.0</ele><time>2026-04-27T07:04:09Z</time></trkpt><trkpt lat="45.66706784888599" lon="9.963124530184501"><ele>190.0</ele><time>2026-04-27T07:04:10Z</time></trkpt><trkpt lat="45.66717998843881" lon="9.963101741075729"><ele>190.0</ele><time>2026-04-27T07:04:12Z</time></trkpt><trkpt lat="45.66725462663364" lon="9.963127134122496"><ele>190.0</ele><time>2026-04-27T07:04:13Z</time></trkpt><trkpt lat="45.667324382623065" lon="9.963268866020167"><ele>190.0</ele><time>2026-04-27T07:04:14Z</time></trkpt><trkpt lat="45.66736141360583" lon="9.963367085509354"><ele>190.0</ele><time>2026-04-27T07:04:15Z</time></trkpt><trkpt lat="45.66742669067659" lon="9.963476538507322"><ele>190.0</ele><time>2026-04-27T07:04:17Z</time></trkpt><trkpt lat="45.667542588329184" lon="9.963427860992933"><ele>190.0</ele><time>2026-04-27T07:04:18Z</time></trkpt><trkpt lat="45.66763271717052" lon="9.963379432413896"><ele>190.0</ele><time>2026-04-27T07:04:19Z</time></trkpt><trkpt lat="45.66771487155854" lon="9.963333859918647"><ele>190.0</ele><time>2026-04-27T07:04:20Z</time></trkpt><trkpt lat="45.66780331600056" lon="9.963287148242134"><ele>190.16666666666669</ele><time>2026-04-27T07:04:21Z</time></trkpt><trkpt lat="45.66790146927989" lon="9.963260850714558"><ele>190.33333333333334</ele><time>2026-04-27T07:04:22Z</time></trkpt><trkpt lat="45.66797700879412" lon="9.963236301752977"><ele>190.5</ele><time>2026-04-27T07:04:23Z</time></trkpt><trkpt lat="45.668085782510474" lon="9.963263346658724"><ele>190.66666666666666</ele><time>2026-04-27T07:04:25Z</time></trkpt><trkpt lat="45.66814956337896" lon="9.963323597651112"><ele>190.83333333333331</ele><time>2026-04-27T07:04:26Z</time></trkpt><trkpt lat="45.66817351358565" lon="9.963422819934566"><ele>191.0</ele><time>2026-04-27T07:04:27Z</time></trkpt><trkpt lat="45.66825320606536" lon="9.963521970216311"><ele>191.0</ele><time>2026-04-27T07:04:29Z</time></trkpt><trkpt lat="45.66834578778325" lon="9.963487826540899"><ele>191.0</ele><time>2026-04-27T07:04:30Z</time></trkpt><trkpt lat="45.668448123459" lon="9.963462774615632"><ele>191.0</ele><time>2026-04-27T07:04:31Z</time></trkpt><trkpt lat="45.66855176610608" lon="9.963429309220993"><ele>191.0</ele><time>2026-04-27T07:04:32Z</time></trkpt><trkpt lat="45.66865455710181" lon="9.963380583766472"><ele>191.0</ele><time>2026-04-27T07:04:33Z</time></trkpt><trkpt lat="45.66873329244051" lon="9.963323348216242"><ele>191.20000000000002</ele><time>2026-04-27T07:04:34Z</time></trkpt><trkpt lat="45.668798820543664" lon="9.963319367307703"><ele>191.4</ele><time>2026-04-27T07:04:35Z</time></trkpt><trkpt lat="45.668903445850475" lon="9.963412807195294"><ele>191.6</ele><time>2026-04-27T07:04:37Z</time></trkpt><trkpt lat="45.668929826938374" lon="9.963538859754122"><ele>191.8</ele><time>2026-04-27T07:04:38Z</time></trkpt><trkpt lat="45.668996338824584" lon="9.963680204248623"><ele>192.0</ele><time>2026-04-27T07:04:39Z</time></trkpt><trkpt lat="45.669027789074505" lon="9.963811005409132"><ele>192.0</ele><time>2026-04-27T07:04:40Z</time></trkpt><trkpt lat="45.66906898807626" lon="9.96392887371299"><ele>192.0</ele><time>2026-04-27T07:04:41Z</time></trkpt><trkpt lat="45.669102471337965" lon="9.96402614093201"><ele>192.0</ele><time>2026-04-27T07:04:42Z</time></trkpt><trkpt lat="45.66918524752175" lon="9.96413619272492"><ele>192.0</ele><time>2026-04-27T07:04:44Z</time></trkpt><trkpt lat="45.669250215279625" lon="9.96414828021498"><ele>192.0</ele><time>2026-04-27T07:04:45Z</time></trkpt><trkpt lat="45.6693647697009" lon="9.964281518441354"><ele>192.75</ele><time>2026-04-27T07:04:47Z</time></trkpt><trkpt lat="45.66944392614671" lon="9.964407434126334"><ele>193.5</ele><time>2026-04-27T07:04:48Z</time></trkpt><trkpt lat="45.66954083733659" lon="9.964536201670738"><ele>194.25</ele><time>2026-04-27T07:04:49Z</time></trkpt><trkpt lat="45.66962625194802" lon="9.964660320377574"><ele>195.0</ele><time>2026-04-27T07:04:50Z</time></trkpt><trkpt lat="45.66971213810922" lon="9.964794036433167"><ele>195.0</ele><time>2026-04-27T07:04:51Z</time></trkpt><trkpt lat="45.669795860402694" lon="9.964933380455813"><ele>195.0</ele><time>2026-04-27T07:04:52Z</time></trkpt><trkpt lat="45.66988653373837" lon="9.96508882019125"><ele>195.0</ele><time>2026-04-27T07:04:53Z</time></trkpt><trkpt lat="45.6699513321918" lon="9.965255640119507"><ele>195.0</ele><time>2026-04-27T07:04:54Z</time></trkpt><trkpt lat="45.670009760482365" lon="9.965444197495135"><ele>195.0</ele><time>2026-04-27T07:04:55Z</time></trkpt><trkpt lat="45.67005617056096" lon="9.965642366162154"><ele>195.0</ele><time>2026-04-27T07:04:56Z</time></trkpt><trkpt lat="45.67009574131864" lon="9.965844613526375"><ele>195.0</ele><time>2026-04-27T07:04:57Z</time></trkpt><trkpt lat="45.67011922707264" lon="9.966056402859406"><ele>195.0</ele><time>2026-04-27T07:04:58Z</time></trkpt><trkpt lat="45.6701362969072" lon="9.966253825133386"><ele>194.75</ele><time>2026-04-27T07:04:59Z</time></trkpt><trkpt lat="45.670166450454616" lon="9.966448544887385"><ele>194.5</ele><time>2026-04-27T07:05:00Z</time></trkpt><trkpt lat="45.670205659328175" lon="9.966653929518714"><ele>194.25</ele><time>2026-04-27T07:05:01Z</time></trkpt><trkpt lat="45.670255282911334" lon="9.966868372406141"><ele>194.0</ele><time>2026-04-27T07:05:02Z</time></trkpt><trkpt lat="45.67032231450547" lon="9.967082272922658"><ele>194.0</ele><time>2026-04-27T07:05:03Z</time></trkpt><trkpt lat="45.67039305403161" lon="9.967290307919152"><ele>194.0</ele><time>2026-04-27T07:05:04Z</time></trkpt><trkpt lat="45.670483075197104" lon="9.967489013623076"><ele>194.0</ele><time>2026-04-27T07:05:05Z</time></trkpt><trkpt lat="45.67057873503303" lon="9.96767221329613"><ele>194.0</ele><time>2026-04-27T07:05:06Z</time></trkpt><trkpt lat="45.670677643510594" lon="9.96785129033745"><ele>194.0</ele><time>2026-04-27T07:05:07Z</time></trkpt><trkpt lat="45.67077673588533" lon="9.968033342174088"><ele>194.0</ele><time>2026-04-27T07:05:08Z</time></trkpt><trkpt lat="45.670875852468626" lon="9.968228896360662"><ele>193.33333333333334</ele><time>2026-04-27T07:05:09Z</time></trkpt><trkpt lat="45.67097579230336" lon="9.968423718065498"><ele>192.66666666666669</ele><time>2026-04-27T07:05:10Z</time></trkpt><trkpt lat="45.67109552390526" lon="9.968595716340149"><ele>192.0</ele><time>2026-04-27T07:05:11Z</time></trkpt><trkpt lat="45.67121095186736" lon="9.968725647633494"><ele>193.0</ele><time>2026-04-27T07:05:12Z</time></trkpt><trkpt lat="45.671334222979006" lon="9.9688270292933"><ele>194.0</ele><time>2026-04-27T07:05:13Z</time></trkpt><trkpt lat="45.67145892760468" lon="9.968904534655145"><ele>195.0</ele><time>2026-04-27T07:05:14Z</time></trkpt><trkpt lat="45.67157050544898" lon="9.968963780251569"><ele>196.0</ele><time>2026-04-27T07:05:15Z</time></trkpt><trkpt lat="45.6716763180106" lon="9.968998295267525"><ele>196.0</ele><time>2026-04-27T07:05:16Z</time></trkpt><trkpt lat="45.67176082320177" lon="9.969032246011997"><ele>196.0</ele><time>2026-04-27T07:05:17Z</time></trkpt><trkpt lat="45.6718367896849" lon="9.969048063378219"><ele>196.0</ele><time>2026-04-27T07:05:18Z</time></trkpt><trkpt lat="45.671913338666904" lon="9.969031350573175"><ele>196.0</ele><time>2026-04-27T07:05:21Z</time></trkpt><trkpt lat="45.671986080336794" lon="9.969243732891915"><ele>196.0</ele><time>2026-04-27T07:05:23Z</time></trkpt><trkpt lat="45.672018868530245" lon="9.969343609262683"><ele>196.60000000000002</ele><time>2026-04-27T07:05:24Z</time></trkpt><trkpt lat="45.67206634568204" lon="9.969459751586369"><ele>197.2</ele><time>2026-04-27T07:05:25Z</time></trkpt><trkpt lat="45.67211612121823" lon="9.969579499408765"><ele>197.8</ele><time>2026-04-27T07:05:26Z</time></trkpt><trkpt lat="45.672177693623" lon="9.969730633823705"><ele>198.39999999999998</ele><time>2026-04-27T07:05:27Z</time></trkpt><trkpt lat="45.67224255595623" lon="9.969900970784403"><ele>199.0</ele><time>2026-04-27T07:05:28Z</time></trkpt><trkpt lat="45.67230810861506" lon="9.970077267672064"><ele>196.75</ele><time>2026-04-27T07:05:29Z</time></trkpt><trkpt lat="45.67235667791828" lon="9.970234122773732"><ele>194.5</ele><time>2026-04-27T07:05:30Z</time></trkpt><trkpt lat="45.672404561421246" lon="9.97037063144873"><ele>192.25</ele><time>2026-04-27T07:05:31Z</time></trkpt><trkpt lat="45.67245280973219" lon="9.970505248546942"><ele>190.0</ele><time>2026-04-27T07:05:32Z</time></trkpt><trkpt lat="45.672506833891205" lon="9.970663007831394"><ele>190.0</ele><time>2026-04-27T07:05:33Z</time></trkpt><trkpt lat="45.6725670174083" lon="9.970839063929738"><ele>190.0</ele><time>2026-04-27T07:05:34Z</time></trkpt><trkpt lat="45.672629271560226" lon="9.971032747768792"><ele>190.0</ele><time>2026-04-27T07:05:35Z</time></trkpt><trkpt lat="45.67270056393854" lon="9.9712669679066"><ele>189.0</ele><time>2026-04-27T07:05:36Z</time></trkpt><trkpt lat="45.672772474144956" lon="9.971532517744127"><ele>188.0</ele><time>2026-04-27T07:05:37Z</time></trkpt><trkpt lat="45.672848097744925" lon="9.971795495743436"><ele>187.0</ele><time>2026-04-27T07:05:38Z</time></trkpt><trkpt lat="45.672919506773596" lon="9.972063092406225"><ele>188.66666666666669</ele><time>2026-04-27T07:05:39Z</time></trkpt><trkpt lat="45.672970059446094" lon="9.972348174830389"><ele>190.33333333333334</ele><time>2026-04-27T07:05:40Z</time></trkpt><trkpt lat="45.67299656345919" lon="9.972618137847869"><ele>192.0</ele><time>2026-04-27T07:05:41Z</time></trkpt><trkpt lat="45.67300653037263" lon="9.972860174052832"><ele>192.0</ele><time>2026-04-27T07:05:42Z</time></trkpt><trkpt lat="45.6730235156546" lon="9.973080846683006"><ele>192.0</ele><time>2026-04-27T07:05:43Z</time></trkpt><trkpt lat="45.673039206066846" lon="9.973275100294295"><ele>192.0</ele><time>2026-04-27T07:05:44Z</time></trkpt><trkpt lat="45.67307313761315" lon="9.973450540187326"><ele>192.0</ele><time>2026-04-27T07:05:45Z</time></trkpt><trkpt lat="45.67310662099876" lon="9.973605615371525"><ele>191.75</ele><time>2026-04-27T07:05:46Z</time></trkpt><trkpt lat="45.673157676777215" lon="9.973776244542677"><ele>191.5</ele><time>2026-04-27T07:05:47Z</time></trkpt><trkpt lat="45.6732060311419" lon="9.973925109224291"><ele>191.25</ele><time>2026-04-27T07:05:48Z</time></trkpt><trkpt lat="45.67325860640036" lon="9.974087273524848"><ele>191.0</ele><time>2026-04-27T07:05:49Z</time></trkpt><trkpt lat="45.67330689570301" lon="9.974235223167433"><ele>190.25</ele><time>2026-04-27T07:05:50Z</time></trkpt><trkpt lat="45.67335775017261" lon="9.974374299632212"><ele>189.5</ele><time>2026-04-27T07:05:51Z</time></trkpt><trkpt lat="45.673413397573746" lon="9.974515714064223"><ele>188.75</ele><time>2026-04-27T07:05:52Z</time></trkpt><trkpt lat="45.67347542972017" lon="9.974676045841589"><ele>188.0</ele><time>2026-04-27T07:05:53Z</time></trkpt><trkpt lat="45.673530951292015" lon="9.974830481938918"><ele>188.0</ele><time>2026-04-27T07:05:54Z</time></trkpt><trkpt lat="45.673582580975555" lon="9.974961624362667"><ele>188.0</ele><time>2026-04-27T07:05:55Z</time></trkpt><trkpt lat="45.67363143251285" lon="9.975079413174129"><ele>188.0</ele><time>2026-04-27T07:05:56Z</time></trkpt><trkpt lat="45.67368603767685" lon="9.975194643901647"><ele>188.0</ele><time>2026-04-27T07:05:57Z</time></trkpt><trkpt lat="45.67373289994833" lon="9.975316998200979"><ele>188.0</ele><time>2026-04-27T07:05:58Z</time></trkpt><trkpt lat="45.673788155420574" lon="9.975422067257476"><ele>187.66666666666666</ele><time>2026-04-27T07:05:59Z</time></trkpt><trkpt lat="45.67383413688888" lon="9.975539487336997"><ele>187.33333333333331</ele><time>2026-04-27T07:06:00Z</time></trkpt><trkpt lat="45.673895308645236" lon="9.975618387386637"><ele>187.0</ele><time>2026-04-27T07:06:01Z</time></trkpt><trkpt lat="45.6739145720937" lon="9.975731639622438"><ele>186.66666666666666</ele><time>2026-04-27T07:06:03Z</time></trkpt><trkpt lat="45.673953472409956" lon="9.975805610197508"><ele>186.33333333333334</ele><time>2026-04-27T07:06:06Z</time></trkpt><trkpt lat="45.67403551500495" lon="9.975939991453107"><ele>186.0</ele><time>2026-04-27T07:06:08Z</time></trkpt><trkpt lat="45.67409124708401" lon="9.976022208248168"><ele>186.0</ele><time>2026-04-27T07:06:09Z</time></trkpt><trkpt lat="45.67418363924999" lon="9.976130147443376"><ele>186.0</ele><time>2026-04-27T07:06:10Z</time></trkpt><trkpt lat="45.674292436912424" lon="9.976266491763347"><ele>186.0</ele><time>2026-04-27T07:06:11Z</time></trkpt><trkpt lat="45.67441618643712" lon="9.976438629678784"><ele>186.0</ele><time>2026-04-27T07:06:12Z</time></trkpt><trkpt lat="45.6745526099115" lon="9.976620823639276"><ele>186.33333333333334</ele><time>2026-04-27T07:06:13Z</time></trkpt><trkpt lat="45.67468855021775" lon="9.976814461900416"><ele>186.66666666666669</ele><time>2026-04-27T07:06:14Z</time></trkpt><trkpt lat="45.67481867171768" lon="9.977018238427352"><ele>187.0</ele><time>2026-04-27T07:06:15Z</time></trkpt><trkpt lat="45.67493411615036" lon="9.977200664348223"><ele>187.0</ele><time>2026-04-27T07:06:16Z</time></trkpt><trkpt lat="45.67503932045863" lon="9.977373506809322"><ele>187.0</ele><time>2026-04-27T07:06:17Z</time></trkpt><trkpt lat="45.67515193109254" lon="9.977555380251024"><ele>187.0</ele><time>2026-04-27T07:06:18Z</time></trkpt><trkpt lat="45.67524777979211" lon="9.977750041766088"><ele>189.0</ele><time>2026-04-27T07:06:19Z</time></trkpt><trkpt lat="45.67533659750778" lon="9.977950745514187"><ele>191.0</ele><time>2026-04-27T07:06:20Z</time></trkpt><trkpt lat="45.675404243043985" lon="9.978144741055644"><ele>193.0</ele><time>2026-04-27T07:06:21Z</time></trkpt><trkpt lat="45.67546085995592" lon="9.978329323983814"><ele>192.0</ele><time>2026-04-27T07:06:22Z</time></trkpt><trkpt lat="45.67551745534444" lon="9.97851574756196"><ele>191.0</ele><time>2026-04-27T07:06:23Z</time></trkpt><trkpt lat="45.67557657632873" lon="9.978691109136001"><ele>190.0</ele><time>2026-04-27T07:06:24Z</time></trkpt><trkpt lat="45.67562713210708" lon="9.978852223488758"><ele>189.0</ele><time>2026-04-27T07:06:25Z</time></trkpt><trkpt lat="45.67567415973478" lon="9.979005574715288"><ele>189.0</ele><time>2026-04-27T07:06:26Z</time></trkpt><trkpt lat="45.67573023285255" lon="9.979180336723118"><ele>189.0</ele><time>2026-04-27T07:06:27Z</time></trkpt><trkpt lat="45.67578305350148" lon="9.979338669372197"><ele>189.0</ele><time>2026-04-27T07:06:28Z</time></trkpt><trkpt lat="45.67583293914195" lon="9.979484510628739"><ele>189.0</ele><time>2026-04-27T07:06:29Z</time></trkpt><trkpt lat="45.675871548819025" lon="9.979638627794722"><ele>188.0</ele><time>2026-04-27T07:06:30Z</time></trkpt><trkpt lat="45.67592155067696" lon="9.979799686696406"><ele>187.0</ele><time>2026-04-27T07:06:31Z</time></trkpt><trkpt lat="45.67597805174965" lon="9.979969446678828"><ele>186.0</ele><time>2026-04-27T07:06:32Z</time></trkpt><trkpt lat="45.67603576037315" lon="9.980145393742445"><ele>185.0</ele><time>2026-04-27T07:06:33Z</time></trkpt><trkpt lat="45.67609312474336" lon="9.980325535482576"><ele>186.5</ele><time>2026-04-27T07:06:34Z</time></trkpt><trkpt lat="45.67613091632925" lon="9.9805169604568"><ele>188.0</ele><time>2026-04-27T07:06:35Z</time></trkpt><trkpt lat="45.67615703695751" lon="9.98070308088761"><ele>189.5</ele><time>2026-04-27T07:06:36Z</time></trkpt><trkpt lat="45.67616624334887" lon="9.980884847285461"><ele>191.0</ele><time>2026-04-27T07:06:37Z</time></trkpt><trkpt lat="45.676167331076364" lon="9.981117684920962"><ele>191.33333333333331</ele><time>2026-04-27T07:06:38Z</time></trkpt><trkpt lat="45.676165015502576" lon="9.981381359405091"><ele>191.66666666666666</ele><time>2026-04-27T07:06:39Z</time></trkpt><trkpt lat="45.67616131038133" lon="9.981676229331677"><ele>192.0</ele><time>2026-04-27T07:06:40Z</time></trkpt><trkpt lat="45.676154268098635" lon="9.98194366977356"><ele>191.33333333333334</ele><time>2026-04-27T07:06:41Z</time></trkpt><trkpt lat="45.67613675591895" lon="9.982203514283947"><ele>190.66666666666669</ele><time>2026-04-27T07:06:42Z</time></trkpt><trkpt lat="45.676110264081764" lon="9.982452055830324"><ele>190.0</ele><time>2026-04-27T07:06:43Z</time></trkpt><trkpt lat="45.676100094784736" lon="9.982684944284754"><ele>190.66666666666669</ele><time>2026-04-27T07:06:44Z</time></trkpt><trkpt lat="45.67610916476648" lon="9.982935997780086"><ele>191.33333333333334</ele><time>2026-04-27T07:06:45Z</time></trkpt><trkpt lat="45.67614271021796" lon="9.983190142296724"><ele>192.0</ele><time>2026-04-27T07:06:46Z</time></trkpt><trkpt lat="45.676198325578454" lon="9.983463878628992"><ele>192.0</ele><time>2026-04-27T07:06:47Z</time></trkpt><trkpt lat="45.676270388182736" lon="9.983747659184363"><ele>192.0</ele><time>2026-04-27T07:06:48Z</time></trkpt><trkpt lat="45.67634194922744" lon="9.984029871306078"><ele>192.0</ele><time>2026-04-27T07:06:49Z</time></trkpt><trkpt lat="45.67640883048351" lon="9.98429386224116"><ele>192.33333333333331</ele><time>2026-04-27T07:06:50Z</time></trkpt><trkpt lat="45.67648128231779" lon="9.98456225639534"><ele>192.66666666666666</ele><time>2026-04-27T07:06:51Z</time></trkpt><trkpt lat="45.6765470742692" lon="9.984817605327805"><ele>193.0</ele><time>2026-04-27T07:06:52Z</time></trkpt><trkpt lat="45.676593949291416" lon="9.985087331472796"><ele>193.66666666666666</ele><time>2026-04-27T07:06:53Z</time></trkpt><trkpt lat="45.67665665712372" lon="9.985334189127506"><ele>194.33333333333331</ele><time>2026-04-27T07:06:54Z</time></trkpt><trkpt lat="45.67671395691812" lon="9.985559757240964"><ele>195.0</ele><time>2026-04-27T07:06:55Z</time></trkpt><trkpt lat="45.67678563179682" lon="9.985791791615394"><ele>193.66666666666666</ele><time>2026-04-27T07:06:56Z</time></trkpt><trkpt lat="45.67684914355077" lon="9.98605761726351"><ele>192.33333333333331</ele><time>2026-04-27T07:06:57Z</time></trkpt><trkpt lat="45.67691965750222" lon="9.986331779805552"><ele>191.0</ele><time>2026-04-27T07:06:58Z</time></trkpt><trkpt lat="45.67699266132777" lon="9.98659559767896"><ele>197.0</ele><time>2026-04-27T07:06:59Z</time></trkpt><trkpt lat="45.677057418243706" lon="9.986840459121627"><ele>203.0</ele><time>2026-04-27T07:07:00Z</time></trkpt><trkpt lat="45.67711916434356" lon="9.987092201025945"><ele>209.0</ele><time>2026-04-27T07:07:01Z</time></trkpt><trkpt lat="45.677184791700455" lon="9.98734407730628"><ele>207.66666666666669</ele><time>2026-04-27T07:07:02Z</time></trkpt><trkpt lat="45.677239968977986" lon="9.98759986182206"><ele>206.33333333333331</ele><time>2026-04-27T07:07:03Z</time></trkpt><trkpt lat="45.67728211875662" lon="9.98786082980319"><ele>205.0</ele><time>2026-04-27T07:07:04Z</time></trkpt><trkpt lat="45.67730186828808" lon="9.988138757124846"><ele>204.66666666666666</ele><time>2026-04-27T07:07:05Z</time></trkpt><trkpt lat="45.67730293673123" lon="9.988427235111118"><ele>204.33333333333331</ele><time>2026-04-27T07:07:06Z</time></trkpt><trkpt lat="45.677243410883534" lon="9.988714941435978"><ele>204.0</ele><time>2026-04-27T07:07:07Z</time></trkpt><trkpt lat="45.67718197927672" lon="9.988997916315986"><ele>204.0</ele><time>2026-04-27T07:07:08Z</time></trkpt><trkpt lat="45.677115150896306" lon="9.989258913268207"><ele>204.0</ele><time>2026-04-27T07:07:09Z</time></trkpt><trkpt lat="45.677052044855216" lon="9.989502794532026"><ele>204.0</ele><time>2026-04-27T07:07:10Z</time></trkpt><trkpt lat="45.67698788145518" lon="9.989751260363022"><ele>198.66666666666666</ele><time>2026-04-27T07:07:11Z</time></trkpt><trkpt lat="45.67692503543067" lon="9.989994624820365"><ele>193.33333333333331</ele><time>2026-04-27T07:07:12Z</time></trkpt><trkpt lat="45.676866558491085" lon="9.990213239669002"><ele>188.0</ele><time>2026-04-27T07:07:13Z</time></trkpt><trkpt lat="45.676826895708246" lon="9.990429955529546"><ele>188.0</ele><time>2026-04-27T07:07:14Z</time></trkpt><trkpt lat="45.67676598530611" lon="9.990648364487454"><ele>188.0</ele><time>2026-04-27T07:07:15Z</time></trkpt><trkpt lat="45.676718466170854" lon="9.9908657811198"><ele>188.0</ele><time>2026-04-27T07:07:16Z</time></trkpt><trkpt lat="45.67669834430844" lon="9.991095991318986"><ele>188.0</ele><time>2026-04-27T07:07:17Z</time></trkpt><trkpt lat="45.67671828648001" lon="9.991318003730612"><ele>188.0</ele><time>2026-04-27T07:07:18Z</time></trkpt><trkpt lat="45.67677342150812" lon="9.99153267625751"><ele>188.0</ele><time>2026-04-27T07:07:19Z</time></trkpt><trkpt lat="45.67685312257102" lon="9.991760342351244"><ele>186.33333333333331</ele><time>2026-04-27T07:07:20Z</time></trkpt><trkpt lat="45.676932325105376" lon="9.99201364053597"><ele>184.66666666666666</ele><time>2026-04-27T07:07:21Z</time></trkpt><trkpt lat="45.67701486462735" lon="9.99228494666124"><ele>183.0</ele><time>2026-04-27T07:07:22Z</time></trkpt><trkpt lat="45.67707440077729" lon="9.992542590317893"><ele>188.0</ele><time>2026-04-27T07:07:23Z</time></trkpt><trkpt lat="45.67714344284892" lon="9.992778847941844"><ele>193.0</ele><time>2026-04-27T07:07:24Z</time></trkpt><trkpt lat="45.67719793308941" lon="9.993011899952783"><ele>198.0</ele><time>2026-04-27T07:07:25Z</time></trkpt><trkpt lat="45.677253125804185" lon="9.993235206268858"><ele>196.5</ele><time>2026-04-27T07:07:26Z</time></trkpt><trkpt lat="45.67729437591083" lon="9.993445614379118"><ele>195.0</ele><time>2026-04-27T07:07:27Z</time></trkpt><trkpt lat="45.67734047775125" lon="9.993628585328837"><ele>193.5</ele><time>2026-04-27T07:07:28Z</time></trkpt><trkpt lat="45.67737095575643" lon="9.993810380084442"><ele>192.0</ele><time>2026-04-27T07:07:29Z</time></trkpt><trkpt lat="45.677399232635416" lon="9.99397438410908"><ele>192.0</ele><time>2026-04-27T07:07:30Z</time></trkpt><trkpt lat="45.67743773130848" lon="9.99412882550196"><ele>192.0</ele><time>2026-04-27T07:07:31Z</time></trkpt><trkpt lat="45.67747213871047" lon="9.994271968319039"><ele>192.0</ele><time>2026-04-27T07:07:32Z</time></trkpt><trkpt lat="45.67749641839212" lon="9.99439834648581"><ele>192.0</ele><time>2026-04-27T07:07:33Z</time></trkpt><trkpt lat="45.67751817813718" lon="9.994490915197023"><ele>192.0</ele><time>2026-04-27T07:07:34Z</time></trkpt><trkpt lat="45.677555028232575" lon="9.994603913930668"><ele>190.8</ele><time>2026-04-27T07:07:36Z</time></trkpt><trkpt lat="45.67757128549317" lon="9.994709309180235"><ele>189.6</ele><time>2026-04-27T07:07:39Z</time></trkpt><trkpt lat="45.67758498294113" lon="9.994803150846701"><ele>188.4</ele><time>2026-04-27T07:07:41Z</time></trkpt><trkpt lat="45.67760617327436" lon="9.994966961067751"><ele>187.20000000000002</ele><time>2026-04-27T07:07:43Z</time></trkpt><trkpt lat="45.6776369521159" lon="9.99508940303826"><ele>186.0</ele><time>2026-04-27T07:07:44Z</time></trkpt><trkpt lat="45.67766743446994" lon="9.995231935774274"><ele>185.75</ele><time>2026-04-27T07:07:45Z</time></trkpt><trkpt lat="45.677712503577375" lon="9.995417483254213"><ele>185.5</ele><time>2026-04-27T07:07:46Z</time></trkpt><trkpt lat="45.67775992676734" lon="9.995617043884602"><ele>185.25</ele><time>2026-04-27T07:07:47Z</time></trkpt><trkpt lat="45.67780303848509" lon="9.99582286785982"><ele>185.0</ele><time>2026-04-27T07:07:48Z</time></trkpt><trkpt lat="45.67785219637742" lon="9.996041165263748"><ele>187.0</ele><time>2026-04-27T07:07:49Z</time></trkpt><trkpt lat="45.677903703098885" lon="9.996267967661215"><ele>189.0</ele><time>2026-04-27T07:07:50Z</time></trkpt><trkpt lat="45.67795320950281" lon="9.996502845373039"><ele>191.0</ele><time>2026-04-27T07:07:51Z</time></trkpt><trkpt lat="45.67800998049306" lon="9.996729820794407"><ele>191.0</ele><time>2026-04-27T07:07:52Z</time></trkpt><trkpt lat="45.67805926384656" lon="9.996963962286644"><ele>191.0</ele><time>2026-04-27T07:07:53Z</time></trkpt><trkpt lat="45.678109863329034" lon="9.997212003267085"><ele>191.0</ele><time>2026-04-27T07:07:54Z</time></trkpt><trkpt lat="45.67817477474631" lon="9.997460605825573"><ele>190.66666666666666</ele><time>2026-04-27T07:07:55Z</time></trkpt><trkpt lat="45.67823314479042" lon="9.997697285628224"><ele>190.33333333333334</ele><time>2026-04-27T07:07:56Z</time></trkpt><trkpt lat="45.678297509667516" lon="9.997926974832419"><ele>190.0</ele><time>2026-04-27T07:07:57Z</time></trkpt><trkpt lat="45.6783617196646" lon="9.998161642594262"><ele>189.66666666666669</ele><time>2026-04-27T07:07:58Z</time></trkpt><trkpt lat="45.678431483700436" lon="9.99840680212983"><ele>189.33333333333334</ele><time>2026-04-27T07:07:59Z</time></trkpt><trkpt lat="45.678504859000896" lon="9.998659377970293"><ele>189.0</ele><time>2026-04-27T07:08:00Z</time></trkpt><trkpt lat="45.67856833431484" lon="9.998906516229079"><ele>191.0</ele><time>2026-04-27T07:08:01Z</time></trkpt><trkpt lat="45.67863331309899" lon="9.999153209672706"><ele>193.0</ele><time>2026-04-27T07:08:02Z</time></trkpt><trkpt lat="45.67870069306946" lon="9.99940515670324"><ele>195.0</ele><time>2026-04-27T07:08:03Z</time></trkpt><trkpt lat="45.6787640192155" lon="9.999652876510735"><ele>195.0</ele><time>2026-04-27T07:08:04Z</time></trkpt><trkpt lat="45.67883281997911" lon="9.999905175234185"><ele>195.0</ele><time>2026-04-27T07:08:05Z</time></trkpt><trkpt lat="45.6788941343596" lon="10.000148575478338"><ele>195.0</ele><time>2026-04-27T07:08:06Z</time></trkpt><trkpt lat="45.67895390348947" lon="10.000391133736214"><ele>195.0</ele><time>2026-04-27T07:08:07Z</time></trkpt><trkpt lat="45.679006089921394" lon="10.000639905575492"><ele>195.0</ele><time>2026-04-27T07:08:08Z</time></trkpt><trkpt lat="45.679046920605124" lon="10.000890472149209"><ele>195.0</ele><time>2026-04-27T07:08:09Z</time></trkpt><trkpt lat="45.6790703670084" lon="10.001141911532079"><ele>193.66666666666666</ele><time>2026-04-27T07:08:10Z</time></trkpt><trkpt lat="45.67909853337903" lon="10.001405891693745"><ele>192.33333333333331</ele><time>2026-04-27T07:08:11Z</time></trkpt><trkpt lat="45.67909481051443" lon="10.001648736899245"><ele>191.0</ele><time>2026-04-27T07:08:12Z</time></trkpt><trkpt lat="45.67908607602851" lon="10.001879729831"><ele>190.66666666666666</ele><time>2026-04-27T07:08:13Z</time></trkpt><trkpt lat="45.67908803504785" lon="10.002112911194438"><ele>190.33333333333334</ele><time>2026-04-27T07:08:14Z</time></trkpt><trkpt lat="45.679080635381204" lon="10.002334755910452"><ele>190.0</ele><time>2026-04-27T07:08:15Z</time></trkpt><trkpt lat="45.67908415226984" lon="10.00253507042619"><ele>189.25</ele><time>2026-04-27T07:08:16Z</time></trkpt><trkpt lat="45.679082612088166" lon="10.002719932469779"><ele>188.5</ele><time>2026-04-27T07:08:17Z</time></trkpt><trkpt lat="45.67907820061076" lon="10.00289725366023"><ele>187.75</ele><time>2026-04-27T07:08:18Z</time></trkpt><trkpt lat="45.67908010889605" lon="10.003078387636114"><ele>187.0</ele><time>2026-04-27T07:08:19Z</time></trkpt><trkpt lat="45.67908943555606" lon="10.00326999462922"><ele>186.75</ele><time>2026-04-27T07:08:20Z</time></trkpt><trkpt lat="45.679102784053086" lon="10.003466956885458"><ele>186.5</ele><time>2026-04-27T07:08:21Z</time></trkpt><trkpt lat="45.67910458678927" lon="10.003672782640697"><ele>186.25</ele><time>2026-04-27T07:08:22Z</time></trkpt><trkpt lat="45.679113794964856" lon="10.003891841616092"><ele>186.0</ele><time>2026-04-27T07:08:23Z</time></trkpt><trkpt lat="45.67913229946943" lon="10.004138931390294"><ele>186.0</ele><time>2026-04-27T07:08:24Z</time></trkpt><trkpt lat="45.679158430322715" lon="10.004399171161944"><ele>186.0</ele><time>2026-04-27T07:08:25Z</time></trkpt><trkpt lat="45.67920106994693" lon="10.004668418314496"><ele>186.0</ele><time>2026-04-27T07:08:26Z</time></trkpt><trkpt lat="45.6792495032261" lon="10.004941363360642"><ele>185.66666666666666</ele><time>2026-04-27T07:08:27Z</time></trkpt><trkpt lat="45.679295101138415" lon="10.005214988479846"><ele>185.33333333333331</ele><time>2026-04-27T07:08:28Z</time></trkpt><trkpt lat="45.67934265401621" lon="10.005472187336915"><ele>185.0</ele><time>2026-04-27T07:08:29Z</time></trkpt><trkpt lat="45.67938944419034" lon="10.00572552761193"><ele>187.66666666666666</ele><time>2026-04-27T07:08:30Z</time></trkpt><trkpt lat="45.67944321889784" lon="10.005971175832542"><ele>190.33333333333331</ele><time>2026-04-27T07:08:31Z</time></trkpt><trkpt lat="45.67949498187838" lon="10.006222471641935"><ele>193.0</ele><time>2026-04-27T07:08:32Z</time></trkpt><trkpt lat="45.679548105618395" lon="10.00647864365223"><ele>193.33333333333331</ele><time>2026-04-27T07:08:33Z</time></trkpt><trkpt lat="45.679604876564746" lon="10.00673535358618"><ele>193.66666666666669</ele><time>2026-04-27T07:08:34Z</time></trkpt><trkpt lat="45.679664759130034" lon="10.006999163306144"><ele>194.0</ele><time>2026-04-27T07:08:35Z</time></trkpt><trkpt lat="45.679731288378385" lon="10.007254479518714"><ele>193.0</ele><time>2026-04-27T07:08:36Z</time></trkpt><trkpt lat="45.67978834806079" lon="10.00749588955294"><ele>192.0</ele><time>2026-04-27T07:08:37Z</time></trkpt><trkpt lat="45.67984150292825" lon="10.007733555065245"><ele>191.0</ele><time>2026-04-27T07:08:38Z</time></trkpt><trkpt lat="45.679877005382444" lon="10.007965734994853"><ele>191.0</ele><time>2026-04-27T07:08:39Z</time></trkpt><trkpt lat="45.679903030062746" lon="10.008179259476265"><ele>191.0</ele><time>2026-04-27T07:08:40Z</time></trkpt><trkpt lat="45.67992073319301" lon="10.00838399345301"><ele>191.0</ele><time>2026-04-27T07:08:41Z</time></trkpt><trkpt lat="45.67994887748034" lon="10.008588160893632"><ele>191.0</ele><time>2026-04-27T07:08:42Z</time></trkpt><trkpt lat="45.679961059586525" lon="10.008783128573128"><ele>190.20000000000002</ele><time>2026-04-27T07:08:43Z</time></trkpt><trkpt lat="45.67997227978419" lon="10.008948707578195"><ele>189.4</ele><time>2026-04-27T07:08:44Z</time></trkpt><trkpt lat="45.67998183682882" lon="10.0090970349189"><ele>188.6</ele><time>2026-04-27T07:08:45Z</time></trkpt><trkpt lat="45.679991233531716" lon="10.009250904839584"><ele>187.8</ele><time>2026-04-27T07:08:46Z</time></trkpt><trkpt lat="45.68000131854865" lon="10.009389387330048"><ele>187.0</ele><time>2026-04-27T07:08:47Z</time></trkpt><trkpt lat="45.680004246019074" lon="10.009509769639354"><ele>187.0</ele><time>2026-04-27T07:08:48Z</time></trkpt><trkpt lat="45.6800195087781" lon="10.009645692970063"><ele>187.0</ele><time>2026-04-27T07:08:49Z</time></trkpt><trkpt lat="45.68003570052676" lon="10.009828420302343"><ele>187.0</ele><time>2026-04-27T07:08:50Z</time></trkpt><trkpt lat="45.68004566986439" lon="10.01003269144889"><ele>187.0</ele><time>2026-04-27T07:08:51Z</time></trkpt><trkpt lat="45.68006066163828" lon="10.01026279558319"><ele>187.66666666666669</ele><time>2026-04-27T07:08:52Z</time></trkpt><trkpt lat="45.68006614112016" lon="10.010499655258394"><ele>188.33333333333334</ele><time>2026-04-27T07:08:53Z</time></trkpt><trkpt lat="45.68009471350711" lon="10.010739510571916"><ele>189.0</ele><time>2026-04-27T07:08:54Z</time></trkpt><trkpt lat="45.68013285350833" lon="10.010993223302023"><ele>189.0</ele><time>2026-04-27T07:08:55Z</time></trkpt><trkpt lat="45.680171420114696" lon="10.01123972815568"><ele>189.0</ele><time>2026-04-27T07:08:56Z</time></trkpt><trkpt lat="45.68022332560611" lon="10.011467860897081"><ele>189.0</ele><time>2026-04-27T07:08:57Z</time></trkpt><trkpt lat="45.68027831449004" lon="10.011671976784603"><ele>192.0</ele><time>2026-04-27T07:08:58Z</time></trkpt><trkpt lat="45.6803460003993" lon="10.011872469295353"><ele>195.0</ele><time>2026-04-27T07:08:59Z</time></trkpt><trkpt lat="45.680418632903205" lon="10.012073611792923"><ele>198.0</ele><time>2026-04-27T07:09:00Z</time></trkpt><trkpt lat="45.68048125914959" lon="10.012293627133813"><ele>196.66666666666669</ele><time>2026-04-27T07:09:01Z</time></trkpt><trkpt lat="45.68051186716195" lon="10.012527538369532"><ele>195.33333333333334</ele><time>2026-04-27T07:09:02Z</time></trkpt><trkpt lat="45.6805226267102" lon="10.012768093713508"><ele>194.0</ele><time>2026-04-27T07:09:03Z</time></trkpt><trkpt lat="45.680533350631045" lon="10.012995572903584"><ele>194.0</ele><time>2026-04-27T07:09:04Z</time></trkpt><trkpt lat="45.68054597844641" lon="10.013228195482668"><ele>194.0</ele><time>2026-04-27T07:09:05Z</time></trkpt><trkpt lat="45.68056178341469" lon="10.013466830919555"><ele>194.0</ele><time>2026-04-27T07:09:06Z</time></trkpt><trkpt lat="45.68056114566803" lon="10.013705262292504"><ele>194.0</ele><time>2026-04-27T07:09:07Z</time></trkpt><trkpt lat="45.6805589628775" lon="10.01395125934139"><ele>194.0</ele><time>2026-04-27T07:09:08Z</time></trkpt><trkpt lat="45.680555196042405" lon="10.014192977807662"><ele>194.0</ele><time>2026-04-27T07:09:09Z</time></trkpt><trkpt lat="45.68055547350607" lon="10.014414658081503"><ele>193.66666666666669</ele><time>2026-04-27T07:09:10Z</time></trkpt><trkpt lat="45.68055761058211" lon="10.014634148477603"><ele>193.33333333333331</ele><time>2026-04-27T07:09:11Z</time></trkpt><trkpt lat="45.6805559600011" lon="10.014859786446912"><ele>193.0</ele><time>2026-04-27T07:09:12Z</time></trkpt><trkpt lat="45.680550346637794" lon="10.015086262310774"><ele>192.33333333333331</ele><time>2026-04-27T07:09:13Z</time></trkpt><trkpt lat="45.68055333396483" lon="10.015323254622084"><ele>191.66666666666666</ele><time>2026-04-27T07:09:14Z</time></trkpt><trkpt lat="45.68055324946944" lon="10.015552834122555"><ele>191.0</ele><time>2026-04-27T07:09:15Z</time></trkpt><trkpt lat="45.68055547575789" lon="10.015777915405488"><ele>191.33333333333331</ele><time>2026-04-27T07:09:16Z</time></trkpt><trkpt lat="45.680552436194894" lon="10.016003782723597"><ele>191.66666666666666</ele><time>2026-04-27T07:09:17Z</time></trkpt><trkpt lat="45.68055058004601" lon="10.016215855780437"><ele>192.0</ele><time>2026-04-27T07:09:18Z</time></trkpt><trkpt lat="45.68054583932704" lon="10.016427382759755"><ele>192.0</ele><time>2026-04-27T07:09:19Z</time></trkpt><trkpt lat="45.6805410840547" lon="10.016644334418215"><ele>192.0</ele><time>2026-04-27T07:09:20Z</time></trkpt><trkpt lat="45.680536944404174" lon="10.016867667377959"><ele>192.0</ele><time>2026-04-27T07:09:21Z</time></trkpt><trkpt lat="45.68052764905008" lon="10.017099776070278"><ele>192.33333333333331</ele><time>2026-04-27T07:09:22Z</time></trkpt><trkpt lat="45.68051628966118" lon="10.017317175268019"><ele>192.66666666666666</ele><time>2026-04-27T07:09:23Z</time></trkpt><trkpt lat="45.6805202207172" lon="10.017545610125097"><ele>193.0</ele><time>2026-04-27T07:09:24Z</time></trkpt><trkpt lat="45.68050238500297" lon="10.017781275229563"><ele>194.0</ele><time>2026-04-27T07:09:25Z</time></trkpt><trkpt lat="45.680489803798174" lon="10.01801413030074"><ele>195.0</ele><time>2026-04-27T07:09:26Z</time></trkpt><trkpt lat="45.68047395162732" lon="10.018235969516976"><ele>196.0</ele><time>2026-04-27T07:09:27Z</time></trkpt><trkpt lat="45.680460354507254" lon="10.018433990475927"><ele>196.0</ele><time>2026-04-27T07:09:28Z</time></trkpt><trkpt lat="45.68045259044539" lon="10.018604044674543"><ele>196.0</ele><time>2026-04-27T07:09:29Z</time></trkpt><trkpt lat="45.680451721477894" lon="10.018776183939014"><ele>196.0</ele><time>2026-04-27T07:09:30Z</time></trkpt><trkpt lat="45.68045923832996" lon="10.018958558963618"><ele>196.0</ele><time>2026-04-27T07:09:31Z</time></trkpt><trkpt lat="45.68047125925019" lon="10.019138833213818"><ele>195.75</ele><time>2026-04-27T07:09:32Z</time></trkpt><trkpt lat="45.68048391888592" lon="10.019334764206208"><ele>195.5</ele><time>2026-04-27T07:09:33Z</time></trkpt><trkpt lat="45.68050737170722" lon="10.019533872937378"><ele>195.25</ele><time>2026-04-27T07:09:34Z</time></trkpt><trkpt lat="45.68053495095349" lon="10.019726133144593"><ele>195.0</ele><time>2026-04-27T07:09:35Z</time></trkpt><trkpt lat="45.680560263881496" lon="10.01992736841722"><ele>195.0</ele><time>2026-04-27T07:09:36Z</time></trkpt><trkpt lat="45.680584507695436" lon="10.020127245751356"><ele>195.0</ele><time>2026-04-27T07:09:37Z</time></trkpt><trkpt lat="45.68060410109029" lon="10.020328852426152"><ele>195.0</ele><time>2026-04-27T07:09:38Z</time></trkpt><trkpt lat="45.68063868973437" lon="10.02054838336087"><ele>195.0</ele><time>2026-04-27T07:09:39Z</time></trkpt><trkpt lat="45.68068440716366" lon="10.0207850101906"><ele>194.66666666666669</ele><time>2026-04-27T07:09:40Z</time></trkpt><trkpt lat="45.68074012360135" lon="10.02101375264256"><ele>194.33333333333334</ele><time>2026-04-27T07:09:41Z</time></trkpt><trkpt lat="45.68080471807731" lon="10.02123971422184"><ele>194.0</ele><time>2026-04-27T07:09:42Z</time></trkpt><trkpt lat="45.68088375524179" lon="10.021483228567352"><ele>193.0</ele><time>2026-04-27T07:09:43Z</time></trkpt><trkpt lat="45.68095747005332" lon="10.02172902682026"><ele>192.0</ele><time>2026-04-27T07:09:44Z</time></trkpt><trkpt lat="45.68103043112996" lon="10.021974557370513"><ele>191.0</ele><time>2026-04-27T07:09:45Z</time></trkpt><trkpt lat="45.681103315277845" lon="10.0222120628493"><ele>193.0</ele><time>2026-04-27T07:09:46Z</time></trkpt><trkpt lat="45.681169182829734" lon="10.022440482500052"><ele>195.0</ele><time>2026-04-27T07:09:47Z</time></trkpt><trkpt lat="45.68123476768099" lon="10.022664924218425"><ele>197.0</ele><time>2026-04-27T07:09:48Z</time></trkpt><trkpt lat="45.68130119727376" lon="10.02289106163877"><ele>197.0</ele><time>2026-04-27T07:09:49Z</time></trkpt><trkpt lat="45.681373877024754" lon="10.02311797923409"><ele>197.0</ele><time>2026-04-27T07:09:50Z</time></trkpt><trkpt lat="45.68145077011899" lon="10.023357145658707"><ele>197.0</ele><time>2026-04-27T07:09:51Z</time></trkpt><trkpt lat="45.68152245304241" lon="10.0235967682313"><ele>195.66666666666669</ele><time>2026-04-27T07:09:52Z</time></trkpt><trkpt lat="45.68160011814155" lon="10.023837559656291"><ele>194.33333333333331</ele><time>2026-04-27T07:09:53Z</time></trkpt><trkpt lat="45.68167813740334" lon="10.024070754335835"><ele>193.0</ele><time>2026-04-27T07:09:54Z</time></trkpt><trkpt lat="45.68175281532782" lon="10.024295127771483"><ele>192.0</ele><time>2026-04-27T07:09:55Z</time></trkpt><trkpt lat="45.68182069634827" lon="10.024520369492715"><ele>191.0</ele><time>2026-04-27T07:09:56Z</time></trkpt><trkpt lat="45.6818835826973" lon="10.024750303361381"><ele>190.0</ele><time>2026-04-27T07:09:57Z</time></trkpt><trkpt lat="45.68193245515862" lon="10.024983328302586"><ele>193.0</ele><time>2026-04-27T07:09:58Z</time></trkpt><trkpt lat="45.68195848243025" lon="10.025227364514405"><ele>196.0</ele><time>2026-04-27T07:09:59Z</time></trkpt><trkpt lat="45.68197902052018" lon="10.025495793027913"><ele>199.0</ele><time>2026-04-27T07:10:00Z</time></trkpt><trkpt lat="45.68199325636406" lon="10.025761378268902"><ele>198.33333333333331</ele><time>2026-04-27T07:10:01Z</time></trkpt><trkpt lat="45.681999767778976" lon="10.026034901798983"><ele>197.66666666666669</ele><time>2026-04-27T07:10:02Z</time></trkpt><trkpt lat="45.68201557123411" lon="10.026296337639224"><ele>197.0</ele><time>2026-04-27T07:10:03Z</time></trkpt><trkpt lat="45.681999938293856" lon="10.026551319647787"><ele>198.33333333333334</ele><time>2026-04-27T07:10:04Z</time></trkpt><trkpt lat="45.68197501036822" lon="10.02681662306057"><ele>199.66666666666669</ele><time>2026-04-27T07:10:05Z</time></trkpt><trkpt lat="45.68193424363874" lon="10.027074082422256"><ele>201.0</ele><time>2026-04-27T07:10:06Z</time></trkpt><trkpt lat="45.681905269560765" lon="10.02733342060369"><ele>201.33333333333331</ele><time>2026-04-27T07:10:07Z</time></trkpt><trkpt lat="45.681904652827036" lon="10.027616556166391"><ele>201.66666666666666</ele><time>2026-04-27T07:10:08Z</time></trkpt><trkpt lat="45.68191881779222" lon="10.027902018391268"><ele>202.0</ele><time>2026-04-27T07:10:09Z</time></trkpt><trkpt lat="45.68195355868286" lon="10.028197139102433"><ele>203.66666666666666</ele><time>2026-04-27T07:10:10Z</time></trkpt><trkpt lat="45.68200350910103" lon="10.028481757078593"><ele>205.33333333333331</ele><time>2026-04-27T07:10:11Z</time></trkpt><trkpt lat="45.682068120541906" lon="10.02877467752327"><ele>207.0</ele><time>2026-04-27T07:10:12Z</time></trkpt><trkpt lat="45.6821312037285" lon="10.029064729623112"><ele>205.33333333333331</ele><time>2026-04-27T07:10:13Z</time></trkpt><trkpt lat="45.68219403165268" lon="10.029358874017605"><ele>203.66666666666666</ele><time>2026-04-27T07:10:14Z</time></trkpt><trkpt lat="45.682246032600766" lon="10.029661384571146"><ele>202.0</ele><time>2026-04-27T07:10:15Z</time></trkpt><trkpt lat="45.68229067765467" lon="10.02996028709029"><ele>201.0</ele><time>2026-04-27T07:10:16Z</time></trkpt><trkpt lat="45.682340189576266" lon="10.030265298949582"><ele>200.0</ele><time>2026-04-27T07:10:17Z</time></trkpt><trkpt lat="45.68238955891869" lon="10.030542048710968"><ele>199.0</ele><time>2026-04-27T07:10:18Z</time></trkpt><trkpt lat="45.682432901523704" lon="10.03083724306481"><ele>198.0</ele><time>2026-04-27T07:10:19Z</time></trkpt><trkpt lat="45.68246260091546" lon="10.03114279697192"><ele>197.0</ele><time>2026-04-27T07:10:20Z</time></trkpt><trkpt lat="45.68247008188164" lon="10.031453216685028"><ele>196.0</ele><time>2026-04-27T07:10:21Z</time></trkpt><trkpt lat="45.68245197237116" lon="10.03175532974375"><ele>196.0</ele><time>2026-04-27T07:10:22Z</time></trkpt><trkpt lat="45.68243258134647" lon="10.032038128600071"><ele>196.0</ele><time>2026-04-27T07:10:23Z</time></trkpt><trkpt lat="45.68242191750034" lon="10.03229415190018"><ele>196.0</ele><time>2026-04-27T07:10:24Z</time></trkpt><trkpt lat="45.682427965350364" lon="10.03254838814947"><ele>194.66666666666666</ele><time>2026-04-27T07:10:25Z</time></trkpt><trkpt lat="45.68247337914685" lon="10.032819558868828"><ele>193.33333333333331</ele><time>2026-04-27T07:10:26Z</time></trkpt><trkpt lat="45.682543948159456" lon="10.033089234004564"><ele>192.0</ele><time>2026-04-27T07:10:27Z</time></trkpt><trkpt lat="45.68261951618846" lon="10.033359479680186"><ele>191.66666666666666</ele><time>2026-04-27T07:10:28Z</time></trkpt><trkpt lat="45.6826833700922" lon="10.0336459475111"><ele>191.33333333333331</ele><time>2026-04-27T07:10:29Z</time></trkpt><trkpt lat="45.68270363404771" lon="10.033927698384767"><ele>191.0</ele><time>2026-04-27T07:10:30Z</time></trkpt><trkpt lat="45.682687549129064" lon="10.034192215653318"><ele>189.0</ele><time>2026-04-27T07:10:31Z</time></trkpt><trkpt lat="45.682649279900446" lon="10.034422547389182"><ele>187.0</ele><time>2026-04-27T07:10:32Z</time></trkpt><trkpt lat="45.68261957756363" lon="10.034658286086557"><ele>185.0</ele><time>2026-04-27T07:10:33Z</time></trkpt><trkpt lat="45.682605079059506" lon="10.034905186247235"><ele>186.66666666666666</ele><time>2026-04-27T07:10:34Z</time></trkpt><trkpt lat="45.68263080777008" lon="10.03514853310454"><ele>188.33333333333334</ele><time>2026-04-27T07:10:35Z</time></trkpt><trkpt lat="45.68267600954719" lon="10.035370890499403"><ele>190.0</ele><time>2026-04-27T07:10:36Z</time></trkpt><trkpt lat="45.68275479530085" lon="10.03560032162331"><ele>193.0</ele><time>2026-04-27T07:10:37Z</time></trkpt><trkpt lat="45.68282429317993" lon="10.03585579599512"><ele>196.0</ele><time>2026-04-27T07:10:38Z</time></trkpt><trkpt lat="45.682863348095964" lon="10.036128518860727"><ele>199.0</ele><time>2026-04-27T07:10:39Z</time></trkpt><trkpt lat="45.68288144302237" lon="10.036432466233968"><ele>201.33333333333331</ele><time>2026-04-27T07:10:40Z</time></trkpt><trkpt lat="45.68289077588853" lon="10.036733531362541"><ele>203.66666666666669</ele><time>2026-04-27T07:10:41Z</time></trkpt><trkpt lat="45.68290131858593" lon="10.037041475763152"><ele>206.0</ele><time>2026-04-27T07:10:42Z</time></trkpt><trkpt lat="45.682916293507496" lon="10.037337941954448"><ele>204.66666666666669</ele><time>2026-04-27T07:10:43Z</time></trkpt><trkpt lat="45.68292286498209" lon="10.037625043004239"><ele>203.33333333333331</ele><time>2026-04-27T07:10:44Z</time></trkpt><trkpt lat="45.682926200130005" lon="10.037892599564307"><ele>202.0</ele><time>2026-04-27T07:10:45Z</time></trkpt><trkpt lat="45.6829157237962" lon="10.038161060767917"><ele>202.0</ele><time>2026-04-27T07:10:46Z</time></trkpt><trkpt lat="45.68287814933776" lon="10.038419765646681"><ele>202.0</ele><time>2026-04-27T07:10:47Z</time></trkpt><trkpt lat="45.682844686811634" lon="10.038671850241677"><ele>202.0</ele><time>2026-04-27T07:10:48Z</time></trkpt><trkpt lat="45.68283507071278" lon="10.03893338989124"><ele>203.0</ele><time>2026-04-27T07:10:49Z</time></trkpt><trkpt lat="45.6828645487625" lon="10.039211717744964"><ele>204.0</ele><time>2026-04-27T07:10:50Z</time></trkpt><trkpt lat="45.6829328559195" lon="10.039483339808305"><ele>205.0</ele><time>2026-04-27T07:10:51Z</time></trkpt><trkpt lat="45.68300977153529" lon="10.03976109913301"><ele>204.0</ele><time>2026-04-27T07:10:52Z</time></trkpt><trkpt lat="45.68308056071656" lon="10.040042277282849"><ele>203.0</ele><time>2026-04-27T07:10:53Z</time></trkpt><trkpt lat="45.683112079129174" lon="10.040342455979507"><ele>202.0</ele><time>2026-04-27T07:10:54Z</time></trkpt><trkpt lat="45.68312596655268" lon="10.040632545834866"><ele>202.33333333333331</ele><time>2026-04-27T07:10:55Z</time></trkpt><trkpt lat="45.683142297760206" lon="10.04091969101754"><ele>202.66666666666669</ele><time>2026-04-27T07:10:56Z</time></trkpt><trkpt lat="45.683193644879644" lon="10.041185648166346"><ele>203.0</ele><time>2026-04-27T07:10:57Z</time></trkpt><trkpt lat="45.68325043146394" lon="10.041451192203471"><ele>196.0</ele><time>2026-04-27T07:10:58Z</time></trkpt><trkpt lat="45.683293721900306" lon="10.041710606295911"><ele>189.0</ele><time>2026-04-27T07:10:59Z</time></trkpt><trkpt lat="45.68332896065613" lon="10.041980840276295"><ele>182.0</ele><time>2026-04-27T07:11:00Z</time></trkpt><trkpt lat="45.68336451061599" lon="10.042248986566799"><ele>182.0</ele><time>2026-04-27T07:11:01Z</time></trkpt><trkpt lat="45.68339869876223" lon="10.042486732433076"><ele>182.0</ele><time>2026-04-27T07:11:02Z</time></trkpt><trkpt lat="45.68343248359884" lon="10.042712181990426"><ele>182.0</ele><time>2026-04-27T07:11:03Z</time></trkpt><trkpt lat="45.68347812062666" lon="10.042952507179042"><ele>182.0</ele><time>2026-04-27T07:11:04Z</time></trkpt><trkpt lat="45.683514363792" lon="10.043185882211374"><ele>182.0</ele><time>2026-04-27T07:11:05Z</time></trkpt><trkpt lat="45.68350490662869" lon="10.043426159338171"><ele>182.0</ele><time>2026-04-27T07:11:06Z</time></trkpt><trkpt lat="45.68349472136553" lon="10.043690424120339"><ele>182.0</ele><time>2026-04-27T07:11:07Z</time></trkpt><trkpt lat="45.683529179945076" lon="10.043977828922715"><ele>182.0</ele><time>2026-04-27T07:11:08Z</time></trkpt><trkpt lat="45.68361669094707" lon="10.044225159400549"><ele>182.0</ele><time>2026-04-27T07:11:09Z</time></trkpt><trkpt lat="45.683686694023095" lon="10.044497070468282"><ele>182.0</ele><time>2026-04-27T07:11:10Z</time></trkpt><trkpt lat="45.6837657659465" lon="10.04476504569996"><ele>182.0</ele><time>2026-04-27T07:11:11Z</time></trkpt><trkpt lat="45.683823452559075" lon="10.045028139019964"><ele>182.0</ele><time>2026-04-27T07:11:12Z</time></trkpt><trkpt lat="45.683842723985116" lon="10.045308481738385"><ele>182.0</ele><time>2026-04-27T07:11:13Z</time></trkpt><trkpt lat="45.683859344486656" lon="10.045600071840477"><ele>182.0</ele><time>2026-04-27T07:11:14Z</time></trkpt><trkpt lat="45.68388788534987" lon="10.04588087711515"><ele>182.0</ele><time>2026-04-27T07:11:15Z</time></trkpt><trkpt lat="45.68394723622397" lon="10.04615282480244"><ele>182.0</ele><time>2026-04-27T07:11:16Z</time></trkpt><trkpt lat="45.68402746682158" lon="10.046420101865841"><ele>182.0</ele><time>2026-04-27T07:11:17Z</time></trkpt><trkpt lat="45.68408873341224" lon="10.046701485687315"><ele>182.0</ele><time>2026-04-27T07:11:18Z</time></trkpt><trkpt lat="45.68415998787212" lon="10.0469819325832"><ele>182.0</ele><time>2026-04-27T07:11:19Z</time></trkpt><trkpt lat="45.68425539501972" lon="10.047249700475884"><ele>182.0</ele><time>2026-04-27T07:11:20Z</time></trkpt><trkpt lat="45.6843596332319" lon="10.047487494192076"><ele>182.0</ele><time>2026-04-27T07:11:21Z</time></trkpt><trkpt lat="45.684454326578624" lon="10.047726806639547"><ele>182.0</ele><time>2026-04-27T07:11:22Z</time></trkpt><trkpt lat="45.684529192886686" lon="10.047989484048578"><ele>182.0</ele><time>2026-04-27T07:11:23Z</time></trkpt><trkpt lat="45.68459489488305" lon="10.048249754391117"><ele>182.0</ele><time>2026-04-27T07:11:24Z</time></trkpt><trkpt lat="45.68468415143368" lon="10.048518121015803"><ele>182.0</ele><time>2026-04-27T07:11:25Z</time></trkpt><trkpt lat="45.68478371198321" lon="10.048767592542152"><ele>182.0</ele><time>2026-04-27T07:11:26Z</time></trkpt><trkpt lat="45.68488637861017" lon="10.048997997250353"><ele>182.0</ele><time>2026-04-27T07:11:27Z</time></trkpt><trkpt lat="45.684997561813404" lon="10.04922301304919"><ele>182.0</ele><time>2026-04-27T07:11:28Z</time></trkpt><trkpt lat="45.685118246284745" lon="10.049442487416178"><ele>182.0</ele><time>2026-04-27T07:11:29Z</time></trkpt><trkpt lat="45.68524873012225" lon="10.04965201936843"><ele>182.0</ele><time>2026-04-27T07:11:30Z</time></trkpt><trkpt lat="45.68535810760596" lon="10.049880715507156"><ele>182.0</ele><time>2026-04-27T07:11:31Z</time></trkpt><trkpt lat="45.685476486448344" lon="10.050104491950655"><ele>182.0</ele><time>2026-04-27T07:11:32Z</time></trkpt><trkpt lat="45.68560558549408" lon="10.050327488131241"><ele>182.0</ele><time>2026-04-27T07:11:33Z</time></trkpt><trkpt lat="45.68573133684962" lon="10.05054139774282"><ele>182.0</ele><time>2026-04-27T07:11:34Z</time></trkpt><trkpt lat="45.685847230555325" lon="10.050758609006254"><ele>182.0</ele><time>2026-04-27T07:11:35Z</time></trkpt><trkpt lat="45.685940494716604" lon="10.05097463351516"><ele>182.0</ele><time>2026-04-27T07:11:36Z</time></trkpt><trkpt lat="45.68603265446672" lon="10.051230507142114"><ele>182.0</ele><time>2026-04-27T07:11:37.144Z</time></trkpt><trkpt lat="45.68611172563286" lon="10.051477116311409"><ele>182.0</ele><time>2026-04-27T07:11:38.145Z</time></trkpt><trkpt lat="45.68618451722078" lon="10.051719836478407"><ele>182.0</ele><time>2026-04-27T07:11:39.145Z</time></trkpt><trkpt lat="45.68662850273796" lon="10.053573118891661"><ele>182.0</ele><time>2026-04-27T07:11:42.213Z</time></trkpt><trkpt lat="45.686927141898614" lon="10.054078159424838"><ele>233.0</ele><time>2026-04-27T07:11:43.213Z</time></trkpt><trkpt lat="45.68728092395498" lon="10.054477072085342"><ele>233.0</ele><time>2026-04-27T07:11:44.21Z</time></trkpt><trkpt lat="45.687640382190196" lon="10.054867306883294"><ele>246.5</ele><time>2026-04-27T07:11:45.213Z</time></trkpt><trkpt lat="45.68801729928634" lon="10.055217820978426"><ele>260.0</ele><time>2026-04-27T07:11:46.213Z</time></trkpt><trkpt lat="45.68839079567423" lon="10.055574072915881"><ele>220.0</ele><time>2026-04-27T07:11:47.21Z</time></trkpt><trkpt lat="45.688812082938284" lon="10.05581376640003"><ele>220.0</ele><time>2026-04-27T07:11:48.213Z</time></trkpt><trkpt lat="45.689263460068474" lon="10.055860958898922"><ele>210.0</ele><time>2026-04-27T07:11:49.209Z</time></trkpt><trkpt lat="45.68971425642143" lon="10.055838903839778"><ele>208.0</ele><time>2026-04-27T07:11:50.21Z</time></trkpt><trkpt lat="45.6901451" lon="10.0557616"><ele>206.0</ele><time>2026-04-27T07:11:51.213Z</time></trkpt><trkpt lat="45.69113567536168" lon="10.055221646335182"><ele>206.0</ele><time>2026-04-27T07:12:18Z</time></trkpt><trkpt lat="45.69127996754435" lon="10.055134036704548"><ele>206.0</ele><time>2026-04-27T07:12:19Z</time></trkpt><trkpt lat="45.69142693296021" lon="10.055088651843214"><ele>206.0</ele><time>2026-04-27T07:12:20Z</time></trkpt><trkpt lat="45.69156197000051" lon="10.055037439614473"><ele>206.0</ele><time>2026-04-27T07:12:21Z</time></trkpt><trkpt lat="45.691704003800375" lon="10.055063177823863"><ele>206.0</ele><time>2026-04-27T07:12:22Z</time></trkpt><trkpt lat="45.69184733957846" lon="10.055097951386829"><ele>206.0</ele><time>2026-04-27T07:12:23Z</time></trkpt><trkpt lat="45.69197932637726" lon="10.055160987198096"><ele>206.0</ele><time>2026-04-27T07:12:24Z</time></trkpt><trkpt lat="45.69210671762187" lon="10.055204925384125"><ele>206.0</ele><time>2026-04-27T07:12:25Z</time></trkpt><trkpt lat="45.69223415333561" lon="10.055256941317522"><ele>205.5</ele><time>2026-04-27T07:12:26Z</time></trkpt><trkpt lat="45.69236215614687" lon="10.055309370944013"><ele>205.0</ele><time>2026-04-27T07:12:27Z</time></trkpt><trkpt lat="45.69248229124867" lon="10.055329319852662"><ele>204.5</ele><time>2026-04-27T07:12:28Z</time></trkpt><trkpt lat="45.692663606001325" lon="10.055336383452119"><ele>204.0</ele><time>2026-04-27T07:12:29Z</time></trkpt><trkpt lat="45.69281719849062" lon="10.055305728239093"><ele>200.75</ele><time>2026-04-27T07:12:30Z</time></trkpt><trkpt lat="45.69296631104288" lon="10.055244680766165"><ele>197.5</ele><time>2026-04-27T07:12:31Z</time></trkpt><trkpt lat="45.693090728585545" lon="10.05516905013802"><ele>194.25</ele><time>2026-04-27T07:12:32Z</time></trkpt><trkpt lat="45.69321682385043" lon="10.055091798908897"><ele>191.0</ele><time>2026-04-27T07:12:33Z</time></trkpt><trkpt lat="45.69335461117367" lon="10.054978044394243"><ele>195.33333333333331</ele><time>2026-04-27T07:12:34Z</time></trkpt><trkpt lat="45.69350905124298" lon="10.054876975157429"><ele>199.66666666666666</ele><time>2026-04-27T07:12:35Z</time></trkpt><trkpt lat="45.69367890334572" lon="10.054773200550928"><ele>204.0</ele><time>2026-04-27T07:12:36Z</time></trkpt><trkpt lat="45.69383742447785" lon="10.054684528978857"><ele>204.0</ele><time>2026-04-27T07:12:37Z</time></trkpt><trkpt lat="45.69398041848595" lon="10.054616050598277"><ele>204.0</ele><time>2026-04-27T07:12:38Z</time></trkpt><trkpt lat="45.69411106684963" lon="10.054559205598188"><ele>204.0</ele><time>2026-04-27T07:12:39Z</time></trkpt><trkpt lat="45.694249627999675" lon="10.054509631360842"><ele>204.0</ele><time>2026-04-27T07:12:40Z</time></trkpt><trkpt lat="45.69436682002408" lon="10.05448761835948"><ele>201.75</ele><time>2026-04-27T07:12:41Z</time></trkpt><trkpt lat="45.6944884637695" lon="10.054482262380562"><ele>199.5</ele><time>2026-04-27T07:12:42Z</time></trkpt><trkpt lat="45.69460049727977" lon="10.054489384430134"><ele>197.25</ele><time>2026-04-27T07:12:43Z</time></trkpt><trkpt lat="45.694709432049756" lon="10.054503554534207"><ele>195.0</ele><time>2026-04-27T07:12:44Z</time></trkpt><trkpt lat="45.69483104380061" lon="10.054520749313097"><ele>195.0</ele><time>2026-04-27T07:12:45Z</time></trkpt><trkpt lat="45.694954372883494" lon="10.054544887917924"><ele>195.0</ele><time>2026-04-27T07:12:46Z</time></trkpt><trkpt lat="45.69506527399746" lon="10.054572856858156"><ele>195.0</ele><time>2026-04-27T07:12:47Z</time></trkpt><trkpt lat="45.69516776173506" lon="10.05460362217777"><ele>195.0</ele><time>2026-04-27T07:12:48Z</time></trkpt><trkpt lat="45.69526309903141" lon="10.054636271438122"><ele>195.0</ele><time>2026-04-27T07:12:49Z</time></trkpt><trkpt lat="45.695369504048074" lon="10.054690022647822"><ele>195.0</ele><time>2026-04-27T07:12:50Z</time></trkpt><trkpt lat="45.69545933781308" lon="10.05473494493252"><ele>195.0</ele><time>2026-04-27T07:12:51Z</time></trkpt><trkpt lat="45.69557167650922" lon="10.05475597572282"><ele>195.0</ele><time>2026-04-27T07:12:52Z</time></trkpt><trkpt lat="45.69568581855735" lon="10.054736934029455"><ele>195.0</ele><time>2026-04-27T07:12:53Z</time></trkpt><trkpt lat="45.69580910091273" lon="10.054677756160729"><ele>195.0</ele><time>2026-04-27T07:12:54Z</time></trkpt><trkpt lat="45.69592193364052" lon="10.054585174425338"><ele>195.0</ele><time>2026-04-27T07:12:55Z</time></trkpt><trkpt lat="45.69602641807334" lon="10.054478436811403"><ele>195.0</ele><time>2026-04-27T07:12:56Z</time></trkpt><trkpt lat="45.696132037315664" lon="10.05436532055423"><ele>195.0</ele><time>2026-04-27T07:12:57Z</time></trkpt><trkpt lat="45.6962328513077" lon="10.05426095526132"><ele>193.0</ele><time>2026-04-27T07:12:58Z</time></trkpt><trkpt lat="45.69636596613584" lon="10.054176759744346"><ele>191.0</ele><time>2026-04-27T07:12:59Z</time></trkpt><trkpt lat="45.696469179289295" lon="10.05407504007045"><ele>189.0</ele><time>2026-04-27T07:13:00Z</time></trkpt><trkpt lat="45.696578172854544" lon="10.05397098975128"><ele>187.0</ele><time>2026-04-27T07:13:01Z</time></trkpt><trkpt lat="45.69668933388172" lon="10.053866320024545"><ele>187.33333333333334</ele><time>2026-04-27T07:13:02Z</time></trkpt><trkpt lat="45.69681498707751" lon="10.05375224522058"><ele>187.66666666666666</ele><time>2026-04-27T07:13:03Z</time></trkpt><trkpt lat="45.696965882587044" lon="10.053631205334954"><ele>188.0</ele><time>2026-04-27T07:13:04Z</time></trkpt><trkpt lat="45.69712840991404" lon="10.053499535443889"><ele>188.0</ele><time>2026-04-27T07:13:05Z</time></trkpt><trkpt lat="45.69730274084578" lon="10.053364315271402"><ele>188.0</ele><time>2026-04-27T07:13:06Z</time></trkpt><trkpt lat="45.69745750549653" lon="10.053237518347826"><ele>188.0</ele><time>2026-04-27T07:13:07Z</time></trkpt><trkpt lat="45.697602250289535" lon="10.053132992199192"><ele>189.5</ele><time>2026-04-27T07:13:08Z</time></trkpt><trkpt lat="45.69772634122589" lon="10.053037846476936"><ele>191.0</ele><time>2026-04-27T07:13:09Z</time></trkpt><trkpt lat="45.69784264561319" lon="10.052959000203257"><ele>192.5</ele><time>2026-04-27T07:13:10Z</time></trkpt><trkpt lat="45.69794835850966" lon="10.052885233449281"><ele>194.0</ele><time>2026-04-27T07:13:11Z</time></trkpt><trkpt lat="45.69805831749039" lon="10.052812992013195"><ele>194.0</ele><time>2026-04-27T07:13:12Z</time></trkpt><trkpt lat="45.69817987401169" lon="10.052741426339132"><ele>194.0</ele><time>2026-04-27T07:13:13Z</time></trkpt><trkpt lat="45.698284711740456" lon="10.052671142846327"><ele>194.0</ele><time>2026-04-27T07:13:14Z</time></trkpt><trkpt lat="45.69839867512879" lon="10.052610489205147"><ele>194.0</ele><time>2026-04-27T07:13:15Z</time></trkpt><trkpt lat="45.698534940195174" lon="10.052579160897668"><ele>192.5</ele><time>2026-04-27T07:13:16Z</time></trkpt><trkpt lat="45.698669937478066" lon="10.05256951278368"><ele>191.0</ele><time>2026-04-27T07:13:17Z</time></trkpt><trkpt lat="45.69879533565937" lon="10.05256651292787"><ele>189.5</ele><time>2026-04-27T07:13:18Z</time></trkpt><trkpt lat="45.69892146056951" lon="10.05256517591541"><ele>188.0</ele><time>2026-04-27T07:13:19Z</time></trkpt><trkpt lat="45.69904687943793" lon="10.052552317381382"><ele>188.0</ele><time>2026-04-27T07:13:20Z</time></trkpt><trkpt lat="45.69916845179925" lon="10.052516931778406"><ele>188.0</ele><time>2026-04-27T07:13:21Z</time></trkpt><trkpt lat="45.69928314495824" lon="10.052453492424767"><ele>188.0</ele><time>2026-04-27T07:13:22Z</time></trkpt><trkpt lat="45.69943824552092" lon="10.0524268135153"><ele>188.0</ele><time>2026-04-27T07:13:23Z</time></trkpt><trkpt lat="45.699560842204804" lon="10.052354667682694"><ele>191.0</ele><time>2026-04-27T07:13:24Z</time></trkpt><trkpt lat="45.69967260839269" lon="10.052280467267277"><ele>194.0</ele><time>2026-04-27T07:13:25Z</time></trkpt><trkpt lat="45.69978873916076" lon="10.052209156203999"><ele>197.0</ele><time>2026-04-27T07:13:26Z</time></trkpt><trkpt lat="45.69989475438388" lon="10.052141228257128"><ele>200.0</ele><time>2026-04-27T07:13:27Z</time></trkpt><trkpt lat="45.69999226886857" lon="10.052081512424566"><ele>200.0</ele><time>2026-04-27T07:13:28Z</time></trkpt><trkpt lat="45.70010082226248" lon="10.05201646406908"><ele>200.0</ele><time>2026-04-27T07:13:29Z</time></trkpt><trkpt lat="45.70020837248752" lon="10.05196762816102"><ele>200.0</ele><time>2026-04-27T07:13:30Z</time></trkpt><trkpt lat="45.700346486903314" lon="10.051982929973631"><ele>200.0</ele><time>2026-04-27T07:13:31Z</time></trkpt><trkpt lat="45.700475202457184" lon="10.051944294673763"><ele>198.0</ele><time>2026-04-27T07:13:32Z</time></trkpt><trkpt lat="45.70059521796761" lon="10.051910921642632"><ele>196.0</ele><time>2026-04-27T07:13:33Z</time></trkpt><trkpt lat="45.700722888695445" lon="10.051868955193035"><ele>194.0</ele><time>2026-04-27T07:13:34Z</time></trkpt><trkpt lat="45.70083275839673" lon="10.05184802740837"><ele>192.0</ele><time>2026-04-27T07:13:35Z</time></trkpt><trkpt lat="45.70094340440456" lon="10.051837531545713"><ele>192.0</ele><time>2026-04-27T07:13:36Z</time></trkpt><trkpt lat="45.701059447893" lon="10.051818105259523"><ele>192.0</ele><time>2026-04-27T07:13:37Z</time></trkpt><trkpt lat="45.701175403247674" lon="10.051796682072263"><ele>192.0</ele><time>2026-04-27T07:13:38Z</time></trkpt><trkpt lat="45.70130075724749" lon="10.051772075436501"><ele>192.0</ele><time>2026-04-27T07:13:39Z</time></trkpt><trkpt lat="45.7014021520988" lon="10.051740075426453"><ele>190.5</ele><time>2026-04-27T07:13:39.999Z</time></trkpt><trkpt lat="45.701511092058766" lon="10.051681432321763"><ele>189.0</ele><time>2026-04-27T07:13:40.999Z</time></trkpt><trkpt lat="45.701615585383045" lon="10.05158551706296"><ele>187.5</ele><time>2026-04-27T07:13:41.999Z</time></trkpt><trkpt lat="45.70173925345639" lon="10.051501796605546"><ele>186.0</ele><time>2026-04-27T07:13:42.999Z</time></trkpt><trkpt lat="45.70186022023681" lon="10.051388471003253"><ele>186.0</ele><time>2026-04-27T07:13:43.999Z</time></trkpt><trkpt lat="45.701989972563105" lon="10.051284158728722"><ele>186.0</ele><time>2026-04-27T07:13:44.999Z</time></trkpt><trkpt lat="45.70210516863783" lon="10.051178486980223"><ele>186.0</ele><time>2026-04-27T07:13:45.999Z</time></trkpt><trkpt lat="45.70222035098933" lon="10.05103673507374"><ele>186.0</ele><time>2026-04-27T07:13:46.999Z</time></trkpt><trkpt lat="45.702367300080894" lon="10.050882179470007"><ele>186.33333333333334</ele><time>2026-04-27T07:13:47.999Z</time></trkpt><trkpt lat="45.70252244800823" lon="10.050706676070728"><ele>186.66666666666669</ele><time>2026-04-27T07:13:49Z</time></trkpt><trkpt lat="45.70267853407253" lon="10.05052860504591"><ele>187.0</ele><time>2026-04-27T07:13:49.999Z</time></trkpt><trkpt lat="45.70280892135765" lon="10.05033374579048"><ele>187.0</ele><time>2026-04-27T07:13:50.999Z</time></trkpt><trkpt lat="45.702972266219696" lon="10.050147229884356"><ele>187.0</ele><time>2026-04-27T07:13:51.999Z</time></trkpt><trkpt lat="45.7031232945001" lon="10.049933806167296"><ele>187.0</ele><time>2026-04-27T07:13:52.999Z</time></trkpt><trkpt lat="45.70325644243872" lon="10.04974102242483"><ele>187.66666666666669</ele><time>2026-04-27T07:13:53.999Z</time></trkpt><trkpt lat="45.703390985420995" lon="10.049543084082215"><ele>188.33333333333334</ele><time>2026-04-27T07:13:54.999Z</time></trkpt><trkpt lat="45.70352129892521" lon="10.049361430316237"><ele>189.0</ele><time>2026-04-27T07:13:55.999Z</time></trkpt><trkpt lat="45.703665079886456" lon="10.049187396455572"><ele>200.33333333333331</ele><time>2026-04-27T07:13:56.999Z</time></trkpt><trkpt lat="45.70381721564916" lon="10.049064307427477"><ele>211.66666666666666</ele><time>2026-04-27T07:13:57.999Z</time></trkpt><trkpt lat="45.70397402610029" lon="10.048965043390043"><ele>223.0</ele><time>2026-04-27T07:13:58.999Z</time></trkpt><trkpt lat="45.70411675200597" lon="10.048875853144768"><ele>223.0</ele><time>2026-04-27T07:13:59.999Z</time></trkpt><trkpt lat="45.70427060845908" lon="10.048794434913452"><ele>223.0</ele><time>2026-04-27T07:14:00.999Z</time></trkpt><trkpt lat="45.70441422414112" lon="10.048725016978901"><ele>223.0</ele><time>2026-04-27T07:14:01.999Z</time></trkpt><trkpt lat="45.70456983845906" lon="10.048649524182096"><ele>215.0</ele><time>2026-04-27T07:14:02.999Z</time></trkpt><trkpt lat="45.70472390721987" lon="10.048548134590693"><ele>207.0</ele><time>2026-04-27T07:14:03.999Z</time></trkpt><trkpt lat="45.70486871293089" lon="10.048453806737715"><ele>199.0</ele><time>2026-04-27T07:14:04.999Z</time></trkpt><trkpt lat="45.70502201447712" lon="10.048367850200366"><ele>202.0</ele><time>2026-04-27T07:14:05.999Z</time></trkpt><trkpt lat="45.705156520947845" lon="10.04828033738615"><ele>205.0</ele><time>2026-04-27T07:14:06.999Z</time></trkpt><trkpt lat="45.705315059712014" lon="10.048182364552922"><ele>208.0</ele><time>2026-04-27T07:14:07.999Z</time></trkpt><trkpt lat="45.705498271006505" lon="10.048097921670886"><ele>208.0</ele><time>2026-04-27T07:14:08.999Z</time></trkpt><trkpt lat="45.70567271577357" lon="10.047994809463916"><ele>208.0</ele><time>2026-04-27T07:14:09.999Z</time></trkpt><trkpt lat="45.70583859082728" lon="10.047899012856396"><ele>208.0</ele><time>2026-04-27T07:14:10.999Z</time></trkpt><trkpt lat="45.706011015600474" lon="10.047805884504708"><ele>201.66666666666666</ele><time>2026-04-27T07:14:11.999Z</time></trkpt><trkpt lat="45.7061758717773" lon="10.047721552550545"><ele>195.33333333333331</ele><time>2026-04-27T07:14:12.999Z</time></trkpt><trkpt lat="45.70635059155165" lon="10.047652126712133"><ele>189.0</ele><time>2026-04-27T07:14:13.999Z</time></trkpt><trkpt lat="45.706513202015906" lon="10.04759805568526"><ele>189.0</ele><time>2026-04-27T07:14:14.999Z</time></trkpt><trkpt lat="45.706680721653186" lon="10.047539350559585"><ele>189.0</ele><time>2026-04-27T07:14:15.999Z</time></trkpt><trkpt lat="45.70684270651118" lon="10.047477113176239"><ele>189.0</ele><time>2026-04-27T07:14:16.999Z</time></trkpt><trkpt lat="45.707012900822434" lon="10.047422422512277"><ele>192.0</ele><time>2026-04-27T07:14:17.999Z</time></trkpt><trkpt lat="45.707181820436624" lon="10.047350192492038"><ele>195.0</ele><time>2026-04-27T07:14:18.999Z</time></trkpt><trkpt lat="45.707343837869544" lon="10.047260312702932"><ele>198.0</ele><time>2026-04-27T07:14:19.999Z</time></trkpt><trkpt lat="45.7074742607044" lon="10.047166374542373"><ele>198.0</ele><time>2026-04-27T07:14:20.999Z</time></trkpt><trkpt lat="45.70762152033741" lon="10.047069993646195"><ele>198.0</ele><time>2026-04-27T07:14:21.999Z</time></trkpt><trkpt lat="45.70778164401139" lon="10.046993908447796"><ele>198.0</ele><time>2026-04-27T07:14:22.999Z</time></trkpt><trkpt lat="45.7079483019185" lon="10.046923167960998"><ele>195.66666666666666</ele><time>2026-04-27T07:14:23.999Z</time></trkpt><trkpt lat="45.708110969912774" lon="10.046856279228226"><ele>193.33333333333331</ele><time>2026-04-27T07:14:24.999Z</time></trkpt><trkpt lat="45.70825444049676" lon="10.046806033983087"><ele>191.0</ele><time>2026-04-27T07:14:25.999Z</time></trkpt><trkpt lat="45.70839209583855" lon="10.04677027616804"><ele>191.0</ele><time>2026-04-27T07:14:26.999Z</time></trkpt><trkpt lat="45.708533132017834" lon="10.046757341524001"><ele>191.0</ele><time>2026-04-27T07:14:27.999Z</time></trkpt><trkpt lat="45.70866601389435" lon="10.046740905197188"><ele>191.0</ele><time>2026-04-27T07:14:28.999Z</time></trkpt><trkpt lat="45.708805578469416" lon="10.046764335411183"><ele>191.0</ele><time>2026-04-27T07:14:29.999Z</time></trkpt><trkpt lat="45.70894729772127" lon="10.046824537834363"><ele>192.5</ele><time>2026-04-27T07:14:30.999Z</time></trkpt><trkpt lat="45.709068766509084" lon="10.046907750681948"><ele>194.0</ele><time>2026-04-27T07:14:31.999Z</time></trkpt><trkpt lat="45.7091928711989" lon="10.046991949441049"><ele>195.5</ele><time>2026-04-27T07:14:32.999Z</time></trkpt><trkpt lat="45.70930777477869" lon="10.047067837006292"><ele>197.0</ele><time>2026-04-27T07:14:33.999Z</time></trkpt><trkpt lat="45.70940899252281" lon="10.047177018610787"><ele>197.25</ele><time>2026-04-27T07:14:34.999Z</time></trkpt><trkpt lat="45.709512313138646" lon="10.04732235900037"><ele>197.5</ele><time>2026-04-27T07:14:35.999Z</time></trkpt><trkpt lat="45.70959996658033" lon="10.047469652913303"><ele>197.75</ele><time>2026-04-27T07:14:36.999Z</time></trkpt><trkpt lat="45.70968430108976" lon="10.047609976083175"><ele>198.0</ele><time>2026-04-27T07:14:37.999Z</time></trkpt><trkpt lat="45.70977260509918" lon="10.047739380800552"><ele>196.25</ele><time>2026-04-27T07:14:38.999Z</time></trkpt><trkpt lat="45.70987983811175" lon="10.047843022538984"><ele>194.5</ele><time>2026-04-27T07:14:39.999Z</time></trkpt><trkpt lat="45.709994305511415" lon="10.047929597391546"><ele>192.75</ele><time>2026-04-27T07:14:40.999Z</time></trkpt><trkpt lat="45.710117242769314" lon="10.047976827348794"><ele>191.0</ele><time>2026-04-27T07:14:41.999Z</time></trkpt><trkpt lat="45.71023760437277" lon="10.04801607854605"><ele>191.75</ele><time>2026-04-27T07:14:42.999Z</time></trkpt><trkpt lat="45.71037436745923" lon="10.048056614694833"><ele>192.5</ele><time>2026-04-27T07:14:43.999Z</time></trkpt><trkpt lat="45.71051909920736" lon="10.048067552320152"><ele>193.25</ele><time>2026-04-27T07:14:44.999Z</time></trkpt><trkpt lat="45.71066012687084" lon="10.04809467523195"><ele>194.0</ele><time>2026-04-27T07:14:45.999Z</time></trkpt><trkpt lat="45.710803198890154" lon="10.048084945640415"><ele>194.0</ele><time>2026-04-27T07:14:46.999Z</time></trkpt><trkpt lat="45.71093529995818" lon="10.048055065384906"><ele>194.0</ele><time>2026-04-27T07:14:47.999Z</time></trkpt><trkpt lat="45.71106994131633" lon="10.047978058006379"><ele>194.0</ele><time>2026-04-27T07:14:48.999Z</time></trkpt><trkpt lat="45.711205325541705" lon="10.047861077972124"><ele>194.0</ele><time>2026-04-27T07:14:49.999Z</time></trkpt><trkpt lat="45.71132736841269" lon="10.047698229662558"><ele>194.0</ele><time>2026-04-27T07:14:50.999Z</time></trkpt><trkpt lat="45.711450798791354" lon="10.047530841882926"><ele>194.0</ele><time>2026-04-27T07:14:51.999Z</time></trkpt><trkpt lat="45.711548118493376" lon="10.047323626474297"><ele>194.0</ele><time>2026-04-27T07:14:52.999Z</time></trkpt><trkpt lat="45.711669535290575" lon="10.047159025725614"><ele>194.0</ele><time>2026-04-27T07:14:53.999Z</time></trkpt><trkpt lat="45.71175472890335" lon="10.047000654721058"><ele>194.0</ele><time>2026-04-27T07:14:54.999Z</time></trkpt><trkpt lat="45.71182002434213" lon="10.04685243954505"><ele>194.0</ele><time>2026-04-27T07:14:55.999Z</time></trkpt><trkpt lat="45.71189101133322" lon="10.046732452683335"><ele>194.0</ele><time>2026-04-27T07:14:56.999Z</time></trkpt><trkpt lat="45.7119892436598" lon="10.046629861421657"><ele>196.25</ele><time>2026-04-27T07:14:57.999Z</time></trkpt><trkpt lat="45.71209841255827" lon="10.046598588156629"><ele>198.5</ele><time>2026-04-27T07:14:58.999Z</time></trkpt><trkpt lat="45.71223349493635" lon="10.046639383821482"><ele>200.75</ele><time>2026-04-27T07:14:59.999Z</time></trkpt><trkpt lat="45.71237612397371" lon="10.046718091554338"><ele>203.0</ele><time>2026-04-27T07:15:00.999Z</time></trkpt><trkpt lat="45.71251846770289" lon="10.046810357408061"><ele>203.0</ele><time>2026-04-27T07:15:01.999Z</time></trkpt><trkpt lat="45.7126850494324" lon="10.046903553240936"><ele>203.0</ele><time>2026-04-27T07:15:02.999Z</time></trkpt><trkpt lat="45.71285031528718" lon="10.046994986943751"><ele>203.0</ele><time>2026-04-27T07:15:03.999Z</time></trkpt><trkpt lat="45.71300850575764" lon="10.047096470873155"><ele>206.66666666666669</ele><time>2026-04-27T07:15:04.999Z</time></trkpt><trkpt lat="45.71316431376641" lon="10.047165770121223"><ele>210.33333333333331</ele><time>2026-04-27T07:15:05.999Z</time></trkpt><trkpt lat="45.713330115973605" lon="10.047209489478833"><ele>214.0</ele><time>2026-04-27T07:15:06.999Z</time></trkpt><trkpt lat="45.71351516159862" lon="10.047253811512592"><ele>213.33333333333331</ele><time>2026-04-27T07:15:07.999Z</time></trkpt><trkpt lat="45.71368615493938" lon="10.047274898185707"><ele>212.66666666666669</ele><time>2026-04-27T07:15:08.999Z</time></trkpt><trkpt lat="45.71383104390506" lon="10.047288773324773"><ele>212.0</ele><time>2026-04-27T07:15:09.999Z</time></trkpt><trkpt lat="45.71398403532531" lon="10.047312120358516"><ele>212.0</ele><time>2026-04-27T07:15:10.999Z</time></trkpt><trkpt lat="45.714150049087365" lon="10.047325207265787"><ele>212.0</ele><time>2026-04-27T07:15:11.999Z</time></trkpt><trkpt lat="45.714306975010565" lon="10.04733251808011"><ele>212.0</ele><time>2026-04-27T07:15:12.999Z</time></trkpt><trkpt lat="45.714468430089184" lon="10.04736652792625"><ele>214.66666666666669</ele><time>2026-04-27T07:15:13.999Z</time></trkpt><trkpt lat="45.71462534886144" lon="10.047399527357047"><ele>217.33333333333331</ele><time>2026-04-27T07:15:14.999Z</time></trkpt><trkpt lat="45.714795548362616" lon="10.047472544279385"><ele>220.0</ele><time>2026-04-27T07:15:15.999Z</time></trkpt><trkpt lat="45.714957808790224" lon="10.04749558553443"><ele>212.33333333333331</ele><time>2026-04-27T07:15:16.999Z</time></trkpt><trkpt lat="45.715138782046054" lon="10.047518083170122"><ele>204.66666666666669</ele><time>2026-04-27T07:15:17.999Z</time></trkpt><trkpt lat="45.71531529964052" lon="10.04751922789275"><ele>197.0</ele><time>2026-04-27T07:15:18.999Z</time></trkpt><trkpt lat="45.715467394657274" lon="10.047516693940162"><ele>197.0</ele><time>2026-04-27T07:15:19.999Z</time></trkpt><trkpt lat="45.715610929379245" lon="10.047522359448319"><ele>197.0</ele><time>2026-04-27T07:15:20.999Z</time></trkpt><trkpt lat="45.715777924469954" lon="10.047519217987299"><ele>197.0</ele><time>2026-04-27T07:15:21.999Z</time></trkpt><trkpt lat="45.715922637089164" lon="10.047553299297727"><ele>198.66666666666669</ele><time>2026-04-27T07:15:22.999Z</time></trkpt><trkpt lat="45.71607937055151" lon="10.047601748585349"><ele>200.33333333333331</ele><time>2026-04-27T07:15:23.999Z</time></trkpt><trkpt lat="45.71624132199316" lon="10.047625208593603"><ele>202.0</ele><time>2026-04-27T07:15:24.999Z</time></trkpt><trkpt lat="45.71641682386784" lon="10.047652858101483"><ele>202.0</ele><time>2026-04-27T07:15:25.999Z</time></trkpt><trkpt lat="45.716595988417765" lon="10.047708665544334"><ele>202.0</ele><time>2026-04-27T07:15:26.999Z</time></trkpt><trkpt lat="45.716789611954084" lon="10.047783339436428"><ele>202.0</ele><time>2026-04-27T07:15:27.999Z</time></trkpt><trkpt lat="45.71696395718476" lon="10.04786101736703"><ele>200.66666666666666</ele><time>2026-04-27T07:15:28.999Z</time></trkpt><trkpt lat="45.7171293438161" lon="10.047890202006128"><ele>199.33333333333331</ele><time>2026-04-27T07:15:29.999Z</time></trkpt><trkpt lat="45.717304634118264" lon="10.047911817007256"><ele>198.0</ele><time>2026-04-27T07:15:30.999Z</time></trkpt><trkpt lat="45.71748394812642" lon="10.047880440338838"><ele>198.0</ele><time>2026-04-27T07:15:31.999Z</time></trkpt><trkpt lat="45.71769411415801" lon="10.047880570757426"><ele>198.0</ele><time>2026-04-27T07:15:32.999Z</time></trkpt><trkpt lat="45.71786024466166" lon="10.047900055463936"><ele>198.0</ele><time>2026-04-27T07:15:33.999Z</time></trkpt><trkpt lat="45.718038807529965" lon="10.047916184465828"><ele>197.66666666666669</ele><time>2026-04-27T07:15:34.999Z</time></trkpt><trkpt lat="45.71822821509183" lon="10.047947333464045"><ele>197.33333333333334</ele><time>2026-04-27T07:15:35.999Z</time></trkpt><trkpt lat="45.71843008425355" lon="10.047963828085317"><ele>197.0</ele><time>2026-04-27T07:15:36.999Z</time></trkpt><trkpt lat="45.71863135133235" lon="10.04800941720945"><ele>202.33333333333334</ele><time>2026-04-27T07:15:37.999Z</time></trkpt><trkpt lat="45.71881324177364" lon="10.048067631144187"><ele>207.66666666666669</ele><time>2026-04-27T07:15:38.999Z</time></trkpt><trkpt lat="45.71901150987769" lon="10.048121345464875"><ele>213.0</ele><time>2026-04-27T07:15:39.999Z</time></trkpt><trkpt lat="45.71918731413474" lon="10.048203279262461"><ele>213.0</ele><time>2026-04-27T07:15:40.999Z</time></trkpt><trkpt lat="45.7193400279821" lon="10.048264890849778"><ele>213.0</ele><time>2026-04-27T07:15:41.999Z</time></trkpt><trkpt lat="45.71951763710495" lon="10.048308608030808"><ele>213.0</ele><time>2026-04-27T07:15:42.999Z</time></trkpt><trkpt lat="45.71970105511876" lon="10.048363973624337"><ele>214.0</ele><time>2026-04-27T07:15:43.999Z</time></trkpt><trkpt lat="45.71987268530188" lon="10.048382780459608"><ele>215.0</ele><time>2026-04-27T07:15:44.999Z</time></trkpt><trkpt lat="45.720080835443284" lon="10.048383891584622"><ele>216.0</ele><time>2026-04-27T07:15:45.999Z</time></trkpt><trkpt lat="45.7202592198608" lon="10.048421681069769"><ele>216.0</ele><time>2026-04-27T07:15:46.999Z</time></trkpt><trkpt lat="45.72045633133631" lon="10.048440041137702"><ele>216.0</ele><time>2026-04-27T07:15:47.999Z</time></trkpt><trkpt lat="45.720608886931615" lon="10.048586970865033"><ele>216.0</ele><time>2026-04-27T07:15:48.999Z</time></trkpt><trkpt lat="45.72080343510803" lon="10.04870680254321"><ele>216.0</ele><time>2026-04-27T07:15:49.999Z</time></trkpt><trkpt lat="45.720982943146296" lon="10.0488077449867"><ele>216.0</ele><time>2026-04-27T07:15:50.999Z</time></trkpt><trkpt lat="45.72115094562865" lon="10.048869515588004"><ele>216.0</ele><time>2026-04-27T07:15:51.999Z</time></trkpt><trkpt lat="45.721350559800634" lon="10.048916591238482"><ele>221.33333333333331</ele><time>2026-04-27T07:15:52.999Z</time></trkpt><trkpt lat="45.721545867334555" lon="10.0489481310147"><ele>226.66666666666666</ele><time>2026-04-27T07:15:53.999Z</time></trkpt><trkpt lat="45.7217701844306" lon="10.048974635014078"><ele>232.0</ele><time>2026-04-27T07:15:54.999Z</time></trkpt><trkpt lat="45.72199627506249" lon="10.049000693900803"><ele>236.0</ele><time>2026-04-27T07:15:55.999Z</time></trkpt><trkpt lat="45.72222707932488" lon="10.049026059805303"><ele>240.0</ele><time>2026-04-27T07:15:56.999Z</time></trkpt><trkpt lat="45.722467078978276" lon="10.049072962735382"><ele>240.0</ele><time>2026-04-27T07:15:57.999Z</time></trkpt><trkpt lat="45.72269917193616" lon="10.049070339589026"><ele>240.0</ele><time>2026-04-27T07:15:58.999Z</time></trkpt><trkpt lat="45.722930602894294" lon="10.049088804431273"><ele>242.0</ele><time>2026-04-27T07:15:59.999Z</time></trkpt><trkpt lat="45.72317126655678" lon="10.049099410642992"><ele>244.0</ele><time>2026-04-27T07:16:00.999Z</time></trkpt><trkpt lat="45.72339848657799" lon="10.049113318721332"><ele>222.0</ele><time>2026-04-27T07:16:01.999Z</time></trkpt><trkpt lat="45.723634574203174" lon="10.049150836164447"><ele>200.0</ele><time>2026-04-27T07:16:02.999Z</time></trkpt><trkpt lat="45.72386572255887" lon="10.04919775234158"><ele>200.0</ele><time>2026-04-27T07:16:03.999Z</time></trkpt><trkpt lat="45.724094108953814" lon="10.049236194358905"><ele>200.0</ele><time>2026-04-27T07:16:04.999Z</time></trkpt><trkpt lat="45.72433699711098" lon="10.0492870881546"><ele>203.33333333333334</ele><time>2026-04-27T07:16:05.999Z</time></trkpt><trkpt lat="45.724563547631895" lon="10.049363912545147"><ele>206.66666666666669</ele><time>2026-04-27T07:16:06.999Z</time></trkpt><trkpt lat="45.72477138433469" lon="10.04942179428693"><ele>210.0</ele><time>2026-04-27T07:16:07.999Z</time></trkpt><trkpt lat="45.72501166943584" lon="10.049458092269576"><ele>210.5</ele><time>2026-04-27T07:16:08.999Z</time></trkpt><trkpt lat="45.72525605782467" lon="10.049461999578718"><ele>211.0</ele><time>2026-04-27T07:16:09.999Z</time></trkpt><trkpt lat="45.725502322123035" lon="10.049466466943572"><ele>211.0</ele><time>2026-04-27T07:16:10.999Z</time></trkpt><trkpt lat="45.725749848166046" lon="10.049460325964022"><ele>211.0</ele><time>2026-04-27T07:16:11.999Z</time></trkpt><trkpt lat="45.72598104336156" lon="10.04947585542383"><ele>211.0</ele><time>2026-04-27T07:16:12.999Z</time></trkpt><trkpt lat="45.72620680782489" lon="10.049483468286862"><ele>211.0</ele><time>2026-04-27T07:16:13.999Z</time></trkpt><trkpt lat="45.72642143934721" lon="10.04950567878014"><ele>211.0</ele><time>2026-04-27T07:16:14.999Z</time></trkpt><trkpt lat="45.7266390089329" lon="10.049508662987392"><ele>211.0</ele><time>2026-04-27T07:16:15.999Z</time></trkpt><trkpt lat="45.726863909902605" lon="10.049502674130913"><ele>211.0</ele><time>2026-04-27T07:16:16.999Z</time></trkpt><trkpt lat="45.72708189788223" lon="10.049504730708687"><ele>211.0</ele><time>2026-04-27T07:16:17.999Z</time></trkpt><trkpt lat="45.727293849108335" lon="10.049522158859324"><ele>214.5</ele><time>2026-04-27T07:16:18.999Z</time></trkpt><trkpt lat="45.72751308581118" lon="10.049609534111578"><ele>218.0</ele><time>2026-04-27T07:16:19.999Z</time></trkpt><trkpt lat="45.727725022543595" lon="10.049709558495163"><ele>230.0</ele><time>2026-04-27T07:16:20.999Z</time></trkpt><trkpt lat="45.72793310316895" lon="10.049809122330114"><ele>242.0</ele><time>2026-04-27T07:16:21.999Z</time></trkpt><trkpt lat="45.72815548190055" lon="10.0499168028707"><ele>234.33333333333334</ele><time>2026-04-27T07:16:22.999Z</time></trkpt><trkpt lat="45.72836029340936" lon="10.050019323035611"><ele>226.66666666666669</ele><time>2026-04-27T07:16:23.999Z</time></trkpt><trkpt lat="45.72854747078645" lon="10.05009009731609"><ele>219.0</ele><time>2026-04-27T07:16:24.999Z</time></trkpt><trkpt lat="45.728730579832266" lon="10.050188251744824"><ele>219.0</ele><time>2026-04-27T07:16:25.999Z</time></trkpt><trkpt lat="45.728905198819646" lon="10.050293984534866"><ele>219.0</ele><time>2026-04-27T07:16:26.999Z</time></trkpt><trkpt lat="45.729071301383804" lon="10.05037849876452"><ele>219.0</ele><time>2026-04-27T07:16:27.999Z</time></trkpt><trkpt lat="45.729238294915056" lon="10.050467074388882"><ele>224.66666666666669</ele><time>2026-04-27T07:16:28.999Z</time></trkpt><trkpt lat="45.72942212512558" lon="10.050551501943561"><ele>230.33333333333334</ele><time>2026-04-27T07:16:29.999Z</time></trkpt><trkpt lat="45.72960459560403" lon="10.050611812866396"><ele>236.0</ele><time>2026-04-27T07:16:30.999Z</time></trkpt><trkpt lat="45.72978332965482" lon="10.050638164374657"><ele>236.0</ele><time>2026-04-27T07:16:31.999Z</time></trkpt><trkpt lat="45.72993504414192" lon="10.050628593034034"><ele>236.0</ele><time>2026-04-27T07:16:32.999Z</time></trkpt><trkpt lat="45.73007809249556" lon="10.050666884957211"><ele>236.0</ele><time>2026-04-27T07:16:33.999Z</time></trkpt><trkpt lat="45.73022796618247" lon="10.050742869636416"><ele>232.0</ele><time>2026-04-27T07:16:34.999Z</time></trkpt><trkpt lat="45.73033897010439" lon="10.05088828690313"><ele>228.0</ele><time>2026-04-27T07:16:35.999Z</time></trkpt><trkpt lat="45.73046125869734" lon="10.05105864533285"><ele>224.0</ele><time>2026-04-27T07:16:36.999Z</time></trkpt><trkpt lat="45.73060442513319" lon="10.05124090949238"><ele>224.0</ele><time>2026-04-27T07:16:37.999Z</time></trkpt><trkpt lat="45.73075518779705" lon="10.051398147885775"><ele>224.0</ele><time>2026-04-27T07:16:38.999Z</time></trkpt><trkpt lat="45.7309363566059" lon="10.051530201367703"><ele>224.0</ele><time>2026-04-27T07:16:39.999Z</time></trkpt><trkpt lat="45.73109873296547" lon="10.051644993662533"><ele>224.33333333333334</ele><time>2026-04-27T07:16:40.999Z</time></trkpt><trkpt lat="45.7312461379082" lon="10.051783787905233"><ele>224.66666666666669</ele><time>2026-04-27T07:16:41.999Z</time></trkpt><trkpt lat="45.7313839386281" lon="10.051921587851758"><ele>225.0</ele><time>2026-04-27T07:16:42.999Z</time></trkpt><trkpt lat="45.731513013082285" lon="10.052026822169115"><ele>225.0</ele><time>2026-04-27T07:16:43.999Z</time></trkpt><trkpt lat="45.73165675697102" lon="10.05212620328221"><ele>225.0</ele><time>2026-04-27T07:16:44.999Z</time></trkpt><trkpt lat="45.73179896593672" lon="10.052194425411855"><ele>225.0</ele><time>2026-04-27T07:16:45.999Z</time></trkpt><trkpt lat="45.73193025517805" lon="10.052300256389756"><ele>221.5</ele><time>2026-04-27T07:16:46.999Z</time></trkpt><trkpt lat="45.73205767645629" lon="10.052355965375114"><ele>218.0</ele><time>2026-04-27T07:16:47.999Z</time></trkpt><trkpt lat="45.73219304082365" lon="10.05242776882052"><ele>214.5</ele><time>2026-04-27T07:16:48.999Z</time></trkpt><trkpt lat="45.732327363399136" lon="10.05251599307373"><ele>211.0</ele><time>2026-04-27T07:16:49.999Z</time></trkpt><trkpt lat="45.732477233273436" lon="10.05254980230129"><ele>211.0</ele><time>2026-04-27T07:16:50.999Z</time></trkpt><trkpt lat="45.732624478599895" lon="10.05259585808717"><ele>211.0</ele><time>2026-04-27T07:16:51.999Z</time></trkpt><trkpt lat="45.73275536751862" lon="10.052671284413213"><ele>211.0</ele><time>2026-04-27T07:16:52.999Z</time></trkpt><trkpt lat="45.732879250716955" lon="10.052721198544033"><ele>211.0</ele><time>2026-04-27T07:16:53.999Z</time></trkpt><trkpt lat="45.73300053262995" lon="10.052768003750135"><ele>221.0</ele><time>2026-04-27T07:16:54.999Z</time></trkpt><trkpt lat="45.733126847585" lon="10.052799729064358"><ele>231.0</ele><time>2026-04-27T07:16:55.999Z</time></trkpt><trkpt lat="45.733257561398176" lon="10.052801213314453"><ele>241.0</ele><time>2026-04-27T07:16:56.999Z</time></trkpt><trkpt lat="45.73339716119755" lon="10.052780794924987"><ele>251.0</ele><time>2026-04-27T07:16:57.999Z</time></trkpt><trkpt lat="45.733549722679676" lon="10.052746648321317"><ele>237.66666666666669</ele><time>2026-04-27T07:16:58.999Z</time></trkpt><trkpt lat="45.73370838673847" lon="10.052693678267989"><ele>224.33333333333331</ele><time>2026-04-27T07:16:59.999Z</time></trkpt><trkpt lat="45.733856442156835" lon="10.052623726881679"><ele>211.0</ele><time>2026-04-27T07:17:00.999Z</time></trkpt><trkpt lat="45.735181841706364" lon="10.051810007555643"><ele>182.0</ele><time>2026-04-27T07:17:04.209Z</time></trkpt><trkpt lat="45.735619167643485" lon="10.051658267398972"><ele>182.0</ele><time>2026-04-27T07:17:05.212Z</time></trkpt><trkpt lat="45.736039038519905" lon="10.051433351169525"><ele>182.0</ele><time>2026-04-27T07:17:06.209Z</time></trkpt><trkpt lat="45.736448178558106" lon="10.051167009958954"><ele>182.0</ele><time>2026-04-27T07:17:07.209Z</time></trkpt><trkpt lat="45.73685851734633" lon="10.050900050687886"><ele>313.0</ele><time>2026-04-27T07:17:08.212Z</time></trkpt><trkpt lat="45.7372877527217" lon="10.050715463970183"><ele>444.0</ele><time>2026-04-27T07:17:09.209Z</time></trkpt><trkpt lat="45.73772663352069" lon="10.05056556575786"><ele>454.0</ele><time>2026-04-27T07:17:10.212Z</time></trkpt><trkpt lat="45.73816525973871" lon="10.050422930199684"><ele>391.0</ele><time>2026-04-27T07:17:11.212Z</time></trkpt><trkpt lat="45.73860312744575" lon="10.05028096642642"><ele>328.0</ele><time>2026-04-27T07:17:12.21Z</time></trkpt><trkpt lat="45.7390438446959" lon="10.050146241111479"><ele>293.0</ele><time>2026-04-27T07:17:13.212Z</time></trkpt><trkpt lat="45.73948662907375" lon="10.05003270122447"><ele>293.0</ele><time>2026-04-27T07:17:14.212Z</time></trkpt><trkpt lat="45.739931942540785" lon="10.04995975660188"><ele>293.0</ele><time>2026-04-27T07:17:15.209Z</time></trkpt><trkpt lat="45.74038228042328" lon="10.049915996859893"><ele>303.0</ele><time>2026-04-27T07:17:16.212Z</time></trkpt><trkpt lat="45.74083088063944" lon="10.049868853146169"><ele>254.0</ele><time>2026-04-27T07:17:17.212Z</time></trkpt><trkpt lat="45.741277625853236" lon="10.049793503074874"><ele>254.0</ele><time>2026-04-27T07:17:18.212Z</time></trkpt><trkpt lat="45.74172319450573" lon="10.049707256933093"><ele>239.5</ele><time>2026-04-27T07:17:19.212Z</time></trkpt><trkpt lat="45.74216813083863" lon="10.049625682495849"><ele>225.0</ele><time>2026-04-27T07:17:20.209Z</time></trkpt><trkpt lat="45.74261467003433" lon="10.049534745629876"><ele>212.5</ele><time>2026-04-27T07:17:21.213Z</time></trkpt><trkpt lat="45.7427176" lon="10.0494938"><ele>200.0</ele><time>2026-04-27T07:17:22.212Z</time></trkpt><trkpt lat="45.744012307936245" lon="10.048380403292056"><ele>202.66666666666669</ele><time>2026-04-27T07:18:06.999Z</time></trkpt><trkpt lat="45.74422345891345" lon="10.048270143436472"><ele>205.33333333333331</ele><time>2026-04-27T07:18:07.999Z</time></trkpt><trkpt lat="45.744405279734174" lon="10.048146900508474"><ele>208.0</ele><time>2026-04-27T07:18:08.999Z</time></trkpt><trkpt lat="45.74456326934951" lon="10.047985498702626"><ele>208.0</ele><time>2026-04-27T07:18:09.999Z</time></trkpt><trkpt lat="45.74472259705448" lon="10.047822881441459"><ele>208.0</ele><time>2026-04-27T07:18:10.999Z</time></trkpt><trkpt lat="45.7448953347117" lon="10.047689001546296"><ele>208.0</ele><time>2026-04-27T07:18:11.999Z</time></trkpt><trkpt lat="45.74509341868595" lon="10.047592584537307"><ele>203.0</ele><time>2026-04-27T07:18:12.999Z</time></trkpt><trkpt lat="45.745303501241196" lon="10.04750579424065"><ele>198.0</ele><time>2026-04-27T07:18:13.999Z</time></trkpt><trkpt lat="45.745497874823265" lon="10.047445249939939"><ele>193.0</ele><time>2026-04-27T07:18:14.999Z</time></trkpt><trkpt lat="45.74566917352503" lon="10.047392746163698"><ele>192.33333333333331</ele><time>2026-04-27T07:18:15.999Z</time></trkpt><trkpt lat="45.74582868773369" lon="10.047340378915644"><ele>191.66666666666666</ele><time>2026-04-27T07:18:16.999Z</time></trkpt><trkpt lat="45.74599167438506" lon="10.047300888921395"><ele>191.0</ele><time>2026-04-27T07:18:17.999Z</time></trkpt><trkpt lat="45.746117153961706" lon="10.047239791035365"><ele>191.0</ele><time>2026-04-27T07:18:18.999Z</time></trkpt><trkpt lat="45.74623160875907" lon="10.047147091410007"><ele>191.0</ele><time>2026-04-27T07:18:19.999Z</time></trkpt><trkpt lat="45.74634322020485" lon="10.046989897728812"><ele>191.0</ele><time>2026-04-27T07:18:20.999Z</time></trkpt><trkpt lat="45.746477230576026" lon="10.046819954890406"><ele>191.0</ele><time>2026-04-27T07:18:21.999Z</time></trkpt><trkpt lat="45.746574057705736" lon="10.046638951555193"><ele>191.0</ele><time>2026-04-27T07:18:22.999Z</time></trkpt><trkpt lat="45.74664965637154" lon="10.046470245384514"><ele>191.0</ele><time>2026-04-27T07:18:23.999Z</time></trkpt><trkpt lat="45.74673604019868" lon="10.0463237548144"><ele>191.0</ele><time>2026-04-27T07:18:24.999Z</time></trkpt><trkpt lat="45.74684115298041" lon="10.04616530437278"><ele>189.33333333333331</ele><time>2026-04-27T07:18:25.999Z</time></trkpt><trkpt lat="45.74690800871221" lon="10.045963281410765"><ele>187.66666666666666</ele><time>2026-04-27T07:18:26.999Z</time></trkpt><trkpt lat="45.74696720746618" lon="10.045726145946945"><ele>186.0</ele><time>2026-04-27T07:18:27.999Z</time></trkpt><trkpt lat="45.747034438647475" lon="10.045474096915342"><ele>186.0</ele><time>2026-04-27T07:18:28.999Z</time></trkpt><trkpt lat="45.747100598955065" lon="10.045203908055122"><ele>186.0</ele><time>2026-04-27T07:18:29.999Z</time></trkpt><trkpt lat="45.7471712531061" lon="10.044905794599174"><ele>186.0</ele><time>2026-04-27T07:18:30.999Z</time></trkpt><trkpt lat="45.74724398719131" lon="10.044554891425607"><ele>189.0</ele><time>2026-04-27T07:18:31.999Z</time></trkpt><trkpt lat="45.74735388350788" lon="10.044323614996518"><ele>192.0</ele><time>2026-04-27T07:18:32.999Z</time></trkpt><trkpt lat="45.74743246084717" lon="10.044192033324418"><ele>195.0</ele><time>2026-04-27T07:18:33.999Z</time></trkpt><trkpt lat="45.74757929393576" lon="10.043963886990474"><ele>194.66666666666669</ele><time>2026-04-27T07:18:34.999Z</time></trkpt><trkpt lat="45.74772237599039" lon="10.043732547775626"><ele>194.33333333333334</ele><time>2026-04-27T07:18:35.999Z</time></trkpt><trkpt lat="45.74789502630598" lon="10.043579669441323"><ele>194.0</ele><time>2026-04-27T07:18:36.999Z</time></trkpt><trkpt lat="45.7480276849695" lon="10.04336873500838"><ele>202.33333333333334</ele><time>2026-04-27T07:18:37.999Z</time></trkpt><trkpt lat="45.74814814328602" lon="10.04317856381612"><ele>210.66666666666669</ele><time>2026-04-27T07:18:38.999Z</time></trkpt><trkpt lat="45.74825536944863" lon="10.042985392588268"><ele>219.0</ele><time>2026-04-27T07:18:39.999Z</time></trkpt><trkpt lat="45.74836986496611" lon="10.042813588763867"><ele>219.0</ele><time>2026-04-27T07:18:40.999Z</time></trkpt><trkpt lat="45.748538774699774" lon="10.042766902412676"><ele>219.0</ele><time>2026-04-27T07:18:41.999Z</time></trkpt><trkpt lat="45.74873601570776" lon="10.042687154194455"><ele>219.0</ele><time>2026-04-27T07:18:42.999Z</time></trkpt><trkpt lat="45.74889520898501" lon="10.042597951437775"><ele>219.25</ele><time>2026-04-27T07:18:43.999Z</time></trkpt><trkpt lat="45.749043963124265" lon="10.042565813478504"><ele>219.5</ele><time>2026-04-27T07:18:44.999Z</time></trkpt><trkpt lat="45.74915503778342" lon="10.042470451767201"><ele>219.75</ele><time>2026-04-27T07:18:45.999Z</time></trkpt><trkpt lat="45.74928489162717" lon="10.042326492121434"><ele>220.0</ele><time>2026-04-27T07:18:46.999Z</time></trkpt><trkpt lat="45.74942207308154" lon="10.042020610717096"><ele>217.5</ele><time>2026-04-27T07:18:47.999Z</time></trkpt><trkpt lat="45.749574539806375" lon="10.041713264281421"><ele>215.0</ele><time>2026-04-27T07:18:48.999Z</time></trkpt><trkpt lat="45.74974479200165" lon="10.041480537292781"><ele>215.0</ele><time>2026-04-27T07:18:49.999Z</time></trkpt><trkpt lat="45.74993032314514" lon="10.041360132824689"><ele>215.0</ele><time>2026-04-27T07:18:50.999Z</time></trkpt><trkpt lat="45.75015602935678" lon="10.041258411815548"><ele>215.0</ele><time>2026-04-27T07:18:52.999Z</time></trkpt><trkpt lat="45.75033034021876" lon="10.0411682878295"><ele>217.0</ele><time>2026-04-27T07:18:53.999Z</time></trkpt><trkpt lat="45.75049870073536" lon="10.04100222224346"><ele>219.0</ele><time>2026-04-27T07:18:54.999Z</time></trkpt><trkpt lat="45.750663834620646" lon="10.040848349930284"><ele>221.0</ele><time>2026-04-27T07:18:55.999Z</time></trkpt><trkpt lat="45.75085380747606" lon="10.040665570968857"><ele>221.0</ele><time>2026-04-27T07:18:56.999Z</time></trkpt><trkpt lat="45.751024718952934" lon="10.040487440896014"><ele>221.0</ele><time>2026-04-27T07:18:57.999Z</time></trkpt><trkpt lat="45.75119331573921" lon="10.040328604346087"><ele>221.0</ele><time>2026-04-27T07:18:58.999Z</time></trkpt><trkpt lat="45.75135159081001" lon="10.040197836238612"><ele>215.33333333333334</ele><time>2026-04-27T07:18:59.999Z</time></trkpt><trkpt lat="45.75151716781166" lon="10.040093028682795"><ele>209.66666666666669</ele><time>2026-04-27T07:19:00.999Z</time></trkpt><trkpt lat="45.751711546196546" lon="10.039999830891873"><ele>204.0</ele><time>2026-04-27T07:19:01.999Z</time></trkpt><trkpt lat="45.751908675101966" lon="10.03991277922178"><ele>221.0</ele><time>2026-04-27T07:19:02.999Z</time></trkpt><trkpt lat="45.75209413750821" lon="10.039863102578135"><ele>238.0</ele><time>2026-04-27T07:19:03.999Z</time></trkpt><trkpt lat="45.75228121241377" lon="10.039835053624175"><ele>255.0</ele><time>2026-04-27T07:19:04.999Z</time></trkpt><trkpt lat="45.75248536097202" lon="10.039798783134314"><ele>255.0</ele><time>2026-04-27T07:19:05.999Z</time></trkpt><trkpt lat="45.75268616908149" lon="10.039749683561041"><ele>255.0</ele><time>2026-04-27T07:19:06.999Z</time></trkpt><trkpt lat="45.75289302519128" lon="10.039690123906139"><ele>255.0</ele><time>2026-04-27T07:19:07.999Z</time></trkpt><trkpt lat="45.75312194906606" lon="10.039609453822516"><ele>237.0</ele><time>2026-04-27T07:19:08.999Z</time></trkpt><trkpt lat="45.75334689078479" lon="10.03950775736217"><ele>219.0</ele><time>2026-04-27T07:19:09.999Z</time></trkpt><trkpt lat="45.753571334205034" lon="10.03937663593009"><ele>217.33333333333331</ele><time>2026-04-27T07:19:10.999Z</time></trkpt><trkpt lat="45.75375389306506" lon="10.0392330273014"><ele>215.66666666666666</ele><time>2026-04-27T07:19:11.999Z</time></trkpt><trkpt lat="45.75394693449954" lon="10.039082300624068"><ele>214.0</ele><time>2026-04-27T07:19:12.999Z</time></trkpt><trkpt lat="45.75414726486144" lon="10.038933432986227"><ele>214.0</ele><time>2026-04-27T07:19:13.999Z</time></trkpt><trkpt lat="45.75433376102359" lon="10.038810425265511"><ele>214.0</ele><time>2026-04-27T07:19:14.999Z</time></trkpt><trkpt lat="45.75453634968035" lon="10.038689095199024"><ele>214.0</ele><time>2026-04-27T07:19:15.999Z</time></trkpt><trkpt lat="45.7547446186972" lon="10.03856903119836"><ele>210.33333333333331</ele><time>2026-04-27T07:19:16.999Z</time></trkpt><trkpt lat="45.75494533830264" lon="10.038448425126854"><ele>206.66666666666669</ele><time>2026-04-27T07:19:17.999Z</time></trkpt><trkpt lat="45.755135925695974" lon="10.03834127109482"><ele>203.0</ele><time>2026-04-27T07:19:18.999Z</time></trkpt><trkpt lat="45.75533854641729" lon="10.038266988307367"><ele>224.5</ele><time>2026-04-27T07:19:19.999Z</time></trkpt><trkpt lat="45.75555832397948" lon="10.038215353465771"><ele>246.0</ele><time>2026-04-27T07:19:20.999Z</time></trkpt><trkpt lat="45.75580131704664" lon="10.038168466070807"><ele>246.0</ele><time>2026-04-27T07:19:21.999Z</time></trkpt><trkpt lat="45.75601223962632" lon="10.03813245432697"><ele>246.0</ele><time>2026-04-27T07:19:22.999Z</time></trkpt><trkpt lat="45.75623342875554" lon="10.03809694026134"><ele>246.0</ele><time>2026-04-27T07:19:23.999Z</time></trkpt><trkpt lat="45.75646744196412" lon="10.03805688449402"><ele>245.0</ele><time>2026-04-27T07:19:24.999Z</time></trkpt><trkpt lat="45.75670415619647" lon="10.038013157105697"><ele>244.0</ele><time>2026-04-27T07:19:25.999Z</time></trkpt><trkpt lat="45.75690940345005" lon="10.037966231987834"><ele>243.0</ele><time>2026-04-27T07:19:26.999Z</time></trkpt><trkpt lat="45.75709221657514" lon="10.037910745188103"><ele>236.0</ele><time>2026-04-27T07:19:27.999Z</time></trkpt><trkpt lat="45.757258458505326" lon="10.037830904205729"><ele>229.0</ele><time>2026-04-27T07:19:28.999Z</time></trkpt><trkpt lat="45.75741923819171" lon="10.037722040098581"><ele>222.0</ele><time>2026-04-27T07:19:29.999Z</time></trkpt><trkpt lat="45.75757983709206" lon="10.037588308474716"><ele>216.66666666666669</ele><time>2026-04-27T07:19:30.999Z</time></trkpt><trkpt lat="45.757778725282215" lon="10.037476230221959"><ele>211.33333333333334</ele><time>2026-04-27T07:19:31.999Z</time></trkpt><trkpt lat="45.7579682447087" lon="10.037355120597788"><ele>206.0</ele><time>2026-04-27T07:19:32.999Z</time></trkpt><trkpt lat="45.75816581526653" lon="10.03728126072604"><ele>227.0</ele><time>2026-04-27T07:19:33.999Z</time></trkpt><trkpt lat="45.7583815771776" lon="10.037288715444713"><ele>248.0</ele><time>2026-04-27T07:19:34.999Z</time></trkpt><trkpt lat="45.75861028375638" lon="10.037290096291626"><ele>269.0</ele><time>2026-04-27T07:19:35.999Z</time></trkpt><trkpt lat="45.75881538506886" lon="10.037305933626186"><ele>269.0</ele><time>2026-04-27T07:19:36.999Z</time></trkpt><trkpt lat="45.759042160383764" lon="10.037319982892166"><ele>269.0</ele><time>2026-04-27T07:19:37.999Z</time></trkpt><trkpt lat="45.759284935816964" lon="10.037318720804114"><ele>265.0</ele><time>2026-04-27T07:19:38.999Z</time></trkpt><trkpt lat="45.75951547101676" lon="10.037315374530083"><ele>261.0</ele><time>2026-04-27T07:19:39.999Z</time></trkpt><trkpt lat="45.75971243101058" lon="10.03731251393355"><ele>257.0</ele><time>2026-04-27T07:19:40.999Z</time></trkpt><trkpt lat="45.75989428032288" lon="10.037289354325349"><ele>257.0</ele><time>2026-04-27T07:19:41.999Z</time></trkpt><trkpt lat="45.76004460856321" lon="10.037348735779155"><ele>257.0</ele><time>2026-04-27T07:19:42.999Z</time></trkpt><trkpt lat="45.76019392040723" lon="10.037361743819737"><ele>257.0</ele><time>2026-04-27T07:19:43.999Z</time></trkpt><trkpt lat="45.76032931033099" lon="10.03737789055016"><ele>257.0</ele><time>2026-04-27T07:19:44.999Z</time></trkpt><trkpt lat="45.7604490959898" lon="10.03739202746105"><ele>245.66666666666669</ele><time>2026-04-27T07:19:45.999Z</time></trkpt><trkpt lat="45.760567715543615" lon="10.037347146618545"><ele>234.33333333333331</ele><time>2026-04-27T07:19:46.999Z</time></trkpt><trkpt lat="45.760680448155036" lon="10.037174643785603"><ele>223.0</ele><time>2026-04-27T07:19:47.999Z</time></trkpt><trkpt lat="45.76074831382845" lon="10.036953689215059"><ele>223.0</ele><time>2026-04-27T07:19:48.999Z</time></trkpt><trkpt lat="45.7608087076804" lon="10.036835533075312"><ele>223.0</ele><time>2026-04-27T07:19:49.999Z</time></trkpt><trkpt lat="45.76091477488659" lon="10.036768328194254"><ele>223.0</ele><time>2026-04-27T07:19:50.999Z</time></trkpt><trkpt lat="45.76110867589206" lon="10.036823271179658"><ele>223.0</ele><time>2026-04-27T07:19:51.999Z</time></trkpt><trkpt lat="45.7612904828187" lon="10.036919418568226"><ele>228.33333333333331</ele><time>2026-04-27T07:19:52.999Z</time></trkpt><trkpt lat="45.76146641269764" lon="10.036996737413144"><ele>233.66666666666669</ele><time>2026-04-27T07:19:53.999Z</time></trkpt><trkpt lat="45.761634668311245" lon="10.037021743249555"><ele>239.0</ele><time>2026-04-27T07:19:54.999Z</time></trkpt><trkpt lat="45.761818565687705" lon="10.03706810286131"><ele>240.66666666666669</ele><time>2026-04-27T07:19:55.999Z</time></trkpt><trkpt lat="45.76201977798404" lon="10.037110831497529"><ele>242.33333333333331</ele><time>2026-04-27T07:19:56.999Z</time></trkpt><trkpt lat="45.76223073448006" lon="10.037101814292937"><ele>244.0</ele><time>2026-04-27T07:19:57.999Z</time></trkpt><trkpt lat="45.7624312246229" lon="10.037087329450083"><ele>244.0</ele><time>2026-04-27T07:19:58.999Z</time></trkpt><trkpt lat="45.7626164659177" lon="10.037087842133968"><ele>244.0</ele><time>2026-04-27T07:19:59.999Z</time></trkpt><trkpt lat="45.76280030572345" lon="10.037094766613368"><ele>244.0</ele><time>2026-04-27T07:20:00.999Z</time></trkpt><trkpt lat="45.76298977060438" lon="10.0371155840879"><ele>239.33333333333331</ele><time>2026-04-27T07:20:01.999Z</time></trkpt><trkpt lat="45.76317065541599" lon="10.037106006170138"><ele>234.66666666666669</ele><time>2026-04-27T07:20:02.999Z</time></trkpt><trkpt lat="45.763335631001354" lon="10.037058625698513"><ele>230.0</ele><time>2026-04-27T07:20:03.999Z</time></trkpt><trkpt lat="45.76349059480696" lon="10.037024178382387"><ele>220.66666666666669</ele><time>2026-04-27T07:20:04.999Z</time></trkpt><trkpt lat="45.76365713660043" lon="10.036969217169634"><ele>211.33333333333331</ele><time>2026-04-27T07:20:05.999Z</time></trkpt><trkpt lat="45.76384737582879" lon="10.036854734820663"><ele>202.0</ele><time>2026-04-27T07:20:06.999Z</time></trkpt><trkpt lat="45.76403770110698" lon="10.03665126023377"><ele>203.33333333333331</ele><time>2026-04-27T07:20:07.999Z</time></trkpt><trkpt lat="45.764214647579266" lon="10.036473542188718"><ele>204.66666666666669</ele><time>2026-04-27T07:20:08.999Z</time></trkpt><trkpt lat="45.7643954880545" lon="10.036371970840957"><ele>206.0</ele><time>2026-04-27T07:20:09.999Z</time></trkpt><trkpt lat="45.764547375658395" lon="10.036235228781317"><ele>206.0</ele><time>2026-04-27T07:20:10.999Z</time></trkpt><trkpt lat="45.76469637761178" lon="10.036117783829196"><ele>206.0</ele><time>2026-04-27T07:20:11.999Z</time></trkpt><trkpt lat="45.76487248236018" lon="10.036022169760539"><ele>206.0</ele><time>2026-04-27T07:20:12.999Z</time></trkpt><trkpt lat="45.76499465601341" lon="10.035950037126572"><ele>206.0</ele><time>2026-04-27T07:20:13.999Z</time></trkpt><trkpt lat="45.76506066936304" lon="10.035827285870276"><ele>206.0</ele><time>2026-04-27T07:20:14.999Z</time></trkpt><trkpt lat="45.76513377087267" lon="10.035697056350912"><ele>206.0</ele><time>2026-04-27T07:20:15.999Z</time></trkpt><trkpt lat="45.765311320476314" lon="10.035688259627136"><ele>206.0</ele><time>2026-04-27T07:20:16.999Z</time></trkpt><trkpt lat="45.76548499233035" lon="10.035735214899107"><ele>215.66666666666669</ele><time>2026-04-27T07:20:17.999Z</time></trkpt><trkpt lat="45.765641388518475" lon="10.035758258139417"><ele>225.33333333333331</ele><time>2026-04-27T07:20:18.999Z</time></trkpt><trkpt lat="45.76580566533598" lon="10.035730829213964"><ele>235.0</ele><time>2026-04-27T07:20:19.999Z</time></trkpt><trkpt lat="45.765987006602614" lon="10.035691538190196"><ele>233.33333333333331</ele><time>2026-04-27T07:20:20.999Z</time></trkpt><trkpt lat="45.76616194498653" lon="10.035609275327971"><ele>231.66666666666669</ele><time>2026-04-27T07:20:21.999Z</time></trkpt><trkpt lat="45.76632954414134" lon="10.035522510590905"><ele>230.0</ele><time>2026-04-27T07:20:22.999Z</time></trkpt><trkpt lat="45.76651418332094" lon="10.035497623610384"><ele>230.0</ele><time>2026-04-27T07:20:23.999Z</time></trkpt><trkpt lat="45.76670659263609" lon="10.035549842888576"><ele>230.0</ele><time>2026-04-27T07:20:24.999Z</time></trkpt><trkpt lat="45.76688278025764" lon="10.035607494358196"><ele>230.0</ele><time>2026-04-27T07:20:25.999Z</time></trkpt><trkpt lat="45.76704299303769" lon="10.035649114817106"><ele>227.75</ele><time>2026-04-27T07:20:26.999Z</time></trkpt><trkpt lat="45.76718199873013" lon="10.03569156796039"><ele>225.5</ele><time>2026-04-27T07:20:27.999Z</time></trkpt><trkpt lat="45.76733020359736" lon="10.035722133133946"><ele>223.25</ele><time>2026-04-27T07:20:28.999Z</time></trkpt><trkpt lat="45.76745656807158" lon="10.035717849855308"><ele>221.0</ele><time>2026-04-27T07:20:30.004Z</time></trkpt><trkpt lat="45.767604558526735" lon="10.035706182319117"><ele>215.33333333333334</ele><time>2026-04-27T07:20:31.003Z</time></trkpt><trkpt lat="45.767758686703075" lon="10.035664528273863"><ele>209.66666666666669</ele><time>2026-04-27T07:20:32.003Z</time></trkpt><trkpt lat="45.76792667775598" lon="10.035487928578497"><ele>204.0</ele><time>2026-04-27T07:20:33.003Z</time></trkpt><trkpt lat="45.76808330757274" lon="10.035330973953968"><ele>204.0</ele><time>2026-04-27T07:20:34.003Z</time></trkpt><trkpt lat="45.76823623970023" lon="10.03518816829758"><ele>204.0</ele><time>2026-04-27T07:20:35.003Z</time></trkpt><trkpt lat="45.76836948537798" lon="10.035045885586332"><ele>204.0</ele><time>2026-04-27T07:20:36.003Z</time></trkpt><trkpt lat="45.76849529926751" lon="10.034938865624772"><ele>213.66666666666669</ele><time>2026-04-27T07:20:37.003Z</time></trkpt><trkpt lat="45.76863568826677" lon="10.034877913865069"><ele>223.33333333333334</ele><time>2026-04-27T07:20:38.003Z</time></trkpt><trkpt lat="45.76882238143939" lon="10.034875443610565"><ele>233.0</ele><time>2026-04-27T07:20:39.003Z</time></trkpt><trkpt lat="45.76901768062792" lon="10.034917110975332"><ele>233.0</ele><time>2026-04-27T07:20:40.003Z</time></trkpt><trkpt lat="45.769171956137924" lon="10.034937344444762"><ele>233.0</ele><time>2026-04-27T07:20:41.003Z</time></trkpt><trkpt lat="45.7693213509758" lon="10.034954804354843"><ele>233.0</ele><time>2026-04-27T07:20:42.003Z</time></trkpt><trkpt lat="45.76949294620708" lon="10.035004233860048"><ele>224.0</ele><time>2026-04-27T07:20:43.003Z</time></trkpt><trkpt lat="45.76966087620339" lon="10.03511904474116"><ele>215.0</ele><time>2026-04-27T07:20:44.003Z</time></trkpt><trkpt lat="45.76982476019561" lon="10.03526573657481"><ele>206.0</ele><time>2026-04-27T07:20:45.003Z</time></trkpt><trkpt lat="45.76999234839119" lon="10.035375251815132"><ele>206.0</ele><time>2026-04-27T07:20:46.003Z</time></trkpt><trkpt lat="45.7701714903448" lon="10.035458256896105"><ele>206.0</ele><time>2026-04-27T07:20:47.003Z</time></trkpt><trkpt lat="45.77037543444097" lon="10.03552014440988"><ele>206.0</ele><time>2026-04-27T07:20:48.003Z</time></trkpt><trkpt lat="45.770565878134384" lon="10.035551057709034"><ele>206.33333333333334</ele><time>2026-04-27T07:20:49.003Z</time></trkpt><trkpt lat="45.770764703434786" lon="10.035559757655909"><ele>206.66666666666669</ele><time>2026-04-27T07:20:50.003Z</time></trkpt><trkpt lat="45.77096747574216" lon="10.03556899535554"><ele>207.0</ele><time>2026-04-27T07:20:51.003Z</time></trkpt><trkpt lat="45.771168771360635" lon="10.035591725823194"><ele>207.0</ele><time>2026-04-27T07:20:52.003Z</time></trkpt><trkpt lat="45.771365666152874" lon="10.035680266738936"><ele>207.0</ele><time>2026-04-27T07:20:53.003Z</time></trkpt><trkpt lat="45.771534208960965" lon="10.035763127501117"><ele>207.0</ele><time>2026-04-27T07:20:54.003Z</time></trkpt><trkpt lat="45.771706026705125" lon="10.03584488238518"><ele>204.66666666666669</ele><time>2026-04-27T07:20:55.003Z</time></trkpt><trkpt lat="45.77187317963741" lon="10.035920988251458"><ele>202.33333333333334</ele><time>2026-04-27T07:20:56.003Z</time></trkpt><trkpt lat="45.77203368640223" lon="10.03600149014403"><ele>200.0</ele><time>2026-04-27T07:20:57.003Z</time></trkpt><trkpt lat="45.77219279707342" lon="10.03608429581579"><ele>200.0</ele><time>2026-04-27T07:20:58.003Z</time></trkpt><trkpt lat="45.7723576152638" lon="10.036164287758442"><ele>200.0</ele><time>2026-04-27T07:20:59.003Z</time></trkpt><trkpt lat="45.772511393620825" lon="10.03628889772344"><ele>200.0</ele><time>2026-04-27T07:21:00.003Z</time></trkpt><trkpt lat="45.772657208786775" lon="10.036418174528318"><ele>203.33333333333334</ele><time>2026-04-27T07:21:01.003Z</time></trkpt><trkpt lat="45.77278577754941" lon="10.03657778894628"><ele>206.66666666666669</ele><time>2026-04-27T07:21:02.003Z</time></trkpt><trkpt lat="45.77291505430337" lon="10.036774619272263"><ele>210.0</ele><time>2026-04-27T07:21:03.003Z</time></trkpt><trkpt lat="45.77304788263362" lon="10.0369747951362"><ele>210.0</ele><time>2026-04-27T07:21:04.003Z</time></trkpt><trkpt lat="45.77317129071521" lon="10.037160429543373"><ele>210.0</ele><time>2026-04-27T07:21:05.003Z</time></trkpt><trkpt lat="45.773286160890635" lon="10.037334324160385"><ele>210.0</ele><time>2026-04-27T07:21:06.003Z</time></trkpt><trkpt lat="45.77340948141788" lon="10.037521011219129"><ele>213.0</ele><time>2026-04-27T07:21:07.003Z</time></trkpt><trkpt lat="45.77353335757058" lon="10.03770862027876"><ele>216.0</ele><time>2026-04-27T07:21:08.003Z</time></trkpt><trkpt lat="45.773645458739686" lon="10.037880310581736"><ele>219.0</ele><time>2026-04-27T07:21:09.003Z</time></trkpt><trkpt lat="45.77377246671578" lon="10.03807200842035"><ele>219.0</ele><time>2026-04-27T07:21:10.003Z</time></trkpt><trkpt lat="45.773895589068985" lon="10.03825711123442"><ele>219.0</ele><time>2026-04-27T07:21:11.003Z</time></trkpt><trkpt lat="45.77401414957945" lon="10.038437026349872"><ele>219.0</ele><time>2026-04-27T07:21:12.003Z</time></trkpt><trkpt lat="45.77412562429913" lon="10.038606188807508"><ele>222.0</ele><time>2026-04-27T07:21:13.003Z</time></trkpt><trkpt lat="45.77423466867996" lon="10.038771016830793"><ele>225.0</ele><time>2026-04-27T07:21:14.003Z</time></trkpt><trkpt lat="45.77434454545824" lon="10.038936470628832"><ele>228.0</ele><time>2026-04-27T07:21:15.003Z</time></trkpt><trkpt lat="45.77445635351606" lon="10.039073443180648"><ele>224.25</ele><time>2026-04-27T07:21:16.003Z</time></trkpt><trkpt lat="45.77454819286529" lon="10.03921142575409"><ele>220.5</ele><time>2026-04-27T07:21:17.003Z</time></trkpt><trkpt lat="45.77463037294577" lon="10.039371548774746"><ele>216.75</ele><time>2026-04-27T07:21:18.003Z</time></trkpt><trkpt lat="45.77472691043379" lon="10.039481358524602"><ele>213.0</ele><time>2026-04-27T07:21:19.003Z</time></trkpt><trkpt lat="45.77479700575558" lon="10.039630112899587"><ele>213.0</ele><time>2026-04-27T07:21:20.003Z</time></trkpt><trkpt lat="45.77486172181597" lon="10.039826710812068"><ele>213.0</ele><time>2026-04-27T07:21:21.003Z</time></trkpt><trkpt lat="45.77489814251913" lon="10.040040972434568"><ele>213.0</ele><time>2026-04-27T07:21:22.003Z</time></trkpt><trkpt lat="45.774913413729514" lon="10.040258878230663"><ele>210.33333333333331</ele><time>2026-04-27T07:21:23.003Z</time></trkpt><trkpt lat="45.77488312041726" lon="10.040483300146887"><ele>207.66666666666666</ele><time>2026-04-27T07:21:24.003Z</time></trkpt><trkpt lat="45.77485751002751" lon="10.040714074554066"><ele>205.0</ele><time>2026-04-27T07:21:25.003Z</time></trkpt><trkpt lat="45.77483357589633" lon="10.040936491456256"><ele>205.0</ele><time>2026-04-27T07:21:26.003Z</time></trkpt><trkpt lat="45.77480776449224" lon="10.041159792702386"><ele>205.0</ele><time>2026-04-27T07:21:27.003Z</time></trkpt><trkpt lat="45.77480018562122" lon="10.04138400983533"><ele>205.0</ele><time>2026-04-27T07:21:28.003Z</time></trkpt><trkpt lat="45.77479993109719" lon="10.041612311765952"><ele>206.66666666666666</ele><time>2026-04-27T07:21:29.003Z</time></trkpt><trkpt lat="45.77481918812949" lon="10.041843602611937"><ele>208.33333333333331</ele><time>2026-04-27T07:21:30.003Z</time></trkpt><trkpt lat="45.77483560093314" lon="10.042070289717707"><ele>210.0</ele><time>2026-04-27T07:21:31.003Z</time></trkpt><trkpt lat="45.77483244748052" lon="10.042301187368402"><ele>207.66666666666669</ele><time>2026-04-27T07:21:32.003Z</time></trkpt><trkpt lat="45.7748428936996" lon="10.042526179380781"><ele>205.33333333333334</ele><time>2026-04-27T07:21:33.003Z</time></trkpt><trkpt lat="45.774836967098125" lon="10.042752680351072"><ele>203.0</ele><time>2026-04-27T07:21:34.003Z</time></trkpt><trkpt lat="45.77490492086335" lon="10.042968539998903"><ele>203.0</ele><time>2026-04-27T07:21:35.003Z</time></trkpt><trkpt lat="45.775147336785324" lon="10.043257955235344"><ele>203.0</ele><time>2026-04-27T07:21:36.003Z</time></trkpt><trkpt lat="45.77539013916124" lon="10.043468796401235"><ele>207.66666666666669</ele><time>2026-04-27T07:21:37.003Z</time></trkpt><trkpt lat="45.77556357358755" lon="10.043664395876597"><ele>212.33333333333331</ele><time>2026-04-27T07:21:38.003Z</time></trkpt><trkpt lat="45.77569366181561" lon="10.043817764158554"><ele>217.0</ele><time>2026-04-27T07:21:39.003Z</time></trkpt><trkpt lat="45.77580791994372" lon="10.044010709632209"><ele>217.33333333333331</ele><time>2026-04-27T07:21:40.003Z</time></trkpt><trkpt lat="45.77591672262779" lon="10.044264574888278"><ele>217.66666666666669</ele><time>2026-04-27T07:21:41.003Z</time></trkpt><trkpt lat="45.7760344421955" lon="10.044473599253296"><ele>218.0</ele><time>2026-04-27T07:21:42.003Z</time></trkpt><trkpt lat="45.77616763364214" lon="10.044655208574802"><ele>218.0</ele><time>2026-04-27T07:21:43.003Z</time></trkpt><trkpt lat="45.77631424247857" lon="10.04484317407882"><ele>218.0</ele><time>2026-04-27T07:21:44.003Z</time></trkpt><trkpt lat="45.776456187562594" lon="10.044992359890689"><ele>218.0</ele><time>2026-04-27T07:21:45.003Z</time></trkpt><trkpt lat="45.7765866999476" lon="10.045142802388554"><ele>217.66666666666669</ele><time>2026-04-27T07:21:46.003Z</time></trkpt><trkpt lat="45.77672676402276" lon="10.045276132254596"><ele>217.33333333333331</ele><time>2026-04-27T07:21:47.003Z</time></trkpt><trkpt lat="45.77687408459308" lon="10.045406390290575"><ele>217.0</ele><time>2026-04-27T07:21:48.003Z</time></trkpt><trkpt lat="45.77703675738629" lon="10.045518538219104"><ele>217.0</ele><time>2026-04-27T07:21:49.003Z</time></trkpt><trkpt lat="45.77719073732111" lon="10.04564577770699"><ele>217.0</ele><time>2026-04-27T07:21:50.003Z</time></trkpt><trkpt lat="45.777338456623376" lon="10.0457752848545"><ele>217.0</ele><time>2026-04-27T07:21:51.003Z</time></trkpt><trkpt lat="45.77747690398252" lon="10.045913001994725"><ele>219.33333333333331</ele><time>2026-04-27T07:21:52.003Z</time></trkpt><trkpt lat="45.77761258889674" lon="10.046077845285495"><ele>221.66666666666669</ele><time>2026-04-27T07:21:53.003Z</time></trkpt><trkpt lat="45.77773207603543" lon="10.046252361934478"><ele>224.0</ele><time>2026-04-27T07:21:54.003Z</time></trkpt><trkpt lat="45.77785138096456" lon="10.046440554270344"><ele>224.0</ele><time>2026-04-27T07:21:55.003Z</time></trkpt><trkpt lat="45.77795759563064" lon="10.046603251984765"><ele>224.0</ele><time>2026-04-27T07:21:56.003Z</time></trkpt><trkpt lat="45.778073555654444" lon="10.046787745805629"><ele>224.0</ele><time>2026-04-27T07:21:57.003Z</time></trkpt><trkpt lat="45.778179190352446" lon="10.046963985119783"><ele>217.66666666666669</ele><time>2026-04-27T07:21:58.003Z</time></trkpt><trkpt lat="45.77826992509944" lon="10.047173421471872"><ele>211.33333333333331</ele><time>2026-04-27T07:21:59.003Z</time></trkpt><trkpt lat="45.778368765455426" lon="10.047359917646034"><ele>205.0</ele><time>2026-04-27T07:22:00.003Z</time></trkpt><trkpt lat="45.77844249728394" lon="10.047540778800908"><ele>210.66666666666666</ele><time>2026-04-27T07:22:01.003Z</time></trkpt><trkpt lat="45.77853564930561" lon="10.047710940284663"><ele>216.33333333333331</ele><time>2026-04-27T07:22:02.003Z</time></trkpt><trkpt lat="45.77863697735485" lon="10.047861678649841"><ele>222.0</ele><time>2026-04-27T07:22:03.003Z</time></trkpt><trkpt lat="45.77874897553193" lon="10.048028258431986"><ele>222.0</ele><time>2026-04-27T07:22:04.003Z</time></trkpt><trkpt lat="45.7788862785643" lon="10.048134287767274"><ele>222.0</ele><time>2026-04-27T07:22:05.003Z</time></trkpt><trkpt lat="45.77902069188624" lon="10.048244565572654"><ele>222.0</ele><time>2026-04-27T07:22:06.003Z</time></trkpt><trkpt lat="45.77915728809586" lon="10.048317008760028"><ele>217.0</ele><time>2026-04-27T07:22:07.003Z</time></trkpt><trkpt lat="45.779301693590526" lon="10.048375146472074"><ele>212.0</ele><time>2026-04-27T07:22:08.003Z</time></trkpt><trkpt lat="45.77944994546685" lon="10.04841951490746"><ele>207.0</ele><time>2026-04-27T07:22:09.003Z</time></trkpt><trkpt lat="45.77959128198917" lon="10.048492091382775"><ele>220.33333333333331</ele><time>2026-04-27T07:22:10.003Z</time></trkpt><trkpt lat="45.77973348224809" lon="10.048517895165686"><ele>233.66666666666666</ele><time>2026-04-27T07:22:11.003Z</time></trkpt><trkpt lat="45.77989220521103" lon="10.048490711000058"><ele>247.0</ele><time>2026-04-27T07:22:12.003Z</time></trkpt><trkpt lat="45.78074516958039" lon="10.048231726681646"><ele>270.5</ele><time>2026-04-27T07:22:17.212Z</time></trkpt><trkpt lat="45.781014516402614" lon="10.048215106873691"><ele>294.0</ele><time>2026-04-27T07:22:18.209Z</time></trkpt><trkpt lat="45.78128281739166" lon="10.048171165516651"><ele>310.0</ele><time>2026-04-27T07:22:19.209Z</time></trkpt><trkpt lat="45.78154948484576" lon="10.048109114607595"><ele>326.0</ele><time>2026-04-27T07:22:20.209Z</time></trkpt><trkpt lat="45.78182009392948" lon="10.048113165579657"><ele>333.5</ele><time>2026-04-27T07:22:21.212Z</time></trkpt><trkpt lat="45.78208755763226" lon="10.048153652457158"><ele>341.0</ele><time>2026-04-27T07:22:22.209Z</time></trkpt><trkpt lat="45.782351884695544" lon="10.048235960174887"><ele>291.0</ele><time>2026-04-27T07:22:23.212Z</time></trkpt><trkpt lat="45.78260816380754" lon="10.048356516955879"><ele>241.0</ele><time>2026-04-27T07:22:24.212Z</time></trkpt><trkpt lat="45.782841371951825" lon="10.048542244496232"><ele>229.0</ele><time>2026-04-27T07:22:25.212Z</time></trkpt><trkpt lat="45.782675299668796" lon="10.049224264401355"><ele>229.0</ele><time>2026-04-27T07:22:38.003Z</time></trkpt><trkpt lat="45.7826002735847" lon="10.049371826678419"><ele>229.0</ele><time>2026-04-27T07:22:39.003Z</time></trkpt><trkpt lat="45.78259974340297" lon="10.04963971962257"><ele>229.0</ele><time>2026-04-27T07:22:40.003Z</time></trkpt><trkpt lat="45.782539569170794" lon="10.049837213296122"><ele>219.66666666666666</ele><time>2026-04-27T07:22:41.003Z</time></trkpt><trkpt lat="45.78246915224485" lon="10.050059235834322"><ele>210.33333333333331</ele><time>2026-04-27T07:22:42.003Z</time></trkpt><trkpt lat="45.7823968708388" lon="10.05026728671087"><ele>201.0</ele><time>2026-04-27T07:22:43.003Z</time></trkpt><trkpt lat="45.78223842579434" lon="10.050586554210136"><ele>201.0</ele><time>2026-04-27T07:22:44.003Z</time></trkpt><trkpt lat="45.78222023338225" lon="10.050718734616204"><ele>201.0</ele><time>2026-04-27T07:22:47.004Z</time></trkpt><trkpt lat="45.78223055631579" lon="10.05085363083619"><ele>201.0</ele><time>2026-04-27T07:22:49.004Z</time></trkpt><trkpt lat="45.782269520072376" lon="10.05098259772165"><ele>201.0</ele><time>2026-04-27T07:22:50.004Z</time></trkpt><trkpt lat="45.78231569038537" lon="10.051100203849398"><ele>201.0</ele><time>2026-04-27T07:22:51.003Z</time></trkpt><trkpt lat="45.78235175724334" lon="10.051264877038989"><ele>201.0</ele><time>2026-04-27T07:22:52.003Z</time></trkpt><trkpt lat="45.78224365228842" lon="10.051395671551449"><ele>201.0</ele><time>2026-04-27T07:22:53.004Z</time></trkpt><trkpt lat="45.782189109372794" lon="10.051484513026121"><ele>201.0</ele><time>2026-04-27T07:22:54.004Z</time></trkpt><trkpt lat="45.78214803010712" lon="10.051607990656"><ele>201.0</ele><time>2026-04-27T07:22:55.004Z</time></trkpt><trkpt lat="45.78212315603098" lon="10.051707352750826"><ele>201.0</ele><time>2026-04-27T07:22:56.004Z</time></trkpt><trkpt lat="45.782101754024445" lon="10.051835343395107"><ele>196.25</ele><time>2026-04-27T07:22:57.004Z</time></trkpt><trkpt lat="45.78211483140065" lon="10.051997808489968"><ele>191.5</ele><time>2026-04-27T07:22:58.004Z</time></trkpt><trkpt lat="45.782143849996366" lon="10.05218614521992"><ele>186.75</ele><time>2026-04-27T07:22:59.004Z</time></trkpt><trkpt lat="45.78217943525249" lon="10.052377216323555"><ele>182.0</ele><time>2026-04-27T07:23:00.004Z</time></trkpt><trkpt lat="45.78225523454262" lon="10.052577601118005"><ele>182.0</ele><time>2026-04-27T07:23:01.004Z</time></trkpt><trkpt lat="45.78233327489568" lon="10.052756865564993"><ele>182.0</ele><time>2026-04-27T07:23:02.004Z</time></trkpt><trkpt lat="45.78240446053613" lon="10.052910166814623"><ele>182.0</ele><time>2026-04-27T07:23:03.004Z</time></trkpt><trkpt lat="45.78246755207368" lon="10.053065728275136"><ele>182.0</ele><time>2026-04-27T07:23:04.004Z</time></trkpt><trkpt lat="45.78250351863024" lon="10.053208274675303"><ele>185.8</ele><time>2026-04-27T07:23:05.004Z</time></trkpt><trkpt lat="45.78254539537522" lon="10.053343619163524"><ele>189.6</ele><time>2026-04-27T07:23:06.004Z</time></trkpt><trkpt lat="45.782615361051505" lon="10.05346294582264"><ele>193.4</ele><time>2026-04-27T07:23:07.004Z</time></trkpt><trkpt lat="45.782709981772406" lon="10.053563758173459"><ele>197.20000000000002</ele><time>2026-04-27T07:23:08.004Z</time></trkpt><trkpt lat="45.782790081251875" lon="10.053649438318166"><ele>201.0</ele><time>2026-04-27T07:23:09.004Z</time></trkpt><trkpt lat="45.7828622319334" lon="10.053760055218152"><ele>204.20000000000002</ele><time>2026-04-27T07:23:10.004Z</time></trkpt><trkpt lat="45.7829042667174" lon="10.053876442495088"><ele>207.4</ele><time>2026-04-27T07:23:11.004Z</time></trkpt><trkpt lat="45.7829047856667" lon="10.054018597225987"><ele>210.6</ele><time>2026-04-27T07:23:12.004Z</time></trkpt><trkpt lat="45.782866506392146" lon="10.054162508429696"><ele>213.8</ele><time>2026-04-27T07:23:13.004Z</time></trkpt><trkpt lat="45.78282431111182" lon="10.054309355683788"><ele>217.0</ele><time>2026-04-27T07:23:14.004Z</time></trkpt><trkpt lat="45.78280713669519" lon="10.054452950416309"><ele>217.0</ele><time>2026-04-27T07:23:15.004Z</time></trkpt><trkpt lat="45.782823500157555" lon="10.05462076150489"><ele>217.0</ele><time>2026-04-27T07:23:16.004Z</time></trkpt><trkpt lat="45.78284215529328" lon="10.054753954249476"><ele>217.0</ele><time>2026-04-27T07:23:17.004Z</time></trkpt><trkpt lat="45.78289427274523" lon="10.05488429388823"><ele>217.0</ele><time>2026-04-27T07:23:18.004Z</time></trkpt><trkpt lat="45.78297901877309" lon="10.054990038866798"><ele>217.0</ele><time>2026-04-27T07:23:19.004Z</time></trkpt><trkpt lat="45.78308148642919" lon="10.055070081381702"><ele>217.0</ele><time>2026-04-27T07:23:20.004Z</time></trkpt><trkpt lat="45.783185936226076" lon="10.055087005315308"><ele>217.0</ele><time>2026-04-27T07:23:21.004Z</time></trkpt><trkpt lat="45.78329468196179" lon="10.05507734654207"><ele>217.0</ele><time>2026-04-27T07:23:22.004Z</time></trkpt><trkpt lat="45.783407231320794" lon="10.055043105747695"><ele>217.0</ele><time>2026-04-27T07:23:23.004Z</time></trkpt><trkpt lat="45.783505318110464" lon="10.054990900581581"><ele>217.0</ele><time>2026-04-27T07:23:24.004Z</time></trkpt><trkpt lat="45.78359142709618" lon="10.054914729264699"><ele>217.0</ele><time>2026-04-27T07:23:25.004Z</time></trkpt><trkpt lat="45.783675669791116" lon="10.054784747748196"><ele>217.0</ele><time>2026-04-27T07:23:26.004Z</time></trkpt><trkpt lat="45.78377663725982" lon="10.054592001852022"><ele>217.0</ele><time>2026-04-27T07:23:27.004Z</time></trkpt><trkpt lat="45.78386788297606" lon="10.054409667832365"><ele>217.0</ele><time>2026-04-27T07:23:28.004Z</time></trkpt><trkpt lat="45.783967252516554" lon="10.054236814851482"><ele>227.33333333333331</ele><time>2026-04-27T07:23:29.004Z</time></trkpt><trkpt lat="45.78407132614793" lon="10.05404510614712"><ele>237.66666666666669</ele><time>2026-04-27T07:23:30.004Z</time></trkpt><trkpt lat="45.78416318718097" lon="10.053873142664045"><ele>248.0</ele><time>2026-04-27T07:23:31.004Z</time></trkpt><trkpt lat="45.78425324434144" lon="10.053725245137905"><ele>248.0</ele><time>2026-04-27T07:23:32.004Z</time></trkpt><trkpt lat="45.784330914929846" lon="10.05358349722616"><ele>248.0</ele><time>2026-04-27T07:23:33.004Z</time></trkpt><trkpt lat="45.78441020647401" lon="10.053470154884405"><ele>248.0</ele><time>2026-04-27T07:23:34.004Z</time></trkpt><trkpt lat="45.78448501771636" lon="10.053394368469212"><ele>248.0</ele><time>2026-04-27T07:23:35.004Z</time></trkpt><trkpt lat="45.784603525512324" lon="10.053359718126906"><ele>242.0</ele><time>2026-04-27T07:23:37.004Z</time></trkpt><trkpt lat="45.784665485732795" lon="10.053443565282002"><ele>236.0</ele><time>2026-04-27T07:23:38.004Z</time></trkpt><trkpt lat="45.784758896392056" lon="10.05347040282273"><ele>230.0</ele><time>2026-04-27T07:23:39.004Z</time></trkpt><trkpt lat="45.784859390485735" lon="10.053439067405009"><ele>224.0</ele><time>2026-04-27T07:23:40.004Z</time></trkpt><trkpt lat="45.78496773010652" lon="10.053385292529828"><ele>218.0</ele><time>2026-04-27T07:23:41.004Z</time></trkpt><trkpt lat="45.785098459181974" lon="10.053305713083686"><ele>222.5</ele><time>2026-04-27T07:23:42.004Z</time></trkpt><trkpt lat="45.785222539379944" lon="10.053229038172766"><ele>227.0</ele><time>2026-04-27T07:23:43.004Z</time></trkpt><trkpt lat="45.785325227251946" lon="10.053155965463025"><ele>231.5</ele><time>2026-04-27T07:23:44.004Z</time></trkpt><trkpt lat="45.78543051972634" lon="10.053084303298602"><ele>236.0</ele><time>2026-04-27T07:23:45.004Z</time></trkpt><trkpt lat="45.78552599307602" lon="10.053000357010925"><ele>236.0</ele><time>2026-04-27T07:23:46.004Z</time></trkpt><trkpt lat="45.785620995246276" lon="10.052916816309754"><ele>236.0</ele><time>2026-04-27T07:23:47.004Z</time></trkpt><trkpt lat="45.78572352575998" lon="10.052882171292504"><ele>236.0</ele><time>2026-04-27T07:23:48.004Z</time></trkpt><trkpt lat="45.785857406946235" lon="10.052881874120818"><ele>236.0</ele><time>2026-04-27T07:23:49.004Z</time></trkpt><trkpt lat="45.78598707992051" lon="10.052895215979158"><ele>236.20000000000002</ele><time>2026-04-27T07:23:50.004Z</time></trkpt><trkpt lat="45.78608440422122" lon="10.052923111540796"><ele>236.40000000000003</ele><time>2026-04-27T07:23:51.004Z</time></trkpt><trkpt lat="45.78617219527831" lon="10.052984246266725"><ele>236.6</ele><time>2026-04-27T07:23:52.004Z</time></trkpt><trkpt lat="45.78627032101733" lon="10.053039148999884"><ele>236.8</ele><time>2026-04-27T07:23:53.004Z</time></trkpt><trkpt lat="45.78637360061841" lon="10.053098933613708"><ele>237.0</ele><time>2026-04-27T07:23:54.004Z</time></trkpt><trkpt lat="45.786498496985885" lon="10.053151596722893"><ele>237.0</ele><time>2026-04-27T07:23:55.004Z</time></trkpt><trkpt lat="45.78664216671583" lon="10.053200296323013"><ele>237.0</ele><time>2026-04-27T07:23:56.004Z</time></trkpt><trkpt lat="45.786806037031795" lon="10.053235151335095"><ele>237.0</ele><time>2026-04-27T07:23:57.004Z</time></trkpt><trkpt lat="45.786953304508444" lon="10.053263789393121"><ele>243.33333333333331</ele><time>2026-04-27T07:23:58.004Z</time></trkpt><trkpt lat="45.78711151644273" lon="10.053235498818951"><ele>249.66666666666666</ele><time>2026-04-27T07:23:59.004Z</time></trkpt><trkpt lat="45.78726976663169" lon="10.05326305764624"><ele>256.0</ele><time>2026-04-27T07:24:00.004Z</time></trkpt><trkpt lat="45.787433936514255" lon="10.053272129044082"><ele>248.75</ele><time>2026-04-27T07:24:01.004Z</time></trkpt><trkpt lat="45.787571739376276" lon="10.053297953681826"><ele>241.5</ele><time>2026-04-27T07:24:02.004Z</time></trkpt><trkpt lat="45.7877033894325" lon="10.0533144980711"><ele>234.25</ele><time>2026-04-27T07:24:03.004Z</time></trkpt><trkpt lat="45.78784398386987" lon="10.053370870002947"><ele>227.0</ele><time>2026-04-27T07:24:04.004Z</time></trkpt><trkpt lat="45.787982189818024" lon="10.053467131188086"><ele>227.0</ele><time>2026-04-27T07:24:05.004Z</time></trkpt><trkpt lat="45.78812221415143" lon="10.053622434594544"><ele>227.0</ele><time>2026-04-27T07:24:06.004Z</time></trkpt><trkpt lat="45.78829016912958" lon="10.053727360176772"><ele>227.0</ele><time>2026-04-27T07:24:07.004Z</time></trkpt><trkpt lat="45.78846371824165" lon="10.053866743411914"><ele>220.0</ele><time>2026-04-27T07:24:08.004Z</time></trkpt><trkpt lat="45.78864093233821" lon="10.054005343064452"><ele>213.0</ele><time>2026-04-27T07:24:09.004Z</time></trkpt><trkpt lat="45.78882354888552" lon="10.05410169902311"><ele>206.0</ele><time>2026-04-27T07:24:10.004Z</time></trkpt><trkpt lat="45.788996527298075" lon="10.054196121930834"><ele>206.0</ele><time>2026-04-27T07:24:11.004Z</time></trkpt><trkpt lat="45.78917041264352" lon="10.05425764990408"><ele>206.0</ele><time>2026-04-27T07:24:12.004Z</time></trkpt><trkpt lat="45.789352358237444" lon="10.054325328970394"><ele>206.0</ele><time>2026-04-27T07:24:13.004Z</time></trkpt><trkpt lat="45.7895172683968" lon="10.054396214739986"><ele>215.33333333333334</ele><time>2026-04-27T07:24:14.004Z</time></trkpt><trkpt lat="45.78966605255505" lon="10.054497608604228"><ele>224.66666666666669</ele><time>2026-04-27T07:24:15.004Z</time></trkpt><trkpt lat="45.789799911300264" lon="10.054654843325798"><ele>234.0</ele><time>2026-04-27T07:24:16.004Z</time></trkpt><trkpt lat="45.789926422411945" lon="10.054806546127555"><ele>234.0</ele><time>2026-04-27T07:24:17.004Z</time></trkpt><trkpt lat="45.79004103510336" lon="10.054949876571015"><ele>234.0</ele><time>2026-04-27T07:24:18.004Z</time></trkpt><trkpt lat="45.790184051166776" lon="10.055064404085005"><ele>234.0</ele><time>2026-04-27T07:24:19.004Z</time></trkpt><trkpt lat="45.79035412897875" lon="10.055166992641933"><ele>223.66666666666669</ele><time>2026-04-27T07:24:20.004Z</time></trkpt><trkpt lat="45.79052902010277" lon="10.055256832852825"><ele>213.33333333333334</ele><time>2026-04-27T07:24:21.004Z</time></trkpt><trkpt lat="45.79070382437426" lon="10.055331518596235"><ele>203.0</ele><time>2026-04-27T07:24:22.004Z</time></trkpt><trkpt lat="45.79085723965004" lon="10.055415138953538"><ele>206.33333333333334</ele><time>2026-04-27T07:24:23.004Z</time></trkpt><trkpt lat="45.791009251480816" lon="10.055517186211638"><ele>209.66666666666669</ele><time>2026-04-27T07:24:24.004Z</time></trkpt><trkpt lat="45.79116766092906" lon="10.055592374174726"><ele>213.0</ele><time>2026-04-27T07:24:25.004Z</time></trkpt><trkpt lat="45.79133403199241" lon="10.055650737053599"><ele>213.0</ele><time>2026-04-27T07:24:26.004Z</time></trkpt><trkpt lat="45.791501145876396" lon="10.05566372681476"><ele>213.0</ele><time>2026-04-27T07:24:27.004Z</time></trkpt><trkpt lat="45.791679157105456" lon="10.055659091711005"><ele>213.0</ele><time>2026-04-27T07:24:28.004Z</time></trkpt><trkpt lat="45.791868144940864" lon="10.055640430644422"><ele>217.33333333333331</ele><time>2026-04-27T07:24:29.004Z</time></trkpt><trkpt lat="45.79204764203923" lon="10.055619728320302"><ele>221.66666666666666</ele><time>2026-04-27T07:24:30.004Z</time></trkpt><trkpt lat="45.79221658920574" lon="10.055600174140505"><ele>226.0</ele><time>2026-04-27T07:24:31.004Z</time></trkpt><trkpt lat="45.79236837196192" lon="10.055600191552859"><ele>226.0</ele><time>2026-04-27T07:24:32.004Z</time></trkpt><trkpt lat="45.79251661023653" lon="10.055621187240847"><ele>226.0</ele><time>2026-04-27T07:24:33.004Z</time></trkpt><trkpt lat="45.79266043060027" lon="10.055668994264527"><ele>226.0</ele><time>2026-04-27T07:24:34.004Z</time></trkpt><trkpt lat="45.79280470384436" lon="10.05572920228535"><ele>226.0</ele><time>2026-04-27T07:24:35.004Z</time></trkpt><trkpt lat="45.79295340730976" lon="10.055856378046682"><ele>222.66666666666666</ele><time>2026-04-27T07:24:36.004Z</time></trkpt><trkpt lat="45.79310985579547" lon="10.05602431344115"><ele>219.33333333333331</ele><time>2026-04-27T07:24:37.004Z</time></trkpt><trkpt lat="45.793279738774295" lon="10.056198198097043"><ele>216.0</ele><time>2026-04-27T07:24:38.004Z</time></trkpt><trkpt lat="45.79329748566109" lon="10.05654721232603"><ele>209.0</ele><time>2026-04-27T07:24:39.004Z</time></trkpt><trkpt lat="45.79343018808426" lon="10.05675590323283"><ele>202.0</ele><time>2026-04-27T07:24:40.004Z</time></trkpt><trkpt lat="45.793556840849234" lon="10.05696496148791"><ele>195.0</ele><time>2026-04-27T07:24:41.004Z</time></trkpt><trkpt lat="45.79367126022221" lon="10.05715533481077"><ele>202.33333333333331</ele><time>2026-04-27T07:24:42.004Z</time></trkpt><trkpt lat="45.79377923556143" lon="10.057357023324139"><ele>209.66666666666666</ele><time>2026-04-27T07:24:43.004Z</time></trkpt><trkpt lat="45.7938699361418" lon="10.057549138858946"><ele>217.0</ele><time>2026-04-27T07:24:44.004Z</time></trkpt><trkpt lat="45.793950768074424" lon="10.057722789807995"><ele>217.0</ele><time>2026-04-27T07:24:45.004Z</time></trkpt><trkpt lat="45.794046118742045" lon="10.057924372997062"><ele>217.0</ele><time>2026-04-27T07:24:46.004Z</time></trkpt><trkpt lat="45.794153363760984" lon="10.058133134135739"><ele>217.0</ele><time>2026-04-27T07:24:47.004Z</time></trkpt><trkpt lat="45.794248243430836" lon="10.058297694484256"><ele>217.0</ele><time>2026-04-27T07:24:48.004Z</time></trkpt><trkpt lat="45.79432128991491" lon="10.058413175704764"><ele>217.0</ele><time>2026-04-27T07:24:49.004Z</time></trkpt><trkpt lat="45.79438232463691" lon="10.05850047011121"><ele>217.0</ele><time>2026-04-27T07:24:50.005Z</time></trkpt><trkpt lat="45.79444708059949" lon="10.05857530287865"><ele>217.0</ele><time>2026-04-27T07:24:51.004Z</time></trkpt><trkpt lat="45.7945390806858" lon="10.058629115118073"><ele>217.0</ele><time>2026-04-27T07:24:52.004Z</time></trkpt><trkpt lat="45.79464774432315" lon="10.058573799853649"><ele>217.0</ele><time>2026-04-27T07:24:53.004Z</time></trkpt><trkpt lat="45.79477671088568" lon="10.05857568271014"><ele>217.0</ele><time>2026-04-27T07:24:54.004Z</time></trkpt><trkpt lat="45.79492294327578" lon="10.058536213955163"><ele>217.0</ele><time>2026-04-27T07:24:55.004Z</time></trkpt><trkpt lat="45.79506827048736" lon="10.05844783593815"><ele>217.0</ele><time>2026-04-27T07:24:56.005Z</time></trkpt><trkpt lat="45.795152480763804" lon="10.058389421040399"><ele>219.8</ele><time>2026-04-27T07:24:57.004Z</time></trkpt><trkpt lat="45.795255492848035" lon="10.05833819388261"><ele>222.6</ele><time>2026-04-27T07:24:58.004Z</time></trkpt><trkpt lat="45.79535331802755" lon="10.058340946161358"><ele>225.40000000000003</ele><time>2026-04-27T07:24:59.004Z</time></trkpt><trkpt lat="45.7954695507745" lon="10.05836145698912"><ele>228.20000000000002</ele><time>2026-04-27T07:25:00.004Z</time></trkpt><trkpt lat="45.7955400923819" lon="10.058413127623776"><ele>231.0</ele><time>2026-04-27T07:25:01.004Z</time></trkpt><trkpt lat="45.795624053490776" lon="10.05850741210372"><ele>231.0</ele><time>2026-04-27T07:25:02.004Z</time></trkpt><trkpt lat="45.79575496480038" lon="10.05859513442647"><ele>231.0</ele><time>2026-04-27T07:25:03.004Z</time></trkpt><trkpt lat="45.795895683014756" lon="10.058642720649972"><ele>231.0</ele><time>2026-04-27T07:25:04.004Z</time></trkpt><trkpt lat="45.796050017618676" lon="10.058643583485386"><ele>231.0</ele><time>2026-04-27T07:25:05.004Z</time></trkpt><trkpt lat="45.79618607914387" lon="10.058667777274128"><ele>237.5</ele><time>2026-04-27T07:25:06.004Z</time></trkpt><trkpt lat="45.79633437457458" lon="10.058712568181601"><ele>244.0</ele><time>2026-04-27T07:25:07.004Z</time></trkpt><trkpt lat="45.79649161464612" lon="10.058747725859472"><ele>250.5</ele><time>2026-04-27T07:25:08.004Z</time></trkpt><trkpt lat="45.79662443948146" lon="10.058772931361217"><ele>257.0</ele><time>2026-04-27T07:25:09.004Z</time></trkpt><trkpt lat="45.79676375876721" lon="10.058809846863413"><ele>263.2</ele><time>2026-04-27T07:25:10.004Z</time></trkpt><trkpt lat="45.796856474147084" lon="10.058841860917822"><ele>269.4</ele><time>2026-04-27T07:25:11.004Z</time></trkpt><trkpt lat="45.79692201133665" lon="10.058868995385264"><ele>275.6</ele><time>2026-04-27T07:25:12.004Z</time></trkpt><trkpt lat="45.796994219206404" lon="10.058913969625934"><ele>281.8</ele><time>2026-04-27T07:25:13.004Z</time></trkpt><trkpt lat="45.79710275559608" lon="10.058939132666696"><ele>288.0</ele><time>2026-04-27T07:25:14.004Z</time></trkpt><trkpt lat="45.7972283093184" lon="10.058815515606701"><ele>288.0</ele><time>2026-04-27T07:25:15.004Z</time></trkpt><trkpt lat="45.797273126720164" lon="10.058722489706636"><ele>288.0</ele><time>2026-04-27T07:25:16.004Z</time></trkpt><trkpt lat="45.79735926614774" lon="10.058626973107373"><ele>288.0</ele><time>2026-04-27T07:25:17.004Z</time></trkpt><trkpt lat="45.79746191557914" lon="10.058512852353191"><ele>288.0</ele><time>2026-04-27T07:25:18.004Z</time></trkpt><trkpt lat="45.79753824226733" lon="10.058430428574486"><ele>288.0</ele><time>2026-04-27T07:25:19.004Z</time></trkpt><trkpt lat="45.7976455646724" lon="10.058347830422706"><ele>307.5</ele><time>2026-04-27T07:25:20.004Z</time></trkpt><trkpt lat="45.797761601325035" lon="10.058221604041377"><ele>327.0</ele><time>2026-04-27T07:25:21.004Z</time></trkpt><trkpt lat="45.797869791922224" lon="10.058202891638672"><ele>346.5</ele><time>2026-04-27T07:25:22.004Z</time></trkpt><trkpt lat="45.797966167990026" lon="10.05810653017249"><ele>366.0</ele><time>2026-04-27T07:25:23.004Z</time></trkpt><trkpt lat="45.798072293938816" lon="10.058066464916841"><ele>366.0</ele><time>2026-04-27T07:25:24.004Z</time></trkpt><trkpt lat="45.79818736503711" lon="10.058025404509948"><ele>366.0</ele><time>2026-04-27T07:25:25.004Z</time></trkpt><trkpt lat="45.79831542086399" lon="10.05797964337916"><ele>366.0</ele><time>2026-04-27T07:25:26.004Z</time></trkpt><trkpt lat="45.79845382565629" lon="10.057930181453147"><ele>366.0</ele><time>2026-04-27T07:25:27.004Z</time></trkpt><trkpt lat="45.79858753256073" lon="10.057866806628322"><ele>366.0</ele><time>2026-04-27T07:25:28.004Z</time></trkpt><trkpt lat="45.79871660320247" lon="10.057747833978272"><ele>366.0</ele><time>2026-04-27T07:25:29.004Z</time></trkpt><trkpt lat="45.79884299131034" lon="10.057644483954723"><ele>366.0</ele><time>2026-04-27T07:25:30.004Z</time></trkpt><trkpt lat="45.798994077697486" lon="10.057524442703027"><ele>375.33333333333337</ele><time>2026-04-27T07:25:31.004Z</time></trkpt><trkpt lat="45.799136687391595" lon="10.057421144088188"><ele>384.6666666666667</ele><time>2026-04-27T07:25:32.004Z</time></trkpt><trkpt lat="45.79928562243554" lon="10.05731354082212"><ele>394.0</ele><time>2026-04-27T07:25:33.004Z</time></trkpt><trkpt lat="45.79941739471303" lon="10.057193902845531"><ele>394.0</ele><time>2026-04-27T07:25:34.004Z</time></trkpt><trkpt lat="45.7995987574192" lon="10.057056346021202"><ele>394.0</ele><time>2026-04-27T07:25:35.004Z</time></trkpt><trkpt lat="45.79972950531334" lon="10.05694847894544"><ele>394.0</ele><time>2026-04-27T07:25:36.004Z</time></trkpt><trkpt lat="45.79988904026621" lon="10.05681762501727"><ele>394.0</ele><time>2026-04-27T07:25:37.004Z</time></trkpt><trkpt lat="45.8000517814606" lon="10.05673830855301"><ele>394.0</ele><time>2026-04-27T07:25:38.004Z</time></trkpt><trkpt lat="45.80022692961579" lon="10.056741850524325"><ele>394.0</ele><time>2026-04-27T07:25:39.004Z</time></trkpt><trkpt lat="45.80037220568901" lon="10.056751487687716"><ele>387.33333333333337</ele><time>2026-04-27T07:25:40.004Z</time></trkpt><trkpt lat="45.800520929817736" lon="10.056756275304524"><ele>380.6666666666667</ele><time>2026-04-27T07:25:41.004Z</time></trkpt><trkpt lat="45.80068174659272" lon="10.056756939799799"><ele>374.0</ele><time>2026-04-27T07:25:42.004Z</time></trkpt><trkpt lat="45.80084011817344" lon="10.056824875106969"><ele>374.0</ele><time>2026-04-27T07:25:43.004Z</time></trkpt><trkpt lat="45.80094288202603" lon="10.056878109617466"><ele>374.0</ele><time>2026-04-27T07:25:44.004Z</time></trkpt><trkpt lat="45.80105477847381" lon="10.05692257003437"><ele>374.0</ele><time>2026-04-27T07:25:45.004Z</time></trkpt><trkpt lat="45.80116894589807" lon="10.056987793600054"><ele>374.0</ele><time>2026-04-27T07:25:46.004Z</time></trkpt><trkpt lat="45.80129097986916" lon="10.057111620514611"><ele>374.0</ele><time>2026-04-27T07:25:47.004Z</time></trkpt><trkpt lat="45.801351885505134" lon="10.057216475745404"><ele>374.0</ele><time>2026-04-27T07:25:48.004Z</time></trkpt><trkpt lat="45.801411970185754" lon="10.057314646464674"><ele>374.0</ele><time>2026-04-27T07:25:49.004Z</time></trkpt><trkpt lat="45.801488305995356" lon="10.057356926625676"><ele>374.0</ele><time>2026-04-27T07:25:50.004Z</time></trkpt><trkpt lat="45.801579676489446" lon="10.057445448306227"><ele>374.0</ele><time>2026-04-27T07:25:51.004Z</time></trkpt><trkpt lat="45.80168086193708" lon="10.057513771741782"><ele>365.5</ele><time>2026-04-27T07:25:52.004Z</time></trkpt><trkpt lat="45.801764710620034" lon="10.05763431990175"><ele>357.0</ele><time>2026-04-27T07:25:53.004Z</time></trkpt><trkpt lat="45.80181680529797" lon="10.057799058496098"><ele>348.5</ele><time>2026-04-27T07:25:54.004Z</time></trkpt><trkpt lat="45.801860048797714" lon="10.057988289638232"><ele>340.0</ele><time>2026-04-27T07:25:55.004Z</time></trkpt><trkpt lat="45.801880751513195" lon="10.058115456421483"><ele>337.0</ele><time>2026-04-27T07:25:56.004Z</time></trkpt><trkpt lat="45.80193564655411" lon="10.05826841246011"><ele>334.0</ele><time>2026-04-27T07:25:57.004Z</time></trkpt><trkpt lat="45.80197409149941" lon="10.058520201465274"><ele>331.0</ele><time>2026-04-27T07:25:58.147Z</time></trkpt><trkpt lat="45.80272342719637" lon="10.059714934993938"><ele>307.0</ele><time>2026-04-27T07:26:07.004Z</time></trkpt><trkpt lat="45.802765817970204" lon="10.059858327971362"><ele>283.0</ele><time>2026-04-27T07:26:08.004Z</time></trkpt><trkpt lat="45.80237388255828" lon="10.060329676794147"><ele>259.0</ele><time>2026-04-27T07:26:09.004Z</time></trkpt><trkpt lat="45.802245158513905" lon="10.060699289234329"><ele>235.0</ele><time>2026-04-27T07:26:10.004Z</time></trkpt><trkpt lat="45.80216312734596" lon="10.06099371435504"><ele>229.5</ele><time>2026-04-27T07:26:11.004Z</time></trkpt><trkpt lat="45.80200774814828" lon="10.061185005467209"><ele>224.0</ele><time>2026-04-27T07:26:12.004Z</time></trkpt><trkpt lat="45.801650765576376" lon="10.061206867557862"><ele>218.0</ele><time>2026-04-27T07:26:13.004Z</time></trkpt><trkpt lat="45.80166145210308" lon="10.061414254829367"><ele>212.0</ele><time>2026-04-27T07:26:14.004Z</time></trkpt><trkpt lat="45.80166976349551" lon="10.06162007194616"><ele>206.0</ele><time>2026-04-27T07:26:15.004Z</time></trkpt><trkpt lat="45.80165692803273" lon="10.061790598327514"><ele>200.0</ele><time>2026-04-27T07:26:16.004Z</time></trkpt><trkpt lat="45.80163839286004" lon="10.061966243115894"><ele>200.0</ele><time>2026-04-27T07:26:17.004Z</time></trkpt><trkpt lat="45.80168142641652" lon="10.062106512795015"><ele>200.0</ele><time>2026-04-27T07:26:18.004Z</time></trkpt><trkpt lat="45.80175982392319" lon="10.062274293833719"><ele>200.0</ele><time>2026-04-27T07:26:19.004Z</time></trkpt><trkpt lat="45.80181824944315" lon="10.062462698694313"><ele>200.0</ele><time>2026-04-27T07:26:20.004Z</time></trkpt><trkpt lat="45.80188546952004" lon="10.062621801893306"><ele>199.5</ele><time>2026-04-27T07:26:21.004Z</time></trkpt><trkpt lat="45.80190735374314" lon="10.062825196401374"><ele>199.0</ele><time>2026-04-27T07:26:22.004Z</time></trkpt><trkpt lat="45.80194055423204" lon="10.063020287310422"><ele>198.5</ele><time>2026-04-27T07:26:23.004Z</time></trkpt><trkpt lat="45.80197725233559" lon="10.063208735834525"><ele>198.0</ele><time>2026-04-27T07:26:24.004Z</time></trkpt><trkpt lat="45.80200214037942" lon="10.063371442086797"><ele>198.0</ele><time>2026-04-27T07:26:25.004Z</time></trkpt><trkpt lat="45.802010566652775" lon="10.063542710068724"><ele>198.0</ele><time>2026-04-27T07:26:26.004Z</time></trkpt><trkpt lat="45.80201263999114" lon="10.063731689734874"><ele>198.0</ele><time>2026-04-27T07:26:27.004Z</time></trkpt><trkpt lat="45.802015962340164" lon="10.063952061284706"><ele>198.0</ele><time>2026-04-27T07:26:28.004Z</time></trkpt><trkpt lat="45.80203521559878" lon="10.064164043705642"><ele>197.75</ele><time>2026-04-27T07:26:29.004Z</time></trkpt><trkpt lat="45.80203986360419" lon="10.064340555998113"><ele>197.5</ele><time>2026-04-27T07:26:30.004Z</time></trkpt><trkpt lat="45.80204064696506" lon="10.064511185073117"><ele>197.25</ele><time>2026-04-27T07:26:31.004Z</time></trkpt><trkpt lat="45.80206897303821" lon="10.06469665294616"><ele>197.0</ele><time>2026-04-27T07:26:32.004Z</time></trkpt><trkpt lat="45.80212542554508" lon="10.064887714429405"><ele>196.5</ele><time>2026-04-27T07:26:33.004Z</time></trkpt><trkpt lat="45.80218678316985" lon="10.06504271576201"><ele>196.0</ele><time>2026-04-27T07:26:34.004Z</time></trkpt><trkpt lat="45.80224910419501" lon="10.06521606878336"><ele>195.5</ele><time>2026-04-27T07:26:35.004Z</time></trkpt><trkpt lat="45.80230669243173" lon="10.06539487426153"><ele>195.0</ele><time>2026-04-27T07:26:36.004Z</time></trkpt><trkpt lat="45.80234511718665" lon="10.065559766386595"><ele>195.0</ele><time>2026-04-27T07:26:37.004Z</time></trkpt><trkpt lat="45.80236882769221" lon="10.065756296708923"><ele>195.0</ele><time>2026-04-27T07:26:38.004Z</time></trkpt><trkpt lat="45.802370769195356" lon="10.065948534760802"><ele>195.0</ele><time>2026-04-27T07:26:39.004Z</time></trkpt><trkpt lat="45.8023631328882" lon="10.066138409942463"><ele>195.0</ele><time>2026-04-27T07:26:40.004Z</time></trkpt><trkpt lat="45.80234297645792" lon="10.066340374317859"><ele>194.5</ele><time>2026-04-27T07:26:41.004Z</time></trkpt><trkpt lat="45.80232024537881" lon="10.066540198078805"><ele>194.0</ele><time>2026-04-27T07:26:42.004Z</time></trkpt><trkpt lat="45.80228958702875" lon="10.06674611934745"><ele>193.5</ele><time>2026-04-27T07:26:43.004Z</time></trkpt><trkpt lat="45.80225590163953" lon="10.066942027667363"><ele>193.0</ele><time>2026-04-27T07:26:44.004Z</time></trkpt><trkpt lat="45.80224348675808" lon="10.067116487980957"><ele>192.60000000000002</ele><time>2026-04-27T07:26:45.004Z</time></trkpt><trkpt lat="45.80224183425473" lon="10.067277038514517"><ele>192.20000000000002</ele><time>2026-04-27T07:26:46.004Z</time></trkpt><trkpt lat="45.802258203123564" lon="10.067415436337697"><ele>191.8</ele><time>2026-04-27T07:26:47.004Z</time></trkpt><trkpt lat="45.80227552901744" lon="10.067546090894762"><ele>191.4</ele><time>2026-04-27T07:26:48.004Z</time></trkpt><trkpt lat="45.80229081000115" lon="10.067653839653916"><ele>191.0</ele><time>2026-04-27T07:26:49.004Z</time></trkpt><trkpt lat="45.80228227832133" lon="10.067754238756148"><ele>191.0</ele><time>2026-04-27T07:26:50.004Z</time></trkpt><trkpt lat="45.802311640384794" lon="10.067922323177577"><ele>191.0</ele><time>2026-04-27T07:26:52.004Z</time></trkpt><trkpt lat="45.8023831717831" lon="10.067939354411573"><ele>191.0</ele><time>2026-04-27T07:26:53.004Z</time></trkpt><trkpt lat="45.802454124906305" lon="10.06788780456442"><ele>191.0</ele><time>2026-04-27T07:26:54.004Z</time></trkpt><trkpt lat="45.80255314101476" lon="10.067830885613832"><ele>191.0</ele><time>2026-04-27T07:26:55.004Z</time></trkpt><trkpt lat="45.80266887474825" lon="10.067796127076386"><ele>191.0</ele><time>2026-04-27T07:26:56.004Z</time></trkpt><trkpt lat="45.80281585158647" lon="10.067751326240016"><ele>191.0</ele><time>2026-04-27T07:26:57.004Z</time></trkpt><trkpt lat="45.80297479889347" lon="10.06770334388661"><ele>191.0</ele><time>2026-04-27T07:26:58.004Z</time></trkpt><trkpt lat="45.80312303715204" lon="10.06764575946606"><ele>191.0</ele><time>2026-04-27T07:26:59.005Z</time></trkpt><trkpt lat="45.80328098203616" lon="10.067603094433705"><ele>191.0</ele><time>2026-04-27T07:27:00.004Z</time></trkpt><trkpt lat="45.80345992413204" lon="10.067525150819257"><ele>191.0</ele><time>2026-04-27T07:27:01.004Z</time></trkpt><trkpt lat="45.803605620551416" lon="10.067464368303435"><ele>192.0</ele><time>2026-04-27T07:27:02.005Z</time></trkpt><trkpt lat="45.80375130998579" lon="10.067410445514595"><ele>193.0</ele><time>2026-04-27T07:27:03.004Z</time></trkpt><trkpt lat="45.80391558858717" lon="10.067391786790976"><ele>194.0</ele><time>2026-04-27T07:27:04.004Z</time></trkpt><trkpt lat="45.80404325157208" lon="10.067352059960333"><ele>195.0</ele><time>2026-04-27T07:27:05.004Z</time></trkpt><trkpt lat="45.80415141276619" lon="10.06735705018751"><ele>195.0</ele><time>2026-04-27T07:27:06.004Z</time></trkpt><trkpt lat="45.804236896045325" lon="10.067365297860848"><ele>195.0</ele><time>2026-04-27T07:27:07.004Z</time></trkpt><trkpt lat="45.80430005969748" lon="10.067361829287957"><ele>195.0</ele><time>2026-04-27T07:27:08.004Z</time></trkpt><trkpt lat="45.80441511343883" lon="10.067348779805489"><ele>195.0</ele><time>2026-04-27T07:27:10.005Z</time></trkpt><trkpt lat="45.80447978826118" lon="10.067337920943872"><ele>195.0</ele><time>2026-04-27T07:27:11.005Z</time></trkpt><trkpt lat="45.804564700696915" lon="10.067323795975106"><ele>195.0</ele><time>2026-04-27T07:27:12.005Z</time></trkpt><trkpt lat="45.80464721093415" lon="10.067307250770906"><ele>195.2</ele><time>2026-04-27T07:27:13.005Z</time></trkpt><trkpt lat="45.80473865176415" lon="10.067315093402456"><ele>195.4</ele><time>2026-04-27T07:27:14.005Z</time></trkpt><trkpt lat="45.804829702247524" lon="10.067320969178803"><ele>195.60000000000002</ele><time>2026-04-27T07:27:15.005Z</time></trkpt><trkpt lat="45.804927011206196" lon="10.067304626764638"><ele>195.8</ele><time>2026-04-27T07:27:16.005Z</time></trkpt><trkpt lat="45.80505690347064" lon="10.06729937901982"><ele>196.0</ele><time>2026-04-27T07:27:31.005Z</time></trkpt><trkpt lat="45.80512452490481" lon="10.067270888243982"><ele>196.60000000000002</ele><time>2026-04-27T07:27:32.005Z</time></trkpt><trkpt lat="45.80520368633315" lon="10.06728699743268"><ele>197.2</ele><time>2026-04-27T07:27:33.005Z</time></trkpt><trkpt lat="45.80528996931726" lon="10.067319735970026"><ele>197.8</ele><time>2026-04-27T07:27:34.005Z</time></trkpt><trkpt lat="45.80541181191376" lon="10.067346348208355"><ele>198.39999999999998</ele><time>2026-04-27T07:27:35.005Z</time></trkpt><trkpt lat="45.80554636244826" lon="10.06737230863783"><ele>199.0</ele><time>2026-04-27T07:27:36.005Z</time></trkpt><trkpt lat="45.80568194071252" lon="10.067374478113864"><ele>199.0</ele><time>2026-04-27T07:27:37.005Z</time></trkpt><trkpt lat="45.805814033911766" lon="10.067392019079831"><ele>199.0</ele><time>2026-04-27T07:27:38.005Z</time></trkpt><trkpt lat="45.80594630288394" lon="10.067434128301882"><ele>199.0</ele><time>2026-04-27T07:27:39.005Z</time></trkpt><trkpt lat="45.80609054154709" lon="10.067472070145397"><ele>199.0</ele><time>2026-04-27T07:27:40.005Z</time></trkpt><trkpt lat="45.80624367698561" lon="10.06752260483904"><ele>198.33333333333331</ele><time>2026-04-27T07:27:41.005Z</time></trkpt><trkpt lat="45.80640025657642" lon="10.067569233779816"><ele>197.66666666666669</ele><time>2026-04-27T07:27:42.005Z</time></trkpt><trkpt lat="45.80656137409623" lon="10.06760935426865"><ele>197.0</ele><time>2026-04-27T07:27:43.005Z</time></trkpt><trkpt lat="45.806717144259956" lon="10.067646889759096"><ele>198.5</ele><time>2026-04-27T07:27:44.005Z</time></trkpt><trkpt lat="45.806859377716066" lon="10.067682876697724"><ele>200.0</ele><time>2026-04-27T07:27:45.005Z</time></trkpt><trkpt lat="45.806994279067155" lon="10.067715015721825"><ele>201.5</ele><time>2026-04-27T07:27:46.005Z</time></trkpt><trkpt lat="45.80713001739811" lon="10.067756111153841"><ele>203.0</ele><time>2026-04-27T07:27:47.005Z</time></trkpt><trkpt lat="45.80727400780854" lon="10.06778730901757"><ele>203.0</ele><time>2026-04-27T07:27:48.005Z</time></trkpt><trkpt lat="45.80741316578085" lon="10.067823767923755"><ele>203.0</ele><time>2026-04-27T07:27:49.005Z</time></trkpt><trkpt lat="45.80755286709504" lon="10.067861221843685"><ele>203.0</ele><time>2026-04-27T07:27:50.005Z</time></trkpt><trkpt lat="45.80769455907736" lon="10.067904319434342"><ele>203.0</ele><time>2026-04-27T07:27:51.005Z</time></trkpt><trkpt lat="45.807843928741924" lon="10.06794714131618"><ele>205.25</ele><time>2026-04-27T07:27:52.005Z</time></trkpt><trkpt lat="45.807991638464706" lon="10.067993072344054"><ele>207.5</ele><time>2026-04-27T07:27:53.005Z</time></trkpt><trkpt lat="45.808134910970445" lon="10.06804156824884"><ele>209.75</ele><time>2026-04-27T07:27:54.005Z</time></trkpt><trkpt lat="45.808279095113996" lon="10.068083282863562"><ele>212.0</ele><time>2026-04-27T07:27:55.005Z</time></trkpt><trkpt lat="45.808427084821425" lon="10.068128440054798"><ele>214.75</ele><time>2026-04-27T07:27:56.005Z</time></trkpt><trkpt lat="45.808567985864975" lon="10.068165425793156"><ele>217.5</ele><time>2026-04-27T07:27:57.005Z</time></trkpt><trkpt lat="45.80870030807824" lon="10.068200481358796"><ele>220.25</ele><time>2026-04-27T07:27:58.005Z</time></trkpt><trkpt lat="45.808796235380356" lon="10.06824924788223"><ele>223.0</ele><time>2026-04-27T07:27:59.005Z</time></trkpt><trkpt lat="45.80888824375066" lon="10.068292235868858"><ele>220.83333333333331</ele><time>2026-04-27T07:28:00.005Z</time></trkpt><trkpt lat="45.80897774821314" lon="10.068331275398673"><ele>218.66666666666666</ele><time>2026-04-27T07:28:01.005Z</time></trkpt><trkpt lat="45.809068976463465" lon="10.068372071039171"><ele>216.5</ele><time>2026-04-27T07:28:03.005Z</time></trkpt><trkpt lat="45.80914390888333" lon="10.068391553869269"><ele>214.33333333333331</ele><time>2026-04-27T07:28:04.005Z</time></trkpt><trkpt lat="45.809236775128916" lon="10.068415623195014"><ele>212.16666666666666</ele><time>2026-04-27T07:28:05.005Z</time></trkpt><trkpt lat="45.80931715223806" lon="10.068437437655604"><ele>210.0</ele><time>2026-04-27T07:28:06.005Z</time></trkpt><trkpt lat="45.809397356100504" lon="10.068454899791352"><ele>210.0</ele><time>2026-04-27T07:28:07.005Z</time></trkpt><trkpt lat="45.809468725292" lon="10.06847044654584"><ele>210.0</ele><time>2026-04-27T07:28:08.005Z</time></trkpt><trkpt lat="45.80953434828921" lon="10.06847615677739"><ele>210.0</ele><time>2026-04-27T07:28:09.005Z</time></trkpt><trkpt lat="45.80959764803808" lon="10.068474600351388"><ele>210.0</ele><time>2026-04-27T07:28:11.005Z</time></trkpt><trkpt lat="45.809759770954344" lon="10.068483439338136"><ele>210.0</ele><time>2026-04-27T07:29:33.005Z</time></trkpt><trkpt lat="45.809821413688475" lon="10.068505642462842"><ele>210.0</ele><time>2026-04-27T07:29:34.005Z</time></trkpt><trkpt lat="45.80989555248553" lon="10.068617446898676"><ele>210.0</ele><time>2026-04-27T07:29:35.005Z</time></trkpt><trkpt lat="45.80996152622891" lon="10.068706060897462"><ele>210.0</ele><time>2026-04-27T07:29:36.005Z</time></trkpt><trkpt lat="45.81004274638166" lon="10.06883175295748"><ele>210.0</ele><time>2026-04-27T07:29:37.005Z</time></trkpt><trkpt lat="45.810111051341956" lon="10.068965418053324"><ele>210.0</ele><time>2026-04-27T07:29:38.005Z</time></trkpt><trkpt lat="45.810160132389214" lon="10.069096186427378"><ele>210.0</ele><time>2026-04-27T07:29:39.005Z</time></trkpt><trkpt lat="45.8102063064764" lon="10.069217979366266"><ele>207.75</ele><time>2026-04-27T07:29:40.005Z</time></trkpt><trkpt lat="45.81026335511072" lon="10.069373058293424"><ele>205.5</ele><time>2026-04-27T07:29:41.005Z</time></trkpt><trkpt lat="45.81031857680321" lon="10.06951445980263"><ele>203.25</ele><time>2026-04-27T07:29:42.005Z</time></trkpt><trkpt lat="45.81036062391886" lon="10.069682138539042"><ele>201.0</ele><time>2026-04-27T07:29:43.005Z</time></trkpt><trkpt lat="45.810377488354796" lon="10.069853143451994"><ele>199.25</ele><time>2026-04-27T07:29:44.005Z</time></trkpt><trkpt lat="45.81039335496687" lon="10.070047645031087"><ele>197.5</ele><time>2026-04-27T07:29:45.005Z</time></trkpt><trkpt lat="45.81043259949985" lon="10.070213360832451"><ele>195.75</ele><time>2026-04-27T07:29:46.005Z</time></trkpt><trkpt lat="45.81050145671682" lon="10.070347248324994"><ele>194.0</ele><time>2026-04-27T07:29:47.005Z</time></trkpt><trkpt lat="45.81060359006996" lon="10.070469646162083"><ele>194.0</ele><time>2026-04-27T07:29:48.005Z</time></trkpt><trkpt lat="45.81068195146137" lon="10.070547395477089"><ele>194.0</ele><time>2026-04-27T07:29:49.005Z</time></trkpt><trkpt lat="45.81077366059248" lon="10.070578414870534"><ele>194.0</ele><time>2026-04-27T07:29:50.005Z</time></trkpt><trkpt lat="45.81091242627175" lon="10.070596220067298"><ele>194.0</ele><time>2026-04-27T07:29:51.005Z</time></trkpt><trkpt lat="45.811038244050785" lon="10.070635238389107"><ele>195.0</ele><time>2026-04-27T07:29:52.005Z</time></trkpt><trkpt lat="45.8111548213115" lon="10.07069270801042"><ele>196.0</ele><time>2026-04-27T07:29:53.005Z</time></trkpt><trkpt lat="45.81127705076807" lon="10.070757041486512"><ele>197.0</ele><time>2026-04-27T07:29:54.005Z</time></trkpt><trkpt lat="45.81139301029138" lon="10.070817203776265"><ele>198.0</ele><time>2026-04-27T07:29:55.005Z</time></trkpt><trkpt lat="45.81150682298013" lon="10.070882051812715"><ele>197.8</ele><time>2026-04-27T07:29:56.005Z</time></trkpt><trkpt lat="45.81161357271942" lon="10.070939932837673"><ele>197.60000000000002</ele><time>2026-04-27T07:29:57.005Z</time></trkpt><trkpt lat="45.81171541413369" lon="10.070996318402232"><ele>197.39999999999998</ele><time>2026-04-27T07:29:58.005Z</time></trkpt><trkpt lat="45.81181293304108" lon="10.07104606552369"><ele>197.2</ele><time>2026-04-27T07:29:59.005Z</time></trkpt><trkpt lat="45.81189375313792" lon="10.071109394952284"><ele>197.0</ele><time>2026-04-27T07:30:00.005Z</time></trkpt><trkpt lat="45.81198116171589" lon="10.071171984756731"><ele>197.0</ele><time>2026-04-27T07:30:01.005Z</time></trkpt><trkpt lat="45.81207590748152" lon="10.071219347420659"><ele>197.0</ele><time>2026-04-27T07:30:02.005Z</time></trkpt><trkpt lat="45.81217556508386" lon="10.07126917054178"><ele>197.0</ele><time>2026-04-27T07:30:03.005Z</time></trkpt><trkpt lat="45.81226668680379" lon="10.071310626270206"><ele>197.0</ele><time>2026-04-27T07:30:04.005Z</time></trkpt><trkpt lat="45.81235987694391" lon="10.071367014198833"><ele>197.0</ele><time>2026-04-27T07:30:05.005Z</time></trkpt><trkpt lat="45.8124235880328" lon="10.071429363468264"><ele>197.0</ele><time>2026-04-27T07:30:08.005Z</time></trkpt><trkpt lat="45.812550067125805" lon="10.071488655661947"><ele>197.0</ele><time>2026-04-27T07:30:10.005Z</time></trkpt><trkpt lat="45.81264375417843" lon="10.071560347841846"><ele>197.0</ele><time>2026-04-27T07:30:11.005Z</time></trkpt><trkpt lat="45.81276209343936" lon="10.071607596816502"><ele>197.0</ele><time>2026-04-27T07:30:12.005Z</time></trkpt><trkpt lat="45.812876422448284" lon="10.07170256869886"><ele>195.33333333333334</ele><time>2026-04-27T07:30:13.005Z</time></trkpt><trkpt lat="45.81299596628405" lon="10.071749932265748"><ele>193.66666666666669</ele><time>2026-04-27T07:30:14.005Z</time></trkpt><trkpt lat="45.81309448693324" lon="10.07185866283317"><ele>192.0</ele><time>2026-04-27T07:30:15.005Z</time></trkpt><trkpt lat="45.813432714041966" lon="10.072060303885786"><ele>193.75</ele><time>2026-04-27T07:30:18.005Z</time></trkpt><trkpt lat="45.81354838807473" lon="10.072130012273695"><ele>195.5</ele><time>2026-04-27T07:30:19.005Z</time></trkpt><trkpt lat="45.81367406514208" lon="10.07219786359325"><ele>197.25</ele><time>2026-04-27T07:30:20.005Z</time></trkpt><trkpt lat="45.81379499163252" lon="10.07227039612728"><ele>199.0</ele><time>2026-04-27T07:30:21.005Z</time></trkpt><trkpt lat="45.8139210041188" lon="10.072347311758596"><ele>199.0</ele><time>2026-04-27T07:30:22.005Z</time></trkpt><trkpt lat="45.814036983283984" lon="10.07241584621094"><ele>199.0</ele><time>2026-04-27T07:30:23.005Z</time></trkpt><trkpt lat="45.8141449607068" lon="10.072487624592949"><ele>199.0</ele><time>2026-04-27T07:30:24.005Z</time></trkpt><trkpt lat="45.81424757821762" lon="10.072583211134061"><ele>199.0</ele><time>2026-04-27T07:30:25.005Z</time></trkpt><trkpt lat="45.8143445057715" lon="10.072688023532633"><ele>198.5</ele><time>2026-04-27T07:30:26.005Z</time></trkpt><trkpt lat="45.814439633110204" lon="10.07280953577935"><ele>198.0</ele><time>2026-04-27T07:30:27.005Z</time></trkpt><trkpt lat="45.81451647065396" lon="10.072956009305033"><ele>197.5</ele><time>2026-04-27T07:30:28.005Z</time></trkpt><trkpt lat="45.81457577898823" lon="10.073108366302618"><ele>197.0</ele><time>2026-04-27T07:30:29.005Z</time></trkpt><trkpt lat="45.81464288818377" lon="10.073265863746876"><ele>196.0</ele><time>2026-04-27T07:30:30.005Z</time></trkpt><trkpt lat="45.81470793358153" lon="10.073389684486102"><ele>195.0</ele><time>2026-04-27T07:30:31.005Z</time></trkpt><trkpt lat="45.814778276682894" lon="10.073493015783757"><ele>194.0</ele><time>2026-04-27T07:30:32.005Z</time></trkpt><trkpt lat="45.81485795693119" lon="10.073590625282224"><ele>193.0</ele><time>2026-04-27T07:30:33.005Z</time></trkpt><trkpt lat="45.814957912459" lon="10.073646376143518"><ele>192.0</ele><time>2026-04-27T07:30:34.005Z</time></trkpt><trkpt lat="45.815068341135074" lon="10.073702414838829"><ele>194.16666666666666</ele><time>2026-04-27T07:30:35.005Z</time></trkpt><trkpt lat="45.815168391791744" lon="10.073744974793199"><ele>196.33333333333331</ele><time>2026-04-27T07:30:36.005Z</time></trkpt><trkpt lat="45.81524335914043" lon="10.073785625743417"><ele>198.5</ele><time>2026-04-27T07:30:37.005Z</time></trkpt><trkpt lat="45.81533425404045" lon="10.073869086089617"><ele>200.66666666666666</ele><time>2026-04-27T07:30:39.005Z</time></trkpt><trkpt lat="45.81539971663186" lon="10.073938722791482"><ele>202.83333333333331</ele><time>2026-04-27T07:30:41.005Z</time></trkpt><trkpt lat="45.81545568707087" lon="10.073999250081512"><ele>205.0</ele><time>2026-04-27T07:30:43.005Z</time></trkpt><trkpt lat="45.8155109451114" lon="10.07405107489744"><ele>203.83333333333331</ele><time>2026-04-27T07:30:45.005Z</time></trkpt><trkpt lat="45.815582693597435" lon="10.07412921903098"><ele>202.66666666666666</ele><time>2026-04-27T07:30:47.005Z</time></trkpt><trkpt lat="45.81567235961702" lon="10.07422892897472"><ele>201.5</ele><time>2026-04-27T07:30:49.005Z</time></trkpt><trkpt lat="45.81572883781476" lon="10.07427759136997"><ele>200.33333333333331</ele><time>2026-04-27T07:30:50.005Z</time></trkpt><trkpt lat="45.815789290637795" lon="10.074341124837149"><ele>199.16666666666666</ele><time>2026-04-27T07:30:51.005Z</time></trkpt><trkpt lat="45.815850330785096" lon="10.074406160269254"><ele>198.0</ele><time>2026-04-27T07:30:52.005Z</time></trkpt><trkpt lat="45.815914192130684" lon="10.074483188285987"><ele>198.0</ele><time>2026-04-27T07:30:53.005Z</time></trkpt><trkpt lat="45.81598285112605" lon="10.074560573126705"><ele>198.0</ele><time>2026-04-27T07:30:54.005Z</time></trkpt><trkpt lat="45.81603822103138" lon="10.074696547557423"><ele>198.0</ele><time>2026-04-27T07:30:55.005Z</time></trkpt><trkpt lat="45.81612510000671" lon="10.074769230668265"><ele>198.0</ele><time>2026-04-27T07:30:56.005Z</time></trkpt><trkpt lat="45.81622283576749" lon="10.074836292251366"><ele>198.0</ele><time>2026-04-27T07:30:57.005Z</time></trkpt><trkpt lat="45.81632200947506" lon="10.074894668262408"><ele>198.0</ele><time>2026-04-27T07:30:58.005Z</time></trkpt><trkpt lat="45.81642389120674" lon="10.074957497847308"><ele>198.0</ele><time>2026-04-27T07:30:59.005Z</time></trkpt><trkpt lat="45.81652422724687" lon="10.075048815593936"><ele>198.0</ele><time>2026-04-27T07:31:00.005Z</time></trkpt><trkpt lat="45.816613518524036" lon="10.075143438026862"><ele>198.0</ele><time>2026-04-27T07:31:01.005Z</time></trkpt><trkpt lat="45.8166952006821" lon="10.075253140756514"><ele>198.0</ele><time>2026-04-27T07:31:02.005Z</time></trkpt><trkpt lat="45.81676159730394" lon="10.075374059762629"><ele>198.0</ele><time>2026-04-27T07:31:03.005Z</time></trkpt><trkpt lat="45.81681664842463" lon="10.07549680741807"><ele>198.0</ele><time>2026-04-27T07:31:04.005Z</time></trkpt><trkpt lat="45.816878894652305" lon="10.075616976349583"><ele>198.0</ele><time>2026-04-27T07:31:05.005Z</time></trkpt><trkpt lat="45.81694133889419" lon="10.075739070175246"><ele>198.0</ele><time>2026-04-27T07:31:06.005Z</time></trkpt><trkpt lat="45.81699622725905" lon="10.075851105573847"><ele>197.8</ele><time>2026-04-27T07:31:07.005Z</time></trkpt><trkpt lat="45.81706454465216" lon="10.07595565295072"><ele>197.60000000000002</ele><time>2026-04-27T07:31:08.005Z</time></trkpt><trkpt lat="45.817132526242624" lon="10.07605895969837"><ele>197.39999999999998</ele><time>2026-04-27T07:31:09.005Z</time></trkpt><trkpt lat="45.81719697747902" lon="10.076151327834536"><ele>197.2</ele><time>2026-04-27T07:31:10.005Z</time></trkpt><trkpt lat="45.817263862078526" lon="10.07623480083604"><ele>197.0</ele><time>2026-04-27T07:31:11.006Z</time></trkpt><trkpt lat="45.81733514213015" lon="10.076321987745567"><ele>197.0</ele><time>2026-04-27T07:31:12.005Z</time></trkpt><trkpt lat="45.81740504071074" lon="10.0764063142849"><ele>197.0</ele><time>2026-04-27T07:31:13.005Z</time></trkpt><trkpt lat="45.81747467027827" lon="10.076500090215417"><ele>197.0</ele><time>2026-04-27T07:31:14.005Z</time></trkpt><trkpt lat="45.81753967345831" lon="10.07659156165196"><ele>197.0</ele><time>2026-04-27T07:31:15.005Z</time></trkpt><trkpt lat="45.81760846881325" lon="10.076686334118273"><ele>197.0</ele><time>2026-04-27T07:31:16.005Z</time></trkpt><trkpt lat="45.81767794372452" lon="10.076773708677461"><ele>197.00000000000003</ele><time>2026-04-27T07:31:17.005Z</time></trkpt><trkpt lat="45.817743897652534" lon="10.07685159600883"><ele>197.0</ele><time>2026-04-27T07:31:18.005Z</time></trkpt><trkpt lat="45.817805302297636" lon="10.076932385541424"><ele>197.0</ele><time>2026-04-27T07:31:19.005Z</time></trkpt><trkpt lat="45.81786528412174" lon="10.077018270292763"><ele>197.0</ele><time>2026-04-27T07:31:20.005Z</time></trkpt><trkpt lat="45.81792502989767" lon="10.077112557378065"><ele>197.00000000000003</ele><time>2026-04-27T07:31:21.005Z</time></trkpt><trkpt lat="45.817949890641934" lon="10.077236739212358"><ele>197.0</ele><time>2026-04-27T07:31:22.005Z</time></trkpt><trkpt lat="45.817998792530865" lon="10.07733722271222"><ele>196.50000000000003</ele><time>2026-04-27T07:31:23.005Z</time></trkpt><trkpt lat="45.818050750783335" lon="10.07744833231028"><ele>196.0</ele><time>2026-04-27T07:31:24.005Z</time></trkpt><trkpt lat="45.818102087100684" lon="10.077565783428964"><ele>195.5</ele><time>2026-04-27T07:31:25.005Z</time></trkpt><trkpt lat="45.81813733741327" lon="10.077669851815068"><ele>195.0</ele><time>2026-04-27T07:31:26.005Z</time></trkpt><trkpt lat="45.81816813981658" lon="10.077772033380125"><ele>194.50000000000003</ele><time>2026-04-27T07:31:27.005Z</time></trkpt><trkpt lat="45.81820290302934" lon="10.077867445955384"><ele>194.0</ele><time>2026-04-27T07:31:28.005Z</time></trkpt><trkpt lat="45.818246829415095" lon="10.077997349071424"><ele>194.0</ele><time>2026-04-27T07:31:30.005Z</time></trkpt><trkpt lat="45.81829176678267" lon="10.078105759956664"><ele>194.0</ele><time>2026-04-27T07:31:34.005Z</time></trkpt><trkpt lat="45.81833820907638" lon="10.078250667707955"><ele>194.0</ele><time>2026-04-27T07:31:36.005Z</time></trkpt><trkpt lat="45.818368211154926" lon="10.078359390841353"><ele>194.0</ele><time>2026-04-27T07:31:37.005Z</time></trkpt><trkpt lat="45.81840110971321" lon="10.07847214411287"><ele>194.0</ele><time>2026-04-27T07:31:38.005Z</time></trkpt><trkpt lat="45.81845026054327" lon="10.07859330663691"><ele>194.5</ele><time>2026-04-27T07:31:39.005Z</time></trkpt><trkpt lat="45.8185155142429" lon="10.078717197301977"><ele>195.0</ele><time>2026-04-27T07:31:40.005Z</time></trkpt><trkpt lat="45.818602302221194" lon="10.078830683437818"><ele>195.5</ele><time>2026-04-27T07:31:41.005Z</time></trkpt><trkpt lat="45.81869842128674" lon="10.078926724433895"><ele>196.0</ele><time>2026-04-27T07:31:42.005Z</time></trkpt><trkpt lat="45.81879309531582" lon="10.079006588574156"><ele>196.0</ele><time>2026-04-27T07:31:43.005Z</time></trkpt><trkpt lat="45.81889216818566" lon="10.079088711179926"><ele>196.0</ele><time>2026-04-27T07:31:44.005Z</time></trkpt><trkpt lat="45.81898928111184" lon="10.079155949659018"><ele>196.0</ele><time>2026-04-27T07:31:45.005Z</time></trkpt><trkpt lat="45.819077478678395" lon="10.079216393072572"><ele>196.0</ele><time>2026-04-27T07:31:46.005Z</time></trkpt><trkpt lat="45.81917127117024" lon="10.07928278694773"><ele>196.0</ele><time>2026-04-27T07:31:47.005Z</time></trkpt><trkpt lat="45.819253416541144" lon="10.079334070633026"><ele>195.4</ele><time>2026-04-27T07:31:48.005Z</time></trkpt><trkpt lat="45.81933711076363" lon="10.079379747343395"><ele>194.8</ele><time>2026-04-27T07:31:49.005Z</time></trkpt><trkpt lat="45.81941494522194" lon="10.079417572735009"><ele>194.20000000000002</ele><time>2026-04-27T07:31:50.005Z</time></trkpt><trkpt lat="45.81951741775213" lon="10.079453328177424"><ele>193.60000000000002</ele><time>2026-04-27T07:31:52.005Z</time></trkpt><trkpt lat="45.81962380901355" lon="10.079497415930694"><ele>193.0</ele><time>2026-04-27T07:31:54.005Z</time></trkpt><trkpt lat="45.819697497676884" lon="10.079516835537834"><ele>193.0</ele><time>2026-04-27T07:31:55.005Z</time></trkpt><trkpt lat="45.81978705776765" lon="10.0795699678895"><ele>193.0</ele><time>2026-04-27T07:31:56.005Z</time></trkpt><trkpt lat="45.81988369212065" lon="10.079597559167459"><ele>193.0</ele><time>2026-04-27T07:31:57.005Z</time></trkpt><trkpt lat="45.82000371992726" lon="10.079623725995347"><ele>193.0</ele><time>2026-04-27T07:31:58.005Z</time></trkpt><trkpt lat="45.820119075904834" lon="10.07963956156515"><ele>193.0</ele><time>2026-04-27T07:31:59.005Z</time></trkpt><trkpt lat="45.820231909186774" lon="10.079650214750382"><ele>193.2</ele><time>2026-04-27T07:32:00.005Z</time></trkpt><trkpt lat="45.82033201696299" lon="10.079635618359873"><ele>193.4</ele><time>2026-04-27T07:32:01.005Z</time></trkpt><trkpt lat="45.82043312759323" lon="10.079681661058878"><ele>193.6</ele><time>2026-04-27T07:32:02.005Z</time></trkpt><trkpt lat="45.820537307016316" lon="10.079685716962269"><ele>193.79999999999998</ele><time>2026-04-27T07:32:03.005Z</time></trkpt><trkpt lat="45.82063824664249" lon="10.07969111612284"><ele>194.0</ele><time>2026-04-27T07:32:04.005Z</time></trkpt><trkpt lat="45.82074803485151" lon="10.079703272932429"><ele>194.00000000000003</ele><time>2026-04-27T07:32:05.005Z</time></trkpt><trkpt lat="45.82084811255319" lon="10.07972684836788"><ele>194.0</ele><time>2026-04-27T07:32:06.005Z</time></trkpt><trkpt lat="45.82092930513745" lon="10.07974723747817"><ele>194.0</ele><time>2026-04-27T07:32:07.005Z</time></trkpt><trkpt lat="45.82100729973486" lon="10.07977760619209"><ele>194.0</ele><time>2026-04-27T07:32:08.005Z</time></trkpt><trkpt lat="45.82109391989232" lon="10.079823547757647"><ele>194.00000000000003</ele><time>2026-04-27T07:32:09.005Z</time></trkpt><trkpt lat="45.821160219939294" lon="10.07986745566437"><ele>194.0</ele><time>2026-04-27T07:32:10.005Z</time></trkpt><trkpt lat="45.82122390791796" lon="10.079926349198027"><ele>194.83333333333334</ele><time>2026-04-27T07:32:12.005Z</time></trkpt><trkpt lat="45.82130740758389" lon="10.07998066917966"><ele>195.66666666666669</ele><time>2026-04-27T07:32:16.005Z</time></trkpt><trkpt lat="45.821392298291926" lon="10.080075041623966"><ele>196.5</ele><time>2026-04-27T07:32:18.005Z</time></trkpt><trkpt lat="45.82143881022642" lon="10.080153992114194"><ele>197.33333333333331</ele><time>2026-04-27T07:32:19.005Z</time></trkpt><trkpt lat="45.82148741356704" lon="10.08023526566733"><ele>198.16666666666666</ele><time>2026-04-27T07:32:20.005Z</time></trkpt><trkpt lat="45.821536967228134" lon="10.0803256990226"><ele>199.0</ele><time>2026-04-27T07:32:21.005Z</time></trkpt><trkpt lat="45.82158283811868" lon="10.08042818978003"><ele>199.0</ele><time>2026-04-27T07:32:22.005Z</time></trkpt><trkpt lat="45.82162856557733" lon="10.080553178068639"><ele>199.0</ele><time>2026-04-27T07:32:23.005Z</time></trkpt><trkpt lat="45.82167877976667" lon="10.08069980405408"><ele>199.0</ele><time>2026-04-27T07:32:24.005Z</time></trkpt><trkpt lat="45.82172803427197" lon="10.080858512284026"><ele>199.0</ele><time>2026-04-27T07:32:25.005Z</time></trkpt><trkpt lat="45.82178072345435" lon="10.081027249099876"><ele>201.0</ele><time>2026-04-27T07:32:26.005Z</time></trkpt><trkpt lat="45.8218215834432" lon="10.081203272335443"><ele>203.0</ele><time>2026-04-27T07:32:27.005Z</time></trkpt><trkpt lat="45.8218516656955" lon="10.081392156757245"><ele>205.0</ele><time>2026-04-27T07:32:28.005Z</time></trkpt><trkpt lat="45.8218743316132" lon="10.081580930840806"><ele>207.0</ele><time>2026-04-27T07:32:29.005Z</time></trkpt><trkpt lat="45.821892658581" lon="10.08177426169655"><ele>207.0</ele><time>2026-04-27T07:32:30.005Z</time></trkpt><trkpt lat="45.821889127861226" lon="10.081972537000864"><ele>207.0</ele><time>2026-04-27T07:32:31.005Z</time></trkpt><trkpt lat="45.82187887053955" lon="10.082167998529524"><ele>207.0</ele><time>2026-04-27T07:32:32.005Z</time></trkpt><trkpt lat="45.8218784492139" lon="10.082358252011593"><ele>207.0</ele><time>2026-04-27T07:32:33.005Z</time></trkpt><trkpt lat="45.82188241014671" lon="10.082523817423734"><ele>205.25</ele><time>2026-04-27T07:32:34.005Z</time></trkpt><trkpt lat="45.82191205832827" lon="10.082682783475379"><ele>203.5</ele><time>2026-04-27T07:32:35.005Z</time></trkpt><trkpt lat="45.821961030625246" lon="10.082826666833352"><ele>201.75</ele><time>2026-04-27T07:32:36.005Z</time></trkpt><trkpt lat="45.822025188982366" lon="10.082961786123558"><ele>200.0</ele><time>2026-04-27T07:32:37.005Z</time></trkpt><trkpt lat="45.822097582465375" lon="10.08311011298337"><ele>200.0</ele><time>2026-04-27T07:32:38.005Z</time></trkpt><trkpt lat="45.822186774755494" lon="10.08325585904609"><ele>200.0</ele><time>2026-04-27T07:32:39.005Z</time></trkpt><trkpt lat="45.822287429867366" lon="10.083398083467658"><ele>200.0</ele><time>2026-04-27T07:32:40.005Z</time></trkpt><trkpt lat="45.82238840092184" lon="10.083548084227704"><ele>200.0</ele><time>2026-04-27T07:32:41.005Z</time></trkpt><trkpt lat="45.822483445256516" lon="10.083684530534846"><ele>199.75</ele><time>2026-04-27T07:32:42.005Z</time></trkpt><trkpt lat="45.82255588520732" lon="10.083807448678604"><ele>199.5</ele><time>2026-04-27T07:32:43.005Z</time></trkpt><trkpt lat="45.822624917160375" lon="10.083926554120534"><ele>199.25</ele><time>2026-04-27T07:32:44.005Z</time></trkpt><trkpt lat="45.82271161767346" lon="10.084050487433776"><ele>199.0</ele><time>2026-04-27T07:32:45.005Z</time></trkpt><trkpt lat="45.822792552446" lon="10.08418796717114"><ele>203.25</ele><time>2026-04-27T07:32:46.005Z</time></trkpt><trkpt lat="45.82287536199232" lon="10.08433168394076"><ele>207.5</ele><time>2026-04-27T07:32:47.005Z</time></trkpt><trkpt lat="45.822955010946735" lon="10.084480133494083"><ele>211.75</ele><time>2026-04-27T07:32:48.005Z</time></trkpt><trkpt lat="45.82304153869448" lon="10.084630257103472"><ele>216.0</ele><time>2026-04-27T07:32:49.005Z</time></trkpt><trkpt lat="45.82313198375832" lon="10.084777493789892"><ele>216.0</ele><time>2026-04-27T07:32:50.005Z</time></trkpt><trkpt lat="45.82322461706708" lon="10.08490548371926"><ele>216.0</ele><time>2026-04-27T07:32:51.005Z</time></trkpt><trkpt lat="45.82332998740281" lon="10.085017485690464"><ele>216.0</ele><time>2026-04-27T07:32:52.005Z</time></trkpt><trkpt lat="45.82343358386428" lon="10.085117003609714"><ele>216.0</ele><time>2026-04-27T07:32:53.005Z</time></trkpt><trkpt lat="45.823534511344675" lon="10.085225840172551"><ele>218.5</ele><time>2026-04-27T07:32:54.005Z</time></trkpt><trkpt lat="45.82364212828773" lon="10.085348166841769"><ele>221.0</ele><time>2026-04-27T07:32:55.005Z</time></trkpt><trkpt lat="45.82374686201137" lon="10.085481499892849"><ele>223.5</ele><time>2026-04-27T07:32:56.005Z</time></trkpt><trkpt lat="45.82383614459348" lon="10.085623036061294"><ele>226.0</ele><time>2026-04-27T07:32:57.005Z</time></trkpt><trkpt lat="45.82391195602087" lon="10.085794450614276"><ele>221.8</ele><time>2026-04-27T07:32:58.005Z</time></trkpt><trkpt lat="45.8239682228155" lon="10.085923380200366"><ele>217.60000000000002</ele><time>2026-04-27T07:32:59.005Z</time></trkpt><trkpt lat="45.82401357802017" lon="10.086045378203096"><ele>213.4</ele><time>2026-04-27T07:33:00.005Z</time></trkpt><trkpt lat="45.82406984335044" lon="10.086189031694014"><ele>209.2</ele><time>2026-04-27T07:33:01.005Z</time></trkpt><trkpt lat="45.824124117004395" lon="10.086333500247699"><ele>205.0</ele><time>2026-04-27T07:33:02.005Z</time></trkpt><trkpt lat="45.82417407861775" lon="10.08648109334404"><ele>206.8</ele><time>2026-04-27T07:33:03.005Z</time></trkpt><trkpt lat="45.824222137589594" lon="10.086626463212374"><ele>208.6</ele><time>2026-04-27T07:33:04.005Z</time></trkpt><trkpt lat="45.82425684830098" lon="10.086747241488144"><ele>210.39999999999998</ele><time>2026-04-27T07:33:05.005Z</time></trkpt><trkpt lat="45.82429488991618" lon="10.08686052430006"><ele>212.2</ele><time>2026-04-27T07:33:06.005Z</time></trkpt><trkpt lat="45.82432692729101" lon="10.086975425856087"><ele>214.0</ele><time>2026-04-27T07:33:07.005Z</time></trkpt><trkpt lat="45.82435375577384" lon="10.0870980974572"><ele>214.0</ele><time>2026-04-27T07:33:08.005Z</time></trkpt><trkpt lat="45.824377127461034" lon="10.0872164932517"><ele>213.99999999999997</ele><time>2026-04-27T07:33:09.005Z</time></trkpt><trkpt lat="45.82440379595869" lon="10.087344317624511"><ele>213.99999999999997</ele><time>2026-04-27T07:33:10.005Z</time></trkpt><trkpt lat="45.82443101628555" lon="10.087489020241717"><ele>214.0</ele><time>2026-04-27T07:33:11.005Z</time></trkpt><trkpt lat="45.82445432114273" lon="10.087644408649119"><ele>214.0</ele><time>2026-04-27T07:33:12.005Z</time></trkpt><trkpt lat="45.82447530125517" lon="10.087808737368297"><ele>211.79999999999998</ele><time>2026-04-27T07:33:13.005Z</time></trkpt><trkpt lat="45.82449597939093" lon="10.08795897514143"><ele>209.59999999999997</ele><time>2026-04-27T07:33:14.006Z</time></trkpt><trkpt lat="45.824517986197264" lon="10.088096262817565"><ele>207.4</ele><time>2026-04-27T07:33:15.005Z</time></trkpt><trkpt lat="45.82453542993037" lon="10.088234061673333"><ele>205.2</ele><time>2026-04-27T07:33:16.005Z</time></trkpt><trkpt lat="45.824552259872924" lon="10.088368663564912"><ele>203.0</ele><time>2026-04-27T07:33:17.005Z</time></trkpt><trkpt lat="45.82457252664476" lon="10.088504598991753"><ele>201.4</ele><time>2026-04-27T07:33:18.005Z</time></trkpt><trkpt lat="45.82459330178129" lon="10.088638375172943"><ele>199.8</ele><time>2026-04-27T07:33:19.005Z</time></trkpt><trkpt lat="45.824614351259804" lon="10.088777339932575"><ele>198.2</ele><time>2026-04-27T07:33:20.005Z</time></trkpt><trkpt lat="45.824637689326615" lon="10.088917817998306"><ele>196.6</ele><time>2026-04-27T07:33:21.006Z</time></trkpt><trkpt lat="45.82466083670006" lon="10.089060847329366"><ele>195.0</ele><time>2026-04-27T07:33:22.006Z</time></trkpt><trkpt lat="45.82468950809525" lon="10.089205559010916"><ele>195.0</ele><time>2026-04-27T07:33:23.005Z</time></trkpt><trkpt lat="45.82471519128566" lon="10.089350269700626"><ele>195.0</ele><time>2026-04-27T07:33:24.005Z</time></trkpt><trkpt lat="45.82473861437705" lon="10.089490262708557"><ele>195.0</ele><time>2026-04-27T07:33:25.005Z</time></trkpt><trkpt lat="45.824762311865705" lon="10.089621763186633"><ele>195.0</ele><time>2026-04-27T07:33:26.005Z</time></trkpt><trkpt lat="45.8247908803261" lon="10.089756838782552"><ele>195.0</ele><time>2026-04-27T07:33:27.005Z</time></trkpt><trkpt lat="45.824817684203204" lon="10.089887800444519"><ele>194.8</ele><time>2026-04-27T07:33:28.005Z</time></trkpt><trkpt lat="45.824847389856764" lon="10.090011433652752"><ele>194.6</ele><time>2026-04-27T07:33:29.005Z</time></trkpt><trkpt lat="45.82488657822657" lon="10.090135442131073"><ele>194.39999999999998</ele><time>2026-04-27T07:33:30.005Z</time></trkpt><trkpt lat="45.8249324878113" lon="10.090254153006688"><ele>194.2</ele><time>2026-04-27T07:33:31.005Z</time></trkpt><trkpt lat="45.82498657150478" lon="10.090368642240897"><ele>194.0</ele><time>2026-04-27T07:33:32.005Z</time></trkpt><trkpt lat="45.82503651966521" lon="10.09046421818527"><ele>194.0</ele><time>2026-04-27T07:33:33.005Z</time></trkpt><trkpt lat="45.8250910937893" lon="10.090555142813713"><ele>194.0</ele><time>2026-04-27T07:33:34.005Z</time></trkpt><trkpt lat="45.825146354192064" lon="10.090648382410727"><ele>194.0</ele><time>2026-04-27T07:33:35.005Z</time></trkpt><trkpt lat="45.825220276523254" lon="10.090755821141432"><ele>194.0</ele><time>2026-04-27T07:33:36.005Z</time></trkpt><trkpt lat="45.82530206683801" lon="10.090898680876728"><ele>194.0</ele><time>2026-04-27T07:33:37.005Z</time></trkpt><trkpt lat="45.825410910343514" lon="10.091061316109844"><ele>197.66666666666669</ele><time>2026-04-27T07:33:38.005Z</time></trkpt><trkpt lat="45.825524399127154" lon="10.091230891906864"><ele>201.33333333333331</ele><time>2026-04-27T07:33:39.005Z</time></trkpt><trkpt lat="45.8256403488194" lon="10.09140512393627"><ele>205.0</ele><time>2026-04-27T07:33:40.005Z</time></trkpt><trkpt lat="45.825746612909306" lon="10.091531970668377"><ele>207.6</ele><time>2026-04-27T07:33:41.005Z</time></trkpt><trkpt lat="45.825824719759694" lon="10.09166359450998"><ele>210.2</ele><time>2026-04-27T07:33:42.005Z</time></trkpt><trkpt lat="45.825862644136905" lon="10.09181776177031"><ele>212.8</ele><time>2026-04-27T07:33:43.005Z</time></trkpt><trkpt lat="45.82592118647062" lon="10.091919460479204"><ele>215.4</ele><time>2026-04-27T07:33:44.005Z</time></trkpt><trkpt lat="45.82599139094463" lon="10.092036020008676"><ele>218.0</ele><time>2026-04-27T07:33:45.005Z</time></trkpt><trkpt lat="45.82606208733436" lon="10.092160204480418"><ele>218.0</ele><time>2026-04-27T07:33:46.005Z</time></trkpt><trkpt lat="45.82612289976741" lon="10.092268542296967"><ele>218.0</ele><time>2026-04-27T07:33:47.005Z</time></trkpt><trkpt lat="45.82618000246468" lon="10.092397853898705"><ele>218.0</ele><time>2026-04-27T07:33:48.005Z</time></trkpt><trkpt lat="45.82622520421713" lon="10.092539513885322"><ele>218.0</ele><time>2026-04-27T07:33:49.005Z</time></trkpt><trkpt lat="45.826263572159675" lon="10.09267602276916"><ele>218.0</ele><time>2026-04-27T07:33:50.005Z</time></trkpt><trkpt lat="45.82629746487587" lon="10.092795013931294"><ele>216.33333333333334</ele><time>2026-04-27T07:33:51.005Z</time></trkpt><trkpt lat="45.826332113248775" lon="10.092904896955249"><ele>214.66666666666669</ele><time>2026-04-27T07:33:52.005Z</time></trkpt><trkpt lat="45.826359764734896" lon="10.093005855578143"><ele>213.0</ele><time>2026-04-27T07:33:53.005Z</time></trkpt><trkpt lat="45.826395175977225" lon="10.093128916687709"><ele>211.33333333333331</ele><time>2026-04-27T07:33:54.005Z</time></trkpt><trkpt lat="45.82643008724843" lon="10.093253283892555"><ele>209.66666666666666</ele><time>2026-04-27T07:33:55.005Z</time></trkpt><trkpt lat="45.82646168946696" lon="10.093373974555561"><ele>208.0</ele><time>2026-04-27T07:33:56.005Z</time></trkpt><trkpt lat="45.8264909548589" lon="10.09349003367132"><ele>206.33333333333331</ele><time>2026-04-27T07:33:57.005Z</time></trkpt><trkpt lat="45.82651090439605" lon="10.093600922369076"><ele>204.66666666666666</ele><time>2026-04-27T07:33:58.005Z</time></trkpt><trkpt lat="45.826546465772275" lon="10.09372036698748"><ele>203.0</ele><time>2026-04-27T07:33:59.005Z</time></trkpt><trkpt lat="45.82655433279485" lon="10.093843327387072"><ele>201.33333333333331</ele><time>2026-04-27T07:34:00.005Z</time></trkpt><trkpt lat="45.82656355022511" lon="10.093951031772734"><ele>199.66666666666666</ele><time>2026-04-27T07:34:01.005Z</time></trkpt><trkpt lat="45.82657332560208" lon="10.094090689748391"><ele>198.0</ele><time>2026-04-27T07:34:02.005Z</time></trkpt><trkpt lat="45.826584895716564" lon="10.094273467496064"><ele>197.0</ele><time>2026-04-27T07:34:03.005Z</time></trkpt><trkpt lat="45.82656026533376" lon="10.094468344008677"><ele>196.0</ele><time>2026-04-27T07:34:04.005Z</time></trkpt><trkpt lat="45.826565147920476" lon="10.094633963984794"><ele>195.0</ele><time>2026-04-27T07:34:05.005Z</time></trkpt><trkpt lat="45.82656551013238" lon="10.094787136710439"><ele>194.0</ele><time>2026-04-27T07:34:06.005Z</time></trkpt><trkpt lat="45.82656203324896" lon="10.094925531264836"><ele>193.66666666666669</ele><time>2026-04-27T07:34:07.005Z</time></trkpt><trkpt lat="45.826557445964994" lon="10.095066113316507"><ele>193.33333333333334</ele><time>2026-04-27T07:34:08.005Z</time></trkpt><trkpt lat="45.82654409878717" lon="10.09517941420585"><ele>193.0</ele><time>2026-04-27T07:34:09.005Z</time></trkpt><trkpt lat="45.82651484857145" lon="10.095265126487927"><ele>192.66666666666669</ele><time>2026-04-27T07:34:10.005Z</time></trkpt><trkpt lat="45.82647220403145" lon="10.095334556203824"><ele>192.33333333333334</ele><time>2026-04-27T07:34:11.005Z</time></trkpt><trkpt lat="45.826431000619664" lon="10.095461590633857"><ele>192.0</ele><time>2026-04-27T07:34:13.005Z</time></trkpt><trkpt lat="45.82645302036115" lon="10.09554934157738"><ele>192.0</ele><time>2026-04-27T07:34:14.005Z</time></trkpt><trkpt lat="45.82650270465404" lon="10.095706787719731"><ele>192.0</ele><time>2026-04-27T07:34:16.005Z</time></trkpt><trkpt lat="45.826523006884074" lon="10.095860610458034"><ele>192.0</ele><time>2026-04-27T07:34:18.005Z</time></trkpt><trkpt lat="45.82652944354994" lon="10.096000928282411"><ele>192.0</ele><time>2026-04-27T07:34:20.005Z</time></trkpt><trkpt lat="45.826533588652936" lon="10.096155857799602"><ele>192.0</ele><time>2026-04-27T07:34:22.005Z</time></trkpt><trkpt lat="45.82654760415171" lon="10.096287078032008"><ele>192.16666666666666</ele><time>2026-04-27T07:34:24.005Z</time></trkpt><trkpt lat="45.82655377938402" lon="10.096406175122041"><ele>192.33333333333331</ele><time>2026-04-27T07:34:26.005Z</time></trkpt><trkpt lat="45.826554921962455" lon="10.096570489150459"><ele>192.5</ele><time>2026-04-27T07:34:33.005Z</time></trkpt><trkpt lat="45.826554339246016" lon="10.096695573574479"><ele>192.66666666666666</ele><time>2026-04-27T07:34:36.005Z</time></trkpt><trkpt lat="45.82656008556149" lon="10.096787020785284"><ele>192.83333333333331</ele><time>2026-04-27T07:34:38.005Z</time></trkpt><trkpt lat="45.82656190864212" lon="10.096912307917743"><ele>193.0</ele><time>2026-04-27T07:34:40.005Z</time></trkpt><trkpt lat="45.82657136166747" lon="10.097003681244045"><ele>192.99999999999997</ele><time>2026-04-27T07:34:42.005Z</time></trkpt><trkpt lat="45.8265630296745" lon="10.097121690927311"><ele>193.0</ele><time>2026-04-27T07:34:45.005Z</time></trkpt><trkpt lat="45.82656150994468" lon="10.097226568063306"><ele>193.0</ele><time>2026-04-27T07:34:47.005Z</time></trkpt><trkpt lat="45.826561805383896" lon="10.097348603416268"><ele>193.0</ele><time>2026-04-27T07:34:49.005Z</time></trkpt><trkpt lat="45.82657898015836" lon="10.097483572211978"><ele>192.99999999999997</ele><time>2026-04-27T07:34:51.005Z</time></trkpt><trkpt lat="45.82661160570973" lon="10.097628809542087"><ele>193.0</ele><time>2026-04-27T07:34:53.005Z</time></trkpt><trkpt lat="45.82665674698182" lon="10.097806741350993"><ele>193.2</ele><time>2026-04-27T07:34:55.005Z</time></trkpt><trkpt lat="45.82666095959052" lon="10.09790585148608"><ele>193.4</ele><time>2026-04-27T07:34:56.005Z</time></trkpt><trkpt lat="45.82669168876694" lon="10.098053494817892"><ele>193.6</ele><time>2026-04-27T07:34:58.005Z</time></trkpt><trkpt lat="45.82672302345596" lon="10.098202374946448"><ele>193.79999999999998</ele><time>2026-04-27T07:35:00.005Z</time></trkpt><trkpt lat="45.826771640114515" lon="10.098353129736326"><ele>194.0</ele><time>2026-04-27T07:35:02.005Z</time></trkpt><trkpt lat="45.82678027587218" lon="10.09849548098044"><ele>194.50000000000003</ele><time>2026-04-27T07:35:04.005Z</time></trkpt><trkpt lat="45.82680620605117" lon="10.098618465179518"><ele>195.0</ele><time>2026-04-27T07:35:06.005Z</time></trkpt><trkpt lat="45.82683804347562" lon="10.09870523997937"><ele>195.5</ele><time>2026-04-27T07:35:07.005Z</time></trkpt><trkpt lat="45.82687523802004" lon="10.098808323704844"><ele>196.0</ele><time>2026-04-27T07:35:08.005Z</time></trkpt><trkpt lat="45.826908261756174" lon="10.098915922330603"><ele>196.50000000000003</ele><time>2026-04-27T07:35:09.005Z</time></trkpt><trkpt lat="45.8269330186923" lon="10.099013441301851"><ele>197.0</ele><time>2026-04-27T07:35:10.005Z</time></trkpt><trkpt lat="45.82695993509044" lon="10.099109970341487"><ele>197.16666666666669</ele><time>2026-04-27T07:35:11.005Z</time></trkpt><trkpt lat="45.82698455187987" lon="10.09922042149599"><ele>197.33333333333334</ele><time>2026-04-27T07:35:12.005Z</time></trkpt><trkpt lat="45.82700383673486" lon="10.099326946041918"><ele>197.5</ele><time>2026-04-27T07:35:13.005Z</time></trkpt><trkpt lat="45.82702680183985" lon="10.099418180465822"><ele>197.66666666666669</ele><time>2026-04-27T07:35:14.005Z</time></trkpt><trkpt lat="45.82705606702042" lon="10.099513894634853"><ele>197.83333333333334</ele><time>2026-04-27T07:35:15.005Z</time></trkpt><trkpt lat="45.82708950649359" lon="10.099617211125135"><ele>198.0</ele><time>2026-04-27T07:35:16.005Z</time></trkpt><trkpt lat="45.82712452698942" lon="10.099724759059166"><ele>198.0</ele><time>2026-04-27T07:35:17.005Z</time></trkpt><trkpt lat="45.82716597453191" lon="10.09983631018083"><ele>198.0</ele><time>2026-04-27T07:35:18.005Z</time></trkpt><trkpt lat="45.82721489239535" lon="10.0999506333686"><ele>198.0</ele><time>2026-04-27T07:35:19.005Z</time></trkpt><trkpt lat="45.82725451695798" lon="10.100042512777582"><ele>198.0</ele><time>2026-04-27T07:35:20.005Z</time></trkpt><trkpt lat="45.82729003084735" lon="10.10012467315287"><ele>198.0</ele><time>2026-04-27T07:35:21.006Z</time></trkpt><trkpt lat="45.8273340255797" lon="10.10022298891869"><ele>198.0</ele><time>2026-04-27T07:35:22.006Z</time></trkpt><trkpt lat="45.82737819183471" lon="10.10032683486942"><ele>197.60000000000002</ele><time>2026-04-27T07:35:23.005Z</time></trkpt><trkpt lat="45.827436109319486" lon="10.100471512097956"><ele>197.20000000000002</ele><time>2026-04-27T07:35:24.005Z</time></trkpt><trkpt lat="45.827492953098925" lon="10.100612773931744"><ele>196.8</ele><time>2026-04-27T07:35:25.005Z</time></trkpt><trkpt lat="45.8275330180661" lon="10.100741820875962"><ele>196.4</ele><time>2026-04-27T07:35:26.005Z</time></trkpt><trkpt lat="45.8275797460811" lon="10.10084435339462"><ele>196.0</ele><time>2026-04-27T07:35:27.006Z</time></trkpt><trkpt lat="45.82762361194319" lon="10.100965697026698"><ele>196.16666666666666</ele><time>2026-04-27T07:35:28.006Z</time></trkpt><trkpt lat="45.82767972004098" lon="10.101063457644642"><ele>196.33333333333331</ele><time>2026-04-27T07:35:29.005Z</time></trkpt><trkpt lat="45.827676784245504" lon="10.101206713109045"><ele>196.5</ele><time>2026-04-27T07:35:30.005Z</time></trkpt><trkpt lat="45.827726039104995" lon="10.101326837161732"><ele>196.66666666666669</ele><time>2026-04-27T07:35:31.005Z</time></trkpt><trkpt lat="45.82776310707354" lon="10.101422346784977"><ele>196.83333333333334</ele><time>2026-04-27T07:35:32.005Z</time></trkpt><trkpt lat="45.827806862198386" lon="10.101528103676882"><ele>197.0</ele><time>2026-04-27T07:35:33.005Z</time></trkpt><trkpt lat="45.827852321696" lon="10.101634850484182"><ele>196.50000000000003</ele><time>2026-04-27T07:35:34.005Z</time></trkpt><trkpt lat="45.827897838614696" lon="10.101756266881"><ele>196.0</ele><time>2026-04-27T07:35:35.005Z</time></trkpt><trkpt lat="45.82795304751319" lon="10.101866558326298"><ele>195.5</ele><time>2026-04-27T07:35:36.005Z</time></trkpt><trkpt lat="45.82800181916394" lon="10.101948451654575"><ele>195.0</ele><time>2026-04-27T07:35:37.005Z</time></trkpt><trkpt lat="45.828052620606435" lon="10.102020705822982"><ele>194.50000000000003</ele><time>2026-04-27T07:35:38.005Z</time></trkpt><trkpt lat="45.82811225451827" lon="10.102096526664647"><ele>194.0</ele><time>2026-04-27T07:35:39.005Z</time></trkpt><trkpt lat="45.82816338923803" lon="10.102164476347372"><ele>194.0</ele><time>2026-04-27T07:35:40.005Z</time></trkpt><trkpt lat="45.82821824145016" lon="10.102228352617505"><ele>194.0</ele><time>2026-04-27T07:35:41.005Z</time></trkpt><trkpt lat="45.82830065263879" lon="10.10231042454942"><ele>194.0</ele><time>2026-04-27T07:35:43.005Z</time></trkpt><trkpt lat="45.82838078472629" lon="10.102370567177642"><ele>194.0</ele><time>2026-04-27T07:35:45.005Z</time></trkpt><trkpt lat="45.828468207737394" lon="10.102429236977102"><ele>194.0</ele><time>2026-04-27T07:35:47.005Z</time></trkpt><trkpt lat="45.82857401195751" lon="10.102484877166939"><ele>194.39999999999998</ele><time>2026-04-27T07:35:49.005Z</time></trkpt><trkpt lat="45.82870181617677" lon="10.102539930796768"><ele>194.8</ele><time>2026-04-27T07:35:51.005Z</time></trkpt><trkpt lat="45.828782933016754" lon="10.1025864707782"><ele>195.2</ele><time>2026-04-27T07:35:52.005Z</time></trkpt><trkpt lat="45.82887306146803" lon="10.102646144255031"><ele>195.60000000000002</ele><time>2026-04-27T07:35:53.005Z</time></trkpt><trkpt lat="45.82896577686926" lon="10.102709813182267"><ele>196.0</ele><time>2026-04-27T07:35:54.005Z</time></trkpt><trkpt lat="45.8290574317879" lon="10.102775683063339"><ele>195.99999999999997</ele><time>2026-04-27T07:35:55.005Z</time></trkpt><trkpt lat="45.829119804349716" lon="10.102826776882575"><ele>196.0</ele><time>2026-04-27T07:35:56.005Z</time></trkpt><trkpt lat="45.82917848000436" lon="10.102894163333804"><ele>196.0</ele><time>2026-04-27T07:35:59.005Z</time></trkpt><trkpt lat="45.82924736323074" lon="10.102999407082375"><ele>196.0</ele><time>2026-04-27T07:36:04.005Z</time></trkpt><trkpt lat="45.82928236521255" lon="10.103096003260212"><ele>195.99999999999997</ele><time>2026-04-27T07:36:05.005Z</time></trkpt><trkpt lat="45.829349757389444" lon="10.103212380024118"><ele>196.0</ele><time>2026-04-27T07:36:07.005Z</time></trkpt><trkpt lat="45.8294781012428" lon="10.103180558091172"><ele>195.8</ele><time>2026-04-27T07:36:09.005Z</time></trkpt><trkpt lat="45.82953128868063" lon="10.103098608589434"><ele>195.60000000000002</ele><time>2026-04-27T07:36:10.005Z</time></trkpt><trkpt lat="45.82960066900461" lon="10.103011021898205"><ele>195.4</ele><time>2026-04-27T07:36:11.005Z</time></trkpt><trkpt lat="45.82968636592462" lon="10.102949467093575"><ele>195.2</ele><time>2026-04-27T07:36:12.005Z</time></trkpt><trkpt lat="45.82978562346939" lon="10.102918670720719"><ele>195.0</ele><time>2026-04-27T07:36:13.005Z</time></trkpt><trkpt lat="45.8298846070703" lon="10.102887514960882"><ele>195.0</ele><time>2026-04-27T07:36:14.005Z</time></trkpt><trkpt lat="45.829947103739116" lon="10.102869685574742"><ele>195.0</ele><time>2026-04-27T07:36:15.005Z</time></trkpt><trkpt lat="45.83002714555254" lon="10.10283012023394"><ele>195.0</ele><time>2026-04-27T07:36:17.005Z</time></trkpt><trkpt lat="45.83010740669224" lon="10.102780850878352"><ele>195.0</ele><time>2026-04-27T07:36:19.005Z</time></trkpt><trkpt lat="45.83016611785398" lon="10.10273314519935"><ele>195.0</ele><time>2026-04-27T07:36:20.005Z</time></trkpt><trkpt lat="45.83025461618481" lon="10.10269211152235"><ele>195.0</ele><time>2026-04-27T07:36:21.005Z</time></trkpt><trkpt lat="45.83034599359181" lon="10.102620954349394"><ele>195.0</ele><time>2026-04-27T07:36:22.005Z</time></trkpt><trkpt lat="45.83044144301066" lon="10.102549323440408"><ele>195.0</ele><time>2026-04-27T07:36:23.005Z</time></trkpt><trkpt lat="45.830552434644275" lon="10.102466715234787"><ele>195.0</ele><time>2026-04-27T07:36:24.005Z</time></trkpt><trkpt lat="45.83064602964259" lon="10.10232658383356"><ele>195.0</ele><time>2026-04-27T07:36:25.005Z</time></trkpt><trkpt lat="45.830777681550046" lon="10.102226934635892"><ele>195.0</ele><time>2026-04-27T07:36:26.005Z</time></trkpt><trkpt lat="45.830913099086764" lon="10.102123885077049"><ele>195.0</ele><time>2026-04-27T07:36:27.005Z</time></trkpt><trkpt lat="45.831048067974585" lon="10.102026565403953"><ele>195.0</ele><time>2026-04-27T07:36:28.005Z</time></trkpt><trkpt lat="45.83120901468499" lon="10.10196550881799"><ele>195.33333333333331</ele><time>2026-04-27T07:36:29.005Z</time></trkpt><trkpt lat="45.83135132061833" lon="10.101858599660686"><ele>195.66666666666666</ele><time>2026-04-27T07:36:30.005Z</time></trkpt><trkpt lat="45.831494067131" lon="10.101747576047108"><ele>196.0</ele><time>2026-04-27T07:36:31.005Z</time></trkpt><trkpt lat="45.831630107640215" lon="10.101643918782637"><ele>195.66666666666666</ele><time>2026-04-27T07:36:32.005Z</time></trkpt><trkpt lat="45.831757622056315" lon="10.10152532212835"><ele>195.33333333333331</ele><time>2026-04-27T07:36:33.005Z</time></trkpt><trkpt lat="45.83191133546977" lon="10.101464966990259"><ele>195.0</ele><time>2026-04-27T07:36:34.005Z</time></trkpt><trkpt lat="45.832052589496335" lon="10.101382131653024"><ele>195.0</ele><time>2026-04-27T07:36:35.005Z</time></trkpt><trkpt lat="45.832197344737914" lon="10.101322052183374"><ele>195.0</ele><time>2026-04-27T07:36:36.005Z</time></trkpt><trkpt lat="45.83234896247138" lon="10.101268896305468"><ele>195.0</ele><time>2026-04-27T07:36:37.005Z</time></trkpt><trkpt lat="45.83249758844781" lon="10.101250693425616"><ele>194.66666666666669</ele><time>2026-04-27T07:36:38.005Z</time></trkpt><trkpt lat="45.832645353613074" lon="10.10126377591577"><ele>194.33333333333334</ele><time>2026-04-27T07:36:39.005Z</time></trkpt><trkpt lat="45.832795185847985" lon="10.101316457266234"><ele>194.0</ele><time>2026-04-27T07:36:40.005Z</time></trkpt><trkpt lat="45.83294593177776" lon="10.101396139030555"><ele>194.0</ele><time>2026-04-27T07:36:41.005Z</time></trkpt><trkpt lat="45.83309303150477" lon="10.101502899648143"><ele>194.0</ele><time>2026-04-27T07:36:42.005Z</time></trkpt><trkpt lat="45.83324322722701" lon="10.101609813472122"><ele>194.0</ele><time>2026-04-27T07:36:43.005Z</time></trkpt><trkpt lat="45.833393960118805" lon="10.101711313716153"><ele>194.66666666666669</ele><time>2026-04-27T07:36:44.005Z</time></trkpt><trkpt lat="45.833542447378306" lon="10.10181591771571"><ele>195.33333333333331</ele><time>2026-04-27T07:36:45.005Z</time></trkpt><trkpt lat="45.83369531873824" lon="10.101922117886652"><ele>196.0</ele><time>2026-04-27T07:36:46.005Z</time></trkpt><trkpt lat="45.833841038893986" lon="10.102032773732837"><ele>196.0</ele><time>2026-04-27T07:36:47.005Z</time></trkpt><trkpt lat="45.8339879723075" lon="10.102140492918444"><ele>196.0</ele><time>2026-04-27T07:36:48.005Z</time></trkpt><trkpt lat="45.83413167750961" lon="10.102246523792768"><ele>196.0</ele><time>2026-04-27T07:36:49.005Z</time></trkpt><trkpt lat="45.834268691602325" lon="10.102345346273966"><ele>195.25</ele><time>2026-04-27T07:36:50.005Z</time></trkpt><trkpt lat="45.83438964806528" lon="10.102430999184733"><ele>194.5</ele><time>2026-04-27T07:36:51.005Z</time></trkpt><trkpt lat="45.83451717393977" lon="10.10252328763834"><ele>193.75</ele><time>2026-04-27T07:36:52.005Z</time></trkpt><trkpt lat="45.834636269783296" lon="10.10261278683608"><ele>193.0</ele><time>2026-04-27T07:36:53.005Z</time></trkpt><trkpt lat="45.834738411928264" lon="10.102688551974257"><ele>193.0</ele><time>2026-04-27T07:36:54.005Z</time></trkpt><trkpt lat="45.83482948168934" lon="10.102783230984816"><ele>193.0</ele><time>2026-04-27T07:36:55.005Z</time></trkpt><trkpt lat="45.83494537991493" lon="10.102870049079486"><ele>193.0</ele><time>2026-04-27T07:36:56.005Z</time></trkpt><trkpt lat="45.83508332733204" lon="10.10296132465455"><ele>193.0</ele><time>2026-04-27T07:36:57.005Z</time></trkpt><trkpt lat="45.8352293781475" lon="10.103083151481538"><ele>193.33333333333331</ele><time>2026-04-27T07:36:58.005Z</time></trkpt><trkpt lat="45.83537665519266" lon="10.103247851632055"><ele>193.66666666666669</ele><time>2026-04-27T07:36:59.005Z</time></trkpt><trkpt lat="45.83550225473475" lon="10.10340980734661"><ele>194.0</ele><time>2026-04-27T07:37:00.005Z</time></trkpt><trkpt lat="45.835604478441255" lon="10.103558829369856"><ele>194.0</ele><time>2026-04-27T07:37:01.005Z</time></trkpt><trkpt lat="45.83571713453693" lon="10.103710899973947"><ele>194.0</ele><time>2026-04-27T07:37:02.005Z</time></trkpt><trkpt lat="45.835827968840796" lon="10.10387126136282"><ele>194.0</ele><time>2026-04-27T07:37:03.005Z</time></trkpt><trkpt lat="45.83594675189911" lon="10.104046189981906"><ele>196.0</ele><time>2026-04-27T07:37:04.005Z</time></trkpt><trkpt lat="45.836088492378614" lon="10.104240201703213"><ele>198.0</ele><time>2026-04-27T07:37:05.005Z</time></trkpt><trkpt lat="45.83622126950912" lon="10.104448611124644"><ele>200.0</ele><time>2026-04-27T07:37:06.005Z</time></trkpt><trkpt lat="45.83636392584871" lon="10.1046041335627"><ele>200.0</ele><time>2026-04-27T07:37:07.005Z</time></trkpt><trkpt lat="45.8364890553945" lon="10.104764136492808"><ele>200.0</ele><time>2026-04-27T07:37:08.005Z</time></trkpt><trkpt lat="45.836608260221546" lon="10.104901040898143"><ele>200.0</ele><time>2026-04-27T07:37:09.005Z</time></trkpt><trkpt lat="45.83671961726283" lon="10.105020953587777"><ele>199.0</ele><time>2026-04-27T07:37:10.005Z</time></trkpt><trkpt lat="45.836845223836" lon="10.105140515785667"><ele>198.0</ele><time>2026-04-27T07:37:11.005Z</time></trkpt><trkpt lat="45.83697008819946" lon="10.105259349703763"><ele>197.0</ele><time>2026-04-27T07:37:12.005Z</time></trkpt><trkpt lat="45.83709717887637" lon="10.105383743085204"><ele>197.0</ele><time>2026-04-27T07:37:13.005Z</time></trkpt><trkpt lat="45.837187506893976" lon="10.105538413163135"><ele>197.0</ele><time>2026-04-27T07:37:14.005Z</time></trkpt><trkpt lat="45.83729845816698" lon="10.105646790257964"><ele>197.0</ele><time>2026-04-27T07:37:15.005Z</time></trkpt><trkpt lat="45.83740892686454" lon="10.105754207046479"><ele>197.0</ele><time>2026-04-27T07:37:16.005Z</time></trkpt><trkpt lat="45.83752350283923" lon="10.105862843791238"><ele>199.25</ele><time>2026-04-27T07:37:17.005Z</time></trkpt><trkpt lat="45.83763902097672" lon="10.105970955753232"><ele>201.5</ele><time>2026-04-27T07:37:18.005Z</time></trkpt><trkpt lat="45.83776262187142" lon="10.106077229998712"><ele>203.75</ele><time>2026-04-27T07:37:19.005Z</time></trkpt><trkpt lat="45.83790235884644" lon="10.106180885393384"><ele>206.0</ele><time>2026-04-27T07:37:20.005Z</time></trkpt><trkpt lat="45.83804628770086" lon="10.106279139877392"><ele>206.0</ele><time>2026-04-27T07:37:21.005Z</time></trkpt><trkpt lat="45.838205304218114" lon="10.106369357157572"><ele>206.0</ele><time>2026-04-27T07:37:22.005Z</time></trkpt><trkpt lat="45.83837154848898" lon="10.106449927782709"><ele>206.0</ele><time>2026-04-27T07:37:23.005Z</time></trkpt><trkpt lat="45.83853246675139" lon="10.106519832350356"><ele>205.25</ele><time>2026-04-27T07:37:24.005Z</time></trkpt><trkpt lat="45.83868115174984" lon="10.10657581176549"><ele>204.5</ele><time>2026-04-27T07:37:25.005Z</time></trkpt><trkpt lat="45.838808794966255" lon="10.106619928338121"><ele>203.75</ele><time>2026-04-27T07:37:26.006Z</time></trkpt><trkpt lat="45.838925229795414" lon="10.106675565309454"><ele>203.0</ele><time>2026-04-27T07:37:27.005Z</time></trkpt><trkpt lat="45.839029328195785" lon="10.106734247416636"><ele>203.0</ele><time>2026-04-27T07:37:28.005Z</time></trkpt><trkpt lat="45.83912299193727" lon="10.106809176568294"><ele>203.0</ele><time>2026-04-27T07:37:29.005Z</time></trkpt><trkpt lat="45.83922223513294" lon="10.106911547563335"><ele>203.0</ele><time>2026-04-27T07:37:30.005Z</time></trkpt><trkpt lat="45.83929343388917" lon="10.107016072321759"><ele>203.0</ele><time>2026-04-27T07:37:31.005Z</time></trkpt><trkpt lat="45.839349177182704" lon="10.107146020624496"><ele>203.0</ele><time>2026-04-27T07:37:32.006Z</time></trkpt><trkpt lat="45.83938310821781" lon="10.107295532330303"><ele>202.60000000000002</ele><time>2026-04-27T07:37:33.006Z</time></trkpt><trkpt lat="45.83944408209271" lon="10.10740965184602"><ele>202.20000000000002</ele><time>2026-04-27T07:37:34.006Z</time></trkpt><trkpt lat="45.83951526420561" lon="10.107478564248298"><ele>201.8</ele><time>2026-04-27T07:37:35.006Z</time></trkpt><trkpt lat="45.839606010803564" lon="10.107504780227256"><ele>201.4</ele><time>2026-04-27T07:37:36.006Z</time></trkpt><trkpt lat="45.83972978328745" lon="10.107486217986521"><ele>201.0</ele><time>2026-04-27T07:37:37.006Z</time></trkpt><trkpt lat="45.83988861239896" lon="10.10745986140843"><ele>201.0</ele><time>2026-04-27T07:37:38.005Z</time></trkpt><trkpt lat="45.840012201991726" lon="10.107550492381518"><ele>201.0</ele><time>2026-04-27T07:37:39.005Z</time></trkpt><trkpt lat="45.840168953827636" lon="10.107674801107322"><ele>201.0</ele><time>2026-04-27T07:37:40.005Z</time></trkpt><trkpt lat="45.84031332188421" lon="10.107822544968002"><ele>201.0</ele><time>2026-04-27T07:37:41.005Z</time></trkpt><trkpt lat="45.84046432456594" lon="10.107984790220447"><ele>201.0</ele><time>2026-04-27T07:37:42.005Z</time></trkpt><trkpt lat="45.840617425431006" lon="10.108135262679218"><ele>201.0</ele><time>2026-04-27T07:37:43.005Z</time></trkpt><trkpt lat="45.84077833584693" lon="10.10828252886699"><ele>201.0</ele><time>2026-04-27T07:37:44.005Z</time></trkpt><trkpt lat="45.840944171313296" lon="10.108428676014006"><ele>201.0</ele><time>2026-04-27T07:37:45.005Z</time></trkpt><trkpt lat="45.8410981526123" lon="10.108575841916096"><ele>201.0</ele><time>2026-04-27T07:37:46.005Z</time></trkpt><trkpt lat="45.84123308269691" lon="10.108755623972076"><ele>200.66666666666669</ele><time>2026-04-27T07:37:47.005Z</time></trkpt><trkpt lat="45.84134931860952" lon="10.108957070295737"><ele>200.33333333333334</ele><time>2026-04-27T07:37:48.005Z</time></trkpt><trkpt lat="45.841451356274916" lon="10.109184503891585"><ele>200.0</ele><time>2026-04-27T07:37:49.005Z</time></trkpt><trkpt lat="45.84154244785954" lon="10.109409493092157"><ele>200.0</ele><time>2026-04-27T07:37:50.005Z</time></trkpt><trkpt lat="45.84161980204449" lon="10.109611101675947"><ele>200.0</ele><time>2026-04-27T07:37:51.005Z</time></trkpt><trkpt lat="45.84169711042167" lon="10.109813429157688"><ele>200.0</ele><time>2026-04-27T07:37:52.005Z</time></trkpt><trkpt lat="45.841751379893616" lon="10.110022940481274"><ele>201.0</ele><time>2026-04-27T07:37:53.005Z</time></trkpt><trkpt lat="45.84180622703695" lon="10.110242734843071"><ele>202.0</ele><time>2026-04-27T07:37:54.005Z</time></trkpt><trkpt lat="45.8418465630615" lon="10.11048164861684"><ele>203.0</ele><time>2026-04-27T07:37:55.005Z</time></trkpt><trkpt lat="45.841888020385504" lon="10.110738488627018"><ele>203.0</ele><time>2026-04-27T07:37:56.005Z</time></trkpt><trkpt lat="45.84193045174355" lon="10.110998491038842"><ele>203.0</ele><time>2026-04-27T07:37:57.005Z</time></trkpt><trkpt lat="45.84196431324779" lon="10.111254213441455"><ele>203.0</ele><time>2026-04-27T07:37:58.005Z</time></trkpt><trkpt lat="45.842001204742836" lon="10.111504653116292"><ele>201.0</ele><time>2026-04-27T07:37:59.005Z</time></trkpt><trkpt lat="45.84204400182517" lon="10.111735029142041"><ele>199.0</ele><time>2026-04-27T07:38:00.005Z</time></trkpt><trkpt lat="45.84210129971663" lon="10.111943746800602"><ele>197.0</ele><time>2026-04-27T07:38:01.005Z</time></trkpt><trkpt lat="45.842178345130115" lon="10.112154775007948"><ele>197.0</ele><time>2026-04-27T07:38:02.005Z</time></trkpt><trkpt lat="45.84226116187278" lon="10.112326971544544"><ele>197.0</ele><time>2026-04-27T07:38:03.005Z</time></trkpt><trkpt lat="45.84234658449916" lon="10.112484060194882"><ele>197.0</ele><time>2026-04-27T07:38:04.005Z</time></trkpt><trkpt lat="45.84241094938053" lon="10.112608616465767"><ele>197.0</ele><time>2026-04-27T07:38:05.005Z</time></trkpt><trkpt lat="45.84246360410432" lon="10.11268308916972"><ele>196.66666666666669</ele><time>2026-04-27T07:38:06.005Z</time></trkpt><trkpt lat="45.84251427777403" lon="10.112741448429034"><ele>196.33333333333334</ele><time>2026-04-27T07:38:08.005Z</time></trkpt><trkpt lat="45.8425675521253" lon="10.112790019949284"><ele>196.0</ele><time>2026-04-27T07:38:18.005Z</time></trkpt><trkpt lat="45.842666200469786" lon="10.112884974649955"><ele>195.66666666666669</ele><time>2026-04-27T07:38:20.005Z</time></trkpt><trkpt lat="45.8427404428385" lon="10.1129539594126"><ele>195.33333333333334</ele><time>2026-04-27T07:38:21.005Z</time></trkpt><trkpt lat="45.84282078668313" lon="10.113024779145444"><ele>195.0</ele><time>2026-04-27T07:38:22.005Z</time></trkpt><trkpt lat="45.84290521912671" lon="10.113117578345982"><ele>195.0</ele><time>2026-04-27T07:38:23.005Z</time></trkpt><trkpt lat="45.84300141150211" lon="10.113210390888112"><ele>195.0</ele><time>2026-04-27T07:38:24.005Z</time></trkpt><trkpt lat="45.843108725451295" lon="10.113316369432965"><ele>195.0</ele><time>2026-04-27T07:38:25.005Z</time></trkpt><trkpt lat="45.84322329980909" lon="10.113421718961579"><ele>195.0</ele><time>2026-04-27T07:38:26.005Z</time></trkpt><trkpt lat="45.84333603993945" lon="10.113530744482555"><ele>196.33333333333331</ele><time>2026-04-27T07:38:27.005Z</time></trkpt><trkpt lat="45.84346664607611" lon="10.113655458800059"><ele>197.66666666666666</ele><time>2026-04-27T07:38:28.005Z</time></trkpt><trkpt lat="45.843603296209544" lon="10.113788587075522"><ele>199.0</ele><time>2026-04-27T07:38:29.005Z</time></trkpt><trkpt lat="45.8437476969693" lon="10.11392621898418"><ele>199.0</ele><time>2026-04-27T07:38:30.005Z</time></trkpt><trkpt lat="45.84389349638864" lon="10.114071081596563"><ele>199.0</ele><time>2026-04-27T07:38:31.005Z</time></trkpt><trkpt lat="45.84403128547775" lon="10.114223727186689"><ele>199.0</ele><time>2026-04-27T07:38:32.005Z</time></trkpt><trkpt lat="45.84416639302394" lon="10.11438916522978"><ele>198.66666666666666</ele><time>2026-04-27T07:38:33.005Z</time></trkpt><trkpt lat="45.84427419883291" lon="10.11458030717438"><ele>198.33333333333331</ele><time>2026-04-27T07:38:34.005Z</time></trkpt><trkpt lat="45.844389396046914" lon="10.114783622775414"><ele>198.0</ele><time>2026-04-27T07:38:35.005Z</time></trkpt><trkpt lat="45.844499576477055" lon="10.114976023304623"><ele>197.0</ele><time>2026-04-27T07:38:36.005Z</time></trkpt><trkpt lat="45.844588751115914" lon="10.115195630387069"><ele>196.0</ele><time>2026-04-27T07:38:37.005Z</time></trkpt><trkpt lat="45.84469022142715" lon="10.115380853888452"><ele>195.0</ele><time>2026-04-27T07:38:38.005Z</time></trkpt><trkpt lat="45.844784039165525" lon="10.115549865440679"><ele>195.0</ele><time>2026-04-27T07:38:39.005Z</time></trkpt><trkpt lat="45.844888389054326" lon="10.115718450944613"><ele>195.0</ele><time>2026-04-27T07:38:40.005Z</time></trkpt><trkpt lat="45.84501693147899" lon="10.11587655793853"><ele>195.0</ele><time>2026-04-27T07:38:41.005Z</time></trkpt><trkpt lat="45.84516988286517" lon="10.116002184790789"><ele>195.0</ele><time>2026-04-27T07:38:42.005Z</time></trkpt><trkpt lat="45.84530844885042" lon="10.116162915952271"><ele>195.0</ele><time>2026-04-27T07:38:43.005Z</time></trkpt><trkpt lat="45.84544303676846" lon="10.116308891498388"><ele>195.0</ele><time>2026-04-27T07:38:44.005Z</time></trkpt><trkpt lat="45.84558204336776" lon="10.116456761168568"><ele>195.0</ele><time>2026-04-27T07:38:45.005Z</time></trkpt><trkpt lat="45.84568916334169" lon="10.116580238477571"><ele>195.0</ele><time>2026-04-27T07:38:46.005Z</time></trkpt><trkpt lat="45.84580127917258" lon="10.116717215132084"><ele>195.0</ele><time>2026-04-27T07:38:47.005Z</time></trkpt><trkpt lat="45.84590137563695" lon="10.116855848360535"><ele>195.0</ele><time>2026-04-27T07:38:48.005Z</time></trkpt><trkpt lat="45.84598461995501" lon="10.116976046361223"><ele>194.75</ele><time>2026-04-27T07:38:49.005Z</time></trkpt><trkpt lat="45.84606664164733" lon="10.117089564158492"><ele>194.5</ele><time>2026-04-27T07:38:50.005Z</time></trkpt><trkpt lat="45.84614900986758" lon="10.11720709682303"><ele>194.25</ele><time>2026-04-27T07:38:51.005Z</time></trkpt><trkpt lat="45.84622170894039" lon="10.11733507802056"><ele>194.0</ele><time>2026-04-27T07:38:52.005Z</time></trkpt><trkpt lat="45.846301469190436" lon="10.117461306330833"><ele>194.0</ele><time>2026-04-27T07:38:53.005Z</time></trkpt><trkpt lat="45.846400132598" lon="10.117602138170282"><ele>194.0</ele><time>2026-04-27T07:38:54.005Z</time></trkpt><trkpt lat="45.84649178959642" lon="10.117783135337149"><ele>194.0</ele><time>2026-04-27T07:38:55.005Z</time></trkpt><trkpt lat="45.84658079940686" lon="10.117988504775813"><ele>194.0</ele><time>2026-04-27T07:38:56.005Z</time></trkpt><trkpt lat="45.8466791751946" lon="10.118202060970383"><ele>194.0</ele><time>2026-04-27T07:38:57.005Z</time></trkpt><trkpt lat="45.84677433650085" lon="10.118405894470179"><ele>194.0</ele><time>2026-04-27T07:38:58.005Z</time></trkpt><trkpt lat="45.846889301157404" lon="10.118624090992954"><ele>194.33333333333334</ele><time>2026-04-27T07:38:59.005Z</time></trkpt><trkpt lat="45.847005652782805" lon="10.118848204983733"><ele>194.66666666666669</ele><time>2026-04-27T07:39:00.005Z</time></trkpt><trkpt lat="45.847114377919716" lon="10.119077790136076"><ele>195.0</ele><time>2026-04-27T07:39:01.005Z</time></trkpt><trkpt lat="45.84720938180735" lon="10.119314695139751"><ele>195.0</ele><time>2026-04-27T07:39:02.005Z</time></trkpt><trkpt lat="45.84729042994978" lon="10.11953761008846"><ele>195.0</ele><time>2026-04-27T07:39:03.005Z</time></trkpt><trkpt lat="45.84739004632464" lon="10.11977721153573"><ele>195.0</ele><time>2026-04-27T07:39:04.005Z</time></trkpt><trkpt lat="45.84746784174724" lon="10.119961947482617"><ele>195.25</ele><time>2026-04-27T07:39:05.005Z</time></trkpt><trkpt lat="45.84756404616634" lon="10.120130495543336"><ele>195.5</ele><time>2026-04-27T07:39:06.005Z</time></trkpt><trkpt lat="45.847662284287296" lon="10.120278467144631"><ele>195.75</ele><time>2026-04-27T07:39:07.005Z</time></trkpt><trkpt lat="45.847771075917464" lon="10.120403610860956"><ele>196.0</ele><time>2026-04-27T07:39:08.005Z</time></trkpt><trkpt lat="45.84790016737101" lon="10.120526253778268"><ele>197.0</ele><time>2026-04-27T07:39:09.005Z</time></trkpt><trkpt lat="45.84804612465643" lon="10.120658557072762"><ele>198.0</ele><time>2026-04-27T07:39:10.005Z</time></trkpt><trkpt lat="45.84819542061202" lon="10.120788503436394"><ele>199.0</ele><time>2026-04-27T07:39:11.005Z</time></trkpt><trkpt lat="45.848344985684996" lon="10.120926964606047"><ele>199.75</ele><time>2026-04-27T07:39:12.005Z</time></trkpt><trkpt lat="45.84847563815015" lon="10.121045950009114"><ele>200.5</ele><time>2026-04-27T07:39:13.005Z</time></trkpt><trkpt lat="45.84858544895152" lon="10.12114814465909"><ele>201.25</ele><time>2026-04-27T07:39:14.005Z</time></trkpt><trkpt lat="45.84869404911204" lon="10.121252261771998"><ele>202.0</ele><time>2026-04-27T07:39:15.005Z</time></trkpt><trkpt lat="45.848808461773544" lon="10.121368731290655"><ele>202.0</ele><time>2026-04-27T07:39:16.005Z</time></trkpt><trkpt lat="45.848920834929686" lon="10.12149649680901"><ele>202.0</ele><time>2026-04-27T07:39:17.005Z</time></trkpt><trkpt lat="45.849032229057094" lon="10.121638595507259"><ele>202.0</ele><time>2026-04-27T07:39:18.005Z</time></trkpt><trkpt lat="45.84914549289006" lon="10.12179714319183"><ele>202.0</ele><time>2026-04-27T07:39:19.005Z</time></trkpt><trkpt lat="45.849257836975696" lon="10.121966560719315"><ele>202.0</ele><time>2026-04-27T07:39:20.005Z</time></trkpt><trkpt lat="45.8493798718277" lon="10.122131855098935"><ele>202.0</ele><time>2026-04-27T07:39:21.005Z</time></trkpt><trkpt lat="45.84950878021747" lon="10.122302601987535"><ele>201.66666666666666</ele><time>2026-04-27T07:39:22.005Z</time></trkpt><trkpt lat="45.84961579355014" lon="10.12246520652889"><ele>201.33333333333331</ele><time>2026-04-27T07:39:23.005Z</time></trkpt><trkpt lat="45.849751604486734" lon="10.12263659579814"><ele>201.0</ele><time>2026-04-27T07:39:24.005Z</time></trkpt><trkpt lat="45.84985485968706" lon="10.1227919198331"><ele>201.0</ele><time>2026-04-27T07:39:25.005Z</time></trkpt><trkpt lat="45.849948188881086" lon="10.122933522183958"><ele>201.0</ele><time>2026-04-27T07:39:26.005Z</time></trkpt><trkpt lat="45.85005488826831" lon="10.123083400772286"><ele>201.0</ele><time>2026-04-27T07:39:27.005Z</time></trkpt><trkpt lat="45.85016346726923" lon="10.123244038460957"><ele>201.0</ele><time>2026-04-27T07:39:28.005Z</time></trkpt><trkpt lat="45.85027839391614" lon="10.123395465200536"><ele>204.25</ele><time>2026-04-27T07:39:29.005Z</time></trkpt><trkpt lat="45.85039090641933" lon="10.123526781747572"><ele>207.5</ele><time>2026-04-27T07:39:30.005Z</time></trkpt><trkpt lat="45.850504265504675" lon="10.123653863846085"><ele>210.75</ele><time>2026-04-27T07:39:31.005Z</time></trkpt><trkpt lat="45.850615799161154" lon="10.123778499045804"><ele>214.0</ele><time>2026-04-27T07:39:32.006Z</time></trkpt><trkpt lat="45.85072291996146" lon="10.123901169225736"><ele>214.0</ele><time>2026-04-27T07:39:33.006Z</time></trkpt><trkpt lat="45.850813860165005" lon="10.124003431304574"><ele>214.0</ele><time>2026-04-27T07:39:34.006Z</time></trkpt><trkpt lat="45.85090303849769" lon="10.124098368116599"><ele>214.0</ele><time>2026-04-27T07:39:35.005Z</time></trkpt><trkpt lat="45.851002203438476" lon="10.124199242229611"><ele>214.0</ele><time>2026-04-27T07:39:36.006Z</time></trkpt><trkpt lat="45.85112495115432" lon="10.124317887164056"><ele>217.5</ele><time>2026-04-27T07:39:37.006Z</time></trkpt><trkpt lat="45.85122565508105" lon="10.124454139659548"><ele>221.0</ele><time>2026-04-27T07:39:38.006Z</time></trkpt><trkpt lat="45.851351136206695" lon="10.124581563107025"><ele>224.5</ele><time>2026-04-27T07:39:39.006Z</time></trkpt><trkpt lat="45.85147672305684" lon="10.12470909485675"><ele>228.0</ele><time>2026-04-27T07:39:40.006Z</time></trkpt><trkpt lat="45.851602373804155" lon="10.124841163079044"><ele>234.33333333333331</ele><time>2026-04-27T07:39:41.005Z</time></trkpt><trkpt lat="45.851728047064654" lon="10.124974344501918"><ele>240.66666666666666</ele><time>2026-04-27T07:39:42.006Z</time></trkpt><trkpt lat="45.85184147027406" lon="10.125113443214094"><ele>247.0</ele><time>2026-04-27T07:39:43.006Z</time></trkpt><trkpt lat="45.851943077941336" lon="10.125281531722813"><ele>247.0</ele><time>2026-04-27T07:39:44.005Z</time></trkpt><trkpt lat="45.85203088183511" lon="10.125462766458924"><ele>247.0</ele><time>2026-04-27T07:39:45.006Z</time></trkpt><trkpt lat="45.85211052192458" lon="10.125645879138515"><ele>247.0</ele><time>2026-04-27T07:39:46.006Z</time></trkpt><trkpt lat="45.852190744424995" lon="10.125830603917297"><ele>240.0</ele><time>2026-04-27T07:39:47.006Z</time></trkpt><trkpt lat="45.85227008404894" lon="10.126013495265921"><ele>233.0</ele><time>2026-04-27T07:39:48.006Z</time></trkpt><trkpt lat="45.85234942350546" lon="10.12619872037333"><ele>226.0</ele><time>2026-04-27T07:39:49.006Z</time></trkpt><trkpt lat="45.852422777620426" lon="10.126369002660573"><ele>219.0</ele><time>2026-04-27T07:39:50.006Z</time></trkpt><trkpt lat="45.85248921335402" lon="10.126521648617501"><ele>221.5</ele><time>2026-04-27T07:39:51.006Z</time></trkpt><trkpt lat="45.852578593264866" lon="10.126664639191112"><ele>224.0</ele><time>2026-04-27T07:39:52.006Z</time></trkpt><trkpt lat="45.85267752307409" lon="10.1268223934357"><ele>226.5</ele><time>2026-04-27T07:39:53.006Z</time></trkpt><trkpt lat="45.85279725245968" lon="10.126977698126302"><ele>229.0</ele><time>2026-04-27T07:39:54.006Z</time></trkpt><trkpt lat="45.852942500855875" lon="10.127107583476374"><ele>229.0</ele><time>2026-04-27T07:39:55.006Z</time></trkpt><trkpt lat="45.85309873002686" lon="10.127229858313761"><ele>229.0</ele><time>2026-04-27T07:39:56.006Z</time></trkpt><trkpt lat="45.85324708533568" lon="10.12731787242933"><ele>229.0</ele><time>2026-04-27T07:39:57.006Z</time></trkpt><trkpt lat="45.85337423954591" lon="10.12741123490022"><ele>230.0</ele><time>2026-04-27T07:39:58.006Z</time></trkpt><trkpt lat="45.853487696164386" lon="10.127509876333802"><ele>231.0</ele><time>2026-04-27T07:39:59.006Z</time></trkpt><trkpt lat="45.85357701654657" lon="10.127634561995409"><ele>232.0</ele><time>2026-04-27T07:40:00.006Z</time></trkpt><trkpt lat="45.853670363437125" lon="10.127779041744917"><ele>233.0</ele><time>2026-04-27T07:40:01.006Z</time></trkpt><trkpt lat="45.85377148760424" lon="10.127946514451775"><ele>233.0</ele><time>2026-04-27T07:40:02.006Z</time></trkpt><trkpt lat="45.8538647348814" lon="10.12808587407655"><ele>233.0</ele><time>2026-04-27T07:40:03.006Z</time></trkpt><trkpt lat="45.8539560657516" lon="10.12822052916043"><ele>233.0</ele><time>2026-04-27T07:40:04.006Z</time></trkpt><trkpt lat="45.85405251359803" lon="10.128354556894603"><ele>233.0</ele><time>2026-04-27T07:40:05.006Z</time></trkpt><trkpt lat="45.85415711292156" lon="10.12850548663445"><ele>237.66666666666669</ele><time>2026-04-27T07:40:06.006Z</time></trkpt><trkpt lat="45.854275704452945" lon="10.128675153588759"><ele>242.33333333333331</ele><time>2026-04-27T07:40:07.006Z</time></trkpt><trkpt lat="45.85439872416038" lon="10.128847684371912"><ele>247.0</ele><time>2026-04-27T07:40:08.006Z</time></trkpt><trkpt lat="45.854523291546535" lon="10.129023645049456"><ele>239.75</ele><time>2026-04-27T07:40:09.006Z</time></trkpt><trkpt lat="45.85463120889126" lon="10.129180488850023"><ele>232.5</ele><time>2026-04-27T07:40:10.006Z</time></trkpt><trkpt lat="45.85472982191294" lon="10.129327517472959"><ele>225.25</ele><time>2026-04-27T07:40:11.006Z</time></trkpt><trkpt lat="45.85482647900993" lon="10.129476227661652"><ele>218.0</ele><time>2026-04-27T07:40:12.006Z</time></trkpt><trkpt lat="45.85491401425534" lon="10.129604443635813"><ele>218.0</ele><time>2026-04-27T07:40:13.006Z</time></trkpt><trkpt lat="45.854987756480135" lon="10.129721556472232"><ele>218.0</ele><time>2026-04-27T07:40:14.006Z</time></trkpt><trkpt lat="45.855062903295824" lon="10.129841540680545"><ele>218.0</ele><time>2026-04-27T07:40:15.006Z</time></trkpt><trkpt lat="45.85514191884337" lon="10.129988749528538"><ele>218.0</ele><time>2026-04-27T07:40:16.006Z</time></trkpt><trkpt lat="45.85521279952935" lon="10.130160584700814"><ele>218.5</ele><time>2026-04-27T07:40:17.006Z</time></trkpt><trkpt lat="45.8552713057329" lon="10.13031780468954"><ele>219.0</ele><time>2026-04-27T07:40:18.006Z</time></trkpt><trkpt lat="45.85532370272176" lon="10.130463875956272"><ele>219.5</ele><time>2026-04-27T07:40:19.006Z</time></trkpt><trkpt lat="45.85538032186429" lon="10.130618505222829"><ele>220.0</ele><time>2026-04-27T07:40:20.006Z</time></trkpt><trkpt lat="45.85544211218062" lon="10.130765791216206"><ele>218.0</ele><time>2026-04-27T07:40:21.006Z</time></trkpt><trkpt lat="45.8554844638354" lon="10.13094466391012"><ele>216.0</ele><time>2026-04-27T07:40:22.006Z</time></trkpt><trkpt lat="45.8555540045064" lon="10.131136744176654"><ele>214.0</ele><time>2026-04-27T07:40:23.006Z</time></trkpt><trkpt lat="45.85563395688448" lon="10.13135758288455"><ele>215.33333333333331</ele><time>2026-04-27T07:40:24.006Z</time></trkpt><trkpt lat="45.85571846197997" lon="10.131591465755156"><ele>216.66666666666669</ele><time>2026-04-27T07:40:25.006Z</time></trkpt><trkpt lat="45.855800900588285" lon="10.131820847493472"><ele>218.0</ele><time>2026-04-27T07:40:26.006Z</time></trkpt><trkpt lat="45.85587641565285" lon="10.132030965147319"><ele>218.0</ele><time>2026-04-27T07:40:27.006Z</time></trkpt><trkpt lat="45.855947668600535" lon="10.13222922331887"><ele>218.0</ele><time>2026-04-27T07:40:28.006Z</time></trkpt><trkpt lat="45.85601177122022" lon="10.132407586464769"><ele>218.0</ele><time>2026-04-27T07:40:29.006Z</time></trkpt><trkpt lat="45.856068512958785" lon="10.13256546235513"><ele>218.0</ele><time>2026-04-27T07:40:30.006Z</time></trkpt><trkpt lat="45.85612727607757" lon="10.132723628895393"><ele>218.0</ele><time>2026-04-27T07:40:31.006Z</time></trkpt><trkpt lat="45.8561859929829" lon="10.13288331880428"><ele>218.0</ele><time>2026-04-27T07:40:32.006Z</time></trkpt><trkpt lat="45.85626153143441" lon="10.133019113051501"><ele>218.0</ele><time>2026-04-27T07:40:33.006Z</time></trkpt><trkpt lat="45.85636408916307" lon="10.13313518386911"><ele>218.0</ele><time>2026-04-27T07:40:34.006Z</time></trkpt><trkpt lat="45.856472385960146" lon="10.133246227270343"><ele>218.25</ele><time>2026-04-27T07:40:35.006Z</time></trkpt><trkpt lat="45.856598558122286" lon="10.133313440878407"><ele>218.5</ele><time>2026-04-27T07:40:36.006Z</time></trkpt><trkpt lat="45.856727017649035" lon="10.133384899297782"><ele>218.75</ele><time>2026-04-27T07:40:37.006Z</time></trkpt><trkpt lat="45.85684999516576" lon="10.13343935175644"><ele>219.0</ele><time>2026-04-27T07:40:38.006Z</time></trkpt><trkpt lat="45.85696143257969" lon="10.133487223608059"><ele>219.0</ele><time>2026-04-27T07:40:39.006Z</time></trkpt><trkpt lat="45.85707132764695" lon="10.133529681796173"><ele>219.0</ele><time>2026-04-27T07:40:40.006Z</time></trkpt><trkpt lat="45.85718135121639" lon="10.133592642791982"><ele>219.0</ele><time>2026-04-27T07:40:41.006Z</time></trkpt><trkpt lat="45.85729925770722" lon="10.133657256619829"><ele>219.0</ele><time>2026-04-27T07:40:42.006Z</time></trkpt><trkpt lat="45.85741445989282" lon="10.133720729528124"><ele>219.0</ele><time>2026-04-27T07:40:43.006Z</time></trkpt><trkpt lat="45.857535497402075" lon="10.133793707334096"><ele>219.0</ele><time>2026-04-27T07:40:44.006Z</time></trkpt><trkpt lat="45.857654021983464" lon="10.1338726850798"><ele>219.0</ele><time>2026-04-27T07:40:45.006Z</time></trkpt><trkpt lat="45.85776952755128" lon="10.133953662802545"><ele>219.0</ele><time>2026-04-27T07:40:46.006Z</time></trkpt><trkpt lat="45.85788971222753" lon="10.134034533541188"><ele>219.0</ele><time>2026-04-27T07:40:47.006Z</time></trkpt><trkpt lat="45.85801757401826" lon="10.134117080703831"><ele>219.0</ele><time>2026-04-27T07:40:48.006Z</time></trkpt><trkpt lat="45.85815214945824" lon="10.13419617224415"><ele>219.0</ele><time>2026-04-27T07:40:49.006Z</time></trkpt><trkpt lat="45.85829566413702" lon="10.134251102819206"><ele>219.0</ele><time>2026-04-27T07:40:50.006Z</time></trkpt><trkpt lat="45.85842354873255" lon="10.134296643983209"><ele>218.33333333333331</ele><time>2026-04-27T07:40:51.006Z</time></trkpt><trkpt lat="45.858562015091195" lon="10.134330971568291"><ele>217.66666666666666</ele><time>2026-04-27T07:40:52.006Z</time></trkpt><trkpt lat="45.858725550035395" lon="10.134372740172354"><ele>217.0</ele><time>2026-04-27T07:40:53.006Z</time></trkpt><trkpt lat="45.858857450805715" lon="10.134463658677562"><ele>217.0</ele><time>2026-04-27T07:40:54.006Z</time></trkpt><trkpt lat="45.85898417329963" lon="10.134567081886917"><ele>217.0</ele><time>2026-04-27T07:40:55.006Z</time></trkpt><trkpt lat="45.85912804200457" lon="10.134660081505999"><ele>217.0</ele><time>2026-04-27T07:40:56.006Z</time></trkpt><trkpt lat="45.85928326260172" lon="10.134751629246717"><ele>215.33333333333331</ele><time>2026-04-27T07:40:57.006Z</time></trkpt><trkpt lat="45.85945394982983" lon="10.134842538966424"><ele>213.66666666666669</ele><time>2026-04-27T07:40:58.006Z</time></trkpt><trkpt lat="45.85959728013687" lon="10.134922850637347"><ele>212.0</ele><time>2026-04-27T07:40:59.006Z</time></trkpt><trkpt lat="45.859724969009356" lon="10.135002943858046"><ele>212.0</ele><time>2026-04-27T07:41:00.006Z</time></trkpt><trkpt lat="45.85985685337331" lon="10.135090114208744"><ele>212.0</ele><time>2026-04-27T07:41:01.006Z</time></trkpt><trkpt lat="45.85999438244506" lon="10.135192869431277"><ele>212.0</ele><time>2026-04-27T07:41:02.006Z</time></trkpt><trkpt lat="45.86012739767534" lon="10.135317447374453"><ele>214.0</ele><time>2026-04-27T07:41:03.006Z</time></trkpt><trkpt lat="45.86024538248809" lon="10.135477535158632"><ele>216.0</ele><time>2026-04-27T07:41:04.006Z</time></trkpt><trkpt lat="45.86033317929838" lon="10.13566589253164"><ele>218.0</ele><time>2026-04-27T07:41:05.006Z</time></trkpt><trkpt lat="45.860412054575754" lon="10.135877063929334"><ele>218.0</ele><time>2026-04-27T07:41:06.006Z</time></trkpt><trkpt lat="45.86047252164281" lon="10.13612205701002"><ele>218.0</ele><time>2026-04-27T07:41:07.006Z</time></trkpt><trkpt lat="45.86052023043861" lon="10.136386431691927"><ele>218.0</ele><time>2026-04-27T07:41:08.006Z</time></trkpt><trkpt lat="45.86055093846107" lon="10.136608662505866"><ele>214.5</ele><time>2026-04-27T07:41:09.006Z</time></trkpt><trkpt lat="45.86058917038219" lon="10.136817207231143"><ele>211.0</ele><time>2026-04-27T07:41:10.006Z</time></trkpt><trkpt lat="45.860620469464564" lon="10.137007786105075"><ele>207.5</ele><time>2026-04-27T07:41:11.006Z</time></trkpt><trkpt lat="45.86065336272306" lon="10.137207521710858"><ele>204.0</ele><time>2026-04-27T07:41:12.006Z</time></trkpt><trkpt lat="45.86069170630691" lon="10.137403409470506"><ele>203.66666666666669</ele><time>2026-04-27T07:41:13.006Z</time></trkpt><trkpt lat="45.860730113170845" lon="10.137609007713662"><ele>203.33333333333334</ele><time>2026-04-27T07:41:14.006Z</time></trkpt><trkpt lat="45.8607674277516" lon="10.137818870363384"><ele>203.0</ele><time>2026-04-27T07:41:15.006Z</time></trkpt><trkpt lat="45.86080587393236" lon="10.138033518245221"><ele>202.0</ele><time>2026-04-27T07:41:16.006Z</time></trkpt><trkpt lat="45.860847652891295" lon="10.138253763929534"><ele>201.0</ele><time>2026-04-27T07:41:17.006Z</time></trkpt><trkpt lat="45.86089682923803" lon="10.138477576494664"><ele>200.0</ele><time>2026-04-27T07:41:18.006Z</time></trkpt><trkpt lat="45.86093244152775" lon="10.138691366735921"><ele>200.66666666666669</ele><time>2026-04-27T07:41:19.006Z</time></trkpt><trkpt lat="45.86096876808297" lon="10.138909634876079"><ele>201.33333333333331</ele><time>2026-04-27T07:41:20.006Z</time></trkpt><trkpt lat="45.861014584951235" lon="10.139117548464599"><ele>202.0</ele><time>2026-04-27T07:41:21.006Z</time></trkpt><trkpt lat="45.861066739137954" lon="10.139332946719232"><ele>202.0</ele><time>2026-04-27T07:41:22.006Z</time></trkpt><trkpt lat="45.861137434499994" lon="10.139542281669094"><ele>202.0</ele><time>2026-04-27T07:41:23.006Z</time></trkpt><trkpt lat="45.861227171014946" lon="10.13973609235075"><ele>202.0</ele><time>2026-04-27T07:41:24.006Z</time></trkpt><trkpt lat="45.86132235559083" lon="10.139918586951195"><ele>202.0</ele><time>2026-04-27T07:41:25.006Z</time></trkpt><trkpt lat="45.86142174445555" lon="10.14011548542071"><ele>202.0</ele><time>2026-04-27T07:41:26.006Z</time></trkpt><trkpt lat="45.861528654800445" lon="10.140323268838998"><ele>202.0</ele><time>2026-04-27T07:41:27.006Z</time></trkpt><trkpt lat="45.861642095506944" lon="10.140527527307178"><ele>202.33333333333331</ele><time>2026-04-27T07:41:28.006Z</time></trkpt><trkpt lat="45.86176647417421" lon="10.140740701508394"><ele>202.66666666666669</ele><time>2026-04-27T07:41:29.006Z</time></trkpt><trkpt lat="45.86186342933668" lon="10.140977961961918"><ele>203.0</ele><time>2026-04-27T07:41:30.006Z</time></trkpt><trkpt lat="45.86197863180341" lon="10.14119762967653"><ele>202.66666666666669</ele><time>2026-04-27T07:41:31.006Z</time></trkpt><trkpt lat="45.8620930412666" lon="10.141424309797825"><ele>202.33333333333331</ele><time>2026-04-27T07:41:32.006Z</time></trkpt><trkpt lat="45.862200745103934" lon="10.141641878330555"><ele>202.0</ele><time>2026-04-27T07:41:33.006Z</time></trkpt><trkpt lat="45.862303437040445" lon="10.141858953072097"><ele>202.0</ele><time>2026-04-27T07:41:34.006Z</time></trkpt><trkpt lat="45.862399431258325" lon="10.142077060183501"><ele>202.0</ele><time>2026-04-27T07:41:35.006Z</time></trkpt><trkpt lat="45.862497704091595" lon="10.142296412841551"><ele>202.0</ele><time>2026-04-27T07:41:36.006Z</time></trkpt><trkpt lat="45.86259123888203" lon="10.142510286257021"><ele>202.66666666666666</ele><time>2026-04-27T07:41:37.006Z</time></trkpt><trkpt lat="45.86267709327109" lon="10.142715551908688"><ele>203.33333333333331</ele><time>2026-04-27T07:41:38.007Z</time></trkpt><trkpt lat="45.86276646859521" lon="10.142918531928242"><ele>204.0</ele><time>2026-04-27T07:41:39.006Z</time></trkpt><trkpt lat="45.86285882265409" lon="10.143116136354985"><ele>204.66666666666669</ele><time>2026-04-27T07:41:40.006Z</time></trkpt><trkpt lat="45.86294742809731" lon="10.143323270305373"><ele>205.33333333333334</ele><time>2026-04-27T07:41:41.006Z</time></trkpt><trkpt lat="45.863037181804366" lon="10.143522601616475"><ele>206.0</ele><time>2026-04-27T07:41:42.006Z</time></trkpt><trkpt lat="45.863131664675095" lon="10.143723944459067"><ele>206.0</ele><time>2026-04-27T07:41:43.006Z</time></trkpt><trkpt lat="45.86322571348882" lon="10.143926319903557"><ele>206.0</ele><time>2026-04-27T07:41:44.006Z</time></trkpt><trkpt lat="45.86333174425325" lon="10.144124103758474"><ele>206.0</ele><time>2026-04-27T07:41:45.006Z</time></trkpt><trkpt lat="45.86342333108524" lon="10.14429650813758"><ele>205.60000000000002</ele><time>2026-04-27T07:41:46.006Z</time></trkpt><trkpt lat="45.86352145691883" lon="10.144444205837615"><ele>205.2</ele><time>2026-04-27T07:41:47.006Z</time></trkpt><trkpt lat="45.863603426035326" lon="10.144563264696382"><ele>204.8</ele><time>2026-04-27T07:41:48.006Z</time></trkpt><trkpt lat="45.86367440861224" lon="10.144667809939751"><ele>204.39999999999998</ele><time>2026-04-27T07:41:49.006Z</time></trkpt><trkpt lat="45.86370284840843" lon="10.1447745201782"><ele>204.0</ele><time>2026-04-27T07:41:50.006Z</time></trkpt><trkpt lat="45.863741617622615" lon="10.14486070439508"><ele>204.0</ele><time>2026-04-27T07:41:51.006Z</time></trkpt><trkpt lat="45.863756808337634" lon="10.144980108215654"><ele>204.0</ele><time>2026-04-27T07:41:52.006Z</time></trkpt><trkpt lat="45.86381462865235" lon="10.145126272449556"><ele>204.0</ele><time>2026-04-27T07:41:54.006Z</time></trkpt><trkpt lat="45.863885681981294" lon="10.145165832249136"><ele>204.0</ele><time>2026-04-27T07:41:55.006Z</time></trkpt><trkpt lat="45.86399362510342" lon="10.145208287077851"><ele>204.0</ele><time>2026-04-27T07:41:56.006Z</time></trkpt><trkpt lat="45.864111420646154" lon="10.145306179101867"><ele>204.0</ele><time>2026-04-27T07:41:57.006Z</time></trkpt><trkpt lat="45.86421255974376" lon="10.14544939872161"><ele>204.0</ele><time>2026-04-27T07:41:58.006Z</time></trkpt><trkpt lat="45.86431714584095" lon="10.145611951658912"><ele>204.0</ele><time>2026-04-27T07:41:59.006Z</time></trkpt><trkpt lat="45.864426228168114" lon="10.145779733099983"><ele>203.75</ele><time>2026-04-27T07:42:00.006Z</time></trkpt><trkpt lat="45.864529732665524" lon="10.145914563091063"><ele>203.5</ele><time>2026-04-27T07:42:01.006Z</time></trkpt><trkpt lat="45.864614919564644" lon="10.146029809802034"><ele>203.25</ele><time>2026-04-27T07:42:02.006Z</time></trkpt><trkpt lat="45.86470726887289" lon="10.146147568054033"><ele>203.0</ele><time>2026-04-27T07:42:03.006Z</time></trkpt><trkpt lat="45.86480580773914" lon="10.146268344912372"><ele>203.0</ele><time>2026-04-27T07:42:04.006Z</time></trkpt><trkpt lat="45.864914341622686" lon="10.146390870157184"><ele>203.0</ele><time>2026-04-27T07:42:05.006Z</time></trkpt><trkpt lat="45.86502559716706" lon="10.146525872114436"><ele>203.0</ele><time>2026-04-27T07:42:06.006Z</time></trkpt><trkpt lat="45.86514663361454" lon="10.146661925702801"><ele>203.0</ele><time>2026-04-27T07:42:07.006Z</time></trkpt><trkpt lat="45.86526367670835" lon="10.146794735451474"><ele>203.5</ele><time>2026-04-27T07:42:08.006Z</time></trkpt><trkpt lat="45.86537726631489" lon="10.14692718362463"><ele>204.0</ele><time>2026-04-27T07:42:09.006Z</time></trkpt><trkpt lat="45.86549101616033" lon="10.147062673848106"><ele>204.5</ele><time>2026-04-27T07:42:10.006Z</time></trkpt><trkpt lat="45.865612754120455" lon="10.147200492240351"><ele>205.0</ele><time>2026-04-27T07:42:11.006Z</time></trkpt><trkpt lat="45.86573662596374" lon="10.147335752974922"><ele>205.5</ele><time>2026-04-27T07:42:12.006Z</time></trkpt><trkpt lat="45.86585499190669" lon="10.147462930696223"><ele>206.0</ele><time>2026-04-27T07:42:13.006Z</time></trkpt><trkpt lat="45.86597410090312" lon="10.147590673732216"><ele>206.5</ele><time>2026-04-27T07:42:14.006Z</time></trkpt><trkpt lat="45.86609643318676" lon="10.1477188416826"><ele>207.0</ele><time>2026-04-27T07:42:15.006Z</time></trkpt><trkpt lat="45.866221872611085" lon="10.147849801653985"><ele>207.0</ele><time>2026-04-27T07:42:16.006Z</time></trkpt><trkpt lat="45.86633776427031" lon="10.14797461384847"><ele>207.0</ele><time>2026-04-27T07:42:17.006Z</time></trkpt><trkpt lat="45.86645849121799" lon="10.148108250366036"><ele>207.0</ele><time>2026-04-27T07:42:18.006Z</time></trkpt><trkpt lat="45.86657174442172" lon="10.148247500269125"><ele>207.0</ele><time>2026-04-27T07:42:19.006Z</time></trkpt><trkpt lat="45.866693241378805" lon="10.148402408338091"><ele>208.0</ele><time>2026-04-27T07:42:20.006Z</time></trkpt><trkpt lat="45.86681148744221" lon="10.148560574063815"><ele>209.0</ele><time>2026-04-27T07:42:21.006Z</time></trkpt><trkpt lat="45.86691808192108" lon="10.148723860341946"><ele>210.0</ele><time>2026-04-27T07:42:22.006Z</time></trkpt><trkpt lat="45.86700472266818" lon="10.148873553407968"><ele>210.0</ele><time>2026-04-27T07:42:23.006Z</time></trkpt><trkpt lat="45.8670944495678" lon="10.149032149648459"><ele>210.0</ele><time>2026-04-27T07:42:24.006Z</time></trkpt><trkpt lat="45.867169545607624" lon="10.14917423670313"><ele>210.0</ele><time>2026-04-27T07:42:25.006Z</time></trkpt><trkpt lat="45.867231940093454" lon="10.14927751242907"><ele>210.0</ele><time>2026-04-27T07:42:26.006Z</time></trkpt><trkpt lat="45.86728182686861" lon="10.149362287296219"><ele>210.0</ele><time>2026-04-27T07:42:27.006Z</time></trkpt><trkpt lat="45.8673225768756" lon="10.14947280938842"><ele>209.75</ele><time>2026-04-27T07:42:28.006Z</time></trkpt><trkpt lat="45.86738955314693" lon="10.149565110853311"><ele>209.5</ele><time>2026-04-27T07:42:29.006Z</time></trkpt><trkpt lat="45.86744507268759" lon="10.149699322124453"><ele>209.25</ele><time>2026-04-27T07:42:30.006Z</time></trkpt><trkpt lat="45.8675163426649" lon="10.149841197745856"><ele>209.0</ele><time>2026-04-27T07:42:31.006Z</time></trkpt><trkpt lat="45.86759976752814" lon="10.150007347215187"><ele>207.66666666666669</ele><time>2026-04-27T07:42:32.006Z</time></trkpt><trkpt lat="45.86769464055656" lon="10.150179344876603"><ele>206.33333333333331</ele><time>2026-04-27T07:42:33.006Z</time></trkpt><trkpt lat="45.867796029643415" lon="10.150353456381314"><ele>205.0</ele><time>2026-04-27T07:42:34.006Z</time></trkpt><trkpt lat="45.86790401765277" lon="10.15052872314355"><ele>205.0</ele><time>2026-04-27T07:42:35.006Z</time></trkpt><trkpt lat="45.86801716159389" lon="10.150704226734758"><ele>205.0</ele><time>2026-04-27T07:42:36.006Z</time></trkpt><trkpt lat="45.868132638365154" lon="10.150878607587565"><ele>205.0</ele><time>2026-04-27T07:42:37.006Z</time></trkpt><trkpt lat="45.86821909824349" lon="10.151029363471261"><ele>205.25</ele><time>2026-04-27T07:42:38.006Z</time></trkpt><trkpt lat="45.86831548963582" lon="10.151178487914136"><ele>205.5</ele><time>2026-04-27T07:42:39.006Z</time></trkpt><trkpt lat="45.86840012802419" lon="10.151317694253148"><ele>205.75</ele><time>2026-04-27T07:42:40.006Z</time></trkpt><trkpt lat="45.86848884436077" lon="10.151463794128533"><ele>206.0</ele><time>2026-04-27T07:42:41.006Z</time></trkpt><trkpt lat="45.868580026814435" lon="10.151603366679778"><ele>206.0</ele><time>2026-04-27T07:42:42.006Z</time></trkpt><trkpt lat="45.86864260933513" lon="10.151738568298956"><ele>206.0</ele><time>2026-04-27T07:42:43.006Z</time></trkpt><trkpt lat="45.868708444125495" lon="10.151849303064937"><ele>206.0</ele><time>2026-04-27T07:42:44.006Z</time></trkpt><trkpt lat="45.868778496241084" lon="10.151936158015701"><ele>206.0</ele><time>2026-04-27T07:42:45.006Z</time></trkpt><trkpt lat="45.86883020016439" lon="10.152059165887968"><ele>206.0</ele><time>2026-04-27T07:42:47.006Z</time></trkpt><trkpt lat="45.868847617851614" lon="10.152204379841784"><ele>206.0</ele><time>2026-04-27T07:42:49.006Z</time></trkpt><trkpt lat="45.86885096399873" lon="10.152318002922957"><ele>206.0</ele><time>2026-04-27T07:42:50.006Z</time></trkpt><trkpt lat="45.868853976525024" lon="10.15245899341315"><ele>206.0</ele><time>2026-04-27T07:42:51.006Z</time></trkpt><trkpt lat="45.86887366603928" lon="10.152614288038476"><ele>206.0</ele><time>2026-04-27T07:42:52.006Z</time></trkpt><trkpt lat="45.8689115356531" lon="10.152790861960657"><ele>206.0</ele><time>2026-04-27T07:42:53.006Z</time></trkpt><trkpt lat="45.868962238751685" lon="10.152985785014911"><ele>205.66666666666669</ele><time>2026-04-27T07:42:54.006Z</time></trkpt><trkpt lat="45.86902561059799" lon="10.15319072701813"><ele>205.33333333333331</ele><time>2026-04-27T07:42:55.006Z</time></trkpt><trkpt lat="45.86911004988096" lon="10.153421893295631"><ele>205.0</ele><time>2026-04-27T07:42:56.006Z</time></trkpt><trkpt lat="45.869205122106074" lon="10.153668261513607"><ele>205.0</ele><time>2026-04-27T07:42:57.006Z</time></trkpt><trkpt lat="45.86930226978679" lon="10.153928765721584"><ele>205.0</ele><time>2026-04-27T07:42:58.006Z</time></trkpt><trkpt lat="45.86940635082689" lon="10.154195805793993"><ele>205.0</ele><time>2026-04-27T07:42:59.006Z</time></trkpt><trkpt lat="45.869508515401165" lon="10.154468615192604"><ele>205.33333333333331</ele><time>2026-04-27T07:43:00.006Z</time></trkpt><trkpt lat="45.86959833363566" lon="10.154712148472072"><ele>205.66666666666669</ele><time>2026-04-27T07:43:01.006Z</time></trkpt><trkpt lat="45.86968899144873" lon="10.154942936994795"><ele>206.0</ele><time>2026-04-27T07:43:02.006Z</time></trkpt><trkpt lat="45.869781986986865" lon="10.155169317066095"><ele>206.33333333333334</ele><time>2026-04-27T07:43:03.006Z</time></trkpt><trkpt lat="45.869894337956694" lon="10.155377407588642"><ele>206.66666666666669</ele><time>2026-04-27T07:43:04.006Z</time></trkpt><trkpt lat="45.870022648982804" lon="10.155560207265987"><ele>207.0</ele><time>2026-04-27T07:43:05.006Z</time></trkpt><trkpt lat="45.870167841664035" lon="10.155710882038022"><ele>206.0</ele><time>2026-04-27T07:43:06.006Z</time></trkpt><trkpt lat="45.870333124507155" lon="10.155824116904077"><ele>205.0</ele><time>2026-04-27T07:43:07.006Z</time></trkpt><trkpt lat="45.870512648603984" lon="10.155894190673266"><ele>204.0</ele><time>2026-04-27T07:43:08.006Z</time></trkpt><trkpt lat="45.87069987512035" lon="10.155942204439752"><ele>204.0</ele><time>2026-04-27T07:43:09.006Z</time></trkpt><trkpt lat="45.87089336079545" lon="10.155969384384624"><ele>204.0</ele><time>2026-04-27T07:43:10.006Z</time></trkpt><trkpt lat="45.87108397332588" lon="10.155991879250761"><ele>204.0</ele><time>2026-04-27T07:43:11.006Z</time></trkpt><trkpt lat="45.87130003817651" lon="10.156049299366991"><ele>206.0</ele><time>2026-04-27T07:43:12.006Z</time></trkpt><trkpt lat="45.871517910250496" lon="10.156079553203629"><ele>208.0</ele><time>2026-04-27T07:43:13.006Z</time></trkpt><trkpt lat="45.87173861529208" lon="10.156136188215752"><ele>210.0</ele><time>2026-04-27T07:43:14.006Z</time></trkpt><trkpt lat="45.87192468323451" lon="10.156195002643242"><ele>210.0</ele><time>2026-04-27T07:43:15.006Z</time></trkpt><trkpt lat="45.87208876252528" lon="10.156245439916297"><ele>210.0</ele><time>2026-04-27T07:43:16.006Z</time></trkpt><trkpt lat="45.8722467502061" lon="10.156311692975207"><ele>210.0</ele><time>2026-04-27T07:43:17.006Z</time></trkpt><trkpt lat="45.87241851914412" lon="10.156385706167733"><ele>210.0</ele><time>2026-04-27T07:43:18.006Z</time></trkpt><trkpt lat="45.87258994872033" lon="10.156465408966557"><ele>210.0</ele><time>2026-04-27T07:43:19.006Z</time></trkpt><trkpt lat="45.872752228187245" lon="10.156547312121297"><ele>210.0</ele><time>2026-04-27T07:43:20.006Z</time></trkpt><trkpt lat="45.87289509708283" lon="10.156656398539933"><ele>210.33333333333331</ele><time>2026-04-27T07:43:21.006Z</time></trkpt><trkpt lat="45.87306212357993" lon="10.156737614555594"><ele>210.66666666666666</ele><time>2026-04-27T07:43:22.006Z</time></trkpt><trkpt lat="45.8732322435301" lon="10.156826209490946"><ele>211.0</ele><time>2026-04-27T07:43:23.006Z</time></trkpt><trkpt lat="45.87339829258199" lon="10.15691822036105"><ele>217.33333333333331</ele><time>2026-04-27T07:43:24.006Z</time></trkpt><trkpt lat="45.87356467043917" lon="10.157026813720673"><ele>223.66666666666669</ele><time>2026-04-27T07:43:25.006Z</time></trkpt><trkpt lat="45.873723437350115" lon="10.157146355888196"><ele>230.0</ele><time>2026-04-27T07:43:26.006Z</time></trkpt><trkpt lat="45.87387498990615" lon="10.157290826980208"><ele>225.0</ele><time>2026-04-27T07:43:27.006Z</time></trkpt><trkpt lat="45.874015830223584" lon="10.157449456266956"><ele>220.0</ele><time>2026-04-27T07:43:28.006Z</time></trkpt><trkpt lat="45.87415091067764" lon="10.157620704800381"><ele>215.0</ele><time>2026-04-27T07:43:29.006Z</time></trkpt><trkpt lat="45.8742765810979" lon="10.157807265764903"><ele>227.66666666666669</ele><time>2026-04-27T07:43:30.006Z</time></trkpt><trkpt lat="45.87439133737835" lon="10.15800225480175"><ele>240.33333333333331</ele><time>2026-04-27T07:43:31.006Z</time></trkpt><trkpt lat="45.874508113140784" lon="10.158210511068637"><ele>253.0</ele><time>2026-04-27T07:43:32.006Z</time></trkpt><trkpt lat="45.874614235759765" lon="10.158424208769949"><ele>253.0</ele><time>2026-04-27T07:43:33.006Z</time></trkpt><trkpt lat="45.874722152501775" lon="10.158649488829386"><ele>253.0</ele><time>2026-04-27T07:43:34.006Z</time></trkpt><trkpt lat="45.874816350072955" lon="10.1588912881263"><ele>253.0</ele><time>2026-04-27T07:43:35.006Z</time></trkpt><trkpt lat="45.87488931823273" lon="10.159144566493763"><ele>248.0</ele><time>2026-04-27T07:43:36.006Z</time></trkpt><trkpt lat="45.87493092127253" lon="10.159409772517831"><ele>243.0</ele><time>2026-04-27T07:43:37.006Z</time></trkpt><trkpt lat="45.874963248945036" lon="10.159668559207992"><ele>238.0</ele><time>2026-04-27T07:43:38.006Z</time></trkpt><trkpt lat="45.87498978484552" lon="10.159896123685852"><ele>237.0</ele><time>2026-04-27T07:43:39.006Z</time></trkpt><trkpt lat="45.87502471291357" lon="10.160104154224175"><ele>236.0</ele><time>2026-04-27T07:43:40.006Z</time></trkpt><trkpt lat="45.87505546973455" lon="10.160306260785596"><ele>235.0</ele><time>2026-04-27T07:43:41.006Z</time></trkpt><trkpt lat="45.875084829424765" lon="10.160536885526147"><ele>233.66666666666666</ele><time>2026-04-27T07:43:42.006Z</time></trkpt><trkpt lat="45.87510220411922" lon="10.160775909130427"><ele>232.33333333333331</ele><time>2026-04-27T07:43:43.006Z</time></trkpt><trkpt lat="45.87511995727562" lon="10.16098800797788"><ele>231.0</ele><time>2026-04-27T07:43:44.006Z</time></trkpt><trkpt lat="45.875132920951884" lon="10.161187461852855"><ele>228.25</ele><time>2026-04-27T07:43:45.006Z</time></trkpt><trkpt lat="45.8751173089686" lon="10.161366615853195"><ele>225.5</ele><time>2026-04-27T07:43:46.006Z</time></trkpt><trkpt lat="45.87506900151915" lon="10.161561304256013"><ele>222.75</ele><time>2026-04-27T07:43:47.006Z</time></trkpt><trkpt lat="45.87498830748575" lon="10.161756255616481"><ele>220.0</ele><time>2026-04-27T07:43:48.007Z</time></trkpt><trkpt lat="45.874900550566714" lon="10.161959533847147"><ele>220.0</ele><time>2026-04-27T07:43:49.007Z</time></trkpt><trkpt lat="45.87483923121118" lon="10.162155443046046"><ele>220.0</ele><time>2026-04-27T07:43:50.007Z</time></trkpt><trkpt lat="45.874803905363045" lon="10.162342414398232"><ele>220.0</ele><time>2026-04-27T07:43:51.006Z</time></trkpt><trkpt lat="45.87479047024657" lon="10.16254776572132"><ele>220.0</ele><time>2026-04-27T07:43:52.006Z</time></trkpt><trkpt lat="45.874808561009566" lon="10.162764490225571"><ele>218.0</ele><time>2026-04-27T07:43:53.007Z</time></trkpt><trkpt lat="45.874843651898495" lon="10.16298794287587"><ele>216.0</ele><time>2026-04-27T07:43:54.006Z</time></trkpt><trkpt lat="45.87489702321393" lon="10.163194539669739"><ele>214.0</ele><time>2026-04-27T07:43:55.006Z</time></trkpt><trkpt lat="45.87496132699365" lon="10.16339462470832"><ele>212.66666666666666</ele><time>2026-04-27T07:43:56.007Z</time></trkpt><trkpt lat="45.875033680789166" lon="10.163587687745286"><ele>211.33333333333331</ele><time>2026-04-27T07:43:57.006Z</time></trkpt><trkpt lat="45.87512175403803" lon="10.163766670587856"><ele>210.0</ele><time>2026-04-27T07:43:58.006Z</time></trkpt><trkpt lat="45.87522554156364" lon="10.163916963474506"><ele>213.0</ele><time>2026-04-27T07:43:59.006Z</time></trkpt><trkpt lat="45.87534551325725" lon="10.164030893442266"><ele>216.0</ele><time>2026-04-27T07:44:00.006Z</time></trkpt><trkpt lat="45.875487064303385" lon="10.16412578810651"><ele>219.0</ele><time>2026-04-27T07:44:01.006Z</time></trkpt><trkpt lat="45.87561461422769" lon="10.164202320514246"><ele>222.0</ele><time>2026-04-27T07:44:02.006Z</time></trkpt><trkpt lat="45.875733615061996" lon="10.164306945931003"><ele>222.0</ele><time>2026-04-27T07:44:03.006Z</time></trkpt><trkpt lat="45.875850965853175" lon="10.164446979062484"><ele>222.0</ele><time>2026-04-27T07:44:04.006Z</time></trkpt><trkpt lat="45.87595030698024" lon="10.164618050691372"><ele>222.0</ele><time>2026-04-27T07:44:05.006Z</time></trkpt><trkpt lat="45.87603419589326" lon="10.164825936196118"><ele>237.0</ele><time>2026-04-27T07:44:06.006Z</time></trkpt><trkpt lat="45.8761082050547" lon="10.165058088620256"><ele>252.0</ele><time>2026-04-27T07:44:07.006Z</time></trkpt><trkpt lat="45.87618286487366" lon="10.165301935477704"><ele>267.0</ele><time>2026-04-27T07:44:08.006Z</time></trkpt><trkpt lat="45.87626447395524" lon="10.16554210799375"><ele>257.0</ele><time>2026-04-27T07:44:09.006Z</time></trkpt><trkpt lat="45.87636475383368" lon="10.165779721536236"><ele>247.0</ele><time>2026-04-27T07:44:10.006Z</time></trkpt><trkpt lat="45.87647152118122" lon="10.166022535088045"><ele>237.0</ele><time>2026-04-27T07:44:11.006Z</time></trkpt><trkpt lat="45.87658190659902" lon="10.166258473616166"><ele>237.0</ele><time>2026-04-27T07:44:12.006Z</time></trkpt><trkpt lat="45.876696248857016" lon="10.166493314847424"><ele>237.0</ele><time>2026-04-27T07:44:13.006Z</time></trkpt><trkpt lat="45.876821684175425" lon="10.166712281716784"><ele>237.0</ele><time>2026-04-27T07:44:14.006Z</time></trkpt><trkpt lat="45.87691645780049" lon="10.166954851482252"><ele>237.66666666666669</ele><time>2026-04-27T07:44:15.006Z</time></trkpt><trkpt lat="45.8770548183013" lon="10.167191400596252"><ele>238.33333333333334</ele><time>2026-04-27T07:44:16.006Z</time></trkpt><trkpt lat="45.8771919417556" lon="10.167445406242411"><ele>239.0</ele><time>2026-04-27T07:44:17.006Z</time></trkpt><trkpt lat="45.877308850924216" lon="10.167687444906042"><ele>231.0</ele><time>2026-04-27T07:44:18.006Z</time></trkpt><trkpt lat="45.8774187357425" lon="10.167906988071955"><ele>223.0</ele><time>2026-04-27T07:44:19.006Z</time></trkpt><trkpt lat="45.877513371358376" lon="10.168087416786555"><ele>215.0</ele><time>2026-04-27T07:44:20.006Z</time></trkpt><trkpt lat="45.8776042365261" lon="10.168255376319163"><ele>215.0</ele><time>2026-04-27T07:44:21.006Z</time></trkpt><trkpt lat="45.87768788194626" lon="10.168406297745623"><ele>215.0</ele><time>2026-04-27T07:44:22.006Z</time></trkpt><trkpt lat="45.87776713071817" lon="10.168535595817238"><ele>215.0</ele><time>2026-04-27T07:44:23.006Z</time></trkpt><trkpt lat="45.87784564750803" lon="10.16867665010233"><ele>215.0</ele><time>2026-04-27T07:44:24.006Z</time></trkpt><trkpt lat="45.87792713567912" lon="10.168822666846268"><ele>215.0</ele><time>2026-04-27T07:44:25.006Z</time></trkpt><trkpt lat="45.87802158356605" lon="10.168994347438586"><ele>215.0</ele><time>2026-04-27T07:44:26.006Z</time></trkpt><trkpt lat="45.87812191279645" lon="10.169175863525998"><ele>215.0</ele><time>2026-04-27T07:44:27.006Z</time></trkpt><trkpt lat="45.878227302478194" lon="10.169365581628739"><ele>214.66666666666669</ele><time>2026-04-27T07:44:28.006Z</time></trkpt><trkpt lat="45.878325905525024" lon="10.169556241551884"><ele>214.33333333333331</ele><time>2026-04-27T07:44:29.006Z</time></trkpt><trkpt lat="45.878421715057904" lon="10.169728285148654"><ele>214.0</ele><time>2026-04-27T07:44:30.006Z</time></trkpt><trkpt lat="45.87851772895108" lon="10.169896954275668"><ele>213.66666666666666</ele><time>2026-04-27T07:44:31.006Z</time></trkpt><trkpt lat="45.87860937363645" lon="10.17007622935974"><ele>213.33333333333331</ele><time>2026-04-27T07:44:32.006Z</time></trkpt><trkpt lat="45.878697252091946" lon="10.17026059266359"><ele>213.0</ele><time>2026-04-27T07:44:33.006Z</time></trkpt><trkpt lat="45.87879914302204" lon="10.17044436220811"><ele>213.0</ele><time>2026-04-27T07:44:34.006Z</time></trkpt><trkpt lat="45.87889977758892" lon="10.170625083434224"><ele>213.0</ele><time>2026-04-27T07:44:35.006Z</time></trkpt><trkpt lat="45.87899663236831" lon="10.17079486816255"><ele>213.0</ele><time>2026-04-27T07:44:36.006Z</time></trkpt><trkpt lat="45.87910179573983" lon="10.170960505973833"><ele>212.66666666666669</ele><time>2026-04-27T07:44:37.006Z</time></trkpt><trkpt lat="45.879204821138885" lon="10.171121701083756"><ele>212.33333333333334</ele><time>2026-04-27T07:44:38.006Z</time></trkpt><trkpt lat="45.879310331294235" lon="10.171278487752991"><ele>212.0</ele><time>2026-04-27T07:44:39.006Z</time></trkpt><trkpt lat="45.879422002596996" lon="10.171435963968564"><ele>212.66666666666669</ele><time>2026-04-27T07:44:40.006Z</time></trkpt><trkpt lat="45.87954135650481" lon="10.171609022765617"><ele>213.33333333333331</ele><time>2026-04-27T07:44:41.006Z</time></trkpt><trkpt lat="45.87966059852601" lon="10.171771722377876"><ele>214.0</ele><time>2026-04-27T07:44:42.006Z</time></trkpt><trkpt lat="45.87977770877814" lon="10.171936065122505"><ele>214.0</ele><time>2026-04-27T07:44:43.006Z</time></trkpt><trkpt lat="45.87989570737813" lon="10.172098869625604"><ele>214.0</ele><time>2026-04-27T07:44:44.006Z</time></trkpt><trkpt lat="45.880005553674394" lon="10.17225822095766"><ele>214.0</ele><time>2026-04-27T07:44:45.006Z</time></trkpt><trkpt lat="45.880124903952094" lon="10.172412763728618"><ele>214.0</ele><time>2026-04-27T07:44:46.006Z</time></trkpt><trkpt lat="45.880237947127895" lon="10.172569019765149"><ele>214.0</ele><time>2026-04-27T07:44:47.006Z</time></trkpt><trkpt lat="45.88034835820649" lon="10.172723499309646"><ele>214.0</ele><time>2026-04-27T07:44:48.006Z</time></trkpt><trkpt lat="45.880458355645885" lon="10.172877539143945"><ele>214.0</ele><time>2026-04-27T07:44:49.006Z</time></trkpt><trkpt lat="45.880555765626255" lon="10.173017166567535"><ele>214.0</ele><time>2026-04-27T07:44:50.006Z</time></trkpt><trkpt lat="45.88065989954099" lon="10.173153327933637"><ele>214.0</ele><time>2026-04-27T07:44:51.006Z</time></trkpt><trkpt lat="45.880755296542915" lon="10.173295147184653"><ele>214.0</ele><time>2026-04-27T07:44:52.006Z</time></trkpt><trkpt lat="45.880843741629945" lon="10.173436308118832"><ele>214.5</ele><time>2026-04-27T07:44:53.006Z</time></trkpt><trkpt lat="45.88093515598098" lon="10.173572947961269"><ele>215.0</ele><time>2026-04-27T07:44:54.006Z</time></trkpt><trkpt lat="45.88101482224898" lon="10.173696211196251"><ele>215.5</ele><time>2026-04-27T07:44:55.006Z</time></trkpt><trkpt lat="45.88110054536273" lon="10.173816296702606"><ele>216.0</ele><time>2026-04-27T07:44:56.006Z</time></trkpt><trkpt lat="45.8811991471235" lon="10.17395090802627"><ele>216.25</ele><time>2026-04-27T07:44:57.006Z</time></trkpt><trkpt lat="45.88129313712889" lon="10.174093709301367"><ele>216.5</ele><time>2026-04-27T07:44:58.006Z</time></trkpt><trkpt lat="45.881402796044746" lon="10.174239012057452"><ele>216.75</ele><time>2026-04-27T07:44:59.006Z</time></trkpt><trkpt lat="45.88150922416374" lon="10.174386297781105"><ele>217.0</ele><time>2026-04-27T07:45:00.006Z</time></trkpt><trkpt lat="45.88162369848949" lon="10.174537519883106"><ele>217.0</ele><time>2026-04-27T07:45:01.006Z</time></trkpt><trkpt lat="45.88171931264051" lon="10.174696121759899"><ele>217.0</ele><time>2026-04-27T07:45:02.006Z</time></trkpt><trkpt lat="45.88182347660684" lon="10.174843112248466"><ele>217.0</ele><time>2026-04-27T07:45:03.006Z</time></trkpt><trkpt lat="45.881916064838144" lon="10.174996067436867"><ele>217.0</ele><time>2026-04-27T07:45:04.006Z</time></trkpt><trkpt lat="45.88199146882752" lon="10.175156609615126"><ele>218.16666666666666</ele><time>2026-04-27T07:45:05.006Z</time></trkpt><trkpt lat="45.88203928902281" lon="10.175272814323819"><ele>219.33333333333331</ele><time>2026-04-27T07:45:06.006Z</time></trkpt><trkpt lat="45.882095602954124" lon="10.175336523065921"><ele>220.5</ele><time>2026-04-27T07:45:45.006Z</time></trkpt><trkpt lat="45.88214415049461" lon="10.175457160611261"><ele>221.66666666666669</ele><time>2026-04-27T07:45:47.006Z</time></trkpt><trkpt lat="45.882183790251524" lon="10.175552968430562"><ele>222.83333333333334</ele><time>2026-04-27T07:45:48.006Z</time></trkpt><trkpt lat="45.8822298617922" lon="10.175649662046666"><ele>224.0</ele><time>2026-04-27T07:45:49.006Z</time></trkpt><trkpt lat="45.88228043831633" lon="10.175764320595139"><ele>224.2</ele><time>2026-04-27T07:45:50.007Z</time></trkpt><trkpt lat="45.88234040826626" lon="10.17589312432575"><ele>224.39999999999998</ele><time>2026-04-27T07:45:51.006Z</time></trkpt><trkpt lat="45.88240679339469" lon="10.17602620745772"><ele>224.6</ele><time>2026-04-27T07:45:52.006Z</time></trkpt><trkpt lat="45.88246342672173" lon="10.176136880390311"><ele>224.8</ele><time>2026-04-27T07:45:53.006Z</time></trkpt><trkpt lat="45.88251605953853" lon="10.176233860731926"><ele>225.0</ele><time>2026-04-27T07:45:54.007Z</time></trkpt><trkpt lat="45.88258276470694" lon="10.1763339893061"><ele>225.25</ele><time>2026-04-27T07:45:55.007Z</time></trkpt><trkpt lat="45.882657822518745" lon="10.176441036592644"><ele>225.5</ele><time>2026-04-27T07:45:56.007Z</time></trkpt><trkpt lat="45.88273613361742" lon="10.176553776070456"><ele>225.75</ele><time>2026-04-27T07:45:57.007Z</time></trkpt><trkpt lat="45.88282734277121" lon="10.176669701633662"><ele>226.0</ele><time>2026-04-27T07:45:58.007Z</time></trkpt><trkpt lat="45.882919999289975" lon="10.176783000794892"><ele>226.0</ele><time>2026-04-27T07:45:59.006Z</time></trkpt><trkpt lat="45.88302005728378" lon="10.176888507959218"><ele>226.0</ele><time>2026-04-27T07:46:00.007Z</time></trkpt><trkpt lat="45.883117592753564" lon="10.1769941446083"><ele>226.0</ele><time>2026-04-27T07:46:01.007Z</time></trkpt><trkpt lat="45.883212242747604" lon="10.17710937250909"><ele>226.0</ele><time>2026-04-27T07:46:02.007Z</time></trkpt><trkpt lat="45.88331495026612" lon="10.177216433080183"><ele>226.0</ele><time>2026-04-27T07:46:03.007Z</time></trkpt><trkpt lat="45.88340887325754" lon="10.177322031929982"><ele>226.0</ele><time>2026-04-27T07:46:04.007Z</time></trkpt><trkpt lat="45.8835009711974" lon="10.177433167753856"><ele>226.0</ele><time>2026-04-27T07:46:05.007Z</time></trkpt><trkpt lat="45.883593373784734" lon="10.177551600314837"><ele>226.0</ele><time>2026-04-27T07:46:06.007Z</time></trkpt><trkpt lat="45.88368978693919" lon="10.17768092966123"><ele>225.75</ele><time>2026-04-27T07:46:07.007Z</time></trkpt><trkpt lat="45.883785137290396" lon="10.17781630568783"><ele>225.5</ele><time>2026-04-27T07:46:08.007Z</time></trkpt><trkpt lat="45.88388434853871" lon="10.17795289515673"><ele>225.25</ele><time>2026-04-27T07:46:09.007Z</time></trkpt><trkpt lat="45.88397320941349" lon="10.178113010471908"><ele>225.0</ele><time>2026-04-27T07:46:10.007Z</time></trkpt><trkpt lat="45.884086143450496" lon="10.178250290301142"><ele>225.0</ele><time>2026-04-27T07:46:11.007Z</time></trkpt><trkpt lat="45.884174977039656" lon="10.178413665545037"><ele>225.0</ele><time>2026-04-27T07:46:12.007Z</time></trkpt><trkpt lat="45.88423473108866" lon="10.178580387602308"><ele>225.0</ele><time>2026-04-27T07:46:13.007Z</time></trkpt><trkpt lat="45.88430175246786" lon="10.178706888278796"><ele>225.0</ele><time>2026-04-27T07:46:14.007Z</time></trkpt><trkpt lat="45.884353296049795" lon="10.17883910978082"><ele>225.4</ele><time>2026-04-27T07:46:15.007Z</time></trkpt><trkpt lat="45.88439437850007" lon="10.178970116301782"><ele>225.8</ele><time>2026-04-27T07:46:16.007Z</time></trkpt><trkpt lat="45.88443353287252" lon="10.17909912178488"><ele>226.2</ele><time>2026-04-27T07:46:17.007Z</time></trkpt><trkpt lat="45.88446733322576" lon="10.179217337751878"><ele>226.6</ele><time>2026-04-27T07:46:18.007Z</time></trkpt><trkpt lat="45.88450595229171" lon="10.17932724783805"><ele>227.0</ele><time>2026-04-27T07:46:19.007Z</time></trkpt><trkpt lat="45.88453973652272" lon="10.179428266453996"><ele>227.00000000000003</ele><time>2026-04-27T07:46:20.007Z</time></trkpt><trkpt lat="45.88457521646831" lon="10.179569587223412"><ele>227.0</ele><time>2026-04-27T07:46:22.007Z</time></trkpt><trkpt lat="45.88459916728271" lon="10.179668420539176"><ele>227.0</ele><time>2026-04-27T07:46:25.007Z</time></trkpt><trkpt lat="45.88462771039483" lon="10.179757547253562"><ele>227.0</ele><time>2026-04-27T07:46:29.007Z</time></trkpt><trkpt lat="45.88467318388367" lon="10.179849379396229"><ele>227.00000000000003</ele><time>2026-04-27T07:46:31.007Z</time></trkpt><trkpt lat="45.8847384411822" lon="10.179968845865648"><ele>227.0</ele><time>2026-04-27T07:46:33.007Z</time></trkpt><trkpt lat="45.88481679366385" lon="10.18009094339182"><ele>227.0</ele><time>2026-04-27T07:46:35.007Z</time></trkpt><trkpt lat="45.884856405767486" lon="10.180165737678369"><ele>227.00000000000003</ele><time>2026-04-27T07:46:36.007Z</time></trkpt><trkpt lat="45.88490638958807" lon="10.180237353371766"><ele>227.0</ele><time>2026-04-27T07:46:37.007Z</time></trkpt><trkpt lat="45.884950109752715" lon="10.180309801204347"><ele>227.0</ele><time>2026-04-27T07:46:38.007Z</time></trkpt><trkpt lat="45.885006414326654" lon="10.180387391928702"><ele>227.00000000000003</ele><time>2026-04-27T07:46:39.007Z</time></trkpt><trkpt lat="45.885056635273614" lon="10.180460729266379"><ele>227.0</ele><time>2026-04-27T07:46:40.007Z</time></trkpt><trkpt lat="45.8851237699387" lon="10.18053350003286"><ele>227.0</ele><time>2026-04-27T07:46:41.007Z</time></trkpt><trkpt lat="45.88520906545977" lon="10.18059539092111"><ele>226.8</ele><time>2026-04-27T07:46:42.007Z</time></trkpt><trkpt lat="45.88530484669591" lon="10.180670011441967"><ele>226.6</ele><time>2026-04-27T07:46:43.007Z</time></trkpt><trkpt lat="45.88541386427286" lon="10.18070997097559"><ele>226.40000000000003</ele><time>2026-04-27T07:46:44.007Z</time></trkpt><trkpt lat="45.8855250724969" lon="10.180732875104033"><ele>226.20000000000002</ele><time>2026-04-27T07:46:45.007Z</time></trkpt><trkpt lat="45.885632937846815" lon="10.18074202598182"><ele>226.0</ele><time>2026-04-27T07:46:46.007Z</time></trkpt><trkpt lat="45.885738685465554" lon="10.18075128879752"><ele>226.0</ele><time>2026-04-27T07:46:47.007Z</time></trkpt><trkpt lat="45.88585504038793" lon="10.180747823296509"><ele>226.0</ele><time>2026-04-27T07:46:48.007Z</time></trkpt><trkpt lat="45.885979595830584" lon="10.180808891291287"><ele>226.0</ele><time>2026-04-27T07:46:49.007Z</time></trkpt><trkpt lat="45.886099177891005" lon="10.180904996537434"><ele>226.0</ele><time>2026-04-27T07:46:50.007Z</time></trkpt><trkpt lat="45.886214719489445" lon="10.181046880308886"><ele>225.25</ele><time>2026-04-27T07:46:51.007Z</time></trkpt><trkpt lat="45.8863382652498" lon="10.181193214244418"><ele>224.5</ele><time>2026-04-27T07:46:52.007Z</time></trkpt><trkpt lat="45.88645081479259" lon="10.181327801875561"><ele>223.75</ele><time>2026-04-27T07:46:53.007Z</time></trkpt><trkpt lat="45.886553416714115" lon="10.181450494003538"><ele>223.0</ele><time>2026-04-27T07:46:54.007Z</time></trkpt><trkpt lat="45.88665421496073" lon="10.181572015454165"><ele>223.0</ele><time>2026-04-27T07:46:55.007Z</time></trkpt><trkpt lat="45.88675580551223" lon="10.181693569416737"><ele>223.0</ele><time>2026-04-27T07:46:56.007Z</time></trkpt><trkpt lat="45.88685732843665" lon="10.181807871191207"><ele>223.0</ele><time>2026-04-27T07:46:57.007Z</time></trkpt><trkpt lat="45.88695160676453" lon="10.181919896435357"><ele>223.0</ele><time>2026-04-27T07:46:58.007Z</time></trkpt><trkpt lat="45.88704655472872" lon="10.182037054330106"><ele>228.0</ele><time>2026-04-27T07:46:59.007Z</time></trkpt><trkpt lat="45.887135033018396" lon="10.182162091637853"><ele>233.0</ele><time>2026-04-27T07:47:00.007Z</time></trkpt><trkpt lat="45.88721821058477" lon="10.182300970134204"><ele>238.0</ele><time>2026-04-27T07:47:01.007Z</time></trkpt><trkpt lat="45.88729313390532" lon="10.182454130072282"><ele>243.0</ele><time>2026-04-27T07:47:02.007Z</time></trkpt><trkpt lat="45.88735957552136" lon="10.182606334580822"><ele>243.0</ele><time>2026-04-27T07:47:03.007Z</time></trkpt><trkpt lat="45.88743125859191" lon="10.182770023019321"><ele>243.0</ele><time>2026-04-27T07:47:04.007Z</time></trkpt><trkpt lat="45.88749999092295" lon="10.182924578653438"><ele>243.0</ele><time>2026-04-27T07:47:05.007Z</time></trkpt><trkpt lat="45.887555675776156" lon="10.183090387893722"><ele>243.0</ele><time>2026-04-27T07:47:06.007Z</time></trkpt><trkpt lat="45.88765278915362" lon="10.183251927119102"><ele>244.25</ele><time>2026-04-27T07:47:07.007Z</time></trkpt><trkpt lat="45.88776101273389" lon="10.183395920863097"><ele>245.5</ele><time>2026-04-27T07:47:08.007Z</time></trkpt><trkpt lat="45.88787344065303" lon="10.18352049459357"><ele>246.75</ele><time>2026-04-27T07:47:09.007Z</time></trkpt><trkpt lat="45.887993858259655" lon="10.183632391208306"><ele>248.0</ele><time>2026-04-27T07:47:10.007Z</time></trkpt><trkpt lat="45.88810361031725" lon="10.183709030757184"><ele>248.0</ele><time>2026-04-27T07:47:11.007Z</time></trkpt><trkpt lat="45.88823081920721" lon="10.183784545982107"><ele>248.0</ele><time>2026-04-27T07:47:12.007Z</time></trkpt><trkpt lat="45.88835391255081" lon="10.183831634064738"><ele>248.0</ele><time>2026-04-27T07:47:13.007Z</time></trkpt><trkpt lat="45.888468191117084" lon="10.183880097356298"><ele>248.0</ele><time>2026-04-27T07:47:14.007Z</time></trkpt><trkpt lat="45.88858259358036" lon="10.183938137053499"><ele>243.75</ele><time>2026-04-27T07:47:15.007Z</time></trkpt><trkpt lat="45.88869341052797" lon="10.184007227932174"><ele>239.5</ele><time>2026-04-27T07:47:16.007Z</time></trkpt><trkpt lat="45.88881001936781" lon="10.184046695745659"><ele>235.25</ele><time>2026-04-27T07:47:17.007Z</time></trkpt><trkpt lat="45.88891809357958" lon="10.18413345901986"><ele>231.0</ele><time>2026-04-27T07:47:18.007Z</time></trkpt><trkpt lat="45.88902055626071" lon="10.184238468663413"><ele>231.0</ele><time>2026-04-27T07:47:19.007Z</time></trkpt><trkpt lat="45.8891073652908" lon="10.184334549493661"><ele>231.00000000000003</ele><time>2026-04-27T07:47:20.007Z</time></trkpt><trkpt lat="45.889199562269226" lon="10.184432029692417"><ele>231.00000000000003</ele><time>2026-04-27T07:47:21.007Z</time></trkpt><trkpt lat="45.88929160250212" lon="10.18454411532051"><ele>231.0</ele><time>2026-04-27T07:47:22.007Z</time></trkpt><trkpt lat="45.889362845892464" lon="10.184641271848982"><ele>231.0</ele><time>2026-04-27T07:47:23.007Z</time></trkpt><trkpt lat="45.88942226476265" lon="10.1847152444606"><ele>230.4</ele><time>2026-04-27T07:47:24.007Z</time></trkpt><trkpt lat="45.88947586598967" lon="10.184795321458825"><ele>229.8</ele><time>2026-04-27T07:47:25.007Z</time></trkpt><trkpt lat="45.8895344774861" lon="10.184926029875642"><ele>229.20000000000002</ele><time>2026-04-27T07:47:27.007Z</time></trkpt><trkpt lat="45.889596318490355" lon="10.185003608659626"><ele>228.60000000000002</ele><time>2026-04-27T07:47:28.007Z</time></trkpt><trkpt lat="45.889657602363485" lon="10.185126269841493"><ele>228.0</ele><time>2026-04-27T07:47:29.007Z</time></trkpt><trkpt lat="45.889748532597615" lon="10.185271957840081"><ele>228.0</ele><time>2026-04-27T07:47:30.007Z</time></trkpt><trkpt lat="45.88983405673863" lon="10.185427291515948"><ele>228.0</ele><time>2026-04-27T07:47:31.007Z</time></trkpt><trkpt lat="45.88992515017781" lon="10.185570319527674"><ele>228.0</ele><time>2026-04-27T07:47:32.007Z</time></trkpt><trkpt lat="45.8900092810495" lon="10.18569467075812"><ele>228.0</ele><time>2026-04-27T07:47:33.007Z</time></trkpt><trkpt lat="45.890099853937315" lon="10.18580333373293"><ele>227.83333333333334</ele><time>2026-04-27T07:47:34.007Z</time></trkpt><trkpt lat="45.89017821067386" lon="10.185896837754994"><ele>227.66666666666669</ele><time>2026-04-27T07:47:35.007Z</time></trkpt><trkpt lat="45.890237944081576" lon="10.185968639915405"><ele>227.5</ele><time>2026-04-27T07:47:36.007Z</time></trkpt><trkpt lat="45.89029230191423" lon="10.186030010506592"><ele>227.33333333333334</ele><time>2026-04-27T07:47:37.007Z</time></trkpt><trkpt lat="45.89036039333612" lon="10.186097441341838"><ele>227.16666666666669</ele><time>2026-04-27T07:47:39.007Z</time></trkpt><trkpt lat="45.890428689906955" lon="10.186173452798089"><ele>227.0</ele><time>2026-04-27T07:47:43.007Z</time></trkpt><trkpt lat="45.89050200781613" lon="10.186232111926051"><ele>227.00000000000003</ele><time>2026-04-27T07:48:30.007Z</time></trkpt><trkpt lat="45.89058249236941" lon="10.18629379029149"><ele>227.0</ele><time>2026-04-27T07:48:32.007Z</time></trkpt><trkpt lat="45.89062330544783" lon="10.186362993534983"><ele>227.0</ele><time>2026-04-27T07:48:33.007Z</time></trkpt><trkpt lat="45.89069048582775" lon="10.186428793756544"><ele>227.0</ele><time>2026-04-27T07:48:34.007Z</time></trkpt><trkpt lat="45.890748871900676" lon="10.186485475503115"><ele>227.00000000000003</ele><time>2026-04-27T07:48:35.007Z</time></trkpt><trkpt lat="45.890814388838784" lon="10.186560335489357"><ele>227.0</ele><time>2026-04-27T07:48:36.007Z</time></trkpt><trkpt lat="45.89088948744998" lon="10.186640500648283"><ele>226.0</ele><time>2026-04-27T07:48:37.007Z</time></trkpt><trkpt lat="45.890971007259274" lon="10.186725824421384"><ele>225.0</ele><time>2026-04-27T07:48:38.007Z</time></trkpt><trkpt lat="45.89105100761707" lon="10.186818704842025"><ele>224.0</ele><time>2026-04-27T07:48:39.007Z</time></trkpt><trkpt lat="45.89113395878527" lon="10.186912380860061"><ele>223.0</ele><time>2026-04-27T07:48:40.007Z</time></trkpt><trkpt lat="45.89121776859004" lon="10.187002058356455"><ele>222.0</ele><time>2026-04-27T07:48:41.007Z</time></trkpt><trkpt lat="45.891306566364186" lon="10.18709487229215"><ele>222.0</ele><time>2026-04-27T07:48:42.007Z</time></trkpt><trkpt lat="45.89140620727087" lon="10.187197808735846"><ele>222.0</ele><time>2026-04-27T07:48:43.007Z</time></trkpt><trkpt lat="45.89150219138945" lon="10.18729877515498"><ele>222.0</ele><time>2026-04-27T07:48:44.007Z</time></trkpt><trkpt lat="45.89159688067436" lon="10.187405288238933"><ele>222.0</ele><time>2026-04-27T07:48:45.007Z</time></trkpt><trkpt lat="45.89170187735223" lon="10.187510470553187"><ele>222.0</ele><time>2026-04-27T07:48:46.007Z</time></trkpt><trkpt lat="45.89178041422362" lon="10.187629516905025"><ele>222.0</ele><time>2026-04-27T07:48:47.007Z</time></trkpt><trkpt lat="45.89188064605061" lon="10.187730998249124"><ele>222.0</ele><time>2026-04-27T07:48:48.007Z</time></trkpt><trkpt lat="45.89197481196464" lon="10.187828826638535"><ele>222.0</ele><time>2026-04-27T07:48:49.007Z</time></trkpt><trkpt lat="45.89207804620507" lon="10.18792410832141"><ele>222.0</ele><time>2026-04-27T07:48:50.007Z</time></trkpt><trkpt lat="45.89217699279974" lon="10.188020810923202"><ele>222.0</ele><time>2026-04-27T07:48:51.007Z</time></trkpt><trkpt lat="45.89230367918858" lon="10.188118318417754"><ele>222.0</ele><time>2026-04-27T07:48:52.007Z</time></trkpt><trkpt lat="45.89242081919837" lon="10.188200232143153"><ele>222.0</ele><time>2026-04-27T07:48:53.007Z</time></trkpt><trkpt lat="45.892531393005086" lon="10.188273252893927"><ele>221.75</ele><time>2026-04-27T07:48:54.007Z</time></trkpt><trkpt lat="45.892644269305045" lon="10.188334187969353"><ele>221.5</ele><time>2026-04-27T07:48:55.007Z</time></trkpt><trkpt lat="45.892733825704056" lon="10.18842381716655"><ele>221.25</ele><time>2026-04-27T07:48:56.007Z</time></trkpt><trkpt lat="45.89284072402312" lon="10.18850013774884"><ele>221.0</ele><time>2026-04-27T07:48:57.007Z</time></trkpt><trkpt lat="45.892949974185385" lon="10.188579210611284"><ele>221.0</ele><time>2026-04-27T07:48:58.006Z</time></trkpt><trkpt lat="45.893057632405885" lon="10.188660889154423"><ele>221.00000000000003</ele><time>2026-04-27T07:48:59.006Z</time></trkpt><trkpt lat="45.89315746074267" lon="10.18873782481936"><ele>221.00000000000003</ele><time>2026-04-27T07:49:00.006Z</time></trkpt><trkpt lat="45.89324013551753" lon="10.188799763135682"><ele>221.0</ele><time>2026-04-27T07:49:01.006Z</time></trkpt><trkpt lat="45.893334829757876" lon="10.18886900721439"><ele>221.0</ele><time>2026-04-27T07:49:02.006Z</time></trkpt><trkpt lat="45.893439724524086" lon="10.188919796825747"><ele>220.66666666666669</ele><time>2026-04-27T07:49:03.006Z</time></trkpt><trkpt lat="45.893568009842625" lon="10.18903807181794"><ele>220.33333333333331</ele><time>2026-04-27T07:49:04.006Z</time></trkpt><trkpt lat="45.89370054351858" lon="10.189125942915235"><ele>220.0</ele><time>2026-04-27T07:49:05.006Z</time></trkpt><trkpt lat="45.89384639002251" lon="10.189217745392627"><ele>220.0</ele><time>2026-04-27T07:49:06.006Z</time></trkpt><trkpt lat="45.89397088261406" lon="10.189324756277433"><ele>220.0</ele><time>2026-04-27T07:49:07.006Z</time></trkpt><trkpt lat="45.8940894014893" lon="10.189410295557387"><ele>220.0</ele><time>2026-04-27T07:49:08.006Z</time></trkpt><trkpt lat="45.89419771458473" lon="10.189488469619132"><ele>220.0</ele><time>2026-04-27T07:49:09.006Z</time></trkpt><trkpt lat="45.89430422100386" lon="10.189565198918968"><ele>220.25</ele><time>2026-04-27T07:49:10.006Z</time></trkpt><trkpt lat="45.894412264348105" lon="10.189643052703136"><ele>220.5</ele><time>2026-04-27T07:49:11.006Z</time></trkpt><trkpt lat="45.89453139103831" lon="10.189728805794267"><ele>220.75</ele><time>2026-04-27T07:49:12.006Z</time></trkpt><trkpt lat="45.89466008343947" lon="10.18982088098896"><ele>221.0</ele><time>2026-04-27T07:49:13.006Z</time></trkpt><trkpt lat="45.894786378131855" lon="10.1899112407507"><ele>221.25</ele><time>2026-04-27T07:49:14.006Z</time></trkpt><trkpt lat="45.89490798205178" lon="10.189998244371814"><ele>221.5</ele><time>2026-04-27T07:49:15.006Z</time></trkpt><trkpt lat="45.895043410808185" lon="10.190095288414593"><ele>221.75</ele><time>2026-04-27T07:49:16.006Z</time></trkpt><trkpt lat="45.89518833055317" lon="10.190199449062357"><ele>222.0</ele><time>2026-04-27T07:49:17.006Z</time></trkpt><trkpt lat="45.89531523595964" lon="10.190290604981394"><ele>222.0</ele><time>2026-04-27T07:49:18.006Z</time></trkpt><trkpt lat="45.89543335138541" lon="10.19037545694575"><ele>222.0</ele><time>2026-04-27T07:49:19.006Z</time></trkpt><trkpt lat="45.89554341679389" lon="10.190455194522242"><ele>222.0</ele><time>2026-04-27T07:49:20.006Z</time></trkpt><trkpt lat="45.89566154087764" lon="10.190540711697553"><ele>222.0</ele><time>2026-04-27T07:49:21.006Z</time></trkpt><trkpt lat="45.895796992231" lon="10.190638773331257"><ele>222.0</ele><time>2026-04-27T07:49:22.006Z</time></trkpt><trkpt lat="45.895956977215306" lon="10.190755076730518"><ele>222.0</ele><time>2026-04-27T07:49:23.006Z</time></trkpt><trkpt lat="45.89614681227164" lon="10.190890250652293"><ele>222.0</ele><time>2026-04-27T07:49:24.006Z</time></trkpt><trkpt lat="45.896346356465" lon="10.1910328608452"><ele>222.0</ele><time>2026-04-27T07:49:25.006Z</time></trkpt><trkpt lat="45.89651528620274" lon="10.191154929540886"><ele>222.0</ele><time>2026-04-27T07:49:26.006Z</time></trkpt><trkpt lat="45.8966492188452" lon="10.191285650821275"><ele>222.0</ele><time>2026-04-27T07:49:27.006Z</time></trkpt><trkpt lat="45.89678985153512" lon="10.191386825829307"><ele>222.0</ele><time>2026-04-27T07:49:28.006Z</time></trkpt><trkpt lat="45.89695103287406" lon="10.19147822252979"><ele>222.0</ele><time>2026-04-27T07:49:29.006Z</time></trkpt><trkpt lat="45.897111413818905" lon="10.191584823182927"><ele>222.0</ele><time>2026-04-27T07:49:30.006Z</time></trkpt><trkpt lat="45.8972457416472" lon="10.191681618182077"><ele>222.0</ele><time>2026-04-27T07:49:31.006Z</time></trkpt><trkpt lat="45.89738952763252" lon="10.191795710181013"><ele>222.0</ele><time>2026-04-27T07:49:32.006Z</time></trkpt><trkpt lat="45.89752669447416" lon="10.191894921272274"><ele>222.0</ele><time>2026-04-27T07:49:33.006Z</time></trkpt><trkpt lat="45.89767147929469" lon="10.19198891352784"><ele>222.0</ele><time>2026-04-27T07:49:34.006Z</time></trkpt><trkpt lat="45.897795641240926" lon="10.19207839828515"><ele>222.0</ele><time>2026-04-27T07:49:35.006Z</time></trkpt><trkpt lat="45.897923671316136" lon="10.192178009423024"><ele>222.0</ele><time>2026-04-27T07:49:36.006Z</time></trkpt><trkpt lat="45.89804502794689" lon="10.192266345688907"><ele>222.0</ele><time>2026-04-27T07:49:37.006Z</time></trkpt><trkpt lat="45.898153467593126" lon="10.192344515548296"><ele>222.0</ele><time>2026-04-27T07:49:38.006Z</time></trkpt><trkpt lat="45.89824724761198" lon="10.19241968950218"><ele>222.0</ele><time>2026-04-27T07:49:39.006Z</time></trkpt><trkpt lat="45.8983498051175" lon="10.19249430771383"><ele>222.0</ele><time>2026-04-27T07:49:40.006Z</time></trkpt><trkpt lat="45.898456341704154" lon="10.1925767757102"><ele>222.0</ele><time>2026-04-27T07:49:41.006Z</time></trkpt><trkpt lat="45.898581926203775" lon="10.192662553417271"><ele>222.0</ele><time>2026-04-27T07:49:42.006Z</time></trkpt><trkpt lat="45.89880432329689" lon="10.192808809342068"><ele>222.0</ele><time>2026-04-27T07:49:44.006Z</time></trkpt><trkpt lat="45.898883458210854" lon="10.192874828866636"><ele>222.0</ele><time>2026-04-27T07:49:45.006Z</time></trkpt><trkpt lat="45.89894689772441" lon="10.192939336074597"><ele>222.0</ele><time>2026-04-27T07:49:46.006Z</time></trkpt><trkpt lat="45.89899732574513" lon="10.19302254743987"><ele>222.0</ele><time>2026-04-27T07:49:47.006Z</time></trkpt><trkpt lat="45.89902151417397" lon="10.19319812988383"><ele>222.0</ele><time>2026-04-27T07:49:49.006Z</time></trkpt><trkpt lat="45.8990005693101" lon="10.193289699316896"><ele>222.0</ele><time>2026-04-27T07:49:50.006Z</time></trkpt><trkpt lat="45.89900693642252" lon="10.19343267057633"><ele>222.0</ele><time>2026-04-27T07:49:52.006Z</time></trkpt><trkpt lat="45.89909173944636" lon="10.193484933413066"><ele>222.0</ele><time>2026-04-27T07:49:53.006Z</time></trkpt><trkpt lat="45.89921036251883" lon="10.193487786514076"><ele>222.33333333333334</ele><time>2026-04-27T07:49:55.006Z</time></trkpt><trkpt lat="45.89931185189637" lon="10.193397764982638"><ele>222.66666666666669</ele><time>2026-04-27T07:49:57.006Z</time></trkpt><trkpt lat="45.8994223362343" lon="10.193381952486044"><ele>223.0</ele><time>2026-04-27T07:49:59.006Z</time></trkpt><trkpt lat="45.89948780872067" lon="10.193398874016529"><ele>223.33333333333334</ele><time>2026-04-27T07:50:00.006Z</time></trkpt><trkpt lat="45.89954946264078" lon="10.193438659834461"><ele>223.66666666666669</ele><time>2026-04-27T07:50:01.006Z</time></trkpt><trkpt lat="45.89961260953688" lon="10.1935004511037"><ele>224.0</ele><time>2026-04-27T07:50:02.007Z</time></trkpt><trkpt lat="45.89967608778137" lon="10.193561948018644"><ele>224.00000000000003</ele><time>2026-04-27T07:50:03.007Z</time></trkpt><trkpt lat="45.89973560733055" lon="10.193637740621101"><ele>224.0</ele><time>2026-04-27T07:50:04.007Z</time></trkpt><trkpt lat="45.89979070651014" lon="10.193720664651911"><ele>224.0</ele><time>2026-04-27T07:50:05.007Z</time></trkpt><trkpt lat="45.899848069155624" lon="10.19380394751794"><ele>224.0</ele><time>2026-04-27T07:50:06.007Z</time></trkpt><trkpt lat="45.89991142755712" lon="10.19389747875108"><ele>224.00000000000003</ele><time>2026-04-27T07:50:07.007Z</time></trkpt><trkpt lat="45.89997573177342" lon="10.193989953036196"><ele>224.0</ele><time>2026-04-27T07:50:08.008Z</time></trkpt><trkpt lat="45.900041671933785" lon="10.194079846449927"><ele>225.0</ele><time>2026-04-27T07:50:09.007Z</time></trkpt><trkpt lat="45.90011972260074" lon="10.194181129524218"><ele>226.0</ele><time>2026-04-27T07:50:10.007Z</time></trkpt><trkpt lat="45.90020658081588" lon="10.194296373776558"><ele>227.0</ele><time>2026-04-27T07:50:11.008Z</time></trkpt><trkpt lat="45.90029507874143" lon="10.19442029727532"><ele>228.0</ele><time>2026-04-27T07:50:12.007Z</time></trkpt><trkpt lat="45.900379064108485" lon="10.194544808841433"><ele>228.0</ele><time>2026-04-27T07:50:13.007Z</time></trkpt><trkpt lat="45.90046227219472" lon="10.194665309046616"><ele>228.0</ele><time>2026-04-27T07:50:14.007Z</time></trkpt><trkpt lat="45.90053980110433" lon="10.194780690856401"><ele>228.0</ele><time>2026-04-27T07:50:15.007Z</time></trkpt><trkpt lat="45.90062014602922" lon="10.194897636218757"><ele>228.0</ele><time>2026-04-27T07:50:16.007Z</time></trkpt><trkpt lat="45.90070771444195" lon="10.19501899720763"><ele>227.0</ele><time>2026-04-27T07:50:17.007Z</time></trkpt><trkpt lat="45.90078438003356" lon="10.195134108345007"><ele>226.0</ele><time>2026-04-27T07:50:18.007Z</time></trkpt><trkpt lat="45.900867554027265" lon="10.195254047851817"><ele>225.0</ele><time>2026-04-27T07:50:19.007Z</time></trkpt><trkpt lat="45.90096149649887" lon="10.19538603104056"><ele>224.0</ele><time>2026-04-27T07:50:20.007Z</time></trkpt><trkpt lat="45.90107685237835" lon="10.195539008043701"><ele>225.0</ele><time>2026-04-27T07:50:21.007Z</time></trkpt><trkpt lat="45.90119683206614" lon="10.19571503169116"><ele>226.0</ele><time>2026-04-27T07:50:22.007Z</time></trkpt><trkpt lat="45.901334678682645" lon="10.19592795207189"><ele>227.0</ele><time>2026-04-27T07:50:23.007Z</time></trkpt><trkpt lat="45.90147940744604" lon="10.19611701967329"><ele>227.0</ele><time>2026-04-27T07:50:24.007Z</time></trkpt><trkpt lat="45.901611873790856" lon="10.196283453353878"><ele>227.0</ele><time>2026-04-27T07:50:25.007Z</time></trkpt><trkpt lat="45.90174245182449" lon="10.19643927892445"><ele>227.0</ele><time>2026-04-27T07:50:26.007Z</time></trkpt><trkpt lat="45.90187754396149" lon="10.196598246089426"><ele>228.0</ele><time>2026-04-27T07:50:27.007Z</time></trkpt><trkpt lat="45.902013804087936" lon="10.196747001430655"><ele>229.0</ele><time>2026-04-27T07:50:28.007Z</time></trkpt><trkpt lat="45.90214288447063" lon="10.196891382972698"><ele>230.0</ele><time>2026-04-27T07:50:29.007Z</time></trkpt><trkpt lat="45.90228756105535" lon="10.19705137513407"><ele>230.0</ele><time>2026-04-27T07:50:30.007Z</time></trkpt><trkpt lat="45.902442870073294" lon="10.197223772618068"><ele>230.0</ele><time>2026-04-27T07:50:31.007Z</time></trkpt><trkpt lat="45.902598863628846" lon="10.197422597523877"><ele>230.0</ele><time>2026-04-27T07:50:32.007Z</time></trkpt><trkpt lat="45.90274705731014" lon="10.197599711429302"><ele>231.0</ele><time>2026-04-27T07:50:33.007Z</time></trkpt><trkpt lat="45.90288790520258" lon="10.197759929105239"><ele>232.0</ele><time>2026-04-27T07:50:34.007Z</time></trkpt><trkpt lat="45.90300808703701" lon="10.19791041861965"><ele>233.0</ele><time>2026-04-27T07:50:35.007Z</time></trkpt><trkpt lat="45.90311024383575" lon="10.198074725811365"><ele>233.33333333333334</ele><time>2026-04-27T07:50:36.007Z</time></trkpt><trkpt lat="45.90323229067912" lon="10.198217870863715"><ele>233.66666666666669</ele><time>2026-04-27T07:50:37.007Z</time></trkpt><trkpt lat="45.90335918726111" lon="10.19836813805422"><ele>234.0</ele><time>2026-04-27T07:50:38.007Z</time></trkpt><trkpt lat="45.90347543210987" lon="10.198511803300434"><ele>234.0</ele><time>2026-04-27T07:50:39.007Z</time></trkpt><trkpt lat="45.90360451810738" lon="10.198661420856997"><ele>234.0</ele><time>2026-04-27T07:50:40.007Z</time></trkpt><trkpt lat="45.90372450103886" lon="10.198793452356984"><ele>234.0</ele><time>2026-04-27T07:50:41.007Z</time></trkpt><trkpt lat="45.90383014825744" lon="10.198911376243439"><ele>232.5</ele><time>2026-04-27T07:50:42.007Z</time></trkpt><trkpt lat="45.903928666780615" lon="10.199025409155004"><ele>231.0</ele><time>2026-04-27T07:50:43.007Z</time></trkpt><trkpt lat="45.90401369858525" lon="10.199128853516005"><ele>229.5</ele><time>2026-04-27T07:50:44.007Z</time></trkpt><trkpt lat="45.904099121983165" lon="10.19923012817934"><ele>228.0</ele><time>2026-04-27T07:50:45.007Z</time></trkpt><trkpt lat="45.9041827204902" lon="10.199340322715218"><ele>230.75</ele><time>2026-04-27T07:50:46.007Z</time></trkpt><trkpt lat="45.90427647276968" lon="10.19944740771828"><ele>233.5</ele><time>2026-04-27T07:50:47.007Z</time></trkpt><trkpt lat="45.904363131638284" lon="10.199550164244966"><ele>236.25</ele><time>2026-04-27T07:50:48.007Z</time></trkpt><trkpt lat="45.90445678566448" lon="10.199656703311783"><ele>239.0</ele><time>2026-04-27T07:50:49.007Z</time></trkpt><trkpt lat="45.90455269950942" lon="10.199766163175639"><ele>236.5</ele><time>2026-04-27T07:50:50.007Z</time></trkpt><trkpt lat="45.90465305712127" lon="10.19987872269239"><ele>234.0</ele><time>2026-04-27T07:50:51.007Z</time></trkpt><trkpt lat="45.90474737738573" lon="10.199986385359658"><ele>231.5</ele><time>2026-04-27T07:50:52.007Z</time></trkpt><trkpt lat="45.90486017967438" lon="10.200111505692437"><ele>229.0</ele><time>2026-04-27T07:50:53.007Z</time></trkpt><trkpt lat="45.904976462548504" lon="10.200250035771637"><ele>229.66666666666666</ele><time>2026-04-27T07:50:54.007Z</time></trkpt><trkpt lat="45.90511069372444" lon="10.200393499141592"><ele>230.33333333333331</ele><time>2026-04-27T07:50:55.007Z</time></trkpt><trkpt lat="45.90524883264746" lon="10.20055980004081"><ele>231.0</ele><time>2026-04-27T07:50:56.007Z</time></trkpt><trkpt lat="45.90536618971855" lon="10.200710882652045"><ele>231.0</ele><time>2026-04-27T07:50:57.007Z</time></trkpt><trkpt lat="45.90547346674349" lon="10.200847502112763"><ele>231.0</ele><time>2026-04-27T07:50:58.007Z</time></trkpt><trkpt lat="45.90557453350545" lon="10.200976435505298"><ele>231.0</ele><time>2026-04-27T07:50:59.007Z</time></trkpt><trkpt lat="45.90567508638453" lon="10.201102516373178"><ele>231.0</ele><time>2026-04-27T07:51:00.007Z</time></trkpt><trkpt lat="45.90578563768074" lon="10.201230842320323"><ele>231.0</ele><time>2026-04-27T07:51:01.007Z</time></trkpt><trkpt lat="45.90590276762537" lon="10.20136115629063"><ele>231.0</ele><time>2026-04-27T07:51:02.007Z</time></trkpt><trkpt lat="45.90602004676321" lon="10.201498654553598"><ele>231.0</ele><time>2026-04-27T07:51:03.007Z</time></trkpt><trkpt lat="45.90611532195467" lon="10.201606455905626"><ele>231.0</ele><time>2026-04-27T07:51:04.007Z</time></trkpt><trkpt lat="45.906167338407364" lon="10.201737298692198"><ele>232.0</ele><time>2026-04-27T07:51:05.007Z</time></trkpt><trkpt lat="45.90623899088026" lon="10.20182679902283"><ele>233.00000000000003</ele><time>2026-04-27T07:51:06.007Z</time></trkpt><trkpt lat="45.90631522316626" lon="10.20191837785924"><ele>234.00000000000003</ele><time>2026-04-27T07:51:07.007Z</time></trkpt><trkpt lat="45.906396178729395" lon="10.202011249366254"><ele>235.0</ele><time>2026-04-27T07:51:08.007Z</time></trkpt><trkpt lat="45.906477379246304" lon="10.202103609482853"><ele>236.0</ele><time>2026-04-27T07:51:09.007Z</time></trkpt><trkpt lat="45.906539887666675" lon="10.202176221722787"><ele>236.0</ele><time>2026-04-27T07:51:10.007Z</time></trkpt><trkpt lat="45.906601062341274" lon="10.202246791471781"><ele>236.00000000000003</ele><time>2026-04-27T07:51:11.007Z</time></trkpt><trkpt lat="45.906664625223335" lon="10.2023215598144"><ele>236.00000000000003</ele><time>2026-04-27T07:51:12.007Z</time></trkpt><trkpt lat="45.90672697618509" lon="10.202389215217215"><ele>236.0</ele><time>2026-04-27T07:51:13.007Z</time></trkpt><trkpt lat="45.90680974998686" lon="10.202489524990268"><ele>236.0</ele><time>2026-04-27T07:51:15.007Z</time></trkpt><trkpt lat="45.90689595087574" lon="10.202633059617812"><ele>235.60000000000002</ele><time>2026-04-27T07:51:25.007Z</time></trkpt><trkpt lat="45.906959812611596" lon="10.202747280929678"><ele>235.20000000000002</ele><time>2026-04-27T07:51:27.007Z</time></trkpt><trkpt lat="45.90699855110519" lon="10.202823484380653"><ele>234.79999999999998</ele><time>2026-04-27T07:51:28.007Z</time></trkpt><trkpt lat="45.90707089610849" lon="10.20297055040808"><ele>234.39999999999998</ele><time>2026-04-27T07:51:30.007Z</time></trkpt><trkpt lat="45.90713935818519" lon="10.20311190951992"><ele>234.0</ele><time>2026-04-27T07:51:32.007Z</time></trkpt><trkpt lat="45.907201617437714" lon="10.203244418844033"><ele>233.83333333333334</ele><time>2026-04-27T07:51:34.007Z</time></trkpt><trkpt lat="45.90725714531285" lon="10.203382313918322"><ele>233.66666666666669</ele><time>2026-04-27T07:51:36.007Z</time></trkpt><trkpt lat="45.90730765714971" lon="10.203496701622544"><ele>233.5</ele><time>2026-04-27T07:51:38.007Z</time></trkpt><trkpt lat="45.90735320984711" lon="10.203616442400252"><ele>233.33333333333334</ele><time>2026-04-27T07:51:40.007Z</time></trkpt><trkpt lat="45.907402109392876" lon="10.203681730441927"><ele>233.16666666666669</ele><time>2026-04-27T07:51:41.007Z</time></trkpt><trkpt lat="45.90743872626891" lon="10.203780787269256"><ele>233.0</ele><time>2026-04-27T07:51:42.007Z</time></trkpt><trkpt lat="45.907491484954654" lon="10.203897088560781"><ele>232.25</ele><time>2026-04-27T07:51:43.007Z</time></trkpt><trkpt lat="45.90755007472527" lon="10.204026244093855"><ele>231.5</ele><time>2026-04-27T07:51:44.007Z</time></trkpt><trkpt lat="45.90760898519508" lon="10.204156106349888"><ele>230.75</ele><time>2026-04-27T07:51:45.007Z</time></trkpt><trkpt lat="45.90768266314174" lon="10.204277189901394"><ele>230.0</ele><time>2026-04-27T07:51:46.007Z</time></trkpt><trkpt lat="45.90772774488009" lon="10.204455292581828"><ele>231.25</ele><time>2026-04-27T07:51:47.007Z</time></trkpt><trkpt lat="45.90779739737167" lon="10.20463476076483"><ele>232.5</ele><time>2026-04-27T07:51:48.007Z</time></trkpt><trkpt lat="45.90786582372688" lon="10.204823536220827"><ele>233.75</ele><time>2026-04-27T07:51:49.007Z</time></trkpt><trkpt lat="45.90793854448179" lon="10.205011275621025"><ele>235.0</ele><time>2026-04-27T07:51:50.007Z</time></trkpt><trkpt lat="45.90801247010506" lon="10.205196130139315"><ele>235.0</ele><time>2026-04-27T07:51:51.007Z</time></trkpt><trkpt lat="45.90809048099475" lon="10.205395995925285"><ele>235.0</ele><time>2026-04-27T07:51:52.007Z</time></trkpt><trkpt lat="45.90815642695934" lon="10.205594034524253"><ele>235.0</ele><time>2026-04-27T07:51:53.007Z</time></trkpt><trkpt lat="45.90822667916907" lon="10.205788366611392"><ele>236.0</ele><time>2026-04-27T07:51:54.007Z</time></trkpt><trkpt lat="45.908291004231444" lon="10.205970003353542"><ele>237.0</ele><time>2026-04-27T07:51:55.007Z</time></trkpt><trkpt lat="45.90832212556873" lon="10.206118178658476"><ele>238.0</ele><time>2026-04-27T07:51:56.007Z</time></trkpt><trkpt lat="45.90836598259189" lon="10.20626376948023"><ele>239.0</ele><time>2026-04-27T07:51:57.007Z</time></trkpt><trkpt lat="45.908424694669996" lon="10.206423055840526"><ele>237.75</ele><time>2026-04-27T07:51:58.007Z</time></trkpt><trkpt lat="45.90849304954062" lon="10.206599434830682"><ele>236.5</ele><time>2026-04-27T07:51:59.007Z</time></trkpt><trkpt lat="45.90858842636667" lon="10.206762615560816"><ele>235.25</ele><time>2026-04-27T07:52:00.007Z</time></trkpt><trkpt lat="45.90869904151657" lon="10.206918846947438"><ele>234.0</ele><time>2026-04-27T07:52:01.007Z</time></trkpt><trkpt lat="45.90880646590828" lon="10.207025434010475"><ele>234.0</ele><time>2026-04-27T07:52:02.007Z</time></trkpt><trkpt lat="45.908916386765384" lon="10.207107232937526"><ele>234.0</ele><time>2026-04-27T07:52:03.007Z</time></trkpt><trkpt lat="45.90900978872992" lon="10.207188077308293"><ele>234.0</ele><time>2026-04-27T07:52:04.007Z</time></trkpt><trkpt lat="45.90910416084908" lon="10.207261321458788"><ele>234.0</ele><time>2026-04-27T07:52:05.007Z</time></trkpt><trkpt lat="45.90920795248908" lon="10.207336310134306"><ele>233.75</ele><time>2026-04-27T07:52:06.007Z</time></trkpt><trkpt lat="45.90931023854773" lon="10.20742761403295"><ele>233.5</ele><time>2026-04-27T07:52:07.007Z</time></trkpt><trkpt lat="45.90941718298055" lon="10.207517691534935"><ele>233.25</ele><time>2026-04-27T07:52:08.008Z</time></trkpt><trkpt lat="45.909518022362406" lon="10.20759596021837"><ele>233.0</ele><time>2026-04-27T07:52:09.008Z</time></trkpt><trkpt lat="45.90957514114572" lon="10.207704110145047"><ele>233.0</ele><time>2026-04-27T07:52:10.008Z</time></trkpt><trkpt lat="45.90968726018006" lon="10.207793475137501"><ele>233.0</ele><time>2026-04-27T07:52:11.008Z</time></trkpt><trkpt lat="45.90981551012759" lon="10.207880019903598"><ele>233.0</ele><time>2026-04-27T07:52:12.007Z</time></trkpt><trkpt lat="45.90995112754914" lon="10.207953824143766"><ele>233.0</ele><time>2026-04-27T07:52:13.007Z</time></trkpt><trkpt lat="45.91008942425367" lon="10.208019643677101"><ele>233.0</ele><time>2026-04-27T07:52:14.008Z</time></trkpt><trkpt lat="45.910204287167765" lon="10.208078143394555"><ele>233.0</ele><time>2026-04-27T07:52:15.008Z</time></trkpt><trkpt lat="45.91028959617711" lon="10.208117517306977"><ele>233.0</ele><time>2026-04-27T07:52:16.008Z</time></trkpt><trkpt lat="45.91037155158288" lon="10.20815878365458"><ele>233.0</ele><time>2026-04-27T07:52:17.008Z</time></trkpt><trkpt lat="45.910469333633515" lon="10.20821020608993"><ele>233.0</ele><time>2026-04-27T07:52:18.008Z</time></trkpt><trkpt lat="45.91057845334224" lon="10.20826939877167"><ele>233.0</ele><time>2026-04-27T07:52:19.008Z</time></trkpt><trkpt lat="45.9106933298334" lon="10.20835066626629"><ele>233.0</ele><time>2026-04-27T07:52:20.007Z</time></trkpt><trkpt lat="45.91081428515288" lon="10.208441604727978"><ele>233.0</ele><time>2026-04-27T07:52:21.008Z</time></trkpt><trkpt lat="45.91094938220871" lon="10.20854165788541"><ele>233.0</ele><time>2026-04-27T07:52:22.008Z</time></trkpt><trkpt lat="45.91109926947272" lon="10.208684662155616"><ele>233.5</ele><time>2026-04-27T07:52:23.008Z</time></trkpt><trkpt lat="45.911237357145126" lon="10.20881426777294"><ele>234.0</ele><time>2026-04-27T07:52:24.008Z</time></trkpt><trkpt lat="45.911351363452106" lon="10.208912536645753"><ele>234.5</ele><time>2026-04-27T07:52:25.008Z</time></trkpt><trkpt lat="45.91145686181864" lon="10.209010214760296"><ele>235.0</ele><time>2026-04-27T07:52:26.008Z</time></trkpt><trkpt lat="45.911555583887534" lon="10.209122230331843"><ele>234.5</ele><time>2026-04-27T07:52:27.008Z</time></trkpt><trkpt lat="45.91165396185755" lon="10.209231966068758"><ele>234.0</ele><time>2026-04-27T07:52:28.008Z</time></trkpt><trkpt lat="45.9117716865358" lon="10.20932899605058"><ele>233.5</ele><time>2026-04-27T07:52:29.008Z</time></trkpt><trkpt lat="45.9118771637044" lon="10.209439931011913"><ele>233.0</ele><time>2026-04-27T07:52:30.008Z</time></trkpt><trkpt lat="45.911979005032904" lon="10.209553026537554"><ele>233.0</ele><time>2026-04-27T07:52:31.008Z</time></trkpt><trkpt lat="45.912087302003364" lon="10.209691312805122"><ele>233.0</ele><time>2026-04-27T07:52:32.008Z</time></trkpt><trkpt lat="45.91222696488436" lon="10.209866367413225"><ele>233.0</ele><time>2026-04-27T07:52:33.008Z</time></trkpt><trkpt lat="45.91237073114764" lon="10.210081594910957"><ele>232.66666666666669</ele><time>2026-04-27T07:52:34.008Z</time></trkpt><trkpt lat="45.91251703014824" lon="10.210297968643422"><ele>232.33333333333331</ele><time>2026-04-27T07:52:35.008Z</time></trkpt><trkpt lat="45.91264810703685" lon="10.210515762940922"><ele>232.0</ele><time>2026-04-27T07:52:36.008Z</time></trkpt><trkpt lat="45.91278612549349" lon="10.210719406634146"><ele>233.0</ele><time>2026-04-27T07:52:37.008Z</time></trkpt><trkpt lat="45.91293164490615" lon="10.210928865232926"><ele>234.0</ele><time>2026-04-27T07:52:38.008Z</time></trkpt><trkpt lat="45.913070132944355" lon="10.211135728195613"><ele>235.0</ele><time>2026-04-27T07:52:39.008Z</time></trkpt><trkpt lat="45.91320071617094" lon="10.211331809805314"><ele>234.0</ele><time>2026-04-27T07:52:40.008Z</time></trkpt><trkpt lat="45.91332631209236" lon="10.211512885994402"><ele>233.0</ele><time>2026-04-27T07:52:41.008Z</time></trkpt><trkpt lat="45.913442099294514" lon="10.211680809916956"><ele>232.0</ele><time>2026-04-27T07:52:42.008Z</time></trkpt><trkpt lat="45.913555820377084" lon="10.211854059206754"><ele>232.33333333333331</ele><time>2026-04-27T07:52:43.008Z</time></trkpt><trkpt lat="45.913674984388074" lon="10.212033016927013"><ele>232.66666666666669</ele><time>2026-04-27T07:52:44.008Z</time></trkpt><trkpt lat="45.913786567913625" lon="10.212215828475266"><ele>233.0</ele><time>2026-04-27T07:52:45.008Z</time></trkpt><trkpt lat="45.91390257063041" lon="10.212411779263663"><ele>233.0</ele><time>2026-04-27T07:52:46.008Z</time></trkpt><trkpt lat="45.91401640599076" lon="10.21260196803983"><ele>233.0</ele><time>2026-04-27T07:52:47.008Z</time></trkpt><trkpt lat="45.91413594699913" lon="10.2127930292511"><ele>233.0</ele><time>2026-04-27T07:52:48.008Z</time></trkpt><trkpt lat="45.9142366538539" lon="10.212972712626586"><ele>234.33333333333334</ele><time>2026-04-27T07:52:49.008Z</time></trkpt><trkpt lat="45.91433774254221" lon="10.213161974156835"><ele>235.66666666666669</ele><time>2026-04-27T07:52:50.008Z</time></trkpt><trkpt lat="45.91441549474494" lon="10.213346066591427"><ele>237.0</ele><time>2026-04-27T07:52:51.008Z</time></trkpt><trkpt lat="45.91450131849047" lon="10.213541932723967"><ele>237.0</ele><time>2026-04-27T07:52:52.008Z</time></trkpt><trkpt lat="45.91457868634034" lon="10.213732427528182"><ele>237.0</ele><time>2026-04-27T07:52:53.008Z</time></trkpt><trkpt lat="45.91466393809216" lon="10.213911944455718"><ele>237.0</ele><time>2026-04-27T07:52:54.008Z</time></trkpt><trkpt lat="45.91474911661642" lon="10.21408903366192"><ele>236.25</ele><time>2026-04-27T07:52:55.008Z</time></trkpt><trkpt lat="45.91482753009144" lon="10.214259998816983"><ele>235.5</ele><time>2026-04-27T07:52:56.008Z</time></trkpt><trkpt lat="45.91490581762919" lon="10.214435107241673"><ele>234.75</ele><time>2026-04-27T07:52:57.008Z</time></trkpt><trkpt lat="45.91498559979876" lon="10.214606020785196"><ele>234.0</ele><time>2026-04-27T07:52:58.008Z</time></trkpt><trkpt lat="45.91507172807587" lon="10.21479038822935"><ele>235.5</ele><time>2026-04-27T07:52:59.008Z</time></trkpt><trkpt lat="45.91512803662538" lon="10.214963348989333"><ele>237.0</ele><time>2026-04-27T07:53:00.008Z</time></trkpt><trkpt lat="45.9151594957054" lon="10.215127690137066"><ele>238.5</ele><time>2026-04-27T07:53:01.008Z</time></trkpt><trkpt lat="45.91519275568955" lon="10.215301781285365"><ele>240.0</ele><time>2026-04-27T07:53:02.008Z</time></trkpt><trkpt lat="45.91522657695633" lon="10.215494443528065"><ele>239.75</ele><time>2026-04-27T07:53:03.008Z</time></trkpt><trkpt lat="45.915249611219345" lon="10.215692073741746"><ele>239.5</ele><time>2026-04-27T07:53:04.008Z</time></trkpt><trkpt lat="45.915271987554966" lon="10.21588484344597"><ele>239.25</ele><time>2026-04-27T07:53:05.008Z</time></trkpt><trkpt lat="45.915295646227214" lon="10.216086959474255"><ele>239.0</ele><time>2026-04-27T07:53:06.008Z</time></trkpt><trkpt lat="45.915307719860515" lon="10.216281404992927"><ele>238.75</ele><time>2026-04-27T07:53:07.008Z</time></trkpt><trkpt lat="45.915341009502" lon="10.216487174088746"><ele>238.5</ele><time>2026-04-27T07:53:08.008Z</time></trkpt><trkpt lat="45.91538311190904" lon="10.216692246456939"><ele>238.25</ele><time>2026-04-27T07:53:09.008Z</time></trkpt><trkpt lat="45.91543697729786" lon="10.216893054091642"><ele>238.0</ele><time>2026-04-27T07:53:10.008Z</time></trkpt><trkpt lat="45.91549602830821" lon="10.217085913397481"><ele>238.0</ele><time>2026-04-27T07:53:11.008Z</time></trkpt><trkpt lat="45.91555401157913" lon="10.217279040052437"><ele>238.0</ele><time>2026-04-27T07:53:12.008Z</time></trkpt><trkpt lat="45.91561256061786" lon="10.217455850902432"><ele>238.0</ele><time>2026-04-27T07:53:13.008Z</time></trkpt><trkpt lat="45.915674816158514" lon="10.217610241032904"><ele>238.0</ele><time>2026-04-27T07:53:14.008Z</time></trkpt><trkpt lat="45.91575243081061" lon="10.217756525940375"><ele>238.0</ele><time>2026-04-27T07:53:15.008Z</time></trkpt><trkpt lat="45.91583487738414" lon="10.217888908760598"><ele>238.0</ele><time>2026-04-27T07:53:16.008Z</time></trkpt><trkpt lat="45.91592466282392" lon="10.218008280487739"><ele>238.0</ele><time>2026-04-27T07:53:17.008Z</time></trkpt><trkpt lat="45.916014090565874" lon="10.218125905086938"><ele>238.0</ele><time>2026-04-27T07:53:18.008Z</time></trkpt><trkpt lat="45.91609687426363" lon="10.218239749731083"><ele>239.5</ele><time>2026-04-27T07:53:19.008Z</time></trkpt><trkpt lat="45.91618295564183" lon="10.218362099245551"><ele>241.0</ele><time>2026-04-27T07:53:20.008Z</time></trkpt><trkpt lat="45.91627284807494" lon="10.218484931956558"><ele>242.5</ele><time>2026-04-27T07:53:21.008Z</time></trkpt><trkpt lat="45.91636536345143" lon="10.218594839709974"><ele>244.0</ele><time>2026-04-27T07:53:22.008Z</time></trkpt><trkpt lat="45.91645982408936" lon="10.218707062308322"><ele>244.0</ele><time>2026-04-27T07:53:23.008Z</time></trkpt><trkpt lat="45.91655081665674" lon="10.218815498736241"><ele>244.0</ele><time>2026-04-27T07:53:24.008Z</time></trkpt><trkpt lat="45.91665527507992" lon="10.218918240996082"><ele>244.0</ele><time>2026-04-27T07:53:25.008Z</time></trkpt><trkpt lat="45.916775034318235" lon="10.21901108730338"><ele>244.0</ele><time>2026-04-27T07:53:26.008Z</time></trkpt><trkpt lat="45.91687752416387" lon="10.219143470892293"><ele>243.0</ele><time>2026-04-27T07:53:27.008Z</time></trkpt><trkpt lat="45.91698198445233" lon="10.219251722994638"><ele>242.0</ele><time>2026-04-27T07:53:28.008Z</time></trkpt><trkpt lat="45.91708680525296" lon="10.219356122740171"><ele>241.0</ele><time>2026-04-27T07:53:29.008Z</time></trkpt><trkpt lat="45.91721372126682" lon="10.219437963223523"><ele>240.0</ele><time>2026-04-27T07:53:30.008Z</time></trkpt><trkpt lat="45.917340444472295" lon="10.219530532231245"><ele>240.0</ele><time>2026-04-27T07:53:31.008Z</time></trkpt><trkpt lat="45.91746033145467" lon="10.219625327487984"><ele>240.0</ele><time>2026-04-27T07:53:32.008Z</time></trkpt><trkpt lat="45.91754819077354" lon="10.219754105586889"><ele>240.0</ele><time>2026-04-27T07:53:33.008Z</time></trkpt><trkpt lat="45.91765799362724" lon="10.21984609168993"><ele>240.0</ele><time>2026-04-27T07:53:34.008Z</time></trkpt><trkpt lat="45.917755628854856" lon="10.219936716292793"><ele>240.0</ele><time>2026-04-27T07:53:35.008Z</time></trkpt><trkpt lat="45.91785341753087" lon="10.220035960322152"><ele>240.0</ele><time>2026-04-27T07:53:36.008Z</time></trkpt><trkpt lat="45.917954848693086" lon="10.22014779428849"><ele>240.0</ele><time>2026-04-27T07:53:37.008Z</time></trkpt><trkpt lat="45.91804789579443" lon="10.2202795885995"><ele>240.0</ele><time>2026-04-27T07:53:38.008Z</time></trkpt><trkpt lat="45.918134731212675" lon="10.22041355494192"><ele>240.0</ele><time>2026-04-27T07:53:39.008Z</time></trkpt><trkpt lat="45.91821585890613" lon="10.220533049501766"><ele>240.0</ele><time>2026-04-27T07:53:40.008Z</time></trkpt><trkpt lat="45.9182912224559" lon="10.22062122135754"><ele>240.0</ele><time>2026-04-27T07:53:41.008Z</time></trkpt><trkpt lat="45.91838626427164" lon="10.220718761589179"><ele>240.0</ele><time>2026-04-27T07:53:42.008Z</time></trkpt><trkpt lat="45.91845691121217" lon="10.220843836945626"><ele>240.0</ele><time>2026-04-27T07:53:43.008Z</time></trkpt><trkpt lat="45.918510958254814" lon="10.220977760678089"><ele>240.25</ele><time>2026-04-27T07:53:44.008Z</time></trkpt><trkpt lat="45.918560467875054" lon="10.221120804372237"><ele>240.5</ele><time>2026-04-27T07:53:45.008Z</time></trkpt><trkpt lat="45.91860794694683" lon="10.221270177895912"><ele>240.75</ele><time>2026-04-27T07:53:46.008Z</time></trkpt><trkpt lat="45.91865943163451" lon="10.221422397394038"><ele>241.0</ele><time>2026-04-27T07:53:47.008Z</time></trkpt><trkpt lat="45.91868686399001" lon="10.221584377805561"><ele>241.0</ele><time>2026-04-27T07:53:48.008Z</time></trkpt><trkpt lat="45.91870389309466" lon="10.221737054758362"><ele>241.00000000000003</ele><time>2026-04-27T07:53:49.008Z</time></trkpt><trkpt lat="45.918727502547156" lon="10.221891909829663"><ele>241.00000000000003</ele><time>2026-04-27T07:53:50.008Z</time></trkpt><trkpt lat="45.91874968226846" lon="10.222052551300212"><ele>241.0</ele><time>2026-04-27T07:53:51.008Z</time></trkpt><trkpt lat="45.918771418831994" lon="10.222211105293352"><ele>241.0</ele><time>2026-04-27T07:53:52.008Z</time></trkpt><trkpt lat="45.91879307864123" lon="10.222377655891245"><ele>241.0</ele><time>2026-04-27T07:53:53.008Z</time></trkpt><trkpt lat="45.91882393481416" lon="10.222545355239296"><ele>241.00000000000003</ele><time>2026-04-27T07:53:54.008Z</time></trkpt><trkpt lat="45.91886706359979" lon="10.222703201418957"><ele>241.00000000000003</ele><time>2026-04-27T07:53:55.008Z</time></trkpt><trkpt lat="45.91890073209249" lon="10.222841169948525"><ele>241.0</ele><time>2026-04-27T07:53:56.008Z</time></trkpt><trkpt lat="45.91894425721447" lon="10.222965816157576"><ele>241.0</ele><time>2026-04-27T07:53:57.008Z</time></trkpt><trkpt lat="45.91899513849261" lon="10.223086690461482"><ele>241.25</ele><time>2026-04-27T07:53:58.008Z</time></trkpt><trkpt lat="45.91905548459469" lon="10.223205728306894"><ele>241.5</ele><time>2026-04-27T07:53:59.008Z</time></trkpt><trkpt lat="45.91911923155814" lon="10.223329522151827"><ele>241.75</ele><time>2026-04-27T07:54:00.008Z</time></trkpt><trkpt lat="45.91919270534676" lon="10.223469762897356"><ele>242.0</ele><time>2026-04-27T07:54:01.008Z</time></trkpt><trkpt lat="45.919278043528045" lon="10.223600977777338"><ele>242.0</ele><time>2026-04-27T07:54:02.008Z</time></trkpt><trkpt lat="45.91936529485166" lon="10.22374411913987"><ele>242.0</ele><time>2026-04-27T07:54:03.008Z</time></trkpt><trkpt lat="45.91944481948318" lon="10.223898868103682"><ele>242.0</ele><time>2026-04-27T07:54:04.008Z</time></trkpt><trkpt lat="45.919522723749424" lon="10.224065004564117"><ele>242.0</ele><time>2026-04-27T07:54:05.008Z</time></trkpt><trkpt lat="45.91958729204115" lon="10.224218870497984"><ele>241.8</ele><time>2026-04-27T07:54:06.008Z</time></trkpt><trkpt lat="45.91965201423535" lon="10.224362103417347"><ele>241.6</ele><time>2026-04-27T07:54:07.008Z</time></trkpt><trkpt lat="45.91970112782818" lon="10.224493604788178"><ele>241.40000000000003</ele><time>2026-04-27T07:54:08.008Z</time></trkpt><trkpt lat="45.91975315389771" lon="10.224623344958932"><ele>241.20000000000002</ele><time>2026-04-27T07:54:09.008Z</time></trkpt><trkpt lat="45.91980832484188" lon="10.224729665361641"><ele>241.0</ele><time>2026-04-27T07:54:10.008Z</time></trkpt><trkpt lat="45.91985202032018" lon="10.224821348149105"><ele>240.83333333333331</ele><time>2026-04-27T07:54:11.008Z</time></trkpt><trkpt lat="45.919898739261185" lon="10.224923749191525"><ele>240.66666666666666</ele><time>2026-04-27T07:54:12.008Z</time></trkpt><trkpt lat="45.919920372289496" lon="10.225035047442299"><ele>240.5</ele><time>2026-04-27T07:54:13.008Z</time></trkpt><trkpt lat="45.91997244486668" lon="10.225163400666906"><ele>240.33333333333331</ele><time>2026-04-27T07:54:14.007Z</time></trkpt><trkpt lat="45.920030457268425" lon="10.225245577444479"><ele>240.16666666666666</ele><time>2026-04-27T07:54:15.008Z</time></trkpt><trkpt lat="45.92006158354317" lon="10.225327823158308"><ele>240.0</ele><time>2026-04-27T07:54:16.008Z</time></trkpt><trkpt lat="45.92011871465662" lon="10.225490298915513"><ele>240.16666666666666</ele><time>2026-04-27T07:54:18.008Z</time></trkpt><trkpt lat="45.920126363047245" lon="10.225591915589055"><ele>240.33333333333331</ele><time>2026-04-27T07:54:19.008Z</time></trkpt><trkpt lat="45.92013834795456" lon="10.225698593678748"><ele>240.5</ele><time>2026-04-27T07:54:20.008Z</time></trkpt><trkpt lat="45.92018282796111" lon="10.225797960001328"><ele>240.66666666666666</ele><time>2026-04-27T07:54:21.008Z</time></trkpt><trkpt lat="45.92025467506753" lon="10.225885821548992"><ele>240.83333333333331</ele><time>2026-04-27T07:54:22.008Z</time></trkpt><trkpt lat="45.92032968092416" lon="10.225990391842041"><ele>241.0</ele><time>2026-04-27T07:54:23.008Z</time></trkpt><trkpt lat="45.9203869956152" lon="10.22612831019931"><ele>241.0</ele><time>2026-04-27T07:54:24.007Z</time></trkpt><trkpt lat="45.920459633171255" lon="10.226281776517062"><ele>241.0</ele><time>2026-04-27T07:54:25.007Z</time></trkpt><trkpt lat="45.92054836421285" lon="10.22644216366979"><ele>241.0</ele><time>2026-04-27T07:54:26.008Z</time></trkpt><trkpt lat="45.92064897918854" lon="10.226593780151607"><ele>241.0</ele><time>2026-04-27T07:54:27.008Z</time></trkpt><trkpt lat="45.920746381934144" lon="10.226724305094145"><ele>241.20000000000002</ele><time>2026-04-27T07:54:28.008Z</time></trkpt><trkpt lat="45.92082519193281" lon="10.226837095422699"><ele>241.40000000000003</ele><time>2026-04-27T07:54:29.008Z</time></trkpt><trkpt lat="45.920874163301185" lon="10.226915980906442"><ele>241.6</ele><time>2026-04-27T07:54:30.008Z</time></trkpt><trkpt lat="45.920943991007384" lon="10.227019086011833"><ele>241.8</ele><time>2026-04-27T07:54:31.008Z</time></trkpt><trkpt lat="45.921042740464785" lon="10.227151467156498"><ele>242.0</ele><time>2026-04-27T07:54:32.008Z</time></trkpt><trkpt lat="45.921142670707994" lon="10.227282920404333"><ele>242.25</ele><time>2026-04-27T07:54:33.008Z</time></trkpt><trkpt lat="45.921246669487935" lon="10.227417244259216"><ele>242.5</ele><time>2026-04-27T07:54:34.008Z</time></trkpt><trkpt lat="45.92133951336884" lon="10.227535244459144"><ele>242.75</ele><time>2026-04-27T07:54:35.008Z</time></trkpt><trkpt lat="45.921427100508154" lon="10.227646716198564"><ele>243.0</ele><time>2026-04-27T07:54:36.008Z</time></trkpt><trkpt lat="45.92152957482128" lon="10.227770935090131"><ele>243.0</ele><time>2026-04-27T07:54:37.008Z</time></trkpt><trkpt lat="45.92163674408882" lon="10.227903317601289"><ele>243.0</ele><time>2026-04-27T07:54:38.008Z</time></trkpt><trkpt lat="45.92174058697065" lon="10.228041589993275"><ele>243.0</ele><time>2026-04-27T07:54:39.008Z</time></trkpt><trkpt lat="45.921844523992824" lon="10.228184759478891"><ele>243.0</ele><time>2026-04-27T07:54:40.008Z</time></trkpt><trkpt lat="45.921922788975415" lon="10.228314149074725"><ele>244.0</ele><time>2026-04-27T07:54:41.008Z</time></trkpt><trkpt lat="45.92200918178826" lon="10.228457525080843"><ele>245.0</ele><time>2026-04-27T07:54:42.008Z</time></trkpt><trkpt lat="45.92208708540053" lon="10.228608281761312"><ele>246.0</ele><time>2026-04-27T07:54:43.008Z</time></trkpt><trkpt lat="45.922160777006475" lon="10.22875421500154"><ele>247.0</ele><time>2026-04-27T07:54:44.008Z</time></trkpt><trkpt lat="45.92223360218604" lon="10.228899421441104"><ele>246.0</ele><time>2026-04-27T07:54:45.008Z</time></trkpt><trkpt lat="45.92231768615645" lon="10.229061941374558"><ele>245.0</ele><time>2026-04-27T07:54:46.008Z</time></trkpt><trkpt lat="45.9224128848088" lon="10.229252785398597"><ele>244.0</ele><time>2026-04-27T07:54:47.008Z</time></trkpt><trkpt lat="45.922513807206855" lon="10.229450552283966"><ele>243.75</ele><time>2026-04-27T07:54:48.008Z</time></trkpt><trkpt lat="45.922608254688924" lon="10.22965311327129"><ele>243.5</ele><time>2026-04-27T07:54:49.008Z</time></trkpt><trkpt lat="45.922674607498685" lon="10.229801868226328"><ele>243.25</ele><time>2026-04-27T07:54:50.008Z</time></trkpt><trkpt lat="45.92274723329753" lon="10.229957394164076"><ele>243.0</ele><time>2026-04-27T07:54:51.008Z</time></trkpt><trkpt lat="45.92281907287923" lon="10.230130567487368"><ele>243.25</ele><time>2026-04-27T07:54:52.008Z</time></trkpt><trkpt lat="45.92288267668876" lon="10.23027835477446"><ele>243.5</ele><time>2026-04-27T07:54:53.008Z</time></trkpt><trkpt lat="45.92296023852755" lon="10.23045766393048"><ele>243.75</ele><time>2026-04-27T07:54:54.008Z</time></trkpt><trkpt lat="45.92304574980019" lon="10.230648586807668"><ele>244.0</ele><time>2026-04-27T07:54:55.008Z</time></trkpt><trkpt lat="45.92314089335577" lon="10.230846517047839"><ele>244.0</ele><time>2026-04-27T07:54:56.008Z</time></trkpt><trkpt lat="45.92323437907912" lon="10.231014989100368"><ele>244.0</ele><time>2026-04-27T07:54:57.008Z</time></trkpt><trkpt lat="45.92331641051148" lon="10.23114804868068"><ele>244.0</ele><time>2026-04-27T07:54:58.008Z</time></trkpt><trkpt lat="45.92340881782356" lon="10.231270837033584"><ele>244.0</ele><time>2026-04-27T07:54:59.008Z</time></trkpt><trkpt lat="45.923482865620144" lon="10.231370001543569"><ele>244.16666666666666</ele><time>2026-04-27T07:55:00.008Z</time></trkpt><trkpt lat="45.92355439416201" lon="10.231473673936888"><ele>244.33333333333331</ele><time>2026-04-27T07:55:01.008Z</time></trkpt><trkpt lat="45.92361109763328" lon="10.231545985509356"><ele>244.5</ele><time>2026-04-27T07:55:02.008Z</time></trkpt><trkpt lat="45.92366134139969" lon="10.231604344703511"><ele>244.66666666666669</ele><time>2026-04-27T07:55:03.008Z</time></trkpt><trkpt lat="45.92371086155471" lon="10.231679373423926"><ele>244.83333333333334</ele><time>2026-04-27T07:55:04.008Z</time></trkpt><trkpt lat="45.92377678990942" lon="10.231774170946313"><ele>245.0</ele><time>2026-04-27T07:55:05.008Z</time></trkpt><trkpt lat="45.92386043478377" lon="10.231876519638458"><ele>244.75</ele><time>2026-04-27T07:55:06.008Z</time></trkpt><trkpt lat="45.9239446562023" lon="10.232008609791992"><ele>244.5</ele><time>2026-04-27T07:55:07.008Z</time></trkpt><trkpt lat="45.924038504297094" lon="10.232161822099238"><ele>244.25</ele><time>2026-04-27T07:55:08.008Z</time></trkpt><trkpt lat="45.924143980686516" lon="10.232320821023322"><ele>244.0</ele><time>2026-04-27T07:55:09.008Z</time></trkpt><trkpt lat="45.92424805859084" lon="10.232472483868147"><ele>245.33333333333331</ele><time>2026-04-27T07:55:10.008Z</time></trkpt><trkpt lat="45.92435919821553" lon="10.232625139475036"><ele>246.66666666666669</ele><time>2026-04-27T07:55:11.008Z</time></trkpt><trkpt lat="45.92447416584157" lon="10.232789494625624"><ele>248.0</ele><time>2026-04-27T07:55:12.008Z</time></trkpt><trkpt lat="45.924605249729304" lon="10.232956856003765"><ele>247.0</ele><time>2026-04-27T07:55:13.008Z</time></trkpt><trkpt lat="45.92475439878988" lon="10.233144502221313"><ele>246.0</ele><time>2026-04-27T07:55:14.008Z</time></trkpt><trkpt lat="45.92490887554162" lon="10.23336670622117"><ele>245.0</ele><time>2026-04-27T07:55:15.008Z</time></trkpt><trkpt lat="45.92506244408891" lon="10.23362582745146"><ele>245.0</ele><time>2026-04-27T07:55:16.008Z</time></trkpt><trkpt lat="45.92520112470062" lon="10.233882702036961"><ele>245.0</ele><time>2026-04-27T07:55:17.008Z</time></trkpt><trkpt lat="45.92533955015095" lon="10.234127588942236"><ele>245.0</ele><time>2026-04-27T07:55:18.008Z</time></trkpt><trkpt lat="45.9254641461472" lon="10.234352274059606"><ele>245.0</ele><time>2026-04-27T07:55:19.008Z</time></trkpt><trkpt lat="45.92556250081361" lon="10.234557622416622"><ele>245.0</ele><time>2026-04-27T07:55:20.008Z</time></trkpt><trkpt lat="45.92567081088063" lon="10.234777672605452"><ele>245.0</ele><time>2026-04-27T07:55:21.008Z</time></trkpt><trkpt lat="45.925781707970025" lon="10.235010154503517"><ele>246.66666666666669</ele><time>2026-04-27T07:55:22.008Z</time></trkpt><trkpt lat="45.925903969339494" lon="10.235247155860753"><ele>248.33333333333331</ele><time>2026-04-27T07:55:23.008Z</time></trkpt><trkpt lat="45.92603350222641" lon="10.235489783864594"><ele>250.0</ele><time>2026-04-27T07:55:24.008Z</time></trkpt><trkpt lat="45.926157477908745" lon="10.235728111263946"><ele>250.0</ele><time>2026-04-27T07:55:25.008Z</time></trkpt><trkpt lat="45.926279244622705" lon="10.235976494951833"><ele>250.0</ele><time>2026-04-27T07:55:26.008Z</time></trkpt><trkpt lat="45.926408663789296" lon="10.236229150486617"><ele>250.0</ele><time>2026-04-27T07:55:27.008Z</time></trkpt><trkpt lat="45.92654116858871" lon="10.236483484963868"><ele>249.5</ele><time>2026-04-27T07:55:28.008Z</time></trkpt><trkpt lat="45.92667703416508" lon="10.236745324220886"><ele>249.0</ele><time>2026-04-27T07:55:29.008Z</time></trkpt><trkpt lat="45.92681111234234" lon="10.237010685502835"><ele>263.0</ele><time>2026-04-27T07:55:30.008Z</time></trkpt><trkpt lat="45.92694838424191" lon="10.237277713345287"><ele>277.0</ele><time>2026-04-27T07:55:31.008Z</time></trkpt><trkpt lat="45.9270799810632" lon="10.237533233541754"><ele>277.0</ele><time>2026-04-27T07:55:32.008Z</time></trkpt><trkpt lat="45.9272173011416" lon="10.237803331644853"><ele>277.0</ele><time>2026-04-27T07:55:33.008Z</time></trkpt><trkpt lat="45.927357391517205" lon="10.238077500083095"><ele>270.66666666666663</ele><time>2026-04-27T07:55:34.008Z</time></trkpt><trkpt lat="45.92748645924445" lon="10.23834851615122"><ele>264.3333333333333</ele><time>2026-04-27T07:55:35.008Z</time></trkpt><trkpt lat="45.92761685099202" lon="10.238602662516715"><ele>258.0</ele><time>2026-04-27T07:55:36.008Z</time></trkpt><trkpt lat="45.92773638167833" lon="10.238827973543636"><ele>262.6666666666667</ele><time>2026-04-27T07:55:37.008Z</time></trkpt><trkpt lat="45.927851682589576" lon="10.239058423037495"><ele>267.33333333333337</ele><time>2026-04-27T07:55:38.008Z</time></trkpt><trkpt lat="45.92797312764485" lon="10.239296903887928"><ele>272.0</ele><time>2026-04-27T07:55:39.008Z</time></trkpt><trkpt lat="45.92809660741861" lon="10.239508466426827"><ele>272.0</ele><time>2026-04-27T07:55:40.008Z</time></trkpt><trkpt lat="45.92822863902534" lon="10.239719030037078"><ele>272.0</ele><time>2026-04-27T07:55:41.008Z</time></trkpt><trkpt lat="45.92837645602966" lon="10.239909612152497"><ele>272.0</ele><time>2026-04-27T07:55:42.008Z</time></trkpt><trkpt lat="45.9285174558555" lon="10.2400574843759"><ele>272.33333333333337</ele><time>2026-04-27T07:55:43.008Z</time></trkpt><trkpt lat="45.928656967522166" lon="10.240169626495357"><ele>272.6666666666667</ele><time>2026-04-27T07:55:44.008Z</time></trkpt><trkpt lat="45.928818518926064" lon="10.240274441106315"><ele>273.0</ele><time>2026-04-27T07:55:45.008Z</time></trkpt><trkpt lat="45.928996528660825" lon="10.240386900870039"><ele>273.0</ele><time>2026-04-27T07:55:46.008Z</time></trkpt><trkpt lat="45.92916608069293" lon="10.240458358152177"><ele>273.0</ele><time>2026-04-27T07:55:47.008Z</time></trkpt><trkpt lat="45.92934345978143" lon="10.240499125386112"><ele>273.0</ele><time>2026-04-27T07:55:48.008Z</time></trkpt><trkpt lat="45.929527525155024" lon="10.240583184800983"><ele>267.0</ele><time>2026-04-27T07:55:49.008Z</time></trkpt><trkpt lat="45.92970991425471" lon="10.240664220253645"><ele>261.0</ele><time>2026-04-27T07:55:50.008Z</time></trkpt><trkpt lat="45.92988627891262" lon="10.2407240112595"><ele>255.0</ele><time>2026-04-27T07:55:51.008Z</time></trkpt><trkpt lat="45.93006355248109" lon="10.240773579933592"><ele>255.0</ele><time>2026-04-27T07:55:52.008Z</time></trkpt><trkpt lat="45.930237893066874" lon="10.240806474073175"><ele>255.0</ele><time>2026-04-27T07:55:53.008Z</time></trkpt><trkpt lat="45.93040755778966" lon="10.240852392672524"><ele>255.0</ele><time>2026-04-27T07:55:54.008Z</time></trkpt><trkpt lat="45.93057051208199" lon="10.240867655201356"><ele>255.0</ele><time>2026-04-27T07:55:55.008Z</time></trkpt><trkpt lat="45.93072210521061" lon="10.24086371408373"><ele>255.0</ele><time>2026-04-27T07:55:56.008Z</time></trkpt><trkpt lat="45.93087737982808" lon="10.240848052225362"><ele>255.0</ele><time>2026-04-27T07:55:57.008Z</time></trkpt><trkpt lat="45.931034852958845" lon="10.240898215930638"><ele>256.3333333333333</ele><time>2026-04-27T07:55:58.008Z</time></trkpt><trkpt lat="45.93120147492969" lon="10.24094964828965"><ele>257.66666666666663</ele><time>2026-04-27T07:55:59.008Z</time></trkpt><trkpt lat="45.93135172037745" lon="10.241083710974593"><ele>259.0</ele><time>2026-04-27T07:56:00.008Z</time></trkpt><trkpt lat="45.93149902683989" lon="10.241230513719794"><ele>259.0</ele><time>2026-04-27T07:56:01.008Z</time></trkpt><trkpt lat="45.93164303630427" lon="10.241390772588142"><ele>259.0</ele><time>2026-04-27T07:56:02.008Z</time></trkpt><trkpt lat="45.93179227578902" lon="10.241566002939125"><ele>259.0</ele><time>2026-04-27T07:56:03.008Z</time></trkpt><trkpt lat="45.93193498013188" lon="10.241735185023586"><ele>256.66666666666663</ele><time>2026-04-27T07:56:04.008Z</time></trkpt><trkpt lat="45.9320812386416" lon="10.241910553176305"><ele>254.33333333333331</ele><time>2026-04-27T07:56:05.008Z</time></trkpt><trkpt lat="45.932227918553515" lon="10.242085383009893"><ele>252.0</ele><time>2026-04-27T07:56:06.008Z</time></trkpt><trkpt lat="45.93237384990435" lon="10.242258969219199"><ele>252.33333333333331</ele><time>2026-04-27T07:56:07.008Z</time></trkpt><trkpt lat="45.932519669553024" lon="10.242430103295623"><ele>252.66666666666666</ele><time>2026-04-27T07:56:08.008Z</time></trkpt><trkpt lat="45.932663423619886" lon="10.242596304136109"><ele>253.0</ele><time>2026-04-27T07:56:09.008Z</time></trkpt><trkpt lat="45.932802516388485" lon="10.242729037326024"><ele>253.0</ele><time>2026-04-27T07:56:10.008Z</time></trkpt><trkpt lat="45.93292186299951" lon="10.242874196939649"><ele>253.0</ele><time>2026-04-27T07:56:11.008Z</time></trkpt><trkpt lat="45.933038587015915" lon="10.243009366610151"><ele>253.0</ele><time>2026-04-27T07:56:12.008Z</time></trkpt><trkpt lat="45.93314284303714" lon="10.24313599071429"><ele>253.0</ele><time>2026-04-27T07:56:13.008Z</time></trkpt><trkpt lat="45.9332322952352" lon="10.243251482203506"><ele>253.5</ele><time>2026-04-27T07:56:14.008Z</time></trkpt><trkpt lat="45.933305665254686" lon="10.243357216607768"><ele>254.0</ele><time>2026-04-27T07:56:15.008Z</time></trkpt><trkpt lat="45.93339476184804" lon="10.243474209923782"><ele>254.5</ele><time>2026-04-27T07:56:16.008Z</time></trkpt><trkpt lat="45.933503013216374" lon="10.243603906815238"><ele>255.0</ele><time>2026-04-27T07:56:17.008Z</time></trkpt><trkpt lat="45.933723010443636" lon="10.243865783145617"><ele>255.75</ele><time>2026-04-27T07:56:19.008Z</time></trkpt><trkpt lat="45.933865870075" lon="10.24396565359975"><ele>256.5</ele><time>2026-04-27T07:56:20.008Z</time></trkpt><trkpt lat="45.93399551116003" lon="10.244048409702247"><ele>257.25</ele><time>2026-04-27T07:56:21.008Z</time></trkpt><trkpt lat="45.934105559265134" lon="10.244098241885997"><ele>258.0</ele><time>2026-04-27T07:56:22.008Z</time></trkpt><trkpt lat="45.934208044622025" lon="10.244154696928353"><ele>258.25</ele><time>2026-04-27T07:56:23.008Z</time></trkpt><trkpt lat="45.9343070118318" lon="10.24420980516481"><ele>258.5</ele><time>2026-04-27T07:56:24.008Z</time></trkpt><trkpt lat="45.93442394683615" lon="10.2442755718176"><ele>258.75</ele><time>2026-04-27T07:56:25.008Z</time></trkpt><trkpt lat="45.934547433888596" lon="10.244345032431376"><ele>259.0</ele><time>2026-04-27T07:56:26.008Z</time></trkpt><trkpt lat="45.934674041602236" lon="10.24444110752696"><ele>259.0</ele><time>2026-04-27T07:56:27.009Z</time></trkpt><trkpt lat="45.93480397660446" lon="10.244498443338388"><ele>259.0</ele><time>2026-04-27T07:56:28.009Z</time></trkpt><trkpt lat="45.93492692273044" lon="10.244555617220245"><ele>259.0</ele><time>2026-04-27T07:56:29.008Z</time></trkpt><trkpt lat="45.93504857508196" lon="10.244632126937764"><ele>259.0</ele><time>2026-04-27T07:56:30.008Z</time></trkpt><trkpt lat="45.93516802024179" lon="10.244741820502668"><ele>259.25</ele><time>2026-04-27T07:56:31.008Z</time></trkpt><trkpt lat="45.93526471346879" lon="10.24485720844248"><ele>259.5</ele><time>2026-04-27T07:56:32.008Z</time></trkpt><trkpt lat="45.93536354660959" lon="10.244988251090676"><ele>259.75</ele><time>2026-04-27T07:56:33.008Z</time></trkpt><trkpt lat="45.93544903451601" lon="10.245101154875012"><ele>260.0</ele><time>2026-04-27T07:56:34.008Z</time></trkpt><trkpt lat="45.93553266752522" lon="10.245207685560617"><ele>260.0</ele><time>2026-04-27T07:56:35.008Z</time></trkpt><trkpt lat="45.935611589960715" lon="10.24532583638484"><ele>260.0</ele><time>2026-04-27T07:56:36.008Z</time></trkpt><trkpt lat="45.935688290112765" lon="10.245458303515257"><ele>260.0</ele><time>2026-04-27T07:56:37.008Z</time></trkpt><trkpt lat="45.93577240765534" lon="10.245611702479042"><ele>260.0</ele><time>2026-04-27T07:56:38.008Z</time></trkpt><trkpt lat="45.935838972009456" lon="10.245778656996249"><ele>259.75</ele><time>2026-04-27T07:56:39.008Z</time></trkpt><trkpt lat="45.93589597499846" lon="10.245962796096139"><ele>259.5</ele><time>2026-04-27T07:56:40.008Z</time></trkpt><trkpt lat="45.935925722773575" lon="10.246161220976184"><ele>259.25</ele><time>2026-04-27T07:56:41.008Z</time></trkpt><trkpt lat="45.935962783356395" lon="10.246369333184925"><ele>259.0</ele><time>2026-04-27T07:56:42.008Z</time></trkpt><trkpt lat="45.93599855156649" lon="10.246587790551473"><ele>258.3333333333333</ele><time>2026-04-27T07:56:43.008Z</time></trkpt><trkpt lat="45.93603863801084" lon="10.246810470259923"><ele>257.6666666666667</ele><time>2026-04-27T07:56:44.008Z</time></trkpt><trkpt lat="45.93609238164768" lon="10.247038924825445"><ele>257.0</ele><time>2026-04-27T07:56:45.008Z</time></trkpt><trkpt lat="45.936121145374265" lon="10.247280531647371"><ele>257.0</ele><time>2026-04-27T07:56:46.008Z</time></trkpt><trkpt lat="45.9361562997132" lon="10.247516737431168"><ele>257.0</ele><time>2026-04-27T07:56:47.008Z</time></trkpt><trkpt lat="45.936191738885" lon="10.247754115788839"><ele>257.0</ele><time>2026-04-27T07:56:48.008Z</time></trkpt><trkpt lat="45.93622662000961" lon="10.247987527458433"><ele>257.0</ele><time>2026-04-27T07:56:49.008Z</time></trkpt><trkpt lat="45.93626365296693" lon="10.248226955328366"><ele>257.0</ele><time>2026-04-27T07:56:50.008Z</time></trkpt><trkpt lat="45.93630277563171" lon="10.248461359108747"><ele>257.0</ele><time>2026-04-27T07:56:51.008Z</time></trkpt><trkpt lat="45.936348424392484" lon="10.248689387900608"><ele>257.0</ele><time>2026-04-27T07:56:52.008Z</time></trkpt><trkpt lat="45.93640350033382" lon="10.248896192035987"><ele>257.0</ele><time>2026-04-27T07:56:53.008Z</time></trkpt><trkpt lat="45.93647535386649" lon="10.249107803107483"><ele>257.0</ele><time>2026-04-27T07:56:54.008Z</time></trkpt><trkpt lat="45.93657696296887" lon="10.249310605497282"><ele>257.0</ele><time>2026-04-27T07:56:55.008Z</time></trkpt><trkpt lat="45.936668476050045" lon="10.249533326525993"><ele>257.0</ele><time>2026-04-27T07:56:56.008Z</time></trkpt><trkpt lat="45.93676690955806" lon="10.24975446573073"><ele>257.0</ele><time>2026-04-27T07:56:57.008Z</time></trkpt><trkpt lat="45.936858960280674" lon="10.249965780749186"><ele>257.0</ele><time>2026-04-27T07:56:58.008Z</time></trkpt><trkpt lat="45.93694328884663" lon="10.250137689684179"><ele>257.0</ele><time>2026-04-27T07:56:59.008Z</time></trkpt><trkpt lat="45.937023205827934" lon="10.25030804714714"><ele>257.0</ele><time>2026-04-27T07:57:00.008Z</time></trkpt><trkpt lat="45.937085173457874" lon="10.250439942959977"><ele>257.0</ele><time>2026-04-27T07:57:01.008Z</time></trkpt><trkpt lat="45.93713414268631" lon="10.25055618606495"><ele>256.6</ele><time>2026-04-27T07:57:02.008Z</time></trkpt><trkpt lat="45.93720293545564" lon="10.250709101930832"><ele>256.2</ele><time>2026-04-27T07:57:04.008Z</time></trkpt><trkpt lat="45.93728199907184" lon="10.250863250467072"><ele>255.8</ele><time>2026-04-27T07:57:06.008Z</time></trkpt><trkpt lat="45.937337372479206" lon="10.250974819420364"><ele>255.4</ele><time>2026-04-27T07:57:08.008Z</time></trkpt><trkpt lat="45.93737225978441" lon="10.251053758135473"><ele>255.0</ele><time>2026-04-27T07:57:10.008Z</time></trkpt><trkpt lat="45.937417595013734" lon="10.251148182031494"><ele>255.0</ele><time>2026-04-27T07:57:12.008Z</time></trkpt><trkpt lat="45.93748193284589" lon="10.251299264340263"><ele>255.0</ele><time>2026-04-27T07:57:14.008Z</time></trkpt><trkpt lat="45.9375146020909" lon="10.251382093802697"><ele>255.0</ele><time>2026-04-27T07:57:15.008Z</time></trkpt><trkpt lat="45.937550788065806" lon="10.251463752610732"><ele>255.0</ele><time>2026-04-27T07:57:16.008Z</time></trkpt><trkpt lat="45.93762871154434" lon="10.251643640007336"><ele>255.0</ele><time>2026-04-27T07:57:18.008Z</time></trkpt><trkpt lat="45.93767691501082" lon="10.251757868123207"><ele>255.75</ele><time>2026-04-27T07:57:19.008Z</time></trkpt><trkpt lat="45.93774424931374" lon="10.251905977647814"><ele>256.5</ele><time>2026-04-27T07:57:20.008Z</time></trkpt><trkpt lat="45.9378228918483" lon="10.252065587152922"><ele>257.25</ele><time>2026-04-27T07:57:21.008Z</time></trkpt><trkpt lat="45.93790840932603" lon="10.252234602474436"><ele>258.0</ele><time>2026-04-27T07:57:22.008Z</time></trkpt><trkpt lat="45.93800091633344" lon="10.252419371475039"><ele>258.0</ele><time>2026-04-27T07:57:23.008Z</time></trkpt><trkpt lat="45.938094935654554" lon="10.252614888753136"><ele>258.0</ele><time>2026-04-27T07:57:24.008Z</time></trkpt><trkpt lat="45.938194924920744" lon="10.2528187178581"><ele>258.0</ele><time>2026-04-27T07:57:25.008Z</time></trkpt><trkpt lat="45.938297148434145" lon="10.253026720024604"><ele>258.0</ele><time>2026-04-27T07:57:26.008Z</time></trkpt><trkpt lat="45.93839665596231" lon="10.253242722211326"><ele>258.0</ele><time>2026-04-27T07:57:27.008Z</time></trkpt><trkpt lat="45.938501321644594" lon="10.253444633083374"><ele>258.0</ele><time>2026-04-27T07:57:28.008Z</time></trkpt><trkpt lat="45.93861808892099" lon="10.253665645292017"><ele>258.0</ele><time>2026-04-27T07:57:29.008Z</time></trkpt><trkpt lat="45.93872160066218" lon="10.253903487712137"><ele>258.0</ele><time>2026-04-27T07:57:30.008Z</time></trkpt><trkpt lat="45.9388783533144" lon="10.254144481981454"><ele>258.0</ele><time>2026-04-27T07:57:31.008Z</time></trkpt><trkpt lat="45.939020913313506" lon="10.254416976977005"><ele>257.6666666666667</ele><time>2026-04-27T07:57:32.008Z</time></trkpt><trkpt lat="45.939147931272736" lon="10.254669547796224"><ele>257.33333333333337</ele><time>2026-04-27T07:57:33.008Z</time></trkpt><trkpt lat="45.939272115658085" lon="10.254908621864345"><ele>257.0</ele><time>2026-04-27T07:57:34.008Z</time></trkpt><trkpt lat="45.93938217362953" lon="10.255123711344632"><ele>258.33333333333337</ele><time>2026-04-27T07:57:35.008Z</time></trkpt><trkpt lat="45.939500101544475" lon="10.255349310448885"><ele>259.6666666666667</ele><time>2026-04-27T07:57:36.008Z</time></trkpt><trkpt lat="45.93960042484057" lon="10.255550040202683"><ele>261.0</ele><time>2026-04-27T07:57:37.008Z</time></trkpt><trkpt lat="45.939695511837414" lon="10.255725321505292"><ele>261.0</ele><time>2026-04-27T07:57:38.008Z</time></trkpt><trkpt lat="45.93980420260502" lon="10.255924244304564"><ele>261.0</ele><time>2026-04-27T07:57:39.008Z</time></trkpt><trkpt lat="45.93988865366707" lon="10.256085144317442"><ele>261.0</ele><time>2026-04-27T07:57:40.008Z</time></trkpt><trkpt lat="45.93997720801074" lon="10.256230314122224"><ele>261.0</ele><time>2026-04-27T07:57:41.008Z</time></trkpt><trkpt lat="45.94007660958457" lon="10.25636827548761"><ele>261.0</ele><time>2026-04-27T07:57:42.008Z</time></trkpt><trkpt lat="45.940192948364036" lon="10.256514480180172"><ele>261.0</ele><time>2026-04-27T07:57:43.008Z</time></trkpt><trkpt lat="45.94030024923189" lon="10.25662744492361"><ele>261.0</ele><time>2026-04-27T07:57:44.008Z</time></trkpt><trkpt lat="45.94041483260824" lon="10.25675617814364"><ele>261.0</ele><time>2026-04-27T07:57:45.008Z</time></trkpt><trkpt lat="45.94053669406549" lon="10.256901498526233"><ele>261.0</ele><time>2026-04-27T07:57:46.008Z</time></trkpt><trkpt lat="45.94065121852424" lon="10.257060656081233"><ele>261.0</ele><time>2026-04-27T07:57:47.008Z</time></trkpt><trkpt lat="45.94077977809551" lon="10.257259940645612"><ele>259.6666666666667</ele><time>2026-04-27T07:57:48.008Z</time></trkpt><trkpt lat="45.940917925780674" lon="10.25747787787657"><ele>258.33333333333337</ele><time>2026-04-27T07:57:49.008Z</time></trkpt><trkpt lat="45.94103925933387" lon="10.257720385394391"><ele>257.0</ele><time>2026-04-27T07:57:50.008Z</time></trkpt><trkpt lat="45.94117223154318" lon="10.257922327699058"><ele>256.6666666666667</ele><time>2026-04-27T07:57:51.008Z</time></trkpt><trkpt lat="45.941300433613414" lon="10.25816083520429"><ele>256.3333333333333</ele><time>2026-04-27T07:57:52.008Z</time></trkpt><trkpt lat="45.94143340450127" lon="10.258391616170858"><ele>256.0</ele><time>2026-04-27T07:57:53.008Z</time></trkpt><trkpt lat="45.941556074926666" lon="10.25860595352079"><ele>256.0</ele><time>2026-04-27T07:57:54.008Z</time></trkpt><trkpt lat="45.941681251216984" lon="10.258823382449313"><ele>256.0</ele><time>2026-04-27T07:57:55.008Z</time></trkpt><trkpt lat="45.94181064937152" lon="10.25903765127235"><ele>256.0</ele><time>2026-04-27T07:57:56.008Z</time></trkpt><trkpt lat="45.941893388051284" lon="10.259264899191354"><ele>260.3333333333333</ele><time>2026-04-27T07:57:57.008Z</time></trkpt><trkpt lat="45.94203485653653" lon="10.259467631329343"><ele>264.6666666666667</ele><time>2026-04-27T07:57:58.008Z</time></trkpt><trkpt lat="45.94218231909409" lon="10.259661907815165"><ele>269.0</ele><time>2026-04-27T07:57:59.008Z</time></trkpt><trkpt lat="45.942324471175056" lon="10.259847711248925"><ele>269.0</ele><time>2026-04-27T07:58:00.008Z</time></trkpt><trkpt lat="45.942452712193415" lon="10.260041981586859"><ele>269.0</ele><time>2026-04-27T07:58:01.008Z</time></trkpt><trkpt lat="45.94257371461143" lon="10.260232939990575"><ele>269.0</ele><time>2026-04-27T07:58:02.008Z</time></trkpt><trkpt lat="45.942679780722614" lon="10.26043459010832"><ele>274.0</ele><time>2026-04-27T07:58:03.008Z</time></trkpt><trkpt lat="45.94276625583233" lon="10.260632898744195"><ele>279.0</ele><time>2026-04-27T07:58:04.008Z</time></trkpt><trkpt lat="45.942819823183" lon="10.26083749578809"><ele>284.0</ele><time>2026-04-27T07:58:05.008Z</time></trkpt><trkpt lat="45.94286316800889" lon="10.261079256374883"><ele>284.0</ele><time>2026-04-27T07:58:06.008Z</time></trkpt><trkpt lat="45.94289853279988" lon="10.261336057378081"><ele>284.0</ele><time>2026-04-27T07:58:07.008Z</time></trkpt><trkpt lat="45.94292175087035" lon="10.261587215006802"><ele>284.0</ele><time>2026-04-27T07:58:08.008Z</time></trkpt><trkpt lat="45.94293231178599" lon="10.261791293442727"><ele>280.59999999999997</ele><time>2026-04-27T07:58:09.008Z</time></trkpt><trkpt lat="45.94293176509836" lon="10.261952871253882"><ele>277.2</ele><time>2026-04-27T07:58:10.008Z</time></trkpt><trkpt lat="45.942927305171885" lon="10.262111594885239"><ele>273.79999999999995</ele><time>2026-04-27T07:58:11.008Z</time></trkpt><trkpt lat="45.942909422819234" lon="10.262245796628871"><ele>270.4</ele><time>2026-04-27T07:58:12.008Z</time></trkpt><trkpt lat="45.942873705841876" lon="10.262379497209857"><ele>267.0</ele><time>2026-04-27T07:58:13.008Z</time></trkpt><trkpt lat="45.94282117536914" lon="10.262517705057876"><ele>266.25</ele><time>2026-04-27T07:58:14.008Z</time></trkpt><trkpt lat="45.94279152026833" lon="10.262680795857085"><ele>265.5</ele><time>2026-04-27T07:58:15.008Z</time></trkpt><trkpt lat="45.942801808728525" lon="10.26286168778923"><ele>264.75</ele><time>2026-04-27T07:58:16.008Z</time></trkpt><trkpt lat="45.94284659359742" lon="10.26306064285876"><ele>264.0</ele><time>2026-04-27T07:58:17.008Z</time></trkpt><trkpt lat="45.942876390507976" lon="10.263268625930873"><ele>263.5</ele><time>2026-04-27T07:58:18.008Z</time></trkpt><trkpt lat="45.94290187577066" lon="10.263446918048706"><ele>263.0</ele><time>2026-04-27T07:58:19.008Z</time></trkpt><trkpt lat="45.94291014909516" lon="10.263615668945516"><ele>262.5</ele><time>2026-04-27T07:58:20.008Z</time></trkpt><trkpt lat="45.94290896859983" lon="10.263770573278604"><ele>262.0</ele><time>2026-04-27T07:58:21.008Z</time></trkpt><trkpt lat="45.94288338307288" lon="10.263953602898146"><ele>262.0</ele><time>2026-04-27T07:58:22.008Z</time></trkpt><trkpt lat="45.94281700665778" lon="10.264125654328494"><ele>262.0</ele><time>2026-04-27T07:58:23.008Z</time></trkpt><trkpt lat="45.942756764286976" lon="10.264333186443878"><ele>262.0</ele><time>2026-04-27T07:58:24.008Z</time></trkpt><trkpt lat="45.942727725499395" lon="10.264578733115608"><ele>262.3333333333333</ele><time>2026-04-27T07:58:25.008Z</time></trkpt><trkpt lat="45.942739396431115" lon="10.26484140914204"><ele>262.6666666666667</ele><time>2026-04-27T07:58:26.008Z</time></trkpt><trkpt lat="45.942743231329764" lon="10.265119273687636"><ele>263.0</ele><time>2026-04-27T07:58:27.009Z</time></trkpt><trkpt lat="45.942733646846" lon="10.265400920154734"><ele>263.0</ele><time>2026-04-27T07:58:28.009Z</time></trkpt><trkpt lat="45.942737150682" lon="10.265661204277446"><ele>263.0</ele><time>2026-04-27T07:58:29.008Z</time></trkpt><trkpt lat="45.94274063917278" lon="10.265890250498526"><ele>263.0</ele><time>2026-04-27T07:58:30.008Z</time></trkpt><trkpt lat="45.942742003097116" lon="10.266101680884324"><ele>263.0</ele><time>2026-04-27T07:58:31.008Z</time></trkpt><trkpt lat="45.94274044848263" lon="10.266313886493702"><ele>263.0</ele><time>2026-04-27T07:58:32.009Z</time></trkpt><trkpt lat="45.94272745439622" lon="10.266520431836133"><ele>263.0</ele><time>2026-04-27T07:58:33.008Z</time></trkpt><trkpt lat="45.94270857081209" lon="10.266689876706257"><ele>263.0</ele><time>2026-04-27T07:58:34.008Z</time></trkpt><trkpt lat="45.9426890287014" lon="10.26686007733621"><ele>263.0</ele><time>2026-04-27T07:58:35.009Z</time></trkpt><trkpt lat="45.942677620898515" lon="10.267001760924083"><ele>263.0</ele><time>2026-04-27T07:58:36.009Z</time></trkpt><trkpt lat="45.9426140577279" lon="10.267119063065927"><ele>263.0</ele><time>2026-04-27T07:58:37.009Z</time></trkpt><trkpt lat="45.9425506268905" lon="10.267217216594817"><ele>263.0</ele><time>2026-04-27T07:58:38.009Z</time></trkpt><trkpt lat="45.94251340438305" lon="10.267330830107586"><ele>263.0</ele><time>2026-04-27T07:58:39.008Z</time></trkpt><trkpt lat="45.94252273305141" lon="10.267456417442961"><ele>263.1666666666667</ele><time>2026-04-27T07:58:40.008Z</time></trkpt><trkpt lat="45.94256441988886" lon="10.26755095619102"><ele>263.33333333333337</ele><time>2026-04-27T07:58:41.008Z</time></trkpt><trkpt lat="45.94261439422684" lon="10.267629259134578"><ele>263.5</ele><time>2026-04-27T07:58:42.008Z</time></trkpt><trkpt lat="45.94270820677993" lon="10.267658350987055"><ele>263.6666666666667</ele><time>2026-04-27T07:58:44.008Z</time></trkpt><trkpt lat="45.942778381704386" lon="10.267674009034803"><ele>263.8333333333333</ele><time>2026-04-27T07:58:46.008Z</time></trkpt><trkpt lat="45.94280028939772" lon="10.267796074672832"><ele>264.0</ele><time>2026-04-27T07:58:47.008Z</time></trkpt><trkpt lat="45.94283813386782" lon="10.26795441630613"><ele>264.0</ele><time>2026-04-27T07:58:49.008Z</time></trkpt><trkpt lat="45.942848896550366" lon="10.268088287406332"><ele>264.0</ele><time>2026-04-27T07:58:51.008Z</time></trkpt><trkpt lat="45.94285479675768" lon="10.26822788206368"><ele>264.0</ele><time>2026-04-27T07:58:53.008Z</time></trkpt><trkpt lat="45.94285742400125" lon="10.268342599629664"><ele>264.0</ele><time>2026-04-27T07:58:55.008Z</time></trkpt><trkpt lat="45.94283784529141" lon="10.268447814146821"><ele>264.0</ele><time>2026-04-27T07:58:57.008Z</time></trkpt><trkpt lat="45.942798147966755" lon="10.268547437063074"><ele>264.0</ele><time>2026-04-27T07:58:59.008Z</time></trkpt><trkpt lat="45.94272740047585" lon="10.268626553713878"><ele>264.1666666666667</ele><time>2026-04-27T07:59:01.008Z</time></trkpt><trkpt lat="45.9426370932043" lon="10.268712757708437"><ele>264.3333333333333</ele><time>2026-04-27T07:59:03.008Z</time></trkpt><trkpt lat="45.9426047016208" lon="10.268803036610683"><ele>264.5</ele><time>2026-04-27T07:59:04.008Z</time></trkpt><trkpt lat="45.94259308214394" lon="10.268910670653867"><ele>264.66666666666663</ele><time>2026-04-27T07:59:05.008Z</time></trkpt><trkpt lat="45.94260773944386" lon="10.269018967158695"><ele>264.8333333333333</ele><time>2026-04-27T07:59:06.008Z</time></trkpt><trkpt lat="45.94265776694477" lon="10.269122530787516"><ele>265.0</ele><time>2026-04-27T07:59:07.008Z</time></trkpt><trkpt lat="45.94273207663336" lon="10.269187697595804"><ele>265.0</ele><time>2026-04-27T07:59:08.008Z</time></trkpt><trkpt lat="45.94282071042461" lon="10.269202230322975"><ele>265.0</ele><time>2026-04-27T07:59:09.008Z</time></trkpt><trkpt lat="45.942918629477866" lon="10.269177756518603"><ele>265.0</ele><time>2026-04-27T07:59:10.008Z</time></trkpt><trkpt lat="45.94300890027421" lon="10.269198432443483"><ele>265.0</ele><time>2026-04-27T07:59:11.008Z</time></trkpt><trkpt lat="45.943078758333776" lon="10.269271886130051"><ele>265.0</ele><time>2026-04-27T07:59:12.008Z</time></trkpt><trkpt lat="45.94313126619918" lon="10.26936733175648"><ele>265.0</ele><time>2026-04-27T07:59:13.008Z</time></trkpt><trkpt lat="45.94315949454687" lon="10.269512784224938"><ele>265.0</ele><time>2026-04-27T07:59:14.008Z</time></trkpt><trkpt lat="45.943182838663105" lon="10.26968412014042"><ele>265.0</ele><time>2026-04-27T07:59:15.008Z</time></trkpt><trkpt lat="45.94320255429532" lon="10.269863844097669"><ele>265.0</ele><time>2026-04-27T07:59:16.008Z</time></trkpt><trkpt lat="45.943228236595715" lon="10.270042097879363"><ele>265.0</ele><time>2026-04-27T07:59:17.008Z</time></trkpt><trkpt lat="45.94325055480949" lon="10.27020815136948"><ele>265.0</ele><time>2026-04-27T07:59:18.008Z</time></trkpt><trkpt lat="45.94327192240085" lon="10.27039189530961"><ele>265.0</ele><time>2026-04-27T07:59:19.008Z</time></trkpt><trkpt lat="45.943299139286374" lon="10.270594251649243"><ele>265.0</ele><time>2026-04-27T07:59:20.008Z</time></trkpt><trkpt lat="45.94334505445379" lon="10.270799144426947"><ele>267.0</ele><time>2026-04-27T07:59:21.008Z</time></trkpt><trkpt lat="45.9433979236175" lon="10.271012154600177"><ele>269.0</ele><time>2026-04-27T07:59:22.008Z</time></trkpt><trkpt lat="45.94345236135199" lon="10.271206797610953"><ele>271.0</ele><time>2026-04-27T07:59:23.008Z</time></trkpt><trkpt lat="45.94349733697723" lon="10.271371117904101"><ele>273.0</ele><time>2026-04-27T07:59:24.008Z</time></trkpt><trkpt lat="45.94349613820969" lon="10.271542104873546"><ele>273.75</ele><time>2026-04-27T07:59:25.008Z</time></trkpt><trkpt lat="45.943547098620265" lon="10.27169555451925"><ele>274.5</ele><time>2026-04-27T07:59:26.008Z</time></trkpt><trkpt lat="45.94360267442318" lon="10.271861674793987"><ele>275.25</ele><time>2026-04-27T07:59:27.008Z</time></trkpt><trkpt lat="45.94365998904562" lon="10.272031666999597"><ele>276.0</ele><time>2026-04-27T07:59:28.008Z</time></trkpt><trkpt lat="45.94372470097779" lon="10.272228146088484"><ele>277.75</ele><time>2026-04-27T07:59:29.008Z</time></trkpt><trkpt lat="45.94379074013821" lon="10.272421307541132"><ele>279.5</ele><time>2026-04-27T07:59:30.008Z</time></trkpt><trkpt lat="45.94385257005857" lon="10.272592525956457"><ele>281.25</ele><time>2026-04-27T07:59:31.008Z</time></trkpt><trkpt lat="45.94391884188305" lon="10.272774861042825"><ele>283.0</ele><time>2026-04-27T07:59:32.008Z</time></trkpt><trkpt lat="45.94397746052985" lon="10.272962137115648"><ele>283.25</ele><time>2026-04-27T07:59:33.008Z</time></trkpt><trkpt lat="45.94403043202068" lon="10.273123705151592"><ele>283.5</ele><time>2026-04-27T07:59:34.008Z</time></trkpt><trkpt lat="45.94408286669781" lon="10.273288873926512"><ele>283.75</ele><time>2026-04-27T07:59:35.008Z</time></trkpt><trkpt lat="45.9441450962126" lon="10.27345560069454"><ele>284.0</ele><time>2026-04-27T07:59:36.008Z</time></trkpt><trkpt lat="45.9441991386973" lon="10.273627451104588"><ele>289.5</ele><time>2026-04-27T07:59:37.008Z</time></trkpt><trkpt lat="45.94425680015956" lon="10.273805018015706"><ele>295.0</ele><time>2026-04-27T07:59:38.008Z</time></trkpt><trkpt lat="45.94431372235365" lon="10.273972170401821"><ele>300.5</ele><time>2026-04-27T07:59:39.008Z</time></trkpt><trkpt lat="45.94436889831178" lon="10.274148326986605"><ele>306.0</ele><time>2026-04-27T07:59:40.008Z</time></trkpt><trkpt lat="45.94443072667098" lon="10.274322607429735"><ele>306.0</ele><time>2026-04-27T07:59:41.008Z</time></trkpt><trkpt lat="45.944491641940644" lon="10.274499885707694"><ele>306.0</ele><time>2026-04-27T07:59:42.008Z</time></trkpt><trkpt lat="45.9445570267898" lon="10.274678180220246"><ele>306.0</ele><time>2026-04-27T07:59:43.008Z</time></trkpt><trkpt lat="45.94461821530007" lon="10.27486441678919"><ele>306.0</ele><time>2026-04-27T07:59:44.008Z</time></trkpt><trkpt lat="45.94467576403812" lon="10.275026191070962"><ele>300.25</ele><time>2026-04-27T07:59:45.008Z</time></trkpt><trkpt lat="45.944737752871106" lon="10.275196272446037"><ele>294.5</ele><time>2026-04-27T07:59:46.008Z</time></trkpt><trkpt lat="45.94479581627122" lon="10.275365077420112"><ele>288.75</ele><time>2026-04-27T07:59:47.008Z</time></trkpt><trkpt lat="45.944845664227124" lon="10.275528998799063"><ele>283.0</ele><time>2026-04-27T07:59:48.008Z</time></trkpt><trkpt lat="45.94488995066941" lon="10.275696331233652"><ele>282.5</ele><time>2026-04-27T07:59:49.008Z</time></trkpt><trkpt lat="45.94493373202421" lon="10.275861199804535"><ele>282.0</ele><time>2026-04-27T07:59:50.008Z</time></trkpt><trkpt lat="45.94497763068765" lon="10.276007672954343"><ele>281.5</ele><time>2026-04-27T07:59:51.008Z</time></trkpt><trkpt lat="45.94501859459206" lon="10.276157397232616"><ele>281.0</ele><time>2026-04-27T07:59:52.008Z</time></trkpt><trkpt lat="45.945061098049514" lon="10.276298998627615"><ele>279.2</ele><time>2026-04-27T07:59:53.008Z</time></trkpt><trkpt lat="45.94511066866437" lon="10.276441183473663"><ele>277.40000000000003</ele><time>2026-04-27T07:59:54.008Z</time></trkpt><trkpt lat="45.94517028589772" lon="10.27656602426503"><ele>275.6</ele><time>2026-04-27T07:59:55.008Z</time></trkpt><trkpt lat="45.94522356811449" lon="10.276665595659633"><ele>273.8</ele><time>2026-04-27T07:59:56.008Z</time></trkpt><trkpt lat="45.94526972277837" lon="10.276765472674823"><ele>272.0</ele><time>2026-04-27T07:59:57.008Z</time></trkpt><trkpt lat="45.945319674763276" lon="10.276868885506683"><ele>272.0</ele><time>2026-04-27T07:59:58.008Z</time></trkpt><trkpt lat="45.945361262375755" lon="10.276960474643609"><ele>272.0</ele><time>2026-04-27T07:59:59.008Z</time></trkpt><trkpt lat="45.94540458371906" lon="10.277059361819152"><ele>272.0</ele><time>2026-04-27T08:00:00.008Z</time></trkpt><trkpt lat="45.94543535171212" lon="10.277145638510818"><ele>272.0</ele><time>2026-04-27T08:00:01.008Z</time></trkpt><trkpt lat="45.945501439805625" lon="10.277288864885227"><ele>272.0</ele><time>2026-04-27T08:00:03.008Z</time></trkpt><trkpt lat="45.945564573406855" lon="10.277319683097398"><ele>272.0</ele><time>2026-04-27T08:00:04.008Z</time></trkpt><trkpt lat="45.945636363828534" lon="10.277317682436781"><ele>271.6</ele><time>2026-04-27T08:00:05.008Z</time></trkpt><trkpt lat="45.94571609980976" lon="10.277278213412663"><ele>271.2</ele><time>2026-04-27T08:00:06.008Z</time></trkpt><trkpt lat="45.94581855434028" lon="10.277351176836625"><ele>270.8</ele><time>2026-04-27T08:00:07.008Z</time></trkpt><trkpt lat="45.94591337700806" lon="10.277197560385805"><ele>270.4</ele><time>2026-04-27T08:00:08.008Z</time></trkpt><trkpt lat="45.946004871672415" lon="10.277211946018365"><ele>270.0</ele><time>2026-04-27T08:00:09.008Z</time></trkpt><trkpt lat="45.94608363447839" lon="10.277225034210865"><ele>271.75</ele><time>2026-04-27T08:00:10.008Z</time></trkpt><trkpt lat="45.946188256592656" lon="10.277210305319842"><ele>273.5</ele><time>2026-04-27T08:00:11.008Z</time></trkpt><trkpt lat="45.94631730695621" lon="10.277184377705115"><ele>275.25</ele><time>2026-04-27T08:00:12.008Z</time></trkpt><trkpt lat="45.94647080144473" lon="10.277167664191948"><ele>277.0</ele><time>2026-04-27T08:00:13.008Z</time></trkpt><trkpt lat="45.946640023664244" lon="10.27711356650095"><ele>277.66666666666663</ele><time>2026-04-27T08:00:14.008Z</time></trkpt><trkpt lat="45.94679401018526" lon="10.277039175478974"><ele>278.3333333333333</ele><time>2026-04-27T08:00:15.008Z</time></trkpt><trkpt lat="45.946961838422546" lon="10.27706881441398"><ele>279.0</ele><time>2026-04-27T08:00:16.008Z</time></trkpt><trkpt lat="45.947100324464124" lon="10.27703535897726"><ele>279.0</ele><time>2026-04-27T08:00:17.008Z</time></trkpt><trkpt lat="45.947230918093894" lon="10.276991761436099"><ele>279.0</ele><time>2026-04-27T08:00:18.008Z</time></trkpt><trkpt lat="45.94736378207532" lon="10.276940413307916"><ele>279.0</ele><time>2026-04-27T08:00:19.008Z</time></trkpt><trkpt lat="45.94747770491773" lon="10.276907631787175"><ele>279.0</ele><time>2026-04-27T08:00:20.008Z</time></trkpt><trkpt lat="45.94758072509154" lon="10.27688985691357"><ele>279.75</ele><time>2026-04-27T08:00:21.008Z</time></trkpt><trkpt lat="45.94769009735602" lon="10.27687660134494"><ele>280.5</ele><time>2026-04-27T08:00:22.008Z</time></trkpt><trkpt lat="45.947809516172086" lon="10.27688977406769"><ele>281.25</ele><time>2026-04-27T08:00:23.008Z</time></trkpt><trkpt lat="45.94794061146895" lon="10.27692731306566"><ele>282.0</ele><time>2026-04-27T08:00:24.008Z</time></trkpt><trkpt lat="45.94808149676145" lon="10.276984952740312"><ele>282.0</ele><time>2026-04-27T08:00:25.008Z</time></trkpt><trkpt lat="45.94822789620085" lon="10.277042244165367"><ele>282.0</ele><time>2026-04-27T08:00:26.008Z</time></trkpt><trkpt lat="45.94837341195762" lon="10.277078385528595"><ele>282.0</ele><time>2026-04-27T08:00:27.008Z</time></trkpt><trkpt lat="45.94850670742463" lon="10.27711692396328"><ele>282.0</ele><time>2026-04-27T08:00:28.008Z</time></trkpt><trkpt lat="45.94863669202551" lon="10.277143981323174"><ele>282.5</ele><time>2026-04-27T08:00:29.008Z</time></trkpt><trkpt lat="45.948769019766885" lon="10.27719295670722"><ele>283.0</ele><time>2026-04-27T08:00:30.008Z</time></trkpt><trkpt lat="45.94889229020033" lon="10.277273085020015"><ele>283.5</ele><time>2026-04-27T08:00:31.008Z</time></trkpt><trkpt lat="45.949032917142596" lon="10.277394770796995"><ele>284.0</ele><time>2026-04-27T08:00:32.009Z</time></trkpt><trkpt lat="45.94917650686645" lon="10.277507526298029"><ele>283.6666666666667</ele><time>2026-04-27T08:00:33.008Z</time></trkpt><trkpt lat="45.949322867131585" lon="10.277618598914165"><ele>283.3333333333333</ele><time>2026-04-27T08:00:34.008Z</time></trkpt><trkpt lat="45.9494640869939" lon="10.277725133886051"><ele>283.0</ele><time>2026-04-27T08:00:35.009Z</time></trkpt><trkpt lat="45.94960892682551" lon="10.277849314709648"><ele>283.0</ele><time>2026-04-27T08:00:36.009Z</time></trkpt><trkpt lat="45.9497417824676" lon="10.277927721256725"><ele>283.0</ele><time>2026-04-27T08:00:37.009Z</time></trkpt><trkpt lat="45.94988863300499" lon="10.27796698087598"><ele>283.0</ele><time>2026-04-27T08:00:38.009Z</time></trkpt><trkpt lat="45.95001052658423" lon="10.278016870317138"><ele>283.0</ele><time>2026-04-27T08:00:39.009Z</time></trkpt><trkpt lat="45.95013862098481" lon="10.278053362172653"><ele>282.8</ele><time>2026-04-27T08:00:40.009Z</time></trkpt><trkpt lat="45.95027768169336" lon="10.278060701832867"><ele>282.6</ele><time>2026-04-27T08:00:41.009Z</time></trkpt><trkpt lat="45.95040663094238" lon="10.278031612278165"><ele>282.4</ele><time>2026-04-27T08:00:42.009Z</time></trkpt><trkpt lat="45.950482280918486" lon="10.278019598435492"><ele>282.2</ele><time>2026-04-27T08:00:43.009Z</time></trkpt><trkpt lat="45.95056086590323" lon="10.27799301386916"><ele>282.0</ele><time>2026-04-27T08:00:44.009Z</time></trkpt><trkpt lat="45.95066579560597" lon="10.277951183324168"><ele>282.0</ele><time>2026-04-27T08:00:45.008Z</time></trkpt><trkpt lat="45.95076934389337" lon="10.277909364318118"><ele>282.0</ele><time>2026-04-27T08:00:46.008Z</time></trkpt><trkpt lat="45.9508815881971" lon="10.277848562470382"><ele>282.0</ele><time>2026-04-27T08:00:47.008Z</time></trkpt><trkpt lat="45.95101738333259" lon="10.277767541566854"><ele>282.0</ele><time>2026-04-27T08:00:48.008Z</time></trkpt><trkpt lat="45.95112855266041" lon="10.277741127765626"><ele>281.75</ele><time>2026-04-27T08:00:49.008Z</time></trkpt><trkpt lat="45.951251647432684" lon="10.27772057953565"><ele>281.5</ele><time>2026-04-27T08:00:50.008Z</time></trkpt><trkpt lat="45.951377254542706" lon="10.277699449173335"><ele>281.25</ele><time>2026-04-27T08:00:51.008Z</time></trkpt><trkpt lat="45.951510095573155" lon="10.277701835981649"><ele>281.0</ele><time>2026-04-27T08:00:52.008Z</time></trkpt><trkpt lat="45.95166953226775" lon="10.27770984801093"><ele>281.5</ele><time>2026-04-27T08:00:53.008Z</time></trkpt><trkpt lat="45.95183245938913" lon="10.277742010938976"><ele>282.0</ele><time>2026-04-27T08:00:54.008Z</time></trkpt><trkpt lat="45.95197671835765" lon="10.277775547867792"><ele>282.5</ele><time>2026-04-27T08:00:55.008Z</time></trkpt><trkpt lat="45.9520943920806" lon="10.27782485109508"><ele>283.0</ele><time>2026-04-27T08:00:56.008Z</time></trkpt><trkpt lat="45.952200546040466" lon="10.277866493932542"><ele>283.0</ele><time>2026-04-27T08:00:57.008Z</time></trkpt><trkpt lat="45.95229993519515" lon="10.277896510618152"><ele>283.0</ele><time>2026-04-27T08:00:58.008Z</time></trkpt><trkpt lat="45.95239829491351" lon="10.277917733595247"><ele>283.0</ele><time>2026-04-27T08:00:59.008Z</time></trkpt><trkpt lat="45.95248935533084" lon="10.27797077709814"><ele>283.0</ele><time>2026-04-27T08:01:00.008Z</time></trkpt><trkpt lat="45.952605753906184" lon="10.277986147417318"><ele>283.0</ele><time>2026-04-27T08:01:01.008Z</time></trkpt><trkpt lat="45.952728833825994" lon="10.27800666028759"><ele>282.75</ele><time>2026-04-27T08:01:02.008Z</time></trkpt><trkpt lat="45.952847785330285" lon="10.278029524965548"><ele>282.5</ele><time>2026-04-27T08:01:03.008Z</time></trkpt><trkpt lat="45.952955451685" lon="10.278044334604466"><ele>282.25</ele><time>2026-04-27T08:01:04.008Z</time></trkpt><trkpt lat="45.95306845270802" lon="10.27806763619267"><ele>282.0</ele><time>2026-04-27T08:01:05.008Z</time></trkpt><trkpt lat="45.953183403733945" lon="10.278107239819"><ele>282.0</ele><time>2026-04-27T08:01:06.008Z</time></trkpt><trkpt lat="45.95330696733637" lon="10.278170486660034"><ele>282.0</ele><time>2026-04-27T08:01:07.008Z</time></trkpt><trkpt lat="45.95342160329563" lon="10.278275802595944"><ele>282.0</ele><time>2026-04-27T08:01:08.008Z</time></trkpt><trkpt lat="45.953533960503215" lon="10.27842349465796"><ele>282.0</ele><time>2026-04-27T08:01:09.008Z</time></trkpt><trkpt lat="45.95361960649716" lon="10.278591171276979"><ele>289.6666666666667</ele><time>2026-04-27T08:01:10.008Z</time></trkpt><trkpt lat="45.95369418013784" lon="10.278744723843955"><ele>297.33333333333337</ele><time>2026-04-27T08:01:11.008Z</time></trkpt><trkpt lat="45.953779454672464" lon="10.278926389799999"><ele>305.0</ele><time>2026-04-27T08:01:12.008Z</time></trkpt><trkpt lat="45.95387547480541" lon="10.279139683209078"><ele>305.0</ele><time>2026-04-27T08:01:13.008Z</time></trkpt><trkpt lat="45.95397630148605" lon="10.279400288996976"><ele>305.0</ele><time>2026-04-27T08:01:14.008Z</time></trkpt><trkpt lat="45.95406017580314" lon="10.279701811968911"><ele>305.0</ele><time>2026-04-27T08:01:15.008Z</time></trkpt><trkpt lat="45.95414828177841" lon="10.279993462991516"><ele>311.0</ele><time>2026-04-27T08:01:16.008Z</time></trkpt><trkpt lat="45.9542343063735" lon="10.280273034068168"><ele>317.0</ele><time>2026-04-27T08:01:17.008Z</time></trkpt><trkpt lat="45.95431979987568" lon="10.280546487591058"><ele>323.0</ele><time>2026-04-27T08:01:18.008Z</time></trkpt><trkpt lat="45.95439577499971" lon="10.280785540723357"><ele>323.0</ele><time>2026-04-27T08:01:19.008Z</time></trkpt><trkpt lat="45.954473906253384" lon="10.28103408263958"><ele>323.0</ele><time>2026-04-27T08:01:20.008Z</time></trkpt><trkpt lat="45.95456088081895" lon="10.281280028323259"><ele>323.0</ele><time>2026-04-27T08:01:21.008Z</time></trkpt><trkpt lat="45.954642686623295" lon="10.281536049843808"><ele>315.33333333333337</ele><time>2026-04-27T08:01:22.008Z</time></trkpt><trkpt lat="45.95472334293676" lon="10.281772692896194"><ele>307.6666666666667</ele><time>2026-04-27T08:01:23.008Z</time></trkpt><trkpt lat="45.954791903341004" lon="10.281980447845772"><ele>300.0</ele><time>2026-04-27T08:01:24.008Z</time></trkpt><trkpt lat="45.95484781036989" lon="10.282159645918012"><ele>296.75</ele><time>2026-04-27T08:01:25.008Z</time></trkpt><trkpt lat="45.95490387850071" lon="10.282327558160091"><ele>293.5</ele><time>2026-04-27T08:01:26.008Z</time></trkpt><trkpt lat="45.95498327443859" lon="10.282483209463805"><ele>290.25</ele><time>2026-04-27T08:01:27.008Z</time></trkpt><trkpt lat="45.95507953528715" lon="10.282627914343953"><ele>287.0</ele><time>2026-04-27T08:01:28.008Z</time></trkpt><trkpt lat="45.95518894053302" lon="10.282741914234064"><ele>300.0</ele><time>2026-04-27T08:01:29.008Z</time></trkpt><trkpt lat="45.95532012934577" lon="10.282843409773337"><ele>313.0</ele><time>2026-04-27T08:01:30.008Z</time></trkpt><trkpt lat="45.95547189193673" lon="10.282936766774979"><ele>326.0</ele><time>2026-04-27T08:01:31.008Z</time></trkpt><trkpt lat="45.955640532507545" lon="10.283044375249448"><ele>323.33333333333337</ele><time>2026-04-27T08:01:32.008Z</time></trkpt><trkpt lat="45.95582782162378" lon="10.283141246095148"><ele>320.6666666666667</ele><time>2026-04-27T08:01:33.008Z</time></trkpt><trkpt lat="45.95600870862725" lon="10.283229491974918"><ele>318.0</ele><time>2026-04-27T08:01:34.008Z</time></trkpt><trkpt lat="45.956181569848596" lon="10.283341573798117"><ele>318.0</ele><time>2026-04-27T08:01:35.008Z</time></trkpt><trkpt lat="45.95635530609503" lon="10.283451462675774"><ele>318.0</ele><time>2026-04-27T08:01:36.008Z</time></trkpt><trkpt lat="45.95651678834654" lon="10.283591790004046"><ele>318.0</ele><time>2026-04-27T08:01:37.008Z</time></trkpt><trkpt lat="45.956667781396696" lon="10.28375922293069"><ele>319.6666666666667</ele><time>2026-04-27T08:01:38.008Z</time></trkpt><trkpt lat="45.95679793958214" lon="10.283963285443368"><ele>321.33333333333337</ele><time>2026-04-27T08:01:39.008Z</time></trkpt><trkpt lat="45.956929875294946" lon="10.284212511258882"><ele>323.0</ele><time>2026-04-27T08:01:40.008Z</time></trkpt><trkpt lat="45.957060131566415" lon="10.284486346468821"><ele>323.0</ele><time>2026-04-27T08:01:41.008Z</time></trkpt><trkpt lat="45.957180768952384" lon="10.284750457157621"><ele>323.0</ele><time>2026-04-27T08:01:42.008Z</time></trkpt><trkpt lat="45.95726765128386" lon="10.2850365823566"><ele>323.0</ele><time>2026-04-27T08:01:43.008Z</time></trkpt><trkpt lat="45.957338741062635" lon="10.285334543562042"><ele>315.6666666666667</ele><time>2026-04-27T08:01:44.008Z</time></trkpt><trkpt lat="45.95737896467088" lon="10.28564015477512"><ele>308.3333333333333</ele><time>2026-04-27T08:01:45.008Z</time></trkpt><trkpt lat="45.957416187930086" lon="10.285946038188627"><ele>301.0</ele><time>2026-04-27T08:01:46.008Z</time></trkpt><trkpt lat="45.95743344958144" lon="10.286270533997287"><ele>298.66666666666663</ele><time>2026-04-27T08:01:47.008Z</time></trkpt><trkpt lat="45.95746400324856" lon="10.286569600626398"><ele>296.3333333333333</ele><time>2026-04-27T08:01:48.008Z</time></trkpt><trkpt lat="45.95748343190608" lon="10.286815410973187"><ele>294.0</ele><time>2026-04-27T08:01:49.008Z</time></trkpt><trkpt lat="45.957496371031965" lon="10.287031670536866"><ele>294.0</ele><time>2026-04-27T08:01:50.008Z</time></trkpt><trkpt lat="45.957508880520265" lon="10.287233175910846"><ele>294.0</ele><time>2026-04-27T08:01:51.008Z</time></trkpt><trkpt lat="45.95752014541609" lon="10.287416515480169"><ele>294.0</ele><time>2026-04-27T08:01:52.008Z</time></trkpt><trkpt lat="45.95753872558513" lon="10.287588953487903"><ele>294.0</ele><time>2026-04-27T08:01:53.008Z</time></trkpt><trkpt lat="45.95753994929584" lon="10.28775856120646"><ele>292.5</ele><time>2026-04-27T08:01:54.008Z</time></trkpt><trkpt lat="45.95751269428267" lon="10.287945653572578"><ele>291.0</ele><time>2026-04-27T08:01:55.008Z</time></trkpt><trkpt lat="45.957465121630754" lon="10.288124527832696"><ele>289.5</ele><time>2026-04-27T08:01:56.008Z</time></trkpt><trkpt lat="45.957398750362145" lon="10.288282895734543"><ele>288.0</ele><time>2026-04-27T08:01:57.008Z</time></trkpt><trkpt lat="45.95730964524591" lon="10.288415408212982"><ele>288.0</ele><time>2026-04-27T08:01:58.008Z</time></trkpt><trkpt lat="45.957194901412215" lon="10.288524401401551"><ele>288.0</ele><time>2026-04-27T08:01:59.008Z</time></trkpt><trkpt lat="45.95707062258427" lon="10.288602724094085"><ele>288.0</ele><time>2026-04-27T08:02:00.008Z</time></trkpt><trkpt lat="45.95694761320884" lon="10.288687922082577"><ele>288.0</ele><time>2026-04-27T08:02:01.008Z</time></trkpt><trkpt lat="45.956830916244805" lon="10.288730684793807"><ele>288.0</ele><time>2026-04-27T08:02:02.008Z</time></trkpt><trkpt lat="45.95672179893941" lon="10.288802205291816"><ele>288.0</ele><time>2026-04-27T08:02:03.008Z</time></trkpt><trkpt lat="45.956609934454484" lon="10.28887850957682"><ele>288.0</ele><time>2026-04-27T08:02:04.008Z</time></trkpt><trkpt lat="45.95649805990745" lon="10.288968713094649"><ele>288.0</ele><time>2026-04-27T08:02:05.008Z</time></trkpt><trkpt lat="45.95639049240692" lon="10.289087035514013"><ele>288.0</ele><time>2026-04-27T08:02:06.008Z</time></trkpt><trkpt lat="45.95630067352745" lon="10.289224780330814"><ele>288.0</ele><time>2026-04-27T08:02:07.008Z</time></trkpt><trkpt lat="45.95622617096065" lon="10.289384551805709"><ele>288.0</ele><time>2026-04-27T08:02:08.008Z</time></trkpt><trkpt lat="45.95617901287004" lon="10.289549873892748"><ele>288.0</ele><time>2026-04-27T08:02:09.008Z</time></trkpt><trkpt lat="45.956155279410666" lon="10.28973421367108"><ele>288.0</ele><time>2026-04-27T08:02:10.008Z</time></trkpt><trkpt lat="45.95616231097491" lon="10.28992850278745"><ele>288.0</ele><time>2026-04-27T08:02:11.008Z</time></trkpt><trkpt lat="45.9561861108163" lon="10.290116431097099"><ele>288.0</ele><time>2026-04-27T08:02:12.008Z</time></trkpt><trkpt lat="45.956213328918494" lon="10.2902926022821"><ele>288.0</ele><time>2026-04-27T08:02:13.008Z</time></trkpt><trkpt lat="45.95623788238197" lon="10.29047334956408"><ele>288.6</ele><time>2026-04-27T08:02:14.008Z</time></trkpt><trkpt lat="45.95625920765423" lon="10.290621288092344"><ele>289.20000000000005</ele><time>2026-04-27T08:02:15.008Z</time></trkpt><trkpt lat="45.95628246141458" lon="10.290774261810414"><ele>289.8</ele><time>2026-04-27T08:02:16.008Z</time></trkpt><trkpt lat="45.9562701399543" lon="10.290936401043673"><ele>290.40000000000003</ele><time>2026-04-27T08:02:17.008Z</time></trkpt><trkpt lat="45.95628564078892" lon="10.291095428750229"><ele>291.0</ele><time>2026-04-27T08:02:18.008Z</time></trkpt><trkpt lat="45.95629090336158" lon="10.291261002606037"><ele>292.5</ele><time>2026-04-27T08:02:19.008Z</time></trkpt><trkpt lat="45.956281922639455" lon="10.291438249068303"><ele>294.0</ele><time>2026-04-27T08:02:20.008Z</time></trkpt><trkpt lat="45.95624716224263" lon="10.291621785918268"><ele>295.5</ele><time>2026-04-27T08:02:21.008Z</time></trkpt><trkpt lat="45.95619570881753" lon="10.291816568384274"><ele>297.0</ele><time>2026-04-27T08:02:22.008Z</time></trkpt><trkpt lat="45.956135851828144" lon="10.292013535543717"><ele>297.0</ele><time>2026-04-27T08:02:23.008Z</time></trkpt><trkpt lat="45.956081029193896" lon="10.292204451996913"><ele>297.0</ele><time>2026-04-27T08:02:24.008Z</time></trkpt><trkpt lat="45.95602924338744" lon="10.292364612580453"><ele>297.0</ele><time>2026-04-27T08:02:25.008Z</time></trkpt><trkpt lat="45.95597852295961" lon="10.292534681513"><ele>297.0</ele><time>2026-04-27T08:02:26.008Z</time></trkpt><trkpt lat="45.95593125569396" lon="10.292707515874948"><ele>298.75</ele><time>2026-04-27T08:02:27.008Z</time></trkpt><trkpt lat="45.95588590006804" lon="10.292866601470928"><ele>300.5</ele><time>2026-04-27T08:02:28.008Z</time></trkpt><trkpt lat="45.955839177915195" lon="10.293009463908993"><ele>302.25</ele><time>2026-04-27T08:02:29.008Z</time></trkpt><trkpt lat="45.95579446726481" lon="10.29317231119673"><ele>304.0</ele><time>2026-04-27T08:02:30.008Z</time></trkpt><trkpt lat="45.9557411771038" lon="10.293326340608782"><ele>307.25</ele><time>2026-04-27T08:02:31.008Z</time></trkpt><trkpt lat="45.95566477746792" lon="10.293471167281613"><ele>310.5</ele><time>2026-04-27T08:02:32.008Z</time></trkpt><trkpt lat="45.95557003843982" lon="10.293603333325454"><ele>313.75</ele><time>2026-04-27T08:02:33.008Z</time></trkpt><trkpt lat="45.95545732962981" lon="10.293730313215987"><ele>317.0</ele><time>2026-04-27T08:02:34.008Z</time></trkpt><trkpt lat="45.95532085240723" lon="10.293877495060384"><ele>317.6666666666667</ele><time>2026-04-27T08:02:35.008Z</time></trkpt><trkpt lat="45.95514536701968" lon="10.294014439458168"><ele>318.3333333333333</ele><time>2026-04-27T08:02:36.008Z</time></trkpt><trkpt lat="45.95495651552397" lon="10.294188388786454"><ele>319.0</ele><time>2026-04-27T08:02:37.008Z</time></trkpt><trkpt lat="45.954773066422675" lon="10.294369580379904"><ele>319.0</ele><time>2026-04-27T08:02:38.009Z</time></trkpt><trkpt lat="45.95460947970327" lon="10.294512330292031"><ele>319.0</ele><time>2026-04-27T08:02:39.009Z</time></trkpt><trkpt lat="45.954459455085235" lon="10.294649153847631"><ele>319.0</ele><time>2026-04-27T08:02:40.009Z</time></trkpt><trkpt lat="45.954313011754884" lon="10.29477522348406"><ele>319.66666666666663</ele><time>2026-04-27T08:02:41.009Z</time></trkpt><trkpt lat="45.95417342201204" lon="10.294915384607073"><ele>320.3333333333333</ele><time>2026-04-27T08:02:42.009Z</time></trkpt><trkpt lat="45.95404544704297" lon="10.295046116589996"><ele>321.0</ele><time>2026-04-27T08:02:43.009Z</time></trkpt><trkpt lat="45.953925879812246" lon="10.295185758939668"><ele>321.0</ele><time>2026-04-27T08:02:44.009Z</time></trkpt><trkpt lat="45.95381820709823" lon="10.295362550950482"><ele>321.0</ele><time>2026-04-27T08:02:45.009Z</time></trkpt><trkpt lat="45.95372784589806" lon="10.295552143986821"><ele>321.0</ele><time>2026-04-27T08:02:46.009Z</time></trkpt><trkpt lat="45.95366091023665" lon="10.295758480534415"><ele>320.6666666666667</ele><time>2026-04-27T08:02:47.009Z</time></trkpt><trkpt lat="45.95361267968448" lon="10.295980318334719"><ele>320.33333333333337</ele><time>2026-04-27T08:02:48.009Z</time></trkpt><trkpt lat="45.953590271346066" lon="10.29618689207808"><ele>320.0</ele><time>2026-04-27T08:02:49.009Z</time></trkpt><trkpt lat="45.95358872861977" lon="10.296393507614399"><ele>322.75</ele><time>2026-04-27T08:02:50.01Z</time></trkpt><trkpt lat="45.953600878626396" lon="10.29660459618834"><ele>325.5</ele><time>2026-04-27T08:02:51.009Z</time></trkpt><trkpt lat="45.953624385665194" lon="10.296807148553993"><ele>328.25</ele><time>2026-04-27T08:02:52.009Z</time></trkpt><trkpt lat="45.953661493354076" lon="10.297010345044198"><ele>331.0</ele><time>2026-04-27T08:02:53.009Z</time></trkpt><trkpt lat="45.95370413718948" lon="10.297215921504355"><ele>333.0</ele><time>2026-04-27T08:02:54.009Z</time></trkpt><trkpt lat="45.95375089914254" lon="10.297406372913613"><ele>335.0</ele><time>2026-04-27T08:02:55.009Z</time></trkpt><trkpt lat="45.95379214547066" lon="10.297589365043459"><ele>337.0</ele><time>2026-04-27T08:02:56.009Z</time></trkpt><trkpt lat="45.95383516641732" lon="10.297753189855879"><ele>339.0</ele><time>2026-04-27T08:02:57.009Z</time></trkpt><trkpt lat="45.95388155118733" lon="10.297889864388933"><ele>339.0</ele><time>2026-04-27T08:02:58.009Z</time></trkpt><trkpt lat="45.95393345941998" lon="10.298034743035156"><ele>339.0</ele><time>2026-04-27T08:02:59.009Z</time></trkpt><trkpt lat="45.953999683068204" lon="10.298179315526893"><ele>339.0</ele><time>2026-04-27T08:03:00.009Z</time></trkpt><trkpt lat="45.95410167784103" lon="10.298330459400926"><ele>339.0</ele><time>2026-04-27T08:03:01.009Z</time></trkpt><trkpt lat="45.95418935791316" lon="10.298469135087522"><ele>340.25</ele><time>2026-04-27T08:03:02.009Z</time></trkpt><trkpt lat="45.95426793859529" lon="10.298592367265236"><ele>341.5</ele><time>2026-04-27T08:03:03.009Z</time></trkpt><trkpt lat="45.9543488490851" lon="10.29871158202595"><ele>342.75</ele><time>2026-04-27T08:03:04.009Z</time></trkpt><trkpt lat="45.9544285087901" lon="10.29882798837518"><ele>344.0</ele><time>2026-04-27T08:03:05.009Z</time></trkpt><trkpt lat="45.95451413775252" lon="10.298949194850222"><ele>344.0</ele><time>2026-04-27T08:03:06.009Z</time></trkpt><trkpt lat="45.954592480768426" lon="10.299064176502524"><ele>344.0</ele><time>2026-04-27T08:03:07.009Z</time></trkpt><trkpt lat="45.95465572862901" lon="10.299183444460073"><ele>344.0</ele><time>2026-04-27T08:03:08.009Z</time></trkpt><trkpt lat="45.95472773818596" lon="10.299307772774194"><ele>344.0</ele><time>2026-04-27T08:03:09.009Z</time></trkpt><trkpt lat="45.95481266790502" lon="10.299441276405544"><ele>344.0</ele><time>2026-04-27T08:03:10.009Z</time></trkpt><trkpt lat="45.95489361653751" lon="10.299581190548892"><ele>344.0</ele><time>2026-04-27T08:03:11.009Z</time></trkpt><trkpt lat="45.954996862695694" lon="10.299728159188515"><ele>344.0</ele><time>2026-04-27T08:03:12.009Z</time></trkpt><trkpt lat="45.95508783320338" lon="10.299878340898038"><ele>344.0</ele><time>2026-04-27T08:03:13.009Z</time></trkpt><trkpt lat="45.95518427521723" lon="10.30001851362466"><ele>342.75</ele><time>2026-04-27T08:03:14.009Z</time></trkpt><trkpt lat="45.955270528995726" lon="10.300167880150887"><ele>341.5</ele><time>2026-04-27T08:03:15.009Z</time></trkpt><trkpt lat="45.95537468166544" lon="10.300310114048925"><ele>340.25</ele><time>2026-04-27T08:03:16.009Z</time></trkpt><trkpt lat="45.95547295370158" lon="10.300437815872456"><ele>339.0</ele><time>2026-04-27T08:03:17.009Z</time></trkpt><trkpt lat="45.95554608932873" lon="10.300546414117974"><ele>339.0</ele><time>2026-04-27T08:03:18.009Z</time></trkpt><trkpt lat="45.95562130669421" lon="10.300655359116336"><ele>339.0</ele><time>2026-04-27T08:03:19.009Z</time></trkpt><trkpt lat="45.95568387847164" lon="10.300784498127584"><ele>339.0</ele><time>2026-04-27T08:03:20.009Z</time></trkpt><trkpt lat="45.95577255264134" lon="10.300892464055535"><ele>339.0</ele><time>2026-04-27T08:03:21.009Z</time></trkpt><trkpt lat="45.955844625010464" lon="10.301036486584417"><ele>338.0</ele><time>2026-04-27T08:03:22.009Z</time></trkpt><trkpt lat="45.95591330745657" lon="10.301144168899702"><ele>337.0</ele><time>2026-04-27T08:03:23.009Z</time></trkpt><trkpt lat="45.955978997144534" lon="10.301247159083832"><ele>336.0</ele><time>2026-04-27T08:03:24.009Z</time></trkpt><trkpt lat="45.95605393864998" lon="10.301363818318823"><ele>335.0</ele><time>2026-04-27T08:03:25.009Z</time></trkpt><trkpt lat="45.95612870707288" lon="10.30144675228612"><ele>334.0</ele><time>2026-04-27T08:03:26.009Z</time></trkpt><trkpt lat="45.95616297168126" lon="10.301536095200603"><ele>334.0</ele><time>2026-04-27T08:03:27.009Z</time></trkpt><trkpt lat="45.956233744527104" lon="10.301648196975075"><ele>334.0</ele><time>2026-04-27T08:03:29.009Z</time></trkpt><trkpt lat="45.9563171123182" lon="10.301778509601746"><ele>334.0</ele><time>2026-04-27T08:03:31.009Z</time></trkpt><trkpt lat="45.956382675480654" lon="10.301882033421212"><ele>334.0</ele><time>2026-04-27T08:03:32.009Z</time></trkpt><trkpt lat="45.95646256508848" lon="10.302006911690315"><ele>334.0</ele><time>2026-04-27T08:03:33.009Z</time></trkpt><trkpt lat="45.95654712121994" lon="10.302142010428977"><ele>334.5</ele><time>2026-04-27T08:03:34.009Z</time></trkpt><trkpt lat="45.956612701644936" lon="10.302252506601945"><ele>335.0</ele><time>2026-04-27T08:03:35.009Z</time></trkpt><trkpt lat="45.95667118785105" lon="10.302348704988013"><ele>335.5</ele><time>2026-04-27T08:03:36.009Z</time></trkpt><trkpt lat="45.95671484496463" lon="10.302425165423106"><ele>336.0</ele><time>2026-04-27T08:03:37.009Z</time></trkpt><trkpt lat="45.95676553496601" lon="10.302500140510581"><ele>336.5</ele><time>2026-04-27T08:03:38.009Z</time></trkpt><trkpt lat="45.9568196989058" lon="10.30257758897862"><ele>337.0</ele><time>2026-04-27T08:03:39.009Z</time></trkpt><trkpt lat="45.95686707704511" lon="10.302642848053646"><ele>336.0</ele><time>2026-04-27T08:03:40.009Z</time></trkpt><trkpt lat="45.95694806575807" lon="10.302764814562746"><ele>335.0</ele><time>2026-04-27T08:03:42.009Z</time></trkpt><trkpt lat="45.95701109461858" lon="10.302861722461108"><ele>334.0</ele><time>2026-04-27T08:03:44.009Z</time></trkpt><trkpt lat="45.957077992150346" lon="10.302976855973197"><ele>333.0</ele><time>2026-04-27T08:03:46.009Z</time></trkpt><trkpt lat="45.9571532935733" lon="10.303107113489244"><ele>332.0</ele><time>2026-04-27T08:03:48.009Z</time></trkpt><trkpt lat="45.95720617687656" lon="10.303169222859552"><ele>332.0</ele><time>2026-04-27T08:03:49.009Z</time></trkpt><trkpt lat="45.95728324101985" lon="10.303287362320756"><ele>332.0</ele><time>2026-04-27T08:03:51.009Z</time></trkpt><trkpt lat="45.957360044557944" lon="10.30340004187814"><ele>332.0</ele><time>2026-04-27T08:03:53.009Z</time></trkpt><trkpt lat="45.957443559036435" lon="10.303531544511177"><ele>332.0</ele><time>2026-04-27T08:03:55.009Z</time></trkpt><trkpt lat="45.95748717956058" lon="10.303603666502722"><ele>332.0</ele><time>2026-04-27T08:03:56.009Z</time></trkpt><trkpt lat="45.957535186686876" lon="10.303682196179809"><ele>331.1428571428571</ele><time>2026-04-27T08:03:57.009Z</time></trkpt><trkpt lat="45.95758117437087" lon="10.303758970677334"><ele>330.28571428571433</ele><time>2026-04-27T08:03:58.009Z</time></trkpt><trkpt lat="45.95763562308057" lon="10.303830152442265"><ele>329.42857142857144</ele><time>2026-04-27T08:03:59.009Z</time></trkpt><trkpt lat="45.9576802757231" lon="10.30390118034407"><ele>328.57142857142856</ele><time>2026-04-27T08:04:00.009Z</time></trkpt><trkpt lat="45.957725237860785" lon="10.303972270892057"><ele>327.71428571428567</ele><time>2026-04-27T08:04:01.009Z</time></trkpt><trkpt lat="45.95777201395162" lon="10.304045812895305"><ele>326.8571428571429</ele><time>2026-04-27T08:04:02.009Z</time></trkpt><trkpt lat="45.95783023733284" lon="10.304115523100366"><ele>326.0</ele><time>2026-04-27T08:04:03.009Z</time></trkpt><trkpt lat="45.95787586445362" lon="10.30419584851638"><ele>326.0</ele><time>2026-04-27T08:04:04.009Z</time></trkpt><trkpt lat="45.9579221044431" lon="10.30428315251842"><ele>326.0</ele><time>2026-04-27T08:04:05.009Z</time></trkpt><trkpt lat="45.95795076663987" lon="10.304373759905795"><ele>326.0</ele><time>2026-04-27T08:04:06.009Z</time></trkpt><trkpt lat="45.9579866159075" lon="10.304462983837615"><ele>326.0</ele><time>2026-04-27T08:04:07.009Z</time></trkpt><trkpt lat="45.95801802136477" lon="10.304563411591708"><ele>326.0</ele><time>2026-04-27T08:04:08.009Z</time></trkpt><trkpt lat="45.95805242898234" lon="10.304675116999006"><ele>326.0</ele><time>2026-04-27T08:04:09.009Z</time></trkpt><trkpt lat="45.95807506837275" lon="10.304786875693683"><ele>326.1666666666667</ele><time>2026-04-27T08:04:10.009Z</time></trkpt><trkpt lat="45.958098977373346" lon="10.304896369056634"><ele>326.33333333333337</ele><time>2026-04-27T08:04:11.009Z</time></trkpt><trkpt lat="45.958124173231624" lon="10.305007079583778"><ele>326.5</ele><time>2026-04-27T08:04:12.009Z</time></trkpt><trkpt lat="45.958158743251474" lon="10.305113403690754"><ele>326.6666666666667</ele><time>2026-04-27T08:04:13.009Z</time></trkpt><trkpt lat="45.958197854539726" lon="10.305222083085697"><ele>326.8333333333333</ele><time>2026-04-27T08:04:14.009Z</time></trkpt><trkpt lat="45.95823428442936" lon="10.305331945555366"><ele>327.0</ele><time>2026-04-27T08:04:15.009Z</time></trkpt><trkpt lat="45.95826673662513" lon="10.305447718441373"><ele>327.0</ele><time>2026-04-27T08:04:16.009Z</time></trkpt><trkpt lat="45.95829334605734" lon="10.30555503406999"><ele>327.0</ele><time>2026-04-27T08:04:17.009Z</time></trkpt><trkpt lat="45.95832360655903" lon="10.305669092150056"><ele>327.0</ele><time>2026-04-27T08:04:18.009Z</time></trkpt><trkpt lat="45.9583672913456" lon="10.305789410086904"><ele>327.0</ele><time>2026-04-27T08:04:19.009Z</time></trkpt><trkpt lat="45.95841237936562" lon="10.305920740870773"><ele>327.0</ele><time>2026-04-27T08:04:20.009Z</time></trkpt><trkpt lat="45.95844085352844" lon="10.306029129491527"><ele>327.0</ele><time>2026-04-27T08:04:21.009Z</time></trkpt><trkpt lat="45.958466393483484" lon="10.306133445243544"><ele>324.5</ele><time>2026-04-27T08:04:22.009Z</time></trkpt><trkpt lat="45.958469207750056" lon="10.30625191254109"><ele>322.0</ele><time>2026-04-27T08:04:23.009Z</time></trkpt><trkpt lat="45.958500698136376" lon="10.3063624691869"><ele>319.5</ele><time>2026-04-27T08:04:24.009Z</time></trkpt><trkpt lat="45.95853084975122" lon="10.306470142439036"><ele>317.0</ele><time>2026-04-27T08:04:25.009Z</time></trkpt><trkpt lat="45.95855617654462" lon="10.306575735763877"><ele>314.5</ele><time>2026-04-27T08:04:26.009Z</time></trkpt><trkpt lat="45.95858925593839" lon="10.306688576380546"><ele>312.0</ele><time>2026-04-27T08:04:27.009Z</time></trkpt><trkpt lat="45.95862377060843" lon="10.306776121712037"><ele>312.0</ele><time>2026-04-27T08:04:28.009Z</time></trkpt><trkpt lat="45.9586605118056" lon="10.306868092535572"><ele>312.0</ele><time>2026-04-27T08:04:29.009Z</time></trkpt><trkpt lat="45.95870739708678" lon="10.307026249786485"><ele>312.0</ele><time>2026-04-27T08:04:31.009Z</time></trkpt><trkpt lat="45.95873010982507" lon="10.307114578790245"><ele>312.0</ele><time>2026-04-27T08:04:32.009Z</time></trkpt><trkpt lat="45.95875936730945" lon="10.307212314325561"><ele>312.0</ele><time>2026-04-27T08:04:33.009Z</time></trkpt><trkpt lat="45.958790648622134" lon="10.307293908308163"><ele>312.0</ele><time>2026-04-27T08:04:34.009Z</time></trkpt><trkpt lat="45.95882287919715" lon="10.307393433547885"><ele>311.8333333333333</ele><time>2026-04-27T08:04:35.009Z</time></trkpt><trkpt lat="45.95885774781977" lon="10.30749048564358"><ele>311.6666666666667</ele><time>2026-04-27T08:04:36.009Z</time></trkpt><trkpt lat="45.95888746230504" lon="10.307597944854614"><ele>311.5</ele><time>2026-04-27T08:04:37.009Z</time></trkpt><trkpt lat="45.95891401399926" lon="10.307708526862074"><ele>311.33333333333337</ele><time>2026-04-27T08:04:38.009Z</time></trkpt><trkpt lat="45.95892716557604" lon="10.30782613600734"><ele>311.1666666666667</ele><time>2026-04-27T08:04:39.009Z</time></trkpt><trkpt lat="45.95892840587351" lon="10.307933750611994"><ele>311.0</ele><time>2026-04-27T08:04:40.009Z</time></trkpt><trkpt lat="45.958927257607854" lon="10.308045629799361"><ele>311.0</ele><time>2026-04-27T08:04:41.009Z</time></trkpt><trkpt lat="45.95891906245685" lon="10.308154004120222"><ele>311.0</ele><time>2026-04-27T08:04:42.009Z</time></trkpt><trkpt lat="45.958915831907376" lon="10.308268466650201"><ele>311.0</ele><time>2026-04-27T08:04:43.009Z</time></trkpt><trkpt lat="45.95892878276434" lon="10.308362775178086"><ele>311.0</ele><time>2026-04-27T08:04:44.009Z</time></trkpt><trkpt lat="45.958949885537166" lon="10.308462673561397"><ele>311.0</ele><time>2026-04-27T08:04:45.01Z</time></trkpt><trkpt lat="45.958979263369756" lon="10.308563512068051"><ele>311.0</ele><time>2026-04-27T08:04:46.01Z</time></trkpt><trkpt lat="45.95902592710269" lon="10.308671391866058"><ele>311.0</ele><time>2026-04-27T08:04:47.009Z</time></trkpt><trkpt lat="45.959077188592815" lon="10.308780907264277"><ele>311.0</ele><time>2026-04-27T08:04:48.009Z</time></trkpt><trkpt lat="45.95912433180556" lon="10.308880532554827"><ele>311.0</ele><time>2026-04-27T08:04:49.009Z</time></trkpt><trkpt lat="45.959179288244044" lon="10.308996756813164"><ele>311.0</ele><time>2026-04-27T08:04:50.009Z</time></trkpt><trkpt lat="45.95922548975961" lon="10.309114814276002"><ele>311.0</ele><time>2026-04-27T08:04:51.01Z</time></trkpt><trkpt lat="45.959288117791026" lon="10.309239626396232"><ele>308.75</ele><time>2026-04-27T08:04:52.01Z</time></trkpt><trkpt lat="45.95935201591043" lon="10.309373896728456"><ele>306.5</ele><time>2026-04-27T08:04:53.01Z</time></trkpt><trkpt lat="45.959426780824884" lon="10.30951427667794"><ele>304.25</ele><time>2026-04-27T08:04:54.01Z</time></trkpt><trkpt lat="45.959494121330714" lon="10.309665478004709"><ele>302.0</ele><time>2026-04-27T08:04:55.01Z</time></trkpt><trkpt lat="45.95956934156802" lon="10.309824591076715"><ele>302.0</ele><time>2026-04-27T08:04:56.009Z</time></trkpt><trkpt lat="45.959634004119835" lon="10.309981058858522"><ele>302.0</ele><time>2026-04-27T08:04:57.009Z</time></trkpt><trkpt lat="45.959716756793746" lon="10.310163984081003"><ele>302.0</ele><time>2026-04-27T08:04:58.009Z</time></trkpt><trkpt lat="45.95977483391591" lon="10.310322915372698"><ele>302.0</ele><time>2026-04-27T08:04:59.009Z</time></trkpt><trkpt lat="45.95985209715285" lon="10.310471211778564"><ele>301.75</ele><time>2026-04-27T08:05:00.009Z</time></trkpt><trkpt lat="45.95990967502297" lon="10.31061188785096"><ele>301.5</ele><time>2026-04-27T08:05:01.009Z</time></trkpt><trkpt lat="45.95997459625112" lon="10.31077223145455"><ele>301.25</ele><time>2026-04-27T08:05:02.009Z</time></trkpt><trkpt lat="45.960024093748736" lon="10.31094306498017"><ele>301.0</ele><time>2026-04-27T08:05:03.009Z</time></trkpt><trkpt lat="45.96006112286218" lon="10.311121564857155"><ele>299.0</ele><time>2026-04-27T08:05:04.009Z</time></trkpt><trkpt lat="45.96009883736882" lon="10.311297776766931"><ele>297.0</ele><time>2026-04-27T08:05:05.009Z</time></trkpt><trkpt lat="45.960133919719055" lon="10.311464537907769"><ele>295.0</ele><time>2026-04-27T08:05:06.009Z</time></trkpt><trkpt lat="45.960186659486766" lon="10.311615730757705"><ele>293.0</ele><time>2026-04-27T08:05:07.009Z</time></trkpt><trkpt lat="45.96023381708675" lon="10.31177724914215"><ele>293.0</ele><time>2026-04-27T08:05:08.009Z</time></trkpt><trkpt lat="45.96029982601693" lon="10.31193331769201"><ele>293.0</ele><time>2026-04-27T08:05:09.009Z</time></trkpt><trkpt lat="45.96039942834197" lon="10.31209516919518"><ele>293.0</ele><time>2026-04-27T08:05:10.009Z</time></trkpt><trkpt lat="45.96053837658169" lon="10.312275912856101"><ele>292.6666666666667</ele><time>2026-04-27T08:05:11.009Z</time></trkpt><trkpt lat="45.96067924456891" lon="10.312456120141633"><ele>292.3333333333333</ele><time>2026-04-27T08:05:12.009Z</time></trkpt><trkpt lat="45.96082687354886" lon="10.312617884378104"><ele>292.0</ele><time>2026-04-27T08:05:13.009Z</time></trkpt><trkpt lat="45.960957587918735" lon="10.312752108204448"><ele>292.0</ele><time>2026-04-27T08:05:14.009Z</time></trkpt><trkpt lat="45.96109463950989" lon="10.312883069585611"><ele>292.0</ele><time>2026-04-27T08:05:15.009Z</time></trkpt><trkpt lat="45.96121329862698" lon="10.313013465943587"><ele>292.0</ele><time>2026-04-27T08:05:16.009Z</time></trkpt><trkpt lat="45.96131527562552" lon="10.31313276400933"><ele>292.0</ele><time>2026-04-27T08:05:17.009Z</time></trkpt><trkpt lat="45.96142413286977" lon="10.31324086283701"><ele>292.0</ele><time>2026-04-27T08:05:18.009Z</time></trkpt><trkpt lat="45.96149615959352" lon="10.313341475382583"><ele>292.0</ele><time>2026-04-27T08:05:19.009Z</time></trkpt><trkpt lat="45.96158729742427" lon="10.313398669136534"><ele>292.0</ele><time>2026-04-27T08:05:20.009Z</time></trkpt><trkpt lat="45.96166553004288" lon="10.313455290643484"><ele>292.0</ele><time>2026-04-27T08:05:21.009Z</time></trkpt><trkpt lat="45.961761960648495" lon="10.313545157938547"><ele>292.0</ele><time>2026-04-27T08:05:22.009Z</time></trkpt><trkpt lat="45.961874178055815" lon="10.31363425137589"><ele>291.75</ele><time>2026-04-27T08:05:23.009Z</time></trkpt><trkpt lat="45.96195841833087" lon="10.313739214996414"><ele>291.5</ele><time>2026-04-27T08:05:24.009Z</time></trkpt><trkpt lat="45.96203474394878" lon="10.313854721939501"><ele>291.25</ele><time>2026-04-27T08:05:25.009Z</time></trkpt><trkpt lat="45.962121968003366" lon="10.313961089656704"><ele>291.0</ele><time>2026-04-27T08:05:26.009Z</time></trkpt><trkpt lat="45.96223685600267" lon="10.314057736665957"><ele>291.75</ele><time>2026-04-27T08:05:27.009Z</time></trkpt><trkpt lat="45.962367969873554" lon="10.314150168058449"><ele>292.5</ele><time>2026-04-27T08:05:28.009Z</time></trkpt><trkpt lat="45.96249438366323" lon="10.31423117721455"><ele>293.25</ele><time>2026-04-27T08:05:29.009Z</time></trkpt><trkpt lat="45.96261434138557" lon="10.314316454721938"><ele>294.0</ele><time>2026-04-27T08:05:30.009Z</time></trkpt><trkpt lat="45.96274943648602" lon="10.31443703969553"><ele>294.0</ele><time>2026-04-27T08:05:31.009Z</time></trkpt><trkpt lat="45.96288096643387" lon="10.31453655731802"><ele>294.0</ele><time>2026-04-27T08:05:32.009Z</time></trkpt><trkpt lat="45.96301965932225" lon="10.314616191722687"><ele>294.0</ele><time>2026-04-27T08:05:33.009Z</time></trkpt><trkpt lat="45.96314070888534" lon="10.314707424357684"><ele>294.0</ele><time>2026-04-27T08:05:34.009Z</time></trkpt><trkpt lat="45.963240577924495" lon="10.314797276405402"><ele>294.0</ele><time>2026-04-27T08:05:35.009Z</time></trkpt><trkpt lat="45.963351096943775" lon="10.314880340580704"><ele>294.0</ele><time>2026-04-27T08:05:36.009Z</time></trkpt><trkpt lat="45.96345488474753" lon="10.314957266990946"><ele>294.0</ele><time>2026-04-27T08:05:37.009Z</time></trkpt><trkpt lat="45.96355771032611" lon="10.315035588027902"><ele>294.0</ele><time>2026-04-27T08:05:38.009Z</time></trkpt><trkpt lat="45.9636658581435" lon="10.315111452412438"><ele>294.0</ele><time>2026-04-27T08:05:39.009Z</time></trkpt><trkpt lat="45.96376758001617" lon="10.315185903128999"><ele>294.0</ele><time>2026-04-27T08:05:40.009Z</time></trkpt><trkpt lat="45.963841898891516" lon="10.315257239158463"><ele>294.0</ele><time>2026-04-27T08:05:41.009Z</time></trkpt><trkpt lat="45.96391096207165" lon="10.315320384874754"><ele>294.0</ele><time>2026-04-27T08:05:42.009Z</time></trkpt><trkpt lat="45.963983821113324" lon="10.315370111356344"><ele>294.0</ele><time>2026-04-27T08:05:43.009Z</time></trkpt><trkpt lat="45.96406652528247" lon="10.315412831714298"><ele>294.0</ele><time>2026-04-27T08:05:44.009Z</time></trkpt><trkpt lat="45.96412386292927" lon="10.315479732396676"><ele>294.0</ele><time>2026-04-27T08:05:46.009Z</time></trkpt><trkpt lat="45.96423213242156" lon="10.315629651172642"><ele>294.0</ele><time>2026-04-27T08:05:53.009Z</time></trkpt><trkpt lat="45.96426965170516" lon="10.315714040844657"><ele>294.0</ele><time>2026-04-27T08:05:54.009Z</time></trkpt><trkpt lat="45.964301215937695" lon="10.315804286809994"><ele>294.0</ele><time>2026-04-27T08:05:55.009Z</time></trkpt><trkpt lat="45.964378042592415" lon="10.315909404938969"><ele>294.2</ele><time>2026-04-27T08:05:57.009Z</time></trkpt><trkpt lat="45.96449418154405" lon="10.315927442409652"><ele>294.4</ele><time>2026-04-27T08:05:59.009Z</time></trkpt><trkpt lat="45.964559725209895" lon="10.315905928997013"><ele>294.6</ele><time>2026-04-27T08:06:00.009Z</time></trkpt><trkpt lat="45.964690478481614" lon="10.315916824370651"><ele>294.8</ele><time>2026-04-27T08:06:02.009Z</time></trkpt><trkpt lat="45.96476901485268" lon="10.315937224686667"><ele>295.0</ele><time>2026-04-27T08:06:03.009Z</time></trkpt><trkpt lat="45.96481698550862" lon="10.316005927432156"><ele>295.0</ele><time>2026-04-27T08:06:04.009Z</time></trkpt><trkpt lat="45.96488053375594" lon="10.316076344306843"><ele>295.0</ele><time>2026-04-27T08:06:15.009Z</time></trkpt><trkpt lat="45.96497802912084" lon="10.31614111462918"><ele>295.0</ele><time>2026-04-27T08:06:17.009Z</time></trkpt><trkpt lat="45.96504049737167" lon="10.316194512323943"><ele>295.0</ele><time>2026-04-27T08:06:18.009Z</time></trkpt><trkpt lat="45.96511318286131" lon="10.316250577693497"><ele>295.0</ele><time>2026-04-27T08:06:19.009Z</time></trkpt><trkpt lat="45.965187813878295" lon="10.316306816736109"><ele>295.0</ele><time>2026-04-27T08:06:20.009Z</time></trkpt><trkpt lat="45.96527488219003" lon="10.316368363408863"><ele>295.6</ele><time>2026-04-27T08:06:21.009Z</time></trkpt><trkpt lat="45.965363509867174" lon="10.316429958903127"><ele>296.2</ele><time>2026-04-27T08:06:22.009Z</time></trkpt><trkpt lat="45.96545871738107" lon="10.316507154108285"><ele>296.8</ele><time>2026-04-27T08:06:23.009Z</time></trkpt><trkpt lat="45.965556412823126" lon="10.316590470352443"><ele>297.4</ele><time>2026-04-27T08:06:24.009Z</time></trkpt><trkpt lat="45.96566595498792" lon="10.316671972141291"><ele>298.0</ele><time>2026-04-27T08:06:25.009Z</time></trkpt><trkpt lat="45.96576085638986" lon="10.316749983064366"><ele>297.8</ele><time>2026-04-27T08:06:26.009Z</time></trkpt><trkpt lat="45.965864504016615" lon="10.316821979140256"><ele>297.6</ele><time>2026-04-27T08:06:27.009Z</time></trkpt><trkpt lat="45.96595751922468" lon="10.316892741313438"><ele>297.4</ele><time>2026-04-27T08:06:28.009Z</time></trkpt><trkpt lat="45.966053283688" lon="10.316966359227921"><ele>297.2</ele><time>2026-04-27T08:06:29.009Z</time></trkpt><trkpt lat="45.966161455459535" lon="10.317038991726399"><ele>297.0</ele><time>2026-04-27T08:06:30.009Z</time></trkpt><trkpt lat="45.966287688916324" lon="10.31711621716291"><ele>297.0</ele><time>2026-04-27T08:06:31.009Z</time></trkpt><trkpt lat="45.96643402457369" lon="10.31718449272014"><ele>297.0</ele><time>2026-04-27T08:06:32.009Z</time></trkpt><trkpt lat="45.966597284950865" lon="10.317250851876596"><ele>297.0</ele><time>2026-04-27T08:06:33.009Z</time></trkpt><trkpt lat="45.96676599811626" lon="10.317315419854031"><ele>298.0</ele><time>2026-04-27T08:06:34.009Z</time></trkpt><trkpt lat="45.96697522208342" lon="10.317399551614825"><ele>299.0</ele><time>2026-04-27T08:06:35.009Z</time></trkpt><trkpt lat="45.96719503655716" lon="10.317473719496647"><ele>300.0</ele><time>2026-04-27T08:06:36.009Z</time></trkpt><trkpt lat="45.96739615925297" lon="10.317570676699287"><ele>300.0</ele><time>2026-04-27T08:06:37.009Z</time></trkpt><trkpt lat="45.96757537417896" lon="10.317659864162772"><ele>300.0</ele><time>2026-04-27T08:06:38.009Z</time></trkpt><trkpt lat="45.96776720344921" lon="10.317756835928197"><ele>300.0</ele><time>2026-04-27T08:06:39.009Z</time></trkpt><trkpt lat="45.96794692704222" lon="10.317852298585525"><ele>300.0</ele><time>2026-04-27T08:06:40.009Z</time></trkpt><trkpt lat="45.968106388916354" lon="10.317937065607344"><ele>300.0</ele><time>2026-04-27T08:06:41.009Z</time></trkpt><trkpt lat="45.96825588942374" lon="10.318019291657455"><ele>300.0</ele><time>2026-04-27T08:06:42.009Z</time></trkpt><trkpt lat="45.96841669274146" lon="10.318096173449181"><ele>301.6666666666667</ele><time>2026-04-27T08:06:43.009Z</time></trkpt><trkpt lat="45.968592463402004" lon="10.318160823299776"><ele>303.33333333333337</ele><time>2026-04-27T08:06:44.009Z</time></trkpt><trkpt lat="45.968723078707896" lon="10.3182026006554"><ele>305.0</ele><time>2026-04-27T08:06:45.009Z</time></trkpt><trkpt lat="45.968859072688105" lon="10.318266170871716"><ele>305.0</ele><time>2026-04-27T08:06:46.009Z</time></trkpt><trkpt lat="45.96901799809858" lon="10.318322070384534"><ele>305.0</ele><time>2026-04-27T08:06:47.009Z</time></trkpt><trkpt lat="45.969178667953486" lon="10.31838049178332"><ele>305.0</ele><time>2026-04-27T08:06:48.009Z</time></trkpt><trkpt lat="45.96933630925697" lon="10.318452132885271"><ele>305.0</ele><time>2026-04-27T08:06:49.009Z</time></trkpt><trkpt lat="45.969517795238666" lon="10.318522305236208"><ele>305.0</ele><time>2026-04-27T08:06:50.01Z</time></trkpt><trkpt lat="45.96967743959822" lon="10.31859300069437"><ele>305.0</ele><time>2026-04-27T08:06:51.01Z</time></trkpt><trkpt lat="45.96985772162547" lon="10.318665958184331"><ele>304.6666666666667</ele><time>2026-04-27T08:06:52.01Z</time></trkpt><trkpt lat="45.970037514388814" lon="10.318746340681416"><ele>304.3333333333333</ele><time>2026-04-27T08:06:53.01Z</time></trkpt><trkpt lat="45.970246566294016" lon="10.31883177545359"><ele>304.0</ele><time>2026-04-27T08:06:54.01Z</time></trkpt><trkpt lat="45.97044497930273" lon="10.318912724895236"><ele>304.66666666666663</ele><time>2026-04-27T08:06:55.01Z</time></trkpt><trkpt lat="45.970645539339564" lon="10.318992005903361"><ele>305.3333333333333</ele><time>2026-04-27T08:06:56.01Z</time></trkpt><trkpt lat="45.970824054647515" lon="10.319069434195567"><ele>306.0</ele><time>2026-04-27T08:06:57.01Z</time></trkpt><trkpt lat="45.971015732633276" lon="10.319152532564416"><ele>306.0</ele><time>2026-04-27T08:06:58.01Z</time></trkpt><trkpt lat="45.97121425393618" lon="10.319231106664239"><ele>306.0</ele><time>2026-04-27T08:06:59.01Z</time></trkpt><trkpt lat="45.971408662941336" lon="10.319313957744688"><ele>306.0</ele><time>2026-04-27T08:07:00.009Z</time></trkpt><trkpt lat="45.971591987661476" lon="10.319400266520264"><ele>305.6666666666667</ele><time>2026-04-27T08:07:01.009Z</time></trkpt><trkpt lat="45.9717683568583" lon="10.31947579703318"><ele>305.33333333333337</ele><time>2026-04-27T08:07:02.01Z</time></trkpt><trkpt lat="45.97195767625756" lon="10.319556315049462"><ele>305.0</ele><time>2026-04-27T08:07:03.009Z</time></trkpt><trkpt lat="45.972136578132144" lon="10.319639107184123"><ele>305.0</ele><time>2026-04-27T08:07:04.009Z</time></trkpt><trkpt lat="45.97230297666963" lon="10.319709214346961"><ele>305.0</ele><time>2026-04-27T08:07:05.009Z</time></trkpt><trkpt lat="45.97245382982597" lon="10.319775356146971"><ele>305.0</ele><time>2026-04-27T08:07:06.009Z</time></trkpt><trkpt lat="45.972587227973115" lon="10.319834109032184"><ele>305.75</ele><time>2026-04-27T08:07:07.009Z</time></trkpt><trkpt lat="45.972713447761286" lon="10.31988964941707"><ele>306.5</ele><time>2026-04-27T08:07:08.009Z</time></trkpt><trkpt lat="45.97283754511254" lon="10.319945042523024"><ele>307.25</ele><time>2026-04-27T08:07:09.009Z</time></trkpt><trkpt lat="45.972989922278884" lon="10.320010191307322"><ele>308.0</ele><time>2026-04-27T08:07:10.009Z</time></trkpt><trkpt lat="45.97313738765481" lon="10.320070509166714"><ele>308.0</ele><time>2026-04-27T08:07:11.009Z</time></trkpt><trkpt lat="45.973278090421616" lon="10.320129205557581"><ele>308.0</ele><time>2026-04-27T08:07:12.009Z</time></trkpt><trkpt lat="45.97341635245126" lon="10.32018993004695"><ele>308.0</ele><time>2026-04-27T08:07:13.009Z</time></trkpt><trkpt lat="45.97356760870003" lon="10.320251174889293"><ele>308.0</ele><time>2026-04-27T08:07:14.009Z</time></trkpt><trkpt lat="45.97373169349531" lon="10.320315800533473"><ele>307.33333333333337</ele><time>2026-04-27T08:07:15.009Z</time></trkpt><trkpt lat="45.973890815754146" lon="10.320379568445608"><ele>306.6666666666667</ele><time>2026-04-27T08:07:16.009Z</time></trkpt><trkpt lat="45.974067125874114" lon="10.320444871816049"><ele>306.0</ele><time>2026-04-27T08:07:17.009Z</time></trkpt><trkpt lat="45.97423720463325" lon="10.320513054624394"><ele>307.0</ele><time>2026-04-27T08:07:18.009Z</time></trkpt><trkpt lat="45.974414343876475" lon="10.320583976314143"><ele>308.0</ele><time>2026-04-27T08:07:19.009Z</time></trkpt><trkpt lat="45.97460245031661" lon="10.32065543622197"><ele>309.0</ele><time>2026-04-27T08:07:20.009Z</time></trkpt><trkpt lat="45.974788528414514" lon="10.320732465685168"><ele>309.0</ele><time>2026-04-27T08:07:21.009Z</time></trkpt><trkpt lat="45.97495139096433" lon="10.320807843488726"><ele>309.0</ele><time>2026-04-27T08:07:22.009Z</time></trkpt><trkpt lat="45.9751015443752" lon="10.320877580796633"><ele>309.0</ele><time>2026-04-27T08:07:23.009Z</time></trkpt><trkpt lat="45.97522916713087" lon="10.320938602997641"><ele>309.0</ele><time>2026-04-27T08:07:24.009Z</time></trkpt><trkpt lat="45.97536773615772" lon="10.320992427040784"><ele>309.0</ele><time>2026-04-27T08:07:25.009Z</time></trkpt><trkpt lat="45.97551097705966" lon="10.321047100600484"><ele>309.0</ele><time>2026-04-27T08:07:26.009Z</time></trkpt><trkpt lat="45.97565382627172" lon="10.321100895911332"><ele>309.0</ele><time>2026-04-27T08:07:27.009Z</time></trkpt><trkpt lat="45.97578833673061" lon="10.321180510525709"><ele>308.25</ele><time>2026-04-27T08:07:28.009Z</time></trkpt><trkpt lat="45.97593009512619" lon="10.321216482654254"><ele>307.5</ele><time>2026-04-27T08:07:29.009Z</time></trkpt><trkpt lat="45.976046382943515" lon="10.321271988351011"><ele>306.75</ele><time>2026-04-27T08:07:30.009Z</time></trkpt><trkpt lat="45.97615544387169" lon="10.321312760371347"><ele>306.0</ele><time>2026-04-27T08:07:31.009Z</time></trkpt><trkpt lat="45.976222669064136" lon="10.32136329982952"><ele>306.0</ele><time>2026-04-27T08:07:32.009Z</time></trkpt><trkpt lat="45.97629165149314" lon="10.321391080142055"><ele>306.0</ele><time>2026-04-27T08:07:33.009Z</time></trkpt><trkpt lat="45.976358155781035" lon="10.321368378178198"><ele>306.0</ele><time>2026-04-27T08:07:34.009Z</time></trkpt><trkpt lat="45.97647319225603" lon="10.321399670774163"><ele>306.0</ele><time>2026-04-27T08:07:36.009Z</time></trkpt><trkpt lat="45.976551931997896" lon="10.321424020455138"><ele>306.0</ele><time>2026-04-27T08:07:37.009Z</time></trkpt><trkpt lat="45.976637265070245" lon="10.32146701144646"><ele>306.0</ele><time>2026-04-27T08:07:38.009Z</time></trkpt><trkpt lat="45.97673197479211" lon="10.32152504461704"><ele>306.3333333333333</ele><time>2026-04-27T08:07:39.009Z</time></trkpt><trkpt lat="45.976799086726096" lon="10.321592343194062"><ele>306.6666666666667</ele><time>2026-04-27T08:07:40.009Z</time></trkpt><trkpt lat="45.976850199659495" lon="10.321646655821395"><ele>307.0</ele><time>2026-04-27T08:07:41.009Z</time></trkpt><trkpt lat="45.97691818289465" lon="10.32170080841882"><ele>307.33333333333337</ele><time>2026-04-27T08:07:42.009Z</time></trkpt><trkpt lat="45.97701165638747" lon="10.321743336693409"><ele>307.6666666666667</ele><time>2026-04-27T08:07:43.009Z</time></trkpt><trkpt lat="45.977111722787605" lon="10.321794924836745"><ele>308.0</ele><time>2026-04-27T08:07:44.009Z</time></trkpt><trkpt lat="45.977225292992685" lon="10.321854053777363"><ele>308.0</ele><time>2026-04-27T08:07:45.009Z</time></trkpt><trkpt lat="45.97734567308606" lon="10.321908182483032"><ele>308.0</ele><time>2026-04-27T08:07:46.009Z</time></trkpt><trkpt lat="45.97747202591589" lon="10.321966235736026"><ele>308.0</ele><time>2026-04-27T08:07:47.009Z</time></trkpt><trkpt lat="45.977583135450566" lon="10.322051261764798"><ele>308.0</ele><time>2026-04-27T08:07:48.009Z</time></trkpt><trkpt lat="45.977740794715345" lon="10.322125869967433"><ele>307.6666666666667</ele><time>2026-04-27T08:07:49.009Z</time></trkpt><trkpt lat="45.97789684903716" lon="10.32221005953058"><ele>307.3333333333333</ele><time>2026-04-27T08:07:50.009Z</time></trkpt><trkpt lat="45.97802027235608" lon="10.322290744730735"><ele>307.0</ele><time>2026-04-27T08:07:51.009Z</time></trkpt><trkpt lat="45.978160793014844" lon="10.32236352508716"><ele>308.3333333333333</ele><time>2026-04-27T08:07:52.009Z</time></trkpt><trkpt lat="45.97831803981616" lon="10.322443234992196"><ele>309.6666666666667</ele><time>2026-04-27T08:07:53.009Z</time></trkpt><trkpt lat="45.97848723457882" lon="10.322523019113742"><ele>311.0</ele><time>2026-04-27T08:07:54.009Z</time></trkpt><trkpt lat="45.978660975938155" lon="10.322604656152498"><ele>311.33333333333337</ele><time>2026-04-27T08:07:55.009Z</time></trkpt><trkpt lat="45.97884712654797" lon="10.322695913731813"><ele>311.6666666666667</ele><time>2026-04-27T08:07:56.009Z</time></trkpt><trkpt lat="45.979005110272766" lon="10.322788101767745"><ele>312.0</ele><time>2026-04-27T08:07:57.009Z</time></trkpt><trkpt lat="45.979143896209656" lon="10.322867238194382"><ele>311.8</ele><time>2026-04-27T08:07:58.009Z</time></trkpt><trkpt lat="45.979258397471376" lon="10.322935080188493"><ele>311.6</ele><time>2026-04-27T08:07:59.009Z</time></trkpt><trkpt lat="45.979363791607895" lon="10.322993432384418"><ele>311.40000000000003</ele><time>2026-04-27T08:08:00.009Z</time></trkpt><trkpt lat="45.979439627880915" lon="10.32303287892962"><ele>311.2</ele><time>2026-04-27T08:08:01.009Z</time></trkpt><trkpt lat="45.979532110137214" lon="10.323072705970642"><ele>311.0</ele><time>2026-04-27T08:08:02.009Z</time></trkpt><trkpt lat="45.979629167655105" lon="10.323113359129422"><ele>311.6</ele><time>2026-04-27T08:08:03.009Z</time></trkpt><trkpt lat="45.97972749477484" lon="10.323163411901193"><ele>312.20000000000005</ele><time>2026-04-27T08:08:04.009Z</time></trkpt><trkpt lat="45.979811815872964" lon="10.323239227270143"><ele>312.79999999999995</ele><time>2026-04-27T08:08:05.009Z</time></trkpt><trkpt lat="45.979910019371616" lon="10.32330442280099"><ele>313.4</ele><time>2026-04-27T08:08:06.009Z</time></trkpt><trkpt lat="45.98001960868686" lon="10.323380129468477"><ele>314.0</ele><time>2026-04-27T08:08:07.009Z</time></trkpt><trkpt lat="45.98014330439612" lon="10.323467692287664"><ele>314.0</ele><time>2026-04-27T08:08:08.009Z</time></trkpt><trkpt lat="45.98028025422982" lon="10.323564637519048"><ele>314.0</ele><time>2026-04-27T08:08:09.009Z</time></trkpt><trkpt lat="45.98040724924097" lon="10.323628563965684"><ele>314.0</ele><time>2026-04-27T08:08:10.009Z</time></trkpt><trkpt lat="45.98051101443996" lon="10.323714667731416"><ele>314.0</ele><time>2026-04-27T08:08:11.009Z</time></trkpt><trkpt lat="45.98062480704533" lon="10.323797363940574"><ele>314.0</ele><time>2026-04-27T08:08:12.009Z</time></trkpt><trkpt lat="45.98074634455251" lon="10.323879151987443"><ele>314.0</ele><time>2026-04-27T08:08:13.009Z</time></trkpt><trkpt lat="45.980856588851935" lon="10.323978705870996"><ele>314.0</ele><time>2026-04-27T08:08:14.009Z</time></trkpt><trkpt lat="45.98097545544478" lon="10.324066041821338"><ele>314.0</ele><time>2026-04-27T08:08:15.009Z</time></trkpt><trkpt lat="45.98107973658402" lon="10.324151882593991"><ele>314.2</ele><time>2026-04-27T08:08:16.009Z</time></trkpt><trkpt lat="45.98117748430418" lon="10.324244910284207"><ele>314.4</ele><time>2026-04-27T08:08:17.009Z</time></trkpt><trkpt lat="45.981267287130535" lon="10.324341747285713"><ele>314.6</ele><time>2026-04-27T08:08:18.009Z</time></trkpt><trkpt lat="45.981343651947284" lon="10.324434034232064"><ele>314.8</ele><time>2026-04-27T08:08:19.009Z</time></trkpt><trkpt lat="45.98143108566222" lon="10.324542450389243"><ele>315.0</ele><time>2026-04-27T08:08:20.009Z</time></trkpt><trkpt lat="45.981520348801375" lon="10.324659020879562"><ele>315.5</ele><time>2026-04-27T08:08:21.009Z</time></trkpt><trkpt lat="45.981612596557724" lon="10.324782850401872"><ele>316.0</ele><time>2026-04-27T08:08:22.008Z</time></trkpt><trkpt lat="45.981711865247476" lon="10.324917453088144"><ele>316.5</ele><time>2026-04-27T08:08:23.008Z</time></trkpt><trkpt lat="45.98181568986931" lon="10.325055015785324"><ele>317.0</ele><time>2026-04-27T08:08:24.008Z</time></trkpt><trkpt lat="45.98190447404104" lon="10.32517778948049"><ele>317.0</ele><time>2026-04-27T08:08:25.007Z</time></trkpt><trkpt lat="45.981986024975626" lon="10.325297794920116"><ele>317.0</ele><time>2026-04-27T08:08:26.007Z</time></trkpt><trkpt lat="45.98206982968219" lon="10.325427024285506"><ele>317.0</ele><time>2026-04-27T08:08:27.007Z</time></trkpt><trkpt lat="45.982152733941895" lon="10.32556623371654"><ele>317.0</ele><time>2026-04-27T08:08:28.006Z</time></trkpt><trkpt lat="45.98223330436126" lon="10.325699557123091"><ele>317.5</ele><time>2026-04-27T08:08:29.006Z</time></trkpt><trkpt lat="45.982299456398316" lon="10.325829965726562"><ele>318.0</ele><time>2026-04-27T08:08:30.006Z</time></trkpt><trkpt lat="45.98237358064607" lon="10.325967239078572"><ele>318.5</ele><time>2026-04-27T08:08:31.006Z</time></trkpt><trkpt lat="45.98244781660584" lon="10.326114901024228"><ele>319.0</ele><time>2026-04-27T08:08:32.005Z</time></trkpt><trkpt lat="45.982535389137915" lon="10.326272039633924"><ele>317.3333333333333</ele><time>2026-04-27T08:08:33.005Z</time></trkpt><trkpt lat="45.98263365578674" lon="10.326432823653315"><ele>315.6666666666667</ele><time>2026-04-27T08:08:34.005Z</time></trkpt><trkpt lat="45.9827606218168" lon="10.326608677599586"><ele>314.0</ele><time>2026-04-27T08:08:35.005Z</time></trkpt><trkpt lat="45.982898436361886" lon="10.326788638052983"><ele>314.0</ele><time>2026-04-27T08:08:36.005Z</time></trkpt><trkpt lat="45.98304630624043" lon="10.326987825383442"><ele>314.0</ele><time>2026-04-27T08:08:37.005Z</time></trkpt><trkpt lat="45.98320413555274" lon="10.327218734039183"><ele>314.0</ele><time>2026-04-27T08:08:38.004Z</time></trkpt><trkpt lat="45.983343252882214" lon="10.32748608067833"><ele>314.0</ele><time>2026-04-27T08:08:39.004Z</time></trkpt><trkpt lat="45.98350577988239" lon="10.327693757192357"><ele>314.0</ele><time>2026-04-27T08:08:40.004Z</time></trkpt><trkpt lat="45.983646076692146" lon="10.327888780891987"><ele>314.0</ele><time>2026-04-27T08:08:41.004Z</time></trkpt><trkpt lat="45.98378590545747" lon="10.3280840779573"><ele>314.0</ele><time>2026-04-27T08:08:42.004Z</time></trkpt><trkpt lat="45.98392114894793" lon="10.328279972661031"><ele>314.0</ele><time>2026-04-27T08:08:43.004Z</time></trkpt><trkpt lat="45.98404393071126" lon="10.328449595600983"><ele>314.0</ele><time>2026-04-27T08:08:44.004Z</time></trkpt><trkpt lat="45.98412847060399" lon="10.328627448298779"><ele>314.0</ele><time>2026-04-27T08:08:45.004Z</time></trkpt><trkpt lat="45.98423887602095" lon="10.328785260411353"><ele>314.0</ele><time>2026-04-27T08:08:46.004Z</time></trkpt><trkpt lat="45.9843476675785" lon="10.328940531062047"><ele>314.0</ele><time>2026-04-27T08:08:47.003Z</time></trkpt><trkpt lat="45.98447031478271" lon="10.3291101060668"><ele>315.0</ele><time>2026-04-27T08:08:48.003Z</time></trkpt><trkpt lat="45.98459197615169" lon="10.329280478349618"><ele>316.0</ele><time>2026-04-27T08:08:49.003Z</time></trkpt><trkpt lat="45.984693911322196" lon="10.329426177103977"><ele>317.0</ele><time>2026-04-27T08:08:50.003Z</time></trkpt><trkpt lat="45.984794640265996" lon="10.329564555576818"><ele>317.0</ele><time>2026-04-27T08:08:51.003Z</time></trkpt><trkpt lat="45.98489349083125" lon="10.329697148763719"><ele>317.0</ele><time>2026-04-27T08:08:52.003Z</time></trkpt><trkpt lat="45.98497958380096" lon="10.329826664530595"><ele>317.0</ele><time>2026-04-27T08:08:53.003Z</time></trkpt><trkpt lat="45.985059644237154" lon="10.32993852655897"><ele>317.0</ele><time>2026-04-27T08:08:54.003Z</time></trkpt><trkpt lat="45.98513539908019" lon="10.330035787220009"><ele>317.0</ele><time>2026-04-27T08:08:55.003Z</time></trkpt><trkpt lat="45.98520723750553" lon="10.330124867678595"><ele>317.0</ele><time>2026-04-27T08:08:56.003Z</time></trkpt><trkpt lat="45.98527591735611" lon="10.33020227450667"><ele>317.0</ele><time>2026-04-27T08:08:57.004Z</time></trkpt><trkpt lat="45.98533855995521" lon="10.33026879958914"><ele>317.0</ele><time>2026-04-27T08:08:58.004Z</time></trkpt><trkpt lat="45.985392293210104" lon="10.330327625414848"><ele>317.0</ele><time>2026-04-27T08:08:59.003Z</time></trkpt><trkpt lat="45.985470845757334" lon="10.33043231905325"><ele>317.0</ele><time>2026-04-27T08:09:01.003Z</time></trkpt><trkpt lat="45.98552242845281" lon="10.330540293941342"><ele>317.25</ele><time>2026-04-27T08:09:03.004Z</time></trkpt><trkpt lat="45.98557372847046" lon="10.330676172028717"><ele>317.5</ele><time>2026-04-27T08:09:05.004Z</time></trkpt><trkpt lat="45.98557248409917" lon="10.33083734966622"><ele>317.75</ele><time>2026-04-27T08:09:07.004Z</time></trkpt><trkpt lat="45.98551947481964" lon="10.33098000324865"><ele>318.0</ele><time>2026-04-27T08:09:09.003Z</time></trkpt><trkpt lat="45.98549935406097" lon="10.33115925007869"><ele>318.0</ele><time>2026-04-27T08:09:11.003Z</time></trkpt><trkpt lat="45.98551346659769" lon="10.33124885931844"><ele>318.0</ele><time>2026-04-27T08:09:12.003Z</time></trkpt><trkpt lat="45.98554040574772" lon="10.331347326673887"><ele>318.0</ele><time>2026-04-27T08:09:13.003Z</time></trkpt><trkpt lat="45.98558081898573" lon="10.331434827001125"><ele>318.0</ele><time>2026-04-27T08:09:14.003Z</time></trkpt><trkpt lat="45.98562792785348" lon="10.331503500468086"><ele>318.0</ele><time>2026-04-27T08:09:15.003Z</time></trkpt><trkpt lat="45.98568910972519" lon="10.331552272438548"><ele>318.0</ele><time>2026-04-27T08:09:16.003Z</time></trkpt><trkpt lat="45.98575297312303" lon="10.331582190622555"><ele>318.0</ele><time>2026-04-27T08:09:17.003Z</time></trkpt><trkpt lat="45.985877930381015" lon="10.331564938614072"><ele>318.0</ele><time>2026-04-27T08:09:19.003Z</time></trkpt><trkpt lat="45.985942602359586" lon="10.331526805887574"><ele>318.0</ele><time>2026-04-27T08:09:20.003Z</time></trkpt><trkpt lat="45.98600018489601" lon="10.331475018329883"><ele>318.0</ele><time>2026-04-27T08:09:21.003Z</time></trkpt><trkpt lat="45.98606061128264" lon="10.331414656978605"><ele>318.0</ele><time>2026-04-27T08:09:22.003Z</time></trkpt><trkpt lat="45.986115255960016" lon="10.331347870087445"><ele>318.0</ele><time>2026-04-27T08:09:23.003Z</time></trkpt><trkpt lat="45.98619205848448" lon="10.331305876252195"><ele>318.0</ele><time>2026-04-27T08:09:24.003Z</time></trkpt><trkpt lat="45.986271132943024" lon="10.331285829379743"><ele>318.0</ele><time>2026-04-27T08:09:25.003Z</time></trkpt><trkpt lat="45.98635486977988" lon="10.331269972953812"><ele>318.0</ele><time>2026-04-27T08:09:26.003Z</time></trkpt><trkpt lat="45.98646072058149" lon="10.331316204176163"><ele>318.0</ele><time>2026-04-27T08:09:27.003Z</time></trkpt><trkpt lat="45.986567046808915" lon="10.331348853975218"><ele>318.0</ele><time>2026-04-27T08:09:28.003Z</time></trkpt><trkpt lat="45.986658718048936" lon="10.331397830981992"><ele>318.0</ele><time>2026-04-27T08:09:29.003Z</time></trkpt><trkpt lat="45.98674538585491" lon="10.331456950156097"><ele>318.0</ele><time>2026-04-27T08:09:30.003Z</time></trkpt><trkpt lat="45.98684090780062" lon="10.331532958623113"><ele>318.4</ele><time>2026-04-27T08:09:31.003Z</time></trkpt><trkpt lat="45.98694278576447" lon="10.331615485668339"><ele>318.8</ele><time>2026-04-27T08:09:32.003Z</time></trkpt><trkpt lat="45.9870373306114" lon="10.33169765563616"><ele>319.2</ele><time>2026-04-27T08:09:33.003Z</time></trkpt><trkpt lat="45.987123033790716" lon="10.331769208897459"><ele>319.6</ele><time>2026-04-27T08:09:34.003Z</time></trkpt><trkpt lat="45.987216218377476" lon="10.331843439762146"><ele>320.0</ele><time>2026-04-27T08:09:35.003Z</time></trkpt><trkpt lat="45.98731754547396" lon="10.331924985587133"><ele>320.0</ele><time>2026-04-27T08:09:36.003Z</time></trkpt><trkpt lat="45.987419758028025" lon="10.332009463133431"><ele>320.0</ele><time>2026-04-27T08:09:37.003Z</time></trkpt><trkpt lat="45.98752848200348" lon="10.332094414297142"><ele>320.0</ele><time>2026-04-27T08:09:38.003Z</time></trkpt><trkpt lat="45.98764865978358" lon="10.332179689832792"><ele>320.0</ele><time>2026-04-27T08:09:39.003Z</time></trkpt><trkpt lat="45.98773929864852" lon="10.332294035366855"><ele>321.0</ele><time>2026-04-27T08:09:40.003Z</time></trkpt><trkpt lat="45.98787002278378" lon="10.332390651640079"><ele>322.0</ele><time>2026-04-27T08:09:41.003Z</time></trkpt><trkpt lat="45.98802444252314" lon="10.332504982325155"><ele>323.0</ele><time>2026-04-27T08:09:42.003Z</time></trkpt><trkpt lat="45.98818444689483" lon="10.332636094954875"><ele>323.33333333333337</ele><time>2026-04-27T08:09:43.003Z</time></trkpt><trkpt lat="45.988366265893575" lon="10.332786755060102"><ele>323.6666666666667</ele><time>2026-04-27T08:09:44.003Z</time></trkpt><trkpt lat="45.98855266258478" lon="10.332947834314734"><ele>324.0</ele><time>2026-04-27T08:09:45.003Z</time></trkpt><trkpt lat="45.98873876266385" lon="10.33311992192028"><ele>326.0</ele><time>2026-04-27T08:09:46.003Z</time></trkpt><trkpt lat="45.98892723816924" lon="10.333277517070858"><ele>328.0</ele><time>2026-04-27T08:09:47.003Z</time></trkpt><trkpt lat="45.98910322479354" lon="10.333430313199713"><ele>330.0</ele><time>2026-04-27T08:09:48.003Z</time></trkpt><trkpt lat="45.98928471028931" lon="10.333576025682447"><ele>330.0</ele><time>2026-04-27T08:09:49.003Z</time></trkpt><trkpt lat="45.98946905564348" lon="10.33372849434048"><ele>330.0</ele><time>2026-04-27T08:09:50.003Z</time></trkpt><trkpt lat="45.98964452962875" lon="10.33388077038318"><ele>330.0</ele><time>2026-04-27T08:09:51.003Z</time></trkpt><trkpt lat="45.989824189367354" lon="10.334023635407936"><ele>331.6666666666667</ele><time>2026-04-27T08:09:52.003Z</time></trkpt><trkpt lat="45.99000082875267" lon="10.33416671620226"><ele>333.33333333333337</ele><time>2026-04-27T08:09:53.003Z</time></trkpt><trkpt lat="45.990153393507875" lon="10.334297624109578"><ele>335.0</ele><time>2026-04-27T08:09:54.003Z</time></trkpt><trkpt lat="45.99028864188752" lon="10.334449245061709"><ele>335.0</ele><time>2026-04-27T08:09:55.003Z</time></trkpt><trkpt lat="45.99043662135187" lon="10.334574660189228"><ele>335.0</ele><time>2026-04-27T08:09:56.003Z</time></trkpt><trkpt lat="45.990584629793524" lon="10.334699257595727"><ele>335.0</ele><time>2026-04-27T08:09:57.003Z</time></trkpt><trkpt lat="45.99073368505623" lon="10.334820451397853"><ele>336.0</ele><time>2026-04-27T08:09:58.003Z</time></trkpt><trkpt lat="45.99089758450478" lon="10.334950939162063"><ele>337.0</ele><time>2026-04-27T08:09:59.003Z</time></trkpt><trkpt lat="45.991061766332685" lon="10.335090936824008"><ele>338.0</ele><time>2026-04-27T08:10:00.003Z</time></trkpt><trkpt lat="45.991251937077614" lon="10.335245546045146"><ele>338.0</ele><time>2026-04-27T08:10:01.003Z</time></trkpt><trkpt lat="45.991448136993796" lon="10.335412454499847"><ele>338.0</ele><time>2026-04-27T08:10:02.003Z</time></trkpt><trkpt lat="45.991648467288286" lon="10.335587569140662"><ele>338.0</ele><time>2026-04-27T08:10:03.003Z</time></trkpt><trkpt lat="45.99184819811299" lon="10.335759514871151"><ele>338.0</ele><time>2026-04-27T08:10:04.003Z</time></trkpt><trkpt lat="45.992044386469516" lon="10.335928139737804"><ele>338.0</ele><time>2026-04-27T08:10:05.003Z</time></trkpt><trkpt lat="45.99225396004221" lon="10.336098463114256"><ele>338.0</ele><time>2026-04-27T08:10:06.003Z</time></trkpt><trkpt lat="45.99246597587244" lon="10.336265989794564"><ele>339.5</ele><time>2026-04-27T08:10:07.003Z</time></trkpt><trkpt lat="45.99266487403513" lon="10.336439604515357"><ele>341.0</ele><time>2026-04-27T08:10:08.003Z</time></trkpt><trkpt lat="45.99287186746711" lon="10.336609065036946"><ele>341.0</ele><time>2026-04-27T08:10:09.003Z</time></trkpt><trkpt lat="45.99307737584798" lon="10.33677965512168"><ele>341.0</ele><time>2026-04-27T08:10:10.003Z</time></trkpt><trkpt lat="45.99328278061853" lon="10.336955578652068"><ele>340.5</ele><time>2026-04-27T08:10:11.003Z</time></trkpt><trkpt lat="45.993485926443704" lon="10.337133938350313"><ele>340.0</ele><time>2026-04-27T08:10:12.003Z</time></trkpt><trkpt lat="45.99369248072722" lon="10.33730023653262"><ele>340.0</ele><time>2026-04-27T08:10:13.003Z</time></trkpt><trkpt lat="45.993893348116444" lon="10.337462978567492"><ele>340.0</ele><time>2026-04-27T08:10:14.003Z</time></trkpt><trkpt lat="45.994089294046695" lon="10.337623507043363"><ele>337.0</ele><time>2026-04-27T08:10:15.003Z</time></trkpt><trkpt lat="45.99427802106042" lon="10.337774704130167"><ele>334.0</ele><time>2026-04-27T08:10:16.003Z</time></trkpt><trkpt lat="45.99444478752472" lon="10.337914425131627"><ele>331.0</ele><time>2026-04-27T08:10:17.003Z</time></trkpt><trkpt lat="45.99459422192035" lon="10.338043038586937"><ele>335.66666666666663</ele><time>2026-04-27T08:10:18.003Z</time></trkpt><trkpt lat="45.99472852849554" lon="10.33817663566876"><ele>340.3333333333333</ele><time>2026-04-27T08:10:19.003Z</time></trkpt><trkpt lat="45.994892336218015" lon="10.338290408630986"><ele>345.0</ele><time>2026-04-27T08:10:20.003Z</time></trkpt><trkpt lat="45.99504695895509" lon="10.338409352152073"><ele>345.3333333333333</ele><time>2026-04-27T08:10:21.003Z</time></trkpt><trkpt lat="45.99518332005727" lon="10.33851425717869"><ele>345.66666666666663</ele><time>2026-04-27T08:10:22.003Z</time></trkpt><trkpt lat="45.99541280683411" lon="10.33839317475101"><ele>346.0</ele><time>2026-04-27T08:10:23.003Z</time></trkpt><trkpt lat="45.995583624236716" lon="10.338402768579694"><ele>346.0</ele><time>2026-04-27T08:10:24.003Z</time></trkpt><trkpt lat="45.99573050245479" lon="10.338308571883505"><ele>346.0</ele><time>2026-04-27T08:10:25.003Z</time></trkpt><trkpt lat="45.99587687829219" lon="10.338253259672946"><ele>346.0</ele><time>2026-04-27T08:10:26.003Z</time></trkpt><trkpt lat="45.99602408309764" lon="10.338193112175814"><ele>346.5</ele><time>2026-04-27T08:10:27.003Z</time></trkpt><trkpt lat="45.99616382624949" lon="10.338167483090919"><ele>347.0</ele><time>2026-04-27T08:10:28.003Z</time></trkpt><trkpt lat="45.99630872707748" lon="10.338157807762865"><ele>347.5</ele><time>2026-04-27T08:10:29.003Z</time></trkpt><trkpt lat="45.99647047213048" lon="10.338176400924974"><ele>348.0</ele><time>2026-04-27T08:10:30.003Z</time></trkpt><trkpt lat="45.99663901186882" lon="10.338209684190181"><ele>347.0</ele><time>2026-04-27T08:10:31.003Z</time></trkpt><trkpt lat="45.99681294346764" lon="10.338247639471199"><ele>346.0</ele><time>2026-04-27T08:10:32.003Z</time></trkpt><trkpt lat="45.996981838584716" lon="10.33829071356224"><ele>345.0</ele><time>2026-04-27T08:10:33.003Z</time></trkpt><trkpt lat="45.997136815816646" lon="10.338336619549716"><ele>345.0</ele><time>2026-04-27T08:10:34.003Z</time></trkpt><trkpt lat="45.997283814106765" lon="10.338376315481511"><ele>345.0</ele><time>2026-04-27T08:10:35.003Z</time></trkpt><trkpt lat="45.99741662594296" lon="10.338426709504446"><ele>345.0</ele><time>2026-04-27T08:10:36.003Z</time></trkpt><trkpt lat="45.997531470892355" lon="10.338477937081697"><ele>345.0</ele><time>2026-04-27T08:10:37.003Z</time></trkpt><trkpt lat="45.99761810716346" lon="10.338518106070765"><ele>345.2</ele><time>2026-04-27T08:10:38.003Z</time></trkpt><trkpt lat="45.99767516694531" lon="10.338561457139642"><ele>345.4</ele><time>2026-04-27T08:10:39.003Z</time></trkpt><trkpt lat="45.99775394750282" lon="10.33865100234427"><ele>345.6</ele><time>2026-04-27T08:10:41.003Z</time></trkpt><trkpt lat="45.99782085440753" lon="10.338814207999711"><ele>345.8</ele><time>2026-04-27T08:10:43.003Z</time></trkpt><trkpt lat="45.99788932458081" lon="10.33887913519812"><ele>346.0</ele><time>2026-04-27T08:10:44.003Z</time></trkpt><trkpt lat="45.997965322243346" lon="10.338899863611385"><ele>346.0</ele><time>2026-04-27T08:10:45.003Z</time></trkpt><trkpt lat="45.99804034446875" lon="10.338929170629108"><ele>346.0</ele><time>2026-04-27T08:10:46.003Z</time></trkpt><trkpt lat="45.99810301512534" lon="10.338996363105503"><ele>346.0</ele><time>2026-04-27T08:10:47.003Z</time></trkpt><trkpt lat="45.99816772044608" lon="10.339095387730175"><ele>346.0</ele><time>2026-04-27T08:10:48.003Z</time></trkpt><trkpt lat="45.998247298420594" lon="10.339235832422228"><ele>346.0</ele><time>2026-04-27T08:10:49.003Z</time></trkpt><trkpt lat="45.99832508449574" lon="10.339400463601274"><ele>344.0</ele><time>2026-04-27T08:10:50.003Z</time></trkpt><trkpt lat="45.998398499578414" lon="10.339563854268214"><ele>342.0</ele><time>2026-04-27T08:10:51.003Z</time></trkpt><trkpt lat="45.9984885068869" lon="10.339745677509748"><ele>340.0</ele><time>2026-04-27T08:10:52.003Z</time></trkpt><trkpt lat="45.99858648964459" lon="10.339946329581792"><ele>339.66666666666663</ele><time>2026-04-27T08:10:53.003Z</time></trkpt><trkpt lat="45.99868454614597" lon="10.340152425165662"><ele>339.3333333333333</ele><time>2026-04-27T08:10:54.003Z</time></trkpt><trkpt lat="45.99878902201212" lon="10.340358007237588"><ele>339.0</ele><time>2026-04-27T08:10:55.003Z</time></trkpt><trkpt lat="45.99889522470482" lon="10.340565583736739"><ele>338.6666666666667</ele><time>2026-04-27T08:10:56.003Z</time></trkpt><trkpt lat="45.99900221456339" lon="10.340772392715479"><ele>338.33333333333337</ele><time>2026-04-27T08:10:57.003Z</time></trkpt><trkpt lat="45.99911174447218" lon="10.340985850264001"><ele>338.0</ele><time>2026-04-27T08:10:58.003Z</time></trkpt><trkpt lat="45.999211311576126" lon="10.34120092336987"><ele>337.6666666666667</ele><time>2026-04-27T08:10:59.003Z</time></trkpt><trkpt lat="45.99932719971036" lon="10.341416049472972"><ele>337.3333333333333</ele><time>2026-04-27T08:11:00.003Z</time></trkpt><trkpt lat="45.999450924088904" lon="10.341620323653048"><ele>337.0</ele><time>2026-04-27T08:11:01.003Z</time></trkpt><trkpt lat="45.99955024219254" lon="10.34179759876886"><ele>337.0</ele><time>2026-04-27T08:11:02.003Z</time></trkpt><trkpt lat="45.99966297007626" lon="10.341972051786493"><ele>337.0</ele><time>2026-04-27T08:11:03.003Z</time></trkpt><trkpt lat="45.99976849586417" lon="10.342134334898091"><ele>337.0</ele><time>2026-04-27T08:11:04.003Z</time></trkpt><trkpt lat="45.99987099131906" lon="10.342291055667221"><ele>338.66666666666663</ele><time>2026-04-27T08:11:05.003Z</time></trkpt><trkpt lat="45.999963929860684" lon="10.342453073576534"><ele>340.3333333333333</ele><time>2026-04-27T08:11:06.003Z</time></trkpt><trkpt lat="46.000075185587875" lon="10.342621882639252"><ele>342.0</ele><time>2026-04-27T08:11:07.003Z</time></trkpt><trkpt lat="46.000196084066914" lon="10.342791705904633"><ele>342.0</ele><time>2026-04-27T08:11:08.003Z</time></trkpt><trkpt lat="46.000313478606834" lon="10.342963665154937"><ele>342.0</ele><time>2026-04-27T08:11:09.003Z</time></trkpt><trkpt lat="46.000439952934876" lon="10.34313046595874"><ele>342.0</ele><time>2026-04-27T08:11:10.003Z</time></trkpt><trkpt lat="46.00055472480037" lon="10.343259222300286"><ele>341.3333333333333</ele><time>2026-04-27T08:11:11.003Z</time></trkpt><trkpt lat="46.000694802938035" lon="10.343375448337305"><ele>340.66666666666663</ele><time>2026-04-27T08:11:12.003Z</time></trkpt><trkpt lat="46.00085084716485" lon="10.343470748139504"><ele>340.0</ele><time>2026-04-27T08:11:13.003Z</time></trkpt><trkpt lat="46.00102297131215" lon="10.343549841876543"><ele>340.0</ele><time>2026-04-27T08:11:14.003Z</time></trkpt><trkpt lat="46.001201476939045" lon="10.343637676792573"><ele>340.0</ele><time>2026-04-27T08:11:15.003Z</time></trkpt><trkpt lat="46.00138580356595" lon="10.34372673691169"><ele>340.0</ele><time>2026-04-27T08:11:16.003Z</time></trkpt><trkpt lat="46.0015529475954" lon="10.343814582303427"><ele>339.66666666666663</ele><time>2026-04-27T08:11:17.003Z</time></trkpt><trkpt lat="46.00172183129383" lon="10.343896791451954"><ele>339.3333333333333</ele><time>2026-04-27T08:11:18.003Z</time></trkpt><trkpt lat="46.00191903865096" lon="10.34399504412311"><ele>339.0</ele><time>2026-04-27T08:11:19.003Z</time></trkpt><trkpt lat="46.00212426984284" lon="10.34411017594802"><ele>339.0</ele><time>2026-04-27T08:11:20.003Z</time></trkpt><trkpt lat="46.00231396876979" lon="10.344210232954032"><ele>339.0</ele><time>2026-04-27T08:11:21.003Z</time></trkpt><trkpt lat="46.00248158696557" lon="10.34430158073547"><ele>339.0</ele><time>2026-04-27T08:11:22.003Z</time></trkpt><trkpt lat="46.00268226032072" lon="10.344400721146448"><ele>339.0</ele><time>2026-04-27T08:11:23.003Z</time></trkpt><trkpt lat="46.00289297430032" lon="10.344521682869258"><ele>339.0</ele><time>2026-04-27T08:11:24.003Z</time></trkpt><trkpt lat="46.003122138967754" lon="10.344665379373899"><ele>340.0</ele><time>2026-04-27T08:11:25.003Z</time></trkpt><trkpt lat="46.003325972062434" lon="10.344795141800942"><ele>341.0</ele><time>2026-04-27T08:11:26.003Z</time></trkpt><trkpt lat="46.00352434839356" lon="10.344895884322181"><ele>342.0</ele><time>2026-04-27T08:11:27.003Z</time></trkpt><trkpt lat="46.00369273882395" lon="10.344977711574243"><ele>342.3333333333333</ele><time>2026-04-27T08:11:28.003Z</time></trkpt><trkpt lat="46.003852117814255" lon="10.3450396422932"><ele>342.66666666666663</ele><time>2026-04-27T08:11:29.003Z</time></trkpt><trkpt lat="46.00401658337929" lon="10.345095727492843"><ele>343.0</ele><time>2026-04-27T08:11:30.003Z</time></trkpt><trkpt lat="46.004186088272576" lon="10.345139956182734"><ele>343.3333333333333</ele><time>2026-04-27T08:11:31.003Z</time></trkpt><trkpt lat="46.0043703207926" lon="10.345171515501068"><ele>343.6666666666667</ele><time>2026-04-27T08:11:32.003Z</time></trkpt><trkpt lat="46.004564752012314" lon="10.345199802287667"><ele>344.0</ele><time>2026-04-27T08:11:33.003Z</time></trkpt><trkpt lat="46.00472864042971" lon="10.345227454551413"><ele>344.0</ele><time>2026-04-27T08:11:34.003Z</time></trkpt><trkpt lat="46.00490017348258" lon="10.345242832868712"><ele>344.0</ele><time>2026-04-27T08:11:35.003Z</time></trkpt><trkpt lat="46.00507530416466" lon="10.345206087273993"><ele>344.0</ele><time>2026-04-27T08:11:36.003Z</time></trkpt><trkpt lat="46.00523093840749" lon="10.345138820928238"><ele>344.25</ele><time>2026-04-27T08:11:37.003Z</time></trkpt><trkpt lat="46.00536297948282" lon="10.345091143548508"><ele>344.5</ele><time>2026-04-27T08:11:38.003Z</time></trkpt><trkpt lat="46.005479162689255" lon="10.345015045724397"><ele>344.75</ele><time>2026-04-27T08:11:39.003Z</time></trkpt><trkpt lat="46.005613995941324" lon="10.344934102185046"><ele>345.0</ele><time>2026-04-27T08:11:40.003Z</time></trkpt><trkpt lat="46.00579673270807" lon="10.34487487593515"><ele>344.0</ele><time>2026-04-27T08:11:41.003Z</time></trkpt><trkpt lat="46.005993884013336" lon="10.344805228464"><ele>343.0</ele><time>2026-04-27T08:11:42.003Z</time></trkpt><trkpt lat="46.00617148290247" lon="10.34473349422173"><ele>342.0</ele><time>2026-04-27T08:11:43.003Z</time></trkpt><trkpt lat="46.00635142197303" lon="10.344657869565832"><ele>342.0</ele><time>2026-04-27T08:11:44.003Z</time></trkpt><trkpt lat="46.006531320859786" lon="10.344586655190517"><ele>342.0</ele><time>2026-04-27T08:11:45.003Z</time></trkpt><trkpt lat="46.006725278337676" lon="10.344508414224581"><ele>342.0</ele><time>2026-04-27T08:11:46.003Z</time></trkpt><trkpt lat="46.006917100456576" lon="10.344426807687006"><ele>343.0</ele><time>2026-04-27T08:11:47.003Z</time></trkpt><trkpt lat="46.007100938261736" lon="10.344349558825662"><ele>344.0</ele><time>2026-04-27T08:11:48.003Z</time></trkpt><trkpt lat="46.00728593434544" lon="10.344270788200152"><ele>345.0</ele><time>2026-04-27T08:11:49.003Z</time></trkpt><trkpt lat="46.00747050405052" lon="10.344197627586162"><ele>347.0</ele><time>2026-04-27T08:11:50.003Z</time></trkpt><trkpt lat="46.00766046377238" lon="10.344145501614575"><ele>349.0</ele><time>2026-04-27T08:11:51.003Z</time></trkpt><trkpt lat="46.00785913337584" lon="10.344104083713173"><ele>351.0</ele><time>2026-04-27T08:11:52.003Z</time></trkpt><trkpt lat="46.008059085984264" lon="10.344071166210986"><ele>351.0</ele><time>2026-04-27T08:11:53.003Z</time></trkpt><trkpt lat="46.00825687385039" lon="10.344038081593224"><ele>351.0</ele><time>2026-04-27T08:11:54.003Z</time></trkpt><trkpt lat="46.008455172246904" lon="10.344006256429072"><ele>351.0</ele><time>2026-04-27T08:11:55.003Z</time></trkpt><trkpt lat="46.00865377137649" lon="10.34398205011086"><ele>352.0</ele><time>2026-04-27T08:11:56.003Z</time></trkpt><trkpt lat="46.00885788233815" lon="10.343953856765733"><ele>353.0</ele><time>2026-04-27T08:11:57.003Z</time></trkpt><trkpt lat="46.009058580294" lon="10.343922262531672"><ele>354.0</ele><time>2026-04-27T08:11:58.003Z</time></trkpt><trkpt lat="46.00925711784791" lon="10.343896145806184"><ele>352.6666666666667</ele><time>2026-04-27T08:11:59.003Z</time></trkpt><trkpt lat="46.00944164255774" lon="10.343868717322065"><ele>351.33333333333337</ele><time>2026-04-27T08:12:00.003Z</time></trkpt><trkpt lat="46.00961227787617" lon="10.343838581305826"><ele>350.0</ele><time>2026-04-27T08:12:01.003Z</time></trkpt><trkpt lat="46.00976661592362" lon="10.343816203923732"><ele>350.0</ele><time>2026-04-27T08:12:02.003Z</time></trkpt><trkpt lat="46.00992844712702" lon="10.343806767021498"><ele>350.0</ele><time>2026-04-27T08:12:03.003Z</time></trkpt><trkpt lat="46.010099357795085" lon="10.3438130112021"><ele>350.0</ele><time>2026-04-27T08:12:04.003Z</time></trkpt><trkpt lat="46.010285826942074" lon="10.343844665860074"><ele>352.6666666666667</ele><time>2026-04-27T08:12:05.003Z</time></trkpt><trkpt lat="46.01048075999202" lon="10.343887945180754"><ele>355.3333333333333</ele><time>2026-04-27T08:12:06.003Z</time></trkpt><trkpt lat="46.010670757876774" lon="10.34392858986505"><ele>358.0</ele><time>2026-04-27T08:12:07.003Z</time></trkpt><trkpt lat="46.01085678558333" lon="10.343967962097748"><ele>358.0</ele><time>2026-04-27T08:12:08.003Z</time></trkpt><trkpt lat="46.01103644399502" lon="10.344018727103778"><ele>358.0</ele><time>2026-04-27T08:12:09.003Z</time></trkpt><trkpt lat="46.011228375037994" lon="10.344078154932937"><ele>358.0</ele><time>2026-04-27T08:12:10.003Z</time></trkpt><trkpt lat="46.01141340915399" lon="10.344158969667328"><ele>358.0</ele><time>2026-04-27T08:12:11.003Z</time></trkpt><trkpt lat="46.01158752966425" lon="10.344272331538626"><ele>358.0</ele><time>2026-04-27T08:12:12.003Z</time></trkpt><trkpt lat="46.01176729130909" lon="10.344393477207678"><ele>358.0</ele><time>2026-04-27T08:12:13.003Z</time></trkpt><trkpt lat="46.011949831059944" lon="10.34452866746135"><ele>358.0</ele><time>2026-04-27T08:12:14.003Z</time></trkpt><trkpt lat="46.0121124678661" lon="10.344653564425744"><ele>358.0</ele><time>2026-04-27T08:12:15.003Z</time></trkpt><trkpt lat="46.012271835908656" lon="10.344771777147399"><ele>358.0</ele><time>2026-04-27T08:12:16.003Z</time></trkpt><trkpt lat="46.012446521575306" lon="10.344895959214684"><ele>358.3333333333333</ele><time>2026-04-27T08:12:17.003Z</time></trkpt><trkpt lat="46.01261860133811" lon="10.345024330822241"><ele>358.6666666666667</ele><time>2026-04-27T08:12:18.003Z</time></trkpt><trkpt lat="46.012788057086986" lon="10.345158676669689"><ele>359.0</ele><time>2026-04-27T08:12:19.003Z</time></trkpt><trkpt lat="46.012966734836006" lon="10.345284395818519"><ele>359.0</ele><time>2026-04-27T08:12:20.003Z</time></trkpt><trkpt lat="46.01312325915899" lon="10.345402246363983"><ele>359.0</ele><time>2026-04-27T08:12:21.003Z</time></trkpt><trkpt lat="46.01326748505852" lon="10.345516511814036"><ele>359.0</ele><time>2026-04-27T08:12:22.003Z</time></trkpt><trkpt lat="46.01339794727542" lon="10.345661112148894"><ele>359.0</ele><time>2026-04-27T08:12:23.003Z</time></trkpt><trkpt lat="46.013524469234426" lon="10.345815247077649"><ele>359.0</ele><time>2026-04-27T08:12:24.003Z</time></trkpt><trkpt lat="46.01363364673111" lon="10.34597589273715"><ele>359.0</ele><time>2026-04-27T08:12:25.003Z</time></trkpt><trkpt lat="46.01376829584747" lon="10.346157372962859"><ele>359.0</ele><time>2026-04-27T08:12:26.003Z</time></trkpt><trkpt lat="46.0139048852457" lon="10.34633409005592"><ele>359.0</ele><time>2026-04-27T08:12:27.003Z</time></trkpt><trkpt lat="46.01402509397502" lon="10.346495275985337"><ele>359.0</ele><time>2026-04-27T08:12:28.003Z</time></trkpt><trkpt lat="46.014135726707764" lon="10.346636715312423"><ele>358.25</ele><time>2026-04-27T08:12:29.003Z</time></trkpt><trkpt lat="46.01421532275307" lon="10.346769447443602"><ele>357.5</ele><time>2026-04-27T08:12:30.003Z</time></trkpt><trkpt lat="46.014303086242684" lon="10.34689298010734"><ele>356.75</ele><time>2026-04-27T08:12:31.003Z</time></trkpt><trkpt lat="46.014370844957355" lon="10.347003854166083"><ele>356.0</ele><time>2026-04-27T08:12:32.003Z</time></trkpt><trkpt lat="46.01446829164104" lon="10.347146754042086"><ele>357.0</ele><time>2026-04-27T08:12:33.003Z</time></trkpt><trkpt lat="46.0145802086398" lon="10.347303968112074"><ele>358.0</ele><time>2026-04-27T08:12:34.003Z</time></trkpt><trkpt lat="46.01470201832077" lon="10.347462190012383"><ele>359.0</ele><time>2026-04-27T08:12:35.003Z</time></trkpt><trkpt lat="46.014815818151895" lon="10.347621828127894"><ele>359.0</ele><time>2026-04-27T08:12:36.003Z</time></trkpt><trkpt lat="46.014922655866" lon="10.347766941839268"><ele>359.0</ele><time>2026-04-27T08:12:37.003Z</time></trkpt><trkpt lat="46.015024887954425" lon="10.34789569387664"><ele>359.0</ele><time>2026-04-27T08:12:38.003Z</time></trkpt><trkpt lat="46.01511015704767" lon="10.348000048327348"><ele>359.0</ele><time>2026-04-27T08:12:39.003Z</time></trkpt><trkpt lat="46.0152008709782" lon="10.34809143444588"><ele>358.75</ele><time>2026-04-27T08:12:40.003Z</time></trkpt><trkpt lat="46.01530438444047" lon="10.34817336207508"><ele>358.5</ele><time>2026-04-27T08:12:41.003Z</time></trkpt><trkpt lat="46.01540505586202" lon="10.348251674790568"><ele>358.25</ele><time>2026-04-27T08:12:42.003Z</time></trkpt><trkpt lat="46.01550660343719" lon="10.348325842542488"><ele>358.0</ele><time>2026-04-27T08:12:43.003Z</time></trkpt><trkpt lat="46.01561938506009" lon="10.348389767383239"><ele>358.0</ele><time>2026-04-27T08:12:44.003Z</time></trkpt><trkpt lat="46.01573383531987" lon="10.348438513904059"><ele>358.0</ele><time>2026-04-27T08:12:45.003Z</time></trkpt><trkpt lat="46.015858430587954" lon="10.348468560432144"><ele>358.0</ele><time>2026-04-27T08:12:46.003Z</time></trkpt><trkpt lat="46.0159879740543" lon="10.3484926204698"><ele>358.0</ele><time>2026-04-27T08:12:47.003Z</time></trkpt><trkpt lat="46.0161221005255" lon="10.348509552979428"><ele>357.5</ele><time>2026-04-27T08:12:48.003Z</time></trkpt><trkpt lat="46.016259591876036" lon="10.348510767922294"><ele>357.0</ele><time>2026-04-27T08:12:49.003Z</time></trkpt><trkpt lat="46.01640397097276" lon="10.34849782545838"><ele>356.5</ele><time>2026-04-27T08:12:50.003Z</time></trkpt><trkpt lat="46.01654195129999" lon="10.348468216892407"><ele>356.0</ele><time>2026-04-27T08:12:51.003Z</time></trkpt><trkpt lat="46.016674567653666" lon="10.34842211448444"><ele>355.33333333333337</ele><time>2026-04-27T08:12:52.003Z</time></trkpt><trkpt lat="46.01684904096324" lon="10.348382456932953"><ele>354.6666666666667</ele><time>2026-04-27T08:12:53.003Z</time></trkpt><trkpt lat="46.01702120246758" lon="10.348285332915326"><ele>354.0</ele><time>2026-04-27T08:12:54.003Z</time></trkpt><trkpt lat="46.01721973681708" lon="10.34818254565474"><ele>354.0</ele><time>2026-04-27T08:12:55.003Z</time></trkpt><trkpt lat="46.01741154236378" lon="10.348073178260977"><ele>354.0</ele><time>2026-04-27T08:12:56.003Z</time></trkpt><trkpt lat="46.01758464052223" lon="10.347938510204532"><ele>354.0</ele><time>2026-04-27T08:12:57.003Z</time></trkpt><trkpt lat="46.01775039867754" lon="10.34781064113247"><ele>354.75</ele><time>2026-04-27T08:12:58.003Z</time></trkpt><trkpt lat="46.01789834617366" lon="10.347697059109919"><ele>355.5</ele><time>2026-04-27T08:12:59.003Z</time></trkpt><trkpt lat="46.018016261000376" lon="10.347613143016122"><ele>356.25</ele><time>2026-04-27T08:13:00.003Z</time></trkpt><trkpt lat="46.01811713561427" lon="10.347543679175793"><ele>357.0</ele><time>2026-04-27T08:13:01.003Z</time></trkpt><trkpt lat="46.01822012399157" lon="10.34746865786612"><ele>357.0</ele><time>2026-04-27T08:13:02.003Z</time></trkpt><trkpt lat="46.018331059502735" lon="10.347398226373489"><ele>357.0</ele><time>2026-04-27T08:13:03.003Z</time></trkpt><trkpt lat="46.018445064935406" lon="10.347317399326226"><ele>357.0</ele><time>2026-04-27T08:13:04.003Z</time></trkpt><trkpt lat="46.01856036127739" lon="10.34724085368769"><ele>357.0</ele><time>2026-04-27T08:13:05.003Z</time></trkpt><trkpt lat="46.018672941861254" lon="10.347150712768558"><ele>357.0</ele><time>2026-04-27T08:13:06.003Z</time></trkpt><trkpt lat="46.018814020709456" lon="10.347072816242346"><ele>357.0</ele><time>2026-04-27T08:13:07.003Z</time></trkpt><trkpt lat="46.01896555426887" lon="10.346939732647385"><ele>357.0</ele><time>2026-04-27T08:13:08.004Z</time></trkpt><trkpt lat="46.01914815819636" lon="10.346838311422452"><ele>357.0</ele><time>2026-04-27T08:13:09.003Z</time></trkpt><trkpt lat="46.01933670302222" lon="10.346719588091192"><ele>357.0</ele><time>2026-04-27T08:13:10.003Z</time></trkpt><trkpt lat="46.01953083411" lon="10.346609690190665"><ele>357.0</ele><time>2026-04-27T08:13:11.003Z</time></trkpt><trkpt lat="46.01970326675346" lon="10.346500093400318"><ele>357.0</ele><time>2026-04-27T08:13:12.003Z</time></trkpt><trkpt lat="46.019862411976966" lon="10.346381551508008"><ele>357.0</ele><time>2026-04-27T08:13:13.003Z</time></trkpt><trkpt lat="46.02000818047052" lon="10.346278973677766"><ele>357.0</ele><time>2026-04-27T08:13:14.003Z</time></trkpt><trkpt lat="46.02015477263386" lon="10.346176264288964"><ele>358.0</ele><time>2026-04-27T08:13:15.004Z</time></trkpt><trkpt lat="46.020303183277335" lon="10.346052839699656"><ele>359.0</ele><time>2026-04-27T08:13:16.004Z</time></trkpt><trkpt lat="46.02045395864406" lon="10.34590164488532"><ele>360.0</ele><time>2026-04-27T08:13:17.003Z</time></trkpt><trkpt lat="46.020623048506785" lon="10.3457470321784"><ele>360.0</ele><time>2026-04-27T08:13:18.003Z</time></trkpt><trkpt lat="46.02080731834572" lon="10.345603508843295"><ele>360.0</ele><time>2026-04-27T08:13:19.003Z</time></trkpt><trkpt lat="46.02098429516794" lon="10.345481259233717"><ele>360.0</ele><time>2026-04-27T08:13:20.003Z</time></trkpt><trkpt lat="46.021156696914346" lon="10.345372200696998"><ele>359.6666666666667</ele><time>2026-04-27T08:13:21.003Z</time></trkpt><trkpt lat="46.021339314467824" lon="10.345285925467037"><ele>359.33333333333337</ele><time>2026-04-27T08:13:22.003Z</time></trkpt><trkpt lat="46.02150602998697" lon="10.345207502700708"><ele>359.0</ele><time>2026-04-27T08:13:23.003Z</time></trkpt><trkpt lat="46.02167570298019" lon="10.3451551572079"><ele>360.0</ele><time>2026-04-27T08:13:24.003Z</time></trkpt><trkpt lat="46.021843886114375" lon="10.345135049177003"><ele>361.0</ele><time>2026-04-27T08:13:25.003Z</time></trkpt><trkpt lat="46.02201086192836" lon="10.345125868850301"><ele>362.0</ele><time>2026-04-27T08:13:26.003Z</time></trkpt><trkpt lat="46.02217375875892" lon="10.34511779337807"><ele>362.0</ele><time>2026-04-27T08:13:27.003Z</time></trkpt><trkpt lat="46.02233302339184" lon="10.345149605534266"><ele>362.0</ele><time>2026-04-27T08:13:28.003Z</time></trkpt><trkpt lat="46.02248349578455" lon="10.345205125222945"><ele>362.0</ele><time>2026-04-27T08:13:29.003Z</time></trkpt><trkpt lat="46.02263483091584" lon="10.345254985901756"><ele>362.5</ele><time>2026-04-27T08:13:30.003Z</time></trkpt><trkpt lat="46.022791927207116" lon="10.345302817466678"><ele>363.0</ele><time>2026-04-27T08:13:31.003Z</time></trkpt><trkpt lat="46.02293345541294" lon="10.345360292247419"><ele>363.5</ele><time>2026-04-27T08:13:32.003Z</time></trkpt><trkpt lat="46.023061591437305" lon="10.34540652483005"><ele>364.0</ele><time>2026-04-27T08:13:33.003Z</time></trkpt><trkpt lat="46.023201247984055" lon="10.345450605198312"><ele>362.66666666666663</ele><time>2026-04-27T08:13:34.003Z</time></trkpt><trkpt lat="46.023351469478015" lon="10.345501127285395"><ele>361.3333333333333</ele><time>2026-04-27T08:13:35.003Z</time></trkpt><trkpt lat="46.02352298377135" lon="10.345541911069319"><ele>360.0</ele><time>2026-04-27T08:13:36.003Z</time></trkpt><trkpt lat="46.02369317565095" lon="10.345597304552674"><ele>363.6666666666667</ele><time>2026-04-27T08:13:37.003Z</time></trkpt><trkpt lat="46.02386143645286" lon="10.345661939798305"><ele>367.33333333333337</ele><time>2026-04-27T08:13:38.003Z</time></trkpt><trkpt lat="46.024014407275736" lon="10.345721033078377"><ele>371.0</ele><time>2026-04-27T08:13:39.003Z</time></trkpt><trkpt lat="46.024166490985024" lon="10.345787667229997"><ele>371.0</ele><time>2026-04-27T08:13:40.003Z</time></trkpt><trkpt lat="46.02432841710911" lon="10.34586430992535"><ele>371.0</ele><time>2026-04-27T08:13:41.003Z</time></trkpt><trkpt lat="46.02449369274365" lon="10.345942644068533"><ele>371.0</ele><time>2026-04-27T08:13:42.003Z</time></trkpt><trkpt lat="46.02464193572997" lon="10.346008688268189"><ele>371.0</ele><time>2026-04-27T08:13:43.003Z</time></trkpt><trkpt lat="46.02479324328674" lon="10.346076563283058"><ele>371.0</ele><time>2026-04-27T08:13:44.003Z</time></trkpt><trkpt lat="46.024942116038595" lon="10.346143748184039"><ele>371.0</ele><time>2026-04-27T08:13:45.003Z</time></trkpt><trkpt lat="46.02508415924954" lon="10.3462035365544"><ele>368.0</ele><time>2026-04-27T08:13:46.003Z</time></trkpt><trkpt lat="46.02523738203882" lon="10.346249931792999"><ele>365.0</ele><time>2026-04-27T08:13:47.003Z</time></trkpt><trkpt lat="46.025386824275095" lon="10.346277860792146"><ele>362.0</ele><time>2026-04-27T08:13:48.003Z</time></trkpt><trkpt lat="46.02554658507379" lon="10.3462893732543"><ele>362.0</ele><time>2026-04-27T08:13:49.003Z</time></trkpt><trkpt lat="46.025697082158445" lon="10.346288100860948"><ele>362.0</ele><time>2026-04-27T08:13:50.003Z</time></trkpt><trkpt lat="46.025836376227055" lon="10.346282658023854"><ele>362.0</ele><time>2026-04-27T08:13:51.003Z</time></trkpt><trkpt lat="46.02596698271898" lon="10.346276391059439"><ele>362.0</ele><time>2026-04-27T08:13:52.003Z</time></trkpt><trkpt lat="46.02610582824432" lon="10.34628491227553"><ele>361.8</ele><time>2026-04-27T08:13:53.003Z</time></trkpt><trkpt lat="46.02623341284099" lon="10.346301880719892"><ele>361.6</ele><time>2026-04-27T08:13:54.003Z</time></trkpt><trkpt lat="46.02634839375632" lon="10.346320387994878"><ele>361.40000000000003</ele><time>2026-04-27T08:13:55.003Z</time></trkpt><trkpt lat="46.02644376242116" lon="10.346338816541113"><ele>361.20000000000005</ele><time>2026-04-27T08:13:56.003Z</time></trkpt><trkpt lat="46.02654123012923" lon="10.346354452226736"><ele>361.0</ele><time>2026-04-27T08:13:57.003Z</time></trkpt><trkpt lat="46.0266118680788" lon="10.346371712675886"><ele>363.16666666666663</ele><time>2026-04-27T08:13:58.003Z</time></trkpt><trkpt lat="46.0266846692356" lon="10.346378861901373"><ele>365.3333333333333</ele><time>2026-04-27T08:13:59.003Z</time></trkpt><trkpt lat="46.0268016759989" lon="10.346416458834355"><ele>367.5</ele><time>2026-04-27T08:14:01.003Z</time></trkpt><trkpt lat="46.02686462914279" lon="10.346441276753065"><ele>369.6666666666667</ele><time>2026-04-27T08:14:02.003Z</time></trkpt><trkpt lat="46.026913604858024" lon="10.346532861158407"><ele>371.83333333333337</ele><time>2026-04-27T08:14:03.003Z</time></trkpt><trkpt lat="46.02697449088737" lon="10.346581034514095"><ele>374.0</ele><time>2026-04-27T08:14:04.003Z</time></trkpt><trkpt lat="46.027065334814246" lon="10.34661719234485"><ele>374.0</ele><time>2026-04-27T08:14:05.003Z</time></trkpt><trkpt lat="46.027165221239414" lon="10.3466458279255"><ele>374.0</ele><time>2026-04-27T08:14:06.003Z</time></trkpt><trkpt lat="46.02728256918312" lon="10.346669031944039"><ele>374.0</ele><time>2026-04-27T08:14:07.003Z</time></trkpt><trkpt lat="46.02741555369557" lon="10.346688047436901"><ele>374.0</ele><time>2026-04-27T08:14:08.003Z</time></trkpt><trkpt lat="46.02756073878248" lon="10.346703273128169"><ele>371.33333333333337</ele><time>2026-04-27T08:14:09.003Z</time></trkpt><trkpt lat="46.027722931675385" lon="10.34671657166596"><ele>368.6666666666667</ele><time>2026-04-27T08:14:10.003Z</time></trkpt><trkpt lat="46.02789119086165" lon="10.346738792850498"><ele>366.0</ele><time>2026-04-27T08:14:11.003Z</time></trkpt><trkpt lat="46.028048625438466" lon="10.346758922965524"><ele>366.0</ele><time>2026-04-27T08:14:12.003Z</time></trkpt><trkpt lat="46.02818864450416" lon="10.346777772574821"><ele>366.0</ele><time>2026-04-27T08:14:13.003Z</time></trkpt><trkpt lat="46.0283349920021" lon="10.346789400336533"><ele>366.0</ele><time>2026-04-27T08:14:14.003Z</time></trkpt><trkpt lat="46.02848256818305" lon="10.346804321007546"><ele>366.0</ele><time>2026-04-27T08:14:15.003Z</time></trkpt><trkpt lat="46.02863164238177" lon="10.346814737117693"><ele>366.3333333333333</ele><time>2026-04-27T08:14:16.003Z</time></trkpt><trkpt lat="46.028781985048994" lon="10.346828854983494"><ele>366.66666666666663</ele><time>2026-04-27T08:14:17.003Z</time></trkpt><trkpt lat="46.02893897730614" lon="10.346835311981478"><ele>367.0</ele><time>2026-04-27T08:14:18.003Z</time></trkpt><trkpt lat="46.02909316897073" lon="10.346852137208906"><ele>368.3333333333333</ele><time>2026-04-27T08:14:19.003Z</time></trkpt><trkpt lat="46.029248162081174" lon="10.346849125685559"><ele>369.6666666666667</ele><time>2026-04-27T08:14:20.003Z</time></trkpt><trkpt lat="46.0294079966001" lon="10.346826079824208"><ele>371.0</ele><time>2026-04-27T08:14:21.003Z</time></trkpt><trkpt lat="46.02956998547608" lon="10.346780656581098"><ele>371.0</ele><time>2026-04-27T08:14:22.003Z</time></trkpt><trkpt lat="46.02972608566567" lon="10.346723429580846"><ele>371.0</ele><time>2026-04-27T08:14:23.003Z</time></trkpt><trkpt lat="46.0298899350557" lon="10.346632486280335"><ele>371.0</ele><time>2026-04-27T08:14:24.003Z</time></trkpt><trkpt lat="46.030041276972696" lon="10.346555944673069"><ele>371.0</ele><time>2026-04-27T08:14:25.003Z</time></trkpt><trkpt lat="46.030173985449956" lon="10.346488248232124"><ele>371.0</ele><time>2026-04-27T08:14:26.003Z</time></trkpt><trkpt lat="46.0302878746018" lon="10.346421360383701"><ele>371.0</ele><time>2026-04-27T08:14:27.003Z</time></trkpt><trkpt lat="46.030396275911976" lon="10.346363437176858"><ele>371.0</ele><time>2026-04-27T08:14:28.003Z</time></trkpt><trkpt lat="46.03049641465593" lon="10.346308245516436"><ele>371.0</ele><time>2026-04-27T08:14:29.003Z</time></trkpt><trkpt lat="46.030603360309286" lon="10.346238663644783"><ele>371.0</ele><time>2026-04-27T08:14:30.003Z</time></trkpt><trkpt lat="46.030703766617044" lon="10.346176476591717"><ele>371.0</ele><time>2026-04-27T08:14:31.003Z</time></trkpt><trkpt lat="46.0307795400186" lon="10.346148942852748"><ele>371.0</ele><time>2026-04-27T08:14:32.003Z</time></trkpt><trkpt lat="46.030845831606584" lon="10.346120558253356"><ele>371.0</ele><time>2026-04-27T08:14:33.003Z</time></trkpt><trkpt lat="46.03091682446516" lon="10.346095391419686"><ele>371.0</ele><time>2026-04-27T08:14:34.003Z</time></trkpt><trkpt lat="46.03100500335583" lon="10.346062932687685"><ele>371.25</ele><time>2026-04-27T08:14:35.003Z</time></trkpt><trkpt lat="46.0311142096925" lon="10.346046122714144"><ele>371.5</ele><time>2026-04-27T08:14:36.003Z</time></trkpt><trkpt lat="46.03124309177044" lon="10.346016299454435"><ele>371.75</ele><time>2026-04-27T08:14:37.003Z</time></trkpt><trkpt lat="46.03138825643061" lon="10.345988827549855"><ele>372.0</ele><time>2026-04-27T08:14:38.003Z</time></trkpt><trkpt lat="46.031541713505725" lon="10.345967138392833"><ele>372.3333333333333</ele><time>2026-04-27T08:14:39.003Z</time></trkpt><trkpt lat="46.031685146733636" lon="10.345960270051894"><ele>372.66666666666663</ele><time>2026-04-27T08:14:40.003Z</time></trkpt><trkpt lat="46.03182753017891" lon="10.345959082269832"><ele>373.0</ele><time>2026-04-27T08:14:41.003Z</time></trkpt><trkpt lat="46.03199488381976" lon="10.345951342374828"><ele>373.0</ele><time>2026-04-27T08:14:42.003Z</time></trkpt><trkpt lat="46.032140386446095" lon="10.345940247805371"><ele>373.0</ele><time>2026-04-27T08:14:43.003Z</time></trkpt><trkpt lat="46.03227388100685" lon="10.345936450333665"><ele>373.0</ele><time>2026-04-27T08:14:44.003Z</time></trkpt><trkpt lat="46.032403663231264" lon="10.345938217406808"><ele>373.0</ele><time>2026-04-27T08:14:45.003Z</time></trkpt><trkpt lat="46.03252317585996" lon="10.345951023888208"><ele>373.25</ele><time>2026-04-27T08:14:46.003Z</time></trkpt><trkpt lat="46.032656709930905" lon="10.345974052023532"><ele>373.5</ele><time>2026-04-27T08:14:47.003Z</time></trkpt><trkpt lat="46.03280486776682" lon="10.3460046361168"><ele>373.75</ele><time>2026-04-27T08:14:48.003Z</time></trkpt><trkpt lat="46.032958805616445" lon="10.346036687736257"><ele>374.0</ele><time>2026-04-27T08:14:49.003Z</time></trkpt><trkpt lat="46.03310327589514" lon="10.346075846216461"><ele>374.0</ele><time>2026-04-27T08:14:50.003Z</time></trkpt><trkpt lat="46.03324057348194" lon="10.346123616398234"><ele>374.0</ele><time>2026-04-27T08:14:51.003Z</time></trkpt><trkpt lat="46.03337619815387" lon="10.346179715069216"><ele>374.0</ele><time>2026-04-27T08:14:52.003Z</time></trkpt><trkpt lat="46.03351216373248" lon="10.346230227003325"><ele>374.0</ele><time>2026-04-27T08:14:53.003Z</time></trkpt><trkpt lat="46.03367263768614" lon="10.346284510834364"><ele>373.6666666666667</ele><time>2026-04-27T08:14:54.003Z</time></trkpt><trkpt lat="46.03384773442858" lon="10.346322598014734"><ele>373.3333333333333</ele><time>2026-04-27T08:14:55.003Z</time></trkpt><trkpt lat="46.03400572309068" lon="10.346352988802009"><ele>373.0</ele><time>2026-04-27T08:14:56.003Z</time></trkpt><trkpt lat="46.034145265136644" lon="10.346370899690314"><ele>373.25</ele><time>2026-04-27T08:14:57.003Z</time></trkpt><trkpt lat="46.03429012009234" lon="10.346396626997379"><ele>373.5</ele><time>2026-04-27T08:14:58.003Z</time></trkpt><trkpt lat="46.03443337244449" lon="10.346427264374691"><ele>373.75</ele><time>2026-04-27T08:14:59.003Z</time></trkpt><trkpt lat="46.034556255300714" lon="10.346446707158789"><ele>374.0</ele><time>2026-04-27T08:15:00.003Z</time></trkpt><trkpt lat="46.034635242578936" lon="10.346423680580658"><ele>374.0</ele><time>2026-04-27T08:15:01.003Z</time></trkpt><trkpt lat="46.03471782065653" lon="10.346389103329344"><ele>374.0</ele><time>2026-04-27T08:15:02.003Z</time></trkpt><trkpt lat="46.03479468371853" lon="10.346356174033119"><ele>374.0</ele><time>2026-04-27T08:15:03.003Z</time></trkpt><trkpt lat="46.03490344746436" lon="10.346349468158248"><ele>374.0</ele><time>2026-04-27T08:15:04.003Z</time></trkpt><trkpt lat="46.03502188242526" lon="10.346371273608925"><ele>374.0</ele><time>2026-04-27T08:15:05.003Z</time></trkpt><trkpt lat="46.035164280156444" lon="10.346432856146803"><ele>374.0</ele><time>2026-04-27T08:15:06.003Z</time></trkpt><trkpt lat="46.03530730567159" lon="10.34650461882273"><ele>374.0</ele><time>2026-04-27T08:15:07.003Z</time></trkpt><trkpt lat="46.03545614773388" lon="10.346603508870668"><ele>374.0</ele><time>2026-04-27T08:15:08.003Z</time></trkpt><trkpt lat="46.03559219740683" lon="10.346749464101432"><ele>374.0</ele><time>2026-04-27T08:15:09.003Z</time></trkpt><trkpt lat="46.035725892802745" lon="10.34688339180578"><ele>374.0</ele><time>2026-04-27T08:15:10.003Z</time></trkpt><trkpt lat="46.03585095198593" lon="10.347020665755762"><ele>374.0</ele><time>2026-04-27T08:15:11.003Z</time></trkpt><trkpt lat="46.03595124499271" lon="10.347142624556708"><ele>374.6</ele><time>2026-04-27T08:15:12.003Z</time></trkpt><trkpt lat="46.03603704550527" lon="10.347244041569605"><ele>375.2</ele><time>2026-04-27T08:15:13.003Z</time></trkpt><trkpt lat="46.0361053247577" lon="10.347342547289838"><ele>375.8</ele><time>2026-04-27T08:15:14.003Z</time></trkpt><trkpt lat="46.03617734075359" lon="10.34744273080178"><ele>376.40000000000003</ele><time>2026-04-27T08:15:15.003Z</time></trkpt><trkpt lat="46.036239595483934" lon="10.347559747747084"><ele>377.0</ele><time>2026-04-27T08:15:16.003Z</time></trkpt><trkpt lat="46.03627889243204" lon="10.347672157609333"><ele>377.0</ele><time>2026-04-27T08:15:17.003Z</time></trkpt><trkpt lat="46.03631037387621" lon="10.347778887223019"><ele>377.0</ele><time>2026-04-27T08:15:18.003Z</time></trkpt><trkpt lat="46.03635155707472" lon="10.347986300525083"><ele>377.0</ele><time>2026-04-27T08:15:20.004Z</time></trkpt><trkpt lat="46.03635301192504" lon="10.348086055277982"><ele>377.0</ele><time>2026-04-27T08:15:21.003Z</time></trkpt><trkpt lat="46.036396635447375" lon="10.34816374408404"><ele>377.0</ele><time>2026-04-27T08:15:22.003Z</time></trkpt><trkpt lat="46.03647072356645" lon="10.348201179403612"><ele>377.0</ele><time>2026-04-27T08:15:23.003Z</time></trkpt><trkpt lat="46.03654304468437" lon="10.348163397325788"><ele>377.0</ele><time>2026-04-27T08:15:24.003Z</time></trkpt><trkpt lat="46.03661606788442" lon="10.348119011641906"><ele>377.0</ele><time>2026-04-27T08:15:25.003Z</time></trkpt><trkpt lat="46.03666967765877" lon="10.348028019984051"><ele>377.0</ele><time>2026-04-27T08:15:26.003Z</time></trkpt><trkpt lat="46.036749060857055" lon="10.34796273804709"><ele>377.0</ele><time>2026-04-27T08:15:27.003Z</time></trkpt><trkpt lat="46.036853683758984" lon="10.347928733194715"><ele>377.0</ele><time>2026-04-27T08:15:28.003Z</time></trkpt><trkpt lat="46.03695779610434" lon="10.347908289359182"><ele>377.0</ele><time>2026-04-27T08:15:29.003Z</time></trkpt><trkpt lat="46.0370647156405" lon="10.347860468312703"><ele>377.0</ele><time>2026-04-27T08:15:30.003Z</time></trkpt><trkpt lat="46.03716338896232" lon="10.347784320549064"><ele>377.0</ele><time>2026-04-27T08:15:31.003Z</time></trkpt><trkpt lat="46.0372402014033" lon="10.347691204686821"><ele>377.0</ele><time>2026-04-27T08:15:32.003Z</time></trkpt><trkpt lat="46.037311507024256" lon="10.347601268991086"><ele>377.0</ele><time>2026-04-27T08:15:33.003Z</time></trkpt><trkpt lat="46.03738170087979" lon="10.347491313235661"><ele>377.0</ele><time>2026-04-27T08:15:34.003Z</time></trkpt><trkpt lat="46.03744935310866" lon="10.347380757577703"><ele>377.0</ele><time>2026-04-27T08:15:35.003Z</time></trkpt><trkpt lat="46.037528216283945" lon="10.347275746682232"><ele>377.0</ele><time>2026-04-27T08:15:36.003Z</time></trkpt><trkpt lat="46.03760865876298" lon="10.34715220878123"><ele>377.0</ele><time>2026-04-27T08:15:37.003Z</time></trkpt><trkpt lat="46.03770940853085" lon="10.347023092515975"><ele>376.33333333333337</ele><time>2026-04-27T08:15:38.003Z</time></trkpt><trkpt lat="46.03782611501478" lon="10.346899161073653"><ele>375.6666666666667</ele><time>2026-04-27T08:15:39.003Z</time></trkpt><trkpt lat="46.037959711580086" lon="10.346756627253288"><ele>375.0</ele><time>2026-04-27T08:15:40.003Z</time></trkpt><trkpt lat="46.038088698620456" lon="10.346579565663264"><ele>375.0</ele><time>2026-04-27T08:15:41.003Z</time></trkpt><trkpt lat="46.038258310105974" lon="10.346430570172524"><ele>375.0</ele><time>2026-04-27T08:15:42.003Z</time></trkpt><trkpt lat="46.0384339892264" lon="10.346249660684435"><ele>375.0</ele><time>2026-04-27T08:15:43.003Z</time></trkpt><trkpt lat="46.038618250950904" lon="10.346076258260458"><ele>372.5</ele><time>2026-04-27T08:15:44.003Z</time></trkpt><trkpt lat="46.03882079195092" lon="10.345890774317256"><ele>370.0</ele><time>2026-04-27T08:15:45.003Z</time></trkpt><trkpt lat="46.03902805521669" lon="10.345702247337695"><ele>371.5</ele><time>2026-04-27T08:15:46.003Z</time></trkpt><trkpt lat="46.0392451237653" lon="10.345496139040396"><ele>373.0</ele><time>2026-04-27T08:15:47.003Z</time></trkpt><trkpt lat="46.03946843708791" lon="10.345282181103897"><ele>373.0</ele><time>2026-04-27T08:15:48.003Z</time></trkpt><trkpt lat="46.03969878687929" lon="10.345055040228367"><ele>373.0</ele><time>2026-04-27T08:15:49.003Z</time></trkpt><trkpt lat="46.03993008252995" lon="10.344833322231072"><ele>376.0</ele><time>2026-04-27T08:15:50.003Z</time></trkpt><trkpt lat="46.040145219128526" lon="10.34463237440512"><ele>379.0</ele><time>2026-04-27T08:15:51.003Z</time></trkpt><trkpt lat="46.040335546319874" lon="10.344440695096893"><ele>379.0</ele><time>2026-04-27T08:15:52.003Z</time></trkpt><trkpt lat="46.040526162569655" lon="10.344258685036811"><ele>379.0</ele><time>2026-04-27T08:15:53.003Z</time></trkpt><trkpt lat="46.04071953119102" lon="10.344107809059901"><ele>379.0</ele><time>2026-04-27T08:15:54.003Z</time></trkpt><trkpt lat="46.040887549979" lon="10.343953245282128"><ele>390.0</ele><time>2026-04-27T08:15:55.003Z</time></trkpt><trkpt lat="46.04103531726834" lon="10.343817522878036"><ele>401.0</ele><time>2026-04-27T08:15:56.003Z</time></trkpt><trkpt lat="46.04117562062096" lon="10.343687702526347"><ele>412.0</ele><time>2026-04-27T08:15:57.003Z</time></trkpt><trkpt lat="46.04131891713044" lon="10.343554384170845"><ele>412.0</ele><time>2026-04-27T08:15:58.003Z</time></trkpt><trkpt lat="46.04147752277625" lon="10.343406822856396"><ele>412.0</ele><time>2026-04-27T08:15:59.003Z</time></trkpt><trkpt lat="46.04164310648647" lon="10.34325276893488"><ele>412.0</ele><time>2026-04-27T08:16:00.003Z</time></trkpt><trkpt lat="46.041815845494845" lon="10.343092058553626"><ele>420.0</ele><time>2026-04-27T08:16:01.003Z</time></trkpt><trkpt lat="46.04199353195285" lon="10.34292895391119"><ele>428.0</ele><time>2026-04-27T08:16:02.003Z</time></trkpt><trkpt lat="46.04216382425229" lon="10.342772725497733"><ele>436.0</ele><time>2026-04-27T08:16:03.003Z</time></trkpt><trkpt lat="46.042360504507464" lon="10.342592288530923"><ele>524.0</ele><time>2026-04-27T08:16:04.003Z</time></trkpt><trkpt lat="46.04469727981715" lon="10.341066928398583"><ele>527.0</ele><time>2026-04-27T08:16:10.202Z</time></trkpt><trkpt lat="46.045308111989904" lon="10.340848077632398"><ele>510.0</ele><time>2026-04-27T08:16:11.202Z</time></trkpt><trkpt lat="46.04592851898849" lon="10.340692342694062"><ele>510.0</ele><time>2026-04-27T08:16:12.202Z</time></trkpt><trkpt lat="46.04655521465863" lon="10.340607038376426"><ele>556.0</ele><time>2026-04-27T08:16:13.202Z</time></trkpt><trkpt lat="46.04718434957295" lon="10.34056832034125"><ele>562.0</ele><time>2026-04-27T08:16:14.202Z</time></trkpt><trkpt lat="46.04781380620264" lon="10.340554938791868"><ele>609.0</ele><time>2026-04-27T08:16:15.202Z</time></trkpt><trkpt lat="46.04844379187874" lon="10.34054174716849"><ele>609.0</ele><time>2026-04-27T08:16:16.202Z</time></trkpt><trkpt lat="46.049073411139496" lon="10.340528681988305"><ele>555.0</ele><time>2026-04-27T08:16:17.202Z</time></trkpt><trkpt lat="46.04970312089231" lon="10.340515681769215"><ele>568.0</ele><time>2026-04-27T08:16:18.202Z</time></trkpt><trkpt lat="46.050332862773494" lon="10.340502680886841"><ele>447.0</ele><time>2026-04-27T08:16:19.202Z</time></trkpt><trkpt lat="46.08493785208669" lon="10.33013402887027"><ele>447.0</ele><time>2026-04-27T08:19:26.002Z</time></trkpt><trkpt lat="46.08504570221127" lon="10.329832914641091"><ele>447.0</ele><time>2026-04-27T08:19:27.002Z</time></trkpt><trkpt lat="46.08536163365298" lon="10.329572217989986"><ele>446.5</ele><time>2026-04-27T08:19:28.002Z</time></trkpt><trkpt lat="46.08559456695129" lon="10.329440086755039"><ele>446.0</ele><time>2026-04-27T08:19:29.002Z</time></trkpt><trkpt lat="46.085763909122036" lon="10.329264041442585"><ele>447.0</ele><time>2026-04-27T08:19:30.002Z</time></trkpt><trkpt lat="46.08591498769391" lon="10.329106345934749"><ele>448.0</ele><time>2026-04-27T08:19:31.002Z</time></trkpt><trkpt lat="46.086031105406654" lon="10.328947482256847"><ele>449.0</ele><time>2026-04-27T08:19:32.003Z</time></trkpt><trkpt lat="46.086160974455034" lon="10.328851849880898"><ele>450.3333333333333</ele><time>2026-04-27T08:19:33.003Z</time></trkpt><trkpt lat="46.08630743977414" lon="10.328797945513244"><ele>451.66666666666663</ele><time>2026-04-27T08:19:34.003Z</time></trkpt><trkpt lat="46.086475421042586" lon="10.32875277466318"><ele>453.0</ele><time>2026-04-27T08:19:35.004Z</time></trkpt><trkpt lat="46.08664964299402" lon="10.328702163063538"><ele>466.0</ele><time>2026-04-27T08:19:36.003Z</time></trkpt><trkpt lat="46.08681892287627" lon="10.328658626236622"><ele>479.0</ele><time>2026-04-27T08:19:37.003Z</time></trkpt><trkpt lat="46.086973915002325" lon="10.328634038140784"><ele>492.0</ele><time>2026-04-27T08:19:38.003Z</time></trkpt><trkpt lat="46.087123047503034" lon="10.328604502505355"><ele>492.0</ele><time>2026-04-27T08:19:39.004Z</time></trkpt><trkpt lat="46.087263514753154" lon="10.328557873056141"><ele>492.0</ele><time>2026-04-27T08:19:40.004Z</time></trkpt><trkpt lat="46.087380845528116" lon="10.328491697087692"><ele>492.0</ele><time>2026-04-27T08:19:41.003Z</time></trkpt><trkpt lat="46.08752239105908" lon="10.328386319225093"><ele>492.0</ele><time>2026-04-27T08:19:42.146Z</time></trkpt><trkpt lat="46.08773532097854" lon="10.326939778700856"><ele>495.5</ele><time>2026-04-27T08:19:45.201Z</time></trkpt><trkpt lat="46.08746647836342" lon="10.326448335597636"><ele>499.0</ele><time>2026-04-27T08:19:46.201Z</time></trkpt><trkpt lat="46.087369900763534" lon="10.325951610602166"><ele>492.5</ele><time>2026-04-27T08:19:47.201Z</time></trkpt><trkpt lat="46.08733307363453" lon="10.325438927264026"><ele>486.0</ele><time>2026-04-27T08:19:48.198Z</time></trkpt><trkpt lat="46.087309271203125" lon="10.324922881281683"><ele>476.0</ele><time>2026-04-27T08:19:49.198Z</time></trkpt><trkpt lat="46.087285613922134" lon="10.324406840101473"><ele>466.0</ele><time>2026-04-27T08:19:50.198Z</time></trkpt><trkpt lat="46.08726599409548" lon="10.323890450066264"><ele>464.0</ele><time>2026-04-27T08:19:51.198Z</time></trkpt><trkpt lat="46.087281709626176" lon="10.323374058011419"><ele>462.0</ele><time>2026-04-27T08:19:52.199Z</time></trkpt><trkpt lat="46.08754718639408" lon="10.32315064831399"><ele>466.33333333333337</ele><time>2026-04-27T08:20:07.003Z</time></trkpt><trkpt lat="46.08758893914999" lon="10.322863631429644"><ele>470.6666666666667</ele><time>2026-04-27T08:20:08.003Z</time></trkpt><trkpt lat="46.08769534023637" lon="10.322551942057437"><ele>475.0</ele><time>2026-04-27T08:20:09.003Z</time></trkpt><trkpt lat="46.08774739570206" lon="10.32224841530075"><ele>470.0</ele><time>2026-04-27T08:20:10.003Z</time></trkpt><trkpt lat="46.087794374066426" lon="10.321940601935655"><ele>465.0</ele><time>2026-04-27T08:20:11.003Z</time></trkpt><trkpt lat="46.08786951396188" lon="10.321566389526916"><ele>459.0</ele><time>2026-04-27T08:20:12.003Z</time></trkpt><trkpt lat="46.087772854675926" lon="10.320552342487195"><ele>459.0</ele><time>2026-04-27T08:20:13.003Z</time></trkpt><trkpt lat="46.08782742218311" lon="10.320277467170026"><ele>459.0</ele><time>2026-04-27T08:20:14.003Z</time></trkpt><trkpt lat="46.087874756417186" lon="10.320010190630676"><ele>459.0</ele><time>2026-04-27T08:20:15.003Z</time></trkpt><trkpt lat="46.087929379252614" lon="10.319804763571188"><ele>458.75</ele><time>2026-04-27T08:20:16.003Z</time></trkpt><trkpt lat="46.087987834719094" lon="10.319615082616581"><ele>458.5</ele><time>2026-04-27T08:20:17.003Z</time></trkpt><trkpt lat="46.08804740820937" lon="10.31947641886693"><ele>458.25</ele><time>2026-04-27T08:20:18.003Z</time></trkpt><trkpt lat="46.08813854776213" lon="10.319375199703185"><ele>458.0</ele><time>2026-04-27T08:20:19.003Z</time></trkpt><trkpt lat="46.08822438186394" lon="10.319321848158374"><ele>460.0</ele><time>2026-04-27T08:20:20.003Z</time></trkpt><trkpt lat="46.088307910640495" lon="10.319292256111886"><ele>461.99999999999994</ele><time>2026-04-27T08:20:21.003Z</time></trkpt><trkpt lat="46.088406104478544" lon="10.319284679383959"><ele>463.99999999999994</ele><time>2026-04-27T08:20:22.003Z</time></trkpt><trkpt lat="46.08848620287068" lon="10.319201129478865"><ele>466.0</ele><time>2026-04-27T08:20:23.003Z</time></trkpt><trkpt lat="46.08854699861793" lon="10.319094592848469"><ele>468.0</ele><time>2026-04-27T08:20:24.003Z</time></trkpt><trkpt lat="46.08860627854345" lon="10.318944432248951"><ele>466.5</ele><time>2026-04-27T08:20:25.003Z</time></trkpt><trkpt lat="46.08870558999066" lon="10.318799767891223"><ele>465.0</ele><time>2026-04-27T08:20:26.003Z</time></trkpt><trkpt lat="46.088852854331996" lon="10.318752149769596"><ele>463.5</ele><time>2026-04-27T08:20:27.003Z</time></trkpt><trkpt lat="46.08894415554931" lon="10.318664377969865"><ele>462.0</ele><time>2026-04-27T08:20:28.003Z</time></trkpt><trkpt lat="46.089027494445844" lon="10.31858426020336"><ele>464.75</ele><time>2026-04-27T08:20:29.003Z</time></trkpt><trkpt lat="46.08911679575" lon="10.31849841036757"><ele>467.5</ele><time>2026-04-27T08:20:30.003Z</time></trkpt><trkpt lat="46.089221409929614" lon="10.31839824713205"><ele>470.25</ele><time>2026-04-27T08:20:31.003Z</time></trkpt><trkpt lat="46.08932916156185" lon="10.318295224595364"><ele>473.0</ele><time>2026-04-27T08:20:32.003Z</time></trkpt><trkpt lat="46.08943092681783" lon="10.318197923940017"><ele>473.0</ele><time>2026-04-27T08:20:33.003Z</time></trkpt><trkpt lat="46.089533256218616" lon="10.318098219461298"><ele>473.0</ele><time>2026-04-27T08:20:34.003Z</time></trkpt><trkpt lat="46.08962169092576" lon="10.317971807085266"><ele>473.0</ele><time>2026-04-27T08:20:35.003Z</time></trkpt><trkpt lat="46.089711704287886" lon="10.317847329183543"><ele>473.0</ele><time>2026-04-27T08:20:36.003Z</time></trkpt><trkpt lat="46.08979982525627" lon="10.317726751537217"><ele>472.0</ele><time>2026-04-27T08:20:37.003Z</time></trkpt><trkpt lat="46.08986590205339" lon="10.317577373531531"><ele>471.0</ele><time>2026-04-27T08:20:38.003Z</time></trkpt><trkpt lat="46.089908414518284" lon="10.317414630708054"><ele>470.0</ele><time>2026-04-27T08:20:39.003Z</time></trkpt><trkpt lat="46.089974948190495" lon="10.317274569211015"><ele>469.0</ele><time>2026-04-27T08:20:40.003Z</time></trkpt><trkpt lat="46.09002834257007" lon="10.317124361687311"><ele>469.0</ele><time>2026-04-27T08:20:41.003Z</time></trkpt><trkpt lat="46.09008924541585" lon="10.316972915796777"><ele>469.0</ele><time>2026-04-27T08:20:42.003Z</time></trkpt><trkpt lat="46.090184210450275" lon="10.31687502020149"><ele>469.0</ele><time>2026-04-27T08:20:43.003Z</time></trkpt><trkpt lat="46.09027577659068" lon="10.3167790320585"><ele>469.0</ele><time>2026-04-27T08:20:44.003Z</time></trkpt><trkpt lat="46.09037069366316" lon="10.316690408140783"><ele>469.0</ele><time>2026-04-27T08:20:45.003Z</time></trkpt><trkpt lat="46.09047309871925" lon="10.316604105506807"><ele>469.0</ele><time>2026-04-27T08:20:46.003Z</time></trkpt><trkpt lat="46.09057636830753" lon="10.316516914195837"><ele>469.0</ele><time>2026-04-27T08:20:47.003Z</time></trkpt><trkpt lat="46.090694303054704" lon="10.316441031554712"><ele>469.0</ele><time>2026-04-27T08:20:48.003Z</time></trkpt><trkpt lat="46.09081319081436" lon="10.316391823450697"><ele>469.25</ele><time>2026-04-27T08:20:49.003Z</time></trkpt><trkpt lat="46.0909209720657" lon="10.316380885477066"><ele>469.5</ele><time>2026-04-27T08:20:50.003Z</time></trkpt><trkpt lat="46.09104151896055" lon="10.316381733029063"><ele>469.75</ele><time>2026-04-27T08:20:51.003Z</time></trkpt><trkpt lat="46.09116762512447" lon="10.316394056388981"><ele>470.0</ele><time>2026-04-27T08:20:52.003Z</time></trkpt><trkpt lat="46.09131517522387" lon="10.316388435967184"><ele>470.0</ele><time>2026-04-27T08:20:53.003Z</time></trkpt><trkpt lat="46.09145297411546" lon="10.316382426850797"><ele>470.0</ele><time>2026-04-27T08:20:54.003Z</time></trkpt><trkpt lat="46.09157967974431" lon="10.316376295982764"><ele>470.0</ele><time>2026-04-27T08:20:55.003Z</time></trkpt><trkpt lat="46.0917060218361" lon="10.316414708439558"><ele>470.0</ele><time>2026-04-27T08:20:56.003Z</time></trkpt><trkpt lat="46.091850122054794" lon="10.316405941336905"><ele>471.25</ele><time>2026-04-27T08:20:57.003Z</time></trkpt><trkpt lat="46.0919951006345" lon="10.31639355230045"><ele>472.5</ele><time>2026-04-27T08:20:58.003Z</time></trkpt><trkpt lat="46.092142383352595" lon="10.316381887691438"><ele>473.75</ele><time>2026-04-27T08:20:59.003Z</time></trkpt><trkpt lat="46.092292430417395" lon="10.316355897580568"><ele>475.0</ele><time>2026-04-27T08:21:00.003Z</time></trkpt><trkpt lat="46.09244198710229" lon="10.316323003562125"><ele>475.33333333333337</ele><time>2026-04-27T08:21:01.003Z</time></trkpt><trkpt lat="46.092590274172764" lon="10.316280053867931"><ele>475.66666666666663</ele><time>2026-04-27T08:21:02.003Z</time></trkpt><trkpt lat="46.09273844977183" lon="10.316222190024622"><ele>476.0</ele><time>2026-04-27T08:21:03.003Z</time></trkpt><trkpt lat="46.09288556875025" lon="10.316167502436203"><ele>476.0</ele><time>2026-04-27T08:21:04.003Z</time></trkpt><trkpt lat="46.09302479351541" lon="10.316117927335538"><ele>476.0</ele><time>2026-04-27T08:21:05.003Z</time></trkpt><trkpt lat="46.09316191990157" lon="10.316047653987576"><ele>476.0</ele><time>2026-04-27T08:21:06.003Z</time></trkpt><trkpt lat="46.09329674169637" lon="10.315974228610541"><ele>476.0</ele><time>2026-04-27T08:21:07.003Z</time></trkpt><trkpt lat="46.09343296076755" lon="10.315898691782843"><ele>481.3333333333333</ele><time>2026-04-27T08:21:08.003Z</time></trkpt><trkpt lat="46.09358248460504" lon="10.315818764326291"><ele>486.66666666666663</ele><time>2026-04-27T08:21:09.003Z</time></trkpt><trkpt lat="46.09373923428582" lon="10.315722630412102"><ele>492.0</ele><time>2026-04-27T08:21:10.003Z</time></trkpt><trkpt lat="46.093912934437476" lon="10.315620319609783"><ele>488.66666666666663</ele><time>2026-04-27T08:21:11.003Z</time></trkpt><trkpt lat="46.094111209173775" lon="10.31548961197996"><ele>485.3333333333333</ele><time>2026-04-27T08:21:12.003Z</time></trkpt><trkpt lat="46.09430200544119" lon="10.315360583146818"><ele>482.0</ele><time>2026-04-27T08:21:13.003Z</time></trkpt><trkpt lat="46.09449242103869" lon="10.315250715207721"><ele>482.0</ele><time>2026-04-27T08:21:14.003Z</time></trkpt><trkpt lat="46.094666064869465" lon="10.315125281050006"><ele>482.0</ele><time>2026-04-27T08:21:15.003Z</time></trkpt><trkpt lat="46.09482527759514" lon="10.31502223312279"><ele>482.0</ele><time>2026-04-27T08:21:16.003Z</time></trkpt><trkpt lat="46.09497623199658" lon="10.314939914720336"><ele>482.0</ele><time>2026-04-27T08:21:17.003Z</time></trkpt><trkpt lat="46.09511914142045" lon="10.314860737089754"><ele>482.0</ele><time>2026-04-27T08:21:18.003Z</time></trkpt><trkpt lat="46.0952581372406" lon="10.314771846368977"><ele>482.0</ele><time>2026-04-27T08:21:19.003Z</time></trkpt><trkpt lat="46.09539513953318" lon="10.314685130119447"><ele>482.0</ele><time>2026-04-27T08:21:20.003Z</time></trkpt><trkpt lat="46.09551800673581" lon="10.314601637431126"><ele>482.0</ele><time>2026-04-27T08:21:21.003Z</time></trkpt><trkpt lat="46.09563912228165" lon="10.314539365416877"><ele>482.0</ele><time>2026-04-27T08:21:22.003Z</time></trkpt><trkpt lat="46.09577698715626" lon="10.314501106022938"><ele>482.0</ele><time>2026-04-27T08:21:23.003Z</time></trkpt><trkpt lat="46.09592052633894" lon="10.314484284647266"><ele>485.25</ele><time>2026-04-27T08:21:24.003Z</time></trkpt><trkpt lat="46.09606238975574" lon="10.31448365946004"><ele>488.5</ele><time>2026-04-27T08:21:25.003Z</time></trkpt><trkpt lat="46.09620372941143" lon="10.314507789005187"><ele>491.75</ele><time>2026-04-27T08:21:26.003Z</time></trkpt><trkpt lat="46.0963319788182" lon="10.314514317706337"><ele>495.0</ele><time>2026-04-27T08:21:27.003Z</time></trkpt><trkpt lat="46.09646637306402" lon="10.314544506444651"><ele>496.0</ele><time>2026-04-27T08:21:28.003Z</time></trkpt><trkpt lat="46.09661372873875" lon="10.314574534704459"><ele>497.0</ele><time>2026-04-27T08:21:29.003Z</time></trkpt><trkpt lat="46.09675945488084" lon="10.314606267018524"><ele>498.0</ele><time>2026-04-27T08:21:30.003Z</time></trkpt><trkpt lat="46.096893973229285" lon="10.314622113403841"><ele>499.0</ele><time>2026-04-27T08:21:31.003Z</time></trkpt><trkpt lat="46.097025317757186" lon="10.314652939542173"><ele>499.0</ele><time>2026-04-27T08:21:32.003Z</time></trkpt><trkpt lat="46.09715279083658" lon="10.314677037903705"><ele>499.0</ele><time>2026-04-27T08:21:33.003Z</time></trkpt><trkpt lat="46.09728824624337" lon="10.314699775196871"><ele>499.0</ele><time>2026-04-27T08:21:34.003Z</time></trkpt><trkpt lat="46.09741786656598" lon="10.314715865031602"><ele>499.0</ele><time>2026-04-27T08:21:35.003Z</time></trkpt><trkpt lat="46.09755654089634" lon="10.31474481450787"><ele>504.0</ele><time>2026-04-27T08:21:36.003Z</time></trkpt><trkpt lat="46.09769752050969" lon="10.314776318717458"><ele>509.0</ele><time>2026-04-27T08:21:37.003Z</time></trkpt><trkpt lat="46.097842381686384" lon="10.314808321095319"><ele>514.0</ele><time>2026-04-27T08:21:38.004Z</time></trkpt><trkpt lat="46.09797040822752" lon="10.314840974463555"><ele>519.0</ele><time>2026-04-27T08:21:39.004Z</time></trkpt><trkpt lat="46.09810295538567" lon="10.31485583075856"><ele>519.0</ele><time>2026-04-27T08:21:40.004Z</time></trkpt><trkpt lat="46.09823248345216" lon="10.314881926210274"><ele>519.0</ele><time>2026-04-27T08:21:41.004Z</time></trkpt><trkpt lat="46.0983545374998" lon="10.314902554727155"><ele>519.0</ele><time>2026-04-27T08:21:42.004Z</time></trkpt><trkpt lat="46.09847795576415" lon="10.314893753862616"><ele>519.0</ele><time>2026-04-27T08:21:43.004Z</time></trkpt><trkpt lat="46.09860843120232" lon="10.314849142400535"><ele>516.75</ele><time>2026-04-27T08:21:44.003Z</time></trkpt><trkpt lat="46.098726200293115" lon="10.314797755764912"><ele>514.5</ele><time>2026-04-27T08:21:45.003Z</time></trkpt><trkpt lat="46.098827806795704" lon="10.314727428739488"><ele>512.25</ele><time>2026-04-27T08:21:46.003Z</time></trkpt><trkpt lat="46.09892900370879" lon="10.314652411972286"><ele>510.0</ele><time>2026-04-27T08:21:47.004Z</time></trkpt><trkpt lat="46.09902987189973" lon="10.314571606268641"><ele>507.8</ele><time>2026-04-27T08:21:48.003Z</time></trkpt><trkpt lat="46.09911717206805" lon="10.314499268120718"><ele>505.6</ele><time>2026-04-27T08:21:49.003Z</time></trkpt><trkpt lat="46.0992038552638" lon="10.31440923459457"><ele>503.4</ele><time>2026-04-27T08:21:50.004Z</time></trkpt><trkpt lat="46.09927982972804" lon="10.314316234774669"><ele>501.2</ele><time>2026-04-27T08:21:51.004Z</time></trkpt><trkpt lat="46.099349960290425" lon="10.314205671347162"><ele>499.0</ele><time>2026-04-27T08:21:52.004Z</time></trkpt><trkpt lat="46.099427436712006" lon="10.31407925219416"><ele>499.0</ele><time>2026-04-27T08:21:53.004Z</time></trkpt><trkpt lat="46.099514230099885" lon="10.313954360616016"><ele>499.0</ele><time>2026-04-27T08:21:54.004Z</time></trkpt><trkpt lat="46.09961044101414" lon="10.313842096648477"><ele>499.0</ele><time>2026-04-27T08:21:55.004Z</time></trkpt><trkpt lat="46.099720440528706" lon="10.313761083598447"><ele>499.0</ele><time>2026-04-27T08:21:56.004Z</time></trkpt><trkpt lat="46.09983756055295" lon="10.313692430118778"><ele>497.75</ele><time>2026-04-27T08:21:57.004Z</time></trkpt><trkpt lat="46.099952690581695" lon="10.313642709846645"><ele>496.5</ele><time>2026-04-27T08:21:58.004Z</time></trkpt><trkpt lat="46.10007098029242" lon="10.31359991739309"><ele>495.25</ele><time>2026-04-27T08:21:59.004Z</time></trkpt><trkpt lat="46.100189362993234" lon="10.313549783783772"><ele>494.0</ele><time>2026-04-27T08:22:00.004Z</time></trkpt><trkpt lat="46.10031503900011" lon="10.313530397612263"><ele>494.0</ele><time>2026-04-27T08:22:01.004Z</time></trkpt><trkpt lat="46.10044531247818" lon="10.31354119816224"><ele>494.0</ele><time>2026-04-27T08:22:02.004Z</time></trkpt><trkpt lat="46.10057555687121" lon="10.313568349991217"><ele>494.0</ele><time>2026-04-27T08:22:03.004Z</time></trkpt><trkpt lat="46.100703517379124" lon="10.313615989493428"><ele>494.0</ele><time>2026-04-27T08:22:04.004Z</time></trkpt><trkpt lat="46.1008354537879" lon="10.313696262461544"><ele>494.5</ele><time>2026-04-27T08:22:05.004Z</time></trkpt><trkpt lat="46.100956909074284" lon="10.313787208939829"><ele>495.0</ele><time>2026-04-27T08:22:06.004Z</time></trkpt><trkpt lat="46.10107948307989" lon="10.313892654071834"><ele>495.5</ele><time>2026-04-27T08:22:07.004Z</time></trkpt><trkpt lat="46.10119643952152" lon="10.313984523321157"><ele>496.0</ele><time>2026-04-27T08:22:08.003Z</time></trkpt><trkpt lat="46.101300797439826" lon="10.314074033630304"><ele>498.4</ele><time>2026-04-27T08:22:09.003Z</time></trkpt><trkpt lat="46.10140922368451" lon="10.314167966874072"><ele>500.8</ele><time>2026-04-27T08:22:10.003Z</time></trkpt><trkpt lat="46.101520002956036" lon="10.314249973477734"><ele>503.19999999999993</ele><time>2026-04-27T08:22:11.003Z</time></trkpt><trkpt lat="46.10160468202696" lon="10.314322471803553"><ele>505.59999999999997</ele><time>2026-04-27T08:22:12.003Z</time></trkpt><trkpt lat="46.10168936476853" lon="10.314380702029323"><ele>508.0</ele><time>2026-04-27T08:22:13.003Z</time></trkpt><trkpt lat="46.10176200914163" lon="10.314430245914142"><ele>508.00000000000006</ele><time>2026-04-27T08:22:14.003Z</time></trkpt><trkpt lat="46.101843195742866" lon="10.314469370758315"><ele>508.0</ele><time>2026-04-27T08:22:15.003Z</time></trkpt><trkpt lat="46.10193544875288" lon="10.314490194930077"><ele>508.0</ele><time>2026-04-27T08:22:16.003Z</time></trkpt><trkpt lat="46.10201958398984" lon="10.314493491200706"><ele>508.0</ele><time>2026-04-27T08:22:17.003Z</time></trkpt><trkpt lat="46.1021068178311" lon="10.314479372591205"><ele>508.00000000000006</ele><time>2026-04-27T08:22:18.003Z</time></trkpt><trkpt lat="46.102183518518025" lon="10.314453607204284"><ele>508.0</ele><time>2026-04-27T08:22:19.003Z</time></trkpt><trkpt lat="46.10225560130621" lon="10.314411602352248"><ele>508.00000000000006</ele><time>2026-04-27T08:22:20.003Z</time></trkpt><trkpt lat="46.10233213594361" lon="10.314353691003646"><ele>508.0</ele><time>2026-04-27T08:22:21.003Z</time></trkpt><trkpt lat="46.10240804335341" lon="10.314281196700595"><ele>508.0</ele><time>2026-04-27T08:22:22.003Z</time></trkpt><trkpt lat="46.10247186359803" lon="10.314186936791804"><ele>508.0</ele><time>2026-04-27T08:22:23.003Z</time></trkpt><trkpt lat="46.102534876225384" lon="10.314085170015629"><ele>508.00000000000006</ele><time>2026-04-27T08:22:24.003Z</time></trkpt><trkpt lat="46.102583581823495" lon="10.313991060865334"><ele>508.0</ele><time>2026-04-27T08:22:25.003Z</time></trkpt><trkpt lat="46.1026364665003" lon="10.313891168187448"><ele>505.5</ele><time>2026-04-27T08:22:26.003Z</time></trkpt><trkpt lat="46.102711078335325" lon="10.313787340913183"><ele>503.0</ele><time>2026-04-27T08:22:27.003Z</time></trkpt><trkpt lat="46.102802393794" lon="10.313682554065343"><ele>500.5</ele><time>2026-04-27T08:22:28.003Z</time></trkpt><trkpt lat="46.10290523619994" lon="10.313593382011058"><ele>498.0</ele><time>2026-04-27T08:22:29.003Z</time></trkpt><trkpt lat="46.1030060218551" lon="10.313530550478086"><ele>498.0</ele><time>2026-04-27T08:22:30.003Z</time></trkpt><trkpt lat="46.10310627294535" lon="10.313474677153549"><ele>497.99999999999994</ele><time>2026-04-27T08:22:31.003Z</time></trkpt><trkpt lat="46.1032052494753" lon="10.313403875308383"><ele>497.99999999999994</ele><time>2026-04-27T08:22:32.003Z</time></trkpt><trkpt lat="46.10330916897607" lon="10.313358201133"><ele>498.0</ele><time>2026-04-27T08:22:33.003Z</time></trkpt><trkpt lat="46.10340098701146" lon="10.313314168343425"><ele>498.0</ele><time>2026-04-27T08:22:34.003Z</time></trkpt><trkpt lat="46.10350070334145" lon="10.313281102540444"><ele>501.59999999999997</ele><time>2026-04-27T08:22:35.003Z</time></trkpt><trkpt lat="46.10361150565901" lon="10.31325477734197"><ele>505.19999999999993</ele><time>2026-04-27T08:22:36.003Z</time></trkpt><trkpt lat="46.10372170679493" lon="10.313222964969098"><ele>508.8</ele><time>2026-04-27T08:22:37.003Z</time></trkpt><trkpt lat="46.10380847731487" lon="10.313190558706314"><ele>512.4</ele><time>2026-04-27T08:22:38.003Z</time></trkpt><trkpt lat="46.1038899483614" lon="10.313164864592027"><ele>516.0</ele><time>2026-04-27T08:22:39.003Z</time></trkpt><trkpt lat="46.10396408014652" lon="10.313135840412475"><ele>516.0</ele><time>2026-04-27T08:22:40.003Z</time></trkpt><trkpt lat="46.10405676726097" lon="10.313109348671855"><ele>516.0</ele><time>2026-04-27T08:22:41.003Z</time></trkpt><trkpt lat="46.104154709798884" lon="10.313087649015317"><ele>516.0</ele><time>2026-04-27T08:22:42.003Z</time></trkpt><trkpt lat="46.10424454492291" lon="10.313067599466915"><ele>516.0</ele><time>2026-04-27T08:22:43.003Z</time></trkpt><trkpt lat="46.10435298743994" lon="10.313075341216248"><ele>516.0</ele><time>2026-04-27T08:22:44.003Z</time></trkpt><trkpt lat="46.10446038600624" lon="10.313083602134576"><ele>517.0</ele><time>2026-04-27T08:22:45.003Z</time></trkpt><trkpt lat="46.10455904535175" lon="10.313100215825722"><ele>518.0</ele><time>2026-04-27T08:22:46.003Z</time></trkpt><trkpt lat="46.10466075358372" lon="10.313114148271369"><ele>519.0</ele><time>2026-04-27T08:22:47.003Z</time></trkpt><trkpt lat="46.104757874628376" lon="10.313175559122984"><ele>520.0</ele><time>2026-04-27T08:22:48.003Z</time></trkpt><trkpt lat="46.10486357851413" lon="10.313191998478796"><ele>521.0</ele><time>2026-04-27T08:22:49.003Z</time></trkpt><trkpt lat="46.10496272058032" lon="10.313193654975379"><ele>521.0</ele><time>2026-04-27T08:22:50.003Z</time></trkpt><trkpt lat="46.105054331232246" lon="10.313189547561398"><ele>521.0</ele><time>2026-04-27T08:22:51.003Z</time></trkpt><trkpt lat="46.10514927766372" lon="10.31317804690871"><ele>521.0</ele><time>2026-04-27T08:22:52.003Z</time></trkpt><trkpt lat="46.10523479995625" lon="10.313165286810838"><ele>521.0</ele><time>2026-04-27T08:22:53.003Z</time></trkpt><trkpt lat="46.10532551436796" lon="10.313147655897392"><ele>521.0</ele><time>2026-04-27T08:22:54.003Z</time></trkpt><trkpt lat="46.105422701047665" lon="10.313131623566669"><ele>521.0</ele><time>2026-04-27T08:22:55.003Z</time></trkpt><trkpt lat="46.1055300702144" lon="10.313109500925009"><ele>521.0</ele><time>2026-04-27T08:22:56.003Z</time></trkpt><trkpt lat="46.10564143605288" lon="10.313093118224803"><ele>521.0</ele><time>2026-04-27T08:22:57.003Z</time></trkpt><trkpt lat="46.10574725066175" lon="10.313082361016674"><ele>521.0</ele><time>2026-04-27T08:22:58.003Z</time></trkpt><trkpt lat="46.1058637359693" lon="10.313074070391725"><ele>521.0</ele><time>2026-04-27T08:22:59.003Z</time></trkpt><trkpt lat="46.10599381562698" lon="10.313079769701446"><ele>519.0</ele><time>2026-04-27T08:23:00.003Z</time></trkpt><trkpt lat="46.10614035387174" lon="10.313106707942975"><ele>517.0</ele><time>2026-04-27T08:23:01.003Z</time></trkpt><trkpt lat="46.10629171457669" lon="10.313147181248357"><ele>515.0</ele><time>2026-04-27T08:23:02.003Z</time></trkpt><trkpt lat="46.10645077035656" lon="10.313253853814944"><ele>512.6666666666666</ele><time>2026-04-27T08:23:03.003Z</time></trkpt><trkpt lat="46.10662838772491" lon="10.313361106425612"><ele>510.33333333333337</ele><time>2026-04-27T08:23:04.003Z</time></trkpt><trkpt lat="46.10682574365989" lon="10.313480493575044"><ele>508.0</ele><time>2026-04-27T08:23:05.003Z</time></trkpt><trkpt lat="46.1070333428289" lon="10.313606049700061"><ele>508.0</ele><time>2026-04-27T08:23:06.003Z</time></trkpt><trkpt lat="46.10723463982716" lon="10.313727150074067"><ele>508.0</ele><time>2026-04-27T08:23:07.003Z</time></trkpt><trkpt lat="46.107419008048296" lon="10.31383641960935"><ele>508.0</ele><time>2026-04-27T08:23:08.003Z</time></trkpt><trkpt lat="46.107575295686665" lon="10.313939882778344"><ele>512.25</ele><time>2026-04-27T08:23:09.003Z</time></trkpt><trkpt lat="46.107715481001065" lon="10.314036760713277"><ele>516.5</ele><time>2026-04-27T08:23:10.003Z</time></trkpt><trkpt lat="46.10784942648081" lon="10.314113240321884"><ele>520.75</ele><time>2026-04-27T08:23:11.003Z</time></trkpt><trkpt lat="46.10798271719733" lon="10.314166437627145"><ele>525.0</ele><time>2026-04-27T08:23:12.003Z</time></trkpt><trkpt lat="46.108107911533835" lon="10.314232180845659"><ele>525.0</ele><time>2026-04-27T08:23:13.003Z</time></trkpt><trkpt lat="46.10821541764577" lon="10.314276902896342"><ele>525.0</ele><time>2026-04-27T08:23:14.003Z</time></trkpt><trkpt lat="46.10830590084943" lon="10.314327623635124"><ele>525.0</ele><time>2026-04-27T08:23:15.003Z</time></trkpt><trkpt lat="46.10838813269341" lon="10.314376306725231"><ele>525.0</ele><time>2026-04-27T08:23:16.003Z</time></trkpt><trkpt lat="46.10846807053469" lon="10.314408526150732"><ele>525.0</ele><time>2026-04-27T08:23:17.003Z</time></trkpt><trkpt lat="46.10853457818813" lon="10.314427679043558"><ele>525.0</ele><time>2026-04-27T08:23:18.003Z</time></trkpt><trkpt lat="46.10860724245248" lon="10.314419765696705"><ele>520.75</ele><time>2026-04-27T08:23:19.003Z</time></trkpt><trkpt lat="46.108700489267854" lon="10.314372487568953"><ele>516.5</ele><time>2026-04-27T08:23:20.003Z</time></trkpt><trkpt lat="46.10878894129153" lon="10.314292757454002"><ele>512.25</ele><time>2026-04-27T08:23:21.003Z</time></trkpt><trkpt lat="46.10887281033442" lon="10.314142913810342"><ele>508.0</ele><time>2026-04-27T08:23:22.003Z</time></trkpt><trkpt lat="46.10894023583936" lon="10.313988449193037"><ele>503.0</ele><time>2026-04-27T08:23:23.003Z</time></trkpt><trkpt lat="46.10901621892141" lon="10.313792380918288"><ele>498.0</ele><time>2026-04-27T08:23:24.003Z</time></trkpt><trkpt lat="46.109112941797065" lon="10.31357563646168"><ele>493.0</ele><time>2026-04-27T08:23:25.003Z</time></trkpt><trkpt lat="46.10920454208414" lon="10.31336399325481"><ele>493.5</ele><time>2026-04-27T08:23:26.003Z</time></trkpt><trkpt lat="46.10927172450005" lon="10.313181765471063"><ele>494.0</ele><time>2026-04-27T08:23:27.003Z</time></trkpt><trkpt lat="46.109341363229014" lon="10.313017774015318"><ele>494.5</ele><time>2026-04-27T08:23:28.003Z</time></trkpt><trkpt lat="46.109408121627766" lon="10.3128764323338"><ele>495.0</ele><time>2026-04-27T08:23:29.003Z</time></trkpt><trkpt lat="46.10946614287666" lon="10.312737073284838"><ele>495.0</ele><time>2026-04-27T08:23:30.003Z</time></trkpt><trkpt lat="46.1095545823456" lon="10.312587201843332"><ele>495.0</ele><time>2026-04-27T08:23:31.003Z</time></trkpt><trkpt lat="46.109667321862794" lon="10.31245495196637"><ele>495.0</ele><time>2026-04-27T08:23:32.003Z</time></trkpt><trkpt lat="46.109777239526544" lon="10.312346971647383"><ele>495.0</ele><time>2026-04-27T08:23:33.003Z</time></trkpt><trkpt lat="46.10991491282032" lon="10.312287819512006"><ele>494.0</ele><time>2026-04-27T08:23:34.003Z</time></trkpt><trkpt lat="46.11004674707106" lon="10.312235168769918"><ele>493.0</ele><time>2026-04-27T08:23:35.003Z</time></trkpt><trkpt lat="46.11018671346107" lon="10.31221527191422"><ele>492.0</ele><time>2026-04-27T08:23:36.003Z</time></trkpt><trkpt lat="46.11032887544886" lon="10.312224801592846"><ele>491.0</ele><time>2026-04-27T08:23:37.003Z</time></trkpt><trkpt lat="46.110459152170016" lon="10.31230574345443"><ele>491.0</ele><time>2026-04-27T08:23:38.003Z</time></trkpt><trkpt lat="46.11060806509359" lon="10.31238659356343"><ele>491.0</ele><time>2026-04-27T08:23:39.003Z</time></trkpt><trkpt lat="46.11078219889636" lon="10.312483884089088"><ele>491.0</ele><time>2026-04-27T08:23:40.003Z</time></trkpt><trkpt lat="46.110952035720686" lon="10.312579026027386"><ele>492.3333333333333</ele><time>2026-04-27T08:23:41.003Z</time></trkpt><trkpt lat="46.11110270570466" lon="10.312651949818859"><ele>493.66666666666663</ele><time>2026-04-27T08:23:42.003Z</time></trkpt><trkpt lat="46.111233045647616" lon="10.312743638870097"><ele>495.0</ele><time>2026-04-27T08:23:43.003Z</time></trkpt><trkpt lat="46.111373774733146" lon="10.312813165441689"><ele>495.0</ele><time>2026-04-27T08:23:44.003Z</time></trkpt><trkpt lat="46.1115407930513" lon="10.312899353562816"><ele>495.0</ele><time>2026-04-27T08:23:45.003Z</time></trkpt><trkpt lat="46.111708435947435" lon="10.31299199454499"><ele>495.0</ele><time>2026-04-27T08:23:46.003Z</time></trkpt><trkpt lat="46.111870938889865" lon="10.313077991159716"><ele>494.0</ele><time>2026-04-27T08:23:47.004Z</time></trkpt><trkpt lat="46.11204070084361" lon="10.313178629378154"><ele>493.0</ele><time>2026-04-27T08:23:48.004Z</time></trkpt><trkpt lat="46.112224830829156" lon="10.31329576862819"><ele>492.0</ele><time>2026-04-27T08:23:49.004Z</time></trkpt><trkpt lat="46.11239482889985" lon="10.31342064422875"><ele>493.66666666666663</ele><time>2026-04-27T08:23:50.004Z</time></trkpt><trkpt lat="46.112556371937664" lon="10.31354195458091"><ele>495.3333333333333</ele><time>2026-04-27T08:23:51.004Z</time></trkpt><trkpt lat="46.112701289535885" lon="10.31367417727799"><ele>497.0</ele><time>2026-04-27T08:23:52.004Z</time></trkpt><trkpt lat="46.11285083254422" lon="10.313822457348877"><ele>497.3333333333333</ele><time>2026-04-27T08:23:53.004Z</time></trkpt><trkpt lat="46.11302004988968" lon="10.31400139914001"><ele>497.66666666666663</ele><time>2026-04-27T08:23:54.003Z</time></trkpt><trkpt lat="46.113177721617426" lon="10.314221017799488"><ele>498.0</ele><time>2026-04-27T08:23:55.003Z</time></trkpt><trkpt lat="46.113357449100874" lon="10.31446580925512"><ele>498.0</ele><time>2026-04-27T08:23:56.003Z</time></trkpt><trkpt lat="46.11353063608624" lon="10.314712119205726"><ele>498.0</ele><time>2026-04-27T08:23:57.003Z</time></trkpt><trkpt lat="46.11371144541995" lon="10.314956629545518"><ele>495.0</ele><time>2026-04-27T08:23:58.003Z</time></trkpt><trkpt lat="46.11389384219593" lon="10.315181479132628"><ele>492.0</ele><time>2026-04-27T08:23:59.003Z</time></trkpt><trkpt lat="46.11406943895115" lon="10.315413001224991"><ele>494.5</ele><time>2026-04-27T08:24:00.003Z</time></trkpt><trkpt lat="46.11425547626911" lon="10.315636560008087"><ele>497.0</ele><time>2026-04-27T08:24:01.003Z</time></trkpt><trkpt lat="46.11442992566122" lon="10.315858536872485"><ele>497.0</ele><time>2026-04-27T08:24:02.003Z</time></trkpt><trkpt lat="46.11461680151982" lon="10.316082050930572"><ele>497.0</ele><time>2026-04-27T08:24:03.003Z</time></trkpt><trkpt lat="46.11479355601905" lon="10.31630158765069"><ele>498.66666666666663</ele><time>2026-04-27T08:24:04.003Z</time></trkpt><trkpt lat="46.11496073967287" lon="10.3165072627961"><ele>500.33333333333337</ele><time>2026-04-27T08:24:05.003Z</time></trkpt><trkpt lat="46.11512026680962" lon="10.316712351955674"><ele>502.0</ele><time>2026-04-27T08:24:06.003Z</time></trkpt><trkpt lat="46.11524834870469" lon="10.316901312023758"><ele>502.0</ele><time>2026-04-27T08:24:07.003Z</time></trkpt><trkpt lat="46.115396396502675" lon="10.317090142560996"><ele>502.0</ele><time>2026-04-27T08:24:08.003Z</time></trkpt><trkpt lat="46.11555019528336" lon="10.317282271734204"><ele>502.0</ele><time>2026-04-27T08:24:09.003Z</time></trkpt><trkpt lat="46.11571013125369" lon="10.3174609534548"><ele>503.0</ele><time>2026-04-27T08:24:10.003Z</time></trkpt><trkpt lat="46.11587344958916" lon="10.317633698021247"><ele>504.0</ele><time>2026-04-27T08:24:11.003Z</time></trkpt><trkpt lat="46.11605104515936" lon="10.317787008574278"><ele>505.0</ele><time>2026-04-27T08:24:12.003Z</time></trkpt><trkpt lat="46.11624409189381" lon="10.31793732575159"><ele>505.0</ele><time>2026-04-27T08:24:13.003Z</time></trkpt><trkpt lat="46.11642352554256" lon="10.318060993761893"><ele>505.0</ele><time>2026-04-27T08:24:14.003Z</time></trkpt><trkpt lat="46.11659312198697" lon="10.318193106552371"><ele>505.0</ele><time>2026-04-27T08:24:15.003Z</time></trkpt><trkpt lat="46.11675724977278" lon="10.318310962320405"><ele>504.0</ele><time>2026-04-27T08:24:16.003Z</time></trkpt><trkpt lat="46.116924873220356" lon="10.318428400773303"><ele>503.0</ele><time>2026-04-27T08:24:17.003Z</time></trkpt><trkpt lat="46.1171020616375" lon="10.318532369025595"><ele>502.0</ele><time>2026-04-27T08:24:18.003Z</time></trkpt><trkpt lat="46.11729081792873" lon="10.318610301382359"><ele>504.0</ele><time>2026-04-27T08:24:19.003Z</time></trkpt><trkpt lat="46.11747948536281" lon="10.318645679157664"><ele>506.0</ele><time>2026-04-27T08:24:20.003Z</time></trkpt><trkpt lat="46.1176819274202" lon="10.318652855074907"><ele>508.0</ele><time>2026-04-27T08:24:21.003Z</time></trkpt><trkpt lat="46.117875409449894" lon="10.31864775541925"><ele>508.0</ele><time>2026-04-27T08:24:22.003Z</time></trkpt><trkpt lat="46.118061872333094" lon="10.318637164566317"><ele>508.0</ele><time>2026-04-27T08:24:23.003Z</time></trkpt><trkpt lat="46.11822969113491" lon="10.318641175261527"><ele>508.0</ele><time>2026-04-27T08:24:24.003Z</time></trkpt><trkpt lat="46.11840944369195" lon="10.31867942545196"><ele>509.0</ele><time>2026-04-27T08:24:25.003Z</time></trkpt><trkpt lat="46.118604711925386" lon="10.318715257575931"><ele>510.0</ele><time>2026-04-27T08:24:26.003Z</time></trkpt><trkpt lat="46.11879755761436" lon="10.318783717364925"><ele>511.0</ele><time>2026-04-27T08:24:27.003Z</time></trkpt><trkpt lat="46.11898446420301" lon="10.318889543592741"><ele>509.33333333333337</ele><time>2026-04-27T08:24:28.003Z</time></trkpt><trkpt lat="46.119162102346074" lon="10.318992197758535"><ele>507.66666666666663</ele><time>2026-04-27T08:24:29.003Z</time></trkpt><trkpt lat="46.11932096278181" lon="10.319114248177748"><ele>506.0</ele><time>2026-04-27T08:24:30.003Z</time></trkpt><trkpt lat="46.11945722555986" lon="10.319229787412997"><ele>506.0</ele><time>2026-04-27T08:24:31.003Z</time></trkpt><trkpt lat="46.119575186018366" lon="10.31936156137588"><ele>506.0</ele><time>2026-04-27T08:24:32.003Z</time></trkpt><trkpt lat="46.11969722262528" lon="10.319505410427197"><ele>506.0</ele><time>2026-04-27T08:24:33.003Z</time></trkpt><trkpt lat="46.11981466689667" lon="10.319638490019484"><ele>506.75</ele><time>2026-04-27T08:24:34.003Z</time></trkpt><trkpt lat="46.11994246759423" lon="10.319767274818508"><ele>507.5</ele><time>2026-04-27T08:24:35.003Z</time></trkpt><trkpt lat="46.120055633946954" lon="10.319896214216396"><ele>508.25</ele><time>2026-04-27T08:24:36.003Z</time></trkpt><trkpt lat="46.12015471616123" lon="10.320006439510543"><ele>509.0</ele><time>2026-04-27T08:24:37.003Z</time></trkpt><trkpt lat="46.12024744255912" lon="10.320112586554282"><ele>509.0</ele><time>2026-04-27T08:24:38.003Z</time></trkpt><trkpt lat="46.12035115416809" lon="10.320219944943378"><ele>509.0</ele><time>2026-04-27T08:24:39.003Z</time></trkpt><trkpt lat="46.12045819098461" lon="10.320342863217356"><ele>509.0</ele><time>2026-04-27T08:24:40.003Z</time></trkpt><trkpt lat="46.12057733442506" lon="10.320470877487974"><ele>509.0</ele><time>2026-04-27T08:24:41.003Z</time></trkpt><trkpt lat="46.120700197520264" lon="10.320590433316301"><ele>510.0</ele><time>2026-04-27T08:24:42.003Z</time></trkpt><trkpt lat="46.12082627671714" lon="10.32072488714933"><ele>511.0</ele><time>2026-04-27T08:24:43.003Z</time></trkpt><trkpt lat="46.12095298767369" lon="10.320871260992083"><ele>512.0</ele><time>2026-04-27T08:24:44.003Z</time></trkpt><trkpt lat="46.12109348431111" lon="10.32101162538694"><ele>512.0</ele><time>2026-04-27T08:24:45.003Z</time></trkpt><trkpt lat="46.12124238142649" lon="10.321161488404957"><ele>512.0</ele><time>2026-04-27T08:24:46.003Z</time></trkpt><trkpt lat="46.121383545599386" lon="10.3213183635493"><ele>512.0</ele><time>2026-04-27T08:24:47.003Z</time></trkpt><trkpt lat="46.121531843864055" lon="10.321483405217077"><ele>511.0</ele><time>2026-04-27T08:24:48.003Z</time></trkpt><trkpt lat="46.12168455015304" lon="10.321652961002302"><ele>510.0</ele><time>2026-04-27T08:24:49.003Z</time></trkpt><trkpt lat="46.121851214930395" lon="10.321829015239535"><ele>509.0</ele><time>2026-04-27T08:24:50.003Z</time></trkpt><trkpt lat="46.12202222629863" lon="10.322006315735914"><ele>509.0</ele><time>2026-04-27T08:24:51.003Z</time></trkpt><trkpt lat="46.12219718038181" lon="10.322192423429131"><ele>509.0</ele><time>2026-04-27T08:24:52.003Z</time></trkpt><trkpt lat="46.12238370708986" lon="10.322376011596596"><ele>509.0</ele><time>2026-04-27T08:24:53.003Z</time></trkpt><trkpt lat="46.122571544929144" lon="10.322558912228873"><ele>509.0</ele><time>2026-04-27T08:24:54.003Z</time></trkpt><trkpt lat="46.12273301062795" lon="10.322727434810865"><ele>509.0</ele><time>2026-04-27T08:24:55.003Z</time></trkpt><trkpt lat="46.12289574014578" lon="10.322903674874118"><ele>509.0</ele><time>2026-04-27T08:24:56.003Z</time></trkpt><trkpt lat="46.12307185754893" lon="10.323079949349555"><ele>509.66666666666663</ele><time>2026-04-27T08:24:57.003Z</time></trkpt><trkpt lat="46.12323626134404" lon="10.323264738357109"><ele>510.33333333333337</ele><time>2026-04-27T08:24:58.003Z</time></trkpt><trkpt lat="46.123411466373625" lon="10.323453562363673"><ele>511.0</ele><time>2026-04-27T08:24:59.003Z</time></trkpt><trkpt lat="46.1235979185988" lon="10.323642238776639"><ele>511.0</ele><time>2026-04-27T08:25:00.003Z</time></trkpt><trkpt lat="46.123783793294166" lon="10.323829981786767"><ele>511.0</ele><time>2026-04-27T08:25:01.003Z</time></trkpt><trkpt lat="46.12396075839688" lon="10.324019192676177"><ele>511.0</ele><time>2026-04-27T08:25:02.003Z</time></trkpt><trkpt lat="46.12413928333314" lon="10.324210350045506"><ele>511.0</ele><time>2026-04-27T08:25:03.003Z</time></trkpt><trkpt lat="46.12432454932949" lon="10.324396856905238"><ele>511.0</ele><time>2026-04-27T08:25:04.003Z</time></trkpt><trkpt lat="46.124502835473706" lon="10.324581176078063"><ele>511.0</ele><time>2026-04-27T08:25:05.003Z</time></trkpt><trkpt lat="46.12468008496753" lon="10.324758967455006"><ele>511.0</ele><time>2026-04-27T08:25:06.003Z</time></trkpt><trkpt lat="46.12485633979622" lon="10.324943879742913"><ele>511.0</ele><time>2026-04-27T08:25:07.003Z</time></trkpt><trkpt lat="46.12502871524433" lon="10.325124366330003"><ele>511.0</ele><time>2026-04-27T08:25:08.003Z</time></trkpt><trkpt lat="46.125207103248194" lon="10.325304110793883"><ele>511.0</ele><time>2026-04-27T08:25:09.003Z</time></trkpt><trkpt lat="46.125376086503564" lon="10.325485652991313"><ele>511.0</ele><time>2026-04-27T08:25:10.003Z</time></trkpt><trkpt lat="46.12555492742821" lon="10.325678172739325"><ele>511.0</ele><time>2026-04-27T08:25:11.003Z</time></trkpt><trkpt lat="46.12573763778186" lon="10.325877443220653"><ele>511.33333333333337</ele><time>2026-04-27T08:25:12.003Z</time></trkpt><trkpt lat="46.12591951177976" lon="10.326073653798543"><ele>511.66666666666663</ele><time>2026-04-27T08:25:13.003Z</time></trkpt><trkpt lat="46.12609270035656" lon="10.326254756145266"><ele>512.0</ele><time>2026-04-27T08:25:14.003Z</time></trkpt><trkpt lat="46.126255994981825" lon="10.326414212110155"><ele>512.3333333333333</ele><time>2026-04-27T08:25:15.003Z</time></trkpt><trkpt lat="46.12640283652406" lon="10.326567095169663"><ele>512.6666666666666</ele><time>2026-04-27T08:25:16.003Z</time></trkpt><trkpt lat="46.126542355284776" lon="10.326710858580727"><ele>513.0</ele><time>2026-04-27T08:25:17.003Z</time></trkpt><trkpt lat="46.12667931973114" lon="10.326862206333375"><ele>513.0</ele><time>2026-04-27T08:25:18.003Z</time></trkpt><trkpt lat="46.126823314688124" lon="10.327024099818223"><ele>513.0</ele><time>2026-04-27T08:25:19.003Z</time></trkpt><trkpt lat="46.126971354584875" lon="10.327187564007847"><ele>513.0</ele><time>2026-04-27T08:25:20.003Z</time></trkpt><trkpt lat="46.12710235617694" lon="10.327344384450614"><ele>513.3333333333334</ele><time>2026-04-27T08:25:21.003Z</time></trkpt><trkpt lat="46.127242359393264" lon="10.32749004045118"><ele>513.6666666666667</ele><time>2026-04-27T08:25:22.003Z</time></trkpt><trkpt lat="46.12737557915805" lon="10.327626587208059"><ele>514.0</ele><time>2026-04-27T08:25:23.003Z</time></trkpt><trkpt lat="46.127515474751256" lon="10.327778643716076"><ele>514.6666666666667</ele><time>2026-04-27T08:25:24.003Z</time></trkpt><trkpt lat="46.127663036664586" lon="10.327933352533337"><ele>515.3333333333334</ele><time>2026-04-27T08:25:25.003Z</time></trkpt><trkpt lat="46.1278059691423" lon="10.328087992537734"><ele>516.0</ele><time>2026-04-27T08:25:26.003Z</time></trkpt><trkpt lat="46.127938155893894" lon="10.328231860423514"><ele>516.0</ele><time>2026-04-27T08:25:27.003Z</time></trkpt><trkpt lat="46.128077682807785" lon="10.328379361534958"><ele>516.0</ele><time>2026-04-27T08:25:28.003Z</time></trkpt><trkpt lat="46.12820876740672" lon="10.32852383564107"><ele>516.0</ele><time>2026-04-27T08:25:29.003Z</time></trkpt><trkpt lat="46.12835069656987" lon="10.328662703269382"><ele>516.3333333333334</ele><time>2026-04-27T08:25:30.003Z</time></trkpt><trkpt lat="46.1284754945839" lon="10.328792501740184"><ele>516.6666666666667</ele><time>2026-04-27T08:25:31.003Z</time></trkpt><trkpt lat="46.12859406252121" lon="10.328922934103106"><ele>517.0</ele><time>2026-04-27T08:25:32.003Z</time></trkpt><trkpt lat="46.12872655326468" lon="10.329060971002084"><ele>517.3333333333334</ele><time>2026-04-27T08:25:33.003Z</time></trkpt><trkpt lat="46.12885950575353" lon="10.329200418411896"><ele>517.6666666666666</ele><time>2026-04-27T08:25:34.003Z</time></trkpt><trkpt lat="46.12899920699765" lon="10.329338261416487"><ele>518.0</ele><time>2026-04-27T08:25:35.003Z</time></trkpt><trkpt lat="46.12913068105514" lon="10.329480276742913"><ele>518.3333333333333</ele><time>2026-04-27T08:25:36.003Z</time></trkpt><trkpt lat="46.1292630056888" lon="10.329620440858072"><ele>518.6666666666666</ele><time>2026-04-27T08:25:37.003Z</time></trkpt><trkpt lat="46.12940400680665" lon="10.329762107190193"><ele>519.0</ele><time>2026-04-27T08:25:38.003Z</time></trkpt><trkpt lat="46.12954192340232" lon="10.329908728462687"><ele>519.0</ele><time>2026-04-27T08:25:39.003Z</time></trkpt><trkpt lat="46.12968595661531" lon="10.330055724521541"><ele>519.0</ele><time>2026-04-27T08:25:40.003Z</time></trkpt><trkpt lat="46.1298585921346" lon="10.33021612496786"><ele>519.0</ele><time>2026-04-27T08:25:41.003Z</time></trkpt><trkpt lat="46.13003321241683" lon="10.330410887647487"><ele>519.6666666666666</ele><time>2026-04-27T08:25:42.003Z</time></trkpt><trkpt lat="46.13022292307704" lon="10.330610017309924"><ele>520.3333333333333</ele><time>2026-04-27T08:25:43.003Z</time></trkpt><trkpt lat="46.13039818469726" lon="10.330781756705745"><ele>521.0</ele><time>2026-04-27T08:25:44.003Z</time></trkpt><trkpt lat="46.130555081180745" lon="10.330969196215042"><ele>521.0</ele><time>2026-04-27T08:25:45.003Z</time></trkpt><trkpt lat="46.130703379818094" lon="10.331131468631874"><ele>521.0</ele><time>2026-04-27T08:25:46.003Z</time></trkpt><trkpt lat="46.13084186511803" lon="10.331268580952672"><ele>521.0</ele><time>2026-04-27T08:25:47.003Z</time></trkpt><trkpt lat="46.13096974525918" lon="10.331398767884384"><ele>522.3333333333333</ele><time>2026-04-27T08:25:48.003Z</time></trkpt><trkpt lat="46.13109639682124" lon="10.33153314682089"><ele>523.6666666666666</ele><time>2026-04-27T08:25:49.003Z</time></trkpt><trkpt lat="46.131229295435105" lon="10.331670890353053"><ele>525.0</ele><time>2026-04-27T08:25:50.004Z</time></trkpt><trkpt lat="46.13136710878782" lon="10.331815440523044"><ele>525.0</ele><time>2026-04-27T08:25:51.003Z</time></trkpt><trkpt lat="46.131510507374784" lon="10.331961751213543"><ele>525.0</ele><time>2026-04-27T08:25:52.003Z</time></trkpt><trkpt lat="46.13165509629751" lon="10.332111442761581"><ele>525.0</ele><time>2026-04-27T08:25:53.004Z</time></trkpt><trkpt lat="46.13180186783205" lon="10.33225915012932"><ele>526.3333333333334</ele><time>2026-04-27T08:25:54.003Z</time></trkpt><trkpt lat="46.131948196806334" lon="10.332411845063026"><ele>527.6666666666667</ele><time>2026-04-27T08:25:55.003Z</time></trkpt><trkpt lat="46.13209343903976" lon="10.332559726065892"><ele>529.0</ele><time>2026-04-27T08:25:56.004Z</time></trkpt><trkpt lat="46.132232120194864" lon="10.332701664089807"><ele>529.0</ele><time>2026-04-27T08:25:57.003Z</time></trkpt><trkpt lat="46.13235653507293" lon="10.332834104459593"><ele>529.0</ele><time>2026-04-27T08:25:58.003Z</time></trkpt><trkpt lat="46.13246886533728" lon="10.332974537186082"><ele>529.0</ele><time>2026-04-27T08:25:59.004Z</time></trkpt><trkpt lat="46.132578363451756" lon="10.333089851359295"><ele>529.0</ele><time>2026-04-27T08:26:00.003Z</time></trkpt><trkpt lat="46.13268321768218" lon="10.333200077865104"><ele>528.8</ele><time>2026-04-27T08:26:01.003Z</time></trkpt><trkpt lat="46.13277891376739" lon="10.333300677002038"><ele>528.5999999999999</ele><time>2026-04-27T08:26:02.003Z</time></trkpt><trkpt lat="46.13285763481337" lon="10.3333892507748"><ele>528.4</ele><time>2026-04-27T08:26:03.003Z</time></trkpt><trkpt lat="46.132932511418055" lon="10.333460543864359"><ele>528.1999999999999</ele><time>2026-04-27T08:26:04.003Z</time></trkpt><trkpt lat="46.132993819218676" lon="10.333526456040808"><ele>528.0</ele><time>2026-04-27T08:26:05.003Z</time></trkpt><trkpt lat="46.13304294619241" lon="10.333598919302448"><ele>528.0</ele><time>2026-04-27T08:26:06.003Z</time></trkpt><trkpt lat="46.133094796200865" lon="10.333707900401086"><ele>528.0</ele><time>2026-04-27T08:26:07.003Z</time></trkpt><trkpt lat="46.13315212498167" lon="10.33384024761478"><ele>528.0</ele><time>2026-04-27T08:26:08.003Z</time></trkpt><trkpt lat="46.13322662363452" lon="10.333943597157583"><ele>528.0</ele><time>2026-04-27T08:26:09.003Z</time></trkpt><trkpt lat="46.13332135971742" lon="10.3340066748474"><ele>528.0</ele><time>2026-04-27T08:26:10.003Z</time></trkpt><trkpt lat="46.133448662152574" lon="10.33405137476424"><ele>529.6666666666666</ele><time>2026-04-27T08:26:11.002Z</time></trkpt><trkpt lat="46.13358734692836" lon="10.334121371815371"><ele>531.3333333333333</ele><time>2026-04-27T08:26:12Z</time></trkpt><trkpt lat="46.133721793311274" lon="10.334290408922238"><ele>533.0</ele><time>2026-04-27T08:26:12.997Z</time></trkpt><trkpt lat="46.13388326234101" lon="10.334459660938684"><ele>533.0</ele><time>2026-04-27T08:26:13.995Z</time></trkpt><trkpt lat="46.134054894576394" lon="10.334639565991267"><ele>533.0</ele><time>2026-04-27T08:26:14.993Z</time></trkpt><trkpt lat="46.13423776597353" lon="10.33481219769028"><ele>533.0</ele><time>2026-04-27T08:26:15.991Z</time></trkpt><trkpt lat="46.13443035600684" lon="10.33501054696915"><ele>533.5</ele><time>2026-04-27T08:26:16.989Z</time></trkpt><trkpt lat="46.134631149279365" lon="10.33521668894127"><ele>534.0</ele><time>2026-04-27T08:26:17.987Z</time></trkpt><trkpt lat="46.134806017713956" lon="10.335420847076405"><ele>534.6666666666666</ele><time>2026-04-27T08:26:18.985Z</time></trkpt><trkpt lat="46.13498448245044" lon="10.335592337319941"><ele>535.3333333333333</ele><time>2026-04-27T08:26:19.984Z</time></trkpt><trkpt lat="46.13514433592649" lon="10.335762272576858"><ele>536.0</ele><time>2026-04-27T08:26:20.982Z</time></trkpt><trkpt lat="46.13531614679138" lon="10.335919416525758"><ele>536.0</ele><time>2026-04-27T08:26:21.981Z</time></trkpt><trkpt lat="46.13550451594894" lon="10.336063203670097"><ele>536.0</ele><time>2026-04-27T08:26:22.98Z</time></trkpt><trkpt lat="46.1357021473922" lon="10.336200148529636"><ele>536.0</ele><time>2026-04-27T08:26:23.979Z</time></trkpt><trkpt lat="46.1359062091819" lon="10.336323566293915"><ele>536.5</ele><time>2026-04-27T08:26:24.977Z</time></trkpt><trkpt lat="46.136124501581826" lon="10.3364475914714"><ele>537.0</ele><time>2026-04-27T08:26:25.976Z</time></trkpt><trkpt lat="46.136342238369124" lon="10.336568882220634"><ele>539.5</ele><time>2026-04-27T08:26:26.975Z</time></trkpt><trkpt lat="46.13655977891834" lon="10.336689366329217"><ele>542.0</ele><time>2026-04-27T08:26:27.974Z</time></trkpt><trkpt lat="46.13678664645537" lon="10.336823837511615"><ele>542.0</ele><time>2026-04-27T08:26:28.973Z</time></trkpt><trkpt lat="46.13702127603046" lon="10.336964637527378"><ele>542.0</ele><time>2026-04-27T08:26:29.973Z</time></trkpt><trkpt lat="46.13725929002335" lon="10.337102076693654"><ele>541.5</ele><time>2026-04-27T08:26:30.972Z</time></trkpt><trkpt lat="46.13750273951242" lon="10.337241665243623"><ele>541.0</ele><time>2026-04-27T08:26:31.971Z</time></trkpt><trkpt lat="46.137995119651904" lon="10.337541077776475"><ele>543.0</ele><time>2026-04-27T08:26:33.97Z</time></trkpt><trkpt lat="46.13824221028921" lon="10.337684845502412"><ele>545.0</ele><time>2026-04-27T08:26:34.969Z</time></trkpt><trkpt lat="46.138486546517086" lon="10.337829127591878"><ele>545.0</ele><time>2026-04-27T08:26:35.969Z</time></trkpt><trkpt lat="46.13872946688775" lon="10.337967554311327"><ele>545.0</ele><time>2026-04-27T08:26:36.968Z</time></trkpt><trkpt lat="46.13897340409325" lon="10.338108566968792"><ele>546.0</ele><time>2026-04-27T08:26:37.968Z</time></trkpt><trkpt lat="46.13921638689751" lon="10.338251060385394"><ele>547.0</ele><time>2026-04-27T08:26:38.967Z</time></trkpt><trkpt lat="46.1394522885407" lon="10.338397661189733"><ele>547.0</ele><time>2026-04-27T08:26:39.967Z</time></trkpt><trkpt lat="46.13969215075827" lon="10.338540080441142"><ele>547.0</ele><time>2026-04-27T08:26:40.966Z</time></trkpt><trkpt lat="46.13992731169924" lon="10.338683740428555"><ele>548.0</ele><time>2026-04-27T08:26:41.966Z</time></trkpt><trkpt lat="46.14016624434919" lon="10.338821463540608"><ele>549.0</ele><time>2026-04-27T08:26:42.965Z</time></trkpt><trkpt lat="46.1404038746008" lon="10.338961979747602"><ele>549.5</ele><time>2026-04-27T08:26:43.965Z</time></trkpt><trkpt lat="46.1406380837093" lon="10.339102194789817"><ele>550.0</ele><time>2026-04-27T08:26:44.965Z</time></trkpt><trkpt lat="46.14087521183711" lon="10.339237880556624"><ele>551.5</ele><time>2026-04-27T08:26:45.964Z</time></trkpt><trkpt lat="46.14111587106018" lon="10.339372728945564"><ele>553.0</ele><time>2026-04-27T08:26:46.964Z</time></trkpt><trkpt lat="46.14134705024402" lon="10.339516318154896"><ele>555.0</ele><time>2026-04-27T08:26:47.964Z</time></trkpt><trkpt lat="46.14157504017229" lon="10.339669145293865"><ele>557.0</ele><time>2026-04-27T08:26:48.964Z</time></trkpt><trkpt lat="46.1418007707163" lon="10.33984548280493"><ele>557.0</ele><time>2026-04-27T08:26:49.963Z</time></trkpt><trkpt lat="46.14203719768155" lon="10.340027086863948"><ele>557.0</ele><time>2026-04-27T08:26:50.963Z</time></trkpt><trkpt lat="46.142271749392336" lon="10.340214174442334"><ele>557.0</ele><time>2026-04-27T08:26:51.963Z</time></trkpt><trkpt lat="46.14251825579303" lon="10.340399920167982"><ele>557.0</ele><time>2026-04-27T08:26:52.963Z</time></trkpt><trkpt lat="46.14276053673353" lon="10.340591277288006"><ele>557.0</ele><time>2026-04-27T08:26:53.963Z</time></trkpt><trkpt lat="46.14300074260804" lon="10.340777267853316"><ele>557.0</ele><time>2026-04-27T08:26:54.962Z</time></trkpt><trkpt lat="46.14324352902808" lon="10.34096115324124"><ele>559.0</ele><time>2026-04-27T08:26:55.962Z</time></trkpt><trkpt lat="46.143477988657374" lon="10.341140360946916"><ele>561.0</ele><time>2026-04-27T08:26:56.962Z</time></trkpt><trkpt lat="46.143708787320435" lon="10.341317889063573"><ele>561.5</ele><time>2026-04-27T08:26:57.962Z</time></trkpt><trkpt lat="46.14393737694692" lon="10.341495129005105"><ele>562.0</ele><time>2026-04-27T08:26:58.962Z</time></trkpt><trkpt lat="46.14416488773324" lon="10.341668091591592"><ele>563.0</ele><time>2026-04-27T08:26:59.962Z</time></trkpt><trkpt lat="46.144387517658" lon="10.341838477338827"><ele>564.0</ele><time>2026-04-27T08:27:00.962Z</time></trkpt><trkpt lat="46.14460843357272" lon="10.342008514498513"><ele>564.0</ele><time>2026-04-27T08:27:01.961Z</time></trkpt><trkpt lat="46.144821542318724" lon="10.34217405738137"><ele>564.0</ele><time>2026-04-27T08:27:02.961Z</time></trkpt><trkpt lat="46.145043351466576" lon="10.342341225413959"><ele>567.0</ele><time>2026-04-27T08:27:03.961Z</time></trkpt><trkpt lat="46.14526468838443" lon="10.34251076878595"><ele>570.0</ele><time>2026-04-27T08:27:04.961Z</time></trkpt><trkpt lat="46.145486647382945" lon="10.342672549797612"><ele>570.0</ele><time>2026-04-27T08:27:05.961Z</time></trkpt><trkpt lat="46.14570111611858" lon="10.342832854447284"><ele>570.0</ele><time>2026-04-27T08:27:06.961Z</time></trkpt><trkpt lat="46.14589112893373" lon="10.342977499449477"><ele>571.0</ele><time>2026-04-27T08:27:07.961Z</time></trkpt><trkpt lat="46.14608237050331" lon="10.343105401849485"><ele>572.0</ele><time>2026-04-27T08:27:08.961Z</time></trkpt><trkpt lat="46.14627272130291" lon="10.34323746409605"><ele>573.0</ele><time>2026-04-27T08:27:09.961Z</time></trkpt><trkpt lat="46.14647616069125" lon="10.343348439439376"><ele>576.6666666666666</ele><time>2026-04-27T08:27:10.961Z</time></trkpt><trkpt lat="46.14669872946383" lon="10.343432897055653"><ele>580.3333333333333</ele><time>2026-04-27T08:27:11.961Z</time></trkpt><trkpt lat="46.14690360363284" lon="10.343510781280335"><ele>584.0</ele><time>2026-04-27T08:27:12.96Z</time></trkpt><trkpt lat="46.1471043614187" lon="10.343618851472296"><ele>584.0</ele><time>2026-04-27T08:27:13.96Z</time></trkpt><trkpt lat="46.14731413930043" lon="10.343764010395342"><ele>584.0</ele><time>2026-04-27T08:27:14.96Z</time></trkpt><trkpt lat="46.147509440072184" lon="10.343949420465675"><ele>586.5</ele><time>2026-04-27T08:27:15.96Z</time></trkpt><trkpt lat="46.14770441858025" lon="10.34413659654387"><ele>589.0</ele><time>2026-04-27T08:27:16.96Z</time></trkpt><trkpt lat="46.1478952061956" lon="10.344312202449501"><ele>589.0</ele><time>2026-04-27T08:27:17.96Z</time></trkpt><trkpt lat="46.14808232862743" lon="10.34446818360073"><ele>589.0</ele><time>2026-04-27T08:27:18.96Z</time></trkpt><trkpt lat="46.148278358490664" lon="10.34460954122118"><ele>589.0</ele><time>2026-04-27T08:27:19.96Z</time></trkpt><trkpt lat="46.14846949612458" lon="10.344753414136234"><ele>590.3333333333334</ele><time>2026-04-27T08:27:20.96Z</time></trkpt><trkpt lat="46.148668023613475" lon="10.344855999469486"><ele>591.6666666666666</ele><time>2026-04-27T08:27:21.96Z</time></trkpt><trkpt lat="46.14884369552492" lon="10.344943692395143"><ele>593.0</ele><time>2026-04-27T08:27:22.96Z</time></trkpt><trkpt lat="46.14903611035857" lon="10.344966177357678"><ele>595.6666666666666</ele><time>2026-04-27T08:27:23.96Z</time></trkpt><trkpt lat="46.14924186863259" lon="10.344929097919026"><ele>598.3333333333334</ele><time>2026-04-27T08:27:24.96Z</time></trkpt><trkpt lat="46.14943885927205" lon="10.344892688262986"><ele>601.0</ele><time>2026-04-27T08:27:25.96Z</time></trkpt><trkpt lat="46.14965115914492" lon="10.344890723786074"><ele>601.0</ele><time>2026-04-27T08:27:26.96Z</time></trkpt><trkpt lat="46.149873985861205" lon="10.34490936970123"><ele>601.0</ele><time>2026-04-27T08:27:27.96Z</time></trkpt><trkpt lat="46.150082471442126" lon="10.344891894889399"><ele>601.0</ele><time>2026-04-27T08:27:28.96Z</time></trkpt><trkpt lat="46.1503253984844" lon="10.34495788003799"><ele>603.0</ele><time>2026-04-27T08:27:29.96Z</time></trkpt><trkpt lat="46.15054581564297" lon="10.34499134790702"><ele>605.0</ele><time>2026-04-27T08:27:30.96Z</time></trkpt><trkpt lat="46.150757150287156" lon="10.345062223766186"><ele>607.0</ele><time>2026-04-27T08:27:31.96Z</time></trkpt><trkpt lat="46.150972139773444" lon="10.345143356768068"><ele>611.3333333333334</ele><time>2026-04-27T08:27:32.96Z</time></trkpt><trkpt lat="46.15119211508089" lon="10.345218588315952"><ele>615.6666666666666</ele><time>2026-04-27T08:27:33.96Z</time></trkpt><trkpt lat="46.15138807619966" lon="10.345290176577814"><ele>620.0</ele><time>2026-04-27T08:27:34.96Z</time></trkpt><trkpt lat="46.151570072079984" lon="10.345365282944048"><ele>623.3333333333333</ele><time>2026-04-27T08:27:35.96Z</time></trkpt><trkpt lat="46.15173529625745" lon="10.345439810888026"><ele>626.6666666666666</ele><time>2026-04-27T08:27:36.96Z</time></trkpt><trkpt lat="46.151900307421776" lon="10.34550688421663"><ele>630.0</ele><time>2026-04-27T08:27:37.96Z</time></trkpt><trkpt lat="46.15205450665476" lon="10.345575656726993"><ele>624.0</ele><time>2026-04-27T08:27:38.959Z</time></trkpt><trkpt lat="46.15221245856694" lon="10.345647306770447"><ele>618.0</ele><time>2026-04-27T08:27:39.959Z</time></trkpt><trkpt lat="46.15237206713408" lon="10.345700449416034"><ele>612.0</ele><time>2026-04-27T08:27:40.959Z</time></trkpt><trkpt lat="46.152521662141" lon="10.34571690880411"><ele>612.0</ele><time>2026-04-27T08:27:41.959Z</time></trkpt><trkpt lat="46.15269736013604" lon="10.345680363411237"><ele>612.0</ele><time>2026-04-27T08:27:42.959Z</time></trkpt><trkpt lat="46.1528770164848" lon="10.34563208518834"><ele>612.0</ele><time>2026-04-27T08:27:43.959Z</time></trkpt><trkpt lat="46.153060593474336" lon="10.345579577211781"><ele>612.0</ele><time>2026-04-27T08:27:44.959Z</time></trkpt><trkpt lat="46.15324223699446" lon="10.345534168058311"><ele>612.0</ele><time>2026-04-27T08:27:45.959Z</time></trkpt><trkpt lat="46.153426112440386" lon="10.345536731828668"><ele>612.0</ele><time>2026-04-27T08:27:46.959Z</time></trkpt><trkpt lat="46.153628717442324" lon="10.345578250961271"><ele>612.0</ele><time>2026-04-27T08:27:47.959Z</time></trkpt><trkpt lat="46.153822739097805" lon="10.34567526682465"><ele>612.0</ele><time>2026-04-27T08:27:48.959Z</time></trkpt><trkpt lat="46.154007306857075" lon="10.345805543829565"><ele>612.0</ele><time>2026-04-27T08:27:49.959Z</time></trkpt><trkpt lat="46.15417898598895" lon="10.345922245180764"><ele>613.6666666666666</ele><time>2026-04-27T08:27:50.959Z</time></trkpt><trkpt lat="46.154339365715444" lon="10.346019017379481"><ele>615.3333333333333</ele><time>2026-04-27T08:27:51.959Z</time></trkpt><trkpt lat="46.154521943371385" lon="10.346082185789292"><ele>617.0</ele><time>2026-04-27T08:27:52.959Z</time></trkpt><trkpt lat="46.1547120472833" lon="10.346107880846022"><ele>618.0</ele><time>2026-04-27T08:27:53.959Z</time></trkpt><trkpt lat="46.15490980612855" lon="10.346107742373645"><ele>619.0</ele><time>2026-04-27T08:27:54.959Z</time></trkpt><trkpt lat="46.15511061396581" lon="10.346116838115341"><ele>620.0</ele><time>2026-04-27T08:27:55.96Z</time></trkpt><trkpt lat="46.15530746434996" lon="10.346114759907643"><ele>620.0</ele><time>2026-04-27T08:27:56.96Z</time></trkpt><trkpt lat="46.15549618275866" lon="10.34610703380995"><ele>620.0</ele><time>2026-04-27T08:27:57.96Z</time></trkpt><trkpt lat="46.155693277115915" lon="10.346122953346404"><ele>620.0</ele><time>2026-04-27T08:27:58.96Z</time></trkpt><trkpt lat="46.15587418730936" lon="10.34618822448596"><ele>619.0</ele><time>2026-04-27T08:27:59.96Z</time></trkpt><trkpt lat="46.15605368199121" lon="10.34632199990276"><ele>618.0</ele><time>2026-04-27T08:28:00.96Z</time></trkpt><trkpt lat="46.15622958524633" lon="10.346501052154043"><ele>617.0</ele><time>2026-04-27T08:28:01.96Z</time></trkpt><trkpt lat="46.15640447522255" lon="10.346672479460251"><ele>617.0</ele><time>2026-04-27T08:28:02.96Z</time></trkpt><trkpt lat="46.156588528249124" lon="10.346828259739802"><ele>617.0</ele><time>2026-04-27T08:28:03.96Z</time></trkpt><trkpt lat="46.15675204952527" lon="10.346973664140243"><ele>617.0</ele><time>2026-04-27T08:28:04.96Z</time></trkpt><trkpt lat="46.15690336284167" lon="10.347107443253188"><ele>614.75</ele><time>2026-04-27T08:28:05.96Z</time></trkpt><trkpt lat="46.15703029752903" lon="10.3472229938048"><ele>612.5</ele><time>2026-04-27T08:28:06.96Z</time></trkpt><trkpt lat="46.15714302448092" lon="10.347331146627937"><ele>610.25</ele><time>2026-04-27T08:28:07.96Z</time></trkpt><trkpt lat="46.157245641138005" lon="10.347426886047263"><ele>608.0</ele><time>2026-04-27T08:28:08.96Z</time></trkpt><trkpt lat="46.15735116383206" lon="10.34751549625863"><ele>609.0</ele><time>2026-04-27T08:28:09.96Z</time></trkpt><trkpt lat="46.15744274330031" lon="10.347652918594628"><ele>610.0</ele><time>2026-04-27T08:28:10.96Z</time></trkpt><trkpt lat="46.15751839333116" lon="10.347802729734358"><ele>611.0</ele><time>2026-04-27T08:28:11.96Z</time></trkpt><trkpt lat="46.15754994920314" lon="10.347989758205072"><ele>612.0</ele><time>2026-04-27T08:28:12.96Z</time></trkpt><trkpt lat="46.15755223801375" lon="10.34817769441967"><ele>612.0</ele><time>2026-04-27T08:28:13.96Z</time></trkpt><trkpt lat="46.157537649944906" lon="10.348367845061514"><ele>612.0</ele><time>2026-04-27T08:28:14.96Z</time></trkpt><trkpt lat="46.157542391050406" lon="10.3485419671211"><ele>612.0</ele><time>2026-04-27T08:28:15.96Z</time></trkpt><trkpt lat="46.157579578786894" lon="10.348696608746062"><ele>612.0</ele><time>2026-04-27T08:28:16.96Z</time></trkpt><trkpt lat="46.157673033262334" lon="10.34880667110266"><ele>616.6666666666666</ele><time>2026-04-27T08:28:17.96Z</time></trkpt><trkpt lat="46.15779647138055" lon="10.34889114188876"><ele>621.3333333333333</ele><time>2026-04-27T08:28:18.96Z</time></trkpt><trkpt lat="46.15793683662384" lon="10.348938819122184"><ele>626.0</ele><time>2026-04-27T08:28:19.96Z</time></trkpt><trkpt lat="46.15810775701451" lon="10.348922082535013"><ele>627.3333333333333</ele><time>2026-04-27T08:28:20.96Z</time></trkpt><trkpt lat="46.158290760593026" lon="10.34888072769362"><ele>628.6666666666666</ele><time>2026-04-27T08:28:21.96Z</time></trkpt><trkpt lat="46.158500869357" lon="10.34883137724122"><ele>630.0</ele><time>2026-04-27T08:28:22.96Z</time></trkpt><trkpt lat="46.158689466073945" lon="10.348787270522662"><ele>625.0</ele><time>2026-04-27T08:28:23.96Z</time></trkpt><trkpt lat="46.15888208811372" lon="10.348745440594264"><ele>620.0</ele><time>2026-04-27T08:28:24.96Z</time></trkpt><trkpt lat="46.159075550472515" lon="10.348702003538266"><ele>615.0</ele><time>2026-04-27T08:28:25.96Z</time></trkpt><trkpt lat="46.159256400224656" lon="10.348683817322518"><ele>614.3333333333334</ele><time>2026-04-27T08:28:26.96Z</time></trkpt><trkpt lat="46.15944459228501" lon="10.348694149285286"><ele>613.6666666666667</ele><time>2026-04-27T08:28:27.96Z</time></trkpt><trkpt lat="46.159640688297365" lon="10.348751666194717"><ele>613.0</ele><time>2026-04-27T08:28:28.96Z</time></trkpt><trkpt lat="46.15983251292821" lon="10.348843486759497"><ele>614.6666666666667</ele><time>2026-04-27T08:28:29.96Z</time></trkpt><trkpt lat="46.160021882409396" lon="10.34898640655849"><ele>616.3333333333334</ele><time>2026-04-27T08:28:30.96Z</time></trkpt><trkpt lat="46.16021882668372" lon="10.34912298374986"><ele>618.0</ele><time>2026-04-27T08:28:31.959Z</time></trkpt><trkpt lat="46.16042125775405" lon="10.349254506904837"><ele>618.0</ele><time>2026-04-27T08:28:32.959Z</time></trkpt><trkpt lat="46.16061733490756" lon="10.349398983638185"><ele>618.0</ele><time>2026-04-27T08:28:33.959Z</time></trkpt><trkpt lat="46.1608055428164" lon="10.349552736998058"><ele>618.0</ele><time>2026-04-27T08:28:34.959Z</time></trkpt><trkpt lat="46.16100452172992" lon="10.349687467881255"><ele>617.3333333333334</ele><time>2026-04-27T08:28:35.959Z</time></trkpt><trkpt lat="46.16118129893947" lon="10.34984960439415"><ele>616.6666666666667</ele><time>2026-04-27T08:28:36.959Z</time></trkpt><trkpt lat="46.16136809541078" lon="10.349978535671653"><ele>616.0</ele><time>2026-04-27T08:28:37.959Z</time></trkpt><trkpt lat="46.161544785437435" lon="10.350127787722567"><ele>616.0</ele><time>2026-04-27T08:28:38.959Z</time></trkpt><trkpt lat="46.16171182110044" lon="10.350302541514097"><ele>616.0</ele><time>2026-04-27T08:28:39.959Z</time></trkpt><trkpt lat="46.161890126555626" lon="10.350416503273959"><ele>616.0</ele><time>2026-04-27T08:28:40.959Z</time></trkpt><trkpt lat="46.162067677637054" lon="10.350506157783007"><ele>616.6666666666667</ele><time>2026-04-27T08:28:41.959Z</time></trkpt><trkpt lat="46.162267850342175" lon="10.350575394181275"><ele>617.3333333333334</ele><time>2026-04-27T08:28:42.959Z</time></trkpt><trkpt lat="46.16246206091523" lon="10.350611837840484"><ele>618.0</ele><time>2026-04-27T08:28:43.959Z</time></trkpt><trkpt lat="46.16267265935057" lon="10.350634714279218"><ele>618.0</ele><time>2026-04-27T08:28:44.959Z</time></trkpt><trkpt lat="46.16289381868822" lon="10.350626603637771"><ele>618.0</ele><time>2026-04-27T08:28:45.959Z</time></trkpt><trkpt lat="46.1631195308365" lon="10.350592885249625"><ele>618.0</ele><time>2026-04-27T08:28:46.959Z</time></trkpt><trkpt lat="46.16332953801385" lon="10.35052852709835"><ele>618.0</ele><time>2026-04-27T08:28:47.959Z</time></trkpt><trkpt lat="46.163532411225454" lon="10.350450870797227"><ele>618.0</ele><time>2026-04-27T08:28:48.959Z</time></trkpt><trkpt lat="46.163717154816325" lon="10.350385425708513"><ele>618.0</ele><time>2026-04-27T08:28:49.959Z</time></trkpt><trkpt lat="46.16388583096546" lon="10.350346460965588"><ele>618.5</ele><time>2026-04-27T08:28:50.959Z</time></trkpt><trkpt lat="46.164048382546426" lon="10.350317983336689"><ele>619.0</ele><time>2026-04-27T08:28:51.959Z</time></trkpt><trkpt lat="46.16419220232277" lon="10.350271158207336"><ele>619.5</ele><time>2026-04-27T08:28:52.959Z</time></trkpt><trkpt lat="46.16430889897463" lon="10.350253719618935"><ele>620.0</ele><time>2026-04-27T08:28:53.959Z</time></trkpt><trkpt lat="46.164426734854736" lon="10.350225729045587"><ele>620.0</ele><time>2026-04-27T08:28:54.959Z</time></trkpt><trkpt lat="46.164532649611914" lon="10.350213248646218"><ele>620.0</ele><time>2026-04-27T08:28:55.959Z</time></trkpt><trkpt lat="46.16463296979793" lon="10.350229743248649"><ele>620.0</ele><time>2026-04-27T08:28:56.959Z</time></trkpt><trkpt lat="46.16472763564367" lon="10.350269238146112"><ele>620.0</ele><time>2026-04-27T08:28:57.959Z</time></trkpt><trkpt lat="46.16480066215023" lon="10.350352661577176"><ele>620.0</ele><time>2026-04-27T08:28:58.959Z</time></trkpt><trkpt lat="46.16487161014678" lon="10.350462202195247"><ele>620.2</ele><time>2026-04-27T08:28:59.959Z</time></trkpt><trkpt lat="46.164940335347616" lon="10.35052738182042"><ele>620.4</ele><time>2026-04-27T08:29:00.959Z</time></trkpt><trkpt lat="46.16503102989426" lon="10.350518686506213"><ele>620.6</ele><time>2026-04-27T08:29:01.959Z</time></trkpt><trkpt lat="46.16511807019019" lon="10.350436594975246"><ele>620.8</ele><time>2026-04-27T08:29:02.959Z</time></trkpt><trkpt lat="46.16518996384706" lon="10.350295819651384"><ele>621.0</ele><time>2026-04-27T08:29:03.959Z</time></trkpt><trkpt lat="46.16528594367008" lon="10.350168244940766"><ele>621.0</ele><time>2026-04-27T08:29:04.959Z</time></trkpt><trkpt lat="46.16541059737806" lon="10.350060194645424"><ele>621.0</ele><time>2026-04-27T08:29:05.959Z</time></trkpt><trkpt lat="46.16555812164404" lon="10.349977302885982"><ele>621.0</ele><time>2026-04-27T08:29:06.959Z</time></trkpt><trkpt lat="46.165721317846035" lon="10.349903850829865"><ele>622.3333333333334</ele><time>2026-04-27T08:29:07.959Z</time></trkpt><trkpt lat="46.16589804760516" lon="10.349838668311223"><ele>623.6666666666667</ele><time>2026-04-27T08:29:08.959Z</time></trkpt><trkpt lat="46.16608020767169" lon="10.34979447465163"><ele>625.0</ele><time>2026-04-27T08:29:09.959Z</time></trkpt><trkpt lat="46.16627036338756" lon="10.349744099523855"><ele>624.0</ele><time>2026-04-27T08:29:10.959Z</time></trkpt><trkpt lat="46.1664687534312" lon="10.349688679617383"><ele>623.0</ele><time>2026-04-27T08:29:11.959Z</time></trkpt><trkpt lat="46.16667785382848" lon="10.349635302910999"><ele>622.0</ele><time>2026-04-27T08:29:12.959Z</time></trkpt><trkpt lat="46.16687171021288" lon="10.349579611471853"><ele>621.3333333333334</ele><time>2026-04-27T08:29:13.959Z</time></trkpt><trkpt lat="46.1670541425627" lon="10.34953277960865"><ele>620.6666666666666</ele><time>2026-04-27T08:29:14.959Z</time></trkpt><trkpt lat="46.16721298880745" lon="10.349491606650117"><ele>620.0</ele><time>2026-04-27T08:29:15.959Z</time></trkpt><trkpt lat="46.16736882580753" lon="10.349434153830224"><ele>621.3333333333333</ele><time>2026-04-27T08:29:16.959Z</time></trkpt><trkpt lat="46.167529742589544" lon="10.349345518404077"><ele>622.6666666666666</ele><time>2026-04-27T08:29:17.959Z</time></trkpt><trkpt lat="46.16768650389054" lon="10.349222361303593"><ele>624.0</ele><time>2026-04-27T08:29:18.959Z</time></trkpt><trkpt lat="46.16783303105007" lon="10.3490614494304"><ele>624.0</ele><time>2026-04-27T08:29:19.959Z</time></trkpt><trkpt lat="46.167972203067535" lon="10.348889718502878"><ele>624.0</ele><time>2026-04-27T08:29:20.959Z</time></trkpt><trkpt lat="46.1681007283291" lon="10.348693496686415"><ele>624.0</ele><time>2026-04-27T08:29:21.959Z</time></trkpt><trkpt lat="46.168203148750834" lon="10.348522779954946"><ele>624.6666666666666</ele><time>2026-04-27T08:29:22.959Z</time></trkpt><trkpt lat="46.16831788560814" lon="10.34834204654077"><ele>625.3333333333333</ele><time>2026-04-27T08:29:23.959Z</time></trkpt><trkpt lat="46.16843870195358" lon="10.34815345266294"><ele>626.0</ele><time>2026-04-27T08:29:24.959Z</time></trkpt><trkpt lat="46.16855621112693" lon="10.347965570157628"><ele>626.0</ele><time>2026-04-27T08:29:25.959Z</time></trkpt><trkpt lat="46.168665802330935" lon="10.347796077572234"><ele>626.0</ele><time>2026-04-27T08:29:26.959Z</time></trkpt><trkpt lat="46.16876945418236" lon="10.347628914319435"><ele>626.0</ele><time>2026-04-27T08:29:27.959Z</time></trkpt><trkpt lat="46.168868051160224" lon="10.347481795107294"><ele>626.0</ele><time>2026-04-27T08:29:28.959Z</time></trkpt><trkpt lat="46.16895678203354" lon="10.347349085958117"><ele>626.0</ele><time>2026-04-27T08:29:29.959Z</time></trkpt><trkpt lat="46.16902683890346" lon="10.34727679164143"><ele>626.0</ele><time>2026-04-27T08:29:30.959Z</time></trkpt><trkpt lat="46.16908197426687" lon="10.347204875282113"><ele>626.0</ele><time>2026-04-27T08:29:31.959Z</time></trkpt><trkpt lat="46.16913581943989" lon="10.347139020615526"><ele>626.0</ele><time>2026-04-27T08:29:33.959Z</time></trkpt><trkpt lat="46.16920748112945" lon="10.34712134380534"><ele>626.0</ele><time>2026-04-27T08:29:38.959Z</time></trkpt><trkpt lat="46.16932494626004" lon="10.347035211594957"><ele>626.4</ele><time>2026-04-27T08:29:40.959Z</time></trkpt><trkpt lat="46.16936128153635" lon="10.34692218699448"><ele>626.8</ele><time>2026-04-27T08:29:41.958Z</time></trkpt><trkpt lat="46.16938422474061" lon="10.346766757766497"><ele>627.1999999999999</ele><time>2026-04-27T08:29:42.958Z</time></trkpt><trkpt lat="46.1694356843046" lon="10.34662258835427"><ele>627.6</ele><time>2026-04-27T08:29:43.958Z</time></trkpt><trkpt lat="46.16951525625736" lon="10.34647413770574"><ele>628.0</ele><time>2026-04-27T08:29:44.958Z</time></trkpt><trkpt lat="46.16958686890397" lon="10.346362095226455"><ele>628.4</ele><time>2026-04-27T08:29:45.958Z</time></trkpt><trkpt lat="46.169650586415656" lon="10.346273332319614"><ele>628.8</ele><time>2026-04-27T08:29:46.958Z</time></trkpt><trkpt lat="46.16971307934398" lon="10.346170828650218"><ele>629.2</ele><time>2026-04-27T08:29:47.958Z</time></trkpt><trkpt lat="46.16978392991205" lon="10.346053701940939"><ele>629.6</ele><time>2026-04-27T08:29:48.958Z</time></trkpt><trkpt lat="46.16986133043665" lon="10.345926699142089"><ele>630.0</ele><time>2026-04-27T08:29:49.958Z</time></trkpt><trkpt lat="46.169937764306425" lon="10.345809696174546"><ele>630.5</ele><time>2026-04-27T08:29:50.958Z</time></trkpt><trkpt lat="46.17000437887222" lon="10.345688538112784"><ele>631.0</ele><time>2026-04-27T08:29:51.958Z</time></trkpt><trkpt lat="46.170075425741295" lon="10.345565089563436"><ele>631.5</ele><time>2026-04-27T08:29:52.958Z</time></trkpt><trkpt lat="46.1701489347531" lon="10.345441766926863"><ele>632.0</ele><time>2026-04-27T08:29:53.958Z</time></trkpt><trkpt lat="46.17023239052922" lon="10.345318357966402"><ele>632.25</ele><time>2026-04-27T08:29:54.958Z</time></trkpt><trkpt lat="46.17031436765158" lon="10.345181227694734"><ele>632.5</ele><time>2026-04-27T08:29:55.958Z</time></trkpt><trkpt lat="46.17039482130586" lon="10.345048241776736"><ele>632.75</ele><time>2026-04-27T08:29:56.958Z</time></trkpt><trkpt lat="46.170478516945806" lon="10.344916709008734"><ele>633.0</ele><time>2026-04-27T08:29:57.958Z</time></trkpt><trkpt lat="46.1705672497251" lon="10.344783113662295"><ele>633.25</ele><time>2026-04-27T08:29:58.958Z</time></trkpt><trkpt lat="46.170650696164046" lon="10.344654713232146"><ele>633.5</ele><time>2026-04-27T08:29:59.958Z</time></trkpt><trkpt lat="46.17072559206894" lon="10.344532317492208"><ele>633.75</ele><time>2026-04-27T08:30:00.958Z</time></trkpt><trkpt lat="46.17080704225315" lon="10.344399384200678"><ele>634.0</ele><time>2026-04-27T08:30:01.959Z</time></trkpt><trkpt lat="46.17088451494089" lon="10.344268258245828"><ele>634.0</ele><time>2026-04-27T08:30:02.959Z</time></trkpt><trkpt lat="46.17095821410013" lon="10.344148533283255"><ele>634.0</ele><time>2026-04-27T08:30:03.959Z</time></trkpt><trkpt lat="46.171039118837996" lon="10.344024319670805"><ele>634.0</ele><time>2026-04-27T08:30:04.958Z</time></trkpt><trkpt lat="46.17111862845145" lon="10.343902051590637"><ele>634.0</ele><time>2026-04-27T08:30:05.959Z</time></trkpt><trkpt lat="46.17120301875459" lon="10.34377487990171"><ele>634.5</ele><time>2026-04-27T08:30:06.959Z</time></trkpt><trkpt lat="46.17128836104567" lon="10.343656298868048"><ele>635.0</ele><time>2026-04-27T08:30:07.959Z</time></trkpt><trkpt lat="46.171373607065554" lon="10.34353517553641"><ele>635.5</ele><time>2026-04-27T08:30:08.959Z</time></trkpt><trkpt lat="46.17145173550655" lon="10.343424104507175"><ele>636.0</ele><time>2026-04-27T08:30:09.959Z</time></trkpt><trkpt lat="46.171541827586545" lon="10.343332500579422"><ele>636.5</ele><time>2026-04-27T08:30:10.958Z</time></trkpt><trkpt lat="46.171647064907944" lon="10.34326817142607"><ele>637.0</ele><time>2026-04-27T08:30:11.958Z</time></trkpt><trkpt lat="46.17173920698822" lon="10.343180904759418"><ele>637.5</ele><time>2026-04-27T08:30:12.958Z</time></trkpt><trkpt lat="46.171814470005714" lon="10.343068973323927"><ele>638.0</ele><time>2026-04-27T08:30:13.958Z</time></trkpt><trkpt lat="46.17186576316978" lon="10.34291280386027"><ele>638.5</ele><time>2026-04-27T08:30:14.958Z</time></trkpt><trkpt lat="46.17189915570841" lon="10.34273969951651"><ele>639.0</ele><time>2026-04-27T08:30:15.958Z</time></trkpt><trkpt lat="46.17195083820657" lon="10.342566588536355"><ele>639.5</ele><time>2026-04-27T08:30:16.958Z</time></trkpt><trkpt lat="46.17202849265145" lon="10.342401674848665"><ele>640.0</ele><time>2026-04-27T08:30:17.958Z</time></trkpt><trkpt lat="46.17211352587412" lon="10.342271366195632"><ele>640.0</ele><time>2026-04-27T08:30:18.958Z</time></trkpt><trkpt lat="46.17220062989512" lon="10.342161275193593"><ele>640.0</ele><time>2026-04-27T08:30:19.958Z</time></trkpt><trkpt lat="46.172290920389" lon="10.34202987500779"><ele>640.0</ele><time>2026-04-27T08:30:20.958Z</time></trkpt><trkpt lat="46.17238101450702" lon="10.341892227712346"><ele>640.0</ele><time>2026-04-27T08:30:21.958Z</time></trkpt><trkpt lat="46.172475185797765" lon="10.341750659571467"><ele>640.6</ele><time>2026-04-27T08:30:22.958Z</time></trkpt><trkpt lat="46.17255608981188" lon="10.341635271328574"><ele>641.2</ele><time>2026-04-27T08:30:23.958Z</time></trkpt><trkpt lat="46.172631773305284" lon="10.341528407194748"><ele>641.8</ele><time>2026-04-27T08:30:24.958Z</time></trkpt><trkpt lat="46.17270070076921" lon="10.341421529588349"><ele>642.4</ele><time>2026-04-27T08:30:25.958Z</time></trkpt><trkpt lat="46.17275648827298" lon="10.341327802795073"><ele>643.0</ele><time>2026-04-27T08:30:26.958Z</time></trkpt><trkpt lat="46.172809196957715" lon="10.341245925871545"><ele>643.1666666666667</ele><time>2026-04-27T08:30:27.958Z</time></trkpt><trkpt lat="46.17285441969161" lon="10.341175163911137"><ele>643.3333333333334</ele><time>2026-04-27T08:30:28.958Z</time></trkpt><trkpt lat="46.172919780002964" lon="10.34107400578671"><ele>643.5</ele><time>2026-04-27T08:30:30.958Z</time></trkpt><trkpt lat="46.17296561123366" lon="10.341005864975648"><ele>643.6666666666666</ele><time>2026-04-27T08:30:31.958Z</time></trkpt><trkpt lat="46.173030469589314" lon="10.34090634925643"><ele>643.8333333333333</ele><time>2026-04-27T08:30:32.958Z</time></trkpt><trkpt lat="46.173102857512134" lon="10.340785459338868"><ele>644.0</ele><time>2026-04-27T08:30:33.958Z</time></trkpt><trkpt lat="46.173188532782085" lon="10.34065960411809"><ele>644.75</ele><time>2026-04-27T08:30:34.958Z</time></trkpt><trkpt lat="46.17328047290776" lon="10.340512862539468"><ele>645.5</ele><time>2026-04-27T08:30:35.958Z</time></trkpt><trkpt lat="46.17337140335661" lon="10.34036566154359"><ele>646.25</ele><time>2026-04-27T08:30:36.958Z</time></trkpt><trkpt lat="46.17346737489119" lon="10.340209798342471"><ele>647.0</ele><time>2026-04-27T08:30:37.958Z</time></trkpt><trkpt lat="46.17357430082865" lon="10.340027831879656"><ele>647.0</ele><time>2026-04-27T08:30:38.958Z</time></trkpt><trkpt lat="46.17368794658832" lon="10.33983415317712"><ele>647.0</ele><time>2026-04-27T08:30:39.958Z</time></trkpt><trkpt lat="46.17380680884559" lon="10.339636711380873"><ele>647.0</ele><time>2026-04-27T08:30:40.958Z</time></trkpt><trkpt lat="46.17393245723344" lon="10.339444097430155"><ele>648.6666666666666</ele><time>2026-04-27T08:30:41.958Z</time></trkpt><trkpt lat="46.17406254790809" lon="10.339255517065151"><ele>650.3333333333334</ele><time>2026-04-27T08:30:42.958Z</time></trkpt><trkpt lat="46.174187260809425" lon="10.339065816767123"><ele>652.0</ele><time>2026-04-27T08:30:43.958Z</time></trkpt><trkpt lat="46.17430505904347" lon="10.338877864078338"><ele>652.3333333333334</ele><time>2026-04-27T08:30:44.958Z</time></trkpt><trkpt lat="46.174422548960756" lon="10.338681538077717"><ele>652.6666666666666</ele><time>2026-04-27T08:30:45.958Z</time></trkpt><trkpt lat="46.17453803049892" lon="10.33849828000591"><ele>653.0</ele><time>2026-04-27T08:30:46.958Z</time></trkpt><trkpt lat="46.174648028964874" lon="10.338320778820561"><ele>653.0</ele><time>2026-04-27T08:30:47.958Z</time></trkpt><trkpt lat="46.17475076521249" lon="10.338165056337074"><ele>653.0</ele><time>2026-04-27T08:30:48.958Z</time></trkpt><trkpt lat="46.17483972082972" lon="10.338018823704479"><ele>653.0</ele><time>2026-04-27T08:30:49.958Z</time></trkpt><trkpt lat="46.17493165426819" lon="10.337868534190296"><ele>653.0</ele><time>2026-04-27T08:30:50.958Z</time></trkpt><trkpt lat="46.17502370147618" lon="10.337721620744933"><ele>653.75</ele><time>2026-04-27T08:30:51.958Z</time></trkpt><trkpt lat="46.17512478309647" lon="10.337576585998114"><ele>654.5</ele><time>2026-04-27T08:30:52.958Z</time></trkpt><trkpt lat="46.17523358078753" lon="10.337430263963133"><ele>655.25</ele><time>2026-04-27T08:30:53.958Z</time></trkpt><trkpt lat="46.175347086515664" lon="10.337291393149808"><ele>656.0</ele><time>2026-04-27T08:30:54.958Z</time></trkpt><trkpt lat="46.17547579714176" lon="10.337175093325872"><ele>656.75</ele><time>2026-04-27T08:30:55.958Z</time></trkpt><trkpt lat="46.17559181026387" lon="10.337066832253445"><ele>657.5</ele><time>2026-04-27T08:30:56.958Z</time></trkpt><trkpt lat="46.175712126450755" lon="10.336954290058404"><ele>658.25</ele><time>2026-04-27T08:30:57.958Z</time></trkpt><trkpt lat="46.1758425270401" lon="10.336835122858824"><ele>659.0</ele><time>2026-04-27T08:30:58.958Z</time></trkpt><trkpt lat="46.175970239168905" lon="10.336734813048357"><ele>659.5</ele><time>2026-04-27T08:30:59.958Z</time></trkpt><trkpt lat="46.17608287553082" lon="10.33663563596524"><ele>660.0</ele><time>2026-04-27T08:31:00.958Z</time></trkpt><trkpt lat="46.17618576310511" lon="10.33654493297772"><ele>660.5</ele><time>2026-04-27T08:31:01.958Z</time></trkpt><trkpt lat="46.17627877981562" lon="10.336466778151348"><ele>661.0</ele><time>2026-04-27T08:31:02.958Z</time></trkpt><trkpt lat="46.17636748672012" lon="10.336388154029208"><ele>661.25</ele><time>2026-04-27T08:31:03.958Z</time></trkpt><trkpt lat="46.17645941478776" lon="10.336300675138787"><ele>661.5</ele><time>2026-04-27T08:31:04.958Z</time></trkpt><trkpt lat="46.176564425093865" lon="10.33620847191779"><ele>661.75</ele><time>2026-04-27T08:31:05.958Z</time></trkpt><trkpt lat="46.176667393851396" lon="10.336126143916113"><ele>662.0</ele><time>2026-04-27T08:31:06.958Z</time></trkpt><trkpt lat="46.17676414137109" lon="10.336021518358097"><ele>662.75</ele><time>2026-04-27T08:31:07.958Z</time></trkpt><trkpt lat="46.17685170856018" lon="10.335915534371214"><ele>663.5</ele><time>2026-04-27T08:31:08.958Z</time></trkpt><trkpt lat="46.17694406626957" lon="10.335830148641879"><ele>664.25</ele><time>2026-04-27T08:31:09.958Z</time></trkpt><trkpt lat="46.17703702685953" lon="10.33575122939914"><ele>665.0</ele><time>2026-04-27T08:31:10.958Z</time></trkpt><trkpt lat="46.1771448488365" lon="10.335670778364603"><ele>665.0</ele><time>2026-04-27T08:31:11.958Z</time></trkpt><trkpt lat="46.17726038624673" lon="10.335613631616443"><ele>665.0</ele><time>2026-04-27T08:31:12.958Z</time></trkpt><trkpt lat="46.17737072944018" lon="10.335561956039262"><ele>665.0</ele><time>2026-04-27T08:31:13.958Z</time></trkpt><trkpt lat="46.177488548707935" lon="10.3355368702055"><ele>665.0</ele><time>2026-04-27T08:31:14.958Z</time></trkpt><trkpt lat="46.1776115081806" lon="10.33553617983987"><ele>665.75</ele><time>2026-04-27T08:31:15.958Z</time></trkpt><trkpt lat="46.177733101055026" lon="10.335553542926244"><ele>666.5</ele><time>2026-04-27T08:31:16.958Z</time></trkpt><trkpt lat="46.17784245560708" lon="10.335572666634764"><ele>667.25</ele><time>2026-04-27T08:31:17.958Z</time></trkpt><trkpt lat="46.17795141255024" lon="10.335601030909464"><ele>668.0</ele><time>2026-04-27T08:31:18.958Z</time></trkpt><trkpt lat="46.178065071205445" lon="10.335628367932749"><ele>668.8</ele><time>2026-04-27T08:31:19.958Z</time></trkpt><trkpt lat="46.17817375863355" lon="10.335644639889038"><ele>669.5999999999999</ele><time>2026-04-27T08:31:20.958Z</time></trkpt><trkpt lat="46.1782706678051" lon="10.335633128904892"><ele>670.4000000000001</ele><time>2026-04-27T08:31:21.958Z</time></trkpt><trkpt lat="46.17835075271145" lon="10.335617542841145"><ele>671.2</ele><time>2026-04-27T08:31:22.958Z</time></trkpt><trkpt lat="46.178438807950286" lon="10.335574087804622"><ele>672.0</ele><time>2026-04-27T08:31:23.957Z</time></trkpt><trkpt lat="46.1785167095123" lon="10.335539282633219"><ele>672.0</ele><time>2026-04-27T08:31:24.957Z</time></trkpt><trkpt lat="46.17859250354572" lon="10.335490052176295"><ele>672.0</ele><time>2026-04-27T08:31:25.957Z</time></trkpt><trkpt lat="46.1786799229684" lon="10.335450368329825"><ele>672.0</ele><time>2026-04-27T08:31:26.957Z</time></trkpt><trkpt lat="46.178779887934844" lon="10.335401872698728"><ele>672.0</ele><time>2026-04-27T08:31:27.957Z</time></trkpt><trkpt lat="46.178871972084266" lon="10.335362737778862"><ele>672.0</ele><time>2026-04-27T08:31:28.957Z</time></trkpt><trkpt lat="46.17895139846607" lon="10.335310861135989"><ele>672.8</ele><time>2026-04-27T08:31:29.957Z</time></trkpt><trkpt lat="46.17903555767063" lon="10.335268595572542"><ele>673.6</ele><time>2026-04-27T08:31:30.957Z</time></trkpt><trkpt lat="46.17912199150749" lon="10.335222167315642"><ele>674.4</ele><time>2026-04-27T08:31:31.957Z</time></trkpt><trkpt lat="46.179209652709645" lon="10.335178611867025"><ele>675.1999999999999</ele><time>2026-04-27T08:31:32.957Z</time></trkpt><trkpt lat="46.179302233017395" lon="10.335134652018942"><ele>676.0</ele><time>2026-04-27T08:31:33.957Z</time></trkpt><trkpt lat="46.17940028849805" lon="10.335080551679232"><ele>676.0</ele><time>2026-04-27T08:31:34.957Z</time></trkpt><trkpt lat="46.17949700675627" lon="10.33503054287706"><ele>676.0</ele><time>2026-04-27T08:31:35.957Z</time></trkpt><trkpt lat="46.17959857424932" lon="10.335006202643767"><ele>676.0</ele><time>2026-04-27T08:31:36.957Z</time></trkpt><trkpt lat="46.179697818739854" lon="10.334962682711083"><ele>676.0</ele><time>2026-04-27T08:31:37.957Z</time></trkpt><trkpt lat="46.179794382660134" lon="10.33492920835923"><ele>676.0</ele><time>2026-04-27T08:31:38.957Z</time></trkpt><trkpt lat="46.179890502991206" lon="10.33488558302014"><ele>676.5999999999999</ele><time>2026-04-27T08:31:39.957Z</time></trkpt><trkpt lat="46.17998635950691" lon="10.334843470867568"><ele>677.2</ele><time>2026-04-27T08:31:40.957Z</time></trkpt><trkpt lat="46.18008062925913" lon="10.334796475463051"><ele>677.8</ele><time>2026-04-27T08:31:41.957Z</time></trkpt><trkpt lat="46.18018047446285" lon="10.334739616310811"><ele>678.4000000000001</ele><time>2026-04-27T08:31:42.957Z</time></trkpt><trkpt lat="46.18027750941362" lon="10.334689947170915"><ele>679.0</ele><time>2026-04-27T08:31:43.957Z</time></trkpt><trkpt lat="46.180379119354804" lon="10.334658913570735"><ele>679.0</ele><time>2026-04-27T08:31:44.957Z</time></trkpt><trkpt lat="46.18046950352408" lon="10.334618853617151"><ele>679.0</ele><time>2026-04-27T08:31:45.957Z</time></trkpt><trkpt lat="46.18055912655842" lon="10.33458370718887"><ele>679.0</ele><time>2026-04-27T08:31:46.957Z</time></trkpt><trkpt lat="46.18066265159553" lon="10.334572503277524"><ele>679.0</ele><time>2026-04-27T08:31:47.957Z</time></trkpt><trkpt lat="46.180763322580596" lon="10.334550649102264"><ele>679.0</ele><time>2026-04-27T08:31:48.957Z</time></trkpt><trkpt lat="46.18086601283706" lon="10.334519997194281"><ele>679.8000000000001</ele><time>2026-04-27T08:31:49.957Z</time></trkpt><trkpt lat="46.18097612132903" lon="10.334458488671158"><ele>680.6</ele><time>2026-04-27T08:31:50.957Z</time></trkpt><trkpt lat="46.18106968823311" lon="10.334385409788743"><ele>681.4</ele><time>2026-04-27T08:31:51.957Z</time></trkpt><trkpt lat="46.18115051111648" lon="10.33432189268878"><ele>682.2</ele><time>2026-04-27T08:31:52.957Z</time></trkpt><trkpt lat="46.18122233047609" lon="10.334266054220212"><ele>683.0</ele><time>2026-04-27T08:31:53.957Z</time></trkpt><trkpt lat="46.18128565730435" lon="10.334213650981754"><ele>683.0</ele><time>2026-04-27T08:31:54.957Z</time></trkpt><trkpt lat="46.18135510687743" lon="10.334142522426607"><ele>683.0</ele><time>2026-04-27T08:31:55.957Z</time></trkpt><trkpt lat="46.18142435469333" lon="10.334086647094363"><ele>683.0</ele><time>2026-04-27T08:31:56.957Z</time></trkpt><trkpt lat="46.18145061895378" lon="10.333932989540186"><ele>683.0</ele><time>2026-04-27T08:31:58.957Z</time></trkpt><trkpt lat="46.181475964906035" lon="10.333837173829131"><ele>683.0</ele><time>2026-04-27T08:32:00.957Z</time></trkpt><trkpt lat="46.1815297112359" lon="10.333761772575665"><ele>683.0</ele><time>2026-04-27T08:32:10.957Z</time></trkpt><trkpt lat="46.18157560548875" lon="10.333611186187225"><ele>683.1666666666666</ele><time>2026-04-27T08:32:13.957Z</time></trkpt><trkpt lat="46.18157366103636" lon="10.33351172893377"><ele>683.3333333333333</ele><time>2026-04-27T08:32:17.957Z</time></trkpt><trkpt lat="46.18151819830822" lon="10.33339823968398"><ele>683.5</ele><time>2026-04-27T08:32:19.957Z</time></trkpt><trkpt lat="46.181425950735814" lon="10.33336138791039"><ele>683.6666666666666</ele><time>2026-04-27T08:32:20.957Z</time></trkpt><trkpt lat="46.18135568026333" lon="10.333338614980637"><ele>683.8333333333334</ele><time>2026-04-27T08:32:21.957Z</time></trkpt><trkpt lat="46.18125713955132" lon="10.333271682272338"><ele>684.0</ele><time>2026-04-27T08:32:23.957Z</time></trkpt><trkpt lat="46.181191622271996" lon="10.333234250188896"><ele>683.9999999999999</ele><time>2026-04-27T08:32:25.957Z</time></trkpt><trkpt lat="46.1811305352634" lon="10.333192653517482"><ele>684.0</ele><time>2026-04-27T08:32:27.957Z</time></trkpt><trkpt lat="46.18106287626167" lon="10.333142971073913"><ele>684.0</ele><time>2026-04-27T08:32:30.956Z</time></trkpt><trkpt lat="46.18102318953865" lon="10.333066598953316"><ele>684.0</ele><time>2026-04-27T08:33:38.956Z</time></trkpt><trkpt lat="46.18108545395502" lon="10.33308851526006"><ele>684.0</ele><time>2026-04-27T08:45:58.925Z</time></trkpt><trkpt lat="46.181004008826484" lon="10.333165093929619"><ele>683.9999999999999</ele><time>2026-04-27T08:48:26.918Z</time></trkpt><trkpt lat="46.181042740513725" lon="10.333075445094707"><ele>684.0</ele><time>2026-04-27T08:49:14.915Z</time></trkpt><trkpt lat="46.18096344691642" lon="10.333172447520042"><ele>684.0</ele><time>2026-04-27T08:50:26.914Z</time></trkpt><trkpt lat="46.18088608389841" lon="10.333175175875045"><ele>684.0</ele><time>2026-04-27T08:50:28.914Z</time></trkpt><trkpt lat="46.180803714018715" lon="10.33311842052606"><ele>684.0</ele><time>2026-04-27T08:50:29.914Z</time></trkpt><trkpt lat="46.18073918700917" lon="10.333059430591467"><ele>684.0</ele><time>2026-04-27T08:50:30.914Z</time></trkpt><trkpt lat="46.180628401188685" lon="10.332953087736394"><ele>684.0</ele><time>2026-04-27T08:50:32.914Z</time></trkpt><trkpt lat="46.180550657903716" lon="10.332827038844036"><ele>684.0</ele><time>2026-04-27T08:50:34.914Z</time></trkpt><trkpt lat="46.180467622825184" lon="10.332704949165839"><ele>684.0</ele><time>2026-04-27T08:50:36.914Z</time></trkpt><trkpt lat="46.18042371074719" lon="10.332601756497846"><ele>684.0</ele><time>2026-04-27T08:50:37.914Z</time></trkpt><trkpt lat="46.18042769601328" lon="10.332474875658772"><ele>684.0</ele><time>2026-04-27T08:50:38.914Z</time></trkpt><trkpt lat="46.18040541524924" lon="10.332370726202502"><ele>684.0</ele><time>2026-04-27T08:50:39.914Z</time></trkpt><trkpt lat="46.180393855322755" lon="10.332262342927004"><ele>684.0</ele><time>2026-04-27T08:50:40.914Z</time></trkpt><trkpt lat="46.18038832261966" lon="10.33211787193697"><ele>684.0</ele><time>2026-04-27T08:50:41.914Z</time></trkpt><trkpt lat="46.180390353732996" lon="10.331946201063325"><ele>684.0</ele><time>2026-04-27T08:50:42.914Z</time></trkpt><trkpt lat="46.18038646014406" lon="10.331668817226031"><ele>684.0</ele><time>2026-04-27T08:50:43.914Z</time></trkpt><trkpt lat="46.18037206335631" lon="10.331457110215624"><ele>684.0</ele><time>2026-04-27T08:50:44.914Z</time></trkpt><trkpt lat="46.18035145465016" lon="10.331218788583191"><ele>684.0</ele><time>2026-04-27T08:50:45.914Z</time></trkpt><trkpt lat="46.18032496804801" lon="10.331020658810786"><ele>684.0</ele><time>2026-04-27T08:50:46.914Z</time></trkpt><trkpt lat="46.180308268607355" lon="10.330826916447098"><ele>684.0</ele><time>2026-04-27T08:50:47.914Z</time></trkpt><trkpt lat="46.180403297920606" lon="10.330719144098751"><ele>684.0</ele><time>2026-04-27T08:50:48.914Z</time></trkpt><trkpt lat="46.18040544539499" lon="10.330588943949342"><ele>684.0</ele><time>2026-04-27T08:50:49.914Z</time></trkpt><trkpt lat="46.180412365888756" lon="10.33044758116535"><ele>684.0</ele><time>2026-04-27T08:50:50.914Z</time></trkpt><trkpt lat="46.18038566354907" lon="10.330291045235917"><ele>684.0</ele><time>2026-04-27T08:50:51.914Z</time></trkpt><trkpt lat="46.18039387880491" lon="10.33017614213796"><ele>684.0</ele><time>2026-04-27T08:50:52.914Z</time></trkpt><trkpt lat="46.180398108696906" lon="10.330046946564236"><ele>684.25</ele><time>2026-04-27T08:50:53.914Z</time></trkpt><trkpt lat="46.18039758039084" lon="10.329932409613656"><ele>684.5</ele><time>2026-04-27T08:50:54.914Z</time></trkpt><trkpt lat="46.18035535383743" lon="10.329743113602198"><ele>684.75</ele><time>2026-04-27T08:50:55.914Z</time></trkpt><trkpt lat="46.180382709807006" lon="10.329531538599756"><ele>685.0</ele><time>2026-04-27T08:50:56.914Z</time></trkpt><trkpt lat="46.18038467243689" lon="10.32931164536048"><ele>685.75</ele><time>2026-04-27T08:50:57.914Z</time></trkpt><trkpt lat="46.1803823171531" lon="10.32909288094971"><ele>686.5</ele><time>2026-04-27T08:50:58.914Z</time></trkpt><trkpt lat="46.18039023843307" lon="10.328858065996886"><ele>687.25</ele><time>2026-04-27T08:50:59.914Z</time></trkpt><trkpt lat="46.18036756928754" lon="10.328675198226033"><ele>688.0</ele><time>2026-04-27T08:51:00.914Z</time></trkpt><trkpt lat="46.18034832076742" lon="10.328454820768858"><ele>688.25</ele><time>2026-04-27T08:51:01.91Z</time></trkpt><trkpt lat="46.180340726374105" lon="10.328224994073139"><ele>688.5</ele><time>2026-04-27T08:51:02.911Z</time></trkpt><trkpt lat="46.18031060360157" lon="10.32802634432999"><ele>688.75</ele><time>2026-04-27T08:51:03.911Z</time></trkpt><trkpt lat="46.180316595009735" lon="10.32787188341765"><ele>689.0</ele><time>2026-04-27T08:51:04.91Z</time></trkpt><trkpt lat="46.180325411729406" lon="10.327664433853597"><ele>688.0</ele><time>2026-04-27T08:51:05.911Z</time></trkpt><trkpt lat="46.18028866943449" lon="10.327455548316598"><ele>687.0</ele><time>2026-04-27T08:51:06.911Z</time></trkpt><trkpt lat="46.18024983798436" lon="10.327250654276556"><ele>686.0</ele><time>2026-04-27T08:51:07.911Z</time></trkpt><trkpt lat="46.18023211482085" lon="10.327047750388674"><ele>685.0</ele><time>2026-04-27T08:51:08.91Z</time></trkpt><trkpt lat="46.180217015013476" lon="10.32684947545497"><ele>684.75</ele><time>2026-04-27T08:51:09.91Z</time></trkpt><trkpt lat="46.180215172752995" lon="10.326652731707814"><ele>684.5</ele><time>2026-04-27T08:51:10.91Z</time></trkpt><trkpt lat="46.18021829444816" lon="10.326515700123021"><ele>684.25</ele><time>2026-04-27T08:51:11.91Z</time></trkpt><trkpt lat="46.18021738080429" lon="10.326327030022549"><ele>684.0</ele><time>2026-04-27T08:51:12.91Z</time></trkpt><trkpt lat="46.180224364532144" lon="10.326131276450834"><ele>684.0</ele><time>2026-04-27T08:51:13.911Z</time></trkpt><trkpt lat="46.180212054069855" lon="10.32592309515815"><ele>684.0</ele><time>2026-04-27T08:51:14.91Z</time></trkpt><trkpt lat="46.18020448708299" lon="10.325735647069287"><ele>684.0</ele><time>2026-04-27T08:51:15.91Z</time></trkpt><trkpt lat="46.18021294767091" lon="10.325560999342509"><ele>684.0</ele><time>2026-04-27T08:51:16.91Z</time></trkpt><trkpt lat="46.180204473093326" lon="10.325361754255272"><ele>684.25</ele><time>2026-04-27T08:51:17.91Z</time></trkpt><trkpt lat="46.18020971529299" lon="10.325169277956453"><ele>684.5</ele><time>2026-04-27T08:51:18.91Z</time></trkpt><trkpt lat="46.18019681963496" lon="10.324958394143794"><ele>684.75</ele><time>2026-04-27T08:51:19.91Z</time></trkpt><trkpt lat="46.18019739527802" lon="10.324736899705854"><ele>685.0</ele><time>2026-04-27T08:51:20.91Z</time></trkpt><trkpt lat="46.18016824922795" lon="10.324504066396496"><ele>685.0</ele><time>2026-04-27T08:51:21.91Z</time></trkpt><trkpt lat="46.18015741355551" lon="10.324280972456997"><ele>685.0</ele><time>2026-04-27T08:51:22.91Z</time></trkpt><trkpt lat="46.1801253988188" lon="10.32407538312053"><ele>685.0</ele><time>2026-04-27T08:51:23.91Z</time></trkpt><trkpt lat="46.18010196495446" lon="10.32382994046954"><ele>686.75</ele><time>2026-04-27T08:51:24.91Z</time></trkpt><trkpt lat="46.18007987996778" lon="10.323667514234744"><ele>688.5</ele><time>2026-04-27T08:51:25.91Z</time></trkpt><trkpt lat="46.18007685124707" lon="10.323506131179354"><ele>690.25</ele><time>2026-04-27T08:51:26.91Z</time></trkpt><trkpt lat="46.18002545355979" lon="10.32327508348373"><ele>692.0</ele><time>2026-04-27T08:51:27.91Z</time></trkpt><trkpt lat="46.179974233988595" lon="10.323092441794413"><ele>692.75</ele><time>2026-04-27T08:51:28.91Z</time></trkpt><trkpt lat="46.17994320471707" lon="10.322930135087729"><ele>693.5</ele><time>2026-04-27T08:51:29.91Z</time></trkpt><trkpt lat="46.17994697414895" lon="10.322745645665739"><ele>694.25</ele><time>2026-04-27T08:51:30.91Z</time></trkpt><trkpt lat="46.17997636330435" lon="10.3225119737877"><ele>695.0</ele><time>2026-04-27T08:51:31.91Z</time></trkpt><trkpt lat="46.18004820694021" lon="10.322323491304665"><ele>695.75</ele><time>2026-04-27T08:51:32.91Z</time></trkpt><trkpt lat="46.1800912664568" lon="10.322135843570152"><ele>696.5</ele><time>2026-04-27T08:51:33.91Z</time></trkpt><trkpt lat="46.18006285892782" lon="10.321935255763796"><ele>697.25</ele><time>2026-04-27T08:51:34.91Z</time></trkpt><trkpt lat="46.17999045321802" lon="10.321779087066647"><ele>698.0</ele><time>2026-04-27T08:51:35.91Z</time></trkpt><trkpt lat="46.17990967449687" lon="10.32159884515681"><ele>696.0</ele><time>2026-04-27T08:51:36.91Z</time></trkpt><trkpt lat="46.17982401034005" lon="10.321393203022826"><ele>694.0</ele><time>2026-04-27T08:51:37.91Z</time></trkpt><trkpt lat="46.17975493793396" lon="10.321193961336704"><ele>692.0</ele><time>2026-04-27T08:51:38.91Z</time></trkpt><trkpt lat="46.17967784109256" lon="10.320976533682913"><ele>692.0</ele><time>2026-04-27T08:51:39.91Z</time></trkpt><trkpt lat="46.179604501036174" lon="10.320783605850208"><ele>692.0</ele><time>2026-04-27T08:51:40.91Z</time></trkpt><trkpt lat="46.179524953990935" lon="10.320605947138029"><ele>692.0</ele><time>2026-04-27T08:51:41.91Z</time></trkpt><trkpt lat="46.17942295125547" lon="10.32043230831411"><ele>696.0</ele><time>2026-04-27T08:51:42.91Z</time></trkpt><trkpt lat="46.17932282530154" lon="10.320283665200032"><ele>700.0</ele><time>2026-04-27T08:51:43.91Z</time></trkpt><trkpt lat="46.1792162022884" lon="10.320155388158609"><ele>704.0</ele><time>2026-04-27T08:51:44.91Z</time></trkpt><trkpt lat="46.17912192810417" lon="10.320026922951264"><ele>708.0</ele><time>2026-04-27T08:51:45.91Z</time></trkpt><trkpt lat="46.17905379179078" lon="10.31992774815352"><ele>703.25</ele><time>2026-04-27T08:51:46.91Z</time></trkpt><trkpt lat="46.17895098615966" lon="10.319832949745592"><ele>698.5</ele><time>2026-04-27T08:51:47.91Z</time></trkpt><trkpt lat="46.17888502033772" lon="10.319739474898725"><ele>693.75</ele><time>2026-04-27T08:51:48.91Z</time></trkpt><trkpt lat="46.17881114819006" lon="10.319610872210696"><ele>689.0</ele><time>2026-04-27T08:51:49.91Z</time></trkpt><trkpt lat="46.17875469342179" lon="10.319458164864054"><ele>689.0</ele><time>2026-04-27T08:51:50.91Z</time></trkpt><trkpt lat="46.17869596611686" lon="10.319268618876057"><ele>689.0</ele><time>2026-04-27T08:51:51.91Z</time></trkpt><trkpt lat="46.17864202281547" lon="10.319066840018559"><ele>689.0</ele><time>2026-04-27T08:51:52.91Z</time></trkpt><trkpt lat="46.17859335674953" lon="10.318851727669076"><ele>692.6666666666666</ele><time>2026-04-27T08:51:53.91Z</time></trkpt><trkpt lat="46.178536451030205" lon="10.318628113917246"><ele>696.3333333333334</ele><time>2026-04-27T08:51:54.91Z</time></trkpt><trkpt lat="46.178488039596225" lon="10.318404892518222"><ele>700.0</ele><time>2026-04-27T08:51:55.91Z</time></trkpt><trkpt lat="46.17845206182312" lon="10.318220035069094"><ele>703.0</ele><time>2026-04-27T08:51:56.91Z</time></trkpt><trkpt lat="46.17841532324882" lon="10.318053157619095"><ele>706.0</ele><time>2026-04-27T08:51:57.91Z</time></trkpt><trkpt lat="46.17838825913299" lon="10.317884853263806"><ele>709.0</ele><time>2026-04-27T08:51:58.91Z</time></trkpt><trkpt lat="46.178376424182574" lon="10.317700138757003"><ele>712.0</ele><time>2026-04-27T08:51:59.91Z</time></trkpt><trkpt lat="46.178390648268646" lon="10.317498046737485"><ele>712.0</ele><time>2026-04-27T08:52:00.91Z</time></trkpt><trkpt lat="46.17840736629656" lon="10.317303172321864"><ele>712.0</ele><time>2026-04-27T08:52:01.91Z</time></trkpt><trkpt lat="46.17840733738568" lon="10.317107238543327"><ele>712.0</ele><time>2026-04-27T08:52:02.909Z</time></trkpt><trkpt lat="46.17838517161305" lon="10.31691103947107"><ele>712.0</ele><time>2026-04-27T08:52:03.909Z</time></trkpt><trkpt lat="46.1783203526196" lon="10.316726812658072"><ele>707.3333333333334</ele><time>2026-04-27T08:52:04.909Z</time></trkpt><trkpt lat="46.17824315742213" lon="10.31655257929871"><ele>702.6666666666666</ele><time>2026-04-27T08:52:05.909Z</time></trkpt><trkpt lat="46.1781852070242" lon="10.316361429683507"><ele>698.0</ele><time>2026-04-27T08:52:06.909Z</time></trkpt><trkpt lat="46.17813824853447" lon="10.316134976503681"><ele>698.0</ele><time>2026-04-27T08:52:07.909Z</time></trkpt><trkpt lat="46.17808126779617" lon="10.315907907386794"><ele>698.0</ele><time>2026-04-27T08:52:08.909Z</time></trkpt><trkpt lat="46.17801581719654" lon="10.315681594456235"><ele>698.0</ele><time>2026-04-27T08:52:09.909Z</time></trkpt><trkpt lat="46.17795863546199" lon="10.31546561444948"><ele>704.6666666666666</ele><time>2026-04-27T08:52:10.909Z</time></trkpt><trkpt lat="46.177882544277125" lon="10.31526045867269"><ele>711.3333333333334</ele><time>2026-04-27T08:52:11.909Z</time></trkpt><trkpt lat="46.17784191708457" lon="10.315052554181118"><ele>718.0</ele><time>2026-04-27T08:52:12.909Z</time></trkpt><trkpt lat="46.177812543730944" lon="10.314835506699968"><ele>725.6666666666667</ele><time>2026-04-27T08:52:13.909Z</time></trkpt><trkpt lat="46.177801090228904" lon="10.31462068650206"><ele>733.3333333333334</ele><time>2026-04-27T08:52:14.909Z</time></trkpt><trkpt lat="46.177782061267514" lon="10.314407854661113"><ele>741.0</ele><time>2026-04-27T08:52:15.909Z</time></trkpt><trkpt lat="46.17774298509989" lon="10.314195985720795"><ele>741.0</ele><time>2026-04-27T08:52:16.909Z</time></trkpt><trkpt lat="46.177688867694144" lon="10.313991826558832"><ele>741.0</ele><time>2026-04-27T08:52:17.909Z</time></trkpt><trkpt lat="46.1776365473422" lon="10.313776839216775"><ele>741.0</ele><time>2026-04-27T08:52:18.909Z</time></trkpt><trkpt lat="46.177580005996276" lon="10.313557468030776"><ele>744.3333333333334</ele><time>2026-04-27T08:52:19.909Z</time></trkpt><trkpt lat="46.17754307975911" lon="10.31333794342984"><ele>747.6666666666667</ele><time>2026-04-27T08:52:20.909Z</time></trkpt><trkpt lat="46.177516840209265" lon="10.313113371687024"><ele>751.0</ele><time>2026-04-27T08:52:21.909Z</time></trkpt><trkpt lat="46.177479079799035" lon="10.312901953918706"><ele>751.4</ele><time>2026-04-27T08:52:22.909Z</time></trkpt><trkpt lat="46.177453679899095" lon="10.312719434972495"><ele>751.8</ele><time>2026-04-27T08:52:23.909Z</time></trkpt><trkpt lat="46.177431852911596" lon="10.312574571559317"><ele>752.1999999999999</ele><time>2026-04-27T08:52:24.909Z</time></trkpt><trkpt lat="46.177407059661675" lon="10.31243142988086"><ele>752.5999999999999</ele><time>2026-04-27T08:52:25.909Z</time></trkpt><trkpt lat="46.17735863423221" lon="10.312297810229037"><ele>753.0</ele><time>2026-04-27T08:52:26.909Z</time></trkpt><trkpt lat="46.177259771386375" lon="10.312180005288393"><ele>753.0</ele><time>2026-04-27T08:52:27.909Z</time></trkpt><trkpt lat="46.17714366829932" lon="10.31208821539112"><ele>753.0</ele><time>2026-04-27T08:52:28.909Z</time></trkpt><trkpt lat="46.17701264016664" lon="10.312014227463376"><ele>753.0</ele><time>2026-04-27T08:52:29.909Z</time></trkpt><trkpt lat="46.176901529455165" lon="10.311935131107319"><ele>753.0</ele><time>2026-04-27T08:52:30.909Z</time></trkpt><trkpt lat="46.17679344391474" lon="10.311849643428094"><ele>753.0</ele><time>2026-04-27T08:52:31.909Z</time></trkpt><trkpt lat="46.17668079819611" lon="10.31174844729472"><ele>753.0</ele><time>2026-04-27T08:52:32.909Z</time></trkpt><trkpt lat="46.17657301343541" lon="10.311628144259165"><ele>753.0</ele><time>2026-04-27T08:52:33.909Z</time></trkpt><trkpt lat="46.17645500846611" lon="10.311489667998043"><ele>753.0</ele><time>2026-04-27T08:52:34.909Z</time></trkpt><trkpt lat="46.17633332407592" lon="10.311353944482976"><ele>755.0</ele><time>2026-04-27T08:52:35.909Z</time></trkpt><trkpt lat="46.17620481023985" lon="10.311211104402123"><ele>757.0</ele><time>2026-04-27T08:52:36.909Z</time></trkpt><trkpt lat="46.17608564556376" lon="10.311058942184278"><ele>759.0</ele><time>2026-04-27T08:52:37.909Z</time></trkpt><trkpt lat="46.17595529346111" lon="10.310914204729928"><ele>759.0</ele><time>2026-04-27T08:52:38.909Z</time></trkpt><trkpt lat="46.175830381803564" lon="10.310770186344682"><ele>759.0</ele><time>2026-04-27T08:52:39.909Z</time></trkpt><trkpt lat="46.175723380609234" lon="10.310643641088232"><ele>759.0</ele><time>2026-04-27T08:52:40.909Z</time></trkpt><trkpt lat="46.175628045919645" lon="10.310498379798313"><ele>759.0</ele><time>2026-04-27T08:52:41.909Z</time></trkpt><trkpt lat="46.175545185620365" lon="10.310330044658688"><ele>754.3333333333334</ele><time>2026-04-27T08:52:42.909Z</time></trkpt><trkpt lat="46.1754774557461" lon="10.310133529514903"><ele>749.6666666666667</ele><time>2026-04-27T08:52:43.909Z</time></trkpt><trkpt lat="46.17543092855712" lon="10.309919845212075"><ele>745.0</ele><time>2026-04-27T08:52:44.909Z</time></trkpt><trkpt lat="46.17540427075066" lon="10.309703302873032"><ele>745.0</ele><time>2026-04-27T08:52:45.909Z</time></trkpt><trkpt lat="46.17539715478479" lon="10.30946950513049"><ele>745.0</ele><time>2026-04-27T08:52:46.909Z</time></trkpt><trkpt lat="46.17542301944901" lon="10.309222952691634"><ele>745.0</ele><time>2026-04-27T08:52:47.909Z</time></trkpt><trkpt lat="46.17545294372394" lon="10.308958154641461"><ele>746.3333333333334</ele><time>2026-04-27T08:52:48.909Z</time></trkpt><trkpt lat="46.175461748569724" lon="10.308691785482129"><ele>747.6666666666666</ele><time>2026-04-27T08:52:49.909Z</time></trkpt><trkpt lat="46.175467471130965" lon="10.308420543366163"><ele>749.0</ele><time>2026-04-27T08:52:50.909Z</time></trkpt><trkpt lat="46.17544897798076" lon="10.308151640718089"><ele>751.6666666666666</ele><time>2026-04-27T08:52:51.909Z</time></trkpt><trkpt lat="46.17540370497334" lon="10.307889668827379"><ele>754.3333333333334</ele><time>2026-04-27T08:52:52.909Z</time></trkpt><trkpt lat="46.17537161641823" lon="10.307654003270407"><ele>757.0</ele><time>2026-04-27T08:52:53.909Z</time></trkpt><trkpt lat="46.175325723898304" lon="10.307407008627612"><ele>761.3333333333334</ele><time>2026-04-27T08:52:54.909Z</time></trkpt><trkpt lat="46.175271647677135" lon="10.307169586384584"><ele>765.6666666666667</ele><time>2026-04-27T08:52:55.909Z</time></trkpt><trkpt lat="46.17523022896414" lon="10.306932149908988"><ele>770.0</ele><time>2026-04-27T08:52:56.909Z</time></trkpt><trkpt lat="46.17518333231849" lon="10.30669731601222"><ele>770.0</ele><time>2026-04-27T08:52:57.909Z</time></trkpt><trkpt lat="46.17514232618786" lon="10.306479323792667"><ele>770.0</ele><time>2026-04-27T08:52:58.908Z</time></trkpt><trkpt lat="46.17510369305567" lon="10.306269165738977"><ele>770.0</ele><time>2026-04-27T08:52:59.908Z</time></trkpt><trkpt lat="46.17509606712488" lon="10.306055749994762"><ele>772.0</ele><time>2026-04-27T08:53:00.908Z</time></trkpt><trkpt lat="46.17509739303017" lon="10.305830704019103"><ele>774.0</ele><time>2026-04-27T08:53:01.908Z</time></trkpt><trkpt lat="46.17511070786258" lon="10.305583201520673"><ele>776.0</ele><time>2026-04-27T08:53:02.908Z</time></trkpt><trkpt lat="46.1751387926919" lon="10.305334989293035"><ele>776.0</ele><time>2026-04-27T08:53:03.908Z</time></trkpt><trkpt lat="46.175163607687246" lon="10.305083366512212"><ele>776.0</ele><time>2026-04-27T08:53:04.908Z</time></trkpt><trkpt lat="46.175169062828964" lon="10.304826329433897"><ele>776.0</ele><time>2026-04-27T08:53:05.908Z</time></trkpt><trkpt lat="46.175152434604975" lon="10.304568392464484"><ele>779.3333333333334</ele><time>2026-04-27T08:53:06.908Z</time></trkpt><trkpt lat="46.175121456705135" lon="10.304288230947973"><ele>782.6666666666667</ele><time>2026-04-27T08:53:07.907Z</time></trkpt><trkpt lat="46.17507766555306" lon="10.30401245036084"><ele>786.0</ele><time>2026-04-27T08:53:08.906Z</time></trkpt><trkpt lat="46.17502643926587" lon="10.303734996517994"><ele>791.3333333333333</ele><time>2026-04-27T08:53:09.906Z</time></trkpt><trkpt lat="46.174997331299444" lon="10.303495584659009"><ele>796.6666666666666</ele><time>2026-04-27T08:53:10.907Z</time></trkpt><trkpt lat="46.174959608074495" lon="10.30325917891292"><ele>802.0</ele><time>2026-04-27T08:53:11.906Z</time></trkpt><trkpt lat="46.174912117148985" lon="10.30304550074346"><ele>806.75</ele><time>2026-04-27T08:53:12.906Z</time></trkpt><trkpt lat="46.17488084863303" lon="10.302859307663617"><ele>811.5</ele><time>2026-04-27T08:53:13.907Z</time></trkpt><trkpt lat="46.1748477407651" lon="10.302687332530812"><ele>816.25</ele><time>2026-04-27T08:53:14.906Z</time></trkpt><trkpt lat="46.1747950397787" lon="10.302499763559513"><ele>821.0</ele><time>2026-04-27T08:53:15.906Z</time></trkpt><trkpt lat="46.17472198880887" lon="10.302322696261022"><ele>810.25</ele><time>2026-04-27T08:53:16.907Z</time></trkpt><trkpt lat="46.17462249087943" lon="10.302169461541036"><ele>799.5</ele><time>2026-04-27T08:53:17.907Z</time></trkpt><trkpt lat="46.174515045570935" lon="10.302030414439136"><ele>788.75</ele><time>2026-04-27T08:53:18.907Z</time></trkpt><trkpt lat="46.1744325971578" lon="10.301903774419536"><ele>778.0</ele><time>2026-04-27T08:53:19.906Z</time></trkpt><trkpt lat="46.17436252724405" lon="10.301740023070222"><ele>778.0</ele><time>2026-04-27T08:53:20.907Z</time></trkpt><trkpt lat="46.17429855514951" lon="10.301563596855178"><ele>778.0</ele><time>2026-04-27T08:53:21.907Z</time></trkpt><trkpt lat="46.17427947260151" lon="10.30134959501085"><ele>778.0</ele><time>2026-04-27T08:53:22.907Z</time></trkpt><trkpt lat="46.17425321530002" lon="10.301113829757366"><ele>782.0</ele><time>2026-04-27T08:53:23.907Z</time></trkpt><trkpt lat="46.17423270399091" lon="10.300864622404683"><ele>786.0</ele><time>2026-04-27T08:53:24.907Z</time></trkpt><trkpt lat="46.17422985442606" lon="10.300643298535595"><ele>790.0</ele><time>2026-04-27T08:53:25.907Z</time></trkpt><trkpt lat="46.17421664461995" lon="10.300449013942398"><ele>794.0</ele><time>2026-04-27T08:53:26.907Z</time></trkpt><trkpt lat="46.17416769289748" lon="10.300248599230782"><ele>798.0</ele><time>2026-04-27T08:53:27.907Z</time></trkpt><trkpt lat="46.17409620414402" lon="10.300074163759485"><ele>802.0</ele><time>2026-04-27T08:53:28.907Z</time></trkpt><trkpt lat="46.17400012462991" lon="10.29991762275642"><ele>806.0</ele><time>2026-04-27T08:53:29.907Z</time></trkpt><trkpt lat="46.17388103657485" lon="10.299776628554772"><ele>798.3333333333334</ele><time>2026-04-27T08:53:30.907Z</time></trkpt><trkpt lat="46.173747312695106" lon="10.29965030135598"><ele>790.6666666666667</ele><time>2026-04-27T08:53:31.907Z</time></trkpt><trkpt lat="46.173605565876095" lon="10.29950823775219"><ele>783.0</ele><time>2026-04-27T08:53:32.907Z</time></trkpt><trkpt lat="46.17348103525259" lon="10.29940363459535"><ele>783.0</ele><time>2026-04-27T08:53:33.907Z</time></trkpt><trkpt lat="46.17336946384708" lon="10.299297635436119"><ele>783.0</ele><time>2026-04-27T08:53:34.907Z</time></trkpt><trkpt lat="46.17328655218744" lon="10.299175931762894"><ele>783.0</ele><time>2026-04-27T08:53:35.906Z</time></trkpt><trkpt lat="46.17321794194213" lon="10.29900439293941"><ele>783.0</ele><time>2026-04-27T08:53:36.906Z</time></trkpt><trkpt lat="46.17317517188888" lon="10.298784552453245"><ele>766.3333333333334</ele><time>2026-04-27T08:53:37.906Z</time></trkpt><trkpt lat="46.173126075308765" lon="10.298547607000447"><ele>749.6666666666667</ele><time>2026-04-27T08:53:38.906Z</time></trkpt><trkpt lat="46.17310295753219" lon="10.298333142421006"><ele>733.0</ele><time>2026-04-27T08:53:39.906Z</time></trkpt><trkpt lat="46.17307846429251" lon="10.298139594517256"><ele>734.0</ele><time>2026-04-27T08:53:40.906Z</time></trkpt><trkpt lat="46.17306746908061" lon="10.297935619198864"><ele>735.0</ele><time>2026-04-27T08:53:41.906Z</time></trkpt><trkpt lat="46.173069592388664" lon="10.29772030293783"><ele>736.0</ele><time>2026-04-27T08:53:42.906Z</time></trkpt><trkpt lat="46.173092406631035" lon="10.297485536001291"><ele>736.0</ele><time>2026-04-27T08:53:43.906Z</time></trkpt><trkpt lat="46.17312547998957" lon="10.297259094919147"><ele>736.0</ele><time>2026-04-27T08:53:44.906Z</time></trkpt><trkpt lat="46.17316480479097" lon="10.297048339500607"><ele>736.0</ele><time>2026-04-27T08:53:45.906Z</time></trkpt><trkpt lat="46.173233176123745" lon="10.296875499869142"><ele>736.0</ele><time>2026-04-27T08:53:46.906Z</time></trkpt><trkpt lat="46.17331666833746" lon="10.296700254179681"><ele>749.0</ele><time>2026-04-27T08:53:47.906Z</time></trkpt><trkpt lat="46.17340814527595" lon="10.296485574855081"><ele>762.0</ele><time>2026-04-27T08:53:48.906Z</time></trkpt><trkpt lat="46.173511187812146" lon="10.296248935637259"><ele>775.0</ele><time>2026-04-27T08:53:49.906Z</time></trkpt><trkpt lat="46.17361926858004" lon="10.29600238417807"><ele>775.0</ele><time>2026-04-27T08:53:50.906Z</time></trkpt><trkpt lat="46.17372646081709" lon="10.295736106641902"><ele>775.0</ele><time>2026-04-27T08:53:51.906Z</time></trkpt><trkpt lat="46.17383306421831" lon="10.295484673436773"><ele>775.0</ele><time>2026-04-27T08:53:52.906Z</time></trkpt><trkpt lat="46.17392488768791" lon="10.295272029248236"><ele>768.0</ele><time>2026-04-27T08:53:53.906Z</time></trkpt><trkpt lat="46.17401367778137" lon="10.295080033429647"><ele>761.0</ele><time>2026-04-27T08:53:54.906Z</time></trkpt><trkpt lat="46.17409454225901" lon="10.294875311352982"><ele>754.0</ele><time>2026-04-27T08:53:55.906Z</time></trkpt><trkpt lat="46.17416687331842" lon="10.294668545506699"><ele>768.6666666666667</ele><time>2026-04-27T08:53:56.906Z</time></trkpt><trkpt lat="46.17423507039728" lon="10.294454517359428"><ele>783.3333333333334</ele><time>2026-04-27T08:53:57.906Z</time></trkpt><trkpt lat="46.17428362558765" lon="10.294220258272679"><ele>798.0</ele><time>2026-04-27T08:53:58.906Z</time></trkpt><trkpt lat="46.17434009628907" lon="10.293966710664556"><ele>796.3333333333333</ele><time>2026-04-27T08:53:59.906Z</time></trkpt><trkpt lat="46.17438094071358" lon="10.293708089683776"><ele>794.6666666666666</ele><time>2026-04-27T08:54:00.906Z</time></trkpt><trkpt lat="46.17443676655688" lon="10.293456469501923"><ele>793.0</ele><time>2026-04-27T08:54:01.906Z</time></trkpt><trkpt lat="46.17448343865589" lon="10.293192421512225"><ele>797.6666666666666</ele><time>2026-04-27T08:54:02.906Z</time></trkpt><trkpt lat="46.17451030956856" lon="10.292911835434339"><ele>802.3333333333333</ele><time>2026-04-27T08:54:03.906Z</time></trkpt><trkpt lat="46.17453063836187" lon="10.292645540384221"><ele>807.0</ele><time>2026-04-27T08:54:04.906Z</time></trkpt><trkpt lat="46.174540554037655" lon="10.2923611737215"><ele>820.0</ele><time>2026-04-27T08:54:05.906Z</time></trkpt><trkpt lat="46.17455645009716" lon="10.292103003606472"><ele>833.0</ele><time>2026-04-27T08:54:06.906Z</time></trkpt><trkpt lat="46.174584036168476" lon="10.291859921059222"><ele>846.0</ele><time>2026-04-27T08:54:07.906Z</time></trkpt><trkpt lat="46.174609829068956" lon="10.291641779551888"><ele>852.6666666666667</ele><time>2026-04-27T08:54:08.906Z</time></trkpt><trkpt lat="46.17462518505481" lon="10.291379663683797"><ele>859.3333333333334</ele><time>2026-04-27T08:54:09.906Z</time></trkpt><trkpt lat="46.17464269541184" lon="10.291106989340175"><ele>866.0</ele><time>2026-04-27T08:54:10.906Z</time></trkpt><trkpt lat="46.17466255601979" lon="10.290833725208909"><ele>866.0</ele><time>2026-04-27T08:54:11.906Z</time></trkpt><trkpt lat="46.17468286636379" lon="10.29055908601942"><ele>866.0</ele><time>2026-04-27T08:54:12.906Z</time></trkpt><trkpt lat="46.17470448561794" lon="10.290244806465553"><ele>866.0</ele><time>2026-04-27T08:54:14.048Z</time></trkpt><trkpt lat="46.17490820275985" lon="10.287444142403208"><ele>841.0</ele><time>2026-04-27T08:54:25.456Z</time></trkpt><trkpt lat="46.17485636360039" lon="10.285758448796404"><ele>834.6666666666666</ele><time>2026-04-27T08:54:30.906Z</time></trkpt><trkpt lat="46.17468166004467" lon="10.28548401433932"><ele>828.3333333333333</ele><time>2026-04-27T08:54:31.905Z</time></trkpt><trkpt lat="46.17462797025521" lon="10.285324946841557"><ele>822.0</ele><time>2026-04-27T08:54:32.905Z</time></trkpt><trkpt lat="46.1745638970452" lon="10.285129468092947"><ele>822.0</ele><time>2026-04-27T08:54:33.905Z</time></trkpt><trkpt lat="46.17454498631925" lon="10.284927969880787"><ele>822.0</ele><time>2026-04-27T08:54:34.905Z</time></trkpt><trkpt lat="46.17456869096045" lon="10.284732371300189"><ele>822.0</ele><time>2026-04-27T08:54:35.905Z</time></trkpt><trkpt lat="46.17462463756675" lon="10.284546841610402"><ele>822.0</ele><time>2026-04-27T08:54:36.905Z</time></trkpt><trkpt lat="46.174680172614885" lon="10.284350995412835"><ele>823.3333333333333</ele><time>2026-04-27T08:54:37.905Z</time></trkpt><trkpt lat="46.174759264909106" lon="10.284167782754784"><ele>824.6666666666666</ele><time>2026-04-27T08:54:38.905Z</time></trkpt><trkpt lat="46.17484804217297" lon="10.283972818479516"><ele>826.0</ele><time>2026-04-27T08:54:39.905Z</time></trkpt><trkpt lat="46.174927994343825" lon="10.283801353877047"><ele>831.1999999999999</ele><time>2026-04-27T08:54:40.905Z</time></trkpt><trkpt lat="46.1749881743273" lon="10.283656693895312"><ele>836.4</ele><time>2026-04-27T08:54:41.905Z</time></trkpt><trkpt lat="46.17501086021493" lon="10.283513385240047"><ele>841.6</ele><time>2026-04-27T08:54:42.905Z</time></trkpt><trkpt lat="46.17499930182392" lon="10.283404484000368"><ele>846.8</ele><time>2026-04-27T08:54:43.905Z</time></trkpt><trkpt lat="46.17495963028512" lon="10.283283700800173"><ele>852.0</ele><time>2026-04-27T08:54:44.905Z</time></trkpt><trkpt lat="46.17490820737293" lon="10.283206796419735"><ele>849.5</ele><time>2026-04-27T08:54:45.905Z</time></trkpt><trkpt lat="46.17483975249497" lon="10.283117432298802"><ele>847.0</ele><time>2026-04-27T08:54:46.905Z</time></trkpt><trkpt lat="46.17473898892483" lon="10.283044135111835"><ele>844.5</ele><time>2026-04-27T08:54:47.905Z</time></trkpt><trkpt lat="46.17462016195555" lon="10.282963199609862"><ele>842.0</ele><time>2026-04-27T08:54:48.905Z</time></trkpt><trkpt lat="46.1745010825196" lon="10.28287156150825"><ele>842.0</ele><time>2026-04-27T08:54:49.905Z</time></trkpt><trkpt lat="46.17438243260857" lon="10.282752995643534"><ele>842.0</ele><time>2026-04-27T08:54:50.905Z</time></trkpt><trkpt lat="46.174292883622776" lon="10.282627721514146"><ele>842.0</ele><time>2026-04-27T08:54:51.905Z</time></trkpt><trkpt lat="46.174213764905566" lon="10.282462001089492"><ele>842.0</ele><time>2026-04-27T08:54:52.905Z</time></trkpt><trkpt lat="46.17412536794916" lon="10.282272569762771"><ele>835.3333333333334</ele><time>2026-04-27T08:54:53.905Z</time></trkpt><trkpt lat="46.174032707630424" lon="10.282070401995743"><ele>828.6666666666667</ele><time>2026-04-27T08:54:54.905Z</time></trkpt><trkpt lat="46.17393269618388" lon="10.281841067274938"><ele>822.0</ele><time>2026-04-27T08:54:55.905Z</time></trkpt><trkpt lat="46.17383341710443" lon="10.281608043209632"><ele>829.6666666666667</ele><time>2026-04-27T08:54:56.905Z</time></trkpt><trkpt lat="46.17373266887927" lon="10.28137926657953"><ele>837.3333333333334</ele><time>2026-04-27T08:54:57.905Z</time></trkpt><trkpt lat="46.1736330397391" lon="10.281150249121858"><ele>845.0</ele><time>2026-04-27T08:54:58.905Z</time></trkpt><trkpt lat="46.173530632067546" lon="10.280928025416703"><ele>845.0</ele><time>2026-04-27T08:54:59.905Z</time></trkpt><trkpt lat="46.173449821766006" lon="10.280729397888667"><ele>845.0</ele><time>2026-04-27T08:55:00.905Z</time></trkpt><trkpt lat="46.17337672276337" lon="10.280571685247033"><ele>845.0</ele><time>2026-04-27T08:55:01.905Z</time></trkpt><trkpt lat="46.173308042275146" lon="10.28039970689207"><ele>845.0</ele><time>2026-04-27T08:55:02.905Z</time></trkpt><trkpt lat="46.17326728113869" lon="10.28021932088195"><ele>850.6666666666667</ele><time>2026-04-27T08:55:03.905Z</time></trkpt><trkpt lat="46.17326275318933" lon="10.280018741385998"><ele>856.3333333333333</ele><time>2026-04-27T08:55:04.905Z</time></trkpt><trkpt lat="46.17326763111027" lon="10.279791728704817"><ele>862.0</ele><time>2026-04-27T08:55:05.905Z</time></trkpt><trkpt lat="46.17325943735292" lon="10.279553279066507"><ele>863.3333333333333</ele><time>2026-04-27T08:55:06.905Z</time></trkpt><trkpt lat="46.173256235976" lon="10.279303419343648"><ele>864.6666666666667</ele><time>2026-04-27T08:55:07.905Z</time></trkpt><trkpt lat="46.173262130039234" lon="10.279043196155428"><ele>866.0</ele><time>2026-04-27T08:55:08.905Z</time></trkpt><trkpt lat="46.17325508276351" lon="10.278780292975021"><ele>867.0</ele><time>2026-04-27T08:55:09.905Z</time></trkpt><trkpt lat="46.17325836462762" lon="10.278529058884837"><ele>868.0</ele><time>2026-04-27T08:55:10.905Z</time></trkpt><trkpt lat="46.173243657300766" lon="10.278263302852444"><ele>869.0</ele><time>2026-04-27T08:55:11.905Z</time></trkpt><trkpt lat="46.17323986673059" lon="10.278009411166506"><ele>869.6666666666667</ele><time>2026-04-27T08:55:12.905Z</time></trkpt><trkpt lat="46.17323271162042" lon="10.277752657881477"><ele>870.3333333333333</ele><time>2026-04-27T08:55:13.903Z</time></trkpt><trkpt lat="46.173232010533845" lon="10.277523595782391"><ele>871.0</ele><time>2026-04-27T08:55:14.903Z</time></trkpt><trkpt lat="46.17323894023339" lon="10.277290657571896"><ele>871.3333333333333</ele><time>2026-04-27T08:55:15.903Z</time></trkpt><trkpt lat="46.17324342320124" lon="10.27705617173549"><ele>871.6666666666667</ele><time>2026-04-27T08:55:16.903Z</time></trkpt><trkpt lat="46.17324590696058" lon="10.276829485458421"><ele>872.0</ele><time>2026-04-27T08:55:17.903Z</time></trkpt><trkpt lat="46.173276374656" lon="10.276607374674484"><ele>872.0</ele><time>2026-04-27T08:55:18.903Z</time></trkpt><trkpt lat="46.173314616210774" lon="10.276381406786369"><ele>872.0</ele><time>2026-04-27T08:55:19.903Z</time></trkpt><trkpt lat="46.173405699310045" lon="10.276206550327686"><ele>872.0</ele><time>2026-04-27T08:55:20.903Z</time></trkpt><trkpt lat="46.173492162089424" lon="10.276019515203178"><ele>872.0</ele><time>2026-04-27T08:55:21.903Z</time></trkpt><trkpt lat="46.17358159162119" lon="10.275822114582239"><ele>872.0</ele><time>2026-04-27T08:55:22.903Z</time></trkpt><trkpt lat="46.173675966108334" lon="10.275645335774408"><ele>872.0</ele><time>2026-04-27T08:55:23.903Z</time></trkpt><trkpt lat="46.17375242013937" lon="10.275494286129893"><ele>872.0</ele><time>2026-04-27T08:55:24.903Z</time></trkpt><trkpt lat="46.17382663969156" lon="10.275363068583438"><ele>871.5</ele><time>2026-04-27T08:55:25.903Z</time></trkpt><trkpt lat="46.17390808112745" lon="10.27524030059858"><ele>871.0</ele><time>2026-04-27T08:55:26.903Z</time></trkpt><trkpt lat="46.1739819018512" lon="10.275093764653025"><ele>870.5</ele><time>2026-04-27T08:55:27.903Z</time></trkpt><trkpt lat="46.1740505356492" lon="10.274930896963443"><ele>870.0</ele><time>2026-04-27T08:55:28.903Z</time></trkpt><trkpt lat="46.17412774441383" lon="10.274769621188906"><ele>872.0</ele><time>2026-04-27T08:55:29.903Z</time></trkpt><trkpt lat="46.17421236038617" lon="10.274634848696495"><ele>874.0</ele><time>2026-04-27T08:55:30.903Z</time></trkpt><trkpt lat="46.17429992893672" lon="10.274476208167508"><ele>876.0</ele><time>2026-04-27T08:55:31.903Z</time></trkpt><trkpt lat="46.174386158649995" lon="10.274308413244404"><ele>878.0</ele><time>2026-04-27T08:55:32.903Z</time></trkpt><trkpt lat="46.17446695650757" lon="10.27411962338184"><ele>874.75</ele><time>2026-04-27T08:55:33.902Z</time></trkpt><trkpt lat="46.174533397141595" lon="10.273926857115077"><ele>871.5</ele><time>2026-04-27T08:55:34.902Z</time></trkpt><trkpt lat="46.17459345180835" lon="10.27373691714516"><ele>868.25</ele><time>2026-04-27T08:55:35.902Z</time></trkpt><trkpt lat="46.174627195430475" lon="10.27355397368375"><ele>865.0</ele><time>2026-04-27T08:55:36.902Z</time></trkpt><trkpt lat="46.174653924856244" lon="10.273375623940822"><ele>865.0</ele><time>2026-04-27T08:55:37.902Z</time></trkpt><trkpt lat="46.174679360949874" lon="10.273197721628181"><ele>865.0</ele><time>2026-04-27T08:55:38.902Z</time></trkpt><trkpt lat="46.174703850480526" lon="10.273017053818746"><ele>865.0</ele><time>2026-04-27T08:55:39.902Z</time></trkpt><trkpt lat="46.174725230368" lon="10.272824858717785"><ele>865.0</ele><time>2026-04-27T08:55:40.902Z</time></trkpt><trkpt lat="46.174762453047876" lon="10.272644892018223"><ele>864.5</ele><time>2026-04-27T08:55:41.902Z</time></trkpt><trkpt lat="46.17478139771577" lon="10.272455264375786"><ele>864.0</ele><time>2026-04-27T08:55:42.902Z</time></trkpt><trkpt lat="46.1747837036925" lon="10.272254158629417"><ele>863.5</ele><time>2026-04-27T08:55:43.902Z</time></trkpt><trkpt lat="46.17476598940748" lon="10.272047399358177"><ele>863.0</ele><time>2026-04-27T08:55:44.902Z</time></trkpt><trkpt lat="46.17473044440242" lon="10.271834022575897"><ele>863.0</ele><time>2026-04-27T08:55:45.902Z</time></trkpt><trkpt lat="46.174699813892865" lon="10.271630448357367"><ele>863.0</ele><time>2026-04-27T08:55:46.902Z</time></trkpt><trkpt lat="46.174655617263916" lon="10.271461406810943"><ele>863.0</ele><time>2026-04-27T08:55:47.902Z</time></trkpt><trkpt lat="46.174610993302814" lon="10.271285546358532"><ele>863.0</ele><time>2026-04-27T08:55:48.902Z</time></trkpt><trkpt lat="46.17459381284795" lon="10.27111444919322"><ele>863.3333333333334</ele><time>2026-04-27T08:55:49.902Z</time></trkpt><trkpt lat="46.174578947780184" lon="10.270899164403714"><ele>863.6666666666667</ele><time>2026-04-27T08:55:50.902Z</time></trkpt><trkpt lat="46.174596442303454" lon="10.27067547390461"><ele>864.0</ele><time>2026-04-27T08:55:51.902Z</time></trkpt><trkpt lat="46.1746004956613" lon="10.270418482877202"><ele>866.0</ele><time>2026-04-27T08:55:52.902Z</time></trkpt><trkpt lat="46.17461197646276" lon="10.270158417616"><ele>868.0</ele><time>2026-04-27T08:55:53.902Z</time></trkpt><trkpt lat="46.174613459563524" lon="10.269907880746112"><ele>870.0</ele><time>2026-04-27T08:55:54.902Z</time></trkpt><trkpt lat="46.17459559036809" lon="10.26965867580773"><ele>870.75</ele><time>2026-04-27T08:55:55.902Z</time></trkpt><trkpt lat="46.174576924211195" lon="10.269445631028251"><ele>871.5</ele><time>2026-04-27T08:55:56.902Z</time></trkpt><trkpt lat="46.17455235497437" lon="10.269225651234429"><ele>872.25</ele><time>2026-04-27T08:55:57.902Z</time></trkpt><trkpt lat="46.17453291086192" lon="10.269020082733368"><ele>873.0</ele><time>2026-04-27T08:55:58.902Z</time></trkpt><trkpt lat="46.17451245665138" lon="10.268827706769176"><ele>875.75</ele><time>2026-04-27T08:55:59.902Z</time></trkpt><trkpt lat="46.17448258627936" lon="10.268620866563273"><ele>878.5</ele><time>2026-04-27T08:56:00.902Z</time></trkpt><trkpt lat="46.17446464434958" lon="10.268407772779952"><ele>881.25</ele><time>2026-04-27T08:56:01.902Z</time></trkpt><trkpt lat="46.174449954898456" lon="10.268203268627174"><ele>884.0</ele><time>2026-04-27T08:56:02.902Z</time></trkpt><trkpt lat="46.17443066936606" lon="10.267996876943304"><ele>886.25</ele><time>2026-04-27T08:56:03.902Z</time></trkpt><trkpt lat="46.17439346439916" lon="10.267791031499359"><ele>888.5</ele><time>2026-04-27T08:56:04.902Z</time></trkpt><trkpt lat="46.17432375558995" lon="10.267611839043337"><ele>890.75</ele><time>2026-04-27T08:56:05.902Z</time></trkpt><trkpt lat="46.174220922027935" lon="10.267446001008743"><ele>893.0</ele><time>2026-04-27T08:56:06.902Z</time></trkpt><trkpt lat="46.17412732773706" lon="10.267303793555932"><ele>897.25</ele><time>2026-04-27T08:56:07.902Z</time></trkpt><trkpt lat="46.17405341237557" lon="10.267164029576506"><ele>901.5</ele><time>2026-04-27T08:56:08.902Z</time></trkpt><trkpt lat="46.173993330359124" lon="10.26700458816363"><ele>905.75</ele><time>2026-04-27T08:56:09.902Z</time></trkpt><trkpt lat="46.17394759997004" lon="10.266807566071517"><ele>910.0</ele><time>2026-04-27T08:56:10.902Z</time></trkpt><trkpt lat="46.173902876829274" lon="10.266587723361631"><ele>903.75</ele><time>2026-04-27T08:56:11.902Z</time></trkpt><trkpt lat="46.1739060030826" lon="10.266390578756887"><ele>897.5</ele><time>2026-04-27T08:56:12.902Z</time></trkpt><trkpt lat="46.173868656526366" lon="10.266214095780192"><ele>891.25</ele><time>2026-04-27T08:56:13.902Z</time></trkpt><trkpt lat="46.173832263814575" lon="10.26603963215382"><ele>885.0</ele><time>2026-04-27T08:56:14.902Z</time></trkpt><trkpt lat="46.173739418960245" lon="10.2658829983156"><ele>885.0</ele><time>2026-04-27T08:56:15.902Z</time></trkpt><trkpt lat="46.173642596252506" lon="10.265745737549974"><ele>885.0</ele><time>2026-04-27T08:56:16.902Z</time></trkpt><trkpt lat="46.17355505717157" lon="10.265626725139336"><ele>885.0</ele><time>2026-04-27T08:56:17.902Z</time></trkpt><trkpt lat="46.17347316330907" lon="10.265499411691174"><ele>885.0</ele><time>2026-04-27T08:56:18.902Z</time></trkpt><trkpt lat="46.173399907095884" lon="10.265371393974725"><ele>886.5</ele><time>2026-04-27T08:56:19.902Z</time></trkpt><trkpt lat="46.17330635630177" lon="10.265241457784686"><ele>888.0</ele><time>2026-04-27T08:56:20.902Z</time></trkpt><trkpt lat="46.17323413469689" lon="10.265096256856326"><ele>889.5</ele><time>2026-04-27T08:56:21.902Z</time></trkpt><trkpt lat="46.17316371142131" lon="10.26491514515849"><ele>891.0</ele><time>2026-04-27T08:56:22.902Z</time></trkpt><trkpt lat="46.1731027347597" lon="10.264710831452904"><ele>891.0</ele><time>2026-04-27T08:56:23.902Z</time></trkpt><trkpt lat="46.173042546437394" lon="10.2645145729154"><ele>891.0</ele><time>2026-04-27T08:56:24.902Z</time></trkpt><trkpt lat="46.17296972088282" lon="10.2643330422187"><ele>891.0</ele><time>2026-04-27T08:56:25.902Z</time></trkpt><trkpt lat="46.17288084054475" lon="10.26415230582205"><ele>891.0</ele><time>2026-04-27T08:56:26.902Z</time></trkpt><trkpt lat="46.17277931342737" lon="10.26399624108821"><ele>896.5</ele><time>2026-04-27T08:56:27.902Z</time></trkpt><trkpt lat="46.172675558293314" lon="10.263856548294616"><ele>902.0</ele><time>2026-04-27T08:56:28.902Z</time></trkpt><trkpt lat="46.17258438148532" lon="10.263732945066897"><ele>907.5</ele><time>2026-04-27T08:56:29.901Z</time></trkpt><trkpt lat="46.17250325289539" lon="10.263605844297661"><ele>913.0</ele><time>2026-04-27T08:56:30.901Z</time></trkpt><trkpt lat="46.17240259650524" lon="10.263474847239891"><ele>908.5</ele><time>2026-04-27T08:56:31.901Z</time></trkpt><trkpt lat="46.17232254767467" lon="10.263347138310337"><ele>904.0</ele><time>2026-04-27T08:56:32.901Z</time></trkpt><trkpt lat="46.17223259046209" lon="10.263225953843135"><ele>899.5</ele><time>2026-04-27T08:56:33.901Z</time></trkpt><trkpt lat="46.172140843364026" lon="10.263098797380673"><ele>895.0</ele><time>2026-04-27T08:56:34.901Z</time></trkpt><trkpt lat="46.17206511661039" lon="10.262955535709013"><ele>895.0</ele><time>2026-04-27T08:56:35.901Z</time></trkpt><trkpt lat="46.171982248517686" lon="10.262794715278165"><ele>895.0</ele><time>2026-04-27T08:56:36.901Z</time></trkpt><trkpt lat="46.17191485974641" lon="10.262610103451514"><ele>895.0</ele><time>2026-04-27T08:56:37.901Z</time></trkpt><trkpt lat="46.171856888480036" lon="10.262397307437753"><ele>895.0</ele><time>2026-04-27T08:56:38.901Z</time></trkpt><trkpt lat="46.17182903132341" lon="10.26217407435963"><ele>896.25</ele><time>2026-04-27T08:56:39.901Z</time></trkpt><trkpt lat="46.171824123918185" lon="10.26194870479295"><ele>897.5</ele><time>2026-04-27T08:56:40.901Z</time></trkpt><trkpt lat="46.17183219955013" lon="10.26173299998725"><ele>898.75</ele><time>2026-04-27T08:56:41.901Z</time></trkpt><trkpt lat="46.17183829682021" lon="10.2615361094007"><ele>900.0</ele><time>2026-04-27T08:56:42.901Z</time></trkpt><trkpt lat="46.17184279292692" lon="10.261321951452961"><ele>900.3333333333333</ele><time>2026-04-27T08:56:43.901Z</time></trkpt><trkpt lat="46.17185120782388" lon="10.26110169762042"><ele>900.6666666666666</ele><time>2026-04-27T08:56:44.901Z</time></trkpt><trkpt lat="46.171850775141" lon="10.260863989107339"><ele>901.0</ele><time>2026-04-27T08:56:45.901Z</time></trkpt><trkpt lat="46.1718730584262" lon="10.260643773477213"><ele>902.6666666666666</ele><time>2026-04-27T08:56:46.901Z</time></trkpt><trkpt lat="46.1718746877279" lon="10.260406009022287"><ele>904.3333333333333</ele><time>2026-04-27T08:56:47.901Z</time></trkpt><trkpt lat="46.17185641979369" lon="10.260181435677053"><ele>906.0</ele><time>2026-04-27T08:56:48.901Z</time></trkpt><trkpt lat="46.17181437642953" lon="10.259963862302186"><ele>910.3333333333333</ele><time>2026-04-27T08:56:49.901Z</time></trkpt><trkpt lat="46.17174509540787" lon="10.259726346694576"><ele>914.6666666666666</ele><time>2026-04-27T08:56:50.901Z</time></trkpt><trkpt lat="46.17165975952263" lon="10.25945728313594"><ele>919.0</ele><time>2026-04-27T08:56:51.901Z</time></trkpt><trkpt lat="46.17154012493207" lon="10.259180028682723"><ele>909.0</ele><time>2026-04-27T08:56:52.901Z</time></trkpt><trkpt lat="46.17144044815202" lon="10.258904594626728"><ele>899.0</ele><time>2026-04-27T08:56:53.901Z</time></trkpt><trkpt lat="46.17136329316676" lon="10.2586328337728"><ele>889.0</ele><time>2026-04-27T08:56:54.901Z</time></trkpt><trkpt lat="46.171286624541764" lon="10.258353941355365"><ele>892.6666666666666</ele><time>2026-04-27T08:56:55.901Z</time></trkpt><trkpt lat="46.17118200786231" lon="10.258062542917557"><ele>896.3333333333333</ele><time>2026-04-27T08:56:56.901Z</time></trkpt><trkpt lat="46.171111672684994" lon="10.257760482792007"><ele>900.0</ele><time>2026-04-27T08:56:57.901Z</time></trkpt><trkpt lat="46.17102275929014" lon="10.25748705674672"><ele>905.0</ele><time>2026-04-27T08:56:58.901Z</time></trkpt><trkpt lat="46.170934013941505" lon="10.257196570346384"><ele>910.0</ele><time>2026-04-27T08:56:59.901Z</time></trkpt><trkpt lat="46.170857394591955" lon="10.256904043819647"><ele>915.0</ele><time>2026-04-27T08:57:00.901Z</time></trkpt><trkpt lat="46.17077945254436" lon="10.256604900581696"><ele>921.0</ele><time>2026-04-27T08:57:01.901Z</time></trkpt><trkpt lat="46.170713773695695" lon="10.256333616046721"><ele>927.0</ele><time>2026-04-27T08:57:02.901Z</time></trkpt><trkpt lat="46.17064849881943" lon="10.256073634609523"><ele>933.0</ele><time>2026-04-27T08:57:03.901Z</time></trkpt><trkpt lat="46.17058715945338" lon="10.255831502368546"><ele>915.3333333333333</ele><time>2026-04-27T08:57:04.901Z</time></trkpt><trkpt lat="46.17052758673971" lon="10.25558417158769"><ele>897.6666666666666</ele><time>2026-04-27T08:57:05.901Z</time></trkpt><trkpt lat="46.17049620995571" lon="10.25530818909238"><ele>880.0</ele><time>2026-04-27T08:57:06.901Z</time></trkpt><trkpt lat="46.17048008982839" lon="10.255033053483483"><ele>882.3333333333333</ele><time>2026-04-27T08:57:07.901Z</time></trkpt><trkpt lat="46.17046549263653" lon="10.254738640036582"><ele>884.6666666666667</ele><time>2026-04-27T08:57:08.901Z</time></trkpt><trkpt lat="46.170447355600096" lon="10.25443266934741"><ele>887.0</ele><time>2026-04-27T08:57:09.901Z</time></trkpt><trkpt lat="46.17043068530331" lon="10.254168164359609"><ele>884.6666666666667</ele><time>2026-04-27T08:57:10.901Z</time></trkpt><trkpt lat="46.17041532756772" lon="10.253928511711388"><ele>882.3333333333333</ele><time>2026-04-27T08:57:11.901Z</time></trkpt><trkpt lat="46.170414319682955" lon="10.253669971950432"><ele>880.0</ele><time>2026-04-27T08:57:12.901Z</time></trkpt><trkpt lat="46.17044103905744" lon="10.253405074249102"><ele>880.0</ele><time>2026-04-27T08:57:13.901Z</time></trkpt><trkpt lat="46.17047772173672" lon="10.253148223779814"><ele>880.0</ele><time>2026-04-27T08:57:14.901Z</time></trkpt><trkpt lat="46.17050610323952" lon="10.252911262368764"><ele>880.0</ele><time>2026-04-27T08:57:15.901Z</time></trkpt><trkpt lat="46.17051636526518" lon="10.252701326887154"><ele>881.5</ele><time>2026-04-27T08:57:16.901Z</time></trkpt><trkpt lat="46.17052931523265" lon="10.252505503932243"><ele>883.0</ele><time>2026-04-27T08:57:17.901Z</time></trkpt><trkpt lat="46.17050915043548" lon="10.252332598761242"><ele>884.5</ele><time>2026-04-27T08:57:18.901Z</time></trkpt><trkpt lat="46.17045391060252" lon="10.252194210615134"><ele>886.0</ele><time>2026-04-27T08:57:19.9Z</time></trkpt><trkpt lat="46.17034645257801" lon="10.252056780347653"><ele>894.6666666666666</ele><time>2026-04-27T08:57:20.9Z</time></trkpt><trkpt lat="46.170218169155284" lon="10.251940575818407"><ele>903.3333333333333</ele><time>2026-04-27T08:57:21.9Z</time></trkpt><trkpt lat="46.17008160358623" lon="10.251825786940124"><ele>912.0</ele><time>2026-04-27T08:57:22.9Z</time></trkpt><trkpt lat="46.16993626195158" lon="10.251699958723819"><ele>910.0</ele><time>2026-04-27T08:57:23.9Z</time></trkpt><trkpt lat="46.169796780544225" lon="10.251600079525067"><ele>908.0</ele><time>2026-04-27T08:57:24.9Z</time></trkpt><trkpt lat="46.16966944111488" lon="10.251499681501928"><ele>906.0</ele><time>2026-04-27T08:57:25.9Z</time></trkpt><trkpt lat="46.169551731558016" lon="10.251362000794472"><ele>906.0</ele><time>2026-04-27T08:57:26.9Z</time></trkpt><trkpt lat="46.169449077800934" lon="10.251179388585314"><ele>906.0</ele><time>2026-04-27T08:57:27.9Z</time></trkpt><trkpt lat="46.169343942303584" lon="10.250957111404647"><ele>906.0</ele><time>2026-04-27T08:57:28.9Z</time></trkpt><trkpt lat="46.16925430843561" lon="10.250729574951857"><ele>909.3333333333333</ele><time>2026-04-27T08:57:29.9Z</time></trkpt><trkpt lat="46.16916365401163" lon="10.250530367922913"><ele>912.6666666666666</ele><time>2026-04-27T08:57:30.9Z</time></trkpt><trkpt lat="46.169098454763876" lon="10.25034107027741"><ele>916.0</ele><time>2026-04-27T08:57:31.899Z</time></trkpt><trkpt lat="46.16904133030248" lon="10.250116656883066"><ele>911.3333333333333</ele><time>2026-04-27T08:57:32.9Z</time></trkpt><trkpt lat="46.1690028016678" lon="10.249862358536236"><ele>906.6666666666667</ele><time>2026-04-27T08:57:33.9Z</time></trkpt><trkpt lat="46.1689796897868" lon="10.249593343093126"><ele>902.0</ele><time>2026-04-27T08:57:34.9Z</time></trkpt><trkpt lat="46.1689599151014" lon="10.249343821828047"><ele>902.0</ele><time>2026-04-27T08:57:35.9Z</time></trkpt><trkpt lat="46.16893363951324" lon="10.24911831155683"><ele>902.0</ele><time>2026-04-27T08:57:36.9Z</time></trkpt><trkpt lat="46.16894386694734" lon="10.248907657347925"><ele>902.0</ele><time>2026-04-27T08:57:37.9Z</time></trkpt><trkpt lat="46.16898226588325" lon="10.248698671159467"><ele>903.6666666666667</ele><time>2026-04-27T08:57:38.9Z</time></trkpt><trkpt lat="46.16904457949299" lon="10.248482780335243"><ele>905.3333333333333</ele><time>2026-04-27T08:57:39.9Z</time></trkpt><trkpt lat="46.16910709709913" lon="10.248251429431548"><ele>907.0</ele><time>2026-04-27T08:57:40.9Z</time></trkpt><trkpt lat="46.16916744149499" lon="10.248041619120904"><ele>907.0</ele><time>2026-04-27T08:57:41.9Z</time></trkpt><trkpt lat="46.16920320812017" lon="10.24784682367269"><ele>907.0</ele><time>2026-04-27T08:57:42.9Z</time></trkpt><trkpt lat="46.16924535746692" lon="10.247681128258858"><ele>907.0</ele><time>2026-04-27T08:57:43.9Z</time></trkpt><trkpt lat="46.1692878450968" lon="10.247510571650022"><ele>907.0</ele><time>2026-04-27T08:57:44.9Z</time></trkpt><trkpt lat="46.169310634037615" lon="10.247082174310826"><ele>909.6666666666666</ele><time>2026-04-27T08:57:46.901Z</time></trkpt><trkpt lat="46.16930310472845" lon="10.246842539088941"><ele>912.3333333333333</ele><time>2026-04-27T08:57:47.902Z</time></trkpt><trkpt lat="46.16929313041266" lon="10.24660428993204"><ele>915.0</ele><time>2026-04-27T08:57:48.902Z</time></trkpt><trkpt lat="46.16927030030508" lon="10.24636616952768"><ele>918.3333333333333</ele><time>2026-04-27T08:57:49.903Z</time></trkpt><trkpt lat="46.16922740018918" lon="10.246108057823136"><ele>921.6666666666666</ele><time>2026-04-27T08:57:50.903Z</time></trkpt><trkpt lat="46.169163274699564" lon="10.245868338893484"><ele>925.0</ele><time>2026-04-27T08:57:51.904Z</time></trkpt><trkpt lat="46.169097218329995" lon="10.245620937154156"><ele>919.0</ele><time>2026-04-27T08:57:52.904Z</time></trkpt><trkpt lat="46.16902430332605" lon="10.245362064222576"><ele>913.0</ele><time>2026-04-27T08:57:53.904Z</time></trkpt><trkpt lat="46.16895573570178" lon="10.24510861966593"><ele>907.0</ele><time>2026-04-27T08:57:54.905Z</time></trkpt><trkpt lat="46.16888430176075" lon="10.244853650814989"><ele>910.6666666666666</ele><time>2026-04-27T08:57:55.905Z</time></trkpt><trkpt lat="46.168812649708066" lon="10.244613723423695"><ele>914.3333333333333</ele><time>2026-04-27T08:57:56.906Z</time></trkpt><trkpt lat="46.168741112680046" lon="10.244414469245843"><ele>918.0</ele><time>2026-04-27T08:57:57.906Z</time></trkpt><trkpt lat="46.16863431842996" lon="10.244236431474791"><ele>918.0</ele><time>2026-04-27T08:57:58.906Z</time></trkpt><trkpt lat="46.16850052846625" lon="10.244092335749293"><ele>918.0</ele><time>2026-04-27T08:57:59.906Z</time></trkpt><trkpt lat="46.16823246630919" lon="10.243821427035485"><ele>918.0</ele><time>2026-04-27T08:58:01.907Z</time></trkpt><trkpt lat="46.168118277602495" lon="10.243628512271313"><ele>918.0</ele><time>2026-04-27T08:58:02.907Z</time></trkpt><trkpt lat="46.16801937693848" lon="10.24341263379113"><ele>918.0</ele><time>2026-04-27T08:58:03.907Z</time></trkpt><trkpt lat="46.16793031909072" lon="10.243213436724156"><ele>920.5</ele><time>2026-04-27T08:58:04.907Z</time></trkpt><trkpt lat="46.16783777104222" lon="10.243037666795937"><ele>923.0</ele><time>2026-04-27T08:58:05.908Z</time></trkpt><trkpt lat="46.16776978302452" lon="10.242879749382952"><ele>925.5</ele><time>2026-04-27T08:58:06.908Z</time></trkpt><trkpt lat="46.16767666212269" lon="10.242720805340959"><ele>928.0</ele><time>2026-04-27T08:58:07.908Z</time></trkpt><trkpt lat="46.16757463965663" lon="10.24259618540903"><ele>928.0</ele><time>2026-04-27T08:58:08.908Z</time></trkpt><trkpt lat="46.167486644761674" lon="10.24248507332944"><ele>928.0</ele><time>2026-04-27T08:58:09.908Z</time></trkpt><trkpt lat="46.16740772698992" lon="10.242313553064228"><ele>928.0</ele><time>2026-04-27T08:58:10.908Z</time></trkpt><trkpt lat="46.167349887688424" lon="10.242100101591646"><ele>928.0</ele><time>2026-04-27T08:58:11.908Z</time></trkpt><trkpt lat="46.167292229112604" lon="10.241872615351566"><ele>929.0</ele><time>2026-04-27T08:58:12.909Z</time></trkpt><trkpt lat="46.16721845778915" lon="10.241645120049718"><ele>930.0</ele><time>2026-04-27T08:58:13.909Z</time></trkpt><trkpt lat="46.167139050104815" lon="10.241427811251285"><ele>931.0</ele><time>2026-04-27T08:58:14.909Z</time></trkpt><trkpt lat="46.16703122580362" lon="10.241193068052095"><ele>931.0</ele><time>2026-04-27T08:58:15.909Z</time></trkpt><trkpt lat="46.16692632778766" lon="10.240942250369946"><ele>931.0</ele><time>2026-04-27T08:58:16.909Z</time></trkpt><trkpt lat="46.16681838454715" lon="10.24069290568646"><ele>931.0</ele><time>2026-04-27T08:58:17.909Z</time></trkpt><trkpt lat="46.16671963083826" lon="10.240470260850374"><ele>930.0</ele><time>2026-04-27T08:58:18.909Z</time></trkpt><trkpt lat="46.16663977434933" lon="10.24025225553239"><ele>929.0</ele><time>2026-04-27T08:58:19.909Z</time></trkpt><trkpt lat="46.16655026346021" lon="10.24002023013653"><ele>928.0</ele><time>2026-04-27T08:58:20.909Z</time></trkpt><trkpt lat="46.16645646425204" lon="10.239780681481042"><ele>928.0</ele><time>2026-04-27T08:58:21.909Z</time></trkpt><trkpt lat="46.1663549099004" lon="10.23954587682013"><ele>928.0</ele><time>2026-04-27T08:58:22.909Z</time></trkpt><trkpt lat="46.16625205726433" lon="10.23931264560194"><ele>928.0</ele><time>2026-04-27T08:58:23.909Z</time></trkpt><trkpt lat="46.166156039332236" lon="10.239089641185396"><ele>932.3333333333333</ele><time>2026-04-27T08:58:24.909Z</time></trkpt><trkpt lat="46.16607637208823" lon="10.238860394564059"><ele>936.6666666666667</ele><time>2026-04-27T08:58:25.909Z</time></trkpt><trkpt lat="46.165991949522656" lon="10.2386208659843"><ele>941.0</ele><time>2026-04-27T08:58:26.909Z</time></trkpt><trkpt lat="46.165950044084425" lon="10.238369194160152"><ele>945.3333333333334</ele><time>2026-04-27T08:58:27.91Z</time></trkpt><trkpt lat="46.1659483805204" lon="10.238117178949002"><ele>949.6666666666667</ele><time>2026-04-27T08:58:28.91Z</time></trkpt><trkpt lat="46.16596765560238" lon="10.23785219018457"><ele>954.0</ele><time>2026-04-27T08:58:29.91Z</time></trkpt><trkpt lat="46.16597374242229" lon="10.23758506220503"><ele>954.0</ele><time>2026-04-27T08:58:30.91Z</time></trkpt><trkpt lat="46.16599131032067" lon="10.237313563208676"><ele>954.0</ele><time>2026-04-27T08:58:31.91Z</time></trkpt><trkpt lat="46.16601337504157" lon="10.237034010951895"><ele>954.0</ele><time>2026-04-27T08:58:32.91Z</time></trkpt><trkpt lat="46.16604126758534" lon="10.236752896756162"><ele>962.0</ele><time>2026-04-27T08:58:33.91Z</time></trkpt><trkpt lat="46.16608079586929" lon="10.234530066369443"><ele>962.0</ele><time>2026-04-27T08:58:43.91Z</time></trkpt><trkpt lat="46.16609615771471" lon="10.234322081842251"><ele>962.0</ele><time>2026-04-27T08:58:44.91Z</time></trkpt><trkpt lat="46.166135611124936" lon="10.234100090079604"><ele>962.0</ele><time>2026-04-27T08:58:45.91Z</time></trkpt><trkpt lat="46.166122464706405" lon="10.23393131877866"><ele>962.0</ele><time>2026-04-27T08:58:46.91Z</time></trkpt><trkpt lat="46.16605761896419" lon="10.233762372812215"><ele>961.0</ele><time>2026-04-27T08:58:47.91Z</time></trkpt><trkpt lat="46.16598307623726" lon="10.233627573079126"><ele>960.0</ele><time>2026-04-27T08:58:48.91Z</time></trkpt><trkpt lat="46.165913951736115" lon="10.233395614580779"><ele>959.0</ele><time>2026-04-27T08:58:49.91Z</time></trkpt><trkpt lat="46.16582921305738" lon="10.233192059709234"><ele>962.3333333333334</ele><time>2026-04-27T08:58:50.91Z</time></trkpt><trkpt lat="46.16577354463189" lon="10.232986815602118"><ele>965.6666666666667</ele><time>2026-04-27T08:58:51.91Z</time></trkpt><trkpt lat="46.16570333149404" lon="10.232782769107645"><ele>969.0</ele><time>2026-04-27T08:58:52.91Z</time></trkpt><trkpt lat="46.165647125510965" lon="10.232587629818378"><ele>970.5</ele><time>2026-04-27T08:58:53.91Z</time></trkpt><trkpt lat="46.165607110866326" lon="10.232414630840223"><ele>972.0</ele><time>2026-04-27T08:58:54.91Z</time></trkpt><trkpt lat="46.16556363143771" lon="10.232232274104298"><ele>973.5</ele><time>2026-04-27T08:58:55.91Z</time></trkpt><trkpt lat="46.16553094803366" lon="10.232043089726673"><ele>975.0</ele><time>2026-04-27T08:58:56.91Z</time></trkpt><trkpt lat="46.16550973156283" lon="10.23185181185116"><ele>976.25</ele><time>2026-04-27T08:58:57.91Z</time></trkpt><trkpt lat="46.16550421236794" lon="10.231661409260804"><ele>977.5</ele><time>2026-04-27T08:58:58.91Z</time></trkpt><trkpt lat="46.16553743484491" lon="10.231464665730345"><ele>978.75</ele><time>2026-04-27T08:58:59.91Z</time></trkpt><trkpt lat="46.16558653109908" lon="10.231267252223462"><ele>980.0</ele><time>2026-04-27T08:59:00.91Z</time></trkpt><trkpt lat="46.16566093847184" lon="10.2310705438912"><ele>978.0</ele><time>2026-04-27T08:59:01.91Z</time></trkpt><trkpt lat="46.165752008653" lon="10.230885176968702"><ele>976.0</ele><time>2026-04-27T08:59:02.91Z</time></trkpt><trkpt lat="46.16582285843243" lon="10.230655462975445"><ele>974.0</ele><time>2026-04-27T08:59:03.91Z</time></trkpt><trkpt lat="46.165883686360615" lon="10.230405896843697"><ele>973.0</ele><time>2026-04-27T08:59:04.91Z</time></trkpt><trkpt lat="46.16593813136098" lon="10.230128738723858"><ele>972.0</ele><time>2026-04-27T08:59:05.91Z</time></trkpt><trkpt lat="46.16598459119665" lon="10.229833403380496"><ele>971.0</ele><time>2026-04-27T08:59:06.91Z</time></trkpt><trkpt lat="46.16603976217473" lon="10.229538718014782"><ele>971.0</ele><time>2026-04-27T08:59:07.91Z</time></trkpt><trkpt lat="46.1661059792819" lon="10.229227953356073"><ele>971.0</ele><time>2026-04-27T08:59:08.91Z</time></trkpt><trkpt lat="46.166160226573126" lon="10.228923850639886"><ele>971.0</ele><time>2026-04-27T08:59:09.909Z</time></trkpt><trkpt lat="46.166218980046004" lon="10.228630894832149"><ele>971.6666666666667</ele><time>2026-04-27T08:59:10.909Z</time></trkpt><trkpt lat="46.166275933345204" lon="10.228368131137499"><ele>972.3333333333333</ele><time>2026-04-27T08:59:11.909Z</time></trkpt><trkpt lat="46.16632240707489" lon="10.228102953571067"><ele>973.0</ele><time>2026-04-27T08:59:12.909Z</time></trkpt><trkpt lat="46.16636274075206" lon="10.227869398898585"><ele>973.6666666666666</ele><time>2026-04-27T08:59:13.909Z</time></trkpt><trkpt lat="46.166405832709174" lon="10.227649963671444"><ele>974.3333333333333</ele><time>2026-04-27T08:59:14.909Z</time></trkpt><trkpt lat="46.16643806469637" lon="10.227435602022274"><ele>975.0</ele><time>2026-04-27T08:59:15.909Z</time></trkpt><trkpt lat="46.166449530755465" lon="10.227205807488648"><ele>973.5</ele><time>2026-04-27T08:59:16.909Z</time></trkpt><trkpt lat="46.166476247626115" lon="10.22699998003624"><ele>972.0</ele><time>2026-04-27T08:59:17.909Z</time></trkpt><trkpt lat="46.166495084251686" lon="10.226777387075597"><ele>970.5</ele><time>2026-04-27T08:59:18.909Z</time></trkpt><trkpt lat="46.166529256951286" lon="10.226578135723202"><ele>969.0</ele><time>2026-04-27T08:59:19.909Z</time></trkpt><trkpt lat="46.16657252764742" lon="10.226397022321656"><ele>967.0</ele><time>2026-04-27T08:59:20.909Z</time></trkpt><trkpt lat="46.16662566282501" lon="10.226197461646986"><ele>965.0</ele><time>2026-04-27T08:59:21.909Z</time></trkpt><trkpt lat="46.166694653978574" lon="10.226025970249415"><ele>963.0</ele><time>2026-04-27T08:59:22.909Z</time></trkpt><trkpt lat="46.16675390765693" lon="10.22583105185237"><ele>961.0</ele><time>2026-04-27T08:59:23.909Z</time></trkpt><trkpt lat="46.16681202986383" lon="10.22566828793985"><ele>961.0</ele><time>2026-04-27T08:59:24.909Z</time></trkpt><trkpt lat="46.166847214723134" lon="10.225495026394192"><ele>961.0</ele><time>2026-04-27T08:59:25.908Z</time></trkpt><trkpt lat="46.16686644228897" lon="10.225297039137356"><ele>961.0</ele><time>2026-04-27T08:59:26.908Z</time></trkpt><trkpt lat="46.16686947537907" lon="10.225062928651285"><ele>961.0</ele><time>2026-04-27T08:59:27.908Z</time></trkpt><trkpt lat="46.16685327859214" lon="10.224795421787373"><ele>962.3333333333333</ele><time>2026-04-27T08:59:28.908Z</time></trkpt><trkpt lat="46.16683371981411" lon="10.224502805821594"><ele>963.6666666666667</ele><time>2026-04-27T08:59:29.909Z</time></trkpt><trkpt lat="46.16681025461084" lon="10.224207139100317"><ele>965.0</ele><time>2026-04-27T08:59:30.909Z</time></trkpt><trkpt lat="46.166799422271325" lon="10.22395415431379"><ele>967.6666666666667</ele><time>2026-04-27T08:59:31.909Z</time></trkpt><trkpt lat="46.16679175491496" lon="10.22373580173417"><ele>970.3333333333333</ele><time>2026-04-27T08:59:32.909Z</time></trkpt><trkpt lat="46.16675574218222" lon="10.223490793228455"><ele>973.0</ele><time>2026-04-27T08:59:33.909Z</time></trkpt><trkpt lat="46.166709619004564" lon="10.223251576172169"><ele>968.3333333333333</ele><time>2026-04-27T08:59:34.908Z</time></trkpt><trkpt lat="46.16665155855166" lon="10.223009804958851"><ele>963.6666666666667</ele><time>2026-04-27T08:59:35.908Z</time></trkpt><trkpt lat="46.16658746635614" lon="10.222781305734232"><ele>959.0</ele><time>2026-04-27T08:59:36.908Z</time></trkpt><trkpt lat="46.16651983066268" lon="10.222577856329877"><ele>959.0</ele><time>2026-04-27T08:59:37.909Z</time></trkpt><trkpt lat="46.166423670526804" lon="10.222397356936208"><ele>959.0</ele><time>2026-04-27T08:59:38.909Z</time></trkpt><trkpt lat="46.16631168323881" lon="10.222238337383189"><ele>959.0</ele><time>2026-04-27T08:59:39.909Z</time></trkpt><trkpt lat="46.16622131865422" lon="10.22207618331997"><ele>961.0</ele><time>2026-04-27T08:59:40.909Z</time></trkpt><trkpt lat="46.16614350243207" lon="10.221905167906279"><ele>963.0</ele><time>2026-04-27T08:59:41.909Z</time></trkpt><trkpt lat="46.16607445793541" lon="10.22172569568579"><ele>965.0</ele><time>2026-04-27T08:59:42.909Z</time></trkpt><trkpt lat="46.16604485689556" lon="10.22155394769546"><ele>967.0</ele><time>2026-04-27T08:59:43.909Z</time></trkpt><trkpt lat="46.166038218674515" lon="10.221376626839868"><ele>967.0</ele><time>2026-04-27T08:59:44.909Z</time></trkpt><trkpt lat="46.166067567793355" lon="10.22119431062506"><ele>967.0</ele><time>2026-04-27T08:59:45.909Z</time></trkpt><trkpt lat="46.16612785847245" lon="10.220984072957785"><ele>967.0</ele><time>2026-04-27T08:59:46.909Z</time></trkpt><trkpt lat="46.16620065615178" lon="10.220764023390805"><ele>967.3333333333333</ele><time>2026-04-27T08:59:47.909Z</time></trkpt><trkpt lat="46.16627308157532" lon="10.220536474726012"><ele>967.6666666666667</ele><time>2026-04-27T08:59:48.909Z</time></trkpt><trkpt lat="46.16634518862338" lon="10.22031798617807"><ele>968.0</ele><time>2026-04-27T08:59:49.909Z</time></trkpt><trkpt lat="46.16641290783816" lon="10.220133575623342"><ele>968.0</ele><time>2026-04-27T08:59:50.908Z</time></trkpt><trkpt lat="46.16646207026304" lon="10.21995481600581"><ele>968.0</ele><time>2026-04-27T08:59:51.908Z</time></trkpt><trkpt lat="46.16648204997153" lon="10.21975736658801"><ele>968.0</ele><time>2026-04-27T08:59:52.908Z</time></trkpt><trkpt lat="46.16647369069435" lon="10.219526295703343"><ele>968.0</ele><time>2026-04-27T08:59:53.908Z</time></trkpt><trkpt lat="46.16644791757781" lon="10.219280450590635"><ele>969.6666666666667</ele><time>2026-04-27T08:59:54.908Z</time></trkpt><trkpt lat="46.16643880629461" lon="10.219040218513538"><ele>971.3333333333333</ele><time>2026-04-27T08:59:55.908Z</time></trkpt><trkpt lat="46.166453431866174" lon="10.218777202775858"><ele>973.0</ele><time>2026-04-27T08:59:56.908Z</time></trkpt><trkpt lat="46.1664931013832" lon="10.218505551555275"><ele>974.6666666666666</ele><time>2026-04-27T08:59:57.908Z</time></trkpt><trkpt lat="46.16652084547163" lon="10.21820676260867"><ele>976.3333333333333</ele><time>2026-04-27T08:59:58.908Z</time></trkpt><trkpt lat="46.16651925155984" lon="10.21789239746432"><ele>978.0</ele><time>2026-04-27T08:59:59.908Z</time></trkpt><trkpt lat="46.166511158341535" lon="10.217577974199962"><ele>978.0</ele><time>2026-04-27T09:00:00.908Z</time></trkpt><trkpt lat="46.16652168951056" lon="10.217279595813363"><ele>978.0</ele><time>2026-04-27T09:00:01.908Z</time></trkpt><trkpt lat="46.166540570572906" lon="10.217006097207973"><ele>978.0</ele><time>2026-04-27T09:00:02.908Z</time></trkpt><trkpt lat="46.16657068051918" lon="10.216784808222355"><ele>981.75</ele><time>2026-04-27T09:00:03.908Z</time></trkpt><trkpt lat="46.166590023144956" lon="10.216572190095432"><ele>985.5</ele><time>2026-04-27T09:00:04.908Z</time></trkpt><trkpt lat="46.1666122142805" lon="10.216385262593379"><ele>989.25</ele><time>2026-04-27T09:00:05.908Z</time></trkpt><trkpt lat="46.16662027512676" lon="10.216221042759068"><ele>993.0</ele><time>2026-04-27T09:00:06.908Z</time></trkpt><trkpt lat="46.16659314612062" lon="10.216067174096843"><ele>990.0</ele><time>2026-04-27T09:00:07.908Z</time></trkpt><trkpt lat="46.16650958891597" lon="10.215898787433815"><ele>987.0</ele><time>2026-04-27T09:00:08.908Z</time></trkpt><trkpt lat="46.16643965265939" lon="10.21570502206755"><ele>984.0</ele><time>2026-04-27T09:00:09.908Z</time></trkpt><trkpt lat="46.16641281573299" lon="10.215507428605283"><ele>981.0</ele><time>2026-04-27T09:00:10.908Z</time></trkpt><trkpt lat="46.166428214636284" lon="10.215280166611583"><ele>981.0</ele><time>2026-04-27T09:00:11.908Z</time></trkpt><trkpt lat="46.16645579088563" lon="10.215018285112933"><ele>981.0</ele><time>2026-04-27T09:00:12.908Z</time></trkpt><trkpt lat="46.16647803172743" lon="10.214737624832406"><ele>981.0</ele><time>2026-04-27T09:00:13.908Z</time></trkpt><trkpt lat="46.166494315551844" lon="10.214444662804912"><ele>980.6666666666667</ele><time>2026-04-27T09:00:14.908Z</time></trkpt><trkpt lat="46.16651126864503" lon="10.214144650126656"><ele>980.3333333333334</ele><time>2026-04-27T09:00:15.908Z</time></trkpt><trkpt lat="46.16653421741622" lon="10.213858386833095"><ele>980.0</ele><time>2026-04-27T09:00:16.908Z</time></trkpt><trkpt lat="46.16655215099856" lon="10.213599774168298"><ele>988.6666666666667</ele><time>2026-04-27T09:00:17.908Z</time></trkpt><trkpt lat="46.16656333776219" lon="10.213356831717723"><ele>997.3333333333333</ele><time>2026-04-27T09:00:18.908Z</time></trkpt><trkpt lat="46.16656960871391" lon="10.213101056117525"><ele>1006.0</ele><time>2026-04-27T09:00:19.908Z</time></trkpt><trkpt lat="46.16659459845683" lon="10.21287124105085"><ele>1008.0</ele><time>2026-04-27T09:00:20.908Z</time></trkpt><trkpt lat="46.166600764032644" lon="10.212628450867877"><ele>1010.0</ele><time>2026-04-27T09:00:21.908Z</time></trkpt><trkpt lat="46.16657709212826" lon="10.212372808419616"><ele>1012.0</ele><time>2026-04-27T09:00:22.908Z</time></trkpt><trkpt lat="46.16653542672524" lon="10.212106868173983"><ele>1004.6666666666666</ele><time>2026-04-27T09:00:23.908Z</time></trkpt><trkpt lat="46.16649196111002" lon="10.211830346134514"><ele>997.3333333333333</ele><time>2026-04-27T09:00:24.908Z</time></trkpt><trkpt lat="46.166456237719046" lon="10.211573176945748"><ele>990.0</ele><time>2026-04-27T09:00:25.908Z</time></trkpt><trkpt lat="46.166425309230085" lon="10.211319711947123"><ele>990.0</ele><time>2026-04-27T09:00:26.908Z</time></trkpt><trkpt lat="46.16639877657526" lon="10.211090072481115"><ele>990.0</ele><time>2026-04-27T09:00:27.908Z</time></trkpt><trkpt lat="46.16636207235442" lon="10.210870060160909"><ele>990.0</ele><time>2026-04-27T09:00:28.908Z</time></trkpt><trkpt lat="46.16632375329384" lon="10.210631782813618"><ele>992.3333333333333</ele><time>2026-04-27T09:00:29.908Z</time></trkpt><trkpt lat="46.166301281532014" lon="10.210390453246962"><ele>994.6666666666666</ele><time>2026-04-27T09:00:30.908Z</time></trkpt><trkpt lat="46.166312123745705" lon="10.210161321258779"><ele>997.0</ele><time>2026-04-27T09:00:31.908Z</time></trkpt><trkpt lat="46.16632322491337" lon="10.209950005875296"><ele>1000.6666666666666</ele><time>2026-04-27T09:00:32.908Z</time></trkpt><trkpt lat="46.166321898976506" lon="10.209736198957156"><ele>1004.3333333333333</ele><time>2026-04-27T09:00:33.908Z</time></trkpt><trkpt lat="46.16629326992125" lon="10.209513905687059"><ele>1008.0</ele><time>2026-04-27T09:00:34.908Z</time></trkpt><trkpt lat="46.166234239575786" lon="10.209292702457173"><ele>1008.0</ele><time>2026-04-27T09:00:35.908Z</time></trkpt><trkpt lat="46.16615833492526" lon="10.20909610287732"><ele>1008.0</ele><time>2026-04-27T09:00:36.908Z</time></trkpt><trkpt lat="46.16604851178528" lon="10.208899790788363"><ele>1008.0</ele><time>2026-04-27T09:00:37.908Z</time></trkpt><trkpt lat="46.16592457583052" lon="10.208740625232728"><ele>1007.3333333333333</ele><time>2026-04-27T09:00:38.908Z</time></trkpt><trkpt lat="46.165788760837344" lon="10.208594516966906"><ele>1006.6666666666666</ele><time>2026-04-27T09:00:39.908Z</time></trkpt><trkpt lat="46.16565114506297" lon="10.208458112342628"><ele>1006.0</ele><time>2026-04-27T09:00:40.908Z</time></trkpt><trkpt lat="46.16552216750037" lon="10.208331821822528"><ele>1006.0</ele><time>2026-04-27T09:00:41.908Z</time></trkpt><trkpt lat="46.16541217407187" lon="10.208215900872666"><ele>1006.0</ele><time>2026-04-27T09:00:42.908Z</time></trkpt><trkpt lat="46.16530699438332" lon="10.208107962123075"><ele>1006.0</ele><time>2026-04-27T09:00:43.908Z</time></trkpt><trkpt lat="46.16520797654481" lon="10.208002336204125"><ele>1006.0</ele><time>2026-04-27T09:00:44.908Z</time></trkpt><trkpt lat="46.16508957933187" lon="10.207924173043805"><ele>1008.25</ele><time>2026-04-27T09:00:45.908Z</time></trkpt><trkpt lat="46.164950701867674" lon="10.207894688540932"><ele>1010.5</ele><time>2026-04-27T09:00:46.908Z</time></trkpt><trkpt lat="46.164816886458645" lon="10.207866952947628"><ele>1012.75</ele><time>2026-04-27T09:00:47.908Z</time></trkpt><trkpt lat="46.16469476346923" lon="10.20782671270084"><ele>1015.0</ele><time>2026-04-27T09:00:48.908Z</time></trkpt><trkpt lat="46.16459105026829" lon="10.20774063724889"><ele>1015.0</ele><time>2026-04-27T09:00:49.908Z</time></trkpt><trkpt lat="46.164493481326694" lon="10.207628406509105"><ele>1015.0</ele><time>2026-04-27T09:00:50.908Z</time></trkpt><trkpt lat="46.16441936098687" lon="10.207462887690655"><ele>1015.0</ele><time>2026-04-27T09:00:51.908Z</time></trkpt><trkpt lat="46.16437204319344" lon="10.207252491102293"><ele>1015.0</ele><time>2026-04-27T09:00:52.908Z</time></trkpt><trkpt lat="46.16432268261925" lon="10.207024339708271"><ele>1019.0</ele><time>2026-04-27T09:00:53.908Z</time></trkpt><trkpt lat="46.1642983417237" lon="10.206800432815601"><ele>1023.0</ele><time>2026-04-27T09:00:54.908Z</time></trkpt><trkpt lat="46.1643001157475" lon="10.20656220271025"><ele>1027.0</ele><time>2026-04-27T09:00:55.907Z</time></trkpt><trkpt lat="46.16431746250475" lon="10.206323456405633"><ele>1027.3333333333333</ele><time>2026-04-27T09:00:56.907Z</time></trkpt><trkpt lat="46.16433914598187" lon="10.206066732830088"><ele>1027.6666666666667</ele><time>2026-04-27T09:00:57.907Z</time></trkpt><trkpt lat="46.164354700367205" lon="10.205817702584921"><ele>1028.0</ele><time>2026-04-27T09:00:58.907Z</time></trkpt><trkpt lat="46.16435407402691" lon="10.205556708288665"><ele>1029.6666666666667</ele><time>2026-04-27T09:00:59.907Z</time></trkpt><trkpt lat="46.164337388024336" lon="10.205295855289872"><ele>1031.3333333333333</ele><time>2026-04-27T09:01:00.907Z</time></trkpt><trkpt lat="46.16429669630893" lon="10.205034246935181"><ele>1033.0</ele><time>2026-04-27T09:01:01.907Z</time></trkpt><trkpt lat="46.16422884511856" lon="10.204780092404459"><ele>1036.0</ele><time>2026-04-27T09:01:02.907Z</time></trkpt><trkpt lat="46.16417184380813" lon="10.204582137271036"><ele>1039.0</ele><time>2026-04-27T09:01:03.907Z</time></trkpt><trkpt lat="46.164098967938955" lon="10.204381946827839"><ele>1042.0</ele><time>2026-04-27T09:01:04.907Z</time></trkpt><trkpt lat="46.164043158090486" lon="10.204181615111715"><ele>1037.3333333333333</ele><time>2026-04-27T09:01:05.907Z</time></trkpt><trkpt lat="46.16400757228952" lon="10.203977082344894"><ele>1032.6666666666667</ele><time>2026-04-27T09:01:06.907Z</time></trkpt><trkpt lat="46.1639986776138" lon="10.203747544423297"><ele>1028.0</ele><time>2026-04-27T09:01:07.907Z</time></trkpt><trkpt lat="46.164026523760754" lon="10.203521504365355"><ele>1028.0</ele><time>2026-04-27T09:01:08.907Z</time></trkpt><trkpt lat="46.164029877995844" lon="10.203293299341237"><ele>1028.0</ele><time>2026-04-27T09:01:09.907Z</time></trkpt><trkpt lat="46.16404013633011" lon="10.203093679628182"><ele>1028.0</ele><time>2026-04-27T09:01:10.907Z</time></trkpt><trkpt lat="46.16404390736684" lon="10.202896567648272"><ele>1028.0</ele><time>2026-04-27T09:01:11.907Z</time></trkpt><trkpt lat="46.16403950667757" lon="10.202702547681724"><ele>1028.25</ele><time>2026-04-27T09:01:12.907Z</time></trkpt><trkpt lat="46.16399959557931" lon="10.202540338159011"><ele>1028.5</ele><time>2026-04-27T09:01:13.907Z</time></trkpt><trkpt lat="46.16391076899429" lon="10.20235376442507"><ele>1028.75</ele><time>2026-04-27T09:01:14.907Z</time></trkpt><trkpt lat="46.16379200638113" lon="10.202186924209927"><ele>1029.0</ele><time>2026-04-27T09:01:15.907Z</time></trkpt><trkpt lat="46.163647157570466" lon="10.202077795979934"><ele>1033.3333333333333</ele><time>2026-04-27T09:01:16.907Z</time></trkpt><trkpt lat="46.163480542308285" lon="10.201968960543033"><ele>1037.6666666666665</ele><time>2026-04-27T09:01:17.907Z</time></trkpt><trkpt lat="46.16331713002087" lon="10.20185056271772"><ele>1042.0</ele><time>2026-04-27T09:01:18.907Z</time></trkpt><trkpt lat="46.163180685490694" lon="10.201749124494729"><ele>1042.0</ele><time>2026-04-27T09:01:19.907Z</time></trkpt><trkpt lat="46.16304860167694" lon="10.201670945105167"><ele>1042.0</ele><time>2026-04-27T09:01:20.907Z</time></trkpt><trkpt lat="46.16292820246771" lon="10.201591503703186"><ele>1042.0</ele><time>2026-04-27T09:01:21.907Z</time></trkpt><trkpt lat="46.16282818394079" lon="10.201492070969527"><ele>1042.0</ele><time>2026-04-27T09:01:22.907Z</time></trkpt><trkpt lat="46.16275667593207" lon="10.20135739878302"><ele>1043.25</ele><time>2026-04-27T09:01:23.907Z</time></trkpt><trkpt lat="46.16271226322149" lon="10.201184360316335"><ele>1044.5</ele><time>2026-04-27T09:01:24.907Z</time></trkpt><trkpt lat="46.16269552271476" lon="10.200974717127215"><ele>1045.75</ele><time>2026-04-27T09:01:25.907Z</time></trkpt><trkpt lat="46.16269614067949" lon="10.200745322157193"><ele>1047.0</ele><time>2026-04-27T09:01:26.907Z</time></trkpt><trkpt lat="46.16266008242854" lon="10.20050710654138"><ele>1049.0</ele><time>2026-04-27T09:01:27.907Z</time></trkpt><trkpt lat="46.16260958506388" lon="10.20030178617966"><ele>1051.0</ele><time>2026-04-27T09:01:28.907Z</time></trkpt><trkpt lat="46.16255475504564" lon="10.200123808604486"><ele>1053.0</ele><time>2026-04-27T09:01:29.907Z</time></trkpt><trkpt lat="46.1625012274247" lon="10.199966298735138"><ele>1055.0</ele><time>2026-04-27T09:01:30.907Z</time></trkpt><trkpt lat="46.162479413061874" lon="10.199779527408309"><ele>1057.75</ele><time>2026-04-27T09:01:31.906Z</time></trkpt><trkpt lat="46.1624658947513" lon="10.199588423617799"><ele>1060.5</ele><time>2026-04-27T09:01:32.907Z</time></trkpt><trkpt lat="46.162464152318606" lon="10.199389903397432"><ele>1063.25</ele><time>2026-04-27T09:01:33.907Z</time></trkpt><trkpt lat="46.1624693461565" lon="10.199207713159812"><ele>1066.0</ele><time>2026-04-27T09:01:34.906Z</time></trkpt><trkpt lat="46.162485848130544" lon="10.199042651211874"><ele>1065.0</ele><time>2026-04-27T09:01:35.907Z</time></trkpt><trkpt lat="46.162542436507934" lon="10.198841157912687"><ele>1064.0</ele><time>2026-04-27T09:01:36.907Z</time></trkpt><trkpt lat="46.16261258829503" lon="10.198640946264183"><ele>1063.0</ele><time>2026-04-27T09:01:37.906Z</time></trkpt><trkpt lat="46.16265896174742" lon="10.198411769320078"><ele>1062.3333333333333</ele><time>2026-04-27T09:01:38.907Z</time></trkpt><trkpt lat="46.16269347078101" lon="10.198146231570895"><ele>1061.6666666666667</ele><time>2026-04-27T09:01:39.907Z</time></trkpt><trkpt lat="46.162692551698186" lon="10.197859272483411"><ele>1061.0</ele><time>2026-04-27T09:01:40.906Z</time></trkpt><trkpt lat="46.16269439084327" lon="10.197591300268893"><ele>1061.0</ele><time>2026-04-27T09:01:41.906Z</time></trkpt><trkpt lat="46.162698501223296" lon="10.197357758441939"><ele>1061.0</ele><time>2026-04-27T09:01:42.906Z</time></trkpt><trkpt lat="46.162678068154804" lon="10.197114375257632"><ele>1061.0</ele><time>2026-04-27T09:01:43.906Z</time></trkpt><trkpt lat="46.1626297494955" lon="10.196864077950638"><ele>1063.0</ele><time>2026-04-27T09:01:44.907Z</time></trkpt><trkpt lat="46.16255634885511" lon="10.196615162532243"><ele>1065.0</ele><time>2026-04-27T09:01:45.907Z</time></trkpt><trkpt lat="46.16246459116535" lon="10.196371184878728"><ele>1067.0</ele><time>2026-04-27T09:01:46.907Z</time></trkpt><trkpt lat="46.162380338367605" lon="10.196136426246582"><ele>1069.3333333333335</ele><time>2026-04-27T09:01:47.907Z</time></trkpt><trkpt lat="46.1622962079262" lon="10.19591794631754"><ele>1071.6666666666667</ele><time>2026-04-27T09:01:48.907Z</time></trkpt><trkpt lat="46.162217557571445" lon="10.195714677046631"><ele>1074.0</ele><time>2026-04-27T09:01:49.907Z</time></trkpt><trkpt lat="46.16214553887341" lon="10.195499375339898"><ele>1075.0</ele><time>2026-04-27T09:01:50.907Z</time></trkpt><trkpt lat="46.162096001345006" lon="10.195270999486434"><ele>1076.0</ele><time>2026-04-27T09:01:51.907Z</time></trkpt><trkpt lat="46.16206975501488" lon="10.195021569740524"><ele>1077.0</ele><time>2026-04-27T09:01:52.907Z</time></trkpt><trkpt lat="46.16206898775608" lon="10.194788745336147"><ele>1078.0</ele><time>2026-04-27T09:01:53.907Z</time></trkpt><trkpt lat="46.16205271512407" lon="10.19457462830275"><ele>1079.0</ele><time>2026-04-27T09:01:54.906Z</time></trkpt><trkpt lat="46.16198749705539" lon="10.194362976260374"><ele>1080.0</ele><time>2026-04-27T09:01:55.906Z</time></trkpt><trkpt lat="46.16191153039695" lon="10.194171062668696"><ele>1079.6666666666667</ele><time>2026-04-27T09:01:56.906Z</time></trkpt><trkpt lat="46.161851210747585" lon="10.193983289498153"><ele>1079.3333333333335</ele><time>2026-04-27T09:01:57.906Z</time></trkpt><trkpt lat="46.16179162746468" lon="10.193774076152192"><ele>1079.0</ele><time>2026-04-27T09:01:58.906Z</time></trkpt><trkpt lat="46.16176036290438" lon="10.193546368389969"><ele>1079.0</ele><time>2026-04-27T09:01:59.906Z</time></trkpt><trkpt lat="46.16172971498564" lon="10.19331539710147"><ele>1079.0</ele><time>2026-04-27T09:02:00.906Z</time></trkpt><trkpt lat="46.16171539849956" lon="10.193099817487616"><ele>1079.0</ele><time>2026-04-27T09:02:01.906Z</time></trkpt><trkpt lat="46.161716415428316" lon="10.192887303637772"><ele>1079.25</ele><time>2026-04-27T09:02:02.906Z</time></trkpt><trkpt lat="46.1617438501145" lon="10.192691530564966"><ele>1079.5</ele><time>2026-04-27T09:02:03.906Z</time></trkpt><trkpt lat="46.16172213382416" lon="10.192476356935856"><ele>1079.75</ele><time>2026-04-27T09:02:04.906Z</time></trkpt><trkpt lat="46.16166439010545" lon="10.192272431101426"><ele>1080.0</ele><time>2026-04-27T09:02:05.906Z</time></trkpt><trkpt lat="46.16158588572937" lon="10.192066288637502"><ele>1079.6666666666667</ele><time>2026-04-27T09:02:06.906Z</time></trkpt><trkpt lat="46.16152877593687" lon="10.19184732368369"><ele>1079.3333333333335</ele><time>2026-04-27T09:02:07.906Z</time></trkpt><trkpt lat="46.16149452328723" lon="10.191606899485427"><ele>1079.0</ele><time>2026-04-27T09:02:08.906Z</time></trkpt><trkpt lat="46.161485967837756" lon="10.19136611299379"><ele>1079.0</ele><time>2026-04-27T09:02:09.906Z</time></trkpt><trkpt lat="46.16148011291636" lon="10.191146364307757"><ele>1079.0</ele><time>2026-04-27T09:02:10.906Z</time></trkpt><trkpt lat="46.16147051769496" lon="10.19094135380562"><ele>1079.0</ele><time>2026-04-27T09:02:11.906Z</time></trkpt><trkpt lat="46.16145573844417" lon="10.190761624726239"><ele>1079.0</ele><time>2026-04-27T09:02:12.906Z</time></trkpt><trkpt lat="46.16141562053924" lon="10.190594582821554"><ele>1086.0</ele><time>2026-04-27T09:02:13.906Z</time></trkpt><trkpt lat="46.16132709839906" lon="10.190435203014033"><ele>1093.0</ele><time>2026-04-27T09:02:14.906Z</time></trkpt><trkpt lat="46.161220875209004" lon="10.19031128859254"><ele>1100.0</ele><time>2026-04-27T09:02:15.906Z</time></trkpt><trkpt lat="46.16107930729697" lon="10.190219800024153"><ele>1107.0</ele><time>2026-04-27T09:02:16.906Z</time></trkpt><trkpt lat="46.16092339551912" lon="10.190131212437347"><ele>1107.0</ele><time>2026-04-27T09:02:17.906Z</time></trkpt><trkpt lat="46.160757131669214" lon="10.19004029157683"><ele>1107.0</ele><time>2026-04-27T09:02:18.906Z</time></trkpt><trkpt lat="46.16060197295364" lon="10.189923289724325"><ele>1107.0</ele><time>2026-04-27T09:02:19.906Z</time></trkpt><trkpt lat="46.16046848757087" lon="10.189754703187551"><ele>1106.0</ele><time>2026-04-27T09:02:20.906Z</time></trkpt><trkpt lat="46.16034917803255" lon="10.189610965269715"><ele>1105.0</ele><time>2026-04-27T09:02:21.906Z</time></trkpt><trkpt lat="46.16024294100212" lon="10.189477204594562"><ele>1104.0</ele><time>2026-04-27T09:02:22.906Z</time></trkpt><trkpt lat="46.16018272106683" lon="10.189286417111962"><ele>1103.0</ele><time>2026-04-27T09:02:23.906Z</time></trkpt><trkpt lat="46.16014914666074" lon="10.18908867907326"><ele>1107.3333333333335</ele><time>2026-04-27T09:02:24.906Z</time></trkpt><trkpt lat="46.16010791005627" lon="10.18890106224807"><ele>1111.6666666666667</ele><time>2026-04-27T09:02:25.906Z</time></trkpt><trkpt lat="46.16001979046536" lon="10.188713702109023"><ele>1116.0</ele><time>2026-04-27T09:02:26.906Z</time></trkpt><trkpt lat="46.15989068354934" lon="10.188558164147961"><ele>1112.75</ele><time>2026-04-27T09:02:27.906Z</time></trkpt><trkpt lat="46.15976692679145" lon="10.188447986990239"><ele>1109.5</ele><time>2026-04-27T09:02:28.906Z</time></trkpt><trkpt lat="46.15965453285927" lon="10.188328596237037"><ele>1106.25</ele><time>2026-04-27T09:02:29.906Z</time></trkpt><trkpt lat="46.1595643331988" lon="10.1881745036112"><ele>1103.0</ele><time>2026-04-27T09:02:30.906Z</time></trkpt><trkpt lat="46.159497336753546" lon="10.187977827201651"><ele>1103.0</ele><time>2026-04-27T09:02:31.906Z</time></trkpt><trkpt lat="46.159449232692936" lon="10.18775448552129"><ele>1103.0</ele><time>2026-04-27T09:02:32.906Z</time></trkpt><trkpt lat="46.15942335748447" lon="10.187525776281191"><ele>1103.0</ele><time>2026-04-27T09:02:33.906Z</time></trkpt><trkpt lat="46.159416143748246" lon="10.18730788804761"><ele>1106.3333333333335</ele><time>2026-04-27T09:02:34.906Z</time></trkpt><trkpt lat="46.159424903682" lon="10.187101417459164"><ele>1109.6666666666667</ele><time>2026-04-27T09:02:35.906Z</time></trkpt><trkpt lat="46.15948261183009" lon="10.186865293934133"><ele>1113.0</ele><time>2026-04-27T09:02:36.906Z</time></trkpt><trkpt lat="46.159540539103276" lon="10.186626066104177"><ele>1116.0</ele><time>2026-04-27T09:02:37.906Z</time></trkpt><trkpt lat="46.15960783688181" lon="10.186437817850758"><ele>1119.0</ele><time>2026-04-27T09:02:38.906Z</time></trkpt><trkpt lat="46.15971413406479" lon="10.186274471862333"><ele>1122.0</ele><time>2026-04-27T09:02:39.906Z</time></trkpt><trkpt lat="46.15984669381825" lon="10.186135137299022"><ele>1120.0</ele><time>2026-04-27T09:02:40.906Z</time></trkpt><trkpt lat="46.1599637566961" lon="10.18597234975989"><ele>1118.0</ele><time>2026-04-27T09:02:41.906Z</time></trkpt><trkpt lat="46.16006348182851" lon="10.185805378664023"><ele>1116.0</ele><time>2026-04-27T09:02:42.906Z</time></trkpt><trkpt lat="46.16014766045316" lon="10.185660553954742"><ele>1114.0</ele><time>2026-04-27T09:02:43.906Z</time></trkpt><trkpt lat="46.16020694295422" lon="10.185481483058362"><ele>1113.3333333333333</ele><time>2026-04-27T09:02:44.906Z</time></trkpt><trkpt lat="46.160222002364954" lon="10.185267601420403"><ele>1112.6666666666667</ele><time>2026-04-27T09:02:45.906Z</time></trkpt><trkpt lat="46.16020421613422" lon="10.185027752628784"><ele>1112.0</ele><time>2026-04-27T09:02:46.906Z</time></trkpt><trkpt lat="46.160130755954555" lon="10.184785047484711"><ele>1113.0</ele><time>2026-04-27T09:02:47.906Z</time></trkpt><trkpt lat="46.16008268628627" lon="10.184502118298095"><ele>1114.0</ele><time>2026-04-27T09:02:48.906Z</time></trkpt><trkpt lat="46.160033761308725" lon="10.18423718206422"><ele>1115.0</ele><time>2026-04-27T09:02:49.906Z</time></trkpt><trkpt lat="46.15997490452516" lon="10.183978569707598"><ele>1115.0</ele><time>2026-04-27T09:02:50.906Z</time></trkpt><trkpt lat="46.15994483082049" lon="10.183746583353106"><ele>1115.0</ele><time>2026-04-27T09:02:51.906Z</time></trkpt><trkpt lat="46.15990716291443" lon="10.183531038534788"><ele>1115.0</ele><time>2026-04-27T09:02:52.906Z</time></trkpt><trkpt lat="46.15987028262431" lon="10.183324040368385"><ele>1113.3333333333335</ele><time>2026-04-27T09:02:53.906Z</time></trkpt><trkpt lat="46.15988112831169" lon="10.183111169205278"><ele>1111.6666666666667</ele><time>2026-04-27T09:02:54.906Z</time></trkpt><trkpt lat="46.15988320299712" lon="10.182867634843731"><ele>1110.0</ele><time>2026-04-27T09:02:55.906Z</time></trkpt><trkpt lat="46.15990854770006" lon="10.182615723915399"><ele>1110.0</ele><time>2026-04-27T09:02:56.906Z</time></trkpt><trkpt lat="46.15995001761908" lon="10.182365997955996"><ele>1110.0</ele><time>2026-04-27T09:02:57.906Z</time></trkpt><trkpt lat="46.159984735871575" lon="10.182136223963488"><ele>1110.0</ele><time>2026-04-27T09:02:58.905Z</time></trkpt><trkpt lat="46.16001799200376" lon="10.181928718037106"><ele>1109.25</ele><time>2026-04-27T09:02:59.905Z</time></trkpt><trkpt lat="46.160039764806704" lon="10.181734244850075"><ele>1108.5</ele><time>2026-04-27T09:03:00.905Z</time></trkpt><trkpt lat="46.16001913027762" lon="10.18151930441868"><ele>1107.75</ele><time>2026-04-27T09:03:01.905Z</time></trkpt><trkpt lat="46.15996843020024" lon="10.18133825719241"><ele>1107.0</ele><time>2026-04-27T09:03:02.905Z</time></trkpt><trkpt lat="46.15986486546023" lon="10.181138332025428"><ele>1110.0</ele><time>2026-04-27T09:03:03.905Z</time></trkpt><trkpt lat="46.1597239312771" lon="10.180971624098937"><ele>1113.0</ele><time>2026-04-27T09:03:04.905Z</time></trkpt><trkpt lat="46.1595841106534" lon="10.180848178178174"><ele>1116.0</ele><time>2026-04-27T09:03:05.905Z</time></trkpt><trkpt lat="46.1594330771309" lon="10.180707237349825"><ele>1117.0</ele><time>2026-04-27T09:03:06.905Z</time></trkpt><trkpt lat="46.15927168618699" lon="10.180557967742441"><ele>1118.0</ele><time>2026-04-27T09:03:07.905Z</time></trkpt><trkpt lat="46.15912142552229" lon="10.180427525438578"><ele>1119.0</ele><time>2026-04-27T09:03:08.905Z</time></trkpt><trkpt lat="46.158994789883906" lon="10.18028350216629"><ele>1119.0</ele><time>2026-04-27T09:03:09.905Z</time></trkpt><trkpt lat="46.1588519775353" lon="10.180169623701133"><ele>1119.0</ele><time>2026-04-27T09:03:10.905Z</time></trkpt><trkpt lat="46.15870989385764" lon="10.180032843573478"><ele>1119.0</ele><time>2026-04-27T09:03:11.905Z</time></trkpt><trkpt lat="46.15858416911758" lon="10.179881911170796"><ele>1118.5</ele><time>2026-04-27T09:03:12.905Z</time></trkpt><trkpt lat="46.158449850740695" lon="10.17976092587839"><ele>1118.0</ele><time>2026-04-27T09:03:13.905Z</time></trkpt><trkpt lat="46.158331750289165" lon="10.179624305265053"><ele>1117.5</ele><time>2026-04-27T09:03:14.905Z</time></trkpt><trkpt lat="46.158202364107865" lon="10.179552634693568"><ele>1117.0</ele><time>2026-04-27T09:03:15.905Z</time></trkpt><trkpt lat="46.1580828555222" lon="10.179435411451726"><ele>1117.0</ele><time>2026-04-27T09:03:16.905Z</time></trkpt><trkpt lat="46.15797755513935" lon="10.179282376948287"><ele>1117.0</ele><time>2026-04-27T09:03:17.905Z</time></trkpt><trkpt lat="46.15788773977866" lon="10.17909116698125"><ele>1117.0</ele><time>2026-04-27T09:03:18.905Z</time></trkpt><trkpt lat="46.15781499610519" lon="10.178884348660223"><ele>1117.5</ele><time>2026-04-27T09:03:19.905Z</time></trkpt><trkpt lat="46.15774772687751" lon="10.178720715149215"><ele>1118.0</ele><time>2026-04-27T09:03:20.905Z</time></trkpt><trkpt lat="46.157679784588545" lon="10.178571432319188"><ele>1118.5</ele><time>2026-04-27T09:03:21.905Z</time></trkpt><trkpt lat="46.1576236107354" lon="10.178401990675042"><ele>1119.0</ele><time>2026-04-27T09:03:22.905Z</time></trkpt><trkpt lat="46.15760072353837" lon="10.178211156444341"><ele>1119.6666666666667</ele><time>2026-04-27T09:03:23.905Z</time></trkpt><trkpt lat="46.157600816184434" lon="10.17799864047216"><ele>1120.3333333333335</ele><time>2026-04-27T09:03:24.905Z</time></trkpt><trkpt lat="46.15761563052873" lon="10.177766939275521"><ele>1121.0</ele><time>2026-04-27T09:03:25.905Z</time></trkpt><trkpt lat="46.15762420867197" lon="10.177529106248189"><ele>1122.0</ele><time>2026-04-27T09:03:26.905Z</time></trkpt><trkpt lat="46.15762087790744" lon="10.17732078364089"><ele>1123.0</ele><time>2026-04-27T09:03:27.905Z</time></trkpt><trkpt lat="46.15760982675217" lon="10.17714235501707"><ele>1124.0</ele><time>2026-04-27T09:03:28.905Z</time></trkpt><trkpt lat="46.157605389147065" lon="10.176977872119561"><ele>1125.0</ele><time>2026-04-27T09:03:29.905Z</time></trkpt><trkpt lat="46.15759425575087" lon="10.176822832841347"><ele>1125.0</ele><time>2026-04-27T09:03:30.905Z</time></trkpt><trkpt lat="46.15758281564302" lon="10.176663141018444"><ele>1125.0</ele><time>2026-04-27T09:03:31.905Z</time></trkpt><trkpt lat="46.1575748960501" lon="10.176494713438828"><ele>1125.0</ele><time>2026-04-27T09:03:32.905Z</time></trkpt><trkpt lat="46.15756673854315" lon="10.176311665385114"><ele>1125.0</ele><time>2026-04-27T09:03:33.905Z</time></trkpt><trkpt lat="46.157567308826174" lon="10.176115930817772"><ele>1125.6666666666667</ele><time>2026-04-27T09:03:34.905Z</time></trkpt><trkpt lat="46.15759113530581" lon="10.175909750472085"><ele>1126.3333333333335</ele><time>2026-04-27T09:03:35.905Z</time></trkpt><trkpt lat="46.157624491606136" lon="10.175684936271702"><ele>1127.0</ele><time>2026-04-27T09:03:36.905Z</time></trkpt><trkpt lat="46.15767628283247" lon="10.1754598683279"><ele>1127.0</ele><time>2026-04-27T09:03:37.904Z</time></trkpt><trkpt lat="46.15772138102204" lon="10.175232264000684"><ele>1127.0</ele><time>2026-04-27T09:03:38.905Z</time></trkpt><trkpt lat="46.15776348414231" lon="10.175038277395197"><ele>1127.0</ele><time>2026-04-27T09:03:39.905Z</time></trkpt><trkpt lat="46.15780461669735" lon="10.174830012561173"><ele>1126.6666666666667</ele><time>2026-04-27T09:03:40.904Z</time></trkpt><trkpt lat="46.15784444360918" lon="10.17461506105756"><ele>1126.3333333333333</ele><time>2026-04-27T09:03:41.904Z</time></trkpt><trkpt lat="46.157899229846315" lon="10.174410185963406"><ele>1126.0</ele><time>2026-04-27T09:03:42.904Z</time></trkpt><trkpt lat="46.15796259410119" lon="10.174200033895698"><ele>1127.6666666666665</ele><time>2026-04-27T09:03:43.904Z</time></trkpt><trkpt lat="46.15802740421139" lon="10.17397985243607"><ele>1129.3333333333333</ele><time>2026-04-27T09:03:44.904Z</time></trkpt><trkpt lat="46.1580849909637" lon="10.173762876149302"><ele>1131.0</ele><time>2026-04-27T09:03:45.904Z</time></trkpt><trkpt lat="46.1581378121697" lon="10.173534890633524"><ele>1131.0</ele><time>2026-04-27T09:03:46.905Z</time></trkpt><trkpt lat="46.1581727961694" lon="10.173319270085985"><ele>1131.0</ele><time>2026-04-27T09:03:47.904Z</time></trkpt><trkpt lat="46.15819471424093" lon="10.173109554722265"><ele>1131.0</ele><time>2026-04-27T09:03:48.904Z</time></trkpt><trkpt lat="46.15821674624569" lon="10.172899300592148"><ele>1131.0</ele><time>2026-04-27T09:03:49.904Z</time></trkpt><trkpt lat="46.158249437084734" lon="10.172685534310995"><ele>1134.0</ele><time>2026-04-27T09:03:50.904Z</time></trkpt><trkpt lat="46.15829799778497" lon="10.172464712224272"><ele>1137.0</ele><time>2026-04-27T09:03:51.904Z</time></trkpt><trkpt lat="46.15836396097293" lon="10.172258540840474"><ele>1140.0</ele><time>2026-04-27T09:03:52.904Z</time></trkpt><trkpt lat="46.158443381479614" lon="10.172066079864042"><ele>1140.3333333333333</ele><time>2026-04-27T09:03:53.904Z</time></trkpt><trkpt lat="46.158514407259865" lon="10.171867003609359"><ele>1140.6666666666665</ele><time>2026-04-27T09:03:54.904Z</time></trkpt><trkpt lat="46.15856382095337" lon="10.171671007847703"><ele>1141.0</ele><time>2026-04-27T09:03:55.904Z</time></trkpt><trkpt lat="46.15858610545927" lon="10.171452854875572"><ele>1142.25</ele><time>2026-04-27T09:03:56.904Z</time></trkpt><trkpt lat="46.15858340691518" lon="10.171276729634995"><ele>1143.5</ele><time>2026-04-27T09:03:57.904Z</time></trkpt><trkpt lat="46.15853871114957" lon="10.171080258826818"><ele>1144.75</ele><time>2026-04-27T09:03:58.904Z</time></trkpt><trkpt lat="46.15846034699461" lon="10.170873422843558"><ele>1146.0</ele><time>2026-04-27T09:03:59.904Z</time></trkpt><trkpt lat="46.15837663697096" lon="10.170675781411001"><ele>1145.5</ele><time>2026-04-27T09:04:00.904Z</time></trkpt><trkpt lat="46.15829777933908" lon="10.17047879886561"><ele>1145.0</ele><time>2026-04-27T09:04:01.904Z</time></trkpt><trkpt lat="46.15822986657676" lon="10.17031070391658"><ele>1144.5</ele><time>2026-04-27T09:04:02.904Z</time></trkpt><trkpt lat="46.15816979869563" lon="10.170139356404038"><ele>1144.0</ele><time>2026-04-27T09:04:03.904Z</time></trkpt><trkpt lat="46.158098398591996" lon="10.16994112655823"><ele>1145.0</ele><time>2026-04-27T09:04:04.904Z</time></trkpt><trkpt lat="46.158030289031956" lon="10.169730581711473"><ele>1146.0</ele><time>2026-04-27T09:04:05.904Z</time></trkpt><trkpt lat="46.15796628567318" lon="10.169522758694265"><ele>1147.0</ele><time>2026-04-27T09:04:06.904Z</time></trkpt><trkpt lat="46.15790827076885" lon="10.169307932046271"><ele>1147.0</ele><time>2026-04-27T09:04:07.904Z</time></trkpt><trkpt lat="46.157861149982296" lon="10.169098600044999"><ele>1147.0</ele><time>2026-04-27T09:04:08.904Z</time></trkpt><trkpt lat="46.157812756395074" lon="10.168878629013346"><ele>1147.0</ele><time>2026-04-27T09:04:09.904Z</time></trkpt><trkpt lat="46.157801689665796" lon="10.168664992628473"><ele>1148.3333333333333</ele><time>2026-04-27T09:04:10.904Z</time></trkpt><trkpt lat="46.157761476989705" lon="10.168454229786466"><ele>1149.6666666666667</ele><time>2026-04-27T09:04:11.904Z</time></trkpt><trkpt lat="46.1577190107369" lon="10.168249687245181"><ele>1151.0</ele><time>2026-04-27T09:04:12.904Z</time></trkpt><trkpt lat="46.15766690451876" lon="10.16804139141534"><ele>1152.0</ele><time>2026-04-27T09:04:13.904Z</time></trkpt><trkpt lat="46.15761603040993" lon="10.167839660122928"><ele>1153.0</ele><time>2026-04-27T09:04:14.904Z</time></trkpt><trkpt lat="46.157558954340224" lon="10.16763966535966"><ele>1154.0</ele><time>2026-04-27T09:04:15.904Z</time></trkpt><trkpt lat="46.157507214429764" lon="10.167442237784227"><ele>1155.0</ele><time>2026-04-27T09:04:16.904Z</time></trkpt><trkpt lat="46.15745294570886" lon="10.167240968755767"><ele>1153.75</ele><time>2026-04-27T09:04:17.904Z</time></trkpt><trkpt lat="46.15739529020839" lon="10.167047146744682"><ele>1152.5</ele><time>2026-04-27T09:04:18.904Z</time></trkpt><trkpt lat="46.157348069119635" lon="10.16684215054015"><ele>1151.25</ele><time>2026-04-27T09:04:19.904Z</time></trkpt><trkpt lat="46.15732645089068" lon="10.1666381904961"><ele>1150.0</ele><time>2026-04-27T09:04:20.904Z</time></trkpt><trkpt lat="46.15732175145902" lon="10.166426231679354"><ele>1150.0</ele><time>2026-04-27T09:04:21.904Z</time></trkpt><trkpt lat="46.157303203472665" lon="10.16621176243875"><ele>1150.0</ele><time>2026-04-27T09:04:22.904Z</time></trkpt><trkpt lat="46.15727956882824" lon="10.16600866270918"><ele>1150.0</ele><time>2026-04-27T09:04:23.904Z</time></trkpt><trkpt lat="46.157243877884206" lon="10.165808383446732"><ele>1150.0</ele><time>2026-04-27T09:04:24.904Z</time></trkpt><trkpt lat="46.15718385469685" lon="10.165615254851403"><ele>1151.6666666666665</ele><time>2026-04-27T09:04:25.904Z</time></trkpt><trkpt lat="46.15709544729645" lon="10.165435809768505"><ele>1153.3333333333333</ele><time>2026-04-27T09:04:26.904Z</time></trkpt><trkpt lat="46.15698956324857" lon="10.165257659390202"><ele>1155.0</ele><time>2026-04-27T09:04:27.904Z</time></trkpt><trkpt lat="46.15690035772812" lon="10.165088007587576"><ele>1155.0</ele><time>2026-04-27T09:04:28.903Z</time></trkpt><trkpt lat="46.156819837695494" lon="10.164934092290004"><ele>1155.0</ele><time>2026-04-27T09:04:29.903Z</time></trkpt><trkpt lat="46.156736543127415" lon="10.16478383605567"><ele>1155.0</ele><time>2026-04-27T09:04:30.903Z</time></trkpt><trkpt lat="46.15665527217878" lon="10.164628969362228"><ele>1155.0</ele><time>2026-04-27T09:04:31.903Z</time></trkpt><trkpt lat="46.15658290601509" lon="10.164464190669824"><ele>1158.25</ele><time>2026-04-27T09:04:32.903Z</time></trkpt><trkpt lat="46.15651635784853" lon="10.164296292866219"><ele>1161.5</ele><time>2026-04-27T09:04:33.903Z</time></trkpt><trkpt lat="46.15646391132838" lon="10.164122480771242"><ele>1164.75</ele><time>2026-04-27T09:04:34.903Z</time></trkpt><trkpt lat="46.15641353461931" lon="10.163945687710848"><ele>1168.0</ele><time>2026-04-27T09:04:35.903Z</time></trkpt><trkpt lat="46.15638428381414" lon="10.163789622190263"><ele>1168.0</ele><time>2026-04-27T09:04:36.903Z</time></trkpt><trkpt lat="46.15636001875311" lon="10.163653507114063"><ele>1168.0</ele><time>2026-04-27T09:04:37.903Z</time></trkpt><trkpt lat="46.15633361477172" lon="10.163535234531516"><ele>1168.0</ele><time>2026-04-27T09:04:38.903Z</time></trkpt><trkpt lat="46.15631199529435" lon="10.163428922735898"><ele>1168.0</ele><time>2026-04-27T09:04:39.903Z</time></trkpt><trkpt lat="46.156287528229996" lon="10.163323929768966"><ele>1168.0</ele><time>2026-04-27T09:04:40.903Z</time></trkpt><trkpt lat="46.156259484956145" lon="10.163219582529157"><ele>1168.0</ele><time>2026-04-27T09:04:41.903Z</time></trkpt><trkpt lat="46.15623022363039" lon="10.163045176568673"><ele>1168.0</ele><time>2026-04-27T09:04:43.903Z</time></trkpt><trkpt lat="46.156185654437095" lon="10.162855178212219"><ele>1168.0</ele><time>2026-04-27T09:04:45.903Z</time></trkpt><trkpt lat="46.156157979963055" lon="10.162746560930952"><ele>1168.0</ele><time>2026-04-27T09:04:46.903Z</time></trkpt><trkpt lat="46.1561309875957" lon="10.162637218313225"><ele>1168.0</ele><time>2026-04-27T09:04:47.903Z</time></trkpt><trkpt lat="46.156108842261006" lon="10.162523087736078"><ele>1168.0</ele><time>2026-04-27T09:04:48.903Z</time></trkpt><trkpt lat="46.15607771996057" lon="10.162399335999094"><ele>1168.6</ele><time>2026-04-27T09:04:49.903Z</time></trkpt><trkpt lat="46.15605376149121" lon="10.16227317587329"><ele>1169.1999999999998</ele><time>2026-04-27T09:04:50.903Z</time></trkpt><trkpt lat="46.15602156419001" lon="10.162140744470365"><ele>1169.8</ele><time>2026-04-27T09:04:51.903Z</time></trkpt><trkpt lat="46.15599965413358" lon="10.16200697460002"><ele>1170.3999999999999</ele><time>2026-04-27T09:04:52.903Z</time></trkpt><trkpt lat="46.15596792080238" lon="10.161869567928608"><ele>1171.0</ele><time>2026-04-27T09:04:53.903Z</time></trkpt><trkpt lat="46.1559371973518" lon="10.161729057329262"><ele>1171.0</ele><time>2026-04-27T09:04:54.903Z</time></trkpt><trkpt lat="46.15589733809297" lon="10.161590932572548"><ele>1171.0</ele><time>2026-04-27T09:04:55.903Z</time></trkpt><trkpt lat="46.155870306062255" lon="10.161454978409248"><ele>1171.0</ele><time>2026-04-27T09:04:56.903Z</time></trkpt><trkpt lat="46.15584916577102" lon="10.161323542204817"><ele>1171.0</ele><time>2026-04-27T09:04:57.903Z</time></trkpt><trkpt lat="46.15581760334096" lon="10.161201056328533"><ele>1171.0</ele><time>2026-04-27T09:04:58.903Z</time></trkpt><trkpt lat="46.155797526409486" lon="10.161087175140507"><ele>1171.5714285714284</ele><time>2026-04-27T09:04:59.903Z</time></trkpt><trkpt lat="46.15578047001661" lon="10.160990641820876"><ele>1172.142857142857</ele><time>2026-04-27T09:05:00.903Z</time></trkpt><trkpt lat="46.15575412141601" lon="10.16089810642706"><ele>1172.7142857142858</ele><time>2026-04-27T09:05:01.903Z</time></trkpt><trkpt lat="46.15573688061137" lon="10.160809277708845"><ele>1173.2857142857142</ele><time>2026-04-27T09:05:02.903Z</time></trkpt><trkpt lat="46.155701580683136" lon="10.160711507282096"><ele>1173.857142857143</ele><time>2026-04-27T09:05:03.903Z</time></trkpt><trkpt lat="46.15567655682691" lon="10.160600443947468"><ele>1174.4285714285713</ele><time>2026-04-27T09:05:04.903Z</time></trkpt><trkpt lat="46.15565217262345" lon="10.16048443331288"><ele>1175.0</ele><time>2026-04-27T09:05:05.903Z</time></trkpt><trkpt lat="46.15562495233819" lon="10.160369943159143"><ele>1175.0</ele><time>2026-04-27T09:05:06.903Z</time></trkpt><trkpt lat="46.15559496476416" lon="10.160251169307825"><ele>1175.0</ele><time>2026-04-27T09:05:07.903Z</time></trkpt><trkpt lat="46.15556504805995" lon="10.160121739547957"><ele>1175.0</ele><time>2026-04-27T09:05:08.903Z</time></trkpt><trkpt lat="46.1555345532859" lon="10.159989222788177"><ele>1175.0</ele><time>2026-04-27T09:05:09.903Z</time></trkpt><trkpt lat="46.15549909201375" lon="10.159866248624525"><ele>1175.0</ele><time>2026-04-27T09:05:10.903Z</time></trkpt><trkpt lat="46.15547026834455" lon="10.159737758320485"><ele>1175.0</ele><time>2026-04-27T09:05:11.903Z</time></trkpt><trkpt lat="46.155449838488636" lon="10.15960959692988"><ele>1175.0</ele><time>2026-04-27T09:05:12.903Z</time></trkpt><trkpt lat="46.15542683916593" lon="10.159470208651749"><ele>1175.0</ele><time>2026-04-27T09:05:13.903Z</time></trkpt><trkpt lat="46.15540352926458" lon="10.159339015690923"><ele>1175.0</ele><time>2026-04-27T09:05:14.903Z</time></trkpt><trkpt lat="46.15538678564537" lon="10.159228354668745"><ele>1175.0</ele><time>2026-04-27T09:05:15.903Z</time></trkpt><trkpt lat="46.155365626080815" lon="10.15911910924714"><ele>1175.0</ele><time>2026-04-27T09:05:16.903Z</time></trkpt><trkpt lat="46.155338398811075" lon="10.159009127696532"><ele>1175.2</ele><time>2026-04-27T09:05:17.903Z</time></trkpt><trkpt lat="46.15530948029221" lon="10.158895926970866"><ele>1175.4</ele><time>2026-04-27T09:05:18.903Z</time></trkpt><trkpt lat="46.155288382235284" lon="10.158778832349679"><ele>1175.6</ele><time>2026-04-27T09:05:19.903Z</time></trkpt><trkpt lat="46.1552657511581" lon="10.158661418358502"><ele>1175.8</ele><time>2026-04-27T09:05:20.903Z</time></trkpt><trkpt lat="46.15523755409109" lon="10.1585136296709"><ele>1176.0</ele><time>2026-04-27T09:05:21.903Z</time></trkpt><trkpt lat="46.15520323539492" lon="10.158364355743842"><ele>1176.0</ele><time>2026-04-27T09:05:22.903Z</time></trkpt><trkpt lat="46.15516626217548" lon="10.158222358322408"><ele>1176.0</ele><time>2026-04-27T09:05:23.903Z</time></trkpt><trkpt lat="46.155134766968075" lon="10.158067032344569"><ele>1176.0</ele><time>2026-04-27T09:05:24.903Z</time></trkpt><trkpt lat="46.155105836326925" lon="10.157901828309964"><ele>1176.0</ele><time>2026-04-27T09:05:25.903Z</time></trkpt><trkpt lat="46.15508380265925" lon="10.157749336069195"><ele>1176.0</ele><time>2026-04-27T09:05:26.903Z</time></trkpt><trkpt lat="46.155050299649446" lon="10.157600749239643"><ele>1176.25</ele><time>2026-04-27T09:05:27.903Z</time></trkpt><trkpt lat="46.155016311114444" lon="10.157440250856288"><ele>1176.5</ele><time>2026-04-27T09:05:28.903Z</time></trkpt><trkpt lat="46.154987077611416" lon="10.157292399445076"><ele>1176.75</ele><time>2026-04-27T09:05:29.903Z</time></trkpt><trkpt lat="46.154954042467615" lon="10.157129486866218"><ele>1177.0</ele><time>2026-04-27T09:05:30.903Z</time></trkpt><trkpt lat="46.15492154923296" lon="10.15696395263198"><ele>1177.25</ele><time>2026-04-27T09:05:31.903Z</time></trkpt><trkpt lat="46.1548937728249" lon="10.156785404475913"><ele>1177.5</ele><time>2026-04-27T09:05:32.902Z</time></trkpt><trkpt lat="46.15486116491924" lon="10.156613997591245"><ele>1177.75</ele><time>2026-04-27T09:05:33.902Z</time></trkpt><trkpt lat="46.15482491578633" lon="10.15644268827002"><ele>1178.0</ele><time>2026-04-27T09:05:34.902Z</time></trkpt><trkpt lat="46.154794608936086" lon="10.15627017207916"><ele>1178.0</ele><time>2026-04-27T09:05:35.902Z</time></trkpt><trkpt lat="46.15475903421979" lon="10.156100004098054"><ele>1178.0</ele><time>2026-04-27T09:05:36.902Z</time></trkpt><trkpt lat="46.15472947218583" lon="10.155935444118763"><ele>1178.0</ele><time>2026-04-27T09:05:37.902Z</time></trkpt><trkpt lat="46.154693532084885" lon="10.155763438061056"><ele>1178.0</ele><time>2026-04-27T09:05:38.902Z</time></trkpt><trkpt lat="46.15465821975315" lon="10.155598799149926"><ele>1177.25</ele><time>2026-04-27T09:05:39.902Z</time></trkpt><trkpt lat="46.154627026438625" lon="10.155436261379952"><ele>1176.5</ele><time>2026-04-27T09:05:40.902Z</time></trkpt><trkpt lat="46.15459020663021" lon="10.155260082722334"><ele>1175.75</ele><time>2026-04-27T09:05:41.902Z</time></trkpt><trkpt lat="46.154548904393735" lon="10.155087654342235"><ele>1175.0</ele><time>2026-04-27T09:05:42.902Z</time></trkpt><trkpt lat="46.15451422981457" lon="10.154915023635192"><ele>1174.75</ele><time>2026-04-27T09:05:43.903Z</time></trkpt><trkpt lat="46.15447795851614" lon="10.154746531007142"><ele>1174.5</ele><time>2026-04-27T09:05:44.902Z</time></trkpt><trkpt lat="46.154437709917005" lon="10.1545659523341"><ele>1174.25</ele><time>2026-04-27T09:05:45.902Z</time></trkpt><trkpt lat="46.1543997756844" lon="10.154388390703442"><ele>1174.0</ele><time>2026-04-27T09:05:46.903Z</time></trkpt><trkpt lat="46.1543599917292" lon="10.154203095538055"><ele>1174.5</ele><time>2026-04-27T09:05:47.903Z</time></trkpt><trkpt lat="46.15432205928452" lon="10.154005112571548"><ele>1175.0</ele><time>2026-04-27T09:05:48.903Z</time></trkpt><trkpt lat="46.15428014734451" lon="10.153810315494786"><ele>1175.5</ele><time>2026-04-27T09:05:49.902Z</time></trkpt><trkpt lat="46.154245212722316" lon="10.15361165742903"><ele>1176.0</ele><time>2026-04-27T09:05:50.902Z</time></trkpt><trkpt lat="46.15419904117291" lon="10.153407579950679"><ele>1176.0</ele><time>2026-04-27T09:05:51.902Z</time></trkpt><trkpt lat="46.15416065694754" lon="10.153215367234939"><ele>1176.0</ele><time>2026-04-27T09:05:52.902Z</time></trkpt><trkpt lat="46.15412035052753" lon="10.153022398711256"><ele>1176.0</ele><time>2026-04-27T09:05:53.902Z</time></trkpt><trkpt lat="46.15407989624225" lon="10.152842320356237"><ele>1176.0</ele><time>2026-04-27T09:05:54.902Z</time></trkpt><trkpt lat="46.154047901342196" lon="10.152663448829209"><ele>1176.0</ele><time>2026-04-27T09:05:55.902Z</time></trkpt><trkpt lat="46.1540045211447" lon="10.152490900693918"><ele>1176.0</ele><time>2026-04-27T09:05:56.902Z</time></trkpt><trkpt lat="46.153963971638724" lon="10.152319966441645"><ele>1176.0</ele><time>2026-04-27T09:05:57.902Z</time></trkpt><trkpt lat="46.15392557036779" lon="10.152147974863105"><ele>1176.0</ele><time>2026-04-27T09:05:58.902Z</time></trkpt><trkpt lat="46.153891611054604" lon="10.151981800159383"><ele>1176.0</ele><time>2026-04-27T09:05:59.902Z</time></trkpt><trkpt lat="46.153856919573556" lon="10.151797409385066"><ele>1176.0</ele><time>2026-04-27T09:06:00.902Z</time></trkpt><trkpt lat="46.15382296141467" lon="10.1516344650402"><ele>1176.0</ele><time>2026-04-27T09:06:01.902Z</time></trkpt><trkpt lat="46.15379563970363" lon="10.151477676029812"><ele>1176.0</ele><time>2026-04-27T09:06:02.902Z</time></trkpt><trkpt lat="46.153763594304806" lon="10.151317627444573"><ele>1176.0</ele><time>2026-04-27T09:06:03.902Z</time></trkpt><trkpt lat="46.15373635610948" lon="10.15115332712927"><ele>1176.0</ele><time>2026-04-27T09:06:04.902Z</time></trkpt><trkpt lat="46.153702861922405" lon="10.15098812672286"><ele>1176.0</ele><time>2026-04-27T09:06:05.902Z</time></trkpt><trkpt lat="46.15367083315355" lon="10.150824140783595"><ele>1176.0</ele><time>2026-04-27T09:06:06.902Z</time></trkpt><trkpt lat="46.153638570252326" lon="10.150662963262487"><ele>1176.5</ele><time>2026-04-27T09:06:07.902Z</time></trkpt><trkpt lat="46.15360411886457" lon="10.150485831498234"><ele>1177.0</ele><time>2026-04-27T09:06:08.902Z</time></trkpt><trkpt lat="46.15357668443565" lon="10.150322502660847"><ele>1177.5</ele><time>2026-04-27T09:06:09.902Z</time></trkpt><trkpt lat="46.15354016387202" lon="10.15015059161125"><ele>1178.0</ele><time>2026-04-27T09:06:10.902Z</time></trkpt><trkpt lat="46.15352464190494" lon="10.149979002921713"><ele>1177.5</ele><time>2026-04-27T09:06:11.902Z</time></trkpt><trkpt lat="46.15351149346338" lon="10.149804011796993"><ele>1177.0</ele><time>2026-04-27T09:06:12.902Z</time></trkpt><trkpt lat="46.15350134764875" lon="10.14961899138068"><ele>1176.5</ele><time>2026-04-27T09:06:13.902Z</time></trkpt><trkpt lat="46.15350014308616" lon="10.149440888180836"><ele>1176.0</ele><time>2026-04-27T09:06:14.902Z</time></trkpt><trkpt lat="46.15349115658351" lon="10.149262146934438"><ele>1176.0</ele><time>2026-04-27T09:06:15.902Z</time></trkpt><trkpt lat="46.15349555260366" lon="10.14908393080637"><ele>1176.0</ele><time>2026-04-27T09:06:16.902Z</time></trkpt><trkpt lat="46.15349265567308" lon="10.148894081096383"><ele>1176.0</ele><time>2026-04-27T09:06:17.902Z</time></trkpt><trkpt lat="46.15348560266594" lon="10.148697244997079"><ele>1176.0</ele><time>2026-04-27T09:06:18.902Z</time></trkpt><trkpt lat="46.15347757434634" lon="10.148499047703067"><ele>1175.75</ele><time>2026-04-27T09:06:19.902Z</time></trkpt><trkpt lat="46.153481255287005" lon="10.148311741455899"><ele>1175.5</ele><time>2026-04-27T09:06:20.901Z</time></trkpt><trkpt lat="46.153477340425766" lon="10.148120506677891"><ele>1175.25</ele><time>2026-04-27T09:06:21.901Z</time></trkpt><trkpt lat="46.1534753094963" lon="10.147932084691195"><ele>1175.0</ele><time>2026-04-27T09:06:22.901Z</time></trkpt><trkpt lat="46.153477008873004" lon="10.147746577932658"><ele>1175.0</ele><time>2026-04-27T09:06:23.901Z</time></trkpt><trkpt lat="46.15346806132962" lon="10.147549245008706"><ele>1175.0</ele><time>2026-04-27T09:06:24.901Z</time></trkpt><trkpt lat="46.153458713930405" lon="10.147373429263675"><ele>1175.0</ele><time>2026-04-27T09:06:25.901Z</time></trkpt><trkpt lat="46.1534474458404" lon="10.147190512634689"><ele>1175.0</ele><time>2026-04-27T09:06:26.901Z</time></trkpt><trkpt lat="46.15343236533196" lon="10.147011059138823"><ele>1175.0</ele><time>2026-04-27T09:06:27.901Z</time></trkpt><trkpt lat="46.15340122613329" lon="10.14681868433078"><ele>1175.0</ele><time>2026-04-27T09:06:28.901Z</time></trkpt><trkpt lat="46.15335616647815" lon="10.146614357389993"><ele>1175.0</ele><time>2026-04-27T09:06:29.901Z</time></trkpt><trkpt lat="46.15329598825363" lon="10.146421133312211"><ele>1175.0</ele><time>2026-04-27T09:06:30.901Z</time></trkpt><trkpt lat="46.153229899957566" lon="10.14625439540943"><ele>1174.75</ele><time>2026-04-27T09:06:31.901Z</time></trkpt><trkpt lat="46.15316128939536" lon="10.146100848572694"><ele>1174.5</ele><time>2026-04-27T09:06:32.901Z</time></trkpt><trkpt lat="46.153094801385876" lon="10.145935367755722"><ele>1174.25</ele><time>2026-04-27T09:06:33.901Z</time></trkpt><trkpt lat="46.15303836418262" lon="10.14578112542702"><ele>1174.0</ele><time>2026-04-27T09:06:34.901Z</time></trkpt><trkpt lat="46.15297263686952" lon="10.14561673543321"><ele>1173.75</ele><time>2026-04-27T09:06:35.901Z</time></trkpt><trkpt lat="46.15289988352489" lon="10.145458291255952"><ele>1173.5</ele><time>2026-04-27T09:06:36.901Z</time></trkpt><trkpt lat="46.152837798056844" lon="10.145301980838015"><ele>1173.25</ele><time>2026-04-27T09:06:37.901Z</time></trkpt><trkpt lat="46.15276929564057" lon="10.14513912729489"><ele>1173.0</ele><time>2026-04-27T09:06:38.901Z</time></trkpt><trkpt lat="46.15271837024936" lon="10.144970660073884"><ele>1173.0</ele><time>2026-04-27T09:06:39.901Z</time></trkpt><trkpt lat="46.1526674922447" lon="10.144809690624133"><ele>1173.0</ele><time>2026-04-27T09:06:40.901Z</time></trkpt><trkpt lat="46.152614882786985" lon="10.14464298675615"><ele>1173.0</ele><time>2026-04-27T09:06:41.901Z</time></trkpt><trkpt lat="46.15256905253248" lon="10.144477222166959"><ele>1173.0</ele><time>2026-04-27T09:06:42.901Z</time></trkpt><trkpt lat="46.15252191128012" lon="10.144314600795829"><ele>1173.0</ele><time>2026-04-27T09:06:43.901Z</time></trkpt><trkpt lat="46.152459949235656" lon="10.144153971948327"><ele>1173.0</ele><time>2026-04-27T09:06:44.901Z</time></trkpt><trkpt lat="46.15239713812738" lon="10.144003381768336"><ele>1173.0</ele><time>2026-04-27T09:06:45.901Z</time></trkpt><trkpt lat="46.152330072223556" lon="10.143865455971394"><ele>1173.0</ele><time>2026-04-27T09:06:46.901Z</time></trkpt><trkpt lat="46.152257086792766" lon="10.143724719746588"><ele>1171.5</ele><time>2026-04-27T09:06:47.901Z</time></trkpt><trkpt lat="46.152187312437455" lon="10.143591308964135"><ele>1170.0</ele><time>2026-04-27T09:06:48.901Z</time></trkpt><trkpt lat="46.15211131489011" lon="10.143449055675877"><ele>1168.5</ele><time>2026-04-27T09:06:49.901Z</time></trkpt><trkpt lat="46.15203661561941" lon="10.143314978538967"><ele>1167.0</ele><time>2026-04-27T09:06:50.901Z</time></trkpt><trkpt lat="46.151975886867596" lon="10.143192255670616"><ele>1167.0</ele><time>2026-04-27T09:06:51.901Z</time></trkpt><trkpt lat="46.15191421783384" lon="10.143056325013115"><ele>1167.0</ele><time>2026-04-27T09:06:52.901Z</time></trkpt><trkpt lat="46.151866534034475" lon="10.142917077622688"><ele>1167.0</ele><time>2026-04-27T09:06:53.901Z</time></trkpt><trkpt lat="46.15181522868129" lon="10.142770798065328"><ele>1167.0</ele><time>2026-04-27T09:06:54.901Z</time></trkpt><trkpt lat="46.15176329990213" lon="10.142612621762634"><ele>1167.0</ele><time>2026-04-27T09:06:55.901Z</time></trkpt><trkpt lat="46.151707454225395" lon="10.142447122427132"><ele>1167.0</ele><time>2026-04-27T09:06:56.901Z</time></trkpt><trkpt lat="46.15166278286418" lon="10.142285876201985"><ele>1167.0</ele><time>2026-04-27T09:06:57.901Z</time></trkpt><trkpt lat="46.1516248100615" lon="10.14214392633562"><ele>1167.0</ele><time>2026-04-27T09:06:58.901Z</time></trkpt><trkpt lat="46.151590497615786" lon="10.142011033800607"><ele>1166.25</ele><time>2026-04-27T09:06:59.901Z</time></trkpt><trkpt lat="46.15157301937942" lon="10.141860167382557"><ele>1165.5</ele><time>2026-04-27T09:07:00.901Z</time></trkpt><trkpt lat="46.151535247325185" lon="10.141695387733726"><ele>1164.75</ele><time>2026-04-27T09:07:01.901Z</time></trkpt><trkpt lat="46.15150009124149" lon="10.141522468065558"><ele>1164.0</ele><time>2026-04-27T09:07:02.901Z</time></trkpt><trkpt lat="46.151489521800094" lon="10.141354231441067"><ele>1158.0</ele><time>2026-04-27T09:07:03.901Z</time></trkpt><trkpt lat="46.15149672062543" lon="10.14117341165553"><ele>1152.0</ele><time>2026-04-27T09:07:04.901Z</time></trkpt><trkpt lat="46.151496901754754" lon="10.140995811032392"><ele>1146.0</ele><time>2026-04-27T09:07:05.901Z</time></trkpt><trkpt lat="46.15150437636219" lon="10.140828157315845"><ele>1140.0</ele><time>2026-04-27T09:07:06.901Z</time></trkpt><trkpt lat="46.151520443788456" lon="10.140662780926487"><ele>1138.0</ele><time>2026-04-27T09:07:07.901Z</time></trkpt><trkpt lat="46.15151934013697" lon="10.140478735342985"><ele>1136.0</ele><time>2026-04-27T09:07:08.901Z</time></trkpt><trkpt lat="46.151510115688275" lon="10.140286878150265"><ele>1134.0</ele><time>2026-04-27T09:07:09.901Z</time></trkpt><trkpt lat="46.151489110720796" lon="10.140100153995865"><ele>1132.0</ele><time>2026-04-27T09:07:10.901Z</time></trkpt><trkpt lat="46.15145983047759" lon="10.139913340709874"><ele>1131.0</ele><time>2026-04-27T09:07:11.901Z</time></trkpt><trkpt lat="46.151430303819005" lon="10.139745866286317"><ele>1130.0</ele><time>2026-04-27T09:07:12.901Z</time></trkpt><trkpt lat="46.15138237010532" lon="10.139589489883278"><ele>1129.0</ele><time>2026-04-27T09:07:13.901Z</time></trkpt><trkpt lat="46.151323449949814" lon="10.139433624208273"><ele>1128.0</ele><time>2026-04-27T09:07:14.901Z</time></trkpt><trkpt lat="46.15126354869765" lon="10.13928776960166"><ele>1128.0</ele><time>2026-04-27T09:07:15.901Z</time></trkpt><trkpt lat="46.15120350197419" lon="10.139150612798296"><ele>1128.0</ele><time>2026-04-27T09:07:16.901Z</time></trkpt><trkpt lat="46.15115001517116" lon="10.139017626266"><ele>1128.0</ele><time>2026-04-27T09:07:17.901Z</time></trkpt><trkpt lat="46.15109885198042" lon="10.138859879958213"><ele>1128.0</ele><time>2026-04-27T09:07:18.901Z</time></trkpt><trkpt lat="46.151060319448895" lon="10.138686083892702"><ele>1127.5</ele><time>2026-04-27T09:07:19.901Z</time></trkpt><trkpt lat="46.15103084901662" lon="10.138503974436377"><ele>1127.0</ele><time>2026-04-27T09:07:20.901Z</time></trkpt><trkpt lat="46.15100163477066" lon="10.138330286202534"><ele>1126.5</ele><time>2026-04-27T09:07:21.901Z</time></trkpt><trkpt lat="46.15097646601729" lon="10.138156695193585"><ele>1126.0</ele><time>2026-04-27T09:07:22.901Z</time></trkpt><trkpt lat="46.150953721181175" lon="10.137985681146134"><ele>1127.5</ele><time>2026-04-27T09:07:23.901Z</time></trkpt><trkpt lat="46.15092712245377" lon="10.137818812022818"><ele>1129.0</ele><time>2026-04-27T09:07:24.901Z</time></trkpt><trkpt lat="46.150899765650806" lon="10.137646049903658"><ele>1130.5</ele><time>2026-04-27T09:07:25.9Z</time></trkpt><trkpt lat="46.150872962632334" lon="10.13746928498827"><ele>1132.0</ele><time>2026-04-27T09:07:26.9Z</time></trkpt><trkpt lat="46.15084430853923" lon="10.137317039804294"><ele>1133.0</ele><time>2026-04-27T09:07:27.9Z</time></trkpt><trkpt lat="46.15082613413097" lon="10.13717712554411"><ele>1134.0</ele><time>2026-04-27T09:07:28.9Z</time></trkpt><trkpt lat="46.150811570050585" lon="10.137046238380762"><ele>1135.0</ele><time>2026-04-27T09:07:29.9Z</time></trkpt><trkpt lat="46.15079494444974" lon="10.136926938061226"><ele>1136.0</ele><time>2026-04-27T09:07:30.9Z</time></trkpt><trkpt lat="46.150773398183766" lon="10.136835771822971"><ele>1137.0</ele><time>2026-04-27T09:07:31.9Z</time></trkpt><trkpt lat="46.15069082726066" lon="10.13678573414577"><ele>1138.0</ele><time>2026-04-27T09:07:33.9Z</time></trkpt><trkpt lat="46.15063594005389" lon="10.13683130618014"><ele>1132.6</ele><time>2026-04-27T09:07:34.9Z</time></trkpt><trkpt lat="46.1505876907165" lon="10.136942264969845"><ele>1127.1999999999998</ele><time>2026-04-27T09:07:35.9Z</time></trkpt><trkpt lat="46.15061054772729" lon="10.137065952589145"><ele>1121.8</ele><time>2026-04-27T09:07:36.9Z</time></trkpt><trkpt lat="46.150633946113985" lon="10.137208957567767"><ele>1116.3999999999999</ele><time>2026-04-27T09:07:37.9Z</time></trkpt><trkpt lat="46.15067065491838" lon="10.137383700028924"><ele>1111.0</ele><time>2026-04-27T09:07:38.9Z</time></trkpt><trkpt lat="46.15068772276014" lon="10.137569890525187"><ele>1114.0</ele><time>2026-04-27T09:07:39.9Z</time></trkpt><trkpt lat="46.15071171239387" lon="10.137725369067386"><ele>1117.0</ele><time>2026-04-27T09:07:40.9Z</time></trkpt><trkpt lat="46.150713412347365" lon="10.137873396513697"><ele>1120.0</ele><time>2026-04-27T09:07:41.9Z</time></trkpt><trkpt lat="46.15073852468068" lon="10.138014992782054"><ele>1123.0</ele><time>2026-04-27T09:07:42.9Z</time></trkpt><trkpt lat="46.15075386876439" lon="10.138132539112469"><ele>1126.0</ele><time>2026-04-27T09:07:43.9Z</time></trkpt><trkpt lat="46.15076716471631" lon="10.13823089493241"><ele>1126.0</ele><time>2026-04-27T09:07:44.9Z</time></trkpt><trkpt lat="46.15075690706331" lon="10.138353729342025"><ele>1126.0</ele><time>2026-04-27T09:07:46.9Z</time></trkpt><trkpt lat="46.15065942662429" lon="10.138337055661829"><ele>1126.0</ele><time>2026-04-27T09:07:48.9Z</time></trkpt><trkpt lat="46.150635522843324" lon="10.138160624060545"><ele>1126.0</ele><time>2026-04-27T09:07:50.9Z</time></trkpt><trkpt lat="46.15063624339083" lon="10.138065942333126"><ele>1126.0</ele><time>2026-04-27T09:07:51.9Z</time></trkpt><trkpt lat="46.1506290511089" lon="10.137916727431366"><ele>1122.25</ele><time>2026-04-27T09:07:52.901Z</time></trkpt><trkpt lat="46.15062121260237" lon="10.137753696432757"><ele>1118.5</ele><time>2026-04-27T09:07:53.9Z</time></trkpt><trkpt lat="46.15059713871853" lon="10.137571751731658"><ele>1114.75</ele><time>2026-04-27T09:07:54.9Z</time></trkpt><trkpt lat="46.150553237140585" lon="10.137397164237386"><ele>1111.0</ele><time>2026-04-27T09:07:55.901Z</time></trkpt><trkpt lat="46.15050844356458" lon="10.137208175954557"><ele>1109.5</ele><time>2026-04-27T09:07:56.9Z</time></trkpt><trkpt lat="46.15046147229112" lon="10.137024303150133"><ele>1108.0</ele><time>2026-04-27T09:07:57.9Z</time></trkpt><trkpt lat="46.150418862909156" lon="10.136836320931168"><ele>1106.5</ele><time>2026-04-27T09:07:58.9Z</time></trkpt><trkpt lat="46.15039195213055" lon="10.136631275799713"><ele>1105.0</ele><time>2026-04-27T09:07:59.901Z</time></trkpt><trkpt lat="46.15037599281753" lon="10.136429355778615"><ele>1103.25</ele><time>2026-04-27T09:08:00.901Z</time></trkpt><trkpt lat="46.15036591424675" lon="10.136243106052808"><ele>1101.5</ele><time>2026-04-27T09:08:01.9Z</time></trkpt><trkpt lat="46.15035058822024" lon="10.136049895005138"><ele>1099.75</ele><time>2026-04-27T09:08:02.9Z</time></trkpt><trkpt lat="46.15033192888029" lon="10.135857918399308"><ele>1098.0</ele><time>2026-04-27T09:08:03.9Z</time></trkpt><trkpt lat="46.150294608809034" lon="10.135666141734944"><ele>1096.5</ele><time>2026-04-27T09:08:04.9Z</time></trkpt><trkpt lat="46.15023814771087" lon="10.135499891764956"><ele>1095.0</ele><time>2026-04-27T09:08:05.9Z</time></trkpt><trkpt lat="46.15018794317476" lon="10.135349065123384"><ele>1093.5</ele><time>2026-04-27T09:08:06.9Z</time></trkpt><trkpt lat="46.150142504902526" lon="10.135209531717166"><ele>1092.0</ele><time>2026-04-27T09:08:07.9Z</time></trkpt><trkpt lat="46.150106391675344" lon="10.135068475806744"><ele>1092.0</ele><time>2026-04-27T09:08:08.9Z</time></trkpt><trkpt lat="46.15007945368492" lon="10.13495062780647"><ele>1092.0</ele><time>2026-04-27T09:08:09.9Z</time></trkpt><trkpt lat="46.15005557779436" lon="10.134841874391405"><ele>1092.0</ele><time>2026-04-27T09:08:10.9Z</time></trkpt><trkpt lat="46.15003262139646" lon="10.134732250807867"><ele>1092.0</ele><time>2026-04-27T09:08:11.9Z</time></trkpt><trkpt lat="46.15001106800375" lon="10.134624267655893"><ele>1092.0</ele><time>2026-04-27T09:08:12.9Z</time></trkpt><trkpt lat="46.14999901868176" lon="10.13449597933862"><ele>1092.0</ele><time>2026-04-27T09:08:14.9Z</time></trkpt><trkpt lat="46.149969391956446" lon="10.134414293374645"><ele>1092.0</ele><time>2026-04-27T09:08:17.9Z</time></trkpt><trkpt lat="46.149902759301625" lon="10.1346028959674"><ele>1092.0</ele><time>2026-04-27T09:08:21.9Z</time></trkpt><trkpt lat="46.149897235374766" lon="10.134696752325974"><ele>1092.0</ele><time>2026-04-27T09:08:22.9Z</time></trkpt><trkpt lat="46.14988598464635" lon="10.134802041520919"><ele>1092.0</ele><time>2026-04-27T09:08:23.9Z</time></trkpt><trkpt lat="46.149875685492745" lon="10.134925517349298"><ele>1092.0</ele><time>2026-04-27T09:08:24.9Z</time></trkpt><trkpt lat="46.149868976751875" lon="10.135017798001025"><ele>1092.0</ele><time>2026-04-27T09:08:25.9Z</time></trkpt><trkpt lat="46.14986199867467" lon="10.135129198061474"><ele>1091.3333333333333</ele><time>2026-04-27T09:08:27.9Z</time></trkpt><trkpt lat="46.149834666034934" lon="10.135236966951702"><ele>1090.6666666666667</ele><time>2026-04-27T09:08:30.9Z</time></trkpt><trkpt lat="46.149785822582224" lon="10.135324557915403"><ele>1090.0</ele><time>2026-04-27T09:08:33.899Z</time></trkpt><trkpt lat="46.149869232674156" lon="10.135288653965576"><ele>1089.3333333333335</ele><time>2026-04-27T09:09:05.899Z</time></trkpt><trkpt lat="46.14981357044052" lon="10.13522401248488"><ele>1088.6666666666667</ele><time>2026-04-27T09:09:07.899Z</time></trkpt><trkpt lat="46.14976542971369" lon="10.135135382845247"><ele>1088.0</ele><time>2026-04-27T09:09:09.899Z</time></trkpt><trkpt lat="46.14971471197321" lon="10.135009221532812"><ele>1085.8</ele><time>2026-04-27T09:09:11.899Z</time></trkpt><trkpt lat="46.149710989255844" lon="10.134859403567747"><ele>1083.6</ele><time>2026-04-27T09:09:13.899Z</time></trkpt><trkpt lat="46.14972136569783" lon="10.134731727242949"><ele>1081.4</ele><time>2026-04-27T09:09:15.899Z</time></trkpt><trkpt lat="46.14969481196101" lon="10.13461179034764"><ele>1079.2</ele><time>2026-04-27T09:09:17.899Z</time></trkpt><trkpt lat="46.14969853077546" lon="10.134497859704478"><ele>1077.0</ele><time>2026-04-27T09:09:19.899Z</time></trkpt><trkpt lat="46.14965935936088" lon="10.134351737235194"><ele>1077.0</ele><time>2026-04-27T09:09:21.899Z</time></trkpt><trkpt lat="46.149614033548055" lon="10.134205305472484"><ele>1077.0</ele><time>2026-04-27T09:09:23.899Z</time></trkpt><trkpt lat="46.14956794545616" lon="10.134056562991425"><ele>1077.0</ele><time>2026-04-27T09:09:25.899Z</time></trkpt><trkpt lat="46.14954546838986" lon="10.133965369424724"><ele>1077.0</ele><time>2026-04-27T09:09:26.899Z</time></trkpt><trkpt lat="46.149526225043836" lon="10.133864961515508"><ele>1077.0</ele><time>2026-04-27T09:09:27.899Z</time></trkpt><trkpt lat="46.14951299340846" lon="10.133773227054945"><ele>1077.0</ele><time>2026-04-27T09:09:28.899Z</time></trkpt><trkpt lat="46.149493355932705" lon="10.133671761977176"><ele>1076.5</ele><time>2026-04-27T09:09:29.899Z</time></trkpt><trkpt lat="46.1494712023005" lon="10.133567339986147"><ele>1076.0</ele><time>2026-04-27T09:09:30.899Z</time></trkpt><trkpt lat="46.14944956081642" lon="10.133456248134355"><ele>1075.5</ele><time>2026-04-27T09:09:31.899Z</time></trkpt><trkpt lat="46.149426816452404" lon="10.133354315365523"><ele>1075.0</ele><time>2026-04-27T09:09:32.899Z</time></trkpt><trkpt lat="46.14940521270091" lon="10.133243380770883"><ele>1074.5</ele><time>2026-04-27T09:09:33.899Z</time></trkpt><trkpt lat="46.149388701469306" lon="10.133133518033823"><ele>1074.0</ele><time>2026-04-27T09:09:34.899Z</time></trkpt><trkpt lat="46.149367502853046" lon="10.133025592156846"><ele>1073.3333333333333</ele><time>2026-04-27T09:09:35.899Z</time></trkpt><trkpt lat="46.14935357008318" lon="10.132919901326765"><ele>1072.6666666666667</ele><time>2026-04-27T09:09:36.899Z</time></trkpt><trkpt lat="46.149339850116355" lon="10.132816308743033"><ele>1072.0</ele><time>2026-04-27T09:09:37.898Z</time></trkpt><trkpt lat="46.14932518705595" lon="10.132706179660866"><ele>1071.3333333333335</ele><time>2026-04-27T09:09:38.898Z</time></trkpt><trkpt lat="46.14931571971901" lon="10.132597907022332"><ele>1070.6666666666667</ele><time>2026-04-27T09:09:39.898Z</time></trkpt><trkpt lat="46.14929826952009" lon="10.132477587480755"><ele>1070.0</ele><time>2026-04-27T09:09:40.898Z</time></trkpt><trkpt lat="46.149284921209954" lon="10.13234359612083"><ele>1068.8</ele><time>2026-04-27T09:09:41.898Z</time></trkpt><trkpt lat="46.149293241542225" lon="10.132207430078841"><ele>1067.6</ele><time>2026-04-27T09:09:42.898Z</time></trkpt><trkpt lat="46.149301599367575" lon="10.132054787962483"><ele>1066.4</ele><time>2026-04-27T09:09:43.898Z</time></trkpt><trkpt lat="46.14931103960508" lon="10.131904543004676"><ele>1065.2</ele><time>2026-04-27T09:09:44.898Z</time></trkpt><trkpt lat="46.14932148726908" lon="10.13174403873821"><ele>1064.0</ele><time>2026-04-27T09:09:45.898Z</time></trkpt><trkpt lat="46.14932242902683" lon="10.131583106074617"><ele>1063.1666666666667</ele><time>2026-04-27T09:09:46.898Z</time></trkpt><trkpt lat="46.14933045576966" lon="10.131438799600085"><ele>1062.3333333333335</ele><time>2026-04-27T09:09:47.898Z</time></trkpt><trkpt lat="46.14934524262048" lon="10.131313625862731"><ele>1061.5</ele><time>2026-04-27T09:09:48.898Z</time></trkpt><trkpt lat="46.149356807893014" lon="10.131184946044483"><ele>1060.6666666666667</ele><time>2026-04-27T09:09:49.898Z</time></trkpt><trkpt lat="46.14937436334834" lon="10.13107204130909"><ele>1059.8333333333333</ele><time>2026-04-27T09:09:50.898Z</time></trkpt><trkpt lat="46.149380560483074" lon="10.130963281253333"><ele>1059.0</ele><time>2026-04-27T09:09:51.898Z</time></trkpt><trkpt lat="46.149386315890965" lon="10.130835458151056"><ele>1058.0</ele><time>2026-04-27T09:09:53.898Z</time></trkpt><trkpt lat="46.14939237250966" lon="10.130691508784842"><ele>1057.0</ele><time>2026-04-27T09:09:56.898Z</time></trkpt><trkpt lat="46.14939827050425" lon="10.130511009187673"><ele>1056.0</ele><time>2026-04-27T09:09:58.898Z</time></trkpt><trkpt lat="46.14939741271309" lon="10.130409521684248"><ele>1055.0</ele><time>2026-04-27T09:09:59.898Z</time></trkpt><trkpt lat="46.1494001263589" lon="10.130245749381146"><ele>1054.0</ele><time>2026-04-27T09:10:01.898Z</time></trkpt><trkpt lat="46.14940711823192" lon="10.130067200409469"><ele>1054.0</ele><time>2026-04-27T09:10:03.899Z</time></trkpt><trkpt lat="46.14943134261208" lon="10.129971417708585"><ele>1054.0</ele><time>2026-04-27T09:10:04.899Z</time></trkpt><trkpt lat="46.1494685460687" lon="10.129856680779643"><ele>1054.0</ele><time>2026-04-27T09:10:05.899Z</time></trkpt><trkpt lat="46.14948125224242" lon="10.129732270266437"><ele>1054.0</ele><time>2026-04-27T09:10:06.899Z</time></trkpt><trkpt lat="46.149479309248775" lon="10.129573152973945"><ele>1054.0</ele><time>2026-04-27T09:10:07.899Z</time></trkpt><trkpt lat="46.14947973665455" lon="10.129441585799725"><ele>1054.0</ele><time>2026-04-27T09:10:08.898Z</time></trkpt><trkpt lat="46.149487764008214" lon="10.129350826599719"><ele>1053.5</ele><time>2026-04-27T09:10:09.898Z</time></trkpt><trkpt lat="46.14949271980199" lon="10.12925286271635"><ele>1053.0</ele><time>2026-04-27T09:10:11.898Z</time></trkpt><trkpt lat="46.14952951048862" lon="10.1291598998472"><ele>1052.5</ele><time>2026-04-27T09:10:17.898Z</time></trkpt><trkpt lat="46.14955566656804" lon="10.129030209972656"><ele>1052.0</ele><time>2026-04-27T09:10:19.898Z</time></trkpt><trkpt lat="46.1495786216595" lon="10.128920939507752"><ele>1051.5</ele><time>2026-04-27T09:10:20.898Z</time></trkpt><trkpt lat="46.14960714592078" lon="10.128770732095088"><ele>1051.0</ele><time>2026-04-27T09:10:21.898Z</time></trkpt><trkpt lat="46.14963197421273" lon="10.128625291217862"><ele>1048.75</ele><time>2026-04-27T09:10:22.898Z</time></trkpt><trkpt lat="46.14968240593978" lon="10.128469123065123"><ele>1046.5</ele><time>2026-04-27T09:10:23.898Z</time></trkpt><trkpt lat="46.14972659484755" lon="10.128286099210989"><ele>1044.25</ele><time>2026-04-27T09:10:24.898Z</time></trkpt><trkpt lat="46.14977859379584" lon="10.128120498737951"><ele>1042.0</ele><time>2026-04-27T09:10:25.898Z</time></trkpt><trkpt lat="46.14982856309177" lon="10.127992619193298"><ele>1044.75</ele><time>2026-04-27T09:10:26.898Z</time></trkpt><trkpt lat="46.149888571261556" lon="10.127889551158264"><ele>1047.5</ele><time>2026-04-27T09:10:27.898Z</time></trkpt><trkpt lat="46.14994389665892" lon="10.127733738043725"><ele>1050.25</ele><time>2026-04-27T09:10:28.898Z</time></trkpt><trkpt lat="46.15001260043567" lon="10.127592800798112"><ele>1053.0</ele><time>2026-04-27T09:10:29.898Z</time></trkpt><trkpt lat="46.15010304406562" lon="10.127457688938359"><ele>1048.5</ele><time>2026-04-27T09:10:30.898Z</time></trkpt><trkpt lat="46.15019481861868" lon="10.127320564288215"><ele>1044.0</ele><time>2026-04-27T09:10:31.898Z</time></trkpt><trkpt lat="46.150267442663946" lon="10.127182103567332"><ele>1039.5</ele><time>2026-04-27T09:10:32.898Z</time></trkpt><trkpt lat="46.15031897886996" lon="10.12703112227979"><ele>1035.0</ele><time>2026-04-27T09:10:33.898Z</time></trkpt><trkpt lat="46.15035260327011" lon="10.126874234592313"><ele>1035.0</ele><time>2026-04-27T09:10:34.898Z</time></trkpt><trkpt lat="46.15036879328818" lon="10.126666746627643"><ele>1035.0</ele><time>2026-04-27T09:10:35.898Z</time></trkpt><trkpt lat="46.15035466663146" lon="10.126487284207828"><ele>1035.0</ele><time>2026-04-27T09:10:36.898Z</time></trkpt><trkpt lat="46.15034015166346" lon="10.126309458267697"><ele>1035.0</ele><time>2026-04-27T09:10:37.898Z</time></trkpt><trkpt lat="46.15033142005377" lon="10.12612877101358"><ele>1031.25</ele><time>2026-04-27T09:10:38.898Z</time></trkpt><trkpt lat="46.1503208652592" lon="10.125954056211198"><ele>1027.5</ele><time>2026-04-27T09:10:39.898Z</time></trkpt><trkpt lat="46.150316028091126" lon="10.125751651616534"><ele>1023.75</ele><time>2026-04-27T09:10:40.898Z</time></trkpt><trkpt lat="46.15034195491905" lon="10.125568387615848"><ele>1020.0</ele><time>2026-04-27T09:10:41.898Z</time></trkpt><trkpt lat="46.1503883229113" lon="10.125393677859428"><ele>1016.75</ele><time>2026-04-27T09:10:42.898Z</time></trkpt><trkpt lat="46.150431063475914" lon="10.125227887576129"><ele>1013.5</ele><time>2026-04-27T09:10:43.898Z</time></trkpt><trkpt lat="46.15046807923974" lon="10.125071254298243"><ele>1010.25</ele><time>2026-04-27T09:10:44.898Z</time></trkpt><trkpt lat="46.150505846963725" lon="10.12490113447229"><ele>1007.0</ele><time>2026-04-27T09:10:45.898Z</time></trkpt><trkpt lat="46.15053342587185" lon="10.124717277704033"><ele>1003.75</ele><time>2026-04-27T09:10:46.898Z</time></trkpt><trkpt lat="46.15056933889693" lon="10.12452512433158"><ele>1000.5</ele><time>2026-04-27T09:10:47.898Z</time></trkpt><trkpt lat="46.150602232675666" lon="10.12434591873294"><ele>997.25</ele><time>2026-04-27T09:10:48.898Z</time></trkpt><trkpt lat="46.1506134624251" lon="10.12415950295058"><ele>994.0</ele><time>2026-04-27T09:10:49.898Z</time></trkpt><trkpt lat="46.150604054300565" lon="10.123979517339848"><ele>989.9999999999999</ele><time>2026-04-27T09:10:50.898Z</time></trkpt><trkpt lat="46.15059485738151" lon="10.123823451760558"><ele>986.0</ele><time>2026-04-27T09:10:51.898Z</time></trkpt><trkpt lat="46.15058184233928" lon="10.123685296005965"><ele>982.0</ele><time>2026-04-27T09:10:52.898Z</time></trkpt><trkpt lat="46.150571325288794" lon="10.12355781294654"><ele>978.0</ele><time>2026-04-27T09:10:53.898Z</time></trkpt><trkpt lat="46.150570843567884" lon="10.123466325792693"><ele>973.9999999999999</ele><time>2026-04-27T09:10:54.898Z</time></trkpt><trkpt lat="46.1505648946593" lon="10.123337419691307"><ele>970.0</ele><time>2026-04-27T09:10:56.898Z</time></trkpt><trkpt lat="46.150570073165156" lon="10.123221294676569"><ele>970.0</ele><time>2026-04-27T09:10:59.898Z</time></trkpt><trkpt lat="46.150542740852586" lon="10.123352702188768"><ele>970.0</ele><time>2026-04-27T09:11:06.898Z</time></trkpt><trkpt lat="46.15054575687995" lon="10.123472594560887"><ele>970.0</ele><time>2026-04-27T09:11:08.898Z</time></trkpt><trkpt lat="46.15044262179742" lon="10.123595592175164"><ele>970.0</ele><time>2026-04-27T09:11:09.897Z</time></trkpt><trkpt lat="46.150440223302716" lon="10.12369176709693"><ele>970.0</ele><time>2026-04-27T09:11:10.897Z</time></trkpt><trkpt lat="46.150434201837655" lon="10.12379604738346"><ele>969.9999999999999</ele><time>2026-04-27T09:11:11.897Z</time></trkpt><trkpt lat="46.15042230668678" lon="10.123902791865175"><ele>970.0</ele><time>2026-04-27T09:11:12.897Z</time></trkpt><trkpt lat="46.1504046171648" lon="10.12399845875989"><ele>970.0</ele><time>2026-04-27T09:11:13.897Z</time></trkpt><trkpt lat="46.15037764074618" lon="10.124100691964609"><ele>970.0</ele><time>2026-04-27T09:11:14.897Z</time></trkpt><trkpt lat="46.15033663300895" lon="10.12423407156522"><ele>969.9999999999999</ele><time>2026-04-27T09:11:15.897Z</time></trkpt><trkpt lat="46.15029699473901" lon="10.124381664799584"><ele>970.0</ele><time>2026-04-27T09:11:16.897Z</time></trkpt><trkpt lat="46.15026398158091" lon="10.12450903223652"><ele>974.8</ele><time>2026-04-27T09:11:17.897Z</time></trkpt><trkpt lat="46.15021310327085" lon="10.124627769652614"><ele>979.6</ele><time>2026-04-27T09:11:18.897Z</time></trkpt><trkpt lat="46.15014642815517" lon="10.124754671226746"><ele>984.4000000000001</ele><time>2026-04-27T09:11:19.897Z</time></trkpt><trkpt lat="46.15008963439613" lon="10.124879126033345"><ele>989.2</ele><time>2026-04-27T09:11:20.897Z</time></trkpt><trkpt lat="46.150033161136555" lon="10.125007777104654"><ele>994.0</ele><time>2026-04-27T09:11:21.897Z</time></trkpt><trkpt lat="46.14997121522459" lon="10.125156782937273"><ele>995.4000000000001</ele><time>2026-04-27T09:11:22.897Z</time></trkpt><trkpt lat="46.149927472238375" lon="10.125298574504441"><ele>996.8000000000001</ele><time>2026-04-27T09:11:23.897Z</time></trkpt><trkpt lat="46.14989181670264" lon="10.125454987055901"><ele>998.1999999999999</ele><time>2026-04-27T09:11:24.897Z</time></trkpt><trkpt lat="46.149878181161085" lon="10.125595584351515"><ele>999.5999999999999</ele><time>2026-04-27T09:11:25.897Z</time></trkpt><trkpt lat="46.149832118700246" lon="10.12571767792317"><ele>1001.0</ele><time>2026-04-27T09:11:26.897Z</time></trkpt><trkpt lat="46.14980058552927" lon="10.125846003461902"><ele>1001.0</ele><time>2026-04-27T09:11:27.897Z</time></trkpt><trkpt lat="46.14978056996276" lon="10.125977208017124"><ele>1000.9999999999999</ele><time>2026-04-27T09:11:28.897Z</time></trkpt><trkpt lat="46.14977124335994" lon="10.126088612966385"><ele>1000.9999999999999</ele><time>2026-04-27T09:11:29.897Z</time></trkpt><trkpt lat="46.149753674853464" lon="10.12627936305567"><ele>1001.0</ele><time>2026-04-27T09:11:31.897Z</time></trkpt><trkpt lat="46.149699600483196" lon="10.126363134466468"><ele>1001.0</ele><time>2026-04-27T09:11:32.897Z</time></trkpt><trkpt lat="46.14962031003129" lon="10.126424708659194"><ele>1001.0000000000001</ele><time>2026-04-27T09:11:33.897Z</time></trkpt><trkpt lat="46.14953814196878" lon="10.126429055614983"><ele>1001.0</ele><time>2026-04-27T09:11:34.897Z</time></trkpt><trkpt lat="46.149427860553146" lon="10.126454296570035"><ele>1001.0</ele><time>2026-04-27T09:11:36.897Z</time></trkpt><trkpt lat="46.149362212068006" lon="10.12644215402245"><ele>1001.0</ele><time>2026-04-27T09:11:37.897Z</time></trkpt><trkpt lat="46.149297598631385" lon="10.126391365219538"><ele>1001.0000000000001</ele><time>2026-04-27T09:11:38.897Z</time></trkpt><trkpt lat="46.14924529801106" lon="10.126282171970772"><ele>1001.0</ele><time>2026-04-27T09:11:39.897Z</time></trkpt><trkpt lat="46.1492204223029" lon="10.126183502626217"><ele>1001.0</ele><time>2026-04-27T09:11:40.897Z</time></trkpt><trkpt lat="46.1491896393442" lon="10.126061280298547"><ele>1000.9999999999999</ele><time>2026-04-27T09:11:41.897Z</time></trkpt><trkpt lat="46.149138089029215" lon="10.125912476982595"><ele>1000.9999999999999</ele><time>2026-04-27T09:11:42.897Z</time></trkpt><trkpt lat="46.149075684689315" lon="10.125772456345684"><ele>1001.0</ele><time>2026-04-27T09:11:43.897Z</time></trkpt><trkpt lat="46.14900225884689" lon="10.125623842956553"><ele>1001.0</ele><time>2026-04-27T09:11:44.897Z</time></trkpt><trkpt lat="46.14893730545672" lon="10.125473703074041"><ele>1002.1999999999999</ele><time>2026-04-27T09:11:45.897Z</time></trkpt><trkpt lat="46.14886610392305" lon="10.12534593026204"><ele>1003.3999999999999</ele><time>2026-04-27T09:11:46.897Z</time></trkpt><trkpt lat="46.14881437233894" lon="10.125213334566054"><ele>1004.6</ele><time>2026-04-27T09:11:47.897Z</time></trkpt><trkpt lat="46.14876382140458" lon="10.125106019411822"><ele>1005.8</ele><time>2026-04-27T09:11:48.897Z</time></trkpt><trkpt lat="46.14872599494638" lon="10.124987157426174"><ele>1007.0</ele><time>2026-04-27T09:11:49.897Z</time></trkpt><trkpt lat="46.14867610276112" lon="10.124832288143084"><ele>1001.5</ele><time>2026-04-27T09:11:50.897Z</time></trkpt><trkpt lat="46.148619988251035" lon="10.124655505797985"><ele>996.0</ele><time>2026-04-27T09:11:51.897Z</time></trkpt><trkpt lat="46.148566725389365" lon="10.124488235180456"><ele>990.5</ele><time>2026-04-27T09:11:52.897Z</time></trkpt><trkpt lat="46.148519470284704" lon="10.124342526083929"><ele>985.0</ele><time>2026-04-27T09:11:53.897Z</time></trkpt><trkpt lat="46.14846691081052" lon="10.124220501274129"><ele>985.0</ele><time>2026-04-27T09:11:54.897Z</time></trkpt><trkpt lat="46.14839944195367" lon="10.12410238408897"><ele>985.0</ele><time>2026-04-27T09:11:55.897Z</time></trkpt><trkpt lat="46.14830801748291" lon="10.123978603437095"><ele>985.0</ele><time>2026-04-27T09:11:56.897Z</time></trkpt><trkpt lat="46.14824471868003" lon="10.12382017233896"><ele>985.0</ele><time>2026-04-27T09:11:57.897Z</time></trkpt><trkpt lat="46.14817886480981" lon="10.12366294520348"><ele>983.6</ele><time>2026-04-27T09:11:58.897Z</time></trkpt><trkpt lat="46.14811658748457" lon="10.123508797919962"><ele>982.2</ele><time>2026-04-27T09:11:59.897Z</time></trkpt><trkpt lat="46.148056891219426" lon="10.123369666700222"><ele>980.8</ele><time>2026-04-27T09:12:00.897Z</time></trkpt><trkpt lat="46.14801460218089" lon="10.12324258688408"><ele>979.4</ele><time>2026-04-27T09:12:01.897Z</time></trkpt><trkpt lat="46.147982802177516" lon="10.123126077174776"><ele>978.0</ele><time>2026-04-27T09:12:02.897Z</time></trkpt><trkpt lat="46.14795326991793" lon="10.123024417455234"><ele>972.1666666666666</ele><time>2026-04-27T09:12:03.897Z</time></trkpt><trkpt lat="46.14792194325743" lon="10.122927909979438"><ele>966.3333333333333</ele><time>2026-04-27T09:12:04.897Z</time></trkpt><trkpt lat="46.14788336898061" lon="10.12285607735938"><ele>960.5</ele><time>2026-04-27T09:12:05.897Z</time></trkpt><trkpt lat="46.147831315980525" lon="10.122795869403094"><ele>954.6666666666666</ele><time>2026-04-27T09:12:06.897Z</time></trkpt><trkpt lat="46.147758409196456" lon="10.12272302692429"><ele>948.8333333333333</ele><time>2026-04-27T09:12:07.897Z</time></trkpt><trkpt lat="46.14766492853606" lon="10.122657395635333"><ele>943.0</ele><time>2026-04-27T09:12:09.897Z</time></trkpt><trkpt lat="46.14754279854598" lon="10.122638230240868"><ele>943.0</ele><time>2026-04-27T09:12:11.897Z</time></trkpt><trkpt lat="46.147466347587375" lon="10.122640708914478"><ele>943.0</ele><time>2026-04-27T09:12:12.897Z</time></trkpt><trkpt lat="46.14738142340059" lon="10.12269192389083"><ele>943.0</ele><time>2026-04-27T09:12:13.897Z</time></trkpt><trkpt lat="46.1472827114281" lon="10.122768082897332"><ele>943.0</ele><time>2026-04-27T09:12:14.897Z</time></trkpt><trkpt lat="46.147186202067935" lon="10.122857217807244"><ele>943.0</ele><time>2026-04-27T09:12:15.897Z</time></trkpt><trkpt lat="46.14710095601839" lon="10.122968524704996"><ele>945.75</ele><time>2026-04-27T09:12:16.897Z</time></trkpt><trkpt lat="46.1470214795178" lon="10.123095487430891"><ele>948.5</ele><time>2026-04-27T09:12:17.897Z</time></trkpt><trkpt lat="46.146921441233886" lon="10.12318527708589"><ele>951.25</ele><time>2026-04-27T09:12:18.897Z</time></trkpt><trkpt lat="46.14682781626404" lon="10.123288725367413"><ele>954.0</ele><time>2026-04-27T09:12:19.897Z</time></trkpt><trkpt lat="46.146748116926126" lon="10.123384480154183"><ele>954.0</ele><time>2026-04-27T09:12:20.897Z</time></trkpt><trkpt lat="46.14667245317082" lon="10.123468533272625"><ele>954.0000000000001</ele><time>2026-04-27T09:12:21.897Z</time></trkpt><trkpt lat="46.146612093025176" lon="10.123563023143719"><ele>954.0000000000001</ele><time>2026-04-27T09:12:22.897Z</time></trkpt><trkpt lat="46.14651911046334" lon="10.123665139724077"><ele>954.0</ele><time>2026-04-27T09:12:24.897Z</time></trkpt><trkpt lat="46.14639508463893" lon="10.123718474476357"><ele>954.0</ele><time>2026-04-27T09:12:26.897Z</time></trkpt><trkpt lat="46.14630786608627" lon="10.12371532493442"><ele>951.0</ele><time>2026-04-27T09:12:27.897Z</time></trkpt><trkpt lat="46.1461980206106" lon="10.123693246107925"><ele>948.0000000000001</ele><time>2026-04-27T09:12:28.897Z</time></trkpt><trkpt lat="46.14609079871694" lon="10.123673036467755"><ele>945.0000000000001</ele><time>2026-04-27T09:12:29.897Z</time></trkpt><trkpt lat="46.14599584466109" lon="10.1236563229564"><ele>942.0</ele><time>2026-04-27T09:12:30.897Z</time></trkpt><trkpt lat="46.145912249187134" lon="10.123639209994204"><ele>939.0</ele><time>2026-04-27T09:12:31.897Z</time></trkpt><trkpt lat="46.14583557607886" lon="10.123596126805273"><ele>939.0</ele><time>2026-04-27T09:12:32.897Z</time></trkpt><trkpt lat="46.14577030703555" lon="10.12359130567479"><ele>939.0</ele><time>2026-04-27T09:12:33.897Z</time></trkpt><trkpt lat="46.14570525935157" lon="10.123525890015713"><ele>939.0</ele><time>2026-04-27T09:12:34.897Z</time></trkpt><trkpt lat="46.14565304514334" lon="10.123434567414233"><ele>939.0</ele><time>2026-04-27T09:12:35.897Z</time></trkpt><trkpt lat="46.14559684191366" lon="10.12338543855935"><ele>939.0</ele><time>2026-04-27T09:12:36.897Z</time></trkpt><trkpt lat="46.145480618436125" lon="10.1232963533841"><ele>939.0</ele><time>2026-04-27T09:12:38.897Z</time></trkpt><trkpt lat="46.14540421928933" lon="10.1232822222141"><ele>938.4000000000001</ele><time>2026-04-27T09:12:39.897Z</time></trkpt><trkpt lat="46.14530392892748" lon="10.123272699927252"><ele>937.8000000000001</ele><time>2026-04-27T09:12:40.897Z</time></trkpt><trkpt lat="46.14520206883653" lon="10.123264765482373"><ele>937.1999999999999</ele><time>2026-04-27T09:12:41.897Z</time></trkpt><trkpt lat="46.145105954882496" lon="10.123257278640567"><ele>936.5999999999999</ele><time>2026-04-27T09:12:42.897Z</time></trkpt><trkpt lat="46.14502745276099" lon="10.123251163683278"><ele>936.0</ele><time>2026-04-27T09:12:43.897Z</time></trkpt><trkpt lat="46.14494840067933" lon="10.123229972320638"><ele>936.0</ele><time>2026-04-27T09:12:44.897Z</time></trkpt><trkpt lat="46.144865385329076" lon="10.123256718479995"><ele>936.0</ele><time>2026-04-27T09:12:45.897Z</time></trkpt><trkpt lat="46.144793285162066" lon="10.123315912546246"><ele>936.0</ele><time>2026-04-27T09:12:46.898Z</time></trkpt><trkpt lat="46.14471227747057" lon="10.123355639194894"><ele>936.0</ele><time>2026-04-27T09:12:47.899Z</time></trkpt><trkpt lat="46.14464946362557" lon="10.12338533560282"><ele>936.0</ele><time>2026-04-27T09:12:48.9Z</time></trkpt><trkpt lat="46.14456237755057" lon="10.123409102374683"><ele>936.0</ele><time>2026-04-27T09:12:49.901Z</time></trkpt><trkpt lat="46.144484030035585" lon="10.123400288993997"><ele>936.0</ele><time>2026-04-27T09:12:50.902Z</time></trkpt><trkpt lat="46.14441143851242" lon="10.12336699454713"><ele>936.0000000000001</ele><time>2026-04-27T09:12:51.903Z</time></trkpt><trkpt lat="46.14434879157346" lon="10.123327146103975"><ele>936.0</ele><time>2026-04-27T09:12:52.903Z</time></trkpt><trkpt lat="46.14427754678844" lon="10.123300291667242"><ele>936.0</ele><time>2026-04-27T09:12:53.904Z</time></trkpt><trkpt lat="46.14421214069706" lon="10.123294443214615"><ele>936.0000000000001</ele><time>2026-04-27T09:12:54.904Z</time></trkpt><trkpt lat="46.14412774015338" lon="10.12329716703707"><ele>936.0</ele><time>2026-04-27T09:12:55.905Z</time></trkpt><trkpt lat="46.14404957762985" lon="10.123310375345156"><ele>936.0</ele><time>2026-04-27T09:12:56.905Z</time></trkpt><trkpt lat="46.14396863617898" lon="10.123360790003016"><ele>932.8</ele><time>2026-04-27T09:12:57.906Z</time></trkpt><trkpt lat="46.14390323445674" lon="10.123424917293"><ele>929.5999999999999</ele><time>2026-04-27T09:12:58.906Z</time></trkpt><trkpt lat="46.14382329213316" lon="10.123525587972937"><ele>926.4</ele><time>2026-04-27T09:12:59.907Z</time></trkpt><trkpt lat="46.14374818708096" lon="10.12357019459194"><ele>923.2</ele><time>2026-04-27T09:13:00.907Z</time></trkpt><trkpt lat="46.143656981151715" lon="10.123609288170986"><ele>920.0</ele><time>2026-04-27T09:13:01.908Z</time></trkpt><trkpt lat="46.143555773094974" lon="10.12365356003021"><ele>920.0000000000001</ele><time>2026-04-27T09:13:02.908Z</time></trkpt><trkpt lat="46.14347004236004" lon="10.123685085375365"><ele>920.0</ele><time>2026-04-27T09:13:03.908Z</time></trkpt><trkpt lat="46.143376227252766" lon="10.123690492101591"><ele>920.0</ele><time>2026-04-27T09:13:04.909Z</time></trkpt><trkpt lat="46.14331361880317" lon="10.123708777223937"><ele>920.0</ele><time>2026-04-27T09:13:05.909Z</time></trkpt><trkpt lat="46.14324219483005" lon="10.123721690987308"><ele>920.0000000000001</ele><time>2026-04-27T09:13:06.909Z</time></trkpt><trkpt lat="46.143160581582556" lon="10.123750234505186"><ele>920.0</ele><time>2026-04-27T09:13:07.909Z</time></trkpt><trkpt lat="46.14306566795514" lon="10.123756218468046"><ele>918.3333333333334</ele><time>2026-04-27T09:13:08.91Z</time></trkpt><trkpt lat="46.14299511698547" lon="10.123748169818946"><ele>916.6666666666667</ele><time>2026-04-27T09:13:09.91Z</time></trkpt><trkpt lat="46.14290212478589" lon="10.123735406627802"><ele>915.0</ele><time>2026-04-27T09:13:10.91Z</time></trkpt><trkpt lat="46.142830037141806" lon="10.123727346696466"><ele>913.3333333333333</ele><time>2026-04-27T09:13:11.91Z</time></trkpt><trkpt lat="46.142755078840565" lon="10.123689054865944"><ele>911.6666666666666</ele><time>2026-04-27T09:13:12.91Z</time></trkpt><trkpt lat="46.14267340336552" lon="10.12366658611616"><ele>910.0</ele><time>2026-04-27T09:13:13.911Z</time></trkpt><trkpt lat="46.142595850227345" lon="10.12366125353832"><ele>909.9999999999999</ele><time>2026-04-27T09:13:14.911Z</time></trkpt><trkpt lat="46.14252357403287" lon="10.12367652468741"><ele>910.0</ele><time>2026-04-27T09:13:15.911Z</time></trkpt><trkpt lat="46.14243687825754" lon="10.123695679045902"><ele>910.0</ele><time>2026-04-27T09:13:16.911Z</time></trkpt><trkpt lat="46.142359093176815" lon="10.123728466870269"><ele>910.0</ele><time>2026-04-27T09:13:17.911Z</time></trkpt><trkpt lat="46.142256304666574" lon="10.123760001430567"><ele>909.9999999999999</ele><time>2026-04-27T09:13:18.911Z</time></trkpt><trkpt lat="46.14216369097016" lon="10.12380509894152"><ele>910.0</ele><time>2026-04-27T09:13:19.911Z</time></trkpt><trkpt lat="46.142071108358124" lon="10.123848887127702"><ele>912.0</ele><time>2026-04-27T09:13:20.911Z</time></trkpt><trkpt lat="46.141992360427416" lon="10.12389887087199"><ele>914.0</ele><time>2026-04-27T09:13:21.912Z</time></trkpt><trkpt lat="46.14191174495355" lon="10.123997867630706"><ele>916.0</ele><time>2026-04-27T09:13:22.912Z</time></trkpt><trkpt lat="46.141831229681316" lon="10.124105211706638"><ele>918.0</ele><time>2026-04-27T09:13:23.912Z</time></trkpt><trkpt lat="46.14175358481027" lon="10.124230830925931"><ele>920.0</ele><time>2026-04-27T09:13:24.912Z</time></trkpt><trkpt lat="46.14167445221431" lon="10.124328658434525"><ele>920.0</ele><time>2026-04-27T09:13:25.912Z</time></trkpt><trkpt lat="46.14161643818849" lon="10.124397275805368"><ele>920.0</ele><time>2026-04-27T09:13:26.912Z</time></trkpt><trkpt lat="46.141516053815664" lon="10.124476641133363"><ele>920.0</ele><time>2026-04-27T09:13:28.912Z</time></trkpt><trkpt lat="46.14141231700237" lon="10.124562069880554"><ele>920.0</ele><time>2026-04-27T09:13:30.912Z</time></trkpt><trkpt lat="46.141335681134926" lon="10.124626556655429"><ele>920.0</ele><time>2026-04-27T09:13:31.912Z</time></trkpt><trkpt lat="46.14124943115786" lon="10.124673327050445"><ele>917.6</ele><time>2026-04-27T09:13:32.912Z</time></trkpt><trkpt lat="46.14115257614883" lon="10.12470662072859"><ele>915.2</ele><time>2026-04-27T09:13:33.912Z</time></trkpt><trkpt lat="46.14105785436275" lon="10.12476257066039"><ele>912.8</ele><time>2026-04-27T09:13:34.912Z</time></trkpt><trkpt lat="46.1409620344649" lon="10.124809026613384"><ele>910.4</ele><time>2026-04-27T09:13:35.912Z</time></trkpt><trkpt lat="46.14086165721744" lon="10.124853514390223"><ele>908.0</ele><time>2026-04-27T09:13:36.912Z</time></trkpt><trkpt lat="46.14075241446991" lon="10.124890165649761"><ele>913.2</ele><time>2026-04-27T09:13:37.912Z</time></trkpt><trkpt lat="46.14064651645165" lon="10.124947023193515"><ele>918.4</ele><time>2026-04-27T09:13:38.912Z</time></trkpt><trkpt lat="46.14057816712917" lon="10.124981867680095"><ele>923.6000000000001</ele><time>2026-04-27T09:13:39.912Z</time></trkpt><trkpt lat="46.14051960779876" lon="10.125018281256473"><ele>928.8000000000001</ele><time>2026-04-27T09:13:40.912Z</time></trkpt><trkpt lat="46.1403930201923" lon="10.125039169629174"><ele>934.0</ele><time>2026-04-27T09:13:42.912Z</time></trkpt><trkpt lat="46.14030742398928" lon="10.125036556938664"><ele>934.0</ele><time>2026-04-27T09:13:43.913Z</time></trkpt><trkpt lat="46.140213237437266" lon="10.12504142158955"><ele>934.0000000000001</ele><time>2026-04-27T09:13:44.913Z</time></trkpt><trkpt lat="46.14011679622527" lon="10.125043662275983"><ele>934.0000000000001</ele><time>2026-04-27T09:13:45.913Z</time></trkpt><trkpt lat="46.140001334591666" lon="10.125060764049358"><ele>934.0</ele><time>2026-04-27T09:13:46.913Z</time></trkpt><trkpt lat="46.139912578967575" lon="10.125073910226293"><ele>934.0</ele><time>2026-04-27T09:13:47.913Z</time></trkpt><trkpt lat="46.13982906060759" lon="10.12508628070632"><ele>935.2</ele><time>2026-04-27T09:13:48.913Z</time></trkpt><trkpt lat="46.13974104384947" lon="10.125097438572475"><ele>936.4000000000001</ele><time>2026-04-27T09:13:49.913Z</time></trkpt><trkpt lat="46.1396125035656" lon="10.12510224429865"><ele>937.6</ele><time>2026-04-27T09:13:51.913Z</time></trkpt><trkpt lat="46.13949984123847" lon="10.12510383943983"><ele>938.8</ele><time>2026-04-27T09:13:53.913Z</time></trkpt><trkpt lat="46.139408190126474" lon="10.125057768332306"><ele>940.0</ele><time>2026-04-27T09:13:55.913Z</time></trkpt><trkpt lat="46.13935190784375" lon="10.124950993911536"><ele>942.8</ele><time>2026-04-27T09:13:57.913Z</time></trkpt><trkpt lat="46.139285794225835" lon="10.124825779266034"><ele>945.6</ele><time>2026-04-27T09:13:59.913Z</time></trkpt><trkpt lat="46.13923998688623" lon="10.124667011598103"><ele>948.4000000000001</ele><time>2026-04-27T09:14:01.913Z</time></trkpt><trkpt lat="46.139277840961746" lon="10.124550360254304"><ele>951.2</ele><time>2026-04-27T09:14:03.913Z</time></trkpt><trkpt lat="46.139337284507256" lon="10.124486625419854"><ele>954.0</ele><time>2026-04-27T09:14:05.913Z</time></trkpt><trkpt lat="46.13942362047163" lon="10.12444593670284"><ele>954.0</ele><time>2026-04-27T09:14:07.912Z</time></trkpt><trkpt lat="46.13955028393815" lon="10.12443130377217"><ele>954.0</ele><time>2026-04-27T09:14:09.912Z</time></trkpt><trkpt lat="46.13961379345479" lon="10.124372987345582"><ele>954.0</ele><time>2026-04-27T09:14:10.912Z</time></trkpt><trkpt lat="46.13966152442219" lon="10.12429436990552"><ele>954.0</ele><time>2026-04-27T09:14:11.912Z</time></trkpt><trkpt lat="46.13970596516283" lon="10.124217696889492"><ele>954.0</ele><time>2026-04-27T09:14:12.912Z</time></trkpt><trkpt lat="46.139754739855334" lon="10.124133546441078"><ele>954.0</ele><time>2026-04-27T09:14:13.912Z</time></trkpt><trkpt lat="46.13980648260159" lon="10.124054874436075"><ele>954.0</ele><time>2026-04-27T09:14:14.912Z</time></trkpt><trkpt lat="46.13991048700587" lon="10.123971249392236"><ele>954.0</ele><time>2026-04-27T09:14:16.912Z</time></trkpt><trkpt lat="46.1399634158415" lon="10.123890341626435"><ele>954.0</ele><time>2026-04-27T09:14:18.913Z</time></trkpt><trkpt lat="46.14000280657729" lon="10.123798940847811"><ele>954.0</ele><time>2026-04-27T09:14:23.913Z</time></trkpt><trkpt lat="46.1394015538652" lon="10.124135880120763"><ele>954.0</ele><time>2026-04-27T09:14:35.913Z</time></trkpt><trkpt lat="46.13933210428238" lon="10.124151142649023"><ele>954.0</ele><time>2026-04-27T09:14:36.913Z</time></trkpt><trkpt lat="46.13926748165507" lon="10.124133511294794"><ele>954.0</ele><time>2026-04-27T09:14:37.913Z</time></trkpt><trkpt lat="46.13914684391497" lon="10.124180602542046"><ele>954.0</ele><time>2026-04-27T09:14:39.913Z</time></trkpt><trkpt lat="46.13907876569338" lon="10.124226563764744"><ele>954.0</ele><time>2026-04-27T09:14:40.912Z</time></trkpt><trkpt lat="46.13901027638494" lon="10.124251994982442"><ele>954.0</ele><time>2026-04-27T09:14:41.912Z</time></trkpt><trkpt lat="46.13893146030274" lon="10.124260653094204"><ele>955.7142857142857</ele><time>2026-04-27T09:14:42.912Z</time></trkpt><trkpt lat="46.13885485247301" lon="10.12425563972745"><ele>957.4285714285713</ele><time>2026-04-27T09:14:43.912Z</time></trkpt><trkpt lat="46.138782717214674" lon="10.124251663468238"><ele>959.1428571428571</ele><time>2026-04-27T09:14:44.912Z</time></trkpt><trkpt lat="46.13870538316295" lon="10.124240316583569"><ele>960.8571428571429</ele><time>2026-04-27T09:14:45.912Z</time></trkpt><trkpt lat="46.13863490793184" lon="10.124245348997055"><ele>962.5714285714286</ele><time>2026-04-27T09:14:46.912Z</time></trkpt><trkpt lat="46.13856647854025" lon="10.124251979233106"><ele>964.2857142857142</ele><time>2026-04-27T09:14:47.912Z</time></trkpt><trkpt lat="46.1384954482001" lon="10.12424831845073"><ele>966.0</ele><time>2026-04-27T09:14:48.912Z</time></trkpt><trkpt lat="46.13842210082151" lon="10.124247845152967"><ele>966.0</ele><time>2026-04-27T09:14:49.912Z</time></trkpt><trkpt lat="46.138349530707416" lon="10.12426421096597"><ele>966.0</ele><time>2026-04-27T09:14:50.912Z</time></trkpt><trkpt lat="46.13827179892313" lon="10.124271393999704"><ele>966.0</ele><time>2026-04-27T09:14:51.912Z</time></trkpt><trkpt lat="46.13819425551254" lon="10.12428055466052"><ele>966.0</ele><time>2026-04-27T09:14:52.912Z</time></trkpt><trkpt lat="46.13812184383344" lon="10.124259644647701"><ele>966.0</ele><time>2026-04-27T09:14:53.912Z</time></trkpt><trkpt lat="46.138047877340426" lon="10.124282833394949"><ele>966.0</ele><time>2026-04-27T09:14:54.912Z</time></trkpt><trkpt lat="46.137927249817025" lon="10.124311883134014"><ele>969.1666666666666</ele><time>2026-04-27T09:14:55.912Z</time></trkpt><trkpt lat="46.13784790274188" lon="10.124368899928982"><ele>972.3333333333333</ele><time>2026-04-27T09:14:56.912Z</time></trkpt><trkpt lat="46.13776923480522" lon="10.124382464797469"><ele>975.5</ele><time>2026-04-27T09:14:57.912Z</time></trkpt><trkpt lat="46.13767734059987" lon="10.124392371271757"><ele>978.6666666666666</ele><time>2026-04-27T09:14:58.912Z</time></trkpt><trkpt lat="46.137592677792334" lon="10.124396546444027"><ele>981.8333333333333</ele><time>2026-04-27T09:14:59.912Z</time></trkpt><trkpt lat="46.137502738029276" lon="10.124397422911601"><ele>985.0</ele><time>2026-04-27T09:15:00.912Z</time></trkpt><trkpt lat="46.13741820719096" lon="10.124397222987726"><ele>987.2</ele><time>2026-04-27T09:15:01.912Z</time></trkpt><trkpt lat="46.13732657052492" lon="10.124394120501387"><ele>989.4</ele><time>2026-04-27T09:15:02.912Z</time></trkpt><trkpt lat="46.137237460184416" lon="10.124364929154721"><ele>991.5999999999999</ele><time>2026-04-27T09:15:03.912Z</time></trkpt><trkpt lat="46.1371443221597" lon="10.124380459234509"><ele>993.8</ele><time>2026-04-27T09:15:04.912Z</time></trkpt><trkpt lat="46.13704605863436" lon="10.124360973446597"><ele>996.0</ele><time>2026-04-27T09:15:05.912Z</time></trkpt><trkpt lat="46.136950721625794" lon="10.12434401137141"><ele>996.0</ele><time>2026-04-27T09:15:06.912Z</time></trkpt><trkpt lat="46.13684232941122" lon="10.124333733326694"><ele>995.9999999999999</ele><time>2026-04-27T09:15:07.912Z</time></trkpt><trkpt lat="46.13674178292654" lon="10.124313322356743"><ele>995.9999999999999</ele><time>2026-04-27T09:15:08.912Z</time></trkpt><trkpt lat="46.13663917637752" lon="10.124316093011908"><ele>996.0</ele><time>2026-04-27T09:15:09.912Z</time></trkpt><trkpt lat="46.136542546112956" lon="10.124330467771248"><ele>996.0</ele><time>2026-04-27T09:15:10.912Z</time></trkpt><trkpt lat="46.13644426499091" lon="10.124376786695228"><ele>996.4</ele><time>2026-04-27T09:15:11.912Z</time></trkpt><trkpt lat="46.136360435129795" lon="10.12442183036185"><ele>996.8</ele><time>2026-04-27T09:15:12.912Z</time></trkpt><trkpt lat="46.13627311741398" lon="10.124469326237252"><ele>997.1999999999999</ele><time>2026-04-27T09:15:13.912Z</time></trkpt><trkpt lat="46.13619064210244" lon="10.124491684501224"><ele>997.5999999999999</ele><time>2026-04-27T09:15:14.912Z</time></trkpt><trkpt lat="46.13609626614854" lon="10.12450193150609"><ele>998.0</ele><time>2026-04-27T09:15:15.912Z</time></trkpt><trkpt lat="46.13599323814118" lon="10.124510073922393"><ele>998.0</ele><time>2026-04-27T09:15:16.912Z</time></trkpt><trkpt lat="46.135894945002775" lon="10.124509783979539"><ele>998.0</ele><time>2026-04-27T09:15:17.912Z</time></trkpt><trkpt lat="46.13579682390919" lon="10.124533759081995"><ele>998.0</ele><time>2026-04-27T09:15:18.912Z</time></trkpt><trkpt lat="46.135702783581394" lon="10.124542846788803"><ele>998.0</ele><time>2026-04-27T09:15:19.912Z</time></trkpt><trkpt lat="46.135614909859584" lon="10.124543113086325"><ele>998.0</ele><time>2026-04-27T09:15:20.912Z</time></trkpt><trkpt lat="46.13552721333251" lon="10.12453065203468"><ele>1000.0000000000001</ele><time>2026-04-27T09:15:21.912Z</time></trkpt><trkpt lat="46.13544329274952" lon="10.124533636882946"><ele>1002.0</ele><time>2026-04-27T09:15:22.912Z</time></trkpt><trkpt lat="46.13536065397581" lon="10.12452180229901"><ele>1004.0</ele><time>2026-04-27T09:15:23.912Z</time></trkpt><trkpt lat="46.13527892247794" lon="10.124503645063877"><ele>1006.0</ele><time>2026-04-27T09:15:24.912Z</time></trkpt><trkpt lat="46.135200658896146" lon="10.124474837490038"><ele>1008.0000000000001</ele><time>2026-04-27T09:15:25.912Z</time></trkpt><trkpt lat="46.13513438431272" lon="10.124422810110286"><ele>1010.0</ele><time>2026-04-27T09:15:26.912Z</time></trkpt><trkpt lat="46.135053749436366" lon="10.124401727776691"><ele>1010.0000000000001</ele><time>2026-04-27T09:15:27.912Z</time></trkpt><trkpt lat="46.13498843855932" lon="10.124397943074529"><ele>1010.0</ele><time>2026-04-27T09:15:28.912Z</time></trkpt><trkpt lat="46.13490948118558" lon="10.124411337916671"><ele>1010.0</ele><time>2026-04-27T09:15:29.912Z</time></trkpt><trkpt lat="46.134836804923" lon="10.124436699945962"><ele>1010.0</ele><time>2026-04-27T09:15:30.912Z</time></trkpt><trkpt lat="46.13475268635616" lon="10.124479085394254"><ele>1010.0000000000001</ele><time>2026-04-27T09:15:31.912Z</time></trkpt><trkpt lat="46.134671094453736" lon="10.124523579461627"><ele>1010.0</ele><time>2026-04-27T09:15:32.912Z</time></trkpt><trkpt lat="46.134587652276466" lon="10.12456282609295"><ele>1012.6</ele><time>2026-04-27T09:15:33.912Z</time></trkpt><trkpt lat="46.13450905587963" lon="10.124568250614457"><ele>1015.2</ele><time>2026-04-27T09:15:34.912Z</time></trkpt><trkpt lat="46.13442671642046" lon="10.12457538696048"><ele>1017.8</ele><time>2026-04-27T09:15:35.912Z</time></trkpt><trkpt lat="46.13432862999936" lon="10.1245867234315"><ele>1020.4</ele><time>2026-04-27T09:15:36.912Z</time></trkpt><trkpt lat="46.13422615947566" lon="10.124593900124456"><ele>1023.0</ele><time>2026-04-27T09:15:37.912Z</time></trkpt><trkpt lat="46.13412237345934" lon="10.124599296615365"><ele>1026.6666666666667</ele><time>2026-04-27T09:15:38.912Z</time></trkpt><trkpt lat="46.1340243366223" lon="10.12461677126968"><ele>1030.3333333333333</ele><time>2026-04-27T09:15:39.912Z</time></trkpt><trkpt lat="46.1339484280468" lon="10.124625926741778"><ele>1034.0</ele><time>2026-04-27T09:15:40.912Z</time></trkpt><trkpt lat="46.13387165806225" lon="10.124642135997819"><ele>1037.6666666666665</ele><time>2026-04-27T09:15:41.912Z</time></trkpt><trkpt lat="46.13377961915361" lon="10.124665813279304"><ele>1041.3333333333333</ele><time>2026-04-27T09:15:42.912Z</time></trkpt><trkpt lat="46.133683748771304" lon="10.12468609813412"><ele>1045.0</ele><time>2026-04-27T09:15:43.912Z</time></trkpt><trkpt lat="46.13359029086401" lon="10.124695507242688"><ele>1045.0</ele><time>2026-04-27T09:15:44.912Z</time></trkpt><trkpt lat="46.13349964778273" lon="10.124717065107449"><ele>1045.0</ele><time>2026-04-27T09:15:45.912Z</time></trkpt><trkpt lat="46.133403721967504" lon="10.12474925891899"><ele>1045.0</ele><time>2026-04-27T09:15:46.912Z</time></trkpt><trkpt lat="46.133308309707274" lon="10.124784973770204"><ele>1045.0</ele><time>2026-04-27T09:15:47.912Z</time></trkpt><trkpt lat="46.13322119295999" lon="10.12480999705408"><ele>1045.0</ele><time>2026-04-27T09:15:48.912Z</time></trkpt><trkpt lat="46.133136257700386" lon="10.124835396995529"><ele>1043.1666666666665</ele><time>2026-04-27T09:15:49.912Z</time></trkpt><trkpt lat="46.1330497155922" lon="10.124857198039596"><ele>1041.3333333333333</ele><time>2026-04-27T09:15:50.912Z</time></trkpt><trkpt lat="46.13296347943734" lon="10.124881320406008"><ele>1039.5</ele><time>2026-04-27T09:15:51.912Z</time></trkpt><trkpt lat="46.1328876671183" lon="10.124910158467028"><ele>1037.6666666666667</ele><time>2026-04-27T09:15:52.912Z</time></trkpt><trkpt lat="46.132817621983286" lon="10.12493153803696"><ele>1035.8333333333335</ele><time>2026-04-27T09:15:53.912Z</time></trkpt><trkpt lat="46.132749475577306" lon="10.124946534991954"><ele>1034.0</ele><time>2026-04-27T09:15:54.912Z</time></trkpt><trkpt lat="46.13267972829642" lon="10.12496675925847"><ele>1034.0</ele><time>2026-04-27T09:15:55.912Z</time></trkpt><trkpt lat="46.132609782268894" lon="10.124984017370176"><ele>1034.0</ele><time>2026-04-27T09:15:56.912Z</time></trkpt><trkpt lat="46.13250586121035" lon="10.125052280486443"><ele>1034.0</ele><time>2026-04-27T09:15:58.912Z</time></trkpt><trkpt lat="46.132418001733164" lon="10.12514894368978"><ele>1034.0</ele><time>2026-04-27T09:16:00.912Z</time></trkpt><trkpt lat="46.13230575911827" lon="10.12518244205881"><ele>1034.0</ele><time>2026-04-27T09:16:02.912Z</time></trkpt><trkpt lat="46.13218125586387" lon="10.125129864832891"><ele>1035.3333333333335</ele><time>2026-04-27T09:16:04.911Z</time></trkpt><trkpt lat="46.13211073918115" lon="10.125112040637807"><ele>1036.6666666666667</ele><time>2026-04-27T09:16:05.911Z</time></trkpt><trkpt lat="46.1320024354576" lon="10.125110037529462"><ele>1038.0</ele><time>2026-04-27T09:16:07.911Z</time></trkpt><trkpt lat="46.13193355097705" lon="10.125108976731127"><ele>1039.3333333333333</ele><time>2026-04-27T09:16:08.911Z</time></trkpt><trkpt lat="46.13185220834435" lon="10.12511601146569"><ele>1040.6666666666665</ele><time>2026-04-27T09:16:09.911Z</time></trkpt><trkpt lat="46.13176996411198" lon="10.12513722650254"><ele>1042.0</ele><time>2026-04-27T09:16:10.911Z</time></trkpt><trkpt lat="46.131685487139755" lon="10.125152734504343"><ele>1042.0</ele><time>2026-04-27T09:16:11.911Z</time></trkpt><trkpt lat="46.131594209511256" lon="10.125168409559025"><ele>1042.0</ele><time>2026-04-27T09:16:12.911Z</time></trkpt><trkpt lat="46.13150487525776" lon="10.125187423544318"><ele>1042.0</ele><time>2026-04-27T09:16:13.911Z</time></trkpt><trkpt lat="46.13141715566734" lon="10.12521572997854"><ele>1042.0</ele><time>2026-04-27T09:16:14.911Z</time></trkpt><trkpt lat="46.13131974857027" lon="10.125230365387006"><ele>1042.0</ele><time>2026-04-27T09:16:15.911Z</time></trkpt><trkpt lat="46.131227252238524" lon="10.125244965857727"><ele>1043.6666666666665</ele><time>2026-04-27T09:16:16.911Z</time></trkpt><trkpt lat="46.13113604889603" lon="10.1252619809521"><ele>1045.3333333333333</ele><time>2026-04-27T09:16:17.911Z</time></trkpt><trkpt lat="46.13104031520788" lon="10.125276889719213"><ele>1047.0</ele><time>2026-04-27T09:16:18.911Z</time></trkpt><trkpt lat="46.13095325047918" lon="10.12529797061344"><ele>1048.6666666666667</ele><time>2026-04-27T09:16:19.911Z</time></trkpt><trkpt lat="46.13088421101004" lon="10.125309468264826"><ele>1050.3333333333335</ele><time>2026-04-27T09:16:20.911Z</time></trkpt><trkpt lat="46.130808229937" lon="10.125317364412322"><ele>1052.0</ele><time>2026-04-27T09:16:21.911Z</time></trkpt><trkpt lat="46.130738046100305" lon="10.125307767579832"><ele>1053.3333333333335</ele><time>2026-04-27T09:16:22.911Z</time></trkpt><trkpt lat="46.13066109717851" lon="10.125307871162743"><ele>1054.6666666666667</ele><time>2026-04-27T09:16:23.911Z</time></trkpt><trkpt lat="46.13057771146095" lon="10.125271115067292"><ele>1056.0</ele><time>2026-04-27T09:16:24.911Z</time></trkpt><trkpt lat="46.13049222548884" lon="10.12523453063676"><ele>1057.3333333333333</ele><time>2026-04-27T09:16:25.911Z</time></trkpt><trkpt lat="46.13040695229104" lon="10.125181586356117"><ele>1058.6666666666665</ele><time>2026-04-27T09:16:26.911Z</time></trkpt><trkpt lat="46.13032675970556" lon="10.125152352911995"><ele>1060.0</ele><time>2026-04-27T09:16:27.911Z</time></trkpt><trkpt lat="46.130258445061315" lon="10.125136109218342"><ele>1060.0</ele><time>2026-04-27T09:16:28.911Z</time></trkpt><trkpt lat="46.13018493559742" lon="10.125136636366491"><ele>1060.0</ele><time>2026-04-27T09:16:29.911Z</time></trkpt><trkpt lat="46.1301099038827" lon="10.12514935839985"><ele>1060.0</ele><time>2026-04-27T09:16:30.911Z</time></trkpt><trkpt lat="46.1300323736226" lon="10.1251644549424"><ele>1060.0</ele><time>2026-04-27T09:16:31.911Z</time></trkpt><trkpt lat="46.12995051413213" lon="10.125204314466483"><ele>1060.0</ele><time>2026-04-27T09:16:32.911Z</time></trkpt><trkpt lat="46.129866866293206" lon="10.12522122327489"><ele>1060.0</ele><time>2026-04-27T09:16:33.911Z</time></trkpt><trkpt lat="46.12978785540481" lon="10.125240621441996"><ele>1059.8</ele><time>2026-04-27T09:16:34.911Z</time></trkpt><trkpt lat="46.12966499776401" lon="10.125250712746308"><ele>1059.6</ele><time>2026-04-27T09:16:36.911Z</time></trkpt><trkpt lat="46.12959520613332" lon="10.125222270045969"><ele>1059.4</ele><time>2026-04-27T09:16:37.911Z</time></trkpt><trkpt lat="46.129517109461254" lon="10.125193133343439"><ele>1059.2</ele><time>2026-04-27T09:16:38.911Z</time></trkpt><trkpt lat="46.12942659349147" lon="10.125147729146935"><ele>1059.0</ele><time>2026-04-27T09:16:39.911Z</time></trkpt><trkpt lat="46.12934337608048" lon="10.12508881665354"><ele>1059.0</ele><time>2026-04-27T09:16:40.911Z</time></trkpt><trkpt lat="46.12927795470838" lon="10.125041710347451"><ele>1059.0</ele><time>2026-04-27T09:16:41.911Z</time></trkpt><trkpt lat="46.12920714038833" lon="10.125022600106337"><ele>1059.0</ele><time>2026-04-27T09:16:42.911Z</time></trkpt><trkpt lat="46.12913777851879" lon="10.125018444541173"><ele>1059.0</ele><time>2026-04-27T09:16:43.911Z</time></trkpt><trkpt lat="46.12906071191449" lon="10.125026245067366"><ele>1059.0</ele><time>2026-04-27T09:16:44.911Z</time></trkpt><trkpt lat="46.12898528547982" lon="10.125037043065298"><ele>1059.0</ele><time>2026-04-27T09:16:45.911Z</time></trkpt><trkpt lat="46.1288625302014" lon="10.12502831870922"><ele>1058.3333333333333</ele><time>2026-04-27T09:16:47.911Z</time></trkpt><trkpt lat="46.128800327221036" lon="10.124984230901768"><ele>1057.6666666666667</ele><time>2026-04-27T09:16:48.911Z</time></trkpt><trkpt lat="46.12873334528821" lon="10.124919990845436"><ele>1057.0</ele><time>2026-04-27T09:16:49.911Z</time></trkpt><trkpt lat="46.128660385331614" lon="10.124847694000492"><ele>1056.3333333333335</ele><time>2026-04-27T09:16:50.911Z</time></trkpt><trkpt lat="46.12859529619615" lon="10.124753350249483"><ele>1055.6666666666667</ele><time>2026-04-27T09:16:51.911Z</time></trkpt><trkpt lat="46.1285206098727" lon="10.124651999831737"><ele>1055.0</ele><time>2026-04-27T09:16:52.911Z</time></trkpt><trkpt lat="46.12844076320846" lon="10.124548143497757"><ele>1057.6666666666667</ele><time>2026-04-27T09:16:53.911Z</time></trkpt><trkpt lat="46.128363935662385" lon="10.124459303262428"><ele>1060.3333333333335</ele><time>2026-04-27T09:16:54.911Z</time></trkpt><trkpt lat="46.12828978498864" lon="10.124366267761278"><ele>1063.0</ele><time>2026-04-27T09:16:55.911Z</time></trkpt><trkpt lat="46.128215393214944" lon="10.124298254853697"><ele>1065.6666666666667</ele><time>2026-04-27T09:16:56.911Z</time></trkpt><trkpt lat="46.128148970925196" lon="10.124252575665835"><ele>1068.3333333333333</ele><time>2026-04-27T09:16:57.911Z</time></trkpt><trkpt lat="46.12808305117566" lon="10.124215074601747"><ele>1071.0</ele><time>2026-04-27T09:16:58.911Z</time></trkpt><trkpt lat="46.12801419856623" lon="10.124198725209098"><ele>1071.1666666666667</ele><time>2026-04-27T09:16:59.911Z</time></trkpt><trkpt lat="46.12793414536406" lon="10.124200830337504"><ele>1071.3333333333333</ele><time>2026-04-27T09:17:00.911Z</time></trkpt><trkpt lat="46.1278472820855" lon="10.124226641756529"><ele>1071.5</ele><time>2026-04-27T09:17:01.911Z</time></trkpt><trkpt lat="46.12776900170268" lon="10.124266636214921"><ele>1071.6666666666665</ele><time>2026-04-27T09:17:02.911Z</time></trkpt><trkpt lat="46.12768709558012" lon="10.12431630656166"><ele>1071.8333333333333</ele><time>2026-04-27T09:17:03.911Z</time></trkpt><trkpt lat="46.12759947361123" lon="10.124374522307704"><ele>1072.0</ele><time>2026-04-27T09:17:04.911Z</time></trkpt><trkpt lat="46.12751146687899" lon="10.12444471194203"><ele>1072.0</ele><time>2026-04-27T09:17:05.911Z</time></trkpt><trkpt lat="46.12742472318064" lon="10.124533656587639"><ele>1072.0</ele><time>2026-04-27T09:17:06.911Z</time></trkpt><trkpt lat="46.12733089439058" lon="10.124611529864826"><ele>1072.0</ele><time>2026-04-27T09:17:07.911Z</time></trkpt><trkpt lat="46.12724151598078" lon="10.12470883730211"><ele>1072.0</ele><time>2026-04-27T09:17:08.911Z</time></trkpt><trkpt lat="46.12715169992513" lon="10.124811019545659"><ele>1072.0</ele><time>2026-04-27T09:17:09.911Z</time></trkpt><trkpt lat="46.127072844711144" lon="10.124914942156229"><ele>1072.4</ele><time>2026-04-27T09:17:10.911Z</time></trkpt><trkpt lat="46.12699681214348" lon="10.125020528051238"><ele>1072.8000000000002</ele><time>2026-04-27T09:17:11.911Z</time></trkpt><trkpt lat="46.126921464902146" lon="10.125127151096843"><ele>1073.2</ele><time>2026-04-27T09:17:12.911Z</time></trkpt><trkpt lat="46.12684882461519" lon="10.12521118338458"><ele>1073.6000000000001</ele><time>2026-04-27T09:17:13.911Z</time></trkpt><trkpt lat="46.126784322465454" lon="10.125296977694708"><ele>1074.0</ele><time>2026-04-27T09:17:14.911Z</time></trkpt><trkpt lat="46.12671975298417" lon="10.125369767484848"><ele>1074.0</ele><time>2026-04-27T09:17:15.911Z</time></trkpt><trkpt lat="46.126661250794626" lon="10.125453487646936"><ele>1074.0</ele><time>2026-04-27T09:17:16.911Z</time></trkpt><trkpt lat="46.12659635590865" lon="10.125526240591974"><ele>1074.0</ele><time>2026-04-27T09:17:17.911Z</time></trkpt><trkpt lat="46.126510414075284" lon="10.125563419687694"><ele>1074.0</ele><time>2026-04-27T09:17:18.911Z</time></trkpt><trkpt lat="46.12642662095718" lon="10.125584243909723"><ele>1074.0</ele><time>2026-04-27T09:17:19.911Z</time></trkpt><trkpt lat="46.126345476177875" lon="10.125600354385561"><ele>1074.0</ele><time>2026-04-27T09:17:20.911Z</time></trkpt><trkpt lat="46.1262669905779" lon="10.125621812238604"><ele>1073.4</ele><time>2026-04-27T09:17:21.911Z</time></trkpt><trkpt lat="46.12619159706669" lon="10.125630328217873"><ele>1072.8000000000002</ele><time>2026-04-27T09:17:22.911Z</time></trkpt><trkpt lat="46.12610258844713" lon="10.125662319097431"><ele>1072.1999999999998</ele><time>2026-04-27T09:17:23.911Z</time></trkpt><trkpt lat="46.126012463669475" lon="10.125700041747972"><ele>1071.6</ele><time>2026-04-27T09:17:24.911Z</time></trkpt><trkpt lat="46.12591949905145" lon="10.125741922171896"><ele>1071.0</ele><time>2026-04-27T09:17:25.911Z</time></trkpt><trkpt lat="46.12582656776491" lon="10.125793654360145"><ele>1071.0</ele><time>2026-04-27T09:17:26.911Z</time></trkpt><trkpt lat="46.125742171696785" lon="10.125846916909056"><ele>1071.0</ele><time>2026-04-27T09:17:27.911Z</time></trkpt><trkpt lat="46.12565264346766" lon="10.125885370983399"><ele>1071.0</ele><time>2026-04-27T09:17:28.911Z</time></trkpt><trkpt lat="46.125560974394936" lon="10.125914080391246"><ele>1071.0</ele><time>2026-04-27T09:17:29.911Z</time></trkpt><trkpt lat="46.1254618233795" lon="10.125925652825673"><ele>1071.0</ele><time>2026-04-27T09:17:30.911Z</time></trkpt><trkpt lat="46.125365944461294" lon="10.125928061067272"><ele>1075.8</ele><time>2026-04-27T09:17:31.911Z</time></trkpt><trkpt lat="46.12527058884007" lon="10.125933179296343"><ele>1080.6</ele><time>2026-04-27T09:17:32.911Z</time></trkpt><trkpt lat="46.12517837335463" lon="10.125937359579432"><ele>1085.4</ele><time>2026-04-27T09:17:33.911Z</time></trkpt><trkpt lat="46.125086023768766" lon="10.125946412726178"><ele>1090.2</ele><time>2026-04-27T09:17:34.911Z</time></trkpt><trkpt lat="46.1249988304308" lon="10.125985364320917"><ele>1095.0</ele><time>2026-04-27T09:17:35.911Z</time></trkpt><trkpt lat="46.12491891927087" lon="10.126055820080385"><ele>1099.8</ele><time>2026-04-27T09:17:36.911Z</time></trkpt><trkpt lat="46.12484282481068" lon="10.12614259087094"><ele>1104.6</ele><time>2026-04-27T09:17:37.911Z</time></trkpt><trkpt lat="46.124771466056316" lon="10.12622743839778"><ele>1109.4</ele><time>2026-04-27T09:17:38.911Z</time></trkpt><trkpt lat="46.12470589966069" lon="10.12627805958188"><ele>1114.2</ele><time>2026-04-27T09:17:39.911Z</time></trkpt><trkpt lat="46.12461097482524" lon="10.126294167926465"><ele>1119.0</ele><time>2026-04-27T09:17:40.911Z</time></trkpt><trkpt lat="46.124519848783564" lon="10.126331817957892"><ele>1119.0</ele><time>2026-04-27T09:17:41.911Z</time></trkpt><trkpt lat="46.12442240236691" lon="10.126346427988995"><ele>1119.0</ele><time>2026-04-27T09:17:42.911Z</time></trkpt><trkpt lat="46.12433268083997" lon="10.126346452168942"><ele>1119.0</ele><time>2026-04-27T09:17:43.91Z</time></trkpt><trkpt lat="46.12424321148344" lon="10.126360936301488"><ele>1119.0</ele><time>2026-04-27T09:17:44.91Z</time></trkpt><trkpt lat="46.1241442487363" lon="10.126393761074008"><ele>1119.0</ele><time>2026-04-27T09:17:45.91Z</time></trkpt><trkpt lat="46.12406040277289" lon="10.126407216772062"><ele>1118.3333333333333</ele><time>2026-04-27T09:17:46.91Z</time></trkpt><trkpt lat="46.123968500789005" lon="10.126446692631712"><ele>1117.6666666666667</ele><time>2026-04-27T09:17:47.91Z</time></trkpt><trkpt lat="46.123885772058" lon="10.126483978574052"><ele>1117.0</ele><time>2026-04-27T09:17:48.91Z</time></trkpt><trkpt lat="46.123814816486906" lon="10.126515712107482"><ele>1116.3333333333335</ele><time>2026-04-27T09:17:49.91Z</time></trkpt><trkpt lat="46.12374126613162" lon="10.126580590468398"><ele>1115.6666666666667</ele><time>2026-04-27T09:17:50.91Z</time></trkpt><trkpt lat="46.123668293810084" lon="10.1266556974738"><ele>1115.0</ele><time>2026-04-27T09:17:51.91Z</time></trkpt><trkpt lat="46.12360540615041" lon="10.126731794425023"><ele>1115.0</ele><time>2026-04-27T09:17:52.91Z</time></trkpt><trkpt lat="46.12353401946467" lon="10.126806226638616"><ele>1115.0</ele><time>2026-04-27T09:17:53.91Z</time></trkpt><trkpt lat="46.123467421414944" lon="10.126869008340307"><ele>1115.0</ele><time>2026-04-27T09:17:54.91Z</time></trkpt><trkpt lat="46.12339141642698" lon="10.12691168367394"><ele>1115.0</ele><time>2026-04-27T09:17:55.91Z</time></trkpt><trkpt lat="46.123306874066415" lon="10.126930333058398"><ele>1115.0</ele><time>2026-04-27T09:17:56.91Z</time></trkpt><trkpt lat="46.123209065202246" lon="10.126976323895823"><ele>1115.0</ele><time>2026-04-27T09:17:57.91Z</time></trkpt><trkpt lat="46.12312039506675" lon="10.127018288139443"><ele>1122.4</ele><time>2026-04-27T09:17:58.91Z</time></trkpt><trkpt lat="46.12303429299546" lon="10.127073884819234"><ele>1129.8</ele><time>2026-04-27T09:17:59.91Z</time></trkpt><trkpt lat="46.12294184930518" lon="10.12711973254482"><ele>1137.2</ele><time>2026-04-27T09:18:00.91Z</time></trkpt><trkpt lat="46.122860891577524" lon="10.127150826321547"><ele>1144.6</ele><time>2026-04-27T09:18:01.91Z</time></trkpt><trkpt lat="46.12277351234696" lon="10.12723991942481"><ele>1152.0</ele><time>2026-04-27T09:18:02.91Z</time></trkpt><trkpt lat="46.122682212948" lon="10.12730519420558"><ele>1152.0</ele><time>2026-04-27T09:18:03.91Z</time></trkpt><trkpt lat="46.12259283565025" lon="10.127366203435402"><ele>1152.0</ele><time>2026-04-27T09:18:04.91Z</time></trkpt><trkpt lat="46.122503798830415" lon="10.127395080785401"><ele>1152.0</ele><time>2026-04-27T09:18:05.91Z</time></trkpt><trkpt lat="46.122419775310085" lon="10.127410208966895"><ele>1152.0</ele><time>2026-04-27T09:18:06.91Z</time></trkpt><trkpt lat="46.122334485961574" lon="10.127462128053795"><ele>1152.0</ele><time>2026-04-27T09:18:07.91Z</time></trkpt><trkpt lat="46.12225418834246" lon="10.127516838686914"><ele>1153.8333333333333</ele><time>2026-04-27T09:18:08.91Z</time></trkpt><trkpt lat="46.12218641296964" lon="10.127580584986113"><ele>1155.6666666666667</ele><time>2026-04-27T09:18:09.91Z</time></trkpt><trkpt lat="46.12211739007809" lon="10.12766899626863"><ele>1157.5</ele><time>2026-04-27T09:18:10.91Z</time></trkpt><trkpt lat="46.12206550091249" lon="10.127748697064357"><ele>1159.3333333333335</ele><time>2026-04-27T09:18:11.91Z</time></trkpt><trkpt lat="46.1220110165694" lon="10.127832285013051"><ele>1161.1666666666667</ele><time>2026-04-27T09:18:12.91Z</time></trkpt><trkpt lat="46.12195699524752" lon="10.127931404699131"><ele>1163.0</ele><time>2026-04-27T09:18:13.91Z</time></trkpt><trkpt lat="46.12189654787797" lon="10.128057415082434"><ele>1163.0</ele><time>2026-04-27T09:18:14.91Z</time></trkpt><trkpt lat="46.12183824790887" lon="10.128181622436578"><ele>1163.0</ele><time>2026-04-27T09:18:15.91Z</time></trkpt><trkpt lat="46.12177955544189" lon="10.128260031941458"><ele>1163.0</ele><time>2026-04-27T09:18:16.91Z</time></trkpt><trkpt lat="46.12166769248741" lon="10.128362621758361"><ele>1163.0</ele><time>2026-04-27T09:18:18.91Z</time></trkpt><trkpt lat="46.12157547068268" lon="10.128419031219348"><ele>1163.0</ele><time>2026-04-27T09:18:19.91Z</time></trkpt><trkpt lat="46.12149528426935" lon="10.128473509473723"><ele>1163.6</ele><time>2026-04-27T09:18:20.909Z</time></trkpt><trkpt lat="46.12142134753785" lon="10.128541408071962"><ele>1164.1999999999998</ele><time>2026-04-27T09:18:21.909Z</time></trkpt><trkpt lat="46.12135593066532" lon="10.12858252296002"><ele>1164.8</ele><time>2026-04-27T09:18:22.91Z</time></trkpt><trkpt lat="46.12126096981183" lon="10.128744608264642"><ele>1165.3999999999999</ele><time>2026-04-27T09:18:24.91Z</time></trkpt><trkpt lat="46.12120805288279" lon="10.128854937556612"><ele>1166.0</ele><time>2026-04-27T09:18:25.91Z</time></trkpt><trkpt lat="46.121145139231515" lon="10.128947039155436"><ele>1166.0</ele><time>2026-04-27T09:18:26.91Z</time></trkpt><trkpt lat="46.12107866890447" lon="10.128974457851184"><ele>1166.0</ele><time>2026-04-27T09:18:27.91Z</time></trkpt><trkpt lat="46.12101160720002" lon="10.129013550143467"><ele>1166.0</ele><time>2026-04-27T09:18:28.909Z</time></trkpt><trkpt lat="46.120922095705886" lon="10.12903133187289"><ele>1166.0</ele><time>2026-04-27T09:18:29.91Z</time></trkpt><trkpt lat="46.12084977523052" lon="10.129098285231485"><ele>1166.0</ele><time>2026-04-27T09:18:30.91Z</time></trkpt><trkpt lat="46.1207880287923" lon="10.129137924863839"><ele>1166.0</ele><time>2026-04-27T09:18:31.91Z</time></trkpt><trkpt lat="46.12073446634373" lon="10.129208930544367"><ele>1167.5714285714287</ele><time>2026-04-27T09:18:32.91Z</time></trkpt><trkpt lat="46.12067982835125" lon="10.129281586698331"><ele>1169.142857142857</ele><time>2026-04-27T09:18:33.91Z</time></trkpt><trkpt lat="46.12062804392928" lon="10.129370974659372"><ele>1170.7142857142858</ele><time>2026-04-27T09:18:34.91Z</time></trkpt><trkpt lat="46.12058001314551" lon="10.129434401975917"><ele>1172.2857142857142</ele><time>2026-04-27T09:18:35.91Z</time></trkpt><trkpt lat="46.12052409525225" lon="10.129482981811782"><ele>1173.857142857143</ele><time>2026-04-27T09:18:36.91Z</time></trkpt><trkpt lat="46.120474434177254" lon="10.129539941068842"><ele>1175.4285714285716</ele><time>2026-04-27T09:18:37.91Z</time></trkpt><trkpt lat="46.12043101323363" lon="10.129611683864708"><ele>1177.0</ele><time>2026-04-27T09:18:38.91Z</time></trkpt><trkpt lat="46.12034103341528" lon="10.129728282772824"><ele>1177.0</ele><time>2026-04-27T09:18:40.91Z</time></trkpt><trkpt lat="46.12029134769007" lon="10.12978832649499"><ele>1177.0</ele><time>2026-04-27T09:18:41.91Z</time></trkpt><trkpt lat="46.12019689824176" lon="10.129905429810437"><ele>1177.0</ele><time>2026-04-27T09:18:43.91Z</time></trkpt><trkpt lat="46.120074697463906" lon="10.129977125003784"><ele>1177.0</ele><time>2026-04-27T09:18:45.91Z</time></trkpt><trkpt lat="46.12002530495268" lon="10.130063448510562"><ele>1177.0</ele><time>2026-04-27T09:18:46.91Z</time></trkpt><trkpt lat="46.1199416472053" lon="10.130192039372478"><ele>1185.4</ele><time>2026-04-27T09:18:48.91Z</time></trkpt><trkpt lat="46.11988687088675" lon="10.130255119051188"><ele>1193.8000000000002</ele><time>2026-04-27T09:18:49.91Z</time></trkpt><trkpt lat="46.11982414571119" lon="10.130319122235294"><ele>1202.2</ele><time>2026-04-27T09:18:50.91Z</time></trkpt><trkpt lat="46.119741558018454" lon="10.13039736960437"><ele>1210.6000000000001</ele><time>2026-04-27T09:18:52.91Z</time></trkpt><trkpt lat="46.11965196050242" lon="10.130431771432644"><ele>1219.0</ele><time>2026-04-27T09:18:54.91Z</time></trkpt><trkpt lat="46.11953928966074" lon="10.130444823966506"><ele>1219.0</ele><time>2026-04-27T09:18:56.91Z</time></trkpt><trkpt lat="46.11948045507053" lon="10.130487648998924"><ele>1219.0</ele><time>2026-04-27T09:18:57.91Z</time></trkpt><trkpt lat="46.119417480512325" lon="10.13051096293913"><ele>1219.0</ele><time>2026-04-27T09:18:58.91Z</time></trkpt><trkpt lat="46.119309067389246" lon="10.130516683646578"><ele>1219.0</ele><time>2026-04-27T09:19:00.91Z</time></trkpt><trkpt lat="46.11922514794396" lon="10.130587301677025"><ele>1219.0</ele><time>2026-04-27T09:19:02.91Z</time></trkpt><trkpt lat="46.119167176934226" lon="10.13064760784369"><ele>1219.0</ele><time>2026-04-27T09:19:03.91Z</time></trkpt><trkpt lat="46.11907018625839" lon="10.130743871514198"><ele>1219.1666666666665</ele><time>2026-04-27T09:19:05.91Z</time></trkpt><trkpt lat="46.11899146413888" lon="10.13087074786553"><ele>1219.3333333333333</ele><time>2026-04-27T09:19:07.91Z</time></trkpt><trkpt lat="46.118948534332645" lon="10.13095221053418"><ele>1219.5</ele><time>2026-04-27T09:19:08.909Z</time></trkpt><trkpt lat="46.11890160469823" lon="10.131025737472509"><ele>1219.6666666666667</ele><time>2026-04-27T09:19:09.909Z</time></trkpt><trkpt lat="46.11884638563522" lon="10.131084249026145"><ele>1219.8333333333335</ele><time>2026-04-27T09:19:10.909Z</time></trkpt><trkpt lat="46.11873733519757" lon="10.13115802870625"><ele>1220.0</ele><time>2026-04-27T09:19:12.909Z</time></trkpt><trkpt lat="46.11864531977017" lon="10.131316561969781"><ele>1220.0</ele><time>2026-04-27T09:19:14.909Z</time></trkpt><trkpt lat="46.11859992072941" lon="10.13138835037754"><ele>1220.0</ele><time>2026-04-27T09:19:15.909Z</time></trkpt><trkpt lat="46.11855979705822" lon="10.13146955514751"><ele>1220.0</ele><time>2026-04-27T09:19:16.909Z</time></trkpt><trkpt lat="46.118494682494564" lon="10.131569945036613"><ele>1220.0</ele><time>2026-04-27T09:19:18.909Z</time></trkpt><trkpt lat="46.11845572813543" lon="10.131681851050441"><ele>1220.0</ele><time>2026-04-27T09:19:21.909Z</time></trkpt><trkpt lat="46.11837531190873" lon="10.131636111342438"><ele>1220.0</ele><time>2026-04-27T09:19:24.909Z</time></trkpt><trkpt lat="46.11845333703541" lon="10.131472153352329"><ele>1220.0</ele><time>2026-04-27T09:19:26.909Z</time></trkpt><trkpt lat="46.11853646700441" lon="10.131379479098669"><ele>1220.0</ele><time>2026-04-27T09:19:28.909Z</time></trkpt><trkpt lat="46.118574634768564" lon="10.13124047755468"><ele>1220.0</ele><time>2026-04-27T09:19:30.909Z</time></trkpt><trkpt lat="46.118607951867226" lon="10.13109679435652"><ele>1220.0</ele><time>2026-04-27T09:19:32.909Z</time></trkpt><trkpt lat="46.11864918354026" lon="10.130979294523048"><ele>1220.0</ele><time>2026-04-27T09:19:34.909Z</time></trkpt><trkpt lat="46.11869101352499" lon="10.130901444058619"><ele>1220.0</ele><time>2026-04-27T09:19:36.909Z</time></trkpt><trkpt lat="46.11864601987149" lon="10.13081114633709"><ele>1220.0</ele><time>2026-04-27T09:19:39.909Z</time></trkpt><trkpt lat="46.1185361727738" lon="10.130803183927933"><ele>1220.0</ele><time>2026-04-27T09:19:41.909Z</time></trkpt><trkpt lat="46.11847074325001" lon="10.13091778049742"><ele>1220.0</ele><time>2026-04-27T09:19:43.909Z</time></trkpt><trkpt lat="46.11844734479475" lon="10.131010746655269"><ele>1220.0</ele><time>2026-04-27T09:19:44.909Z</time></trkpt><trkpt lat="46.11839308083339" lon="10.131110405525837"><ele>1220.0</ele><time>2026-04-27T09:19:45.909Z</time></trkpt><trkpt lat="46.11834286581212" lon="10.131216899119222"><ele>1220.0</ele><time>2026-04-27T09:19:46.909Z</time></trkpt><trkpt lat="46.11829066056672" lon="10.131308176418305"><ele>1220.0</ele><time>2026-04-27T09:19:47.909Z</time></trkpt><trkpt lat="46.1182377361279" lon="10.131362536097662"><ele>1220.0</ele><time>2026-04-27T09:19:48.909Z</time></trkpt><trkpt lat="46.118123528187304" lon="10.131424996395495"><ele>1220.0</ele><time>2026-04-27T09:19:50.909Z</time></trkpt><trkpt lat="46.118053062585716" lon="10.131433175994157"><ele>1220.0</ele><time>2026-04-27T09:19:51.909Z</time></trkpt><trkpt lat="46.117921797707055" lon="10.131437295353464"><ele>1220.0</ele><time>2026-04-27T09:19:53.909Z</time></trkpt><trkpt lat="46.11784606311869" lon="10.131462095658847"><ele>1220.0</ele><time>2026-04-27T09:19:54.909Z</time></trkpt><trkpt lat="46.11776614739128" lon="10.131513548969124"><ele>1220.0</ele><time>2026-04-27T09:19:55.909Z</time></trkpt><trkpt lat="46.11767909503608" lon="10.131580924079104"><ele>1220.0</ele><time>2026-04-27T09:19:56.909Z</time></trkpt><trkpt lat="46.11760918037685" lon="10.131560442503645"><ele>1220.0</ele><time>2026-04-27T09:19:57.909Z</time></trkpt><trkpt lat="46.117529274609424" lon="10.13153297448056"><ele>1220.0</ele><time>2026-04-27T09:19:58.909Z</time></trkpt><trkpt lat="46.11744778682298" lon="10.131562928545703"><ele>1223.6</ele><time>2026-04-27T09:19:59.909Z</time></trkpt><trkpt lat="46.1173570045425" lon="10.131631231189516"><ele>1227.2</ele><time>2026-04-27T09:20:00.909Z</time></trkpt><trkpt lat="46.117274246734794" lon="10.131658857102972"><ele>1230.8</ele><time>2026-04-27T09:20:01.909Z</time></trkpt><trkpt lat="46.11718652138679" lon="10.131710970272662"><ele>1234.4</ele><time>2026-04-27T09:20:02.909Z</time></trkpt><trkpt lat="46.117107654545435" lon="10.13174472595755"><ele>1238.0</ele><time>2026-04-27T09:20:03.909Z</time></trkpt><trkpt lat="46.11701801848786" lon="10.131779572423566"><ele>1238.0</ele><time>2026-04-27T09:20:04.909Z</time></trkpt><trkpt lat="46.11693242788451" lon="10.131831740363909"><ele>1238.0</ele><time>2026-04-27T09:20:05.909Z</time></trkpt><trkpt lat="46.11684161832497" lon="10.131948684648469"><ele>1238.0</ele><time>2026-04-27T09:20:06.909Z</time></trkpt><trkpt lat="46.11675580176497" lon="10.132007994171403"><ele>1238.0</ele><time>2026-04-27T09:20:07.909Z</time></trkpt><trkpt lat="46.11667982715606" lon="10.132059761411549"><ele>1238.0</ele><time>2026-04-27T09:20:08.909Z</time></trkpt><trkpt lat="46.116590122788" lon="10.132109964606434"><ele>1236.1666666666667</ele><time>2026-04-27T09:20:09.909Z</time></trkpt><trkpt lat="46.11651471470392" lon="10.132176587372745"><ele>1234.3333333333335</ele><time>2026-04-27T09:20:10.909Z</time></trkpt><trkpt lat="46.11644897829157" lon="10.132263522655515"><ele>1232.5</ele><time>2026-04-27T09:20:11.909Z</time></trkpt><trkpt lat="46.11638543881457" lon="10.132336628468416"><ele>1230.6666666666667</ele><time>2026-04-27T09:20:12.909Z</time></trkpt><trkpt lat="46.11632499528039" lon="10.13238538910478"><ele>1228.8333333333333</ele><time>2026-04-27T09:20:13.909Z</time></trkpt><trkpt lat="46.1162646553455" lon="10.132438038617078"><ele>1227.0</ele><time>2026-04-27T09:20:14.909Z</time></trkpt><trkpt lat="46.116202728476345" lon="10.132479658491789"><ele>1227.0</ele><time>2026-04-27T09:20:15.909Z</time></trkpt><trkpt lat="46.11612763276382" lon="10.132527253072762"><ele>1227.0</ele><time>2026-04-27T09:20:16.909Z</time></trkpt><trkpt lat="46.116056474754565" lon="10.132542911119637"><ele>1227.0</ele><time>2026-04-27T09:20:17.909Z</time></trkpt><trkpt lat="46.115974527138135" lon="10.1325702152459"><ele>1227.0</ele><time>2026-04-27T09:20:18.909Z</time></trkpt><trkpt lat="46.11588105234218" lon="10.132623131385255"><ele>1227.0</ele><time>2026-04-27T09:20:19.909Z</time></trkpt><trkpt lat="46.11580360664487" lon="10.132673220238328"><ele>1227.0</ele><time>2026-04-27T09:20:20.909Z</time></trkpt><trkpt lat="46.11572972992012" lon="10.132727070993127"><ele>1229.5</ele><time>2026-04-27T09:20:21.909Z</time></trkpt><trkpt lat="46.11564511804831" lon="10.132771068184919"><ele>1232.0</ele><time>2026-04-27T09:20:22.909Z</time></trkpt><trkpt lat="46.11555720221603" lon="10.132808665217219"><ele>1234.5</ele><time>2026-04-27T09:20:23.909Z</time></trkpt><trkpt lat="46.11546299713668" lon="10.132861891790869"><ele>1237.0</ele><time>2026-04-27T09:20:24.909Z</time></trkpt><trkpt lat="46.11539478993975" lon="10.132896832031593"><ele>1239.5</ele><time>2026-04-27T09:20:25.908Z</time></trkpt><trkpt lat="46.11533136442236" lon="10.132950771319393"><ele>1242.0</ele><time>2026-04-27T09:20:26.909Z</time></trkpt><trkpt lat="46.11526457900975" lon="10.132990900357633"><ele>1242.0</ele><time>2026-04-27T09:20:27.909Z</time></trkpt><trkpt lat="46.11520461777745" lon="10.133037993986942"><ele>1242.0</ele><time>2026-04-27T09:20:28.909Z</time></trkpt><trkpt lat="46.115145926592966" lon="10.133077436888298"><ele>1242.0</ele><time>2026-04-27T09:20:29.908Z</time></trkpt><trkpt lat="46.115058135168596" lon="10.133137010339608"><ele>1242.0</ele><time>2026-04-27T09:20:31.909Z</time></trkpt><trkpt lat="46.114994583440186" lon="10.133124227175829"><ele>1242.0</ele><time>2026-04-27T09:20:34.909Z</time></trkpt><trkpt lat="46.11492993842362" lon="10.133246569698144"><ele>1242.0</ele><time>2026-04-27T09:20:52.908Z</time></trkpt><trkpt lat="46.11498551427466" lon="10.13329399501387"><ele>1238.5</ele><time>2026-04-27T09:20:58.908Z</time></trkpt><trkpt lat="46.1150643631641" lon="10.133259047043168"><ele>1235.0</ele><time>2026-04-27T09:21:00.908Z</time></trkpt><trkpt lat="46.11513928244533" lon="10.133241173570312"><ele>1231.5</ele><time>2026-04-27T09:21:02.908Z</time></trkpt><trkpt lat="46.115210629551356" lon="10.133261168830453"><ele>1228.0</ele><time>2026-04-27T09:21:04.908Z</time></trkpt><trkpt lat="46.115271441385104" lon="10.133305235955524"><ele>1224.5</ele><time>2026-04-27T09:21:05.908Z</time></trkpt><trkpt lat="46.11532776008489" lon="10.133362575292994"><ele>1221.0</ele><time>2026-04-27T09:21:07.908Z</time></trkpt><trkpt lat="46.115304694108715" lon="10.133530339212523"><ele>1221.0</ele><time>2026-04-27T09:21:09.908Z</time></trkpt><trkpt lat="46.11531043903713" lon="10.133635122112272"><ele>1221.0</ele><time>2026-04-27T09:21:11.908Z</time></trkpt><trkpt lat="46.11532729424913" lon="10.133733090538161"><ele>1221.0</ele><time>2026-04-27T09:21:13.908Z</time></trkpt><trkpt lat="46.11537699664032" lon="10.133850131368929"><ele>1221.0</ele><time>2026-04-27T09:21:15.908Z</time></trkpt><trkpt lat="46.11541002288096" lon="10.133964069801737"><ele>1221.0</ele><time>2026-04-27T09:21:17.908Z</time></trkpt><trkpt lat="46.115440239127324" lon="10.134103574753015"><ele>1221.0</ele><time>2026-04-27T09:21:19.908Z</time></trkpt><trkpt lat="46.115425994036556" lon="10.134193288336936"><ele>1220.8333333333333</ele><time>2026-04-27T09:21:21.908Z</time></trkpt><trkpt lat="46.11534599133726" lon="10.134267219118229"><ele>1220.6666666666667</ele><time>2026-04-27T09:21:23.908Z</time></trkpt><trkpt lat="46.11529111381846" lon="10.134371327378934"><ele>1220.5</ele><time>2026-04-27T09:21:25.908Z</time></trkpt><trkpt lat="46.11525453075384" lon="10.134464971356117"><ele>1220.3333333333335</ele><time>2026-04-27T09:21:27.908Z</time></trkpt><trkpt lat="46.1152877088089" lon="10.134562902724735"><ele>1220.1666666666667</ele><time>2026-04-27T09:21:28.908Z</time></trkpt><trkpt lat="46.11530141584498" lon="10.134656189010645"><ele>1220.0</ele><time>2026-04-27T09:21:29.908Z</time></trkpt><trkpt lat="46.11529741364316" lon="10.134760647063835"><ele>1220.0</ele><time>2026-04-27T09:21:38.908Z</time></trkpt><trkpt lat="46.115363083692415" lon="10.134793350589105"><ele>1220.0</ele><time>2026-04-27T09:22:20.907Z</time></trkpt><trkpt lat="46.11537788253017" lon="10.134696447229445"><ele>1220.0</ele><time>2026-04-27T09:23:49.906Z</time></trkpt><trkpt lat="46.11535157590198" lon="10.134561891822244"><ele>1220.0</ele><time>2026-04-27T09:23:52.906Z</time></trkpt><trkpt lat="46.11533377099749" lon="10.134448950747682"><ele>1220.0</ele><time>2026-04-27T09:23:54.906Z</time></trkpt><trkpt lat="46.11538530822737" lon="10.13434890743441"><ele>1220.0</ele><time>2026-04-27T09:23:57.906Z</time></trkpt><trkpt lat="46.11542238937738" lon="10.134271939726874"><ele>1220.0</ele><time>2026-04-27T09:23:59.906Z</time></trkpt><trkpt lat="46.11548340728779" lon="10.134208982553625"><ele>1220.0</ele><time>2026-04-27T09:24:01.906Z</time></trkpt><trkpt lat="46.11551582919613" lon="10.134107037017543"><ele>1220.0</ele><time>2026-04-27T09:24:04.906Z</time></trkpt><trkpt lat="46.11553509143564" lon="10.134010974802075"><ele>1220.0</ele><time>2026-04-27T09:24:07.906Z</time></trkpt><trkpt lat="46.11552062579215" lon="10.133896762797859"><ele>1220.0</ele><time>2026-04-27T09:24:11.906Z</time></trkpt><trkpt lat="46.11550367462031" lon="10.133781211621564"><ele>1220.0</ele><time>2026-04-27T09:24:13.906Z</time></trkpt><trkpt lat="46.11548152230875" lon="10.133642555398088"><ele>1220.2</ele><time>2026-04-27T09:24:15.906Z</time></trkpt><trkpt lat="46.115482239442514" lon="10.133513653489144"><ele>1220.4</ele><time>2026-04-27T09:24:17.906Z</time></trkpt><trkpt lat="46.11547186709267" lon="10.133371014481591"><ele>1220.6</ele><time>2026-04-27T09:24:19.906Z</time></trkpt><trkpt lat="46.11546840510499" lon="10.133249201195996"><ele>1220.8</ele><time>2026-04-27T09:24:21.906Z</time></trkpt><trkpt lat="46.115394231339195" lon="10.133185422069602"><ele>1221.0</ele><time>2026-04-27T09:24:23.906Z</time></trkpt><trkpt lat="46.115283876030034" lon="10.13318748102038"><ele>1221.0</ele><time>2026-04-27T09:24:25.906Z</time></trkpt><trkpt lat="46.11517697239974" lon="10.133211279639365"><ele>1221.0</ele><time>2026-04-27T09:24:27.906Z</time></trkpt><trkpt lat="46.11508404315906" lon="10.133220156092865"><ele>1221.0</ele><time>2026-04-27T09:24:29.906Z</time></trkpt><trkpt lat="46.1149954578721" lon="10.133234575082184"><ele>1221.0</ele><time>2026-04-27T09:24:31.906Z</time></trkpt><trkpt lat="46.114936004501445" lon="10.133204063787534"><ele>1221.0</ele><time>2026-04-27T09:24:33.906Z</time></trkpt><trkpt lat="46.114875247638984" lon="10.13326227657138"><ele>1221.0</ele><time>2026-04-27T09:24:34.906Z</time></trkpt><trkpt lat="46.114818399651206" lon="10.13332124840786"><ele>1226.1666666666667</ele><time>2026-04-27T09:24:35.906Z</time></trkpt><trkpt lat="46.11475494399609" lon="10.133370523549786"><ele>1231.3333333333333</ele><time>2026-04-27T09:24:36.906Z</time></trkpt><trkpt lat="46.11469916813863" lon="10.133421927815442"><ele>1236.5</ele><time>2026-04-27T09:24:37.906Z</time></trkpt><trkpt lat="46.11463788209376" lon="10.133478174284113"><ele>1241.6666666666665</ele><time>2026-04-27T09:24:38.906Z</time></trkpt><trkpt lat="46.11458196860824" lon="10.133547484139958"><ele>1246.8333333333333</ele><time>2026-04-27T09:24:39.906Z</time></trkpt><trkpt lat="46.11449437563522" lon="10.13365151565865"><ele>1252.0</ele><time>2026-04-27T09:24:41.906Z</time></trkpt><trkpt lat="46.114442298741714" lon="10.133799783138656"><ele>1252.0</ele><time>2026-04-27T09:24:43.906Z</time></trkpt><trkpt lat="46.114377472264614" lon="10.133992982078222"><ele>1252.0</ele><time>2026-04-27T09:24:45.906Z</time></trkpt><trkpt lat="46.11435205281356" lon="10.134076373691894"><ele>1252.0</ele><time>2026-04-27T09:24:46.907Z</time></trkpt><trkpt lat="46.114302866809446" lon="10.134143017825886"><ele>1252.0</ele><time>2026-04-27T09:24:47.906Z</time></trkpt><trkpt lat="46.11426178641084" lon="10.134232490039947"><ele>1252.0</ele><time>2026-04-27T09:24:48.906Z</time></trkpt><trkpt lat="46.11422976469922" lon="10.13433305170462"><ele>1252.0</ele><time>2026-04-27T09:24:49.906Z</time></trkpt><trkpt lat="46.11416244154144" lon="10.134482610046362"><ele>1251.6666666666665</ele><time>2026-04-27T09:24:51.906Z</time></trkpt><trkpt lat="46.11413285167319" lon="10.134567210177352"><ele>1251.3333333333333</ele><time>2026-04-27T09:24:52.906Z</time></trkpt><trkpt lat="46.114105496324136" lon="10.134665597112187"><ele>1251.0</ele><time>2026-04-27T09:24:53.906Z</time></trkpt><trkpt lat="46.11408105371272" lon="10.134755962213221"><ele>1250.6666666666667</ele><time>2026-04-27T09:24:54.906Z</time></trkpt><trkpt lat="46.11404339404913" lon="10.134832488538425"><ele>1250.3333333333335</ele><time>2026-04-27T09:24:55.906Z</time></trkpt><trkpt lat="46.11400646641986" lon="10.134914038444371"><ele>1250.0</ele><time>2026-04-27T09:24:56.905Z</time></trkpt><trkpt lat="46.11394667026193" lon="10.13504855330596"><ele>1250.0</ele><time>2026-04-27T09:24:58.905Z</time></trkpt><trkpt lat="46.11391690660273" lon="10.135134810698926"><ele>1250.0</ele><time>2026-04-27T09:24:59.905Z</time></trkpt><trkpt lat="46.11383970939449" lon="10.135274477138447"><ele>1250.0</ele><time>2026-04-27T09:25:01.905Z</time></trkpt><trkpt lat="46.113783092686816" lon="10.13533991558938"><ele>1250.0</ele><time>2026-04-27T09:25:02.905Z</time></trkpt><trkpt lat="46.113719994857625" lon="10.135394691451127"><ele>1250.0</ele><time>2026-04-27T09:25:03.905Z</time></trkpt><trkpt lat="46.1136511373444" lon="10.13544577720038"><ele>1250.0</ele><time>2026-04-27T09:25:04.905Z</time></trkpt><trkpt lat="46.11358430569926" lon="10.13549555750007"><ele>1250.0000000000002</ele><time>2026-04-27T09:25:05.905Z</time></trkpt><trkpt lat="46.11352282939963" lon="10.135530398527091"><ele>1250.0</ele><time>2026-04-27T09:25:06.905Z</time></trkpt><trkpt lat="46.113462001153394" lon="10.13560485962339"><ele>1250.0</ele><time>2026-04-27T09:25:07.905Z</time></trkpt><trkpt lat="46.113412540554805" lon="10.135676847137972"><ele>1250.0</ele><time>2026-04-27T09:25:08.905Z</time></trkpt><trkpt lat="46.11336941806187" lon="10.135762358376144"><ele>1250.0</ele><time>2026-04-27T09:25:09.905Z</time></trkpt><trkpt lat="46.1133215503969" lon="10.135838288395943"><ele>1250.0000000000002</ele><time>2026-04-27T09:25:10.905Z</time></trkpt><trkpt lat="46.11327736769955" lon="10.135918434470355"><ele>1250.0</ele><time>2026-04-27T09:25:11.905Z</time></trkpt><trkpt lat="46.11324781369064" lon="10.136009251653242"><ele>1252.6666666666667</ele><time>2026-04-27T09:25:12.905Z</time></trkpt><trkpt lat="46.1131982373428" lon="10.13618534417234"><ele>1255.3333333333335</ele><time>2026-04-27T09:25:14.905Z</time></trkpt><trkpt lat="46.11315714117817" lon="10.136294771873896"><ele>1258.0</ele><time>2026-04-27T09:25:15.905Z</time></trkpt><trkpt lat="46.11310984653732" lon="10.136358105663959"><ele>1260.6666666666667</ele><time>2026-04-27T09:25:16.905Z</time></trkpt><trkpt lat="46.11305231449378" lon="10.136435251065127"><ele>1263.3333333333333</ele><time>2026-04-27T09:25:17.905Z</time></trkpt><trkpt lat="46.112997494208344" lon="10.136493473370514"><ele>1266.0</ele><time>2026-04-27T09:25:18.905Z</time></trkpt><trkpt lat="46.1129402782475" lon="10.136575353074422"><ele>1266.0</ele><time>2026-04-27T09:25:19.905Z</time></trkpt><trkpt lat="46.112879900476116" lon="10.136675204566593"><ele>1266.0</ele><time>2026-04-27T09:25:20.905Z</time></trkpt><trkpt lat="46.11281985655784" lon="10.136735818150012"><ele>1266.0</ele><time>2026-04-27T09:25:21.905Z</time></trkpt><trkpt lat="46.1127674556917" lon="10.136818758729994"><ele>1266.0</ele><time>2026-04-27T09:25:22.905Z</time></trkpt><trkpt lat="46.11270998654888" lon="10.136900224816646"><ele>1266.0</ele><time>2026-04-27T09:25:23.905Z</time></trkpt><trkpt lat="46.11265686023502" lon="10.136978444674657"><ele>1266.0</ele><time>2026-04-27T09:25:24.905Z</time></trkpt><trkpt lat="46.112600870779765" lon="10.13704590081477"><ele>1266.0</ele><time>2026-04-27T09:25:25.905Z</time></trkpt><trkpt lat="46.11254669591937" lon="10.137123693079715"><ele>1266.0</ele><time>2026-04-27T09:25:26.905Z</time></trkpt><trkpt lat="46.112484165741115" lon="10.137175092241714"><ele>1266.0</ele><time>2026-04-27T09:25:27.905Z</time></trkpt><trkpt lat="46.11242630963148" lon="10.137219412276549"><ele>1266.0</ele><time>2026-04-27T09:25:28.905Z</time></trkpt><trkpt lat="46.11235668009715" lon="10.137249469981533"><ele>1266.0</ele><time>2026-04-27T09:25:29.905Z</time></trkpt><trkpt lat="46.11229504939992" lon="10.137272848454717"><ele>1266.0</ele><time>2026-04-27T09:25:30.905Z</time></trkpt><trkpt lat="46.11222619399587" lon="10.137304855022794"><ele>1266.0</ele><time>2026-04-27T09:25:31.905Z</time></trkpt><trkpt lat="46.112155085153354" lon="10.137341582398435"><ele>1268.0</ele><time>2026-04-27T09:25:32.905Z</time></trkpt><trkpt lat="46.11209173869795" lon="10.137367874038993"><ele>1270.0</ele><time>2026-04-27T09:25:33.905Z</time></trkpt><trkpt lat="46.112018448392504" lon="10.137401563186172"><ele>1272.0</ele><time>2026-04-27T09:25:34.905Z</time></trkpt><trkpt lat="46.11194977889701" lon="10.137434241613882"><ele>1274.0</ele><time>2026-04-27T09:25:35.905Z</time></trkpt><trkpt lat="46.11188571581521" lon="10.137457442810422"><ele>1276.0</ele><time>2026-04-27T09:25:36.905Z</time></trkpt><trkpt lat="46.111816143669024" lon="10.137487869760939"><ele>1278.0</ele><time>2026-04-27T09:25:37.905Z</time></trkpt><trkpt lat="46.111717406116185" lon="10.1375782639482"><ele>1278.0</ele><time>2026-04-27T09:25:39.905Z</time></trkpt><trkpt lat="46.11166152167798" lon="10.137634271617467"><ele>1278.0</ele><time>2026-04-27T09:25:40.905Z</time></trkpt><trkpt lat="46.11160920406687" lon="10.137710883004852"><ele>1278.0</ele><time>2026-04-27T09:25:41.905Z</time></trkpt><trkpt lat="46.11158099759511" lon="10.13780635011875"><ele>1278.0</ele><time>2026-04-27T09:25:42.905Z</time></trkpt><trkpt lat="46.11154990877185" lon="10.13792211778633"><ele>1278.0</ele><time>2026-04-27T09:25:43.905Z</time></trkpt><trkpt lat="46.11152016395518" lon="10.138030691699212"><ele>1278.0</ele><time>2026-04-27T09:25:45.905Z</time></trkpt><trkpt lat="46.11147525262348" lon="10.138109217183622"><ele>1279.5714285714287</ele><time>2026-04-27T09:25:48.905Z</time></trkpt><trkpt lat="46.11140164266232" lon="10.138172597081237"><ele>1281.142857142857</ele><time>2026-04-27T09:25:51.905Z</time></trkpt><trkpt lat="46.111327245106075" lon="10.13820510894538"><ele>1282.7142857142858</ele><time>2026-04-27T09:25:52.905Z</time></trkpt><trkpt lat="46.11127578519288" lon="10.138261496710959"><ele>1284.2857142857142</ele><time>2026-04-27T09:25:53.905Z</time></trkpt><trkpt lat="46.111219359464876" lon="10.138311938322557"><ele>1285.857142857143</ele><time>2026-04-27T09:25:54.905Z</time></trkpt><trkpt lat="46.111169931823774" lon="10.138370013581703"><ele>1287.4285714285716</ele><time>2026-04-27T09:25:55.905Z</time></trkpt><trkpt lat="46.11111705433078" lon="10.138435744084635"><ele>1289.0</ele><time>2026-04-27T09:25:56.905Z</time></trkpt><trkpt lat="46.1110616189606" lon="10.138499699839402"><ele>1289.0</ele><time>2026-04-27T09:25:57.905Z</time></trkpt><trkpt lat="46.11096616117297" lon="10.138585040724049"><ele>1289.0</ele><time>2026-04-27T09:25:59.905Z</time></trkpt><trkpt lat="46.11087478582152" lon="10.13870555347404"><ele>1289.0</ele><time>2026-04-27T09:26:01.905Z</time></trkpt><trkpt lat="46.11083604962227" lon="10.13878476506612"><ele>1289.0</ele><time>2026-04-27T09:26:02.905Z</time></trkpt><trkpt lat="46.110800384735725" lon="10.138918000555538"><ele>1289.0</ele><time>2026-04-27T09:26:04.905Z</time></trkpt><trkpt lat="46.110804672319055" lon="10.139067624093338"><ele>1289.2</ele><time>2026-04-27T09:26:06.905Z</time></trkpt><trkpt lat="46.11079210843173" lon="10.139244539277886"><ele>1289.4</ele><time>2026-04-27T09:26:08.905Z</time></trkpt><trkpt lat="46.11077913665967" lon="10.139412587326667"><ele>1289.6</ele><time>2026-04-27T09:26:10.905Z</time></trkpt><trkpt lat="46.11073962507062" lon="10.139551055593927"><ele>1289.8</ele><time>2026-04-27T09:26:12.905Z</time></trkpt><trkpt lat="46.11070803514684" lon="10.139642397570084"><ele>1290.0</ele><time>2026-04-27T09:26:13.905Z</time></trkpt><trkpt lat="46.11070894937549" lon="10.139795514610434"><ele>1292.8333333333333</ele><time>2026-04-27T09:26:15.905Z</time></trkpt><trkpt lat="46.110664667551085" lon="10.139914992463963"><ele>1295.6666666666667</ele><time>2026-04-27T09:26:17.904Z</time></trkpt><trkpt lat="46.110591807726735" lon="10.139963341787135"><ele>1298.5</ele><time>2026-04-27T09:26:19.904Z</time></trkpt><trkpt lat="46.11049131149789" lon="10.139945159580572"><ele>1301.3333333333335</ele><time>2026-04-27T09:26:21.904Z</time></trkpt><trkpt lat="46.110408831364445" lon="10.13997531576519"><ele>1304.1666666666667</ele><time>2026-04-27T09:26:23.904Z</time></trkpt><trkpt lat="46.11032734378961" lon="10.139937982093464"><ele>1307.0</ele><time>2026-04-27T09:26:24.904Z</time></trkpt><trkpt lat="46.11026353371682" lon="10.139888659264516"><ele>1307.0</ele><time>2026-04-27T09:26:25.904Z</time></trkpt><trkpt lat="46.11017559694334" lon="10.139836511629031"><ele>1307.0</ele><time>2026-04-27T09:26:27.904Z</time></trkpt><trkpt lat="46.11006945793324" lon="10.139823619739918"><ele>1307.0</ele><time>2026-04-27T09:26:29.904Z</time></trkpt><trkpt lat="46.10999260349629" lon="10.139811535910729"><ele>1307.0</ele><time>2026-04-27T09:26:30.904Z</time></trkpt><trkpt lat="46.1099222347686" lon="10.139781447272407"><ele>1307.0</ele><time>2026-04-27T09:26:31.904Z</time></trkpt><trkpt lat="46.10982544787465" lon="10.1396808796857"><ele>1316.0</ele><time>2026-04-27T09:26:33.904Z</time></trkpt><trkpt lat="46.10973990444323" lon="10.139623870082195"><ele>1325.0</ele><time>2026-04-27T09:26:35.904Z</time></trkpt><trkpt lat="46.10967252111399" lon="10.13955982248238"><ele>1334.0</ele><time>2026-04-27T09:26:37.904Z</time></trkpt><trkpt lat="46.10962086166937" lon="10.139409541504458"><ele>1343.0</ele><time>2026-04-27T09:26:39.904Z</time></trkpt><trkpt lat="46.10958039647025" lon="10.139255995867188"><ele>1352.0</ele><time>2026-04-27T09:26:41.904Z</time></trkpt><trkpt lat="46.10955790549863" lon="10.139111917596681"><ele>1355.6</ele><time>2026-04-27T09:26:43.905Z</time></trkpt><trkpt lat="46.109494984473315" lon="10.13900113496666"><ele>1359.1999999999998</ele><time>2026-04-27T09:26:45.905Z</time></trkpt><trkpt lat="46.10949847116931" lon="10.138848396791865"><ele>1362.8</ele><time>2026-04-27T09:26:47.905Z</time></trkpt><trkpt lat="46.1095158220843" lon="10.13872393871671"><ele>1366.4</ele><time>2026-04-27T09:26:49.905Z</time></trkpt><trkpt lat="46.10950568733318" lon="10.13857446587238"><ele>1370.0</ele><time>2026-04-27T09:26:51.904Z</time></trkpt><trkpt lat="46.109522237508784" lon="10.138415901041334"><ele>1370.0</ele><time>2026-04-27T09:26:53.905Z</time></trkpt><trkpt lat="46.10958047525413" lon="10.13837155317644"><ele>1370.0</ele><time>2026-04-27T09:26:54.904Z</time></trkpt><trkpt lat="46.10960609518654" lon="10.13820472253815"><ele>1370.0</ele><time>2026-04-27T09:26:56.905Z</time></trkpt><trkpt lat="46.109643164304735" lon="10.138077311462753"><ele>1370.0</ele><time>2026-04-27T09:26:58.905Z</time></trkpt><trkpt lat="46.10965703153899" lon="10.137944733088876"><ele>1370.0</ele><time>2026-04-27T09:27:00.905Z</time></trkpt><trkpt lat="46.10969630387585" lon="10.137868566717728"><ele>1370.0</ele><time>2026-04-27T09:27:04.905Z</time></trkpt><trkpt lat="46.109661386629426" lon="10.137783174643287"><ele>1374.5714285714284</ele><time>2026-04-27T09:28:17.904Z</time></trkpt><trkpt lat="46.10961244788819" lon="10.137847234810813"><ele>1379.1428571428573</ele><time>2026-04-27T09:28:23.904Z</time></trkpt><trkpt lat="46.109581793901114" lon="10.137941633605143"><ele>1383.7142857142858</ele><time>2026-04-27T09:28:27.904Z</time></trkpt><trkpt lat="46.109577185888206" lon="10.137851003482105"><ele>1388.2857142857142</ele><time>2026-04-27T09:28:35.904Z</time></trkpt><trkpt lat="46.10953190531393" lon="10.137938410462244"><ele>1392.8571428571427</ele><time>2026-04-27T09:28:48.904Z</time></trkpt><trkpt lat="46.1094963069974" lon="10.138027123639487"><ele>1397.4285714285716</ele><time>2026-04-27T09:28:54.904Z</time></trkpt><trkpt lat="46.109446625763866" lon="10.138124356698814"><ele>1402.0</ele><time>2026-04-27T09:29:05.903Z</time></trkpt><trkpt lat="46.109380428926514" lon="10.138116916400007"><ele>1402.0</ele><time>2026-04-27T09:29:21.903Z</time></trkpt><trkpt lat="46.10934304882102" lon="10.138208385376883"><ele>1402.0</ele><time>2026-04-27T09:29:26.903Z</time></trkpt><trkpt lat="46.10927146749224" lon="10.138306937397006"><ele>1402.0</ele><time>2026-04-27T09:29:28.903Z</time></trkpt><trkpt lat="46.109203480555536" lon="10.138418230819095"><ele>1402.0</ele><time>2026-04-27T09:29:30.903Z</time></trkpt><trkpt lat="46.10912636442806" lon="10.138490059107491"><ele>1402.0</ele><time>2026-04-27T09:29:32.903Z</time></trkpt><trkpt lat="46.10905752595796" lon="10.138618545867688"><ele>1399.3999999999999</ele><time>2026-04-27T09:29:34.903Z</time></trkpt><trkpt lat="46.1090219390334" lon="10.138700118974768"><ele>1396.8</ele><time>2026-04-27T09:29:35.903Z</time></trkpt><trkpt lat="46.10898026972064" lon="10.138871603691092"><ele>1394.2</ele><time>2026-04-27T09:29:37.903Z</time></trkpt><trkpt lat="46.108935687629895" lon="10.138949582009996"><ele>1391.6</ele><time>2026-04-27T09:29:38.903Z</time></trkpt><trkpt lat="46.10889401391466" lon="10.139029926009282"><ele>1389.0</ele><time>2026-04-27T09:29:39.903Z</time></trkpt><trkpt lat="46.10880796972933" lon="10.139148062861876"><ele>1389.0</ele><time>2026-04-27T09:29:41.903Z</time></trkpt><trkpt lat="46.108749911955954" lon="10.139211144625273"><ele>1389.0</ele><time>2026-04-27T09:29:42.903Z</time></trkpt><trkpt lat="46.108658909401576" lon="10.139295190713595"><ele>1389.0</ele><time>2026-04-27T09:29:44.903Z</time></trkpt><trkpt lat="46.108554932949154" lon="10.139392164197893"><ele>1389.0</ele><time>2026-04-27T09:29:46.903Z</time></trkpt><trkpt lat="46.10848266093668" lon="10.139532132986487"><ele>1389.0</ele><time>2026-04-27T09:29:48.903Z</time></trkpt><trkpt lat="46.10841609214443" lon="10.139636781753625"><ele>1389.0</ele><time>2026-04-27T09:29:50.903Z</time></trkpt><trkpt lat="46.10838045055744" lon="10.13975140801953"><ele>1389.0</ele><time>2026-04-27T09:30:11.903Z</time></trkpt><trkpt lat="46.10831540251261" lon="10.139837886108443"><ele>1389.0</ele><time>2026-04-27T09:30:13.902Z</time></trkpt><trkpt lat="46.10824790216056" lon="10.139874621968024"><ele>1389.0</ele><time>2026-04-27T09:30:15.902Z</time></trkpt><trkpt lat="46.10821033476004" lon="10.139953282908198"><ele>1389.0</ele><time>2026-04-27T09:30:22.902Z</time></trkpt><trkpt lat="46.10814452886127" lon="10.1399686961441"><ele>1389.0</ele><time>2026-04-27T09:30:25.902Z</time></trkpt><trkpt lat="46.10804974975188" lon="10.139985026042247"><ele>1389.6</ele><time>2026-04-27T09:30:27.902Z</time></trkpt><trkpt lat="46.10792223790163" lon="10.140039711940437"><ele>1390.2</ele><time>2026-04-27T09:30:29.902Z</time></trkpt><trkpt lat="46.1078451191302" lon="10.140080579490903"><ele>1390.8</ele><time>2026-04-27T09:30:30.902Z</time></trkpt><trkpt lat="46.107774481624425" lon="10.14010536892015"><ele>1391.3999999999999</ele><time>2026-04-27T09:30:31.902Z</time></trkpt><trkpt lat="46.10765199150543" lon="10.140130199989528"><ele>1392.0</ele><time>2026-04-27T09:30:33.902Z</time></trkpt><trkpt lat="46.10757366008629" lon="10.140155501589735"><ele>1392.0</ele><time>2026-04-27T09:30:34.902Z</time></trkpt><trkpt lat="46.10746404469333" lon="10.140190796613865"><ele>1392.0</ele><time>2026-04-27T09:30:36.902Z</time></trkpt><trkpt lat="46.10739074450629" lon="10.140200231569768"><ele>1392.0</ele><time>2026-04-27T09:30:39.902Z</time></trkpt><trkpt lat="46.10732504215218" lon="10.140200357062755"><ele>1392.0</ele><time>2026-04-27T09:30:42.902Z</time></trkpt><trkpt lat="46.107242198042925" lon="10.140205583547923"><ele>1392.0</ele><time>2026-04-27T09:30:45.902Z</time></trkpt><trkpt lat="46.10713877724393" lon="10.140200395305976"><ele>1392.0</ele><time>2026-04-27T09:30:47.902Z</time></trkpt><trkpt lat="46.10706632532171" lon="10.140191182204468"><ele>1391.1999999999998</ele><time>2026-04-27T09:30:48.902Z</time></trkpt><trkpt lat="46.106962888044556" lon="10.140160352916991"><ele>1390.4</ele><time>2026-04-27T09:30:50.902Z</time></trkpt><trkpt lat="46.106859782851394" lon="10.140147196842443"><ele>1389.6</ele><time>2026-04-27T09:30:52.902Z</time></trkpt><trkpt lat="46.106772029174415" lon="10.140125004360502"><ele>1388.8000000000002</ele><time>2026-04-27T09:30:54.902Z</time></trkpt><trkpt lat="46.106682642194585" lon="10.140100842486216"><ele>1388.0</ele><time>2026-04-27T09:30:56.903Z</time></trkpt><trkpt lat="46.1066191388605" lon="10.140090935299769"><ele>1387.142857142857</ele><time>2026-04-27T09:30:59.902Z</time></trkpt><trkpt lat="46.106548947811916" lon="10.140104551500391"><ele>1386.2857142857142</ele><time>2026-04-27T09:31:02.902Z</time></trkpt><trkpt lat="46.10648061683559" lon="10.140052164355863"><ele>1385.4285714285713</ele><time>2026-04-27T09:31:04.902Z</time></trkpt><trkpt lat="46.10640915809746" lon="10.139971644083486"><ele>1384.5714285714284</ele><time>2026-04-27T09:31:06.902Z</time></trkpt><trkpt lat="46.10636391407445" lon="10.139903391419953"><ele>1383.7142857142858</ele><time>2026-04-27T09:31:07.903Z</time></trkpt><trkpt lat="46.10631518256131" lon="10.139830251697251"><ele>1382.8571428571427</ele><time>2026-04-27T09:31:08.903Z</time></trkpt><trkpt lat="46.10626680634314" lon="10.139755612179366"><ele>1382.0</ele><time>2026-04-27T09:31:09.903Z</time></trkpt><trkpt lat="46.106228069957474" lon="10.139673308138224"><ele>1382.0</ele><time>2026-04-27T09:31:10.903Z</time></trkpt><trkpt lat="46.10618231495448" lon="10.139591063722463"><ele>1382.0</ele><time>2026-04-27T09:31:11.903Z</time></trkpt><trkpt lat="46.10612166784308" lon="10.139512213136456"><ele>1382.0</ele><time>2026-04-27T09:31:12.903Z</time></trkpt><trkpt lat="46.10606954463736" lon="10.13945115326355"><ele>1382.0</ele><time>2026-04-27T09:31:13.903Z</time></trkpt><trkpt lat="46.1060006282334" lon="10.139402346338272"><ele>1382.0</ele><time>2026-04-27T09:31:16.903Z</time></trkpt><trkpt lat="46.105942863618786" lon="10.13946142191745"><ele>1382.0</ele><time>2026-04-27T09:31:18.903Z</time></trkpt><trkpt lat="46.10586105902267" lon="10.139547798313911"><ele>1381.9999999999998</ele><time>2026-04-27T09:31:20.903Z</time></trkpt><trkpt lat="46.105815350203024" lon="10.13961637843853"><ele>1382.0</ele><time>2026-04-27T09:31:21.903Z</time></trkpt><trkpt lat="46.10576332220152" lon="10.139692272510123"><ele>1382.0</ele><time>2026-04-27T09:31:22.903Z</time></trkpt><trkpt lat="46.10570734262058" lon="10.139754229657703"><ele>1382.0</ele><time>2026-04-27T09:31:23.903Z</time></trkpt><trkpt lat="46.10565366859662" lon="10.139802616317317"><ele>1382.0</ele><time>2026-04-27T09:31:24.903Z</time></trkpt><trkpt lat="46.10558949521285" lon="10.139824275563582"><ele>1381.9999999999998</ele><time>2026-04-27T09:31:25.902Z</time></trkpt><trkpt lat="46.10551845950858" lon="10.139818257304633"><ele>1382.0</ele><time>2026-04-27T09:31:26.902Z</time></trkpt><trkpt lat="46.105452666211455" lon="10.139787778645827"><ele>1380.8333333333335</ele><time>2026-04-27T09:31:27.902Z</time></trkpt><trkpt lat="46.10537012627645" lon="10.13974470721029"><ele>1379.6666666666667</ele><time>2026-04-27T09:31:28.902Z</time></trkpt><trkpt lat="46.105296789419974" lon="10.139686309892667"><ele>1378.5</ele><time>2026-04-27T09:31:29.902Z</time></trkpt><trkpt lat="46.105210285571864" lon="10.139623473358574"><ele>1377.3333333333333</ele><time>2026-04-27T09:31:30.902Z</time></trkpt><trkpt lat="46.105135464965045" lon="10.13956001920342"><ele>1376.1666666666665</ele><time>2026-04-27T09:31:31.902Z</time></trkpt><trkpt lat="46.10506677813829" lon="10.139530668298804"><ele>1375.0</ele><time>2026-04-27T09:31:32.902Z</time></trkpt><trkpt lat="46.104951773444306" lon="10.139525991492263"><ele>1376.6</ele><time>2026-04-27T09:31:34.902Z</time></trkpt><trkpt lat="46.104877634258635" lon="10.13960229068953"><ele>1378.2</ele><time>2026-04-27T09:31:36.902Z</time></trkpt><trkpt lat="46.104809973827265" lon="10.139721869911504"><ele>1379.8000000000002</ele><time>2026-04-27T09:31:38.902Z</time></trkpt><trkpt lat="46.104792340725545" lon="10.139887139010161"><ele>1381.4</ele><time>2026-04-27T09:31:40.902Z</time></trkpt><trkpt lat="46.10479838153883" lon="10.14003624999164"><ele>1383.0</ele><time>2026-04-27T09:31:42.902Z</time></trkpt><trkpt lat="46.10472891723536" lon="10.140144778373228"><ele>1385.6000000000001</ele><time>2026-04-27T09:31:45.902Z</time></trkpt><trkpt lat="46.10464231102223" lon="10.140187497676951"><ele>1388.2</ele><time>2026-04-27T09:31:46.902Z</time></trkpt><trkpt lat="46.10455453206205" lon="10.140209212071671"><ele>1390.8</ele><time>2026-04-27T09:31:47.902Z</time></trkpt><trkpt lat="46.10444546001187" lon="10.140209846574761"><ele>1393.4</ele><time>2026-04-27T09:31:48.902Z</time></trkpt><trkpt lat="46.10434716798345" lon="10.140205407579725"><ele>1396.0</ele><time>2026-04-27T09:31:49.902Z</time></trkpt><trkpt lat="46.10426929232426" lon="10.140197954962206"><ele>1396.0</ele><time>2026-04-27T09:31:50.902Z</time></trkpt><trkpt lat="46.104209176858454" lon="10.14017012403407"><ele>1396.0</ele><time>2026-04-27T09:31:51.902Z</time></trkpt><trkpt lat="46.104121635509536" lon="10.14004815661175"><ele>1396.0</ele><time>2026-04-27T09:31:53.902Z</time></trkpt><trkpt lat="46.10406460315292" lon="10.139913827753555"><ele>1396.0</ele><time>2026-04-27T09:31:55.902Z</time></trkpt><trkpt lat="46.10401299898178" lon="10.139798790569412"><ele>1396.0</ele><time>2026-04-27T09:31:57.902Z</time></trkpt><trkpt lat="46.10395708102861" lon="10.139746626288515"><ele>1397.5</ele><time>2026-04-27T09:31:58.902Z</time></trkpt><trkpt lat="46.1038950340764" lon="10.13968558005045"><ele>1399.0</ele><time>2026-04-27T09:31:59.902Z</time></trkpt><trkpt lat="46.10383302293427" lon="10.139621681873539"><ele>1400.5</ele><time>2026-04-27T09:32:00.902Z</time></trkpt><trkpt lat="46.10377249725634" lon="10.139566760117376"><ele>1402.0</ele><time>2026-04-27T09:32:01.902Z</time></trkpt><trkpt lat="46.10372106931729" lon="10.13950752378369"><ele>1403.5</ele><time>2026-04-27T09:32:02.902Z</time></trkpt><trkpt lat="46.103616984070364" lon="10.139464538653742"><ele>1405.0</ele><time>2026-04-27T09:32:04.902Z</time></trkpt><trkpt lat="46.103553667987825" lon="10.139450276284"><ele>1405.0</ele><time>2026-04-27T09:32:05.902Z</time></trkpt><trkpt lat="46.103474655882025" lon="10.139438012275457"><ele>1405.0</ele><time>2026-04-27T09:32:06.902Z</time></trkpt><trkpt lat="46.10340018686284" lon="10.139434843473287"><ele>1405.0</ele><time>2026-04-27T09:32:07.902Z</time></trkpt><trkpt lat="46.10333038258951" lon="10.139416208461842"><ele>1405.0</ele><time>2026-04-27T09:32:08.902Z</time></trkpt><trkpt lat="46.10325807922211" lon="10.139399707146985"><ele>1405.0</ele><time>2026-04-27T09:32:09.902Z</time></trkpt><trkpt lat="46.10317351100565" lon="10.139375468184424"><ele>1405.0</ele><time>2026-04-27T09:32:10.902Z</time></trkpt><trkpt lat="46.10308563333578" lon="10.139329294589606"><ele>1412.4</ele><time>2026-04-27T09:32:11.902Z</time></trkpt><trkpt lat="46.10301533994978" lon="10.139286338811015"><ele>1419.8</ele><time>2026-04-27T09:32:12.902Z</time></trkpt><trkpt lat="46.10295192795162" lon="10.13925743349767"><ele>1427.1999999999998</ele><time>2026-04-27T09:32:13.902Z</time></trkpt><trkpt lat="46.102821009508354" lon="10.139210458888105"><ele>1434.6</ele><time>2026-04-27T09:32:15.902Z</time></trkpt><trkpt lat="46.10273189089586" lon="10.139164898664204"><ele>1442.0</ele><time>2026-04-27T09:32:16.902Z</time></trkpt><trkpt lat="46.10264646625756" lon="10.139129778813174"><ele>1442.0</ele><time>2026-04-27T09:32:17.902Z</time></trkpt><trkpt lat="46.10257976685509" lon="10.139124351367641"><ele>1442.0</ele><time>2026-04-27T09:32:18.902Z</time></trkpt><trkpt lat="46.10251652405195" lon="10.139169402816382"><ele>1442.0</ele><time>2026-04-27T09:32:21.902Z</time></trkpt><trkpt lat="46.10256416407114" lon="10.139285293541127"><ele>1442.0</ele><time>2026-04-27T09:32:25.902Z</time></trkpt><trkpt lat="46.10264191795633" lon="10.139303201138382"><ele>1442.0</ele><time>2026-04-27T09:32:26.902Z</time></trkpt><trkpt lat="46.102716889073015" lon="10.139348394215512"><ele>1442.0</ele><time>2026-04-27T09:32:27.902Z</time></trkpt><trkpt lat="46.102810357600006" lon="10.139413915309715"><ele>1442.0</ele><time>2026-04-27T09:32:29.902Z</time></trkpt><trkpt lat="46.102871500928295" lon="10.139483502710265"><ele>1442.0</ele><time>2026-04-27T09:32:32.902Z</time></trkpt><trkpt lat="46.10280354043828" lon="10.139574718209191"><ele>1442.0</ele><time>2026-04-27T09:32:35.902Z</time></trkpt><trkpt lat="46.102696140362674" lon="10.139525387156699"><ele>1442.0</ele><time>2026-04-27T09:32:37.902Z</time></trkpt><trkpt lat="46.10261999725205" lon="10.139485133903"><ele>1442.0</ele><time>2026-04-27T09:32:38.902Z</time></trkpt><trkpt lat="46.102541998287016" lon="10.139441521368258"><ele>1442.0</ele><time>2026-04-27T09:32:39.902Z</time></trkpt><trkpt lat="46.10247297248918" lon="10.139422042810908"><ele>1448.5</ele><time>2026-04-27T09:32:40.902Z</time></trkpt><trkpt lat="46.10240933362523" lon="10.139406176488194"><ele>1455.0</ele><time>2026-04-27T09:32:41.902Z</time></trkpt><trkpt lat="46.10234333176654" lon="10.139400960685702"><ele>1461.5</ele><time>2026-04-27T09:32:42.902Z</time></trkpt><trkpt lat="46.10223892104407" lon="10.139426880666502"><ele>1468.0</ele><time>2026-04-27T09:32:44.902Z</time></trkpt><trkpt lat="46.10215581622615" lon="10.139433953707696"><ele>1474.5</ele><time>2026-04-27T09:32:47.901Z</time></trkpt><trkpt lat="46.1020814276336" lon="10.13938711900118"><ele>1481.0</ele><time>2026-04-27T09:32:49.901Z</time></trkpt><trkpt lat="46.10201594087156" lon="10.139314776995565"><ele>1481.0</ele><time>2026-04-27T09:32:50.901Z</time></trkpt><trkpt lat="46.101951950536474" lon="10.139227613293409"><ele>1481.0</ele><time>2026-04-27T09:32:51.901Z</time></trkpt><trkpt lat="46.10188238486391" lon="10.139130170564352"><ele>1481.0</ele><time>2026-04-27T09:32:52.901Z</time></trkpt><trkpt lat="46.10181187908188" lon="10.139056256101364"><ele>1481.0</ele><time>2026-04-27T09:32:53.901Z</time></trkpt><trkpt lat="46.101742401506726" lon="10.138975445384057"><ele>1481.0</ele><time>2026-04-27T09:32:54.901Z</time></trkpt><trkpt lat="46.10169301236362" lon="10.138896724717203"><ele>1481.0</ele><time>2026-04-27T09:32:55.901Z</time></trkpt><trkpt lat="46.101644175699484" lon="10.138780094797955"><ele>1481.0</ele><time>2026-04-27T09:32:57.901Z</time></trkpt><trkpt lat="46.10158953042496" lon="10.138713069259996"><ele>1481.0</ele><time>2026-04-27T09:33:01.901Z</time></trkpt><trkpt lat="46.10155363246635" lon="10.138792700210802"><ele>1481.0</ele><time>2026-04-27T09:33:03.901Z</time></trkpt><trkpt lat="46.101582509698616" lon="10.138934979432445"><ele>1481.0</ele><time>2026-04-27T09:33:05.902Z</time></trkpt><trkpt lat="46.10164506418078" lon="10.139117065499896"><ele>1481.0</ele><time>2026-04-27T09:33:07.901Z</time></trkpt><trkpt lat="46.101667365012126" lon="10.139235170004516"><ele>1481.0</ele><time>2026-04-27T09:33:08.901Z</time></trkpt><trkpt lat="46.101693963458544" lon="10.139328713661111"><ele>1481.0</ele><time>2026-04-27T09:33:09.901Z</time></trkpt><trkpt lat="46.10175639423941" lon="10.1394124742354"><ele>1481.0</ele><time>2026-04-27T09:33:11.901Z</time></trkpt><trkpt lat="46.10168932640155" lon="10.139489379628904"><ele>1481.0</ele><time>2026-04-27T09:33:14.901Z</time></trkpt><trkpt lat="46.101624291925305" lon="10.139442385128687"><ele>1481.0</ele><time>2026-04-27T09:33:16.901Z</time></trkpt><trkpt lat="46.101554423308784" lon="10.139306723742578"><ele>1481.0</ele><time>2026-04-27T09:33:18.901Z</time></trkpt><trkpt lat="46.101472161334335" lon="10.139196256839098"><ele>1487.6666666666667</ele><time>2026-04-27T09:33:20.901Z</time></trkpt><trkpt lat="46.10140553510458" lon="10.13910498003424"><ele>1494.3333333333335</ele><time>2026-04-27T09:33:21.901Z</time></trkpt><trkpt lat="46.10134345328252" lon="10.139023541930062"><ele>1501.0</ele><time>2026-04-27T09:33:22.901Z</time></trkpt><trkpt lat="46.101288631194954" lon="10.138932491365704"><ele>1507.6666666666667</ele><time>2026-04-27T09:33:23.901Z</time></trkpt><trkpt lat="46.101239190619715" lon="10.138871884011799"><ele>1514.3333333333333</ele><time>2026-04-27T09:33:24.901Z</time></trkpt><trkpt lat="46.1012052239772" lon="10.138737553819347"><ele>1521.0</ele><time>2026-04-27T09:33:26.901Z</time></trkpt><trkpt lat="46.10121726694047" lon="10.13860551449821"><ele>1521.0</ele><time>2026-04-27T09:33:28.901Z</time></trkpt><trkpt lat="46.1012230374587" lon="10.138482663438689"><ele>1521.0</ele><time>2026-04-27T09:33:30.901Z</time></trkpt><trkpt lat="46.10121548210166" lon="10.138327889277763"><ele>1521.0</ele><time>2026-04-27T09:33:32.901Z</time></trkpt><trkpt lat="46.10124326693411" lon="10.138181971188853"><ele>1521.0</ele><time>2026-04-27T09:33:34.901Z</time></trkpt><trkpt lat="46.1011908315378" lon="10.13808145133502"><ele>1521.0</ele><time>2026-04-27T09:33:38.901Z</time></trkpt><trkpt lat="46.101133462105665" lon="10.13818500530707"><ele>1521.0</ele><time>2026-04-27T09:33:58.901Z</time></trkpt><trkpt lat="46.10112504763963" lon="10.138309365440374"><ele>1521.0</ele><time>2026-04-27T09:34:00.901Z</time></trkpt><trkpt lat="46.101074309463456" lon="10.13837219839495"><ele>1521.0</ele><time>2026-04-27T09:34:03.901Z</time></trkpt><trkpt lat="46.10102427190537" lon="10.13829687336866"><ele>1521.0</ele><time>2026-04-27T09:34:05.901Z</time></trkpt><trkpt lat="46.10104162703247" lon="10.138149619729264"><ele>1521.0</ele><time>2026-04-27T09:34:07.901Z</time></trkpt><trkpt lat="46.10107043233813" lon="10.137989597180885"><ele>1521.0</ele><time>2026-04-27T09:34:09.901Z</time></trkpt><trkpt lat="46.101074241361246" lon="10.137868405881273"><ele>1521.0</ele><time>2026-04-27T09:34:11.901Z</time></trkpt><trkpt lat="46.10102007795628" lon="10.137805955444191"><ele>1521.0</ele><time>2026-04-27T09:34:13.901Z</time></trkpt><trkpt lat="46.100949853518195" lon="10.13770752890061"><ele>1521.0</ele><time>2026-04-27T09:34:15.901Z</time></trkpt><trkpt lat="46.10089593860778" lon="10.137626267849152"><ele>1521.0</ele><time>2026-04-27T09:34:17.901Z</time></trkpt><trkpt lat="46.10081423930811" lon="10.13759491707794"><ele>1521.0</ele><time>2026-04-27T09:34:19.901Z</time></trkpt><trkpt lat="46.100743982833244" lon="10.137564668607537"><ele>1521.0</ele><time>2026-04-27T09:34:21.901Z</time></trkpt><trkpt lat="46.10067941175388" lon="10.137504489139259"><ele>1521.0</ele><time>2026-04-27T09:34:23.901Z</time></trkpt><trkpt lat="46.10058014307822" lon="10.137451670156919"><ele>1521.0</ele><time>2026-04-27T09:34:26.9Z</time></trkpt><trkpt lat="46.10046808664058" lon="10.137414309247488"><ele>1521.0</ele><time>2026-04-27T09:34:28.9Z</time></trkpt><trkpt lat="46.10036415191028" lon="10.137376655039208"><ele>1521.0</ele><time>2026-04-27T09:34:30.9Z</time></trkpt><trkpt lat="46.10028187661632" lon="10.137381582859788"><ele>1521.0</ele><time>2026-04-27T09:34:32.9Z</time></trkpt><trkpt lat="46.10018222589522" lon="10.137368953952912"><ele>1521.0</ele><time>2026-04-27T09:34:34.9Z</time></trkpt><trkpt lat="46.10012188116272" lon="10.137402170531718"><ele>1521.0</ele><time>2026-04-27T09:34:35.9Z</time></trkpt><trkpt lat="46.09999188328928" lon="10.137387218205344"><ele>1521.0</ele><time>2026-04-27T09:34:37.9Z</time></trkpt><trkpt lat="46.099906434330265" lon="10.137355855186017"><ele>1521.0</ele><time>2026-04-27T09:34:39.9Z</time></trkpt><trkpt lat="46.09981978321881" lon="10.137301681370012"><ele>1521.0</ele><time>2026-04-27T09:34:41.9Z</time></trkpt><trkpt lat="46.09972304463742" lon="10.137321248467426"><ele>1519.1666666666667</ele><time>2026-04-27T09:34:43.9Z</time></trkpt><trkpt lat="46.099653593741344" lon="10.137342074556923"><ele>1517.3333333333333</ele><time>2026-04-27T09:34:45.9Z</time></trkpt><trkpt lat="46.09958106011792" lon="10.137325096022625"><ele>1515.5</ele><time>2026-04-27T09:34:46.9Z</time></trkpt><trkpt lat="46.0994715978473" lon="10.137336649467407"><ele>1513.6666666666665</ele><time>2026-04-27T09:34:48.9Z</time></trkpt><trkpt lat="46.09937554688483" lon="10.137368870969986"><ele>1511.8333333333333</ele><time>2026-04-27T09:34:50.9Z</time></trkpt><trkpt lat="46.099301871291004" lon="10.137405889319817"><ele>1510.0</ele><time>2026-04-27T09:34:52.9Z</time></trkpt><trkpt lat="46.099192712676604" lon="10.137477679981604"><ele>1510.0</ele><time>2026-04-27T09:34:55.9Z</time></trkpt><trkpt lat="46.099103915422596" lon="10.137535646986196"><ele>1510.0</ele><time>2026-04-27T09:34:57.9Z</time></trkpt><trkpt lat="46.098980951573786" lon="10.137575234730122"><ele>1510.0</ele><time>2026-04-27T09:35:00.9Z</time></trkpt><trkpt lat="46.09888743186535" lon="10.137544262967895"><ele>1510.0</ele><time>2026-04-27T09:35:02.9Z</time></trkpt><trkpt lat="46.0988156796064" lon="10.137553745074774"><ele>1510.0</ele><time>2026-04-27T09:35:03.9Z</time></trkpt><trkpt lat="46.09874914450218" lon="10.137572176444081"><ele>1508.0</ele><time>2026-04-27T09:35:04.9Z</time></trkpt><trkpt lat="46.098680561855964" lon="10.137580720277"><ele>1506.0</ele><time>2026-04-27T09:35:05.9Z</time></trkpt><trkpt lat="46.09859234290477" lon="10.137635269669506"><ele>1504.0</ele><time>2026-04-27T09:35:07.9Z</time></trkpt><trkpt lat="46.09852936887606" lon="10.137677480670554"><ele>1502.0</ele><time>2026-04-27T09:35:08.9Z</time></trkpt><trkpt lat="46.098460735935895" lon="10.137682515629182"><ele>1500.0</ele><time>2026-04-27T09:35:09.9Z</time></trkpt><trkpt lat="46.098401335046276" lon="10.13763526667528"><ele>1498.0</ele><time>2026-04-27T09:35:10.9Z</time></trkpt><trkpt lat="46.09831432767854" lon="10.137546203931372"><ele>1498.6000000000001</ele><time>2026-04-27T09:35:12.9Z</time></trkpt><trkpt lat="46.09820802921339" lon="10.137531076126441"><ele>1499.2</ele><time>2026-04-27T09:35:14.901Z</time></trkpt><trkpt lat="46.09809617743951" lon="10.137528268222912"><ele>1499.8</ele><time>2026-04-27T09:35:16.901Z</time></trkpt><trkpt lat="46.09801805126635" lon="10.137544970493783"><ele>1500.4</ele><time>2026-04-27T09:35:17.901Z</time></trkpt><trkpt lat="46.09793419541952" lon="10.13760382064775"><ele>1501.0</ele><time>2026-04-27T09:35:18.9Z</time></trkpt><trkpt lat="46.097850658302704" lon="10.137642031551286"><ele>1501.0</ele><time>2026-04-27T09:35:19.9Z</time></trkpt><trkpt lat="46.097766002966814" lon="10.137666664971656"><ele>1501.0</ele><time>2026-04-27T09:35:20.9Z</time></trkpt><trkpt lat="46.09769783696588" lon="10.137685757357124"><ele>1501.0</ele><time>2026-04-27T09:35:21.9Z</time></trkpt><trkpt lat="46.09758794542519" lon="10.137722557416355"><ele>1501.0</ele><time>2026-04-27T09:35:23.9Z</time></trkpt><trkpt lat="46.097507437675695" lon="10.137701472676042"><ele>1501.0</ele><time>2026-04-27T09:35:25.9Z</time></trkpt><trkpt lat="46.09744833505845" lon="10.137611724272771"><ele>1501.0</ele><time>2026-04-27T09:35:27.9Z</time></trkpt><trkpt lat="46.09742641913704" lon="10.137526409624082"><ele>1499.9999999999998</ele><time>2026-04-27T09:35:29.9Z</time></trkpt><trkpt lat="46.09736538379856" lon="10.13746297139231"><ele>1499.0</ele><time>2026-04-27T09:35:33.9Z</time></trkpt><trkpt lat="46.097370723502216" lon="10.137370908778232"><ele>1498.0</ele><time>2026-04-27T09:35:43.9Z</time></trkpt><trkpt lat="46.09731368685183" lon="10.137295001886512"><ele>1497.0</ele><time>2026-04-27T09:35:48.899Z</time></trkpt><trkpt lat="46.09724688635691" lon="10.137277627428642"><ele>1496.0</ele><time>2026-04-27T09:35:54.899Z</time></trkpt><trkpt lat="46.09719420736594" lon="10.137211134040408"><ele>1494.9999999999998</ele><time>2026-04-27T09:36:01.899Z</time></trkpt><trkpt lat="46.09725408198135" lon="10.13728743019809"><ele>1494.0</ele><time>2026-04-27T09:36:39.899Z</time></trkpt><trkpt lat="46.097302950007986" lon="10.137360457309214"><ele>1495.1666666666667</ele><time>2026-04-27T09:36:44.899Z</time></trkpt><trkpt lat="46.09736062613259" lon="10.137434069580603"><ele>1496.3333333333333</ele><time>2026-04-27T09:36:49.899Z</time></trkpt><trkpt lat="46.097408763534666" lon="10.1374926043676"><ele>1497.5</ele><time>2026-04-27T09:36:54.899Z</time></trkpt><trkpt lat="46.09745032554282" lon="10.137579278217988"><ele>1498.6666666666665</ele><time>2026-04-27T09:37:02.899Z</time></trkpt><trkpt lat="46.097593141255295" lon="10.137582730067987"><ele>1499.8333333333333</ele><time>2026-04-27T09:37:16.899Z</time></trkpt><trkpt lat="46.09756333737693" lon="10.137496710030891"><ele>1501.0</ele><time>2026-04-27T09:37:22.899Z</time></trkpt><trkpt lat="46.097504778732024" lon="10.137446899705237"><ele>1499.9999999999998</ele><time>2026-04-27T09:37:29.899Z</time></trkpt><trkpt lat="46.09747060368247" lon="10.13736163611864"><ele>1499.0</ele><time>2026-04-27T09:37:39.898Z</time></trkpt><trkpt lat="46.09742418299631" lon="10.137281067554852"><ele>1498.0</ele><time>2026-04-27T09:37:47.898Z</time></trkpt><trkpt lat="46.097394257203" lon="10.137201045206492"><ele>1497.0</ele><time>2026-04-27T09:37:56.898Z</time></trkpt><trkpt lat="46.09733697381322" lon="10.137130441859801"><ele>1496.0</ele><time>2026-04-27T09:38:03.898Z</time></trkpt><trkpt lat="46.09728232125271" lon="10.137081463659538"><ele>1494.9999999999998</ele><time>2026-04-27T09:38:08.898Z</time></trkpt><trkpt lat="46.0972342798152" lon="10.13699871469682"><ele>1494.0</ele><time>2026-04-27T09:38:16.898Z</time></trkpt><trkpt lat="46.09719078601412" lon="10.136917377965444"><ele>1493.9999999999998</ele><time>2026-04-27T09:38:21.898Z</time></trkpt><trkpt lat="46.097163273738836" lon="10.13683392858363"><ele>1494.0</ele><time>2026-04-27T09:38:38.898Z</time></trkpt><trkpt lat="46.09711815815342" lon="10.136767451370392"><ele>1494.0</ele><time>2026-04-27T09:38:41.898Z</time></trkpt><trkpt lat="46.09711086053118" lon="10.136662973892582"><ele>1494.0</ele><time>2026-04-27T09:38:55.898Z</time></trkpt><trkpt lat="46.097045714814826" lon="10.136655610338819"><ele>1494.0</ele><time>2026-04-27T09:39:00.897Z</time></trkpt><trkpt lat="46.0970002609772" lon="10.136575157576683"><ele>1493.9999999999998</ele><time>2026-04-27T09:39:28.897Z</time></trkpt><trkpt lat="46.09698643532565" lon="10.136479716228799"><ele>1494.0</ele><time>2026-04-27T09:40:42.896Z</time></trkpt><trkpt lat="46.09693613741793" lon="10.136389143371158"><ele>1489.9999999999998</ele><time>2026-04-27T09:40:57.896Z</time></trkpt><trkpt lat="46.09689169038037" lon="10.136324581929642"><ele>1486.0</ele><time>2026-04-27T09:41:02.896Z</time></trkpt><trkpt lat="46.09686271558915" lon="10.136220887240876"><ele>1482.0</ele><time>2026-04-27T09:41:06.896Z</time></trkpt><trkpt lat="46.09682957041688" lon="10.136131799545751"><ele>1478.0</ele><time>2026-04-27T09:41:12.896Z</time></trkpt><trkpt lat="46.096809781224636" lon="10.136043884833875"><ele>1474.0</ele><time>2026-04-27T09:41:18.896Z</time></trkpt><trkpt lat="46.096782924409474" lon="10.135959289010088"><ele>1469.9999999999998</ele><time>2026-04-27T09:41:26.894Z</time></trkpt><trkpt lat="46.09676064266316" lon="10.135868210851264"><ele>1466.0</ele><time>2026-04-27T09:41:31.893Z</time></trkpt><trkpt lat="46.096730865269656" lon="10.13577980812931"><ele>1465.9999999999998</ele><time>2026-04-27T09:41:36.893Z</time></trkpt><trkpt lat="46.09672093667701" lon="10.135677663720044"><ele>1466.0</ele><time>2026-04-27T09:41:43.893Z</time></trkpt><trkpt lat="46.09673128524568" lon="10.135582819406897"><ele>1466.0</ele><time>2026-04-27T09:42:01.893Z</time></trkpt><trkpt lat="46.0966939896247" lon="10.135684722062738"><ele>1466.0</ele><time>2026-04-27T09:42:28.892Z</time></trkpt><trkpt lat="46.0967158150853" lon="10.135773290869274"><ele>1466.0</ele><time>2026-04-27T09:42:49.892Z</time></trkpt><trkpt lat="46.09674744810153" lon="10.135854510212674"><ele>1465.9999999999998</ele><time>2026-04-27T09:42:54.892Z</time></trkpt><trkpt lat="46.09676719798085" lon="10.1359525662111"><ele>1466.0</ele><time>2026-04-27T09:42:59.892Z</time></trkpt><trkpt lat="46.096782844860904" lon="10.1360473363639"><ele>1465.9999999999998</ele><time>2026-04-27T09:43:07.892Z</time></trkpt><trkpt lat="46.09681320956314" lon="10.136139120571647"><ele>1466.0</ele><time>2026-04-27T09:43:15.892Z</time></trkpt><trkpt lat="46.09682321359375" lon="10.136241970158512"><ele>1466.0</ele><time>2026-04-27T09:43:25.892Z</time></trkpt><trkpt lat="46.09685524047859" lon="10.136329570684538"><ele>1466.0</ele><time>2026-04-27T09:43:34.89Z</time></trkpt><trkpt lat="46.0969038719445" lon="10.136398586669424"><ele>1466.0</ele><time>2026-04-27T09:43:40.89Z</time></trkpt><trkpt lat="46.09694817129287" lon="10.136468106904438"><ele>1465.9999999999998</ele><time>2026-04-27T09:43:46.89Z</time></trkpt><trkpt lat="46.096999934977504" lon="10.136526667088486"><ele>1466.0</ele><time>2026-04-27T09:43:57.89Z</time></trkpt><trkpt lat="46.09704060849289" lon="10.136597030653336"><ele>1469.9999999999998</ele><time>2026-04-27T09:44:07.89Z</time></trkpt><trkpt lat="46.0970770867006" lon="10.136671599104963"><ele>1474.0</ele><time>2026-04-27T09:44:14.89Z</time></trkpt><trkpt lat="46.09712871819594" lon="10.136729601691885"><ele>1478.0</ele><time>2026-04-27T09:44:22.89Z</time></trkpt><trkpt lat="46.09717410510393" lon="10.136799511918209"><ele>1482.0</ele><time>2026-04-27T09:44:36.89Z</time></trkpt><trkpt lat="46.09719690514479" lon="10.13688596380357"><ele>1486.0</ele><time>2026-04-27T09:44:45.89Z</time></trkpt><trkpt lat="46.097239213745816" lon="10.136962968889096"><ele>1489.9999999999998</ele><time>2026-04-27T09:44:55.889Z</time></trkpt><trkpt lat="46.09728431060188" lon="10.137034479310875"><ele>1494.0</ele><time>2026-04-27T09:45:11.889Z</time></trkpt><trkpt lat="46.09732992666979" lon="10.137103774275504"><ele>1493.9999999999998</ele><time>2026-04-27T09:45:24.889Z</time></trkpt><trkpt lat="46.09739016984092" lon="10.13715642464499"><ele>1494.0</ele><time>2026-04-27T09:45:40.888Z</time></trkpt><trkpt lat="46.097431973581436" lon="10.137227793451457"><ele>1494.0</ele><time>2026-04-27T09:45:51.889Z</time></trkpt><trkpt lat="46.09747515177414" lon="10.137311919295763"><ele>1494.0</ele><time>2026-04-27T09:46:14.889Z</time></trkpt><trkpt lat="46.09751097272555" lon="10.137392210633912"><ele>1494.0</ele><time>2026-04-27T09:46:23.889Z</time></trkpt><trkpt lat="46.097557257233255" lon="10.13746480121874"><ele>1493.9999999999998</ele><time>2026-04-27T09:46:33.889Z</time></trkpt><trkpt lat="46.09761691898168" lon="10.137498179667293"><ele>1494.0</ele><time>2026-04-27T09:46:42.888Z</time></trkpt><trkpt lat="46.097667001546704" lon="10.137553696172885"><ele>1493.9999999999998</ele><time>2026-04-27T09:46:55.888Z</time></trkpt><trkpt lat="46.09760925001395" lon="10.137601077127394"><ele>1494.0</ele><time>2026-04-27T09:46:59.888Z</time></trkpt><trkpt lat="46.09753657149554" lon="10.137616543675593"><ele>1494.0</ele><time>2026-04-27T09:47:07.888Z</time></trkpt><trkpt lat="46.097473838767215" lon="10.13758409198554"><ele>1494.0</ele><time>2026-04-27T09:47:14.888Z</time></trkpt><trkpt lat="46.09742693215746" lon="10.137521282474756"><ele>1494.0</ele><time>2026-04-27T09:47:21.888Z</time></trkpt><trkpt lat="46.09740087505379" lon="10.137437986429733"><ele>1493.9999999999998</ele><time>2026-04-27T09:47:28.888Z</time></trkpt><trkpt lat="46.09735217392432" lon="10.137362171452327"><ele>1494.0</ele><time>2026-04-27T09:47:36.888Z</time></trkpt><trkpt lat="46.09729368793642" lon="10.13731064074009"><ele>1494.0</ele><time>2026-04-27T09:47:41.888Z</time></trkpt><trkpt lat="46.097236245235095" lon="10.137273009936262"><ele>1494.0</ele><time>2026-04-27T09:47:49.888Z</time></trkpt><trkpt lat="46.097287488581145" lon="10.137338795231047"><ele>1494.0</ele><time>2026-04-27T09:48:57.886Z</time></trkpt><trkpt lat="46.09733489427628" lon="10.137415966168165"><ele>1494.0</ele><time>2026-04-27T09:48:59.886Z</time></trkpt><trkpt lat="46.09740256061445" lon="10.137512543404556"><ele>1494.0</ele><time>2026-04-27T09:49:02.886Z</time></trkpt><trkpt lat="46.09748231618969" lon="10.13762297799347"><ele>1494.0</ele><time>2026-04-27T09:49:04.886Z</time></trkpt><trkpt lat="46.09757326814888" lon="10.137662455891551"><ele>1495.4</ele><time>2026-04-27T09:49:06.886Z</time></trkpt><trkpt lat="46.097693783999276" lon="10.137613652218803"><ele>1496.8000000000002</ele><time>2026-04-27T09:49:08.886Z</time></trkpt><trkpt lat="46.09776164816558" lon="10.137572610754152"><ele>1498.1999999999998</ele><time>2026-04-27T09:49:09.886Z</time></trkpt><trkpt lat="46.097838668263925" lon="10.137580313590925"><ele>1499.6</ele><time>2026-04-27T09:49:10.886Z</time></trkpt><trkpt lat="46.09790466164267" lon="10.13756657485786"><ele>1501.0</ele><time>2026-04-27T09:49:11.886Z</time></trkpt><trkpt lat="46.09800658768869" lon="10.13751280598573"><ele>1501.0</ele><time>2026-04-27T09:49:13.886Z</time></trkpt><trkpt lat="46.098093051171524" lon="10.137469152734475"><ele>1501.0</ele><time>2026-04-27T09:49:15.886Z</time></trkpt><trkpt lat="46.09817718213329" lon="10.137489444216293"><ele>1501.0</ele><time>2026-04-27T09:49:17.886Z</time></trkpt><trkpt lat="46.0982504232838" lon="10.137531600436693"><ele>1501.0</ele><time>2026-04-27T09:49:19.886Z</time></trkpt><trkpt lat="46.098339468498764" lon="10.137614516693345"><ele>1501.0</ele><time>2026-04-27T09:49:21.886Z</time></trkpt><trkpt lat="46.09843235660637" lon="10.137617217248211"><ele>1500.25</ele><time>2026-04-27T09:49:23.886Z</time></trkpt><trkpt lat="46.098515516522475" lon="10.137578048717357"><ele>1499.5</ele><time>2026-04-27T09:49:25.886Z</time></trkpt><trkpt lat="46.098582711574146" lon="10.13753859313369"><ele>1498.75</ele><time>2026-04-27T09:49:27.886Z</time></trkpt><trkpt lat="46.09878625445013" lon="10.13757813881168"><ele>1498.0</ele><time>2026-04-27T09:49:33.886Z</time></trkpt><trkpt lat="46.09901919450608" lon="10.13749200825271"><ele>1500.0</ele><time>2026-04-27T09:49:39.886Z</time></trkpt><trkpt lat="46.09913268352302" lon="10.13746574479235"><ele>1502.0</ele><time>2026-04-27T09:49:41.886Z</time></trkpt><trkpt lat="46.0992014387427" lon="10.137436862732809"><ele>1504.0</ele><time>2026-04-27T09:49:42.886Z</time></trkpt><trkpt lat="46.09927336162908" lon="10.137387137130675"><ele>1506.0</ele><time>2026-04-27T09:49:43.886Z</time></trkpt><trkpt lat="46.09932643049528" lon="10.137332006814761"><ele>1508.0</ele><time>2026-04-27T09:49:44.886Z</time></trkpt><trkpt lat="46.099389848671734" lon="10.13730240540845"><ele>1510.0</ele><time>2026-04-27T09:49:45.886Z</time></trkpt><trkpt lat="46.09945774650592" lon="10.137258760491422"><ele>1511.8333333333333</ele><time>2026-04-27T09:49:46.886Z</time></trkpt><trkpt lat="46.09952949454706" lon="10.137214574845173"><ele>1513.6666666666665</ele><time>2026-04-27T09:49:47.886Z</time></trkpt><trkpt lat="46.09964988999646" lon="10.137216618708063"><ele>1515.5</ele><time>2026-04-27T09:49:49.886Z</time></trkpt><trkpt lat="46.09971049257204" lon="10.137248518258362"><ele>1517.3333333333333</ele><time>2026-04-27T09:49:50.887Z</time></trkpt><trkpt lat="46.09979821312611" lon="10.137291948397099"><ele>1519.1666666666667</ele><time>2026-04-27T09:49:51.887Z</time></trkpt><trkpt lat="46.099879094795504" lon="10.137359401426608"><ele>1521.0</ele><time>2026-04-27T09:49:52.886Z</time></trkpt><trkpt lat="46.0999643159742" lon="10.137393511928531"><ele>1521.0</ele><time>2026-04-27T09:49:53.886Z</time></trkpt><trkpt lat="46.100069888788774" lon="10.137402466762328"><ele>1521.0</ele><time>2026-04-27T09:49:54.886Z</time></trkpt><trkpt lat="46.10017442112534" lon="10.137379327631576"><ele>1521.0</ele><time>2026-04-27T09:49:55.886Z</time></trkpt><trkpt lat="46.10025820709756" lon="10.137377296770197"><ele>1521.0</ele><time>2026-04-27T09:49:56.887Z</time></trkpt><trkpt lat="46.100348474922555" lon="10.137424991848787"><ele>1521.0</ele><time>2026-04-27T09:49:57.887Z</time></trkpt><trkpt lat="46.10042339767335" lon="10.137445508305504"><ele>1521.0</ele><time>2026-04-27T09:49:58.886Z</time></trkpt><trkpt lat="46.10053141765577" lon="10.137503728131206"><ele>1521.0</ele><time>2026-04-27T09:50:00.886Z</time></trkpt><trkpt lat="46.10059762938195" lon="10.137522844924773"><ele>1521.0</ele><time>2026-04-27T09:50:01.886Z</time></trkpt><trkpt lat="46.100662415436034" lon="10.13754221106742"><ele>1521.0</ele><time>2026-04-27T09:50:02.886Z</time></trkpt><trkpt lat="46.10077168941827" lon="10.137612915837623"><ele>1521.0</ele><time>2026-04-27T09:50:04.886Z</time></trkpt><trkpt lat="46.10087538710813" lon="10.137683354386834"><ele>1521.0</ele><time>2026-04-27T09:50:06.886Z</time></trkpt><trkpt lat="46.10097500637681" lon="10.137737837713223"><ele>1521.0</ele><time>2026-04-27T09:50:08.886Z</time></trkpt><trkpt lat="46.10102590019298" lon="10.137825327763796"><ele>1521.0</ele><time>2026-04-27T09:50:10.886Z</time></trkpt><trkpt lat="46.101033428355436" lon="10.137973716442149"><ele>1521.0</ele><time>2026-04-27T09:50:13.886Z</time></trkpt><trkpt lat="46.10100883672954" lon="10.138112344899206"><ele>1521.0</ele><time>2026-04-27T09:50:15.886Z</time></trkpt><trkpt lat="46.10101266882353" lon="10.138241045759647"><ele>1521.0</ele><time>2026-04-27T09:50:17.886Z</time></trkpt><trkpt lat="46.101043887051205" lon="10.138323192595896"><ele>1521.0</ele><time>2026-04-27T09:50:20.886Z</time></trkpt><trkpt lat="46.101113725463996" lon="10.138274339306307"><ele>1521.0</ele><time>2026-04-27T09:50:23.886Z</time></trkpt><trkpt lat="46.10116168929418" lon="10.138167368902982"><ele>1521.0</ele><time>2026-04-27T09:50:26.886Z</time></trkpt><trkpt lat="46.10124147015016" lon="10.13814085196066"><ele>1521.0</ele><time>2026-04-27T09:50:29.885Z</time></trkpt><trkpt lat="46.10126010659504" lon="10.138271544381599"><ele>1521.0</ele><time>2026-04-27T09:50:31.885Z</time></trkpt><trkpt lat="46.10124690979289" lon="10.13844173460824"><ele>1521.0</ele><time>2026-04-27T09:50:33.885Z</time></trkpt><trkpt lat="46.10122937353556" lon="10.138588022326143"><ele>1521.0</ele><time>2026-04-27T09:50:35.885Z</time></trkpt><trkpt lat="46.10123403083899" lon="10.138743620483323"><ele>1521.0</ele><time>2026-04-27T09:50:37.885Z</time></trkpt><trkpt lat="46.10127362855825" lon="10.138903663137434"><ele>1521.0</ele><time>2026-04-27T09:50:39.885Z</time></trkpt><trkpt lat="46.10131866112817" lon="10.138991019272211"><ele>1521.0</ele><time>2026-04-27T09:50:40.885Z</time></trkpt><trkpt lat="46.10137074635132" lon="10.139062058843528"><ele>1525.5</ele><time>2026-04-27T09:50:41.885Z</time></trkpt><trkpt lat="46.10143006872153" lon="10.139106663496156"><ele>1530.0</ele><time>2026-04-27T09:50:42.885Z</time></trkpt><trkpt lat="46.101476690652916" lon="10.139185699492476"><ele>1534.5</ele><time>2026-04-27T09:50:43.885Z</time></trkpt><trkpt lat="46.10153413359469" lon="10.139306955645438"><ele>1539.0</ele><time>2026-04-27T09:50:45.885Z</time></trkpt><trkpt lat="46.1016129610939" lon="10.139399391337319"><ele>1543.5</ele><time>2026-04-27T09:50:47.885Z</time></trkpt><trkpt lat="46.10166407443852" lon="10.139480757448672"><ele>1548.0</ele><time>2026-04-27T09:50:49.885Z</time></trkpt><trkpt lat="46.101739736872645" lon="10.139395609868583"><ele>1543.5</ele><time>2026-04-27T09:50:52.885Z</time></trkpt><trkpt lat="46.101719061122935" lon="10.139304834725365"><ele>1539.0</ele><time>2026-04-27T09:50:54.885Z</time></trkpt><trkpt lat="46.101689068115725" lon="10.13921935472732"><ele>1534.5</ele><time>2026-04-27T09:50:55.885Z</time></trkpt><trkpt lat="46.10166332368891" lon="10.139093287837206"><ele>1530.0</ele><time>2026-04-27T09:50:56.885Z</time></trkpt><trkpt lat="46.10162529597331" lon="10.13897434020968"><ele>1525.5</ele><time>2026-04-27T09:50:57.885Z</time></trkpt><trkpt lat="46.1015941817991" lon="10.138888514343657"><ele>1521.0</ele><time>2026-04-27T09:50:58.885Z</time></trkpt><trkpt lat="46.10157168251361" lon="10.13876391890075"><ele>1514.3333333333333</ele><time>2026-04-27T09:51:00.885Z</time></trkpt><trkpt lat="46.10163541826704" lon="10.138660931983262"><ele>1507.6666666666667</ele><time>2026-04-27T09:51:03.885Z</time></trkpt><trkpt lat="46.10168467799847" lon="10.138736328186383"><ele>1501.0</ele><time>2026-04-27T09:51:06.885Z</time></trkpt><trkpt lat="46.10174003043324" lon="10.138870912718534"><ele>1494.3333333333335</ele><time>2026-04-27T09:51:08.885Z</time></trkpt><trkpt lat="46.10178447871686" lon="10.138958238918802"><ele>1487.6666666666667</ele><time>2026-04-27T09:51:09.885Z</time></trkpt><trkpt lat="46.10183864450533" lon="10.139051229644876"><ele>1481.0</ele><time>2026-04-27T09:51:10.885Z</time></trkpt><trkpt lat="46.101891020496005" lon="10.139132711358716"><ele>1481.0</ele><time>2026-04-27T09:51:11.885Z</time></trkpt><trkpt lat="46.1019490735919" lon="10.139213466260697"><ele>1481.0</ele><time>2026-04-27T09:51:12.885Z</time></trkpt><trkpt lat="46.102011857090694" lon="10.139271342900006"><ele>1481.0</ele><time>2026-04-27T09:51:13.885Z</time></trkpt><trkpt lat="46.10211086190148" lon="10.139340044579376"><ele>1481.0</ele><time>2026-04-27T09:51:15.885Z</time></trkpt><trkpt lat="46.10217395778864" lon="10.139408877628506"><ele>1481.0</ele><time>2026-04-27T09:51:17.885Z</time></trkpt><trkpt lat="46.10223490596199" lon="10.139449760941865"><ele>1481.0</ele><time>2026-04-27T09:51:19.885Z</time></trkpt><trkpt lat="46.10234092268689" lon="10.139460115714778"><ele>1481.0</ele><time>2026-04-27T09:51:21.885Z</time></trkpt><trkpt lat="46.10240951890451" lon="10.139456825854579"><ele>1481.0</ele><time>2026-04-27T09:51:22.885Z</time></trkpt><trkpt lat="46.102522423157" lon="10.13944189045347"><ele>1481.0</ele><time>2026-04-27T09:51:24.885Z</time></trkpt><trkpt lat="46.10263346008722" lon="10.139546635301148"><ele>1481.0</ele><time>2026-04-27T09:51:26.885Z</time></trkpt><trkpt lat="46.10274380008387" lon="10.139581879061028"><ele>1481.0</ele><time>2026-04-27T09:51:28.885Z</time></trkpt><trkpt lat="46.10281621864714" lon="10.139593076373144"><ele>1474.5</ele><time>2026-04-27T09:51:30.885Z</time></trkpt><trkpt lat="46.1028628365078" lon="10.139445068663084"><ele>1468.0</ele><time>2026-04-27T09:51:33.885Z</time></trkpt><trkpt lat="46.10278414518548" lon="10.139368894072513"><ele>1461.5</ele><time>2026-04-27T09:51:35.885Z</time></trkpt><trkpt lat="46.102724753672376" lon="10.139302495126993"><ele>1455.0</ele><time>2026-04-27T09:51:36.885Z</time></trkpt><trkpt lat="46.1026646558388" lon="10.13925681877908"><ele>1448.5</ele><time>2026-04-27T09:51:37.885Z</time></trkpt><trkpt lat="46.10259153033414" lon="10.1392171691667"><ele>1442.0</ele><time>2026-04-27T09:51:38.885Z</time></trkpt><trkpt lat="46.1025041522244" lon="10.13915038835578"><ele>1442.0</ele><time>2026-04-27T09:51:40.885Z</time></trkpt><trkpt lat="46.102516900691036" lon="10.139058212288615"><ele>1442.0</ele><time>2026-04-27T09:51:43.885Z</time></trkpt><trkpt lat="46.102622457104246" lon="10.139045647842007"><ele>1442.0</ele><time>2026-04-27T09:51:45.885Z</time></trkpt><trkpt lat="46.10271226367636" lon="10.139069889076195"><ele>1442.0</ele><time>2026-04-27T09:51:46.885Z</time></trkpt><trkpt lat="46.10280315145191" lon="10.139090426119923"><ele>1442.0</ele><time>2026-04-27T09:51:47.885Z</time></trkpt><trkpt lat="46.10289008782256" lon="10.139130190331"><ele>1442.0</ele><time>2026-04-27T09:51:48.885Z</time></trkpt><trkpt lat="46.1029600672419" lon="10.139186891859815"><ele>1442.0</ele><time>2026-04-27T09:51:49.884Z</time></trkpt><trkpt lat="46.103037734253675" lon="10.139230883507174"><ele>1442.0</ele><time>2026-04-27T09:51:50.884Z</time></trkpt><trkpt lat="46.103112318792554" lon="10.139268963020804"><ele>1442.0</ele><time>2026-04-27T09:51:51.884Z</time></trkpt><trkpt lat="46.103182658577296" lon="10.13931286526743"><ele>1442.0</ele><time>2026-04-27T09:51:52.884Z</time></trkpt><trkpt lat="46.10324803856386" lon="10.139350394307261"><ele>1442.0</ele><time>2026-04-27T09:51:53.884Z</time></trkpt><trkpt lat="46.103379888709895" lon="10.139369905643951"><ele>1442.0</ele><time>2026-04-27T09:51:55.885Z</time></trkpt><trkpt lat="46.103461955372595" lon="10.139369617917666"><ele>1434.6</ele><time>2026-04-27T09:51:56.885Z</time></trkpt><trkpt lat="46.10358321565687" lon="10.139363985674148"><ele>1427.1999999999998</ele><time>2026-04-27T09:51:58.884Z</time></trkpt><trkpt lat="46.10365746686914" lon="10.139388850766206"><ele>1419.8</ele><time>2026-04-27T09:51:59.885Z</time></trkpt><trkpt lat="46.10377113335354" lon="10.13944386043454"><ele>1412.4</ele><time>2026-04-27T09:52:01.885Z</time></trkpt><trkpt lat="46.10387423821025" lon="10.139559369601225"><ele>1405.0</ele><time>2026-04-27T09:52:03.885Z</time></trkpt><trkpt lat="46.10393152691847" lon="10.139622713317745"><ele>1405.0</ele><time>2026-04-27T09:52:04.884Z</time></trkpt><trkpt lat="46.104011664808375" lon="10.13974380947077"><ele>1405.0</ele><time>2026-04-27T09:52:06.884Z</time></trkpt><trkpt lat="46.10405534975953" lon="10.139809259221169"><ele>1405.0</ele><time>2026-04-27T09:52:07.884Z</time></trkpt><trkpt lat="46.10409978554536" lon="10.13995386512428"><ele>1405.0</ele><time>2026-04-27T09:52:09.884Z</time></trkpt><trkpt lat="46.1041352101277" lon="10.14010148439169"><ele>1405.0</ele><time>2026-04-27T09:52:11.884Z</time></trkpt><trkpt lat="46.10426433836028" lon="10.140143268761332"><ele>1403.5</ele><time>2026-04-27T09:52:13.884Z</time></trkpt><trkpt lat="46.10435154056789" lon="10.140130704983209"><ele>1402.0</ele><time>2026-04-27T09:52:14.884Z</time></trkpt><trkpt lat="46.104417232407435" lon="10.14013292384712"><ele>1400.5</ele><time>2026-04-27T09:52:15.884Z</time></trkpt><trkpt lat="46.10449376378397" lon="10.140158696978313"><ele>1399.0</ele><time>2026-04-27T09:52:16.884Z</time></trkpt><trkpt lat="46.10457196148803" lon="10.140161610772104"><ele>1397.5</ele><time>2026-04-27T09:52:17.884Z</time></trkpt><trkpt lat="46.104665724715154" lon="10.140137178422481"><ele>1396.0</ele><time>2026-04-27T09:52:19.884Z</time></trkpt><trkpt lat="46.10472556230451" lon="10.14004626253969"><ele>1396.0</ele><time>2026-04-27T09:52:21.884Z</time></trkpt><trkpt lat="46.1047420322263" lon="10.139922618883451"><ele>1396.0</ele><time>2026-04-27T09:52:23.884Z</time></trkpt><trkpt lat="46.10474075345509" lon="10.139823859039552"><ele>1396.0</ele><time>2026-04-27T09:52:24.884Z</time></trkpt><trkpt lat="46.104756605445374" lon="10.139719169989041"><ele>1396.0</ele><time>2026-04-27T09:52:25.884Z</time></trkpt><trkpt lat="46.10480739313002" lon="10.139572912290028"><ele>1396.0</ele><time>2026-04-27T09:52:27.884Z</time></trkpt><trkpt lat="46.10488295048789" lon="10.139505907252886"><ele>1396.0</ele><time>2026-04-27T09:52:29.884Z</time></trkpt><trkpt lat="46.10498391774155" lon="10.139483170249932"><ele>1392.5</ele><time>2026-04-27T09:52:31.884Z</time></trkpt><trkpt lat="46.105109246647636" lon="10.139516369799468"><ele>1389.0</ele><time>2026-04-27T09:52:33.884Z</time></trkpt><trkpt lat="46.1051696413025" lon="10.139558903961449"><ele>1385.5</ele><time>2026-04-27T09:52:34.884Z</time></trkpt><trkpt lat="46.10523699072034" lon="10.139607252939735"><ele>1382.0</ele><time>2026-04-27T09:52:35.884Z</time></trkpt><trkpt lat="46.10529593810255" lon="10.139670353985048"><ele>1378.5</ele><time>2026-04-27T09:52:36.884Z</time></trkpt><trkpt lat="46.105358377086915" lon="10.139732916192472"><ele>1375.0</ele><time>2026-04-27T09:52:37.884Z</time></trkpt><trkpt lat="46.10542132709614" lon="10.139770000473161"><ele>1375.0</ele><time>2026-04-27T09:52:38.884Z</time></trkpt><trkpt lat="46.105543616151174" lon="10.139776616097691"><ele>1375.0</ele><time>2026-04-27T09:52:40.884Z</time></trkpt><trkpt lat="46.105611816340264" lon="10.13976502965349"><ele>1375.0</ele><time>2026-04-27T09:52:41.884Z</time></trkpt><trkpt lat="46.10567411556857" lon="10.13971861354928"><ele>1375.0</ele><time>2026-04-27T09:52:42.884Z</time></trkpt><trkpt lat="46.10572344735987" lon="10.139638980721916"><ele>1375.0</ele><time>2026-04-27T09:52:43.884Z</time></trkpt><trkpt lat="46.105777333300054" lon="10.139551546069413"><ele>1375.0</ele><time>2026-04-27T09:52:44.884Z</time></trkpt><trkpt lat="46.1058316012602" lon="10.139455034078779"><ele>1376.1666666666665</ele><time>2026-04-27T09:52:45.884Z</time></trkpt><trkpt lat="46.10590997244087" lon="10.139378628224726"><ele>1377.3333333333333</ele><time>2026-04-27T09:52:47.884Z</time></trkpt><trkpt lat="46.10598814210467" lon="10.139377092762727"><ele>1378.5</ele><time>2026-04-27T09:52:49.884Z</time></trkpt><trkpt lat="46.10607797076582" lon="10.139460714434762"><ele>1379.6666666666667</ele><time>2026-04-27T09:52:51.884Z</time></trkpt><trkpt lat="46.10612102410111" lon="10.139534826279267"><ele>1380.8333333333335</ele><time>2026-04-27T09:52:52.884Z</time></trkpt><trkpt lat="46.10616852320071" lon="10.139621283627612"><ele>1382.0</ele><time>2026-04-27T09:52:53.884Z</time></trkpt><trkpt lat="46.10621370785482" lon="10.139739314011155"><ele>1382.0</ele><time>2026-04-27T09:52:54.884Z</time></trkpt><trkpt lat="46.106278649020425" lon="10.13985187469415"><ele>1382.0</ele><time>2026-04-27T09:52:55.884Z</time></trkpt><trkpt lat="46.10632973379879" lon="10.139928793356678"><ele>1382.0</ele><time>2026-04-27T09:52:56.884Z</time></trkpt><trkpt lat="46.106374610220385" lon="10.140001274774217"><ele>1382.0</ele><time>2026-04-27T09:52:57.884Z</time></trkpt><trkpt lat="46.10645120280585" lon="10.140059462935902"><ele>1382.0</ele><time>2026-04-27T09:52:59.884Z</time></trkpt><trkpt lat="46.10656585953942" lon="10.140083059151184"><ele>1382.0</ele><time>2026-04-27T09:53:01.884Z</time></trkpt><trkpt lat="46.10664367469873" lon="10.140088141392962"><ele>1383.1999999999998</ele><time>2026-04-27T09:53:02.884Z</time></trkpt><trkpt lat="46.10673996051411" lon="10.14009630488228"><ele>1384.4</ele><time>2026-04-27T09:53:03.884Z</time></trkpt><trkpt lat="46.10684368089963" lon="10.14012374573984"><ele>1385.6</ele><time>2026-04-27T09:53:04.884Z</time></trkpt><trkpt lat="46.10694858099884" lon="10.140158200641832"><ele>1386.8000000000002</ele><time>2026-04-27T09:53:05.884Z</time></trkpt><trkpt lat="46.10703423284407" lon="10.140187942379583"><ele>1388.0</ele><time>2026-04-27T09:53:06.884Z</time></trkpt><trkpt lat="46.107116157948056" lon="10.140204184665524"><ele>1388.0</ele><time>2026-04-27T09:53:07.884Z</time></trkpt><trkpt lat="46.10718583497767" lon="10.140221255819258"><ele>1388.0</ele><time>2026-04-27T09:53:08.884Z</time></trkpt><trkpt lat="46.10731271803407" lon="10.140209415455558"><ele>1388.0</ele><time>2026-04-27T09:53:10.884Z</time></trkpt><trkpt lat="46.10740904830786" lon="10.1401806857393"><ele>1388.0</ele><time>2026-04-27T09:53:12.884Z</time></trkpt><trkpt lat="46.10749957873917" lon="10.140144697148827"><ele>1388.0</ele><time>2026-04-27T09:53:13.884Z</time></trkpt><trkpt lat="46.10756481739733" lon="10.140129073126062"><ele>1388.8000000000002</ele><time>2026-04-27T09:53:14.884Z</time></trkpt><trkpt lat="46.10763458918289" lon="10.140114823307878"><ele>1389.6</ele><time>2026-04-27T09:53:15.884Z</time></trkpt><trkpt lat="46.10774577689331" lon="10.140069005984786"><ele>1390.4</ele><time>2026-04-27T09:53:17.884Z</time></trkpt><trkpt lat="46.10783888242487" lon="10.139988108841989"><ele>1391.1999999999998</ele><time>2026-04-27T09:53:19.884Z</time></trkpt><trkpt lat="46.10794507674248" lon="10.13997783369437"><ele>1392.0</ele><time>2026-04-27T09:53:21.884Z</time></trkpt><trkpt lat="46.108018772514995" lon="10.139924456486614"><ele>1391.5</ele><time>2026-04-27T09:53:23.884Z</time></trkpt><trkpt lat="46.10809080265979" lon="10.139882811986379"><ele>1391.0</ele><time>2026-04-27T09:53:24.884Z</time></trkpt><trkpt lat="46.10817577145253" lon="10.139856030421043"><ele>1390.5</ele><time>2026-04-27T09:53:25.884Z</time></trkpt><trkpt lat="46.108235189396034" lon="10.139785461358038"><ele>1390.0</ele><time>2026-04-27T09:53:26.884Z</time></trkpt><trkpt lat="46.10829439626329" lon="10.139701345518317"><ele>1389.5</ele><time>2026-04-27T09:53:27.883Z</time></trkpt><trkpt lat="46.108372394133234" lon="10.139617041570897"><ele>1389.0</ele><time>2026-04-27T09:53:28.883Z</time></trkpt><trkpt lat="46.10843181977561" lon="10.139511769743626"><ele>1389.0</ele><time>2026-04-27T09:53:29.883Z</time></trkpt><trkpt lat="46.10849037926722" lon="10.139461821666934"><ele>1389.0</ele><time>2026-04-27T09:53:30.883Z</time></trkpt><trkpt lat="46.10855083214154" lon="10.13943288038063"><ele>1389.0</ele><time>2026-04-27T09:53:31.883Z</time></trkpt><trkpt lat="46.10865326030681" lon="10.13930081663406"><ele>1389.0</ele><time>2026-04-27T09:53:33.883Z</time></trkpt><trkpt lat="46.10872180464895" lon="10.139206955048149"><ele>1389.0</ele><time>2026-04-27T09:53:34.883Z</time></trkpt><trkpt lat="46.108784537337435" lon="10.139161365024519"><ele>1389.0</ele><time>2026-04-27T09:53:35.883Z</time></trkpt><trkpt lat="46.108839454583865" lon="10.139084513397533"><ele>1385.8333333333333</ele><time>2026-04-27T09:53:36.883Z</time></trkpt><trkpt lat="46.10886648531214" lon="10.138995826170824"><ele>1382.6666666666667</ele><time>2026-04-27T09:53:37.883Z</time></trkpt><trkpt lat="46.10890493210323" lon="10.138914018499332"><ele>1379.5</ele><time>2026-04-27T09:53:38.883Z</time></trkpt><trkpt lat="46.108950264886296" lon="10.138849857885482"><ele>1376.3333333333335</ele><time>2026-04-27T09:53:39.883Z</time></trkpt><trkpt lat="46.10902748197072" lon="10.138705722512421"><ele>1373.1666666666667</ele><time>2026-04-27T09:53:41.883Z</time></trkpt><trkpt lat="46.109073933959785" lon="10.138605821820384"><ele>1370.0</ele><time>2026-04-27T09:53:42.883Z</time></trkpt><trkpt lat="46.10912537407979" lon="10.138542361307879"><ele>1370.0</ele><time>2026-04-27T09:53:43.883Z</time></trkpt><trkpt lat="46.10921427152042" lon="10.138439148123018"><ele>1370.0</ele><time>2026-04-27T09:53:45.883Z</time></trkpt><trkpt lat="46.109298724589934" lon="10.138295369464966"><ele>1370.0</ele><time>2026-04-27T09:53:47.883Z</time></trkpt><trkpt lat="46.109355021773446" lon="10.13822967553341"><ele>1370.0</ele><time>2026-04-27T09:53:48.883Z</time></trkpt><trkpt lat="46.10938579987216" lon="10.138135509382414"><ele>1370.0</ele><time>2026-04-27T09:53:50.883Z</time></trkpt><trkpt lat="46.10944342243249" lon="10.138040996139809"><ele>1375.3333333333335</ele><time>2026-04-27T09:53:52.883Z</time></trkpt><trkpt lat="46.1095209708557" lon="10.137953151161028"><ele>1380.6666666666667</ele><time>2026-04-27T09:53:54.883Z</time></trkpt><trkpt lat="46.10958610658515" lon="10.137893690250605"><ele>1386.0</ele><time>2026-04-27T09:53:56.883Z</time></trkpt><trkpt lat="46.109647243079884" lon="10.137917947337856"><ele>1391.3333333333333</ele><time>2026-04-27T09:53:59.883Z</time></trkpt><trkpt lat="46.10971195763091" lon="10.13786549790196"><ele>1396.6666666666665</ele><time>2026-04-27T09:54:45.883Z</time></trkpt><trkpt lat="46.109688568600106" lon="10.13796426430324"><ele>1402.0</ele><time>2026-04-27T09:55:06.882Z</time></trkpt><trkpt lat="46.10962430674905" lon="10.137995640057316"><ele>1402.0</ele><time>2026-04-27T09:55:09.882Z</time></trkpt><trkpt lat="46.10956393236419" lon="10.138042032068459"><ele>1402.0</ele><time>2026-04-27T09:55:12.882Z</time></trkpt><trkpt lat="46.109504704264424" lon="10.13808498997799"><ele>1402.0</ele><time>2026-04-27T09:55:15.882Z</time></trkpt><trkpt lat="46.10947031850104" lon="10.138163174410113"><ele>1402.0</ele><time>2026-04-27T09:55:18.882Z</time></trkpt><trkpt lat="46.10944015271081" lon="10.138254384718023"><ele>1402.0</ele><time>2026-04-27T09:55:21.882Z</time></trkpt><trkpt lat="46.10943705678155" lon="10.138370343096826"><ele>1402.0</ele><time>2026-04-27T09:55:25.882Z</time></trkpt><trkpt lat="46.10946065877995" lon="10.138510732952009"><ele>1396.6666666666665</ele><time>2026-04-27T09:55:28.882Z</time></trkpt><trkpt lat="46.10948808175337" lon="10.138624472371632"><ele>1391.3333333333333</ele><time>2026-04-27T09:55:31.882Z</time></trkpt><trkpt lat="46.109487529094665" lon="10.138715655669701"><ele>1386.0</ele><time>2026-04-27T09:55:33.882Z</time></trkpt><trkpt lat="46.10950647197833" lon="10.138807754973547"><ele>1380.6666666666667</ele><time>2026-04-27T09:55:35.882Z</time></trkpt><trkpt lat="46.10953375062949" lon="10.138934818384788"><ele>1375.3333333333335</ele><time>2026-04-27T09:55:38.882Z</time></trkpt><trkpt lat="46.10955455979521" lon="10.139054611943811"><ele>1370.0</ele><time>2026-04-27T09:55:40.882Z</time></trkpt><trkpt lat="46.10956735496833" lon="10.139172793556728"><ele>1367.0</ele><time>2026-04-27T09:55:42.882Z</time></trkpt><trkpt lat="46.10959246940349" lon="10.139307765138778"><ele>1364.0</ele><time>2026-04-27T09:55:45.882Z</time></trkpt><trkpt lat="46.10959957514667" lon="10.139405112796169"><ele>1361.0</ele><time>2026-04-27T09:55:47.882Z</time></trkpt><trkpt lat="46.10961670320137" lon="10.139509039636035"><ele>1358.0</ele><time>2026-04-27T09:55:49.882Z</time></trkpt><trkpt lat="46.10967752109011" lon="10.139624623439198"><ele>1355.0</ele><time>2026-04-27T09:55:52.882Z</time></trkpt><trkpt lat="46.10973792991034" lon="10.139677742313049"><ele>1352.0</ele><time>2026-04-27T09:55:54.882Z</time></trkpt><trkpt lat="46.10981220742082" lon="10.139705426393022"><ele>1352.0</ele><time>2026-04-27T09:55:56.882Z</time></trkpt><trkpt lat="46.10989930333341" lon="10.139728600547707"><ele>1352.0</ele><time>2026-04-27T09:55:58.882Z</time></trkpt><trkpt lat="46.10996169961791" lon="10.139766653946122"><ele>1352.0</ele><time>2026-04-27T09:56:00.882Z</time></trkpt><trkpt lat="46.11002538233695" lon="10.139798378700934"><ele>1352.0</ele><time>2026-04-27T09:56:02.882Z</time></trkpt><trkpt lat="46.11010483242838" lon="10.139844008240019"><ele>1352.0</ele><time>2026-04-27T09:56:05.882Z</time></trkpt><trkpt lat="46.11016692681039" lon="10.13986045224848"><ele>1352.0</ele><time>2026-04-27T09:56:07.882Z</time></trkpt><trkpt lat="46.110244053093844" lon="10.139918436974437"><ele>1344.5</ele><time>2026-04-27T09:56:10.882Z</time></trkpt><trkpt lat="46.110309884758294" lon="10.139977619345617"><ele>1337.0</ele><time>2026-04-27T09:56:13.882Z</time></trkpt><trkpt lat="46.11038399974665" lon="10.13998616107013"><ele>1329.5</ele><time>2026-04-27T09:56:15.882Z</time></trkpt><trkpt lat="46.11046657404949" lon="10.139962052306618"><ele>1322.0</ele><time>2026-04-27T09:56:17.882Z</time></trkpt><trkpt lat="46.1105495131406" lon="10.139937910890504"><ele>1314.5</ele><time>2026-04-27T09:56:19.882Z</time></trkpt><trkpt lat="46.110615509633995" lon="10.139915427377652"><ele>1307.0</ele><time>2026-04-27T09:56:21.882Z</time></trkpt><trkpt lat="46.11067887621779" lon="10.139848037090976"><ele>1307.0</ele><time>2026-04-27T09:56:23.882Z</time></trkpt><trkpt lat="46.11072256158099" lon="10.139734485604254"><ele>1307.0</ele><time>2026-04-27T09:56:25.882Z</time></trkpt><trkpt lat="46.110749089261866" lon="10.139588257005082"><ele>1307.0</ele><time>2026-04-27T09:56:28.882Z</time></trkpt><trkpt lat="46.11077319067198" lon="10.139479341724162"><ele>1307.0</ele><time>2026-04-27T09:56:30.882Z</time></trkpt><trkpt lat="46.11078312104636" lon="10.139372695184656"><ele>1307.0</ele><time>2026-04-27T09:56:32.882Z</time></trkpt><trkpt lat="46.11079479482615" lon="10.139224053266737"><ele>1304.1666666666667</ele><time>2026-04-27T09:56:34.882Z</time></trkpt><trkpt lat="46.110810985133746" lon="10.13910913250461"><ele>1301.3333333333335</ele><time>2026-04-27T09:56:36.882Z</time></trkpt><trkpt lat="46.11082734626663" lon="10.138979257714341"><ele>1298.5</ele><time>2026-04-27T09:56:38.882Z</time></trkpt><trkpt lat="46.11083787048879" lon="10.138841417422595"><ele>1295.6666666666667</ele><time>2026-04-27T09:56:40.882Z</time></trkpt><trkpt lat="46.11086989561217" lon="10.138744956005864"><ele>1292.8333333333333</ele><time>2026-04-27T09:56:42.882Z</time></trkpt><trkpt lat="46.1109425598755" lon="10.138671221360054"><ele>1290.0</ele><time>2026-04-27T09:56:44.882Z</time></trkpt><trkpt lat="46.111019145227736" lon="10.13859030197057"><ele>1289.8333333333333</ele><time>2026-04-27T09:56:46.882Z</time></trkpt><trkpt lat="46.111077724304" lon="10.138551268531291"><ele>1289.6666666666667</ele><time>2026-04-27T09:56:48.882Z</time></trkpt><trkpt lat="46.111151073668076" lon="10.138470538400503"><ele>1289.5</ele><time>2026-04-27T09:56:50.882Z</time></trkpt><trkpt lat="46.11123219727779" lon="10.138392235795198"><ele>1289.3333333333335</ele><time>2026-04-27T09:56:52.882Z</time></trkpt><trkpt lat="46.11129650777562" lon="10.13832790497371"><ele>1289.1666666666667</ele><time>2026-04-27T09:56:54.882Z</time></trkpt><trkpt lat="46.111353854129554" lon="10.138257888521473"><ele>1289.0</ele><time>2026-04-27T09:56:58.882Z</time></trkpt><trkpt lat="46.1114562902262" lon="10.138280504982141"><ele>1289.0</ele><time>2026-04-27T09:57:10.881Z</time></trkpt><trkpt lat="46.11148760431654" lon="10.138390861923156"><ele>1289.0</ele><time>2026-04-27T09:57:14.881Z</time></trkpt><trkpt lat="46.11156922407327" lon="10.138452887842588"><ele>1289.0</ele><time>2026-04-27T09:57:44.881Z</time></trkpt><trkpt lat="46.11152309511012" lon="10.138518321033022"><ele>1289.0</ele><time>2026-04-27T09:57:55.881Z</time></trkpt><trkpt lat="46.111473310483966" lon="10.13845608702418"><ele>1289.0</ele><time>2026-04-27T09:58:02.881Z</time></trkpt><trkpt lat="46.11147646434766" lon="10.138363734269948"><ele>1289.0</ele><time>2026-04-27T09:58:04.881Z</time></trkpt><trkpt lat="46.11149134670029" lon="10.138259773138751"><ele>1289.0</ele><time>2026-04-27T09:58:06.881Z</time></trkpt><trkpt lat="46.11151383797685" lon="10.138164683868531"><ele>1286.8</ele><time>2026-04-27T09:58:08.881Z</time></trkpt><trkpt lat="46.11157629629188" lon="10.13804575183932"><ele>1284.6000000000001</ele><time>2026-04-27T09:58:10.881Z</time></trkpt><trkpt lat="46.111619826294564" lon="10.137926995980974"><ele>1282.4</ele><time>2026-04-27T09:58:12.881Z</time></trkpt><trkpt lat="46.111674753910826" lon="10.137776448532001"><ele>1280.2</ele><time>2026-04-27T09:58:14.881Z</time></trkpt><trkpt lat="46.111749598315996" lon="10.137640689755969"><ele>1278.0</ele><time>2026-04-27T09:58:16.881Z</time></trkpt><trkpt lat="46.111840409240386" lon="10.137527358459929"><ele>1278.0</ele><time>2026-04-27T09:58:18.881Z</time></trkpt><trkpt lat="46.111957305114" lon="10.13746548355985"><ele>1278.0</ele><time>2026-04-27T09:58:20.881Z</time></trkpt><trkpt lat="46.112018559139464" lon="10.137429117637831"><ele>1278.0</ele><time>2026-04-27T09:58:21.881Z</time></trkpt><trkpt lat="46.11208825807731" lon="10.13739163951562"><ele>1278.0</ele><time>2026-04-27T09:58:22.881Z</time></trkpt><trkpt lat="46.11214825972291" lon="10.137353658529594"><ele>1278.0</ele><time>2026-04-27T09:58:23.88Z</time></trkpt><trkpt lat="46.112214482585216" lon="10.137307371867706"><ele>1278.0</ele><time>2026-04-27T09:58:24.88Z</time></trkpt><trkpt lat="46.11227680094776" lon="10.137273329944861"><ele>1276.2857142857144</ele><time>2026-04-27T09:58:25.881Z</time></trkpt><trkpt lat="46.11235562987859" lon="10.137246776552066"><ele>1274.5714285714287</ele><time>2026-04-27T09:58:26.881Z</time></trkpt><trkpt lat="46.11242246770972" lon="10.13722142798074"><ele>1272.857142857143</ele><time>2026-04-27T09:58:27.881Z</time></trkpt><trkpt lat="46.11248732979528" lon="10.137181777586965"><ele>1271.1428571428573</ele><time>2026-04-27T09:58:28.881Z</time></trkpt><trkpt lat="46.11255200829081" lon="10.137138653964833"><ele>1269.4285714285716</ele><time>2026-04-27T09:58:29.881Z</time></trkpt><trkpt lat="46.112598724355095" lon="10.13706773251816"><ele>1267.7142857142858</ele><time>2026-04-27T09:58:30.881Z</time></trkpt><trkpt lat="46.11263973931856" lon="10.136983414214646"><ele>1266.0</ele><time>2026-04-27T09:58:31.881Z</time></trkpt><trkpt lat="46.11269019930181" lon="10.136889114864898"><ele>1266.0</ele><time>2026-04-27T09:58:32.881Z</time></trkpt><trkpt lat="46.11276096290771" lon="10.136812202895102"><ele>1266.0</ele><time>2026-04-27T09:58:33.881Z</time></trkpt><trkpt lat="46.112816229262116" lon="10.136717168394783"><ele>1266.0</ele><time>2026-04-27T09:58:34.881Z</time></trkpt><trkpt lat="46.11287212786795" lon="10.13662618896702"><ele>1266.0</ele><time>2026-04-27T09:58:35.881Z</time></trkpt><trkpt lat="46.11292596615215" lon="10.136544221751388"><ele>1266.0</ele><time>2026-04-27T09:58:36.881Z</time></trkpt><trkpt lat="46.11298404460466" lon="10.136461750665887"><ele>1266.0</ele><time>2026-04-27T09:58:37.881Z</time></trkpt><trkpt lat="46.11304502794879" lon="10.136386009790005"><ele>1267.3999999999999</ele><time>2026-04-27T09:58:38.881Z</time></trkpt><trkpt lat="46.11309729881816" lon="10.136303965744334"><ele>1268.8</ele><time>2026-04-27T09:58:39.881Z</time></trkpt><trkpt lat="46.1131655817136" lon="10.136195592939021"><ele>1270.1999999999998</ele><time>2026-04-27T09:58:41.881Z</time></trkpt><trkpt lat="46.11322485176023" lon="10.13603713868767"><ele>1271.6</ele><time>2026-04-27T09:58:43.881Z</time></trkpt><trkpt lat="46.11325183726179" lon="10.135950236867089"><ele>1273.0</ele><time>2026-04-27T09:58:44.881Z</time></trkpt><trkpt lat="46.11329166695848" lon="10.13582201233045"><ele>1269.1666666666665</ele><time>2026-04-27T09:58:46.88Z</time></trkpt><trkpt lat="46.113366828566704" lon="10.135691192150814"><ele>1265.3333333333333</ele><time>2026-04-27T09:58:48.88Z</time></trkpt><trkpt lat="46.113411160994204" lon="10.135610958198194"><ele>1261.5</ele><time>2026-04-27T09:58:49.88Z</time></trkpt><trkpt lat="46.11346543417746" lon="10.135532850532286"><ele>1257.6666666666667</ele><time>2026-04-27T09:58:50.88Z</time></trkpt><trkpt lat="46.11352259532502" lon="10.135471355536499"><ele>1253.8333333333335</ele><time>2026-04-27T09:58:51.88Z</time></trkpt><trkpt lat="46.113579814695974" lon="10.13541376890012"><ele>1250.0</ele><time>2026-04-27T09:58:52.88Z</time></trkpt><trkpt lat="46.113660872369195" lon="10.135377761874752"><ele>1250.0</ele><time>2026-04-27T09:58:53.88Z</time></trkpt><trkpt lat="46.113722842014504" lon="10.135312773112608"><ele>1250.0</ele><time>2026-04-27T09:58:54.88Z</time></trkpt><trkpt lat="46.1137809735858" lon="10.135249129851493"><ele>1250.0</ele><time>2026-04-27T09:58:55.88Z</time></trkpt><trkpt lat="46.113837691056425" lon="10.135188831037086"><ele>1250.0</ele><time>2026-04-27T09:58:56.88Z</time></trkpt><trkpt lat="46.11390311754602" lon="10.135087451153053"><ele>1250.0</ele><time>2026-04-27T09:58:58.88Z</time></trkpt><trkpt lat="46.11396191289042" lon="10.13498115367792"><ele>1250.0</ele><time>2026-04-27T09:59:00.88Z</time></trkpt><trkpt lat="46.11403542761092" lon="10.134843505533834"><ele>1247.8</ele><time>2026-04-27T09:59:02.88Z</time></trkpt><trkpt lat="46.114097666895574" lon="10.134704269512614"><ele>1245.6</ele><time>2026-04-27T09:59:04.88Z</time></trkpt><trkpt lat="46.114160827598035" lon="10.134550261727773"><ele>1243.4</ele><time>2026-04-27T09:59:06.88Z</time></trkpt><trkpt lat="46.11420836197509" lon="10.134456681731582"><ele>1241.2</ele><time>2026-04-27T09:59:07.88Z</time></trkpt><trkpt lat="46.11423626692998" lon="10.134367006200868"><ele>1239.0</ele><time>2026-04-27T09:59:08.88Z</time></trkpt><trkpt lat="46.114270441808706" lon="10.134278723984838"><ele>1239.0</ele><time>2026-04-27T09:59:09.88Z</time></trkpt><trkpt lat="46.114309734280106" lon="10.13417172640751"><ele>1239.0</ele><time>2026-04-27T09:59:10.88Z</time></trkpt><trkpt lat="46.114344169314165" lon="10.134067015347384"><ele>1239.0</ele><time>2026-04-27T09:59:11.88Z</time></trkpt><trkpt lat="46.11438108165386" lon="10.13397076930008"><ele>1239.0</ele><time>2026-04-27T09:59:12.88Z</time></trkpt><trkpt lat="46.11442299310208" lon="10.133886962352282"><ele>1239.0</ele><time>2026-04-27T09:59:13.88Z</time></trkpt><trkpt lat="46.11450567847756" lon="10.133753654818971"><ele>1239.0</ele><time>2026-04-27T09:59:15.88Z</time></trkpt><trkpt lat="46.11456110184693" lon="10.133616443510062"><ele>1241.6000000000001</ele><time>2026-04-27T09:59:17.88Z</time></trkpt><trkpt lat="46.11465141034971" lon="10.133538021501206"><ele>1244.2</ele><time>2026-04-27T09:59:19.88Z</time></trkpt><trkpt lat="46.11471882287528" lon="10.133505121268591"><ele>1246.8000000000002</ele><time>2026-04-27T09:59:20.88Z</time></trkpt><trkpt lat="46.11480540245784" lon="10.133424348757403"><ele>1249.4</ele><time>2026-04-27T09:59:21.88Z</time></trkpt><trkpt lat="46.11486944137977" lon="10.13332545281443"><ele>1252.0</ele><time>2026-04-27T09:59:22.88Z</time></trkpt><trkpt lat="46.11496566503378" lon="10.133247531571035"><ele>1250.0</ele><time>2026-04-27T09:59:23.88Z</time></trkpt><trkpt lat="46.11505868800345" lon="10.13319433717871"><ele>1248.0</ele><time>2026-04-27T09:59:24.88Z</time></trkpt><trkpt lat="46.11514054356601" lon="10.133137627432529"><ele>1246.0</ele><time>2026-04-27T09:59:25.88Z</time></trkpt><trkpt lat="46.11522808880767" lon="10.133102598877207"><ele>1244.0</ele><time>2026-04-27T09:59:26.88Z</time></trkpt><trkpt lat="46.11532912815797" lon="10.133050953840204"><ele>1242.0</ele><time>2026-04-27T09:59:27.88Z</time></trkpt><trkpt lat="46.11542888097681" lon="10.132993732349512"><ele>1242.0</ele><time>2026-04-27T09:59:28.88Z</time></trkpt><trkpt lat="46.11554391909692" lon="10.132933837026213"><ele>1242.0</ele><time>2026-04-27T09:59:29.88Z</time></trkpt><trkpt lat="46.11565310410814" lon="10.132868945126589"><ele>1242.0</ele><time>2026-04-27T09:59:30.88Z</time></trkpt><trkpt lat="46.115748908693625" lon="10.132819642468633"><ele>1242.0</ele><time>2026-04-27T09:59:31.88Z</time></trkpt><trkpt lat="46.11585282062393" lon="10.132773139432786"><ele>1239.0</ele><time>2026-04-27T09:59:32.88Z</time></trkpt><trkpt lat="46.11595214763706" lon="10.132735084965312"><ele>1236.0</ele><time>2026-04-27T09:59:33.88Z</time></trkpt><trkpt lat="46.11604496692202" lon="10.132663402805656"><ele>1233.0</ele><time>2026-04-27T09:59:34.88Z</time></trkpt><trkpt lat="46.11613211886931" lon="10.13260884362746"><ele>1230.0</ele><time>2026-04-27T09:59:35.88Z</time></trkpt><trkpt lat="46.116206603023734" lon="10.132561112892231"><ele>1227.0</ele><time>2026-04-27T09:59:36.88Z</time></trkpt><trkpt lat="46.11628112105814" lon="10.132511516291283"><ele>1227.0</ele><time>2026-04-27T09:59:37.88Z</time></trkpt><trkpt lat="46.116336777755755" lon="10.132450142884373"><ele>1227.0</ele><time>2026-04-27T09:59:38.88Z</time></trkpt><trkpt lat="46.11640328183833" lon="10.132404407049211"><ele>1227.0</ele><time>2026-04-27T09:59:39.88Z</time></trkpt><trkpt lat="46.11647534590293" lon="10.132359947689164"><ele>1227.0</ele><time>2026-04-27T09:59:40.88Z</time></trkpt><trkpt lat="46.11654643762405" lon="10.132320770179998"><ele>1227.0</ele><time>2026-04-27T09:59:41.88Z</time></trkpt><trkpt lat="46.11660948897583" lon="10.132268902368715"><ele>1227.0</ele><time>2026-04-27T09:59:42.88Z</time></trkpt><trkpt lat="46.11669375101149" lon="10.132222837358572"><ele>1229.2</ele><time>2026-04-27T09:59:43.88Z</time></trkpt><trkpt lat="46.1167881262051" lon="10.132169700365786"><ele>1231.4</ele><time>2026-04-27T09:59:44.88Z</time></trkpt><trkpt lat="46.116887390911394" lon="10.132093828713431"><ele>1233.6</ele><time>2026-04-27T09:59:45.88Z</time></trkpt><trkpt lat="46.11698608324072" lon="10.132013245585142"><ele>1235.8</ele><time>2026-04-27T09:59:46.88Z</time></trkpt><trkpt lat="46.11709182255272" lon="10.131975177393496"><ele>1238.0</ele><time>2026-04-27T09:59:47.88Z</time></trkpt><trkpt lat="46.117174462959596" lon="10.131935717039738"><ele>1238.0</ele><time>2026-04-27T09:59:48.88Z</time></trkpt><trkpt lat="46.11723277557302" lon="10.13187559420541"><ele>1238.0</ele><time>2026-04-27T09:59:49.88Z</time></trkpt><trkpt lat="46.11729916018944" lon="10.13181073667957"><ele>1238.0</ele><time>2026-04-27T09:59:50.88Z</time></trkpt><trkpt lat="46.117390029151466" lon="10.13175320899022"><ele>1238.0</ele><time>2026-04-27T09:59:51.88Z</time></trkpt><trkpt lat="46.1174826003856" lon="10.131695576863494"><ele>1238.0</ele><time>2026-04-27T09:59:52.88Z</time></trkpt><trkpt lat="46.1175894838611" lon="10.131657788503531"><ele>1239.5</ele><time>2026-04-27T09:59:53.88Z</time></trkpt><trkpt lat="46.11767461304855" lon="10.131628128568288"><ele>1241.0</ele><time>2026-04-27T09:59:54.88Z</time></trkpt><trkpt lat="46.11775929034649" lon="10.1315814516841"><ele>1242.5</ele><time>2026-04-27T09:59:55.88Z</time></trkpt><trkpt lat="46.11782962120753" lon="10.13152706512779"><ele>1244.0</ele><time>2026-04-27T09:59:56.88Z</time></trkpt><trkpt lat="46.11790368455302" lon="10.131496456589145"><ele>1245.5</ele><time>2026-04-27T09:59:57.88Z</time></trkpt><trkpt lat="46.117982664409624" lon="10.131482094021377"><ele>1247.0</ele><time>2026-04-27T09:59:58.88Z</time></trkpt><trkpt lat="46.11804991949699" lon="10.131467245075173"><ele>1247.0</ele><time>2026-04-27T09:59:59.88Z</time></trkpt><trkpt lat="46.118146485258755" lon="10.131471167475967"><ele>1247.0</ele><time>2026-04-27T10:00:01.88Z</time></trkpt><trkpt lat="46.118211735655066" lon="10.131452931337215"><ele>1247.0</ele><time>2026-04-27T10:00:02.88Z</time></trkpt><trkpt lat="46.118247895619675" lon="10.131370028774057"><ele>1247.0</ele><time>2026-04-27T10:00:03.88Z</time></trkpt><trkpt lat="46.11828200991676" lon="10.13128945433192"><ele>1247.0</ele><time>2026-04-27T10:00:04.88Z</time></trkpt><trkpt lat="46.118337517915805" lon="10.131185031975495"><ele>1247.0</ele><time>2026-04-27T10:00:05.88Z</time></trkpt><trkpt lat="46.11837988628668" lon="10.131102047160253"><ele>1241.6</ele><time>2026-04-27T10:00:06.88Z</time></trkpt><trkpt lat="46.11843043147761" lon="10.130996751473464"><ele>1236.2</ele><time>2026-04-27T10:00:08.879Z</time></trkpt><trkpt lat="46.11848755710391" lon="10.130894868967511"><ele>1230.8</ele><time>2026-04-27T10:00:10.879Z</time></trkpt><trkpt lat="46.11856527839827" lon="10.130956297870926"><ele>1225.4</ele><time>2026-04-27T10:00:14.879Z</time></trkpt><trkpt lat="46.11852446888631" lon="10.131083095102568"><ele>1220.0</ele><time>2026-04-27T10:00:17.879Z</time></trkpt><trkpt lat="46.11846359821557" lon="10.131242116725819"><ele>1220.0</ele><time>2026-04-27T10:00:19.88Z</time></trkpt><trkpt lat="46.11844319120914" lon="10.131452457113546"><ele>1220.0</ele><time>2026-04-27T10:00:21.88Z</time></trkpt><trkpt lat="46.11842958310142" lon="10.131558512477142"><ele>1220.0</ele><time>2026-04-27T10:00:23.88Z</time></trkpt><trkpt lat="46.11837357725506" lon="10.131604673116248"><ele>1220.0</ele><time>2026-04-27T10:00:25.88Z</time></trkpt><trkpt lat="46.118363461297406" lon="10.131707693937463"><ele>1220.0</ele><time>2026-04-27T10:00:28.88Z</time></trkpt><trkpt lat="46.11844353743764" lon="10.131712876935447"><ele>1220.0</ele><time>2026-04-27T10:00:31.88Z</time></trkpt><trkpt lat="46.118519524377746" lon="10.131592039194524"><ele>1220.0</ele><time>2026-04-27T10:00:33.879Z</time></trkpt><trkpt lat="46.118597733638005" lon="10.131468178812028"><ele>1220.0</ele><time>2026-04-27T10:00:35.879Z</time></trkpt><trkpt lat="46.118664752726346" lon="10.131398168672362"><ele>1220.0</ele><time>2026-04-27T10:00:37.879Z</time></trkpt><trkpt lat="46.11873650757358" lon="10.131327746218709"><ele>1220.0</ele><time>2026-04-27T10:00:39.879Z</time></trkpt><trkpt lat="46.11880246633204" lon="10.131200478795268"><ele>1220.0</ele><time>2026-04-27T10:00:41.879Z</time></trkpt><trkpt lat="46.118853294106316" lon="10.131105039186123"><ele>1220.0</ele><time>2026-04-27T10:00:43.879Z</time></trkpt><trkpt lat="46.11892497615906" lon="10.131027136557616"><ele>1220.0</ele><time>2026-04-27T10:00:45.879Z</time></trkpt><trkpt lat="46.11901032723229" lon="10.130995884358848"><ele>1220.0</ele><time>2026-04-27T10:00:47.879Z</time></trkpt><trkpt lat="46.11905013866116" lon="10.130920880578703"><ele>1220.0</ele><time>2026-04-27T10:00:48.879Z</time></trkpt><trkpt lat="46.11909134613378" lon="10.13081007967815"><ele>1220.0</ele><time>2026-04-27T10:00:51.879Z</time></trkpt><trkpt lat="46.11915053831709" lon="10.130754617096873"><ele>1220.0</ele><time>2026-04-27T10:00:53.879Z</time></trkpt><trkpt lat="46.119225786915685" lon="10.130728774087727"><ele>1219.8</ele><time>2026-04-27T10:00:55.879Z</time></trkpt><trkpt lat="46.119329125714295" lon="10.130687302576982"><ele>1219.6</ele><time>2026-04-27T10:00:57.879Z</time></trkpt><trkpt lat="46.119411252584364" lon="10.130666556619556"><ele>1219.4</ele><time>2026-04-27T10:00:59.879Z</time></trkpt><trkpt lat="46.119470193499694" lon="10.130603008088107"><ele>1219.2</ele><time>2026-04-27T10:01:01.879Z</time></trkpt><trkpt lat="46.11951467352484" lon="10.130524138602066"><ele>1219.0</ele><time>2026-04-27T10:01:03.879Z</time></trkpt><trkpt lat="46.11961306906219" lon="10.13043506618325"><ele>1219.0</ele><time>2026-04-27T10:01:05.879Z</time></trkpt><trkpt lat="46.119714586422525" lon="10.13034776766663"><ele>1219.0</ele><time>2026-04-27T10:01:07.879Z</time></trkpt><trkpt lat="46.119772618110204" lon="10.130290877179792"><ele>1219.0</ele><time>2026-04-27T10:01:08.879Z</time></trkpt><trkpt lat="46.11983598763101" lon="10.130253424293697"><ele>1219.0</ele><time>2026-04-27T10:01:09.879Z</time></trkpt><trkpt lat="46.119887517692035" lon="10.130197915749342"><ele>1219.0</ele><time>2026-04-27T10:01:10.879Z</time></trkpt><trkpt lat="46.119976121068575" lon="10.130109613642057"><ele>1219.0</ele><time>2026-04-27T10:01:12.879Z</time></trkpt><trkpt lat="46.120036484433285" lon="10.130064049667888"><ele>1210.6000000000001</ele><time>2026-04-27T10:01:13.879Z</time></trkpt><trkpt lat="46.12012118635113" lon="10.129972352589855"><ele>1202.2</ele><time>2026-04-27T10:01:15.879Z</time></trkpt><trkpt lat="46.12020484337173" lon="10.129878297100195"><ele>1193.8000000000002</ele><time>2026-04-27T10:01:17.879Z</time></trkpt><trkpt lat="46.12031024915639" lon="10.129793193494887"><ele>1185.4</ele><time>2026-04-27T10:01:19.879Z</time></trkpt><trkpt lat="46.12038469530852" lon="10.129682640275396"><ele>1177.0</ele><time>2026-04-27T10:01:21.879Z</time></trkpt><trkpt lat="46.12045743913723" lon="10.129634304142451"><ele>1177.0</ele><time>2026-04-27T10:01:23.879Z</time></trkpt><trkpt lat="46.12054237421692" lon="10.129591567604896"><ele>1177.0</ele><time>2026-04-27T10:01:25.879Z</time></trkpt><trkpt lat="46.120624240056685" lon="10.129465245373831"><ele>1177.0</ele><time>2026-04-27T10:01:27.879Z</time></trkpt><trkpt lat="46.12068925366583" lon="10.129428235615011"><ele>1177.0</ele><time>2026-04-27T10:01:28.879Z</time></trkpt><trkpt lat="46.12080685504714" lon="10.129358544560816"><ele>1177.0</ele><time>2026-04-27T10:01:30.879Z</time></trkpt><trkpt lat="46.12087568965014" lon="10.129340411770151"><ele>1174.8</ele><time>2026-04-27T10:01:31.879Z</time></trkpt><trkpt lat="46.12095451208964" lon="10.129292902030615"><ele>1172.6</ele><time>2026-04-27T10:01:32.879Z</time></trkpt><trkpt lat="46.12105070488017" lon="10.129208151366642"><ele>1170.3999999999999</ele><time>2026-04-27T10:01:34.879Z</time></trkpt><trkpt lat="46.12110135984571" lon="10.129103363370124"><ele>1168.2</ele><time>2026-04-27T10:01:35.879Z</time></trkpt><trkpt lat="46.121149221982435" lon="10.129008031499964"><ele>1166.0</ele><time>2026-04-27T10:01:36.879Z</time></trkpt><trkpt lat="46.121233959132425" lon="10.128945475798687"><ele>1166.0</ele><time>2026-04-27T10:01:37.879Z</time></trkpt><trkpt lat="46.121343703934805" lon="10.128862262503821"><ele>1166.0</ele><time>2026-04-27T10:01:39.879Z</time></trkpt><trkpt lat="46.12139200927257" lon="10.128800237833808"><ele>1166.0</ele><time>2026-04-27T10:01:40.879Z</time></trkpt><trkpt lat="46.12144838437326" lon="10.128739721289065"><ele>1166.0</ele><time>2026-04-27T10:01:41.879Z</time></trkpt><trkpt lat="46.12151043812639" lon="10.128652568475127"><ele>1166.0</ele><time>2026-04-27T10:01:42.879Z</time></trkpt><trkpt lat="46.12157622079481" lon="10.128586033271342"><ele>1166.0</ele><time>2026-04-27T10:01:43.879Z</time></trkpt><trkpt lat="46.12164335995482" lon="10.12850507412007"><ele>1165.3999999999999</ele><time>2026-04-27T10:01:44.879Z</time></trkpt><trkpt lat="46.121695853708594" lon="10.12841280357339"><ele>1164.8</ele><time>2026-04-27T10:01:45.879Z</time></trkpt><trkpt lat="46.121750807147244" lon="10.128311231861991"><ele>1164.1999999999998</ele><time>2026-04-27T10:01:46.879Z</time></trkpt><trkpt lat="46.1218539365045" lon="10.128215512802646"><ele>1163.6</ele><time>2026-04-27T10:01:47.878Z</time></trkpt><trkpt lat="46.121917552466066" lon="10.128135835473847"><ele>1163.0</ele><time>2026-04-27T10:01:48.878Z</time></trkpt><trkpt lat="46.121977935698254" lon="10.128041015009961"><ele>1163.0</ele><time>2026-04-27T10:01:49.878Z</time></trkpt><trkpt lat="46.12206742755234" lon="10.127917535519408"><ele>1163.0</ele><time>2026-04-27T10:01:51.878Z</time></trkpt><trkpt lat="46.122130454075666" lon="10.127864940324697"><ele>1163.0</ele><time>2026-04-27T10:01:52.878Z</time></trkpt><trkpt lat="46.12218023398168" lon="10.127799828417094"><ele>1163.0</ele><time>2026-04-27T10:01:53.878Z</time></trkpt><trkpt lat="46.12230392374259" lon="10.12772287219843"><ele>1163.0</ele><time>2026-04-27T10:01:55.878Z</time></trkpt><trkpt lat="46.12238362997516" lon="10.127644228349432"><ele>1160.8</ele><time>2026-04-27T10:01:56.878Z</time></trkpt><trkpt lat="46.12248871430616" lon="10.127571956226125"><ele>1158.6</ele><time>2026-04-27T10:01:57.878Z</time></trkpt><trkpt lat="46.12258195628715" lon="10.127535724428789"><ele>1156.4</ele><time>2026-04-27T10:01:58.878Z</time></trkpt><trkpt lat="46.122676154295704" lon="10.127475539660093"><ele>1154.2</ele><time>2026-04-27T10:01:59.878Z</time></trkpt><trkpt lat="46.12277357712446" lon="10.12741030981584"><ele>1152.0</ele><time>2026-04-27T10:02:00.878Z</time></trkpt><trkpt lat="46.122888304981366" lon="10.127327142748879"><ele>1152.0</ele><time>2026-04-27T10:02:01.878Z</time></trkpt><trkpt lat="46.12298536879611" lon="10.127258154427965"><ele>1152.0</ele><time>2026-04-27T10:02:02.878Z</time></trkpt><trkpt lat="46.123078179538176" lon="10.127199695316133"><ele>1152.0</ele><time>2026-04-27T10:02:03.878Z</time></trkpt><trkpt lat="46.12317578436255" lon="10.127161582114352"><ele>1152.0</ele><time>2026-04-27T10:02:04.878Z</time></trkpt><trkpt lat="46.123262601000874" lon="10.127103865919347"><ele>1152.0</ele><time>2026-04-27T10:02:05.878Z</time></trkpt><trkpt lat="46.12333373727347" lon="10.127057898822091"><ele>1145.8333333333333</ele><time>2026-04-27T10:02:06.878Z</time></trkpt><trkpt lat="46.12341374977749" lon="10.127004964232453"><ele>1139.6666666666667</ele><time>2026-04-27T10:02:07.878Z</time></trkpt><trkpt lat="46.12349085022689" lon="10.126961165855146"><ele>1133.5</ele><time>2026-04-27T10:02:08.878Z</time></trkpt><trkpt lat="46.12355294069794" lon="10.12687093259194"><ele>1127.3333333333335</ele><time>2026-04-27T10:02:09.878Z</time></trkpt><trkpt lat="46.123590131109665" lon="10.12676782489593"><ele>1121.1666666666667</ele><time>2026-04-27T10:02:10.878Z</time></trkpt><trkpt lat="46.12363815932521" lon="10.126692861166372"><ele>1115.0</ele><time>2026-04-27T10:02:11.878Z</time></trkpt><trkpt lat="46.12370576173994" lon="10.126633941275774"><ele>1115.0</ele><time>2026-04-27T10:02:12.878Z</time></trkpt><trkpt lat="46.12376899170894" lon="10.126599614054507"><ele>1115.0</ele><time>2026-04-27T10:02:13.878Z</time></trkpt><trkpt lat="46.123864390860035" lon="10.126566335003044"><ele>1115.0</ele><time>2026-04-27T10:02:14.878Z</time></trkpt><trkpt lat="46.12396581409723" lon="10.126521275446938"><ele>1115.0</ele><time>2026-04-27T10:02:15.878Z</time></trkpt><trkpt lat="46.12404452283331" lon="10.126498003317883"><ele>1115.0</ele><time>2026-04-27T10:02:16.878Z</time></trkpt><trkpt lat="46.12411692294771" lon="10.126484376162463"><ele>1115.0</ele><time>2026-04-27T10:02:17.878Z</time></trkpt><trkpt lat="46.12420423505592" lon="10.126460137694119"><ele>1115.8</ele><time>2026-04-27T10:02:18.878Z</time></trkpt><trkpt lat="46.12431393311971" lon="10.126452389404529"><ele>1116.6</ele><time>2026-04-27T10:02:19.878Z</time></trkpt><trkpt lat="46.12442100362675" lon="10.126458554662063"><ele>1117.4</ele><time>2026-04-27T10:02:20.878Z</time></trkpt><trkpt lat="46.124523430568175" lon="10.126437481167955"><ele>1118.2</ele><time>2026-04-27T10:02:21.878Z</time></trkpt><trkpt lat="46.12461613887762" lon="10.126377877548304"><ele>1119.0</ele><time>2026-04-27T10:02:22.878Z</time></trkpt><trkpt lat="46.12470514877824" lon="10.126319211183336"><ele>1119.0</ele><time>2026-04-27T10:02:23.878Z</time></trkpt><trkpt lat="46.124785414289654" lon="10.126269514652815"><ele>1119.0</ele><time>2026-04-27T10:02:24.878Z</time></trkpt><trkpt lat="46.12489479221328" lon="10.126173653430493"><ele>1119.0</ele><time>2026-04-27T10:02:26.879Z</time></trkpt><trkpt lat="46.12495777433015" lon="10.126134896345842"><ele>1119.0</ele><time>2026-04-27T10:02:27.879Z</time></trkpt><trkpt lat="46.125035696171174" lon="10.126087705214132"><ele>1119.0</ele><time>2026-04-27T10:02:28.879Z</time></trkpt><trkpt lat="46.1251215582306" lon="10.126033239353315"><ele>1114.2</ele><time>2026-04-27T10:02:29.879Z</time></trkpt><trkpt lat="46.125220161330276" lon="10.126036238971768"><ele>1109.4</ele><time>2026-04-27T10:02:30.879Z</time></trkpt><trkpt lat="46.12533402045548" lon="10.126016019505691"><ele>1104.6</ele><time>2026-04-27T10:02:31.879Z</time></trkpt><trkpt lat="46.12543161517577" lon="10.126015030620353"><ele>1099.8</ele><time>2026-04-27T10:02:32.878Z</time></trkpt><trkpt lat="46.12552639541102" lon="10.12600321103286"><ele>1095.0</ele><time>2026-04-27T10:02:33.878Z</time></trkpt><trkpt lat="46.12565026840169" lon="10.125973750477138"><ele>1094.6</ele><time>2026-04-27T10:02:34.879Z</time></trkpt><trkpt lat="46.125754740158555" lon="10.125920143858592"><ele>1094.2</ele><time>2026-04-27T10:02:35.879Z</time></trkpt><trkpt lat="46.12585184280886" lon="10.125845344491369"><ele>1093.8</ele><time>2026-04-27T10:02:36.879Z</time></trkpt><trkpt lat="46.125937252527514" lon="10.125806912750871"><ele>1093.4</ele><time>2026-04-27T10:02:37.878Z</time></trkpt><trkpt lat="46.12601732541307" lon="10.125746507826875"><ele>1093.0</ele><time>2026-04-27T10:02:38.879Z</time></trkpt><trkpt lat="46.12612818188293" lon="10.125705005398745"><ele>1093.0</ele><time>2026-04-27T10:02:39.879Z</time></trkpt><trkpt lat="46.12621752047225" lon="10.125661727765532"><ele>1093.0</ele><time>2026-04-27T10:02:40.879Z</time></trkpt><trkpt lat="46.126299924270945" lon="10.12564043547574"><ele>1093.0</ele><time>2026-04-27T10:02:41.879Z</time></trkpt><trkpt lat="46.126378947344314" lon="10.125628124423596"><ele>1093.0</ele><time>2026-04-27T10:02:42.879Z</time></trkpt><trkpt lat="46.12645109233107" lon="10.125584325922667"><ele>1093.0</ele><time>2026-04-27T10:02:43.879Z</time></trkpt><trkpt lat="46.126549145065916" lon="10.125517613514463"><ele>1093.0</ele><time>2026-04-27T10:02:44.879Z</time></trkpt><trkpt lat="46.12664492605921" lon="10.125434479773087"><ele>1089.2</ele><time>2026-04-27T10:02:45.879Z</time></trkpt><trkpt lat="46.12673441758341" lon="10.125341374812995"><ele>1085.4</ele><time>2026-04-27T10:02:46.879Z</time></trkpt><trkpt lat="46.12682518480879" lon="10.125232279540212"><ele>1081.6000000000001</ele><time>2026-04-27T10:02:47.879Z</time></trkpt><trkpt lat="46.12690340948994" lon="10.125141874773403"><ele>1077.8</ele><time>2026-04-27T10:02:48.879Z</time></trkpt><trkpt lat="46.12699335563106" lon="10.125039506115003"><ele>1074.0</ele><time>2026-04-27T10:02:49.879Z</time></trkpt><trkpt lat="46.12707342109988" lon="10.124932420523887"><ele>1073.6000000000001</ele><time>2026-04-27T10:02:50.879Z</time></trkpt><trkpt lat="46.12715272171523" lon="10.124825410307128"><ele>1073.2</ele><time>2026-04-27T10:02:51.879Z</time></trkpt><trkpt lat="46.1272341554061" lon="10.124732541680167"><ele>1072.8000000000002</ele><time>2026-04-27T10:02:52.879Z</time></trkpt><trkpt lat="46.1273202290653" lon="10.124662463058543"><ele>1072.4</ele><time>2026-04-27T10:02:53.879Z</time></trkpt><trkpt lat="46.127402357415356" lon="10.124571110571926"><ele>1072.0</ele><time>2026-04-27T10:02:54.879Z</time></trkpt><trkpt lat="46.12747927606377" lon="10.124483799505994"><ele>1072.0</ele><time>2026-04-27T10:02:55.879Z</time></trkpt><trkpt lat="46.12755460739376" lon="10.124424580094757"><ele>1072.0</ele><time>2026-04-27T10:02:56.879Z</time></trkpt><trkpt lat="46.127637027469014" lon="10.124368000812416"><ele>1072.0</ele><time>2026-04-27T10:02:57.879Z</time></trkpt><trkpt lat="46.127732268132235" lon="10.124307789793198"><ele>1072.0</ele><time>2026-04-27T10:02:58.879Z</time></trkpt><trkpt lat="46.127824676641" lon="10.12427183385947"><ele>1072.0</ele><time>2026-04-27T10:02:59.878Z</time></trkpt><trkpt lat="46.12791650583161" lon="10.124261782382412"><ele>1072.0</ele><time>2026-04-27T10:03:00.878Z</time></trkpt><trkpt lat="46.127993179433304" lon="10.124266792829824"><ele>1072.0</ele><time>2026-04-27T10:03:01.878Z</time></trkpt><trkpt lat="46.12807944452732" lon="10.12427070946743"><ele>1072.0</ele><time>2026-04-27T10:03:02.878Z</time></trkpt><trkpt lat="46.12815713196736" lon="10.124303584439206"><ele>1072.0</ele><time>2026-04-27T10:03:03.878Z</time></trkpt><trkpt lat="46.12825014254024" lon="10.124372480753614"><ele>1072.0</ele><time>2026-04-27T10:03:04.878Z</time></trkpt><trkpt lat="46.128330220251826" lon="10.1244862605392"><ele>1071.8</ele><time>2026-04-27T10:03:05.878Z</time></trkpt><trkpt lat="46.12839845833936" lon="10.12459927004463"><ele>1071.6</ele><time>2026-04-27T10:03:06.878Z</time></trkpt><trkpt lat="46.12848191968762" lon="10.124704178594717"><ele>1071.3999999999999</ele><time>2026-04-27T10:03:07.878Z</time></trkpt><trkpt lat="46.1285494232318" lon="10.124793729617057"><ele>1071.2</ele><time>2026-04-27T10:03:08.878Z</time></trkpt><trkpt lat="46.12861427423182" lon="10.12486546671638"><ele>1071.0</ele><time>2026-04-27T10:03:09.878Z</time></trkpt><trkpt lat="46.12866740736642" lon="10.124935080333447"><ele>1069.2857142857142</ele><time>2026-04-27T10:03:10.878Z</time></trkpt><trkpt lat="46.12871873465552" lon="10.124998353914751"><ele>1067.5714285714284</ele><time>2026-04-27T10:03:11.878Z</time></trkpt><trkpt lat="46.1287831012009" lon="10.125045908615371"><ele>1065.857142857143</ele><time>2026-04-27T10:03:12.878Z</time></trkpt><trkpt lat="46.12884930403824" lon="10.125069920783222"><ele>1064.142857142857</ele><time>2026-04-27T10:03:13.878Z</time></trkpt><trkpt lat="46.128919833398534" lon="10.125076876598468"><ele>1062.4285714285713</ele><time>2026-04-27T10:03:14.878Z</time></trkpt><trkpt lat="46.12899432576515" lon="10.12506673358916"><ele>1060.7142857142858</ele><time>2026-04-27T10:03:15.878Z</time></trkpt><trkpt lat="46.12908451598952" lon="10.125057723913425"><ele>1059.0</ele><time>2026-04-27T10:03:16.878Z</time></trkpt><trkpt lat="46.12917908077663" lon="10.125050019700671"><ele>1059.0</ele><time>2026-04-27T10:03:17.878Z</time></trkpt><trkpt lat="46.129263300010365" lon="10.12506914469735"><ele>1059.0</ele><time>2026-04-27T10:03:18.878Z</time></trkpt><trkpt lat="46.129350270900225" lon="10.125112177446521"><ele>1059.0</ele><time>2026-04-27T10:03:19.878Z</time></trkpt><trkpt lat="46.12943828808157" lon="10.125169258819232"><ele>1059.0</ele><time>2026-04-27T10:03:20.878Z</time></trkpt><trkpt lat="46.12951882456391" lon="10.125226697435522"><ele>1059.0</ele><time>2026-04-27T10:03:21.878Z</time></trkpt><trkpt lat="46.12959502740533" lon="10.125253861232288"><ele>1059.0</ele><time>2026-04-27T10:03:22.878Z</time></trkpt><trkpt lat="46.129667201861494" lon="10.125272913344812"><ele>1059.0</ele><time>2026-04-27T10:03:23.878Z</time></trkpt><trkpt lat="46.12974594085089" lon="10.125259498385807"><ele>1059.0</ele><time>2026-04-27T10:03:24.878Z</time></trkpt><trkpt lat="46.129816350190815" lon="10.125258419491752"><ele>1059.0</ele><time>2026-04-27T10:03:25.878Z</time></trkpt><trkpt lat="46.129908980264865" lon="10.125229379030472"><ele>1059.0</ele><time>2026-04-27T10:03:26.878Z</time></trkpt><trkpt lat="46.13000613598054" lon="10.12520051222061"><ele>1059.0</ele><time>2026-04-27T10:03:27.878Z</time></trkpt><trkpt lat="46.13009651794845" lon="10.125162644401268"><ele>1059.0</ele><time>2026-04-27T10:03:28.878Z</time></trkpt><trkpt lat="46.130167588444735" lon="10.125154952350048"><ele>1059.2</ele><time>2026-04-27T10:03:29.878Z</time></trkpt><trkpt lat="46.13023294775129" lon="10.125167313997581"><ele>1059.4</ele><time>2026-04-27T10:03:30.878Z</time></trkpt><trkpt lat="46.130368692915035" lon="10.125197190034347"><ele>1059.6</ele><time>2026-04-27T10:03:32.878Z</time></trkpt><trkpt lat="46.13045458689426" lon="10.125247620093212"><ele>1059.8</ele><time>2026-04-27T10:03:33.878Z</time></trkpt><trkpt lat="46.13054264135774" lon="10.125294556228992"><ele>1060.0</ele><time>2026-04-27T10:03:34.878Z</time></trkpt><trkpt lat="46.130628796272376" lon="10.125334629048355"><ele>1060.0</ele><time>2026-04-27T10:03:35.878Z</time></trkpt><trkpt lat="46.130715196851966" lon="10.125353982313921"><ele>1060.0</ele><time>2026-04-27T10:03:36.878Z</time></trkpt><trkpt lat="46.13079915620574" lon="10.125361152235065"><ele>1060.0</ele><time>2026-04-27T10:03:37.878Z</time></trkpt><trkpt lat="46.130900251507576" lon="10.12536028977718"><ele>1060.0</ele><time>2026-04-27T10:03:38.878Z</time></trkpt><trkpt lat="46.13101220171499" lon="10.125342856291287"><ele>1060.0</ele><time>2026-04-27T10:03:39.878Z</time></trkpt><trkpt lat="46.13111999170621" lon="10.125307274967659"><ele>1058.0</ele><time>2026-04-27T10:03:40.878Z</time></trkpt><trkpt lat="46.13123372651469" lon="10.125279909784076"><ele>1056.0</ele><time>2026-04-27T10:03:41.878Z</time></trkpt><trkpt lat="46.131347284138094" lon="10.125259088163206"><ele>1054.0</ele><time>2026-04-27T10:03:42.878Z</time></trkpt><trkpt lat="46.13146336443896" lon="10.125240555106656"><ele>1052.0</ele><time>2026-04-27T10:03:43.878Z</time></trkpt><trkpt lat="46.13157575616687" lon="10.125215201820309"><ele>1050.0</ele><time>2026-04-27T10:03:44.878Z</time></trkpt><trkpt lat="46.131676435174434" lon="10.125198407515725"><ele>1048.0</ele><time>2026-04-27T10:03:45.878Z</time></trkpt><trkpt lat="46.13176333083399" lon="10.125173230381034"><ele>1046.0</ele><time>2026-04-27T10:03:46.878Z</time></trkpt><trkpt lat="46.13185289454925" lon="10.125164467934868"><ele>1044.0</ele><time>2026-04-27T10:03:47.878Z</time></trkpt><trkpt lat="46.13194501665839" lon="10.125171125235807"><ele>1042.0</ele><time>2026-04-27T10:03:48.878Z</time></trkpt><trkpt lat="46.132034630938875" lon="10.125185465642305"><ele>1042.0</ele><time>2026-04-27T10:03:49.878Z</time></trkpt><trkpt lat="46.13212754965371" lon="10.12522247932629"><ele>1042.0</ele><time>2026-04-27T10:03:50.878Z</time></trkpt><trkpt lat="46.132200536327545" lon="10.125241772108877"><ele>1042.0</ele><time>2026-04-27T10:03:51.878Z</time></trkpt><trkpt lat="46.13226832546566" lon="10.125265444073827"><ele>1042.0</ele><time>2026-04-27T10:03:52.878Z</time></trkpt><trkpt lat="46.132333389317516" lon="10.125275262899239"><ele>1042.0</ele><time>2026-04-27T10:03:53.878Z</time></trkpt><trkpt lat="46.13244333761365" lon="10.125189430453172"><ele>1042.0</ele><time>2026-04-27T10:03:55.878Z</time></trkpt><trkpt lat="46.132499414550836" lon="10.125109040585048"><ele>1040.4</ele><time>2026-04-27T10:03:56.878Z</time></trkpt><trkpt lat="46.132561435523186" lon="10.125075409740113"><ele>1038.8000000000002</ele><time>2026-04-27T10:03:57.878Z</time></trkpt><trkpt lat="46.13264883308724" lon="10.125064480625106"><ele>1037.2</ele><time>2026-04-27T10:03:58.878Z</time></trkpt><trkpt lat="46.13275212538749" lon="10.125063496174416"><ele>1035.6000000000001</ele><time>2026-04-27T10:03:59.878Z</time></trkpt><trkpt lat="46.13285710137124" lon="10.125050874973063"><ele>1034.0</ele><time>2026-04-27T10:04:00.878Z</time></trkpt><trkpt lat="46.13295846464464" lon="10.12502105783176"><ele>1034.0</ele><time>2026-04-27T10:04:01.878Z</time></trkpt><trkpt lat="46.13305344866008" lon="10.125000986443629"><ele>1034.0</ele><time>2026-04-27T10:04:02.878Z</time></trkpt><trkpt lat="46.13313576895751" lon="10.124976291757152"><ele>1034.0</ele><time>2026-04-27T10:04:03.878Z</time></trkpt><trkpt lat="46.133228624687575" lon="10.124935944290852"><ele>1034.0</ele><time>2026-04-27T10:04:04.878Z</time></trkpt><trkpt lat="46.133329224382585" lon="10.124894919147868"><ele>1034.0</ele><time>2026-04-27T10:04:05.878Z</time></trkpt><trkpt lat="46.13343367638556" lon="10.124845408264381"><ele>1036.2</ele><time>2026-04-27T10:04:06.878Z</time></trkpt><trkpt lat="46.133553302366046" lon="10.124805017952058"><ele>1038.4</ele><time>2026-04-27T10:04:07.878Z</time></trkpt><trkpt lat="46.133660717646876" lon="10.124774960566556"><ele>1040.6</ele><time>2026-04-27T10:04:08.878Z</time></trkpt><trkpt lat="46.133764829389854" lon="10.124744721392835"><ele>1042.8</ele><time>2026-04-27T10:04:09.878Z</time></trkpt><trkpt lat="46.133864049730725" lon="10.124717571968585"><ele>1045.0</ele><time>2026-04-27T10:04:10.878Z</time></trkpt><trkpt lat="46.13396612934109" lon="10.124697480236453"><ele>1040.6</ele><time>2026-04-27T10:04:11.878Z</time></trkpt><trkpt lat="46.13406836672592" lon="10.124684407786518"><ele>1036.2</ele><time>2026-04-27T10:04:12.878Z</time></trkpt><trkpt lat="46.13416876839211" lon="10.124670332877443"><ele>1031.8</ele><time>2026-04-27T10:04:13.878Z</time></trkpt><trkpt lat="46.13427844135556" lon="10.12467132206038"><ele>1027.4</ele><time>2026-04-27T10:04:14.878Z</time></trkpt><trkpt lat="46.134387638225505" lon="10.124665425640977"><ele>1023.0</ele><time>2026-04-27T10:04:15.878Z</time></trkpt><trkpt lat="46.13448411638233" lon="10.124660430361281"><ele>1023.0</ele><time>2026-04-27T10:04:16.878Z</time></trkpt><trkpt lat="46.13458803437122" lon="10.124648590302312"><ele>1023.0</ele><time>2026-04-27T10:04:17.878Z</time></trkpt><trkpt lat="46.13466920292448" lon="10.124618752447558"><ele>1023.0</ele><time>2026-04-27T10:04:18.878Z</time></trkpt><trkpt lat="46.13475291346625" lon="10.12456704690867"><ele>1023.0</ele><time>2026-04-27T10:04:19.878Z</time></trkpt><trkpt lat="46.13481355043161" lon="10.124483797824503"><ele>1023.0</ele><time>2026-04-27T10:04:20.878Z</time></trkpt><trkpt lat="46.13487763995286" lon="10.124466994985761"><ele>1023.0</ele><time>2026-04-27T10:04:21.877Z</time></trkpt><trkpt lat="46.13494672807762" lon="10.124463063213527"><ele>1020.8333333333334</ele><time>2026-04-27T10:04:22.877Z</time></trkpt><trkpt lat="46.13502669603002" lon="10.124476204970064"><ele>1018.6666666666667</ele><time>2026-04-27T10:04:23.877Z</time></trkpt><trkpt lat="46.13511409709179" lon="10.124513062781253"><ele>1016.5</ele><time>2026-04-27T10:04:24.877Z</time></trkpt><trkpt lat="46.135197983396324" lon="10.124535602988667"><ele>1014.3333333333334</ele><time>2026-04-27T10:04:25.877Z</time></trkpt><trkpt lat="46.1352929883974" lon="10.1245720223396"><ele>1012.1666666666667</ele><time>2026-04-27T10:04:26.877Z</time></trkpt><trkpt lat="46.13538107939161" lon="10.124594580565375"><ele>1010.0</ele><time>2026-04-27T10:04:27.877Z</time></trkpt><trkpt lat="46.13548123495573" lon="10.12460491565388"><ele>1010.0</ele><time>2026-04-27T10:04:28.877Z</time></trkpt><trkpt lat="46.135581216175105" lon="10.124621242606043"><ele>1010.0</ele><time>2026-04-27T10:04:29.877Z</time></trkpt><trkpt lat="46.13568284883745" lon="10.124618636265035"><ele>1010.0</ele><time>2026-04-27T10:04:30.877Z</time></trkpt><trkpt lat="46.13579060627085" lon="10.124609455484745"><ele>1010.0</ele><time>2026-04-27T10:04:31.878Z</time></trkpt><trkpt lat="46.13590816331423" lon="10.124583635593241"><ele>1010.0</ele><time>2026-04-27T10:04:32.877Z</time></trkpt><trkpt lat="46.13602879210794" lon="10.124575306263168"><ele>1007.6</ele><time>2026-04-27T10:04:33.877Z</time></trkpt><trkpt lat="46.13614047221048" lon="10.124545663919108"><ele>1005.2</ele><time>2026-04-27T10:04:34.878Z</time></trkpt><trkpt lat="46.136242258686686" lon="10.12451912078969"><ele>1002.8</ele><time>2026-04-27T10:04:35.878Z</time></trkpt><trkpt lat="46.1363454870179" lon="10.124478974877153"><ele>1000.4</ele><time>2026-04-27T10:04:36.878Z</time></trkpt><trkpt lat="46.136449593045896" lon="10.124437733078608"><ele>998.0</ele><time>2026-04-27T10:04:37.878Z</time></trkpt><trkpt lat="46.13655284498644" lon="10.12440809409043"><ele>997.5</ele><time>2026-04-27T10:04:38.877Z</time></trkpt><trkpt lat="46.13667758816854" lon="10.124385745459405"><ele>997.0</ele><time>2026-04-27T10:04:39.877Z</time></trkpt><trkpt lat="46.13681127418362" lon="10.124359405320183"><ele>996.5</ele><time>2026-04-27T10:04:40.878Z</time></trkpt><trkpt lat="46.13693898398863" lon="10.124344422088765"><ele>996.0</ele><time>2026-04-27T10:04:41.877Z</time></trkpt><trkpt lat="46.13705351199798" lon="10.1243459780251"><ele>996.0</ele><time>2026-04-27T10:04:42.877Z</time></trkpt><trkpt lat="46.137177784763395" lon="10.124336942737694"><ele>996.0</ele><time>2026-04-27T10:04:43.877Z</time></trkpt><trkpt lat="46.13729668705102" lon="10.124358035470165"><ele>996.0</ele><time>2026-04-27T10:04:44.878Z</time></trkpt><trkpt lat="46.13740224279682" lon="10.124371584529642"><ele>996.0</ele><time>2026-04-27T10:04:45.878Z</time></trkpt><trkpt lat="46.137513188089216" lon="10.124359301701858"><ele>993.25</ele><time>2026-04-27T10:04:46.878Z</time></trkpt><trkpt lat="46.137633254919976" lon="10.124325026085632"><ele>990.5</ele><time>2026-04-27T10:04:47.878Z</time></trkpt><trkpt lat="46.137755013620335" lon="10.124302150097705"><ele>987.75</ele><time>2026-04-27T10:04:48.878Z</time></trkpt><trkpt lat="46.13787512868833" lon="10.124273193700116"><ele>985.0</ele><time>2026-04-27T10:04:49.878Z</time></trkpt><trkpt lat="46.13799134228484" lon="10.124246458173912"><ele>985.0</ele><time>2026-04-27T10:04:50.878Z</time></trkpt><trkpt lat="46.138133194842176" lon="10.124234320640692"><ele>985.0</ele><time>2026-04-27T10:04:51.878Z</time></trkpt><trkpt lat="46.13824506369033" lon="10.124227410063169"><ele>985.0</ele><time>2026-04-27T10:04:52.878Z</time></trkpt><trkpt lat="46.13837898895299" lon="10.124190398868086"><ele>985.0</ele><time>2026-04-27T10:04:53.878Z</time></trkpt><trkpt lat="46.138493154554276" lon="10.124168573417602"><ele>981.8333333333333</ele><time>2026-04-27T10:04:54.878Z</time></trkpt><trkpt lat="46.138582053690804" lon="10.124193225464202"><ele>978.6666666666666</ele><time>2026-04-27T10:04:55.878Z</time></trkpt><trkpt lat="46.138670337601305" lon="10.12422917356743"><ele>975.5</ele><time>2026-04-27T10:04:56.878Z</time></trkpt><trkpt lat="46.13874439627583" lon="10.124269384246572"><ele>972.3333333333333</ele><time>2026-04-27T10:04:57.878Z</time></trkpt><trkpt lat="46.1388219749062" lon="10.124281937489759"><ele>969.1666666666666</ele><time>2026-04-27T10:04:58.878Z</time></trkpt><trkpt lat="46.13888987518256" lon="10.124300378844124"><ele>966.0</ele><time>2026-04-27T10:04:59.878Z</time></trkpt><trkpt lat="46.1390130319044" lon="10.124329356687896"><ele>964.0</ele><time>2026-04-27T10:05:01.878Z</time></trkpt><trkpt lat="46.139084211374026" lon="10.124299035988573"><ele>962.0</ele><time>2026-04-27T10:05:02.878Z</time></trkpt><trkpt lat="46.13915315787523" lon="10.124242893470669"><ele>960.0</ele><time>2026-04-27T10:05:03.878Z</time></trkpt><trkpt lat="46.13921653372101" lon="10.124216939240887"><ele>958.0</ele><time>2026-04-27T10:05:04.878Z</time></trkpt><trkpt lat="46.13928415413566" lon="10.124216229861446"><ele>956.0</ele><time>2026-04-27T10:05:05.878Z</time></trkpt><trkpt lat="46.13935914161771" lon="10.12422871985317"><ele>954.0</ele><time>2026-04-27T10:05:06.877Z</time></trkpt><trkpt lat="46.13944758524088" lon="10.12422201315497"><ele>954.0</ele><time>2026-04-27T10:05:07.877Z</time></trkpt><trkpt lat="46.13952505032463" lon="10.124204222346783"><ele>954.0</ele><time>2026-04-27T10:05:08.877Z</time></trkpt><trkpt lat="46.13960002873856" lon="10.124139209470156"><ele>954.0</ele><time>2026-04-27T10:05:09.877Z</time></trkpt><trkpt lat="46.139677013548514" lon="10.124083589478733"><ele>954.0</ele><time>2026-04-27T10:05:10.877Z</time></trkpt><trkpt lat="46.139734076561716" lon="10.124020590376475"><ele>954.0</ele><time>2026-04-27T10:05:11.877Z</time></trkpt><trkpt lat="46.13982667346798" lon="10.123925748638705"><ele>954.0</ele><time>2026-04-27T10:05:13.742Z</time></trkpt><trkpt lat="46.13989074221897" lon="10.123857611747033"><ele>954.0</ele><time>2026-04-27T10:05:15.742Z</time></trkpt><trkpt lat="46.13993648499311" lon="10.12392566542463"><ele>954.0</ele><time>2026-04-27T10:05:17.742Z</time></trkpt><trkpt lat="46.1398721470973" lon="10.12403200038738"><ele>954.0</ele><time>2026-04-27T10:05:19.742Z</time></trkpt><trkpt lat="46.13979249424248" lon="10.124058479615051"><ele>954.0</ele><time>2026-04-27T10:05:20.742Z</time></trkpt><trkpt lat="46.139733115490074" lon="10.124112837359664"><ele>954.0</ele><time>2026-04-27T10:05:21.742Z</time></trkpt><trkpt lat="46.13968463380802" lon="10.124176670315927"><ele>954.0</ele><time>2026-04-27T10:05:22.742Z</time></trkpt><trkpt lat="46.139642178906065" lon="10.12426316463121"><ele>954.0</ele><time>2026-04-27T10:05:23.742Z</time></trkpt><trkpt lat="46.139576788173905" lon="10.124374908005986"><ele>954.0</ele><time>2026-04-27T10:05:25.742Z</time></trkpt><trkpt lat="46.13949716115375" lon="10.124400641835361"><ele>954.0</ele><time>2026-04-27T10:05:27.742Z</time></trkpt><trkpt lat="46.13940698786544" lon="10.12438958686407"><ele>954.0</ele><time>2026-04-27T10:05:29.742Z</time></trkpt><trkpt lat="46.13932988128921" lon="10.124415734344671"><ele>954.0</ele><time>2026-04-27T10:05:31.742Z</time></trkpt><trkpt lat="46.1392669617309" lon="10.124494712115254"><ele>954.0</ele><time>2026-04-27T10:05:33.742Z</time></trkpt><trkpt lat="46.139225756368454" lon="10.124612782848907"><ele>954.0</ele><time>2026-04-27T10:05:35.742Z</time></trkpt><trkpt lat="46.13924202533873" lon="10.12474751542197"><ele>954.0</ele><time>2026-04-27T10:05:37.742Z</time></trkpt><trkpt lat="46.13928384822398" lon="10.124839793407943"><ele>954.0</ele><time>2026-04-27T10:05:38.742Z</time></trkpt><trkpt lat="46.139337743222676" lon="10.124939388625362"><ele>954.0</ele><time>2026-04-27T10:05:39.742Z</time></trkpt><trkpt lat="46.13938550563665" lon="10.125033919603824"><ele>954.0</ele><time>2026-04-27T10:05:40.742Z</time></trkpt><trkpt lat="46.13942950033726" lon="10.125111728812438"><ele>954.0</ele><time>2026-04-27T10:05:41.742Z</time></trkpt><trkpt lat="46.13956614877567" lon="10.125166620058032"><ele>950.5</ele><time>2026-04-27T10:05:43.742Z</time></trkpt><trkpt lat="46.13967322963641" lon="10.125173990509161"><ele>947.0</ele><time>2026-04-27T10:05:44.742Z</time></trkpt><trkpt lat="46.139803770224255" lon="10.125177627767599"><ele>943.5</ele><time>2026-04-27T10:05:45.742Z</time></trkpt><trkpt lat="46.13992962945475" lon="10.125175939521272"><ele>940.0</ele><time>2026-04-27T10:05:46.742Z</time></trkpt><trkpt lat="46.14005622192714" lon="10.125174487256137"><ele>938.8</ele><time>2026-04-27T10:05:47.742Z</time></trkpt><trkpt lat="46.140164786292" lon="10.125182062848356"><ele>937.6</ele><time>2026-04-27T10:05:48.742Z</time></trkpt><trkpt lat="46.14026586908053" lon="10.125189711296496"><ele>936.4000000000001</ele><time>2026-04-27T10:05:49.742Z</time></trkpt><trkpt lat="46.140377975868475" lon="10.125207951745553"><ele>935.2</ele><time>2026-04-27T10:05:50.742Z</time></trkpt><trkpt lat="46.14048107714623" lon="10.125206793078261"><ele>934.0</ele><time>2026-04-27T10:05:51.742Z</time></trkpt><trkpt lat="46.14058323550935" lon="10.125195224084235"><ele>934.0</ele><time>2026-04-27T10:05:52.742Z</time></trkpt><trkpt lat="46.140683528498144" lon="10.125141739080021"><ele>934.0000000000001</ele><time>2026-04-27T10:05:53.742Z</time></trkpt><trkpt lat="46.14078553659097" lon="10.12507264596601"><ele>934.0000000000001</ele><time>2026-04-27T10:05:54.742Z</time></trkpt><trkpt lat="46.14088690894013" lon="10.125010602597925"><ele>934.0</ele><time>2026-04-27T10:05:55.742Z</time></trkpt><trkpt lat="46.140998064098255" lon="10.124964081732806"><ele>934.0</ele><time>2026-04-27T10:05:56.742Z</time></trkpt><trkpt lat="46.141098052312344" lon="10.124919465053418"><ele>928.8000000000001</ele><time>2026-04-27T10:05:57.742Z</time></trkpt><trkpt lat="46.141197580226354" lon="10.12486950276698"><ele>923.6000000000001</ele><time>2026-04-27T10:05:58.742Z</time></trkpt><trkpt lat="46.14129157992319" lon="10.124820552280132"><ele>918.4</ele><time>2026-04-27T10:05:59.742Z</time></trkpt><trkpt lat="46.14137267263661" lon="10.124755404763183"><ele>913.2</ele><time>2026-04-27T10:06:00.742Z</time></trkpt><trkpt lat="46.141450913858" lon="10.124701901827542"><ele>908.0</ele><time>2026-04-27T10:06:01.742Z</time></trkpt><trkpt lat="46.141539326609646" lon="10.124647441935338"><ele>910.4</ele><time>2026-04-27T10:06:02.742Z</time></trkpt><trkpt lat="46.14162891539343" lon="10.124573584203738"><ele>912.8</ele><time>2026-04-27T10:06:03.742Z</time></trkpt><trkpt lat="46.14171671409839" lon="10.124495948565261"><ele>915.2</ele><time>2026-04-27T10:06:04.742Z</time></trkpt><trkpt lat="46.141780030963695" lon="10.124364261988088"><ele>917.6</ele><time>2026-04-27T10:06:05.742Z</time></trkpt><trkpt lat="46.14185466614713" lon="10.12424851940454"><ele>920.0</ele><time>2026-04-27T10:06:06.741Z</time></trkpt><trkpt lat="46.141923638470324" lon="10.124143185604256"><ele>916.3333333333334</ele><time>2026-04-27T10:06:07.741Z</time></trkpt><trkpt lat="46.14199427185267" lon="10.124062587117578"><ele>912.6666666666667</ele><time>2026-04-27T10:06:08.741Z</time></trkpt><trkpt lat="46.14205378710876" lon="10.123983683072103"><ele>909.0</ele><time>2026-04-27T10:06:09.741Z</time></trkpt><trkpt lat="46.1421206617184" lon="10.12393435099409"><ele>905.3333333333333</ele><time>2026-04-27T10:06:10.741Z</time></trkpt><trkpt lat="46.14220409196592" lon="10.123892839366338"><ele>901.6666666666666</ele><time>2026-04-27T10:06:11.741Z</time></trkpt><trkpt lat="46.14229580583615" lon="10.123853066239976"><ele>898.0</ele><time>2026-04-27T10:06:12.741Z</time></trkpt><trkpt lat="46.142380261956625" lon="10.1238167104673"><ele>899.9999999999999</ele><time>2026-04-27T10:06:13.741Z</time></trkpt><trkpt lat="46.14244942258998" lon="10.123780465585329"><ele>902.0</ele><time>2026-04-27T10:06:14.741Z</time></trkpt><trkpt lat="46.14252198500884" lon="10.123770701078193"><ele>904.0</ele><time>2026-04-27T10:06:15.741Z</time></trkpt><trkpt lat="46.142587445320736" lon="10.123752296757479"><ele>906.0</ele><time>2026-04-27T10:06:16.741Z</time></trkpt><trkpt lat="46.14267219843374" lon="10.123789906813265"><ele>907.9999999999999</ele><time>2026-04-27T10:06:17.741Z</time></trkpt><trkpt lat="46.14276941846339" lon="10.123817146104699"><ele>910.0</ele><time>2026-04-27T10:06:18.741Z</time></trkpt><trkpt lat="46.14286903759086" lon="10.123829191465584"><ele>910.0</ele><time>2026-04-27T10:06:19.741Z</time></trkpt><trkpt lat="46.1429780015963" lon="10.123847202360698"><ele>910.0</ele><time>2026-04-27T10:06:20.741Z</time></trkpt><trkpt lat="46.14308680576807" lon="10.123856874430416"><ele>910.0</ele><time>2026-04-27T10:06:21.741Z</time></trkpt><trkpt lat="46.14318548861801" lon="10.123849114844111"><ele>910.0</ele><time>2026-04-27T10:06:22.741Z</time></trkpt><trkpt lat="46.14328419100839" lon="10.123837843963882"><ele>910.0</ele><time>2026-04-27T10:06:23.741Z</time></trkpt><trkpt lat="46.14338316864057" lon="10.12380576414924"><ele>912.0</ele><time>2026-04-27T10:06:24.741Z</time></trkpt><trkpt lat="46.143486189044616" lon="10.123801651707463"><ele>914.0</ele><time>2026-04-27T10:06:25.741Z</time></trkpt><trkpt lat="46.143583450420266" lon="10.123765131672961"><ele>916.0</ele><time>2026-04-27T10:06:26.741Z</time></trkpt><trkpt lat="46.14368077288242" lon="10.123735129657867"><ele>918.0</ele><time>2026-04-27T10:06:27.741Z</time></trkpt><trkpt lat="46.14378338579503" lon="10.123694601915176"><ele>920.0</ele><time>2026-04-27T10:06:28.741Z</time></trkpt><trkpt lat="46.14385391361457" lon="10.12361443137327"><ele>919.9999999999999</ele><time>2026-04-27T10:06:29.741Z</time></trkpt><trkpt lat="46.1439030321415" lon="10.123553974876486"><ele>920.0</ele><time>2026-04-27T10:06:30.741Z</time></trkpt><trkpt lat="46.143953517907185" lon="10.123496040837939"><ele>919.9999999999999</ele><time>2026-04-27T10:06:31.741Z</time></trkpt><trkpt lat="46.14401230158626" lon="10.123436925261167"><ele>919.9999999999999</ele><time>2026-04-27T10:06:32.741Z</time></trkpt><trkpt lat="46.14409071060886" lon="10.12339428560955"><ele>920.0</ele><time>2026-04-27T10:06:33.741Z</time></trkpt><trkpt lat="46.14417177238282" lon="10.123401048100757"><ele>919.9999999999999</ele><time>2026-04-27T10:06:34.741Z</time></trkpt><trkpt lat="46.14425010979288" lon="10.123418466510186"><ele>919.9999999999999</ele><time>2026-04-27T10:06:35.741Z</time></trkpt><trkpt lat="46.14432662357484" lon="10.123442301305086"><ele>922.6666666666667</ele><time>2026-04-27T10:06:36.74Z</time></trkpt><trkpt lat="46.144407868479746" lon="10.123455571429725"><ele>925.3333333333334</ele><time>2026-04-27T10:06:37.741Z</time></trkpt><trkpt lat="46.14449499508564" lon="10.123481393752527"><ele>928.0</ele><time>2026-04-27T10:06:38.741Z</time></trkpt><trkpt lat="46.14459024311392" lon="10.123475262244922"><ele>930.6666666666667</ele><time>2026-04-27T10:06:39.741Z</time></trkpt><trkpt lat="46.144677912521495" lon="10.1234255169535"><ele>933.3333333333334</ele><time>2026-04-27T10:06:40.741Z</time></trkpt><trkpt lat="46.144753381394025" lon="10.123383811059929"><ele>936.0</ele><time>2026-04-27T10:06:41.741Z</time></trkpt><trkpt lat="46.14483509524755" lon="10.123337096418508"><ele>936.0</ele><time>2026-04-27T10:06:42.741Z</time></trkpt><trkpt lat="46.14493735010519" lon="10.123316515762369"><ele>935.9999999999999</ele><time>2026-04-27T10:06:43.74Z</time></trkpt><trkpt lat="46.145053703758975" lon="10.123298851619063"><ele>935.9999999999999</ele><time>2026-04-27T10:06:44.74Z</time></trkpt><trkpt lat="46.14516024943432" lon="10.123315944913632"><ele>936.0</ele><time>2026-04-27T10:06:45.74Z</time></trkpt><trkpt lat="46.14527597556648" lon="10.123352516009028"><ele>936.0</ele><time>2026-04-27T10:06:46.74Z</time></trkpt><trkpt lat="46.1453793560079" lon="10.123370107543236"><ele>936.0</ele><time>2026-04-27T10:06:47.74Z</time></trkpt><trkpt lat="46.14545087234186" lon="10.123385558008716"><ele>936.0</ele><time>2026-04-27T10:06:48.74Z</time></trkpt><trkpt lat="46.14553457067023" lon="10.123425126112606"><ele>936.0</ele><time>2026-04-27T10:06:49.74Z</time></trkpt><trkpt lat="46.14560927831928" lon="10.123495376755066"><ele>936.0</ele><time>2026-04-27T10:06:50.74Z</time></trkpt><trkpt lat="46.14567904536064" lon="10.123569768697353"><ele>936.0</ele><time>2026-04-27T10:06:51.74Z</time></trkpt><trkpt lat="46.145741957503596" lon="10.123641147617198"><ele>936.0</ele><time>2026-04-27T10:06:52.74Z</time></trkpt><trkpt lat="46.14581882556512" lon="10.123685961069594"><ele>936.5999999999999</ele><time>2026-04-27T10:06:53.74Z</time></trkpt><trkpt lat="46.145915658955644" lon="10.123700979163607"><ele>937.1999999999999</ele><time>2026-04-27T10:06:54.74Z</time></trkpt><trkpt lat="46.14603449088614" lon="10.123691517186197"><ele>937.8000000000001</ele><time>2026-04-27T10:06:55.74Z</time></trkpt><trkpt lat="46.14614749639928" lon="10.123698564849258"><ele>938.4000000000001</ele><time>2026-04-27T10:06:56.74Z</time></trkpt><trkpt lat="46.14626130873269" lon="10.123693007050026"><ele>939.0</ele><time>2026-04-27T10:06:57.74Z</time></trkpt><trkpt lat="46.1463504804624" lon="10.12369001749885"><ele>939.0</ele><time>2026-04-27T10:06:58.74Z</time></trkpt><trkpt lat="46.14642621612901" lon="10.12369076974802"><ele>939.0000000000001</ele><time>2026-04-27T10:06:59.74Z</time></trkpt><trkpt lat="46.146544944733684" lon="10.123632094803776"><ele>939.0000000000001</ele><time>2026-04-27T10:07:01.74Z</time></trkpt><trkpt lat="46.14660961965533" lon="10.123560970783943"><ele>939.0</ele><time>2026-04-27T10:07:02.74Z</time></trkpt><trkpt lat="46.14666534989765" lon="10.123478342119116"><ele>939.0</ele><time>2026-04-27T10:07:03.74Z</time></trkpt><trkpt lat="46.14673146421643" lon="10.123377491610954"><ele>942.75</ele><time>2026-04-27T10:07:04.74Z</time></trkpt><trkpt lat="46.146813191424194" lon="10.12329125729541"><ele>946.5</ele><time>2026-04-27T10:07:05.74Z</time></trkpt><trkpt lat="46.14690510538582" lon="10.123209386249796"><ele>950.25</ele><time>2026-04-27T10:07:06.74Z</time></trkpt><trkpt lat="46.14698886580202" lon="10.123083993707507"><ele>954.0</ele><time>2026-04-27T10:07:07.74Z</time></trkpt><trkpt lat="46.1470819880704" lon="10.122973509092805"><ele>951.8000000000001</ele><time>2026-04-27T10:07:08.74Z</time></trkpt><trkpt lat="46.14718298089552" lon="10.122888501975998"><ele>949.6000000000001</ele><time>2026-04-27T10:07:09.74Z</time></trkpt><trkpt lat="46.14728531248902" lon="10.12280655069059"><ele>947.4</ele><time>2026-04-27T10:07:10.74Z</time></trkpt><trkpt lat="46.14736676768126" lon="10.122738162811237"><ele>945.2</ele><time>2026-04-27T10:07:11.74Z</time></trkpt><trkpt lat="46.14743566087413" lon="10.122690935873388"><ele>943.0</ele><time>2026-04-27T10:07:12.74Z</time></trkpt><trkpt lat="46.14752099769031" lon="10.12268318309038"><ele>942.9999999999999</ele><time>2026-04-27T10:07:13.739Z</time></trkpt><trkpt lat="46.14759828212807" lon="10.122669907873307"><ele>943.0</ele><time>2026-04-27T10:07:14.739Z</time></trkpt><trkpt lat="46.14768139329746" lon="10.122715763309877"><ele>943.0</ele><time>2026-04-27T10:07:15.739Z</time></trkpt><trkpt lat="46.14775872394895" lon="10.122785518448838"><ele>943.0</ele><time>2026-04-27T10:07:16.739Z</time></trkpt><trkpt lat="46.14783222372697" lon="10.122879818044389"><ele>942.9999999999999</ele><time>2026-04-27T10:07:17.739Z</time></trkpt><trkpt lat="46.147889102818816" lon="10.122954882132937"><ele>943.0</ele><time>2026-04-27T10:07:18.739Z</time></trkpt><trkpt lat="46.1479285272125" lon="10.123056303226647"><ele>943.0</ele><time>2026-04-27T10:07:19.739Z</time></trkpt><trkpt lat="46.14796805249523" lon="10.123202381568598"><ele>943.0</ele><time>2026-04-27T10:07:20.739Z</time></trkpt><trkpt lat="46.14801492976263" lon="10.12337067813036"><ele>943.0</ele><time>2026-04-27T10:07:21.739Z</time></trkpt><trkpt lat="46.1480757053632" lon="10.123535196981802"><ele>943.0</ele><time>2026-04-27T10:07:22.739Z</time></trkpt><trkpt lat="46.148134304368064" lon="10.123716732449092"><ele>949.25</ele><time>2026-04-27T10:07:23.739Z</time></trkpt><trkpt lat="46.14820754706835" lon="10.123889625841446"><ele>955.5</ele><time>2026-04-27T10:07:24.739Z</time></trkpt><trkpt lat="46.1482779631161" lon="10.124033169401267"><ele>961.75</ele><time>2026-04-27T10:07:25.739Z</time></trkpt><trkpt lat="46.14835406505617" lon="10.124160651247177"><ele>968.0</ele><time>2026-04-27T10:07:26.739Z</time></trkpt><trkpt lat="46.14842323385708" lon="10.124299612709216"><ele>972.25</ele><time>2026-04-27T10:07:27.739Z</time></trkpt><trkpt lat="46.14849008386743" lon="10.124441773534022"><ele>976.5</ele><time>2026-04-27T10:07:28.739Z</time></trkpt><trkpt lat="46.148544499326405" lon="10.124592644701158"><ele>980.75</ele><time>2026-04-27T10:07:29.739Z</time></trkpt><trkpt lat="46.148603632900134" lon="10.124746461524662"><ele>985.0</ele><time>2026-04-27T10:07:30.739Z</time></trkpt><trkpt lat="46.148656095384375" lon="10.124903841115508"><ele>990.5</ele><time>2026-04-27T10:07:31.739Z</time></trkpt><trkpt lat="46.148710968127126" lon="10.125045920476161"><ele>996.0</ele><time>2026-04-27T10:07:32.739Z</time></trkpt><trkpt lat="46.148770933023165" lon="10.125197251034741"><ele>1001.5</ele><time>2026-04-27T10:07:33.739Z</time></trkpt><trkpt lat="46.14883398585126" lon="10.125339323481438"><ele>1007.0</ele><time>2026-04-27T10:07:34.739Z</time></trkpt><trkpt lat="46.14890642166559" lon="10.125480626159275"><ele>1007.0</ele><time>2026-04-27T10:07:35.739Z</time></trkpt><trkpt lat="46.148975397890794" lon="10.125609824312026"><ele>1007.0</ele><time>2026-04-27T10:07:36.739Z</time></trkpt><trkpt lat="46.1490391469586" lon="10.125738825772917"><ele>1007.0</ele><time>2026-04-27T10:07:37.739Z</time></trkpt><trkpt lat="46.14908647992415" lon="10.125872803578163"><ele>1007.0</ele><time>2026-04-27T10:07:38.739Z</time></trkpt><trkpt lat="46.14911102532118" lon="10.126013066594199"><ele>1007.0</ele><time>2026-04-27T10:07:39.739Z</time></trkpt><trkpt lat="46.1491489932515" lon="10.126137144241117"><ele>1006.1428571428571</ele><time>2026-04-27T10:07:40.739Z</time></trkpt><trkpt lat="46.14917847375134" lon="10.126257249060911"><ele>1005.2857142857143</ele><time>2026-04-27T10:07:41.739Z</time></trkpt><trkpt lat="46.14919872931078" lon="10.12635927347787"><ele>1004.4285714285714</ele><time>2026-04-27T10:07:42.739Z</time></trkpt><trkpt lat="46.14924777592183" lon="10.12644024383987"><ele>1003.5714285714286</ele><time>2026-04-27T10:07:43.738Z</time></trkpt><trkpt lat="46.14930296725825" lon="10.126504616757156"><ele>1002.7142857142858</ele><time>2026-04-27T10:07:44.738Z</time></trkpt><trkpt lat="46.14937016582797" lon="10.12652919233931"><ele>1001.8571428571429</ele><time>2026-04-27T10:07:45.738Z</time></trkpt><trkpt lat="46.149441722618256" lon="10.12653120568695"><ele>1001.0</ele><time>2026-04-27T10:07:46.738Z</time></trkpt><trkpt lat="46.1495784085515" lon="10.126465925675747"><ele>1001.0000000000001</ele><time>2026-04-27T10:07:48.738Z</time></trkpt><trkpt lat="46.1496360083658" lon="10.126422806484552"><ele>1001.0</ele><time>2026-04-27T10:07:49.738Z</time></trkpt><trkpt lat="46.14970894276081" lon="10.126358725887222"><ele>1001.0</ele><time>2026-04-27T10:07:50.738Z</time></trkpt><trkpt lat="46.14973078447456" lon="10.126245707029662"><ele>1001.0</ele><time>2026-04-27T10:07:51.738Z</time></trkpt><trkpt lat="46.14975152284002" lon="10.126115911534091"><ele>1001.0000000000001</ele><time>2026-04-27T10:07:52.738Z</time></trkpt><trkpt lat="46.14977125958835" lon="10.125983566391154"><ele>1001.0</ele><time>2026-04-27T10:07:53.738Z</time></trkpt><trkpt lat="46.14980297212601" lon="10.125844121212001"><ele>1002.5</ele><time>2026-04-27T10:07:54.738Z</time></trkpt><trkpt lat="46.14983956924693" lon="10.12570215229256"><ele>1004.0</ele><time>2026-04-27T10:07:55.738Z</time></trkpt><trkpt lat="46.14987724005025" lon="10.125547621586303"><ele>1005.5</ele><time>2026-04-27T10:07:56.738Z</time></trkpt><trkpt lat="46.149915329163626" lon="10.12537611745301"><ele>1007.0</ele><time>2026-04-27T10:07:57.738Z</time></trkpt><trkpt lat="46.14996543718056" lon="10.12519574104836"><ele>1007.0</ele><time>2026-04-27T10:07:58.738Z</time></trkpt><trkpt lat="46.15003142596857" lon="10.125042511928813"><ele>1007.0</ele><time>2026-04-27T10:07:59.738Z</time></trkpt><trkpt lat="46.15009998920403" lon="10.12489111078307"><ele>1007.0</ele><time>2026-04-27T10:08:00.738Z</time></trkpt><trkpt lat="46.15018282672387" lon="10.124754473713468"><ele>1007.0</ele><time>2026-04-27T10:08:01.738Z</time></trkpt><trkpt lat="46.15025513749132" lon="10.124615558029593"><ele>1003.75</ele><time>2026-04-27T10:08:02.738Z</time></trkpt><trkpt lat="46.1503142018644" lon="10.12445427195067"><ele>1000.5</ele><time>2026-04-27T10:08:03.738Z</time></trkpt><trkpt lat="46.150358723908845" lon="10.124283247449123"><ele>997.25</ele><time>2026-04-27T10:08:04.738Z</time></trkpt><trkpt lat="46.15040840388789" lon="10.12412300347276"><ele>994.0</ele><time>2026-04-27T10:08:05.738Z</time></trkpt><trkpt lat="46.15044689906336" lon="10.123957966906254"><ele>989.2</ele><time>2026-04-27T10:08:06.738Z</time></trkpt><trkpt lat="46.15046320384848" lon="10.12380334569514"><ele>984.4000000000001</ele><time>2026-04-27T10:08:07.738Z</time></trkpt><trkpt lat="46.15047551046236" lon="10.12365934685066"><ele>979.6</ele><time>2026-04-27T10:08:08.738Z</time></trkpt><trkpt lat="46.150467287732425" lon="10.1235391621436"><ele>974.8</ele><time>2026-04-27T10:08:09.738Z</time></trkpt><trkpt lat="46.15045850891592" lon="10.123379823607243"><ele>970.0</ele><time>2026-04-27T10:08:11.738Z</time></trkpt><trkpt lat="46.150467586286815" lon="10.123284875546618"><ele>970.0</ele><time>2026-04-27T10:08:13.737Z</time></trkpt><trkpt lat="46.15052436287209" lon="10.123217040978666"><ele>970.0</ele><time>2026-04-27T10:08:19.737Z</time></trkpt><trkpt lat="46.150569226381585" lon="10.123294099769211"><ele>970.0</ele><time>2026-04-27T10:08:22.737Z</time></trkpt><trkpt lat="46.15054997062887" lon="10.123544777756036"><ele>970.0</ele><time>2026-04-27T10:08:24.737Z</time></trkpt><trkpt lat="46.15055008292664" lon="10.123712668316688"><ele>970.0</ele><time>2026-04-27T10:08:25.737Z</time></trkpt><trkpt lat="46.1505678641019" lon="10.123880150699351"><ele>976.0</ele><time>2026-04-27T10:08:26.737Z</time></trkpt><trkpt lat="46.15057542716431" lon="10.124066090150984"><ele>982.0</ele><time>2026-04-27T10:08:27.737Z</time></trkpt><trkpt lat="46.15057962889715" lon="10.124268070624268"><ele>988.0</ele><time>2026-04-27T10:08:28.737Z</time></trkpt><trkpt lat="46.15055528994546" lon="10.124475971126332"><ele>994.0</ele><time>2026-04-27T10:08:29.737Z</time></trkpt><trkpt lat="46.150511573801815" lon="10.124707165656476"><ele>998.3333333333333</ele><time>2026-04-27T10:08:30.737Z</time></trkpt><trkpt lat="46.15045729912787" lon="10.124957782918786"><ele>1002.6666666666667</ele><time>2026-04-27T10:08:31.737Z</time></trkpt><trkpt lat="46.150410602656876" lon="10.125208736683279"><ele>1007.0</ele><time>2026-04-27T10:08:32.737Z</time></trkpt><trkpt lat="46.15036987237335" lon="10.125435392293577"><ele>1007.0</ele><time>2026-04-27T10:08:33.737Z</time></trkpt><trkpt lat="46.15033298458373" lon="10.125637540434061"><ele>1007.0</ele><time>2026-04-27T10:08:34.737Z</time></trkpt><trkpt lat="46.150306171609024" lon="10.125850988166796"><ele>1007.0</ele><time>2026-04-27T10:08:35.737Z</time></trkpt><trkpt lat="46.15030266812111" lon="10.126073056684463"><ele>1007.0</ele><time>2026-04-27T10:08:36.737Z</time></trkpt><trkpt lat="46.150303930180094" lon="10.12629147298621"><ele>1010.25</ele><time>2026-04-27T10:08:37.737Z</time></trkpt><trkpt lat="46.150313354642876" lon="10.126510973397108"><ele>1013.5</ele><time>2026-04-27T10:08:38.737Z</time></trkpt><trkpt lat="46.150328314128956" lon="10.126721380928577"><ele>1016.75</ele><time>2026-04-27T10:08:39.737Z</time></trkpt><trkpt lat="46.1503106568432" lon="10.126932282354833"><ele>1020.0</ele><time>2026-04-27T10:08:40.737Z</time></trkpt><trkpt lat="46.15026865032369" lon="10.127127106223876"><ele>1023.75</ele><time>2026-04-27T10:08:41.737Z</time></trkpt><trkpt lat="46.15018881296978" lon="10.127302851087023"><ele>1027.5</ele><time>2026-04-27T10:08:42.737Z</time></trkpt><trkpt lat="46.15008418069844" lon="10.127457462821896"><ele>1031.25</ele><time>2026-04-27T10:08:43.737Z</time></trkpt><trkpt lat="46.14997464258451" lon="10.127596829779298"><ele>1035.0</ele><time>2026-04-27T10:08:44.737Z</time></trkpt><trkpt lat="46.14989143905186" lon="10.127769061672618"><ele>1034.5</ele><time>2026-04-27T10:08:45.737Z</time></trkpt><trkpt lat="46.149823495574445" lon="10.127929043097472"><ele>1034.0</ele><time>2026-04-27T10:08:46.737Z</time></trkpt><trkpt lat="46.149766604233875" lon="10.12808442676639"><ele>1033.5</ele><time>2026-04-27T10:08:47.737Z</time></trkpt><trkpt lat="46.149704856517566" lon="10.128243658918223"><ele>1033.0</ele><time>2026-04-27T10:08:48.737Z</time></trkpt><trkpt lat="46.14964744341341" lon="10.12840754449517"><ele>1035.25</ele><time>2026-04-27T10:08:49.736Z</time></trkpt><trkpt lat="46.14958995557359" lon="10.12859322909231"><ele>1037.5</ele><time>2026-04-27T10:08:50.737Z</time></trkpt><trkpt lat="46.14954516304235" lon="10.128792812018395"><ele>1039.75</ele><time>2026-04-27T10:08:51.737Z</time></trkpt><trkpt lat="46.1495092921339" lon="10.129004017029862"><ele>1042.0</ele><time>2026-04-27T10:08:52.737Z</time></trkpt><trkpt lat="46.14949287080559" lon="10.12922368285164"><ele>1045.0</ele><time>2026-04-27T10:08:53.737Z</time></trkpt><trkpt lat="46.14949406655338" lon="10.129442375955003"><ele>1048.0</ele><time>2026-04-27T10:08:54.737Z</time></trkpt><trkpt lat="46.149514075922966" lon="10.129660819547533"><ele>1051.0</ele><time>2026-04-27T10:08:55.736Z</time></trkpt><trkpt lat="46.149539294597496" lon="10.129884263825204"><ele>1052.0</ele><time>2026-04-27T10:08:56.736Z</time></trkpt><trkpt lat="46.149571844065136" lon="10.130120046761222"><ele>1053.0</ele><time>2026-04-27T10:08:57.736Z</time></trkpt><trkpt lat="46.14960164896184" lon="10.130355734058885"><ele>1054.0</ele><time>2026-04-27T10:08:58.736Z</time></trkpt><trkpt lat="46.14962575790273" lon="10.130588832376613"><ele>1055.6666666666665</ele><time>2026-04-27T10:08:59.736Z</time></trkpt><trkpt lat="46.149648445430664" lon="10.130810878801173"><ele>1057.3333333333333</ele><time>2026-04-27T10:09:00.736Z</time></trkpt><trkpt lat="46.14967634847927" lon="10.13103185334617"><ele>1059.0</ele><time>2026-04-27T10:09:01.736Z</time></trkpt><trkpt lat="46.14970056065725" lon="10.131247787698959"><ele>1059.0</ele><time>2026-04-27T10:09:02.736Z</time></trkpt><trkpt lat="46.149703747340816" lon="10.131472071698884"><ele>1059.0</ele><time>2026-04-27T10:09:03.736Z</time></trkpt><trkpt lat="46.14969689823787" lon="10.131700892218507"><ele>1059.0</ele><time>2026-04-27T10:09:04.736Z</time></trkpt><trkpt lat="46.14969386809664" lon="10.131944986818773"><ele>1060.6666666666667</ele><time>2026-04-27T10:09:05.736Z</time></trkpt><trkpt lat="46.14969950060826" lon="10.132196262335405"><ele>1062.3333333333335</ele><time>2026-04-27T10:09:06.736Z</time></trkpt><trkpt lat="46.14972783454968" lon="10.13246093517121"><ele>1064.0</ele><time>2026-04-27T10:09:07.736Z</time></trkpt><trkpt lat="46.14976337861618" lon="10.132729086976154"><ele>1066.0</ele><time>2026-04-27T10:09:08.736Z</time></trkpt><trkpt lat="46.14978472514004" lon="10.133005375286764"><ele>1068.0</ele><time>2026-04-27T10:09:09.736Z</time></trkpt><trkpt lat="46.14978775084577" lon="10.133247877521928"><ele>1070.0</ele><time>2026-04-27T10:09:10.736Z</time></trkpt><trkpt lat="46.1497990159747" lon="10.13351160050832"><ele>1071.3333333333335</ele><time>2026-04-27T10:09:11.736Z</time></trkpt><trkpt lat="46.1498331575877" lon="10.1337735045173"><ele>1072.6666666666667</ele><time>2026-04-27T10:09:12.735Z</time></trkpt><trkpt lat="46.149874386205894" lon="10.134044825121526"><ele>1074.0</ele><time>2026-04-27T10:09:13.735Z</time></trkpt><trkpt lat="46.14992302758106" lon="10.134323093220969"><ele>1080.0</ele><time>2026-04-27T10:09:14.735Z</time></trkpt><trkpt lat="46.14997250506423" lon="10.134592800219966"><ele>1086.0</ele><time>2026-04-27T10:09:15.735Z</time></trkpt><trkpt lat="46.150021745321254" lon="10.134818620322292"><ele>1092.0</ele><time>2026-04-27T10:09:16.735Z</time></trkpt><trkpt lat="46.15006050001739" lon="10.13505456786002"><ele>1092.0</ele><time>2026-04-27T10:09:17.735Z</time></trkpt><trkpt lat="46.15012019574502" lon="10.135296577121087"><ele>1092.0</ele><time>2026-04-27T10:09:18.735Z</time></trkpt><trkpt lat="46.15018826335737" lon="10.135526414390974"><ele>1092.0</ele><time>2026-04-27T10:09:19.735Z</time></trkpt><trkpt lat="46.150242693860875" lon="10.13573563045909"><ele>1093.5</ele><time>2026-04-27T10:09:20.735Z</time></trkpt><trkpt lat="46.15027310133662" lon="10.13592070936111"><ele>1095.0</ele><time>2026-04-27T10:09:21.735Z</time></trkpt><trkpt lat="46.150298117671646" lon="10.13612269094775"><ele>1096.5</ele><time>2026-04-27T10:09:22.735Z</time></trkpt><trkpt lat="46.150314965239424" lon="10.136335119498241"><ele>1098.0</ele><time>2026-04-27T10:09:23.735Z</time></trkpt><trkpt lat="46.150330283034315" lon="10.136557405505155"><ele>1099.75</ele><time>2026-04-27T10:09:24.735Z</time></trkpt><trkpt lat="46.15036213268574" lon="10.13678093732833"><ele>1101.5</ele><time>2026-04-27T10:09:25.735Z</time></trkpt><trkpt lat="46.150407000481934" lon="10.13698370843897"><ele>1103.25</ele><time>2026-04-27T10:09:26.735Z</time></trkpt><trkpt lat="46.15044796078128" lon="10.13715868552222"><ele>1105.0</ele><time>2026-04-27T10:09:27.735Z</time></trkpt><trkpt lat="46.15049524760687" lon="10.13734292569107"><ele>1106.2</ele><time>2026-04-27T10:09:28.735Z</time></trkpt><trkpt lat="46.15054170777909" lon="10.137518708974348"><ele>1107.4</ele><time>2026-04-27T10:09:29.735Z</time></trkpt><trkpt lat="46.15057550083176" lon="10.137666091801012"><ele>1108.6</ele><time>2026-04-27T10:09:30.735Z</time></trkpt><trkpt lat="46.15059914891658" lon="10.137810984097303"><ele>1109.8</ele><time>2026-04-27T10:09:31.735Z</time></trkpt><trkpt lat="46.15061552550664" lon="10.137961611324922"><ele>1111.0</ele><time>2026-04-27T10:09:32.735Z</time></trkpt><trkpt lat="46.150624469388006" lon="10.138098088631212"><ele>1111.0</ele><time>2026-04-27T10:09:33.735Z</time></trkpt><trkpt lat="46.15062666511913" lon="10.138202485268224"><ele>1111.0</ele><time>2026-04-27T10:09:34.735Z</time></trkpt><trkpt lat="46.15063923198333" lon="10.138361013434533"><ele>1111.0</ele><time>2026-04-27T10:09:36.735Z</time></trkpt><trkpt lat="46.150677064713896" lon="10.138472820887293"><ele>1111.0</ele><time>2026-04-27T10:09:38.735Z</time></trkpt><trkpt lat="46.15078520632737" lon="10.138498664966633"><ele>1111.0</ele><time>2026-04-27T10:09:40.735Z</time></trkpt><trkpt lat="46.15083320795427" lon="10.13842399353675"><ele>1111.0</ele><time>2026-04-27T10:09:41.735Z</time></trkpt><trkpt lat="46.15084693191688" lon="10.138307235014162"><ele>1116.25</ele><time>2026-04-27T10:09:42.734Z</time></trkpt><trkpt lat="46.15083714347929" lon="10.13814785281042"><ele>1121.5</ele><time>2026-04-27T10:09:43.734Z</time></trkpt><trkpt lat="46.15080731586278" lon="10.13797971161039"><ele>1126.75</ele><time>2026-04-27T10:09:44.734Z</time></trkpt><trkpt lat="46.150783973620236" lon="10.137801565879899"><ele>1132.0</ele><time>2026-04-27T10:09:45.734Z</time></trkpt><trkpt lat="46.15075786183668" lon="10.137641747148221"><ele>1132.0</ele><time>2026-04-27T10:09:46.734Z</time></trkpt><trkpt lat="46.150728670059365" lon="10.137496639738949"><ele>1132.0</ele><time>2026-04-27T10:09:47.734Z</time></trkpt><trkpt lat="46.15069730086926" lon="10.137354997451402"><ele>1132.0</ele><time>2026-04-27T10:09:48.734Z</time></trkpt><trkpt lat="46.150669157189526" lon="10.137223501342318"><ele>1132.0</ele><time>2026-04-27T10:09:49.734Z</time></trkpt><trkpt lat="46.15064908241289" lon="10.137118094695754"><ele>1132.0</ele><time>2026-04-27T10:09:50.734Z</time></trkpt><trkpt lat="46.15062625334603" lon="10.13702860957606"><ele>1132.0</ele><time>2026-04-27T10:09:51.734Z</time></trkpt><trkpt lat="46.150639216628704" lon="10.136903037019136"><ele>1132.0</ele><time>2026-04-27T10:09:53.734Z</time></trkpt><trkpt lat="46.15073217780655" lon="10.136917600638037"><ele>1132.0</ele><time>2026-04-27T10:09:55.734Z</time></trkpt><trkpt lat="46.15076689231559" lon="10.13700590626774"><ele>1132.0</ele><time>2026-04-27T10:09:56.734Z</time></trkpt><trkpt lat="46.15077969437276" lon="10.137150935926037"><ele>1132.0</ele><time>2026-04-27T10:09:57.734Z</time></trkpt><trkpt lat="46.150808961355025" lon="10.137312418232616"><ele>1132.0</ele><time>2026-04-27T10:09:58.734Z</time></trkpt><trkpt lat="46.150837286494074" lon="10.1374905197075"><ele>1132.0</ele><time>2026-04-27T10:09:59.734Z</time></trkpt><trkpt lat="46.15087675607724" lon="10.137683947631004"><ele>1132.0</ele><time>2026-04-27T10:10:00.734Z</time></trkpt><trkpt lat="46.15091665948957" lon="10.137893626179237"><ele>1132.0</ele><time>2026-04-27T10:10:01.734Z</time></trkpt><trkpt lat="46.1509518741416" lon="10.138107687507546"><ele>1132.0</ele><time>2026-04-27T10:10:02.734Z</time></trkpt><trkpt lat="46.15098665414041" lon="10.138328461329609"><ele>1131.0</ele><time>2026-04-27T10:10:03.734Z</time></trkpt><trkpt lat="46.151024908524015" lon="10.138539043435872"><ele>1130.0</ele><time>2026-04-27T10:10:04.734Z</time></trkpt><trkpt lat="46.15105690803122" lon="10.138734479719666"><ele>1129.0</ele><time>2026-04-27T10:10:05.734Z</time></trkpt><trkpt lat="46.15109831572146" lon="10.138919705603213"><ele>1128.0</ele><time>2026-04-27T10:10:06.734Z</time></trkpt><trkpt lat="46.151149287827714" lon="10.139105473307918"><ele>1128.0</ele><time>2026-04-27T10:10:07.734Z</time></trkpt><trkpt lat="46.15120903505202" lon="10.139261714958954"><ele>1128.0</ele><time>2026-04-27T10:10:08.734Z</time></trkpt><trkpt lat="46.15128085309535" lon="10.13941769192274"><ele>1128.0</ele><time>2026-04-27T10:10:09.734Z</time></trkpt><trkpt lat="46.15135675502591" lon="10.139588146011876"><ele>1128.0</ele><time>2026-04-27T10:10:10.734Z</time></trkpt><trkpt lat="46.15141665517858" lon="10.139776972811966"><ele>1129.0</ele><time>2026-04-27T10:10:11.734Z</time></trkpt><trkpt lat="46.1514695121837" lon="10.139979236826278"><ele>1130.0</ele><time>2026-04-27T10:10:12.733Z</time></trkpt><trkpt lat="46.15149685789687" lon="10.14016271002959"><ele>1131.0</ele><time>2026-04-27T10:10:13.733Z</time></trkpt><trkpt lat="46.15150428257224" lon="10.140325026792317"><ele>1132.0</ele><time>2026-04-27T10:10:14.733Z</time></trkpt><trkpt lat="46.151504693991434" lon="10.140509989250017"><ele>1132.0</ele><time>2026-04-27T10:10:15.733Z</time></trkpt><trkpt lat="46.15149439791959" lon="10.14070448664537"><ele>1132.0</ele><time>2026-04-27T10:10:16.733Z</time></trkpt><trkpt lat="46.151486440492235" lon="10.140900874074829"><ele>1132.0</ele><time>2026-04-27T10:10:17.733Z</time></trkpt><trkpt lat="46.15147713121871" lon="10.141106276135567"><ele>1132.0</ele><time>2026-04-27T10:10:18.733Z</time></trkpt><trkpt lat="46.15146597207204" lon="10.14130803142283"><ele>1134.0</ele><time>2026-04-27T10:10:19.733Z</time></trkpt><trkpt lat="46.15146570388589" lon="10.14149505348443"><ele>1136.0</ele><time>2026-04-27T10:10:20.733Z</time></trkpt><trkpt lat="46.15148826995514" lon="10.141681343060222"><ele>1138.0</ele><time>2026-04-27T10:10:21.733Z</time></trkpt><trkpt lat="46.15153064054097" lon="10.141878460673611"><ele>1140.0</ele><time>2026-04-27T10:10:22.733Z</time></trkpt><trkpt lat="46.15156997529125" lon="10.142076369328754"><ele>1146.0</ele><time>2026-04-27T10:10:23.733Z</time></trkpt><trkpt lat="46.15160700721398" lon="10.142248337088398"><ele>1152.0</ele><time>2026-04-27T10:10:24.733Z</time></trkpt><trkpt lat="46.15164219334308" lon="10.142422042967738"><ele>1158.0</ele><time>2026-04-27T10:10:25.733Z</time></trkpt><trkpt lat="46.151681477599666" lon="10.142589579876438"><ele>1164.0</ele><time>2026-04-27T10:10:26.733Z</time></trkpt><trkpt lat="46.15172923921519" lon="10.14275091918591"><ele>1164.25</ele><time>2026-04-27T10:10:27.733Z</time></trkpt><trkpt lat="46.151794354642995" lon="10.14291530750009"><ele>1164.5</ele><time>2026-04-27T10:10:28.733Z</time></trkpt><trkpt lat="46.151861324491385" lon="10.143073376778704"><ele>1164.75</ele><time>2026-04-27T10:10:29.733Z</time></trkpt><trkpt lat="46.151938789284564" lon="10.143221959468518"><ele>1165.0</ele><time>2026-04-27T10:10:30.733Z</time></trkpt><trkpt lat="46.15201939001826" lon="10.143361817212629"><ele>1165.0</ele><time>2026-04-27T10:10:31.733Z</time></trkpt><trkpt lat="46.15209332098008" lon="10.143506422501694"><ele>1165.0</ele><time>2026-04-27T10:10:32.733Z</time></trkpt><trkpt lat="46.15216624136698" lon="10.143654598777838"><ele>1165.0</ele><time>2026-04-27T10:10:33.733Z</time></trkpt><trkpt lat="46.152243018687" lon="10.143806847558432"><ele>1165.0</ele><time>2026-04-27T10:10:34.733Z</time></trkpt><trkpt lat="46.152319807593074" lon="10.143952284415517"><ele>1166.6</ele><time>2026-04-27T10:10:35.733Z</time></trkpt><trkpt lat="46.152387528427205" lon="10.14409175993275"><ele>1168.2</ele><time>2026-04-27T10:10:36.733Z</time></trkpt><trkpt lat="46.15244123533559" lon="10.144221754778142"><ele>1169.8</ele><time>2026-04-27T10:10:37.733Z</time></trkpt><trkpt lat="46.152499647343014" lon="10.144362543392145"><ele>1171.4</ele><time>2026-04-27T10:10:38.733Z</time></trkpt><trkpt lat="46.1525432346306" lon="10.144484173335393"><ele>1173.0</ele><time>2026-04-27T10:10:39.733Z</time></trkpt><trkpt lat="46.15258787590009" lon="10.14458540492671"><ele>1173.0</ele><time>2026-04-27T10:10:40.733Z</time></trkpt><trkpt lat="46.15261219335993" lon="10.144670737397957"><ele>1173.0</ele><time>2026-04-27T10:10:41.732Z</time></trkpt><trkpt lat="46.15264495656793" lon="10.144785824611812"><ele>1173.0</ele><time>2026-04-27T10:10:43.732Z</time></trkpt><trkpt lat="46.152667956721" lon="10.14489042443774"><ele>1173.0</ele><time>2026-04-27T10:10:46.732Z</time></trkpt><trkpt lat="46.15267991252616" lon="10.14500237743517"><ele>1173.0</ele><time>2026-04-27T10:10:51.733Z</time></trkpt><trkpt lat="46.1526025056104" lon="10.145064688164165"><ele>1173.0</ele><time>2026-04-27T10:11:04.733Z</time></trkpt><trkpt lat="46.15265402356581" lon="10.145005272629811"><ele>1173.0</ele><time>2026-04-27T10:11:34.732Z</time></trkpt><trkpt lat="46.15259081027567" lon="10.145000893893723"><ele>1173.0</ele><time>2026-04-27T10:11:42.732Z</time></trkpt><trkpt lat="46.15252636048382" lon="10.145004903521427"><ele>1173.0</ele><time>2026-04-27T10:11:55.731Z</time></trkpt><trkpt lat="46.152566352420074" lon="10.144914315100516"><ele>1173.0</ele><time>2026-04-27T10:12:35.73Z</time></trkpt><trkpt lat="46.15235045929466" lon="10.144815002316175"><ele>1167.0</ele><time>2026-04-27T10:13:45.87Z</time></trkpt></trkseg><trkseg><trkpt lat="46.15266417767335" lon="10.144989191106744"><ele>1173.0</ele><time>2026-04-27T10:59:26Z</time></trkpt><trkpt lat="46.15273673420639" lon="10.145042408042153"><ele>1173.0</ele><time>2026-04-27T11:01:14.002Z</time></trkpt><trkpt lat="46.15279154681444" lon="10.145168713350214"><ele>1173.0</ele><time>2026-04-27T11:01:21.001Z</time></trkpt><trkpt lat="46.15284104865377" lon="10.14532095436611"><ele>1173.0</ele><time>2026-04-27T11:01:23.001Z</time></trkpt><trkpt lat="46.1529008363584" lon="10.145472770718625"><ele>1173.0</ele><time>2026-04-27T11:01:25.001Z</time></trkpt><trkpt lat="46.15292570677981" lon="10.145573904967314"><ele>1173.0</ele><time>2026-04-27T11:01:26.001Z</time></trkpt><trkpt lat="46.15296119895405" lon="10.145658453931526"><ele>1173.0</ele><time>2026-04-27T11:01:27.001Z</time></trkpt><trkpt lat="46.152991735472064" lon="10.14575548114231"><ele>1173.0</ele><time>2026-04-27T11:01:28.001Z</time></trkpt><trkpt lat="46.15303408149144" lon="10.14584651656087"><ele>1173.0</ele><time>2026-04-27T11:01:29.001Z</time></trkpt><trkpt lat="46.15307988654697" lon="10.14594728437872"><ele>1173.0</ele><time>2026-04-27T11:01:30.001Z</time></trkpt><trkpt lat="46.153113940252844" lon="10.146041610762973"><ele>1173.0</ele><time>2026-04-27T11:01:31.001Z</time></trkpt><trkpt lat="46.15315314804689" lon="10.146161824026548"><ele>1173.2</ele><time>2026-04-27T11:01:32.001Z</time></trkpt><trkpt lat="46.15319194815013" lon="10.146279663919161"><ele>1173.4</ele><time>2026-04-27T11:01:33.001Z</time></trkpt><trkpt lat="46.15323402722336" lon="10.146413267784627"><ele>1173.6000000000001</ele><time>2026-04-27T11:01:34.001Z</time></trkpt><trkpt lat="46.15327624896775" lon="10.146536551959786"><ele>1173.8</ele><time>2026-04-27T11:01:35.001Z</time></trkpt><trkpt lat="46.15331501678649" lon="10.146658393365497"><ele>1174.0</ele><time>2026-04-27T11:01:36.001Z</time></trkpt><trkpt lat="46.153356203275216" lon="10.1467706802419"><ele>1174.1666666666665</ele><time>2026-04-27T11:01:37.001Z</time></trkpt><trkpt lat="46.15337895304872" lon="10.146873429306435"><ele>1174.3333333333333</ele><time>2026-04-27T11:01:38.001Z</time></trkpt><trkpt lat="46.15339214036363" lon="10.146969417881813"><ele>1174.5</ele><time>2026-04-27T11:01:39.001Z</time></trkpt><trkpt lat="46.153394460630984" lon="10.147062190876008"><ele>1174.6666666666667</ele><time>2026-04-27T11:01:40.001Z</time></trkpt><trkpt lat="46.15341265452049" lon="10.147190687739576"><ele>1174.8333333333335</ele><time>2026-04-27T11:01:42.001Z</time></trkpt><trkpt lat="46.15341129476732" lon="10.147342106172824"><ele>1175.0</ele><time>2026-04-27T11:01:45.001Z</time></trkpt><trkpt lat="46.15341708862643" lon="10.147465525957669"><ele>1175.0</ele><time>2026-04-27T11:01:46.001Z</time></trkpt><trkpt lat="46.1534164667047" lon="10.147623592366928"><ele>1175.0</ele><time>2026-04-27T11:01:47.001Z</time></trkpt><trkpt lat="46.153430871130944" lon="10.147826319968189"><ele>1175.0</ele><time>2026-04-27T11:01:48.001Z</time></trkpt><trkpt lat="46.15343116464095" lon="10.148032963077034"><ele>1175.0</ele><time>2026-04-27T11:01:49.001Z</time></trkpt><trkpt lat="46.15343775579447" lon="10.148246219315094"><ele>1175.0</ele><time>2026-04-27T11:01:50.001Z</time></trkpt><trkpt lat="46.153436459519035" lon="10.148424359017442"><ele>1175.0</ele><time>2026-04-27T11:01:51.001Z</time></trkpt><trkpt lat="46.15343206966057" lon="10.148611949335185"><ele>1175.0</ele><time>2026-04-27T11:01:52.001Z</time></trkpt><trkpt lat="46.15343451978747" lon="10.148801715999419"><ele>1175.0</ele><time>2026-04-27T11:01:53.001Z</time></trkpt><trkpt lat="46.15343624672906" lon="10.14900066610868"><ele>1175.25</ele><time>2026-04-27T11:01:54.001Z</time></trkpt><trkpt lat="46.153441105418324" lon="10.149206239821247"><ele>1175.5</ele><time>2026-04-27T11:01:55.001Z</time></trkpt><trkpt lat="46.15345449176259" lon="10.149417338463852"><ele>1175.75</ele><time>2026-04-27T11:01:56.001Z</time></trkpt><trkpt lat="46.153464603800714" lon="10.149608915775568"><ele>1176.0</ele><time>2026-04-27T11:01:57.001Z</time></trkpt><trkpt lat="46.15347841639515" lon="10.149814077313167"><ele>1176.6666666666667</ele><time>2026-04-27T11:01:58.001Z</time></trkpt><trkpt lat="46.15350540709005" lon="10.150005547808234"><ele>1177.3333333333335</ele><time>2026-04-27T11:01:59.001Z</time></trkpt><trkpt lat="46.153543244988995" lon="10.150207512263007"><ele>1178.0</ele><time>2026-04-27T11:02:00.001Z</time></trkpt><trkpt lat="46.15359636082198" lon="10.150441940459036"><ele>1177.3333333333335</ele><time>2026-04-27T11:02:01.001Z</time></trkpt><trkpt lat="46.153642794306386" lon="10.150712250112564"><ele>1176.6666666666667</ele><time>2026-04-27T11:02:02.001Z</time></trkpt><trkpt lat="46.15369169860278" lon="10.15093326863552"><ele>1176.0</ele><time>2026-04-27T11:02:03.001Z</time></trkpt><trkpt lat="46.15372118587367" lon="10.151109910554904"><ele>1176.0</ele><time>2026-04-27T11:02:04.001Z</time></trkpt><trkpt lat="46.153755804245726" lon="10.151290071935266"><ele>1176.0</ele><time>2026-04-27T11:02:05.001Z</time></trkpt><trkpt lat="46.15379140701332" lon="10.151468984164536"><ele>1176.0</ele><time>2026-04-27T11:02:06.001Z</time></trkpt><trkpt lat="46.153827312975835" lon="10.151647390459308"><ele>1176.0</ele><time>2026-04-27T11:02:07.001Z</time></trkpt><trkpt lat="46.153870459072124" lon="10.151827857694327"><ele>1176.0</ele><time>2026-04-27T11:02:08.001Z</time></trkpt><trkpt lat="46.15386446104762" lon="10.152046025586737"><ele>1176.0</ele><time>2026-04-27T11:02:09.001Z</time></trkpt><trkpt lat="46.15390713433769" lon="10.152245380583706"><ele>1176.0</ele><time>2026-04-27T11:02:10.001Z</time></trkpt><trkpt lat="46.153949193968366" lon="10.152441868731179"><ele>1176.0</ele><time>2026-04-27T11:02:11.001Z</time></trkpt><trkpt lat="46.15398974218871" lon="10.152631297312238"><ele>1176.0</ele><time>2026-04-27T11:02:12.001Z</time></trkpt><trkpt lat="46.154031503509785" lon="10.152824446003015"><ele>1176.0</ele><time>2026-04-27T11:02:13.001Z</time></trkpt><trkpt lat="46.15407226594689" lon="10.153017689206067"><ele>1176.0</ele><time>2026-04-27T11:02:14.001Z</time></trkpt><trkpt lat="46.15411116403397" lon="10.153200784330567"><ele>1176.0</ele><time>2026-04-27T11:02:15.001Z</time></trkpt><trkpt lat="46.15414765892485" lon="10.153375970218388"><ele>1176.0</ele><time>2026-04-27T11:02:16.001Z</time></trkpt><trkpt lat="46.1541851271776" lon="10.153555703220336"><ele>1176.0</ele><time>2026-04-27T11:02:17.001Z</time></trkpt><trkpt lat="46.154222266619314" lon="10.153737965913805"><ele>1176.0</ele><time>2026-04-27T11:02:18.001Z</time></trkpt><trkpt lat="46.15426190614757" lon="10.153931079868165"><ele>1176.0</ele><time>2026-04-27T11:02:19.001Z</time></trkpt><trkpt lat="46.15430101499319" lon="10.154125121922515"><ele>1175.75</ele><time>2026-04-27T11:02:20.001Z</time></trkpt><trkpt lat="46.15433884364109" lon="10.154315402326855"><ele>1175.5</ele><time>2026-04-27T11:02:21.001Z</time></trkpt><trkpt lat="46.154375546102855" lon="10.154506375546196"><ele>1175.25</ele><time>2026-04-27T11:02:22.001Z</time></trkpt><trkpt lat="46.15441146115472" lon="10.154696938085984"><ele>1175.0</ele><time>2026-04-27T11:02:23.001Z</time></trkpt><trkpt lat="46.15444899256964" lon="10.15489832474708"><ele>1175.0</ele><time>2026-04-27T11:02:24.001Z</time></trkpt><trkpt lat="46.15448304917927" lon="10.155087279037717"><ele>1175.0</ele><time>2026-04-27T11:02:25.001Z</time></trkpt><trkpt lat="46.15451636539802" lon="10.155272075419084"><ele>1175.0</ele><time>2026-04-27T11:02:26.001Z</time></trkpt><trkpt lat="46.154550881570316" lon="10.15546993821955"><ele>1175.0</ele><time>2026-04-27T11:02:27.001Z</time></trkpt><trkpt lat="46.154585696062554" lon="10.155666946674144"><ele>1175.75</ele><time>2026-04-27T11:02:28.001Z</time></trkpt><trkpt lat="46.154623184179954" lon="10.15587028935843"><ele>1176.5</ele><time>2026-04-27T11:02:29.001Z</time></trkpt><trkpt lat="46.15466421095561" lon="10.156081117959644"><ele>1177.25</ele><time>2026-04-27T11:02:30.001Z</time></trkpt><trkpt lat="46.154705742409774" lon="10.156287245266375"><ele>1178.0</ele><time>2026-04-27T11:02:31.001Z</time></trkpt><trkpt lat="46.15474777123838" lon="10.156491424468475"><ele>1178.0</ele><time>2026-04-27T11:02:32.001Z</time></trkpt><trkpt lat="46.15478900162681" lon="10.156689932315393"><ele>1178.0</ele><time>2026-04-27T11:02:33.001Z</time></trkpt><trkpt lat="46.15482531613625" lon="10.15688289122723"><ele>1178.0</ele><time>2026-04-27T11:02:34.001Z</time></trkpt><trkpt lat="46.15486919375873" lon="10.157088600494406"><ele>1178.0</ele><time>2026-04-27T11:02:35.001Z</time></trkpt><trkpt lat="46.15491259694332" lon="10.15728720663636"><ele>1177.75</ele><time>2026-04-27T11:02:36.001Z</time></trkpt><trkpt lat="46.15495917986502" lon="10.157483965454277"><ele>1177.5</ele><time>2026-04-27T11:02:37.001Z</time></trkpt><trkpt lat="46.15500446990692" lon="10.157685208726363"><ele>1177.25</ele><time>2026-04-27T11:02:38.001Z</time></trkpt><trkpt lat="46.15504646890339" lon="10.157895883115922"><ele>1177.0</ele><time>2026-04-27T11:02:39.001Z</time></trkpt><trkpt lat="46.15508739947257" lon="10.158082733866308"><ele>1176.75</ele><time>2026-04-27T11:02:40.001Z</time></trkpt><trkpt lat="46.15513510598015" lon="10.158269160582668"><ele>1176.5</ele><time>2026-04-27T11:02:41.001Z</time></trkpt><trkpt lat="46.15516566691451" lon="10.158450060174637"><ele>1176.25</ele><time>2026-04-27T11:02:42.001Z</time></trkpt><trkpt lat="46.15520419428463" lon="10.158638295390306"><ele>1176.0</ele><time>2026-04-27T11:02:43.001Z</time></trkpt><trkpt lat="46.155240833811995" lon="10.158829334474401"><ele>1176.0</ele><time>2026-04-27T11:02:44.001Z</time></trkpt><trkpt lat="46.155286607379665" lon="10.159026392825009"><ele>1176.0</ele><time>2026-04-27T11:02:45.001Z</time></trkpt><trkpt lat="46.1553212287099" lon="10.159221100963247"><ele>1176.0</ele><time>2026-04-27T11:02:46.001Z</time></trkpt><trkpt lat="46.15537276164303" lon="10.159427853120905"><ele>1176.0</ele><time>2026-04-27T11:02:47.001Z</time></trkpt><trkpt lat="46.155420056497796" lon="10.15962835914823"><ele>1175.75</ele><time>2026-04-27T11:02:48.001Z</time></trkpt><trkpt lat="46.15545381375717" lon="10.159812464977831"><ele>1175.5</ele><time>2026-04-27T11:02:49.001Z</time></trkpt><trkpt lat="46.15548629271983" lon="10.159983328111652"><ele>1175.25</ele><time>2026-04-27T11:02:50.001Z</time></trkpt><trkpt lat="46.15551380533864" lon="10.160155732488018"><ele>1175.0</ele><time>2026-04-27T11:02:51.001Z</time></trkpt><trkpt lat="46.15555296391667" lon="10.160335339347775"><ele>1175.0</ele><time>2026-04-27T11:02:52.001Z</time></trkpt><trkpt lat="46.15559377710509" lon="10.160529946638803"><ele>1175.0</ele><time>2026-04-27T11:02:53.002Z</time></trkpt><trkpt lat="46.15563142964445" lon="10.16072230493792"><ele>1175.0</ele><time>2026-04-27T11:02:54.002Z</time></trkpt><trkpt lat="46.15567477033285" lon="10.160923198920873"><ele>1175.0</ele><time>2026-04-27T11:02:55.002Z</time></trkpt><trkpt lat="46.1557258168186" lon="10.161127972293302"><ele>1175.0</ele><time>2026-04-27T11:02:56.002Z</time></trkpt><trkpt lat="46.155782148760814" lon="10.161347046214644"><ele>1175.0</ele><time>2026-04-27T11:02:57.002Z</time></trkpt><trkpt lat="46.15583056090758" lon="10.161543741472576"><ele>1175.0</ele><time>2026-04-27T11:02:58.002Z</time></trkpt><trkpt lat="46.155867121655994" lon="10.161732493924262"><ele>1175.0</ele><time>2026-04-27T11:02:59.002Z</time></trkpt><trkpt lat="46.15590299165072" lon="10.161929850761725"><ele>1174.0</ele><time>2026-04-27T11:03:00.002Z</time></trkpt><trkpt lat="46.15594103135032" lon="10.162122769594374"><ele>1173.0</ele><time>2026-04-27T11:03:01.002Z</time></trkpt><trkpt lat="46.155959586795404" lon="10.16231782048054"><ele>1172.0</ele><time>2026-04-27T11:03:02.002Z</time></trkpt><trkpt lat="46.15598215924239" lon="10.162461167964349"><ele>1171.0</ele><time>2026-04-27T11:03:03.002Z</time></trkpt><trkpt lat="46.15603918522194" lon="10.162591838140214"><ele>1170.5</ele><time>2026-04-27T11:03:04.002Z</time></trkpt><trkpt lat="46.15606247127815" lon="10.162686563482284"><ele>1170.0</ele><time>2026-04-27T11:03:05.002Z</time></trkpt><trkpt lat="46.15607938389975" lon="10.162835828299153"><ele>1169.5</ele><time>2026-04-27T11:03:07.002Z</time></trkpt><trkpt lat="46.15611201655585" lon="10.162949381984198"><ele>1169.0</ele><time>2026-04-27T11:03:10.002Z</time></trkpt><trkpt lat="46.15616852572816" lon="10.163018329843156"><ele>1168.5</ele><time>2026-04-27T11:03:12.002Z</time></trkpt><trkpt lat="46.15616044700457" lon="10.163114973662568"><ele>1168.0</ele><time>2026-04-27T11:03:14.002Z</time></trkpt><trkpt lat="46.15621364963524" lon="10.16328947629311"><ele>1168.0</ele><time>2026-04-27T11:03:27.001Z</time></trkpt><trkpt lat="46.156257076040866" lon="10.163440257822481"><ele>1168.0</ele><time>2026-04-27T11:03:29.001Z</time></trkpt><trkpt lat="46.15628304773182" lon="10.163539826824769"><ele>1168.0</ele><time>2026-04-27T11:03:30.001Z</time></trkpt><trkpt lat="46.15631095464951" lon="10.163655630202502"><ele>1168.0</ele><time>2026-04-27T11:03:31.001Z</time></trkpt><trkpt lat="46.15632938114346" lon="10.163800521512611"><ele>1168.0</ele><time>2026-04-27T11:03:32.001Z</time></trkpt><trkpt lat="46.15636115096737" lon="10.163951830738801"><ele>1168.0</ele><time>2026-04-27T11:03:33.001Z</time></trkpt><trkpt lat="46.15640695242716" lon="10.164115054106697"><ele>1168.0</ele><time>2026-04-27T11:03:34.001Z</time></trkpt><trkpt lat="46.15646444746733" lon="10.164299277296045"><ele>1168.0</ele><time>2026-04-27T11:03:35.001Z</time></trkpt><trkpt lat="46.156540177473545" lon="10.164491754791504"><ele>1168.0</ele><time>2026-04-27T11:03:36.001Z</time></trkpt><trkpt lat="46.1566352202455" lon="10.164691446767167"><ele>1163.6666666666665</ele><time>2026-04-27T11:03:37.001Z</time></trkpt><trkpt lat="46.15674517125253" lon="10.164906556888885"><ele>1159.3333333333333</ele><time>2026-04-27T11:03:38.001Z</time></trkpt><trkpt lat="46.1568400805552" lon="10.165123361759516"><ele>1155.0</ele><time>2026-04-27T11:03:39.001Z</time></trkpt><trkpt lat="46.156933063162214" lon="10.16532914199932"><ele>1155.0</ele><time>2026-04-27T11:03:40.001Z</time></trkpt><trkpt lat="46.15702095755399" lon="10.165500867816618"><ele>1155.0</ele><time>2026-04-27T11:03:41.001Z</time></trkpt><trkpt lat="46.157102196933224" lon="10.165675681971903"><ele>1155.0</ele><time>2026-04-27T11:03:42.001Z</time></trkpt><trkpt lat="46.15718282923574" lon="10.165867965366433"><ele>1155.0</ele><time>2026-04-27T11:03:43.001Z</time></trkpt><trkpt lat="46.15723004989676" lon="10.16611357409344"><ele>1152.5</ele><time>2026-04-27T11:03:44.001Z</time></trkpt><trkpt lat="46.157264892891895" lon="10.166630729122678"><ele>1150.0</ele><time>2026-04-27T11:03:46.001Z</time></trkpt><trkpt lat="46.15730626250449" lon="10.166883072954482"><ele>1150.0</ele><time>2026-04-27T11:03:47.001Z</time></trkpt><trkpt lat="46.15736232205698" lon="10.167127003308496"><ele>1150.0</ele><time>2026-04-27T11:03:48.001Z</time></trkpt><trkpt lat="46.15742964648675" lon="10.167376296741525"><ele>1150.0</ele><time>2026-04-27T11:03:49.001Z</time></trkpt><trkpt lat="46.157485976880096" lon="10.167606693607992"><ele>1150.3333333333333</ele><time>2026-04-27T11:03:50.001Z</time></trkpt><trkpt lat="46.15755092209194" lon="10.167839056039567"><ele>1150.6666666666667</ele><time>2026-04-27T11:03:51.001Z</time></trkpt><trkpt lat="46.1576154161629" lon="10.168060191815556"><ele>1151.0</ele><time>2026-04-27T11:03:52.001Z</time></trkpt><trkpt lat="46.157669986075845" lon="10.168293887888414"><ele>1151.0</ele><time>2026-04-27T11:03:53.001Z</time></trkpt><trkpt lat="46.157716010740906" lon="10.168548660304264"><ele>1151.0</ele><time>2026-04-27T11:03:54.001Z</time></trkpt><trkpt lat="46.15776960909944" lon="10.168804638728837"><ele>1151.0</ele><time>2026-04-27T11:03:55.001Z</time></trkpt><trkpt lat="46.15782588214331" lon="10.169056275932045"><ele>1149.6666666666667</ele><time>2026-04-27T11:03:56.001Z</time></trkpt><trkpt lat="46.1578795213319" lon="10.169294510980764"><ele>1148.3333333333333</ele><time>2026-04-27T11:03:57.001Z</time></trkpt><trkpt lat="46.157937485372535" lon="10.169537995024411"><ele>1147.0</ele><time>2026-04-27T11:03:58.001Z</time></trkpt><trkpt lat="46.15798547184194" lon="10.169768437806052"><ele>1146.0</ele><time>2026-04-27T11:03:59.001Z</time></trkpt><trkpt lat="46.1580471068627" lon="10.170010331467179"><ele>1145.0</ele><time>2026-04-27T11:04:00.001Z</time></trkpt><trkpt lat="46.15812060223448" lon="10.170238701259539"><ele>1144.0</ele><time>2026-04-27T11:04:01.001Z</time></trkpt><trkpt lat="46.15820603379334" lon="10.170460523719418"><ele>1144.6666666666665</ele><time>2026-04-27T11:04:02.001Z</time></trkpt><trkpt lat="46.15830441647988" lon="10.170661807814284"><ele>1145.3333333333333</ele><time>2026-04-27T11:04:03.001Z</time></trkpt><trkpt lat="46.158381077963334" lon="10.170838421572016"><ele>1146.0</ele><time>2026-04-27T11:04:04.001Z</time></trkpt><trkpt lat="46.158452714817244" lon="10.171033768072808"><ele>1146.0</ele><time>2026-04-27T11:04:05.001Z</time></trkpt><trkpt lat="46.15849991813561" lon="10.171231080441432"><ele>1146.0</ele><time>2026-04-27T11:04:06.001Z</time></trkpt><trkpt lat="46.15852071031282" lon="10.171437610354554"><ele>1146.0</ele><time>2026-04-27T11:04:07.001Z</time></trkpt><trkpt lat="46.15850941128972" lon="10.171647913649771"><ele>1146.0</ele><time>2026-04-27T11:04:08.001Z</time></trkpt><trkpt lat="46.158461339577634" lon="10.171861733734099"><ele>1144.3333333333333</ele><time>2026-04-27T11:04:09.001Z</time></trkpt><trkpt lat="46.15840129163703" lon="10.17208196517094"><ele>1142.6666666666665</ele><time>2026-04-27T11:04:10.001Z</time></trkpt><trkpt lat="46.15832939338181" lon="10.17227886023069"><ele>1141.0</ele><time>2026-04-27T11:04:11.001Z</time></trkpt><trkpt lat="46.15825242588025" lon="10.172504157200045"><ele>1140.0</ele><time>2026-04-27T11:04:12.001Z</time></trkpt><trkpt lat="46.158191428527445" lon="10.172739943555209"><ele>1139.0</ele><time>2026-04-27T11:04:13.001Z</time></trkpt><trkpt lat="46.1581538067006" lon="10.172992123412929"><ele>1138.0</ele><time>2026-04-27T11:04:14.001Z</time></trkpt><trkpt lat="46.15813069796769" lon="10.173224029390687"><ele>1135.6666666666665</ele><time>2026-04-27T11:04:15.001Z</time></trkpt><trkpt lat="46.15812237838091" lon="10.173461881234562"><ele>1133.3333333333333</ele><time>2026-04-27T11:04:16.001Z</time></trkpt><trkpt lat="46.15808119909665" lon="10.173678047394564"><ele>1131.0</ele><time>2026-04-27T11:04:17.001Z</time></trkpt><trkpt lat="46.15802222435224" lon="10.173897085407628"><ele>1129.3333333333333</ele><time>2026-04-27T11:04:18.001Z</time></trkpt><trkpt lat="46.157960498134976" lon="10.1741171277068"><ele>1127.6666666666665</ele><time>2026-04-27T11:04:19.001Z</time></trkpt><trkpt lat="46.15784547525953" lon="10.174332002529507"><ele>1126.0</ele><time>2026-04-27T11:04:20.001Z</time></trkpt><trkpt lat="46.157784810248536" lon="10.17455528856337"><ele>1126.0</ele><time>2026-04-27T11:04:21.001Z</time></trkpt><trkpt lat="46.15773899227061" lon="10.174774472249597"><ele>1126.0</ele><time>2026-04-27T11:04:22.001Z</time></trkpt><trkpt lat="46.15769999708216" lon="10.174992420926094"><ele>1126.0</ele><time>2026-04-27T11:04:23.001Z</time></trkpt><trkpt lat="46.15765825962273" lon="10.175215401376741"><ele>1126.25</ele><time>2026-04-27T11:04:24.001Z</time></trkpt><trkpt lat="46.15761728374741" lon="10.17541644187258"><ele>1126.5</ele><time>2026-04-27T11:04:25.001Z</time></trkpt><trkpt lat="46.157572460189215" lon="10.175604787989414"><ele>1126.75</ele><time>2026-04-27T11:04:26.001Z</time></trkpt><trkpt lat="46.157541868240315" lon="10.175794607637421"><ele>1127.0</ele><time>2026-04-27T11:04:27.001Z</time></trkpt><trkpt lat="46.157514202338234" lon="10.175999150266996"><ele>1127.6666666666667</ele><time>2026-04-27T11:04:28.001Z</time></trkpt><trkpt lat="46.157506255823456" lon="10.1762351866606"><ele>1128.3333333333333</ele><time>2026-04-27T11:04:29.001Z</time></trkpt><trkpt lat="46.15751994033407" lon="10.176486445701393"><ele>1129.0</ele><time>2026-04-27T11:04:30.001Z</time></trkpt><trkpt lat="46.157540504181014" lon="10.17674660710692"><ele>1127.6666666666665</ele><time>2026-04-27T11:04:31.001Z</time></trkpt><trkpt lat="46.15755790714856" lon="10.17698398798606"><ele>1126.3333333333333</ele><time>2026-04-27T11:04:32.001Z</time></trkpt><trkpt lat="46.15757999010099" lon="10.177212880968943"><ele>1125.0</ele><time>2026-04-27T11:04:33.001Z</time></trkpt><trkpt lat="46.1575962268966" lon="10.177438214911149"><ele>1124.0</ele><time>2026-04-27T11:04:34.001Z</time></trkpt><trkpt lat="46.15760288851376" lon="10.177645387782432"><ele>1123.0</ele><time>2026-04-27T11:04:35.001Z</time></trkpt><trkpt lat="46.157594875283614" lon="10.17785286812629"><ele>1122.0</ele><time>2026-04-27T11:04:36.001Z</time></trkpt><trkpt lat="46.15757495324977" lon="10.178041811377934"><ele>1121.0</ele><time>2026-04-27T11:04:37.001Z</time></trkpt><trkpt lat="46.1575707304529" lon="10.178238651356251"><ele>1120.5</ele><time>2026-04-27T11:04:38.001Z</time></trkpt><trkpt lat="46.15759712756177" lon="10.178432939854215"><ele>1120.0</ele><time>2026-04-27T11:04:39.001Z</time></trkpt><trkpt lat="46.15765261861875" lon="10.178620500393846"><ele>1119.5</ele><time>2026-04-27T11:04:40.001Z</time></trkpt><trkpt lat="46.15773969716255" lon="10.178800559496333"><ele>1119.0</ele><time>2026-04-27T11:04:41.001Z</time></trkpt><trkpt lat="46.157824753758014" lon="10.17896829448297"><ele>1118.5</ele><time>2026-04-27T11:04:42.001Z</time></trkpt><trkpt lat="46.157884607587114" lon="10.179154491607761"><ele>1118.0</ele><time>2026-04-27T11:04:43.001Z</time></trkpt><trkpt lat="46.15795967646208" lon="10.179320745790708"><ele>1117.5</ele><time>2026-04-27T11:04:44.001Z</time></trkpt><trkpt lat="46.15806872564888" lon="10.179469922236612"><ele>1117.0</ele><time>2026-04-27T11:04:45.001Z</time></trkpt><trkpt lat="46.15821531015158" lon="10.179599108387475"><ele>1117.6666666666665</ele><time>2026-04-27T11:04:46.001Z</time></trkpt><trkpt lat="46.158368628670075" lon="10.1797342305376"><ele>1118.3333333333333</ele><time>2026-04-27T11:04:47.001Z</time></trkpt><trkpt lat="46.158527549314286" lon="10.179893612403434"><ele>1119.0</ele><time>2026-04-27T11:04:48.001Z</time></trkpt><trkpt lat="46.15867208173535" lon="10.180050177162489"><ele>1119.0</ele><time>2026-04-27T11:04:49.001Z</time></trkpt><trkpt lat="46.15882237519451" lon="10.180201508079843"><ele>1119.0</ele><time>2026-04-27T11:04:50.001Z</time></trkpt><trkpt lat="46.158966125574075" lon="10.180335833921918"><ele>1119.0</ele><time>2026-04-27T11:04:51.001Z</time></trkpt><trkpt lat="46.159100860593114" lon="10.18046928204316"><ele>1118.0</ele><time>2026-04-27T11:04:52.001Z</time></trkpt><trkpt lat="46.15924062996461" lon="10.180606892574625"><ele>1117.0</ele><time>2026-04-27T11:04:53.001Z</time></trkpt><trkpt lat="46.15936280965701" lon="10.180731536542929"><ele>1116.0</ele><time>2026-04-27T11:04:54.001Z</time></trkpt><trkpt lat="46.159485491843924" lon="10.180853900762074"><ele>1116.0</ele><time>2026-04-27T11:04:55.001Z</time></trkpt><trkpt lat="46.15962103169937" lon="10.18097390182026"><ele>1116.0</ele><time>2026-04-27T11:04:56.001Z</time></trkpt><trkpt lat="46.159756890691554" lon="10.181105078589543"><ele>1116.0</ele><time>2026-04-27T11:04:57.001Z</time></trkpt><trkpt lat="46.15985859898446" lon="10.181254055373312"><ele>1117.25</ele><time>2026-04-27T11:04:58.001Z</time></trkpt><trkpt lat="46.15993491458544" lon="10.181420729390195"><ele>1118.5</ele><time>2026-04-27T11:04:59.001Z</time></trkpt><trkpt lat="46.15999353928943" lon="10.181606139674361"><ele>1119.75</ele><time>2026-04-27T11:05:00.001Z</time></trkpt><trkpt lat="46.15998763977443" lon="10.181818201909943"><ele>1121.0</ele><time>2026-04-27T11:05:01.001Z</time></trkpt><trkpt lat="46.1599606723364" lon="10.182042454080971"><ele>1117.3333333333335</ele><time>2026-04-27T11:05:02.001Z</time></trkpt><trkpt lat="46.15992461294383" lon="10.182283719130766"><ele>1113.6666666666667</ele><time>2026-04-27T11:05:03.001Z</time></trkpt><trkpt lat="46.159917544267984" lon="10.182531827362267"><ele>1110.0</ele><time>2026-04-27T11:05:04.001Z</time></trkpt><trkpt lat="46.15987927205122" lon="10.182765296854344"><ele>1110.6666666666667</ele><time>2026-04-27T11:05:05.001Z</time></trkpt><trkpt lat="46.15985351508259" lon="10.182990120265451"><ele>1111.3333333333335</ele><time>2026-04-27T11:05:06.001Z</time></trkpt><trkpt lat="46.15985024383866" lon="10.18322381292978"><ele>1112.0</ele><time>2026-04-27T11:05:07.001Z</time></trkpt><trkpt lat="46.15987769959382" lon="10.183455732944786"><ele>1113.0</ele><time>2026-04-27T11:05:08.001Z</time></trkpt><trkpt lat="46.15992104463556" lon="10.183704885767177"><ele>1114.0</ele><time>2026-04-27T11:05:09.001Z</time></trkpt><trkpt lat="46.15994775812249" lon="10.183952477467638"><ele>1115.0</ele><time>2026-04-27T11:05:10.001Z</time></trkpt><trkpt lat="46.1599912108154" lon="10.184192190935697"><ele>1115.3333333333335</ele><time>2026-04-27T11:05:11.001Z</time></trkpt><trkpt lat="46.16003508528883" lon="10.18443152497573"><ele>1115.6666666666667</ele><time>2026-04-27T11:05:12.001Z</time></trkpt><trkpt lat="46.16007850792841" lon="10.184664711510159"><ele>1116.0</ele><time>2026-04-27T11:05:13.001Z</time></trkpt><trkpt lat="46.16011952214051" lon="10.184884964521913"><ele>1115.0</ele><time>2026-04-27T11:05:14.001Z</time></trkpt><trkpt lat="46.16015491806641" lon="10.18508425019296"><ele>1114.0</ele><time>2026-04-27T11:05:15.001Z</time></trkpt><trkpt lat="46.16017620416307" lon="10.185269865575322"><ele>1113.0</ele><time>2026-04-27T11:05:16.001Z</time></trkpt><trkpt lat="46.16016277301825" lon="10.185448236402461"><ele>1112.0</ele><time>2026-04-27T11:05:17.001Z</time></trkpt><trkpt lat="46.16011701162159" lon="10.185600518839221"><ele>1112.5</ele><time>2026-04-27T11:05:18.001Z</time></trkpt><trkpt lat="46.160038861099686" lon="10.1857551816624"><ele>1113.0</ele><time>2026-04-27T11:05:19.001Z</time></trkpt><trkpt lat="46.15993878099921" lon="10.18593608369249"><ele>1113.5</ele><time>2026-04-27T11:05:20.001Z</time></trkpt><trkpt lat="46.15984139837666" lon="10.18610678139225"><ele>1114.0</ele><time>2026-04-27T11:05:21.001Z</time></trkpt><trkpt lat="46.159740653007404" lon="10.186240697977594"><ele>1113.6666666666665</ele><time>2026-04-27T11:05:22.001Z</time></trkpt><trkpt lat="46.159630569611515" lon="10.18638113741856"><ele>1113.3333333333333</ele><time>2026-04-27T11:05:23.001Z</time></trkpt><trkpt lat="46.159527317174785" lon="10.186574400072164"><ele>1113.0</ele><time>2026-04-27T11:05:24.001Z</time></trkpt><trkpt lat="46.15946038370513" lon="10.186790762387812"><ele>1113.0</ele><time>2026-04-27T11:05:25.001Z</time></trkpt><trkpt lat="46.15941088437842" lon="10.186984441892271"><ele>1113.0</ele><time>2026-04-27T11:05:26.001Z</time></trkpt><trkpt lat="46.15937256721651" lon="10.187218013574647"><ele>1113.0</ele><time>2026-04-27T11:05:27.001Z</time></trkpt><trkpt lat="46.15937947767697" lon="10.187477360906872"><ele>1110.5</ele><time>2026-04-27T11:05:28.001Z</time></trkpt><trkpt lat="46.15940367720846" lon="10.187697600009528"><ele>1108.0</ele><time>2026-04-27T11:05:29.001Z</time></trkpt><trkpt lat="46.15943077140584" lon="10.187887025972126"><ele>1105.5</ele><time>2026-04-27T11:05:30.001Z</time></trkpt><trkpt lat="46.159486278310204" lon="10.18810131425554"><ele>1103.0</ele><time>2026-04-27T11:05:31.001Z</time></trkpt><trkpt lat="46.15955217827914" lon="10.188264918478277"><ele>1102.25</ele><time>2026-04-27T11:05:32.001Z</time></trkpt><trkpt lat="46.15965185747786" lon="10.18841782556406"><ele>1101.5</ele><time>2026-04-27T11:05:33.001Z</time></trkpt><trkpt lat="46.15975514366964" lon="10.188555876864472"><ele>1100.75</ele><time>2026-04-27T11:05:34.001Z</time></trkpt><trkpt lat="46.15984515512019" lon="10.188701041209084"><ele>1100.0</ele><time>2026-04-27T11:05:35.001Z</time></trkpt><trkpt lat="46.15996188127344" lon="10.188823747255004"><ele>1101.0</ele><time>2026-04-27T11:05:36.001Z</time></trkpt><trkpt lat="46.16005172126706" lon="10.188983350964971"><ele>1102.0</ele><time>2026-04-27T11:05:37.001Z</time></trkpt><trkpt lat="46.16011204292232" lon="10.189183410877527"><ele>1103.0</ele><time>2026-04-27T11:05:38.001Z</time></trkpt><trkpt lat="46.160163405923676" lon="10.189405138129384"><ele>1103.0</ele><time>2026-04-27T11:05:39.001Z</time></trkpt><trkpt lat="46.1602412627801" lon="10.189577659374912"><ele>1103.0</ele><time>2026-04-27T11:05:40.001Z</time></trkpt><trkpt lat="46.16035424963347" lon="10.189748815567413"><ele>1103.0</ele><time>2026-04-27T11:05:41.001Z</time></trkpt><trkpt lat="46.16048317224069" lon="10.189911073924279"><ele>1104.3333333333335</ele><time>2026-04-27T11:05:42.001Z</time></trkpt><trkpt lat="46.160618036451034" lon="10.190052194945103"><ele>1105.6666666666667</ele><time>2026-04-27T11:05:43.001Z</time></trkpt><trkpt lat="46.16076319170073" lon="10.190161285355737"><ele>1107.0</ele><time>2026-04-27T11:05:44.001Z</time></trkpt><trkpt lat="46.16091034109181" lon="10.190238188812401"><ele>1107.0</ele><time>2026-04-27T11:05:45.001Z</time></trkpt><trkpt lat="46.161035710995684" lon="10.19032321738008"><ele>1107.0</ele><time>2026-04-27T11:05:46.001Z</time></trkpt><trkpt lat="46.16116008208436" lon="10.190405739837166"><ele>1107.0</ele><time>2026-04-27T11:05:47.001Z</time></trkpt><trkpt lat="46.16126679024097" lon="10.190505678791393"><ele>1107.0</ele><time>2026-04-27T11:05:48.001Z</time></trkpt><trkpt lat="46.161355754364486" lon="10.190650894461884"><ele>1097.6666666666667</ele><time>2026-04-27T11:05:49.001Z</time></trkpt><trkpt lat="46.16139768522215" lon="10.190837445153509"><ele>1088.3333333333335</ele><time>2026-04-27T11:05:50.001Z</time></trkpt><trkpt lat="46.16141375910014" lon="10.19105279775194"><ele>1079.0</ele><time>2026-04-27T11:05:51.001Z</time></trkpt><trkpt lat="46.161404053201174" lon="10.191291936615567"><ele>1077.6666666666667</ele><time>2026-04-27T11:05:52.001Z</time></trkpt><trkpt lat="46.16141095128815" lon="10.191517926148052"><ele>1076.3333333333333</ele><time>2026-04-27T11:05:53.001Z</time></trkpt><trkpt lat="46.16143087219042" lon="10.191747382477727"><ele>1075.0</ele><time>2026-04-27T11:05:54.001Z</time></trkpt><trkpt lat="46.161468528462926" lon="10.191989217439584"><ele>1075.0</ele><time>2026-04-27T11:05:55.001Z</time></trkpt><trkpt lat="46.161510800134295" lon="10.192189674343927"><ele>1075.0</ele><time>2026-04-27T11:05:56.001Z</time></trkpt><trkpt lat="46.161581313991356" lon="10.192403818202056"><ele>1075.0</ele><time>2026-04-27T11:05:57.001Z</time></trkpt><trkpt lat="46.16161852271523" lon="10.192600724986276"><ele>1076.3333333333333</ele><time>2026-04-27T11:05:58.001Z</time></trkpt><trkpt lat="46.161637300516254" lon="10.192816761003906"><ele>1077.6666666666667</ele><time>2026-04-27T11:05:59.001Z</time></trkpt><trkpt lat="46.161626419744145" lon="10.193049134610474"><ele>1079.0</ele><time>2026-04-27T11:06:00.001Z</time></trkpt><trkpt lat="46.16163757692617" lon="10.19328877465398"><ele>1079.0</ele><time>2026-04-27T11:06:01.001Z</time></trkpt><trkpt lat="46.161681959816555" lon="10.193528258283889"><ele>1079.0</ele><time>2026-04-27T11:06:02.001Z</time></trkpt><trkpt lat="46.16172095188118" lon="10.193775297531467"><ele>1079.0</ele><time>2026-04-27T11:06:03.001Z</time></trkpt><trkpt lat="46.161769783772314" lon="10.194010743889054"><ele>1079.3333333333335</ele><time>2026-04-27T11:06:04.001Z</time></trkpt><trkpt lat="46.161828168147814" lon="10.194254729168268"><ele>1079.6666666666667</ele><time>2026-04-27T11:06:05.001Z</time></trkpt><trkpt lat="46.16190097916414" lon="10.194459901112381"><ele>1080.0</ele><time>2026-04-27T11:06:06.001Z</time></trkpt><trkpt lat="46.161958177884095" lon="10.19466979918951"><ele>1079.0</ele><time>2026-04-27T11:06:07.001Z</time></trkpt><trkpt lat="46.16199837875663" lon="10.194914707366111"><ele>1078.0</ele><time>2026-04-27T11:06:08.001Z</time></trkpt><trkpt lat="46.162020650690735" lon="10.195153939345603"><ele>1077.0</ele><time>2026-04-27T11:06:09.001Z</time></trkpt><trkpt lat="46.162056643246586" lon="10.195372514903223"><ele>1077.0</ele><time>2026-04-27T11:06:10.001Z</time></trkpt><trkpt lat="46.16211861605544" lon="10.195608634647616"><ele>1077.0</ele><time>2026-04-27T11:06:11.001Z</time></trkpt><trkpt lat="46.16220243064188" lon="10.1958401894359"><ele>1077.0</ele><time>2026-04-27T11:06:12.001Z</time></trkpt><trkpt lat="46.16229026412279" lon="10.196052655208021"><ele>1079.0</ele><time>2026-04-27T11:06:13.001Z</time></trkpt><trkpt lat="46.162366394152265" lon="10.196272331570132"><ele>1081.0</ele><time>2026-04-27T11:06:14.001Z</time></trkpt><trkpt lat="46.16244775682903" lon="10.196477643535477"><ele>1083.0</ele><time>2026-04-27T11:06:15.001Z</time></trkpt><trkpt lat="46.16252254763588" lon="10.196691153966032"><ele>1077.6666666666667</ele><time>2026-04-27T11:06:16.001Z</time></trkpt><trkpt lat="46.162575453502804" lon="10.196956509813267"><ele>1072.3333333333335</ele><time>2026-04-27T11:06:17.001Z</time></trkpt><trkpt lat="46.16261164291957" lon="10.197214954925297"><ele>1067.0</ele><time>2026-04-27T11:06:18.001Z</time></trkpt><trkpt lat="46.162622272875595" lon="10.197467278761872"><ele>1065.0</ele><time>2026-04-27T11:06:19.001Z</time></trkpt><trkpt lat="46.16262172232668" lon="10.197698653776266"><ele>1063.0</ele><time>2026-04-27T11:06:20.001Z</time></trkpt><trkpt lat="46.16261677200052" lon="10.197927041496714"><ele>1061.0</ele><time>2026-04-27T11:06:21.001Z</time></trkpt><trkpt lat="46.162617305945595" lon="10.198146929152301"><ele>1061.5</ele><time>2026-04-27T11:06:22.001Z</time></trkpt><trkpt lat="46.16260231668431" lon="10.198346813124031"><ele>1062.0</ele><time>2026-04-27T11:06:23.001Z</time></trkpt><trkpt lat="46.16256852261676" lon="10.198540212782646"><ele>1062.5</ele><time>2026-04-27T11:06:24.001Z</time></trkpt><trkpt lat="46.16250077421733" lon="10.198730569800434"><ele>1063.0</ele><time>2026-04-27T11:06:25.001Z</time></trkpt><trkpt lat="46.162436096040544" lon="10.198920075904233"><ele>1064.0</ele><time>2026-04-27T11:06:26.001Z</time></trkpt><trkpt lat="46.16240032231382" lon="10.199118512984713"><ele>1065.0</ele><time>2026-04-27T11:06:27.001Z</time></trkpt><trkpt lat="46.16238477237788" lon="10.199349563396755"><ele>1066.0</ele><time>2026-04-27T11:06:28.001Z</time></trkpt><trkpt lat="46.16238490024334" lon="10.199574983630614"><ele>1066.0</ele><time>2026-04-27T11:06:29.001Z</time></trkpt><trkpt lat="46.16240635304442" lon="10.199790822747113"><ele>1066.0</ele><time>2026-04-27T11:06:30.001Z</time></trkpt><trkpt lat="46.16243581165019" lon="10.20002010632123"><ele>1066.0</ele><time>2026-04-27T11:06:31.001Z</time></trkpt><trkpt lat="46.16248255063585" lon="10.200254187379155"><ele>1063.25</ele><time>2026-04-27T11:06:32.001Z</time></trkpt><trkpt lat="46.16254809273466" lon="10.200467712999247"><ele>1060.5</ele><time>2026-04-27T11:06:33.001Z</time></trkpt><trkpt lat="46.16261393896971" lon="10.200654665738007"><ele>1057.75</ele><time>2026-04-27T11:06:34.001Z</time></trkpt><trkpt lat="46.162654715770465" lon="10.200842250524026"><ele>1055.0</ele><time>2026-04-27T11:06:35.001Z</time></trkpt><trkpt lat="46.16264086272677" lon="10.201043885560011"><ele>1053.0</ele><time>2026-04-27T11:06:36.001Z</time></trkpt><trkpt lat="46.16267142758786" lon="10.201247535576634"><ele>1051.0</ele><time>2026-04-27T11:06:37.001Z</time></trkpt><trkpt lat="46.16271790281686" lon="10.201418055828649"><ele>1049.0</ele><time>2026-04-27T11:06:38.001Z</time></trkpt><trkpt lat="46.16280481364928" lon="10.201555037192007"><ele>1047.0</ele><time>2026-04-27T11:06:39.001Z</time></trkpt><trkpt lat="46.162940314454346" lon="10.201672271771018"><ele>1045.3333333333333</ele><time>2026-04-27T11:06:40.001Z</time></trkpt><trkpt lat="46.163086608124495" lon="10.201781933244773"><ele>1043.6666666666665</ele><time>2026-04-27T11:06:41.001Z</time></trkpt><trkpt lat="46.16323822244898" lon="10.201887476686375"><ele>1042.0</ele><time>2026-04-27T11:06:42.001Z</time></trkpt><trkpt lat="46.16339518930856" lon="10.202010086918365"><ele>1038.75</ele><time>2026-04-27T11:06:43.001Z</time></trkpt><trkpt lat="46.16352378923681" lon="10.202122715477849"><ele>1035.5</ele><time>2026-04-27T11:06:44.001Z</time></trkpt><trkpt lat="46.163646092566225" lon="10.202227940524537"><ele>1032.25</ele><time>2026-04-27T11:06:45.001Z</time></trkpt><trkpt lat="46.16375561938908" lon="10.202323770021264"><ele>1029.0</ele><time>2026-04-27T11:06:46.001Z</time></trkpt><trkpt lat="46.16385860855052" lon="10.20243802486571"><ele>1029.0</ele><time>2026-04-27T11:06:47.001Z</time></trkpt><trkpt lat="46.16394201741097" lon="10.20260640205498"><ele>1029.0</ele><time>2026-04-27T11:06:48.001Z</time></trkpt><trkpt lat="46.16398300665718" lon="10.202823867515027"><ele>1029.0</ele><time>2026-04-27T11:06:49.001Z</time></trkpt><trkpt lat="46.16401199147431" lon="10.203080505898352"><ele>1028.75</ele><time>2026-04-27T11:06:50.001Z</time></trkpt><trkpt lat="46.163989754948375" lon="10.203302016968902"><ele>1028.5</ele><time>2026-04-27T11:06:51.001Z</time></trkpt><trkpt lat="46.16395359933999" lon="10.203508418128697"><ele>1028.25</ele><time>2026-04-27T11:06:52.001Z</time></trkpt><trkpt lat="46.16393537760369" lon="10.203678041537826"><ele>1028.0</ele><time>2026-04-27T11:06:53.001Z</time></trkpt><trkpt lat="46.16391322165282" lon="10.20386122808249"><ele>1029.0</ele><time>2026-04-27T11:06:54.001Z</time></trkpt><trkpt lat="46.16391421627226" lon="10.204053549019354"><ele>1030.0</ele><time>2026-04-27T11:06:55.001Z</time></trkpt><trkpt lat="46.163924838503476" lon="10.204269721334454"><ele>1031.0</ele><time>2026-04-27T11:06:56.001Z</time></trkpt><trkpt lat="46.163974458272506" lon="10.204500835119887"><ele>1031.0</ele><time>2026-04-27T11:06:57.001Z</time></trkpt><trkpt lat="46.164025324589765" lon="10.204662839379207"><ele>1031.0</ele><time>2026-04-27T11:06:58.001Z</time></trkpt><trkpt lat="46.1640819380829" lon="10.204877668487809"><ele>1031.0</ele><time>2026-04-27T11:06:59.001Z</time></trkpt><trkpt lat="46.16415100319085" lon="10.20507605464425"><ele>1031.0</ele><time>2026-04-27T11:07:00.001Z</time></trkpt><trkpt lat="46.164205211490824" lon="10.205279277925799"><ele>1031.6666666666667</ele><time>2026-04-27T11:07:01.001Z</time></trkpt><trkpt lat="46.16424666187877" lon="10.205511184064184"><ele>1032.3333333333333</ele><time>2026-04-27T11:07:02.001Z</time></trkpt><trkpt lat="46.16426640389793" lon="10.205767961061154"><ele>1033.0</ele><time>2026-04-27T11:07:03.001Z</time></trkpt><trkpt lat="46.164268171120234" lon="10.205998049148775"><ele>1031.75</ele><time>2026-04-27T11:07:04.001Z</time></trkpt><trkpt lat="46.16425892091973" lon="10.206202765927303"><ele>1030.5</ele><time>2026-04-27T11:07:05.001Z</time></trkpt><trkpt lat="46.1642534805153" lon="10.206410292810252"><ele>1029.25</ele><time>2026-04-27T11:07:06.001Z</time></trkpt><trkpt lat="46.16423929011293" lon="10.206582952793278"><ele>1028.0</ele><time>2026-04-27T11:07:07.001Z</time></trkpt><trkpt lat="46.16423909026367" lon="10.206797442160672"><ele>1027.75</ele><time>2026-04-27T11:07:08.001Z</time></trkpt><trkpt lat="46.164261799263144" lon="10.207008559219078"><ele>1027.5</ele><time>2026-04-27T11:07:09.001Z</time></trkpt><trkpt lat="46.16431186485344" lon="10.20720326878757"><ele>1027.25</ele><time>2026-04-27T11:07:10.001Z</time></trkpt><trkpt lat="46.16435761274943" lon="10.207379886246567"><ele>1027.0</ele><time>2026-04-27T11:07:11.001Z</time></trkpt><trkpt lat="46.16439493076504" lon="10.207532668592064"><ele>1024.6</ele><time>2026-04-27T11:07:12.001Z</time></trkpt><trkpt lat="46.16444481705688" lon="10.207679630156479"><ele>1022.2</ele><time>2026-04-27T11:07:13.001Z</time></trkpt><trkpt lat="46.1645244500443" lon="10.207795556030973"><ele>1019.8</ele><time>2026-04-27T11:07:14.001Z</time></trkpt><trkpt lat="46.164604560335256" lon="10.207867645409081"><ele>1017.4</ele><time>2026-04-27T11:07:15.001Z</time></trkpt><trkpt lat="46.16471675845224" lon="10.207924211058275"><ele>1015.0</ele><time>2026-04-27T11:07:16.001Z</time></trkpt><trkpt lat="46.16485327616278" lon="10.20794180451838"><ele>1012.75</ele><time>2026-04-27T11:07:17.001Z</time></trkpt><trkpt lat="46.164965420111265" lon="10.207930378585333"><ele>1010.5</ele><time>2026-04-27T11:07:18.001Z</time></trkpt><trkpt lat="46.1650810881328" lon="10.208028614168997"><ele>1008.25</ele><time>2026-04-27T11:07:19.001Z</time></trkpt><trkpt lat="46.16522204965658" lon="10.208106468661347"><ele>1006.0</ele><time>2026-04-27T11:07:20.001Z</time></trkpt><trkpt lat="46.16535593537904" lon="10.208213847782089"><ele>1006.0</ele><time>2026-04-27T11:07:21.001Z</time></trkpt><trkpt lat="46.16547387078879" lon="10.208354504829058"><ele>1006.0</ele><time>2026-04-27T11:07:22.001Z</time></trkpt><trkpt lat="46.16559616239875" lon="10.208501713481056"><ele>1006.0</ele><time>2026-04-27T11:07:23.001Z</time></trkpt><trkpt lat="46.16572106426919" lon="10.208626786923032"><ele>1006.6666666666666</ele><time>2026-04-27T11:07:24.001Z</time></trkpt><trkpt lat="46.1658397749021" lon="10.208741665158614"><ele>1007.3333333333333</ele><time>2026-04-27T11:07:25.001Z</time></trkpt><trkpt lat="46.16597598311965" lon="10.208864371711588"><ele>1008.0</ele><time>2026-04-27T11:07:26.001Z</time></trkpt><trkpt lat="46.166085510398325" lon="10.20901366649531"><ele>1008.0</ele><time>2026-04-27T11:07:27.001Z</time></trkpt><trkpt lat="46.166161851885406" lon="10.209198059081425"><ele>1008.0</ele><time>2026-04-27T11:07:28.001Z</time></trkpt><trkpt lat="46.16621589348706" lon="10.20939436751246"><ele>1008.0</ele><time>2026-04-27T11:07:29.001Z</time></trkpt><trkpt lat="46.16625362487965" lon="10.209597126171682"><ele>1008.0</ele><time>2026-04-27T11:07:30.001Z</time></trkpt><trkpt lat="46.16626283741902" lon="10.209809711910957"><ele>1004.3333333333333</ele><time>2026-04-27T11:07:31.001Z</time></trkpt><trkpt lat="46.166259339355385" lon="10.210044031379224"><ele>1000.6666666666666</ele><time>2026-04-27T11:07:32.001Z</time></trkpt><trkpt lat="46.16625555681222" lon="10.210261374213216"><ele>997.0</ele><time>2026-04-27T11:07:33.001Z</time></trkpt><trkpt lat="46.16625484279451" lon="10.21046488302651"><ele>994.6666666666666</ele><time>2026-04-27T11:07:34.001Z</time></trkpt><trkpt lat="46.16627179201202" lon="10.21069016747312"><ele>992.3333333333333</ele><time>2026-04-27T11:07:35.001Z</time></trkpt><trkpt lat="46.16630354349995" lon="10.210919266838186"><ele>990.0</ele><time>2026-04-27T11:07:36.001Z</time></trkpt><trkpt lat="46.166342377372274" lon="10.211161400899377"><ele>990.0</ele><time>2026-04-27T11:07:37.001Z</time></trkpt><trkpt lat="46.166365999415866" lon="10.21138810657709"><ele>990.0</ele><time>2026-04-27T11:07:38.001Z</time></trkpt><trkpt lat="46.166403327428085" lon="10.21159619951871"><ele>990.0</ele><time>2026-04-27T11:07:39.001Z</time></trkpt><trkpt lat="46.166426139565694" lon="10.21179742056158"><ele>990.0</ele><time>2026-04-27T11:07:40.001Z</time></trkpt><trkpt lat="46.16645611172238" lon="10.212012712038744"><ele>988.75</ele><time>2026-04-27T11:07:41.001Z</time></trkpt><trkpt lat="46.16647900012888" lon="10.212205461964215"><ele>987.5</ele><time>2026-04-27T11:07:42.001Z</time></trkpt><trkpt lat="46.16649904102701" lon="10.21241946517592"><ele>986.25</ele><time>2026-04-27T11:07:43.001Z</time></trkpt><trkpt lat="46.166518136850485" lon="10.2126504662228"><ele>985.0</ele><time>2026-04-27T11:07:44.001Z</time></trkpt><trkpt lat="46.166520235465256" lon="10.212929884522413"><ele>983.3333333333333</ele><time>2026-04-27T11:07:45.001Z</time></trkpt><trkpt lat="46.16652174897087" lon="10.213234811122451"><ele>981.6666666666667</ele><time>2026-04-27T11:07:46.001Z</time></trkpt><trkpt lat="46.16651181606917" lon="10.21354169101911"><ele>980.0</ele><time>2026-04-27T11:07:47.001Z</time></trkpt><trkpt lat="46.16647971733313" lon="10.213843624077494"><ele>980.0</ele><time>2026-04-27T11:07:48.001Z</time></trkpt><trkpt lat="46.16644347175002" lon="10.214140976289379"><ele>980.0</ele><time>2026-04-27T11:07:49.001Z</time></trkpt><trkpt lat="46.16641375406419" lon="10.214450883578202"><ele>980.0</ele><time>2026-04-27T11:07:50.001Z</time></trkpt><trkpt lat="46.166394852769834" lon="10.214725443198299"><ele>980.3333333333334</ele><time>2026-04-27T11:07:51.001Z</time></trkpt><trkpt lat="46.16637492936228" lon="10.214977068577703"><ele>980.6666666666667</ele><time>2026-04-27T11:07:52.001Z</time></trkpt><trkpt lat="46.166356648260376" lon="10.21518621334115"><ele>981.0</ele><time>2026-04-27T11:07:53.001Z</time></trkpt><trkpt lat="46.16634893564739" lon="10.215405023633373"><ele>981.0</ele><time>2026-04-27T11:07:54.001Z</time></trkpt><trkpt lat="46.16635064259551" lon="10.215585139805135"><ele>981.0</ele><time>2026-04-27T11:07:55.001Z</time></trkpt><trkpt lat="46.166369226163525" lon="10.215765653716371"><ele>981.0</ele><time>2026-04-27T11:07:56.001Z</time></trkpt><trkpt lat="46.16642825123322" lon="10.215935534396374"><ele>981.0</ele><time>2026-04-27T11:07:57.001Z</time></trkpt><trkpt lat="46.16651910451697" lon="10.216067348095628"><ele>984.0</ele><time>2026-04-27T11:07:58.001Z</time></trkpt><trkpt lat="46.16657445723385" lon="10.216221590461522"><ele>987.0</ele><time>2026-04-27T11:07:59.001Z</time></trkpt><trkpt lat="46.1665927980292" lon="10.216426494594856"><ele>990.0</ele><time>2026-04-27T11:08:00.001Z</time></trkpt><trkpt lat="46.16655579736436" lon="10.21664811993435"><ele>993.0</ele><time>2026-04-27T11:08:01.001Z</time></trkpt><trkpt lat="46.16653134526308" lon="10.216899976543193"><ele>989.3333333333333</ele><time>2026-04-27T11:08:02.001Z</time></trkpt><trkpt lat="46.16650668025508" lon="10.217175728339024"><ele>985.6666666666666</ele><time>2026-04-27T11:08:03Z</time></trkpt><trkpt lat="46.16649076101268" lon="10.217427352696275"><ele>982.0</ele><time>2026-04-27T11:08:04Z</time></trkpt><trkpt lat="46.16649901823242" lon="10.217685555128961"><ele>982.0</ele><time>2026-04-27T11:08:05Z</time></trkpt><trkpt lat="46.16650837779695" lon="10.217941555736736"><ele>982.0</ele><time>2026-04-27T11:08:06Z</time></trkpt><trkpt lat="46.16650515723222" lon="10.218196731973102"><ele>982.0</ele><time>2026-04-27T11:08:07Z</time></trkpt><trkpt lat="46.166479773288685" lon="10.218464510058652"><ele>980.6666666666666</ele><time>2026-04-27T11:08:08Z</time></trkpt><trkpt lat="46.166428682034876" lon="10.218703358724554"><ele>979.3333333333333</ele><time>2026-04-27T11:08:09Z</time></trkpt><trkpt lat="46.16641608126838" lon="10.21895732019265"><ele>978.0</ele><time>2026-04-27T11:08:10Z</time></trkpt><trkpt lat="46.16642642709785" lon="10.219205424974726"><ele>976.3333333333333</ele><time>2026-04-27T11:08:11Z</time></trkpt><trkpt lat="46.16644455304147" lon="10.219454245779499"><ele>974.6666666666666</ele><time>2026-04-27T11:08:12Z</time></trkpt><trkpt lat="46.1664625474418" lon="10.219681210838928"><ele>973.0</ele><time>2026-04-27T11:08:13Z</time></trkpt><trkpt lat="46.16646337739402" lon="10.21988756556658"><ele>971.3333333333333</ele><time>2026-04-27T11:08:14Z</time></trkpt><trkpt lat="46.16642036940543" lon="10.220083029050105"><ele>969.6666666666667</ele><time>2026-04-27T11:08:15Z</time></trkpt><trkpt lat="46.16634583217574" lon="10.220258086583556"><ele>968.0</ele><time>2026-04-27T11:08:16Z</time></trkpt><trkpt lat="46.16628560367482" lon="10.220487570462023"><ele>967.75</ele><time>2026-04-27T11:08:17Z</time></trkpt><trkpt lat="46.166213549345535" lon="10.2206745304322"><ele>967.5</ele><time>2026-04-27T11:08:18Z</time></trkpt><trkpt lat="46.166147347641186" lon="10.220872794755858"><ele>967.25</ele><time>2026-04-27T11:08:19Z</time></trkpt><trkpt lat="46.16608946332772" lon="10.22105930533781"><ele>967.0</ele><time>2026-04-27T11:08:20Z</time></trkpt><trkpt lat="46.166025600933686" lon="10.221237482390851"><ele>967.0</ele><time>2026-04-27T11:08:21Z</time></trkpt><trkpt lat="46.16599875491087" lon="10.221422223490709"><ele>967.0</ele><time>2026-04-27T11:08:22Z</time></trkpt><trkpt lat="46.1660093782004" lon="10.221621219069956"><ele>967.0</ele><time>2026-04-27T11:08:23Z</time></trkpt><trkpt lat="46.16606964472857" lon="10.221829357235885"><ele>967.0</ele><time>2026-04-27T11:08:24Z</time></trkpt><trkpt lat="46.16615619419315" lon="10.222054023489047"><ele>967.0</ele><time>2026-04-27T11:08:25Z</time></trkpt><trkpt lat="46.166250603753014" lon="10.222265783859525"><ele>967.0</ele><time>2026-04-27T11:08:26Z</time></trkpt><trkpt lat="46.16636887318491" lon="10.222436510572981"><ele>967.0</ele><time>2026-04-27T11:08:27Z</time></trkpt><trkpt lat="46.166461090921295" lon="10.222574763475828"><ele>969.0</ele><time>2026-04-27T11:08:28Z</time></trkpt><trkpt lat="46.16652253412713" lon="10.222769114099197"><ele>971.0</ele><time>2026-04-27T11:08:29Z</time></trkpt><trkpt lat="46.16658966772368" lon="10.223013444160486"><ele>973.0</ele><time>2026-04-27T11:08:30Z</time></trkpt><trkpt lat="46.166655665780766" lon="10.223237854668792"><ele>973.0</ele><time>2026-04-27T11:08:31Z</time></trkpt><trkpt lat="46.16670605316351" lon="10.223437505205029"><ele>973.0</ele><time>2026-04-27T11:08:32Z</time></trkpt><trkpt lat="46.166744433687846" lon="10.223640547324052"><ele>973.0</ele><time>2026-04-27T11:08:33Z</time></trkpt><trkpt lat="46.166762533086484" lon="10.223879147780192"><ele>970.3333333333333</ele><time>2026-04-27T11:08:34Z</time></trkpt><trkpt lat="46.1668148143923" lon="10.224135385121743"><ele>967.6666666666667</ele><time>2026-04-27T11:08:35Z</time></trkpt><trkpt lat="46.16682195985541" lon="10.224389436380722"><ele>965.0</ele><time>2026-04-27T11:08:36Z</time></trkpt><trkpt lat="46.16684146449769" lon="10.22463983858651"><ele>964.0</ele><time>2026-04-27T11:08:37Z</time></trkpt><trkpt lat="46.16685738818107" lon="10.224858619434105"><ele>963.0</ele><time>2026-04-27T11:08:38Z</time></trkpt><trkpt lat="46.16687108422075" lon="10.225068079879575"><ele>962.0</ele><time>2026-04-27T11:08:39Z</time></trkpt><trkpt lat="46.16687266033242" lon="10.225270797143505"><ele>961.0</ele><time>2026-04-27T11:08:40Z</time></trkpt><trkpt lat="46.16684854806198" lon="10.225485365662358"><ele>961.0</ele><time>2026-04-27T11:08:41Z</time></trkpt><trkpt lat="46.1667871185248" lon="10.225722636349701"><ele>961.0</ele><time>2026-04-27T11:08:42Z</time></trkpt><trkpt lat="46.16668102246907" lon="10.22595502473486"><ele>961.0</ele><time>2026-04-27T11:08:43Z</time></trkpt><trkpt lat="46.16659739499879" lon="10.226210445084543"><ele>963.6666666666666</ele><time>2026-04-27T11:08:44Z</time></trkpt><trkpt lat="46.1665238599443" lon="10.226470661045962"><ele>966.3333333333333</ele><time>2026-04-27T11:08:45Z</time></trkpt><trkpt lat="46.16647869838978" lon="10.226751223567266"><ele>969.0</ele><time>2026-04-27T11:08:46Z</time></trkpt><trkpt lat="46.1664559010939" lon="10.227030521598659"><ele>969.0</ele><time>2026-04-27T11:08:47Z</time></trkpt><trkpt lat="46.16642399104766" lon="10.227299225040973"><ele>969.0</ele><time>2026-04-27T11:08:48Z</time></trkpt><trkpt lat="46.166388345252834" lon="10.227569657638902"><ele>969.0</ele><time>2026-04-27T11:08:49Z</time></trkpt><trkpt lat="46.166348147058024" lon="10.227836553083039"><ele>970.3333333333333</ele><time>2026-04-27T11:08:50Z</time></trkpt><trkpt lat="46.16628640418014" lon="10.228079637814988"><ele>971.6666666666666</ele><time>2026-04-27T11:08:51Z</time></trkpt><trkpt lat="46.16623907171496" lon="10.22834072235805"><ele>973.0</ele><time>2026-04-27T11:08:52Z</time></trkpt><trkpt lat="46.16620097466843" lon="10.228624322691749"><ele>973.0</ele><time>2026-04-27T11:08:53Z</time></trkpt><trkpt lat="46.1661520135705" lon="10.228880499734444"><ele>973.0</ele><time>2026-04-27T11:08:54Z</time></trkpt><trkpt lat="46.16610340116347" lon="10.229141268893736"><ele>973.0</ele><time>2026-04-27T11:08:55Z</time></trkpt><trkpt lat="46.166054906004526" lon="10.229380096630793"><ele>972.3333333333333</ele><time>2026-04-27T11:08:56Z</time></trkpt><trkpt lat="46.16600403261725" lon="10.22964319053933"><ele>971.6666666666667</ele><time>2026-04-27T11:08:57Z</time></trkpt><trkpt lat="46.16595646318823" lon="10.229875420894112"><ele>971.0</ele><time>2026-04-27T11:08:58Z</time></trkpt><trkpt lat="46.16591501053103" lon="10.230097168589445"><ele>970.6666666666667</ele><time>2026-04-27T11:08:59Z</time></trkpt><trkpt lat="46.16586258543854" lon="10.23030776387579"><ele>970.3333333333333</ele><time>2026-04-27T11:09:00Z</time></trkpt><trkpt lat="46.16582125975426" lon="10.230513855815257"><ele>970.0</ele><time>2026-04-27T11:09:01Z</time></trkpt><trkpt lat="46.165792592935546" lon="10.230721013440963"><ele>971.0</ele><time>2026-04-27T11:09:02Z</time></trkpt><trkpt lat="46.165725726997195" lon="10.230896572843434"><ele>972.0</ele><time>2026-04-27T11:09:03Z</time></trkpt><trkpt lat="46.165648790089705" lon="10.23106011185787"><ele>973.0</ele><time>2026-04-27T11:09:04Z</time></trkpt><trkpt lat="46.16556636412744" lon="10.23119595563881"><ele>974.0</ele><time>2026-04-27T11:09:05Z</time></trkpt><trkpt lat="46.16550277467031" lon="10.231351800401015"><ele>976.0</ele><time>2026-04-27T11:09:06Z</time></trkpt><trkpt lat="46.165465498914436" lon="10.231556153015166"><ele>978.0</ele><time>2026-04-27T11:09:07Z</time></trkpt><trkpt lat="46.16545719314397" lon="10.231771758078443"><ele>980.0</ele><time>2026-04-27T11:09:08Z</time></trkpt><trkpt lat="46.16547287266463" lon="10.232006557669976"><ele>980.0</ele><time>2026-04-27T11:09:09Z</time></trkpt><trkpt lat="46.165510192662914" lon="10.232255587404103"><ele>980.0</ele><time>2026-04-27T11:09:10Z</time></trkpt><trkpt lat="46.16557112750868" lon="10.232480297966365"><ele>980.0</ele><time>2026-04-27T11:09:11Z</time></trkpt><trkpt lat="46.165641636742194" lon="10.23270485021004"><ele>976.3333333333334</ele><time>2026-04-27T11:09:12Z</time></trkpt><trkpt lat="46.16570903874409" lon="10.23295290858426"><ele>972.6666666666667</ele><time>2026-04-27T11:09:13Z</time></trkpt><trkpt lat="46.165775477262116" lon="10.233184816616788"><ele>969.0</ele><time>2026-04-27T11:09:14Z</time></trkpt><trkpt lat="46.165844370393756" lon="10.233405780439163"><ele>965.6666666666667</ele><time>2026-04-27T11:09:15Z</time></trkpt><trkpt lat="46.16593449320191" lon="10.233601658816735"><ele>962.3333333333334</ele><time>2026-04-27T11:09:16Z</time></trkpt><trkpt lat="46.16603161070121" lon="10.23378370468535"><ele>959.0</ele><time>2026-04-27T11:09:17Z</time></trkpt><trkpt lat="46.166124669227166" lon="10.233929713990781"><ele>959.75</ele><time>2026-04-27T11:09:18Z</time></trkpt><trkpt lat="46.16616144577731" lon="10.234087201882339"><ele>960.5</ele><time>2026-04-27T11:09:19Z</time></trkpt><trkpt lat="46.166204419926586" lon="10.234207926571386"><ele>961.25</ele><time>2026-04-27T11:09:20Z</time></trkpt><trkpt lat="46.16626907422502" lon="10.234379555906067"><ele>962.0</ele><time>2026-04-27T11:09:21Z</time></trkpt><trkpt lat="46.16621440058442" lon="10.234604333705395"><ele>958.6666666666667</ele><time>2026-04-27T11:09:22Z</time></trkpt><trkpt lat="46.166155758064654" lon="10.234820925037615"><ele>955.3333333333333</ele><time>2026-04-27T11:09:23Z</time></trkpt><trkpt lat="46.16614631752477" lon="10.235064431118245"><ele>952.0</ele><time>2026-04-27T11:09:24Z</time></trkpt><trkpt lat="46.16612919897838" lon="10.235321961206163"><ele>952.0</ele><time>2026-04-27T11:09:25Z</time></trkpt><trkpt lat="46.166104774777104" lon="10.235583017839888"><ele>952.0</ele><time>2026-04-27T11:09:26Z</time></trkpt><trkpt lat="46.166079501744385" lon="10.235850031746171"><ele>952.0</ele><time>2026-04-27T11:09:27.001Z</time></trkpt><trkpt lat="46.166056127506884" lon="10.236130247302814"><ele>952.3333333333333</ele><time>2026-04-27T11:09:28.001Z</time></trkpt><trkpt lat="46.16603163064684" lon="10.236411652418386"><ele>952.6666666666667</ele><time>2026-04-27T11:09:29.001Z</time></trkpt><trkpt lat="46.16600987637458" lon="10.236703704519723"><ele>953.0</ele><time>2026-04-27T11:09:30.001Z</time></trkpt><trkpt lat="46.16598908685581" lon="10.237001026586023"><ele>953.0</ele><time>2026-04-27T11:09:31.001Z</time></trkpt><trkpt lat="46.165965361630185" lon="10.23728946921613"><ele>953.0</ele><time>2026-04-27T11:09:32.001Z</time></trkpt><trkpt lat="46.16594211811063" lon="10.237558369349445"><ele>953.0</ele><time>2026-04-27T11:09:33.001Z</time></trkpt><trkpt lat="46.16655991499056" lon="10.23927070956759"><ele>951.3333333333334</ele><time>2026-04-27T11:09:41.001Z</time></trkpt><trkpt lat="46.1666505582851" lon="10.239509316075196"><ele>949.6666666666667</ele><time>2026-04-27T11:09:42.001Z</time></trkpt><trkpt lat="46.16667993119285" lon="10.239736090564033"><ele>948.0</ele><time>2026-04-27T11:09:43.001Z</time></trkpt><trkpt lat="46.166528049369234" lon="10.240133837144395"><ele>948.0</ele><time>2026-04-27T11:09:44.001Z</time></trkpt><trkpt lat="46.16662545474385" lon="10.240379666707192"><ele>948.0</ele><time>2026-04-27T11:09:45.001Z</time></trkpt><trkpt lat="46.166728383067806" lon="10.24064844601094"><ele>948.0</ele><time>2026-04-27T11:09:46.001Z</time></trkpt><trkpt lat="46.166842246460284" lon="10.240956555307088"><ele>942.3333333333333</ele><time>2026-04-27T11:09:47.001Z</time></trkpt><trkpt lat="46.16692262163174" lon="10.241196575371362"><ele>936.6666666666666</ele><time>2026-04-27T11:09:48.001Z</time></trkpt><trkpt lat="46.167021899301034" lon="10.241415498054701"><ele>931.0</ele><time>2026-04-27T11:09:49.001Z</time></trkpt><trkpt lat="46.16713090062837" lon="10.241594759998186"><ele>927.6666666666666</ele><time>2026-04-27T11:09:50.001Z</time></trkpt><trkpt lat="46.16721570174184" lon="10.241795119564124"><ele>924.3333333333333</ele><time>2026-04-27T11:09:51.001Z</time></trkpt><trkpt lat="46.167282006137135" lon="10.242036056567159"><ele>921.0</ele><time>2026-04-27T11:09:52Z</time></trkpt><trkpt lat="46.16734111521598" lon="10.242264379427812"><ele>922.75</ele><time>2026-04-27T11:09:53Z</time></trkpt><trkpt lat="46.16739471799253" lon="10.242455812803504"><ele>924.5</ele><time>2026-04-27T11:09:54Z</time></trkpt><trkpt lat="46.16747757255558" lon="10.242633655225728"><ele>926.25</ele><time>2026-04-27T11:09:55Z</time></trkpt><trkpt lat="46.16758507321758" lon="10.24277647991682"><ele>928.0</ele><time>2026-04-27T11:09:56Z</time></trkpt><trkpt lat="46.16769566711925" lon="10.242950567946497"><ele>924.6666666666666</ele><time>2026-04-27T11:09:57Z</time></trkpt><trkpt lat="46.16779842731515" lon="10.243159651454112"><ele>921.3333333333333</ele><time>2026-04-27T11:09:58Z</time></trkpt><trkpt lat="46.167888777244066" lon="10.243386518931128"><ele>918.0</ele><time>2026-04-27T11:09:59Z</time></trkpt><trkpt lat="46.1679813585562" lon="10.243597128539102"><ele>918.0</ele><time>2026-04-27T11:10:00Z</time></trkpt><trkpt lat="46.168070756007964" lon="10.243789906534237"><ele>918.0</ele><time>2026-04-27T11:10:01Z</time></trkpt><trkpt lat="46.168161001830775" lon="10.243950789757298"><ele>918.0</ele><time>2026-04-27T11:10:02Z</time></trkpt><trkpt lat="46.16827867579493" lon="10.244101440211363"><ele>918.0</ele><time>2026-04-27T11:10:03Z</time></trkpt><trkpt lat="46.16840593773391" lon="10.244244888432391"><ele>918.0</ele><time>2026-04-27T11:10:04Z</time></trkpt><trkpt lat="46.16855500812161" lon="10.24438731598378"><ele>918.0</ele><time>2026-04-27T11:10:05Z</time></trkpt><trkpt lat="46.16866502337109" lon="10.244599710268448"><ele>914.3333333333333</ele><time>2026-04-27T11:10:06Z</time></trkpt><trkpt lat="46.16873903613593" lon="10.244807083353761"><ele>910.6666666666666</ele><time>2026-04-27T11:10:07Z</time></trkpt><trkpt lat="46.16879807669103" lon="10.245025218496647"><ele>907.0</ele><time>2026-04-27T11:10:08Z</time></trkpt><trkpt lat="46.16887231300352" lon="10.245231508673893"><ele>907.0</ele><time>2026-04-27T11:10:09Z</time></trkpt><trkpt lat="46.16894446348984" lon="10.245458304225398"><ele>907.0</ele><time>2026-04-27T11:10:10Z</time></trkpt><trkpt lat="46.169008359082994" lon="10.245685860051934"><ele>907.0</ele><time>2026-04-27T11:10:11Z</time></trkpt><trkpt lat="46.169069327557814" lon="10.245912973329727"><ele>909.6666666666666</ele><time>2026-04-27T11:10:12Z</time></trkpt><trkpt lat="46.16913601743041" lon="10.246125814690672"><ele>912.3333333333333</ele><time>2026-04-27T11:10:13Z</time></trkpt><trkpt lat="46.16918803699576" lon="10.24631214029798"><ele>915.0</ele><time>2026-04-27T11:10:14Z</time></trkpt><trkpt lat="46.1692262752481" lon="10.24653523061627"><ele>915.0</ele><time>2026-04-27T11:10:15Z</time></trkpt><trkpt lat="46.169239040948675" lon="10.24674316434971"><ele>915.0</ele><time>2026-04-27T11:10:16Z</time></trkpt><trkpt lat="46.16924701083092" lon="10.246965243083368"><ele>915.0</ele><time>2026-04-27T11:10:17Z</time></trkpt><trkpt lat="46.16926368865687" lon="10.247170750854487"><ele>915.0</ele><time>2026-04-27T11:10:18Z</time></trkpt><trkpt lat="46.169252254951864" lon="10.247369719995477"><ele>912.3333333333333</ele><time>2026-04-27T11:10:19Z</time></trkpt><trkpt lat="46.169221886715654" lon="10.247581095157818"><ele>909.6666666666666</ele><time>2026-04-27T11:10:20Z</time></trkpt><trkpt lat="46.169163648738035" lon="10.24781641397645"><ele>907.0</ele><time>2026-04-27T11:10:21Z</time></trkpt><trkpt lat="46.16909700704874" lon="10.248054901581423"><ele>908.6666666666666</ele><time>2026-04-27T11:10:22Z</time></trkpt><trkpt lat="46.16903497975825" lon="10.248298505870135"><ele>910.3333333333333</ele><time>2026-04-27T11:10:23Z</time></trkpt><trkpt lat="46.16898083057796" lon="10.248518646316136"><ele>912.0</ele><time>2026-04-27T11:10:24Z</time></trkpt><trkpt lat="46.168931205663476" lon="10.248760629759134"><ele>908.6666666666667</ele><time>2026-04-27T11:10:25Z</time></trkpt><trkpt lat="46.16890186500721" lon="10.249020950892445"><ele>905.3333333333334</ele><time>2026-04-27T11:10:26Z</time></trkpt><trkpt lat="46.16891378520574" lon="10.249268640932083"><ele>902.0</ele><time>2026-04-27T11:10:27Z</time></trkpt><trkpt lat="46.16894074245943" lon="10.249519380872284"><ele>902.0</ele><time>2026-04-27T11:10:28Z</time></trkpt><trkpt lat="46.168963935588565" lon="10.249758892757425"><ele>902.0</ele><time>2026-04-27T11:10:29Z</time></trkpt><trkpt lat="46.16897445019091" lon="10.25001360555733"><ele>902.0</ele><time>2026-04-27T11:10:30Z</time></trkpt><trkpt lat="46.16902086248228" lon="10.250238767680209"><ele>903.3333333333334</ele><time>2026-04-27T11:10:31Z</time></trkpt><trkpt lat="46.169102983079014" lon="10.250452894669365"><ele>904.6666666666667</ele><time>2026-04-27T11:10:32Z</time></trkpt><trkpt lat="46.169191099591494" lon="10.250671505681265"><ele>906.0</ele><time>2026-04-27T11:10:33Z</time></trkpt><trkpt lat="46.169280575520155" lon="10.250878584712927"><ele>906.0</ele><time>2026-04-27T11:10:34Z</time></trkpt><trkpt lat="46.16935998098305" lon="10.251071014940566"><ele>906.0</ele><time>2026-04-27T11:10:35Z</time></trkpt><trkpt lat="46.16944102174245" lon="10.251252335906207"><ele>906.0</ele><time>2026-04-27T11:10:36Z</time></trkpt><trkpt lat="46.169525880974795" lon="10.25142069029777"><ele>906.0</ele><time>2026-04-27T11:10:37Z</time></trkpt><trkpt lat="46.16962951994885" lon="10.251547613703773"><ele>907.5</ele><time>2026-04-27T11:10:38Z</time></trkpt><trkpt lat="46.169751638406204" lon="10.251659240481029"><ele>909.0</ele><time>2026-04-27T11:10:39Z</time></trkpt><trkpt lat="46.16986747972658" lon="10.25175173064414"><ele>910.5</ele><time>2026-04-27T11:10:40Z</time></trkpt><trkpt lat="46.16997064369513" lon="10.25184157459919"><ele>912.0</ele><time>2026-04-27T11:10:41Z</time></trkpt><trkpt lat="46.17005942347287" lon="10.251937146557292"><ele>912.0</ele><time>2026-04-27T11:10:42Z</time></trkpt><trkpt lat="46.17015143360871" lon="10.252034791805496"><ele>912.0</ele><time>2026-04-27T11:10:43Z</time></trkpt><trkpt lat="46.17025970234787" lon="10.252118226569245"><ele>912.0</ele><time>2026-04-27T11:10:44Z</time></trkpt><trkpt lat="46.170361261808786" lon="10.252190814126353"><ele>912.0</ele><time>2026-04-27T11:10:45Z</time></trkpt><trkpt lat="46.170439431509784" lon="10.252272456592022"><ele>912.0</ele><time>2026-04-27T11:10:46Z</time></trkpt><trkpt lat="46.17048211457768" lon="10.252422069505856"><ele>903.3333333333333</ele><time>2026-04-27T11:10:47Z</time></trkpt><trkpt lat="46.17048832989368" lon="10.252618428357719"><ele>894.6666666666666</ele><time>2026-04-27T11:10:48Z</time></trkpt><trkpt lat="46.170463959606394" lon="10.252837150517857"><ele>886.0</ele><time>2026-04-27T11:10:49Z</time></trkpt><trkpt lat="46.17044235726285" lon="10.253070369262195"><ele>884.0</ele><time>2026-04-27T11:10:50Z</time></trkpt><trkpt lat="46.17042647188149" lon="10.253292700579074"><ele>882.0</ele><time>2026-04-27T11:10:51Z</time></trkpt><trkpt lat="46.17041938283961" lon="10.253505309579834"><ele>880.0</ele><time>2026-04-27T11:10:52Z</time></trkpt><trkpt lat="46.17039328447578" lon="10.253737447980809"><ele>882.3333333333333</ele><time>2026-04-27T11:10:53Z</time></trkpt><trkpt lat="46.170390522089434" lon="10.25399583543915"><ele>884.6666666666667</ele><time>2026-04-27T11:10:54Z</time></trkpt><trkpt lat="46.170406637695535" lon="10.254242583338417"><ele>887.0</ele><time>2026-04-27T11:10:55Z</time></trkpt><trkpt lat="46.170419708950796" lon="10.254485609738067"><ele>887.0</ele><time>2026-04-27T11:10:56Z</time></trkpt><trkpt lat="46.17043485180107" lon="10.254681788349759"><ele>887.0</ele><time>2026-04-27T11:10:57Z</time></trkpt><trkpt lat="46.17044772052424" lon="10.254889632700372"><ele>887.0</ele><time>2026-04-27T11:10:58Z</time></trkpt><trkpt lat="46.17044984316083" lon="10.255102377060197"><ele>887.0</ele><time>2026-04-27T11:10:59Z</time></trkpt><trkpt lat="46.1704810638649" lon="10.25533388942421"><ele>884.6666666666667</ele><time>2026-04-27T11:11:00Z</time></trkpt><trkpt lat="46.17049627983364" lon="10.255580249011166"><ele>882.3333333333333</ele><time>2026-04-27T11:11:01Z</time></trkpt><trkpt lat="46.17053931537181" lon="10.255820937030526"><ele>880.0</ele><time>2026-04-27T11:11:02Z</time></trkpt><trkpt lat="46.17061018052023" lon="10.25603937865025"><ele>877.3333333333333</ele><time>2026-04-27T11:11:03Z</time></trkpt><trkpt lat="46.170674894216106" lon="10.256262907604027"><ele>874.6666666666667</ele><time>2026-04-27T11:11:04Z</time></trkpt><trkpt lat="46.170720494818674" lon="10.2565078158958"><ele>872.0</ele><time>2026-04-27T11:11:05Z</time></trkpt><trkpt lat="46.17078632911722" lon="10.256767718096462"><ele>881.3333333333334</ele><time>2026-04-27T11:11:06Z</time></trkpt><trkpt lat="46.17086202397508" lon="10.257057814879246"><ele>890.6666666666667</ele><time>2026-04-27T11:11:07Z</time></trkpt><trkpt lat="46.170947667921176" lon="10.257367560632888"><ele>900.0</ele><time>2026-04-27T11:11:08Z</time></trkpt><trkpt lat="46.171036462036106" lon="10.257643464546167"><ele>900.0</ele><time>2026-04-27T11:11:09Z</time></trkpt><trkpt lat="46.17111336872348" lon="10.257877812144159"><ele>900.0</ele><time>2026-04-27T11:11:10Z</time></trkpt><trkpt lat="46.17118754739933" lon="10.258104067603204"><ele>900.0</ele><time>2026-04-27T11:11:11Z</time></trkpt><trkpt lat="46.171271486662874" lon="10.258338079707823"><ele>896.3333333333333</ele><time>2026-04-27T11:11:12Z</time></trkpt><trkpt lat="46.17134684229965" lon="10.258605510151442"><ele>892.6666666666666</ele><time>2026-04-27T11:11:13Z</time></trkpt><trkpt lat="46.171420136008756" lon="10.25884671073535"><ele>889.0</ele><time>2026-04-27T11:11:14Z</time></trkpt><trkpt lat="46.17148748899643" lon="10.25908246258438"><ele>899.0</ele><time>2026-04-27T11:11:15Z</time></trkpt><trkpt lat="46.17156582090313" lon="10.259297906268786"><ele>909.0</ele><time>2026-04-27T11:11:16Z</time></trkpt><trkpt lat="46.171643559231065" lon="10.259511991134831"><ele>919.0</ele><time>2026-04-27T11:11:17Z</time></trkpt><trkpt lat="46.17171135246246" lon="10.259702212670918"><ele>914.6666666666666</ele><time>2026-04-27T11:11:18Z</time></trkpt><trkpt lat="46.17176996127541" lon="10.259907636195026"><ele>910.3333333333333</ele><time>2026-04-27T11:11:19Z</time></trkpt><trkpt lat="46.17182304659367" lon="10.260120948707831"><ele>906.0</ele><time>2026-04-27T11:11:20Z</time></trkpt><trkpt lat="46.171848136211516" lon="10.260331856847527"><ele>906.0</ele><time>2026-04-27T11:11:21Z</time></trkpt><trkpt lat="46.17185398466062" lon="10.260568958233977"><ele>906.0</ele><time>2026-04-27T11:11:22Z</time></trkpt><trkpt lat="46.171840825777664" lon="10.26079441732836"><ele>906.0</ele><time>2026-04-27T11:11:23Z</time></trkpt><trkpt lat="46.17183219795769" lon="10.261040393463789"><ele>904.3333333333333</ele><time>2026-04-27T11:11:24Z</time></trkpt><trkpt lat="46.17182304097589" lon="10.261296991143464"><ele>902.6666666666666</ele><time>2026-04-27T11:11:25Z</time></trkpt><trkpt lat="46.17181793341424" lon="10.261544012042908"><ele>901.0</ele><time>2026-04-27T11:11:26Z</time></trkpt><trkpt lat="46.171814954023084" lon="10.261778708920001"><ele>900.6666666666666</ele><time>2026-04-27T11:11:27Z</time></trkpt><trkpt lat="46.17181925611351" lon="10.262020608279594"><ele>900.3333333333333</ele><time>2026-04-27T11:11:28Z</time></trkpt><trkpt lat="46.17181859273297" lon="10.262271108004704"><ele>900.0</ele><time>2026-04-27T11:11:29Z</time></trkpt><trkpt lat="46.17186626601645" lon="10.262481934673033"><ele>898.3333333333333</ele><time>2026-04-27T11:11:30Z</time></trkpt><trkpt lat="46.17191252094924" lon="10.262712416730183"><ele>896.6666666666666</ele><time>2026-04-27T11:11:31Z</time></trkpt><trkpt lat="46.17199266686996" lon="10.262937477741147"><ele>895.0</ele><time>2026-04-27T11:11:32Z</time></trkpt><trkpt lat="46.17209819418266" lon="10.26313545304533"><ele>892.6666666666666</ele><time>2026-04-27T11:11:33.001Z</time></trkpt><trkpt lat="46.172225416767624" lon="10.263333539966103"><ele>890.3333333333333</ele><time>2026-04-27T11:11:34.001Z</time></trkpt><trkpt lat="46.172368255621905" lon="10.263532985196665"><ele>888.0</ele><time>2026-04-27T11:11:35.001Z</time></trkpt><trkpt lat="46.17251026679964" lon="10.26374065671833"><ele>889.0</ele><time>2026-04-27T11:11:36.001Z</time></trkpt><trkpt lat="46.172641931120545" lon="10.263922929159351"><ele>890.0</ele><time>2026-04-27T11:11:37.001Z</time></trkpt><trkpt lat="46.17276283798711" lon="10.264097579526082"><ele>891.0</ele><time>2026-04-27T11:11:38.001Z</time></trkpt><trkpt lat="46.17286986733892" lon="10.264269792835938"><ele>891.0</ele><time>2026-04-27T11:11:39.001Z</time></trkpt><trkpt lat="46.172967296854814" lon="10.264487373498"><ele>891.0</ele><time>2026-04-27T11:11:40.001Z</time></trkpt><trkpt lat="46.17303146249468" lon="10.264703527662629"><ele>891.0</ele><time>2026-04-27T11:11:41.001Z</time></trkpt><trkpt lat="46.17309869086897" lon="10.264919847978602"><ele>896.6666666666667</ele><time>2026-04-27T11:11:42.001Z</time></trkpt><trkpt lat="46.173163772931005" lon="10.265135822546645"><ele>902.3333333333334</ele><time>2026-04-27T11:11:43.001Z</time></trkpt><trkpt lat="46.1732524816909" lon="10.265337874357945"><ele>908.0</ele><time>2026-04-27T11:11:44Z</time></trkpt><trkpt lat="46.17336600052823" lon="10.265532604582742"><ele>900.3333333333334</ele><time>2026-04-27T11:11:45Z</time></trkpt><trkpt lat="46.1734854575852" lon="10.265720277981478"><ele>892.6666666666667</ele><time>2026-04-27T11:11:46Z</time></trkpt><trkpt lat="46.173592134978826" lon="10.265890048840456"><ele>885.0</ele><time>2026-04-27T11:11:47Z</time></trkpt><trkpt lat="46.17368607008969" lon="10.266034156246665"><ele>885.0</ele><time>2026-04-27T11:11:48Z</time></trkpt><trkpt lat="46.173760287906994" lon="10.266202138074869"><ele>885.0</ele><time>2026-04-27T11:11:49Z</time></trkpt><trkpt lat="46.17380794749749" lon="10.266401440673723"><ele>885.0</ele><time>2026-04-27T11:11:50Z</time></trkpt><trkpt lat="46.1738331732395" lon="10.266640680033888"><ele>878.6666666666667</ele><time>2026-04-27T11:11:51Z</time></trkpt><trkpt lat="46.17386427063037" lon="10.266863109190714"><ele>872.3333333333334</ele><time>2026-04-27T11:11:52Z</time></trkpt><trkpt lat="46.17390994915935" lon="10.26707783127779"><ele>866.0</ele><time>2026-04-27T11:11:53Z</time></trkpt><trkpt lat="46.17398957804132" lon="10.267275979832295"><ele>875.0</ele><time>2026-04-27T11:11:54Z</time></trkpt><trkpt lat="46.17410503654649" lon="10.267453955464296"><ele>884.0</ele><time>2026-04-27T11:11:55Z</time></trkpt><trkpt lat="46.174212888415994" lon="10.267602521742658"><ele>893.0</ele><time>2026-04-27T11:11:56Z</time></trkpt><trkpt lat="46.174300617888825" lon="10.267786400416853"><ele>893.0</ele><time>2026-04-27T11:11:57Z</time></trkpt><trkpt lat="46.17436611829236" lon="10.268016508961734"><ele>893.0</ele><time>2026-04-27T11:11:58Z</time></trkpt><trkpt lat="46.17438890923058" lon="10.268250668613456"><ele>893.0</ele><time>2026-04-27T11:11:59Z</time></trkpt><trkpt lat="46.17443278098178" lon="10.268510382942166"><ele>890.0</ele><time>2026-04-27T11:12:00Z</time></trkpt><trkpt lat="46.1744539143371" lon="10.268771647917896"><ele>887.0</ele><time>2026-04-27T11:12:01Z</time></trkpt><trkpt lat="46.17448007565977" lon="10.269039762026644"><ele>884.0</ele><time>2026-04-27T11:12:02Z</time></trkpt><trkpt lat="46.174503624706205" lon="10.269322686413249"><ele>880.3333333333334</ele><time>2026-04-27T11:12:03Z</time></trkpt><trkpt lat="46.174532704467" lon="10.269561648953351"><ele>876.6666666666667</ele><time>2026-04-27T11:12:04Z</time></trkpt><trkpt lat="46.17455325646377" lon="10.26982782853533"><ele>873.0</ele><time>2026-04-27T11:12:05Z</time></trkpt><trkpt lat="46.17456514419655" lon="10.270096651143202"><ele>872.0</ele><time>2026-04-27T11:12:06Z</time></trkpt><trkpt lat="46.17457045990015" lon="10.27035988790351"><ele>871.0</ele><time>2026-04-27T11:12:07Z</time></trkpt><trkpt lat="46.174551512785264" lon="10.27060940955122"><ele>870.0</ele><time>2026-04-27T11:12:08Z</time></trkpt><trkpt lat="46.17455851226287" lon="10.270835816602974"><ele>868.5</ele><time>2026-04-27T11:12:09Z</time></trkpt><trkpt lat="46.174538558824615" lon="10.271045964398224"><ele>867.0</ele><time>2026-04-27T11:12:10Z</time></trkpt><trkpt lat="46.1745461279692" lon="10.271255328878263"><ele>865.5</ele><time>2026-04-27T11:12:11Z</time></trkpt><trkpt lat="46.17459294744928" lon="10.271458942569785"><ele>864.0</ele><time>2026-04-27T11:12:12Z</time></trkpt><trkpt lat="46.174650868869996" lon="10.27166293554864"><ele>863.6666666666667</ele><time>2026-04-27T11:12:13Z</time></trkpt><trkpt lat="46.174703931233246" lon="10.27188107095429"><ele>863.3333333333334</ele><time>2026-04-27T11:12:14Z</time></trkpt><trkpt lat="46.1747228761603" lon="10.272108962553716"><ele>863.0</ele><time>2026-04-27T11:12:15Z</time></trkpt><trkpt lat="46.17475125891604" lon="10.27230886671861"><ele>863.5</ele><time>2026-04-27T11:12:16Z</time></trkpt><trkpt lat="46.174750315690346" lon="10.27251083837407"><ele>864.0</ele><time>2026-04-27T11:12:17Z</time></trkpt><trkpt lat="46.17473285554565" lon="10.272726199303145"><ele>864.5</ele><time>2026-04-27T11:12:18Z</time></trkpt><trkpt lat="46.17467751356181" lon="10.272935335813818"><ele>865.0</ele><time>2026-04-27T11:12:19Z</time></trkpt><trkpt lat="46.17464193421829" lon="10.273122500110055"><ele>865.0</ele><time>2026-04-27T11:12:20Z</time></trkpt><trkpt lat="46.174609847320916" lon="10.273294596275422"><ele>865.0</ele><time>2026-04-27T11:12:21Z</time></trkpt><trkpt lat="46.174580076908136" lon="10.273457501350281"><ele>865.0</ele><time>2026-04-27T11:12:22Z</time></trkpt><trkpt lat="46.17454542814834" lon="10.273622278821076"><ele>865.0</ele><time>2026-04-27T11:12:23Z</time></trkpt><trkpt lat="46.17453273474082" lon="10.27382863336287"><ele>868.25</ele><time>2026-04-27T11:12:24Z</time></trkpt><trkpt lat="46.17447034003491" lon="10.274010856812247"><ele>871.5</ele><time>2026-04-27T11:12:25Z</time></trkpt><trkpt lat="46.17439857709651" lon="10.274191836102547"><ele>874.75</ele><time>2026-04-27T11:12:26Z</time></trkpt><trkpt lat="46.174314758809366" lon="10.274372318418452"><ele>878.0</ele><time>2026-04-27T11:12:27Z</time></trkpt><trkpt lat="46.174222356681504" lon="10.274548009489115"><ele>878.0</ele><time>2026-04-27T11:12:28Z</time></trkpt><trkpt lat="46.174124270632305" lon="10.2747230123005"><ele>878.0</ele><time>2026-04-27T11:12:29Z</time></trkpt><trkpt lat="46.17401725296469" lon="10.274868163727174"><ele>878.0</ele><time>2026-04-27T11:12:30Z</time></trkpt><trkpt lat="46.17393803081986" lon="10.275052806543325"><ele>875.3333333333334</ele><time>2026-04-27T11:12:31Z</time></trkpt><trkpt lat="46.17381367580619" lon="10.275202679502629"><ele>872.6666666666667</ele><time>2026-04-27T11:12:32Z</time></trkpt><trkpt lat="46.173725179161984" lon="10.275387043531728"><ele>870.0</ele><time>2026-04-27T11:12:33Z</time></trkpt><trkpt lat="46.17363792175762" lon="10.275563151240243"><ele>870.6666666666667</ele><time>2026-04-27T11:12:34Z</time></trkpt><trkpt lat="46.17354275723891" lon="10.275756935814108"><ele>871.3333333333334</ele><time>2026-04-27T11:12:35Z</time></trkpt><trkpt lat="46.173450911865" lon="10.275948554451316"><ele>872.0</ele><time>2026-04-27T11:12:36Z</time></trkpt><trkpt lat="46.17336227028026" lon="10.276136233071194"><ele>872.0</ele><time>2026-04-27T11:12:37Z</time></trkpt><trkpt lat="46.173286769712085" lon="10.27633115707859"><ele>872.0</ele><time>2026-04-27T11:12:38Z</time></trkpt><trkpt lat="46.17322680893704" lon="10.276534066400549"><ele>872.0</ele><time>2026-04-27T11:12:39Z</time></trkpt><trkpt lat="46.17319403000638" lon="10.276751871620847"><ele>859.6666666666667</ele><time>2026-04-27T11:12:40Z</time></trkpt><trkpt lat="46.17318231404714" lon="10.276971807859681"><ele>847.3333333333333</ele><time>2026-04-27T11:12:41Z</time></trkpt><trkpt lat="46.17317928596921" lon="10.27721137469539"><ele>835.0</ele><time>2026-04-27T11:12:42Z</time></trkpt><trkpt lat="46.17318279490188" lon="10.277468119676819"><ele>834.3333333333333</ele><time>2026-04-27T11:12:43Z</time></trkpt><trkpt lat="46.17320978452834" lon="10.277714219416309"><ele>833.6666666666667</ele><time>2026-04-27T11:12:44Z</time></trkpt><trkpt lat="46.173182373331464" lon="10.277998385571752"><ele>833.0</ele><time>2026-04-27T11:12:45Z</time></trkpt><trkpt lat="46.1731918701784" lon="10.278260098139759"><ele>844.0</ele><time>2026-04-27T11:12:46Z</time></trkpt><trkpt lat="46.17320010913574" lon="10.27852498577821"><ele>855.0</ele><time>2026-04-27T11:12:47Z</time></trkpt><trkpt lat="46.17320374525127" lon="10.27879618939327"><ele>866.0</ele><time>2026-04-27T11:12:48Z</time></trkpt><trkpt lat="46.17320664279204" lon="10.279057255562476"><ele>866.0</ele><time>2026-04-27T11:12:49Z</time></trkpt><trkpt lat="46.173209061699254" lon="10.27930064847643"><ele>866.0</ele><time>2026-04-27T11:12:50Z</time></trkpt><trkpt lat="46.17320716210641" lon="10.279538220949968"><ele>866.0</ele><time>2026-04-27T11:12:51Z</time></trkpt><trkpt lat="46.17320884994771" lon="10.279758775977552"><ele>865.0</ele><time>2026-04-27T11:12:52Z</time></trkpt><trkpt lat="46.17321679219016" lon="10.279950908481162"><ele>864.0</ele><time>2026-04-27T11:12:53Z</time></trkpt><trkpt lat="46.17322025992315" lon="10.28013688219202"><ele>863.0</ele><time>2026-04-27T11:12:54Z</time></trkpt><trkpt lat="46.17323480983654" lon="10.280319510398368"><ele>862.0</ele><time>2026-04-27T11:12:55Z</time></trkpt><trkpt lat="46.17328308115548" lon="10.280506114268189"><ele>856.3333333333333</ele><time>2026-04-27T11:12:56Z</time></trkpt><trkpt lat="46.17336705205544" lon="10.280693131551313"><ele>850.6666666666667</ele><time>2026-04-27T11:12:57Z</time></trkpt><trkpt lat="46.17345852518359" lon="10.280900663242512"><ele>845.0</ele><time>2026-04-27T11:12:58Z</time></trkpt><trkpt lat="46.17356196623356" lon="10.281113978807372"><ele>845.0</ele><time>2026-04-27T11:12:59Z</time></trkpt><trkpt lat="46.1736640507651" lon="10.281337018968532"><ele>845.0</ele><time>2026-04-27T11:13:00Z</time></trkpt><trkpt lat="46.173756853521795" lon="10.281537354153944"><ele>845.0</ele><time>2026-04-27T11:13:01Z</time></trkpt><trkpt lat="46.1738580329408" lon="10.28174032592496"><ele>844.0</ele><time>2026-04-27T11:13:02Z</time></trkpt><trkpt lat="46.17395141636648" lon="10.281938496100757"><ele>843.0</ele><time>2026-04-27T11:13:03Z</time></trkpt><trkpt lat="46.174039655197234" lon="10.282142026775404"><ele>842.0</ele><time>2026-04-27T11:13:04Z</time></trkpt><trkpt lat="46.17412054024799" lon="10.282324954469896"><ele>842.0</ele><time>2026-04-27T11:13:05Z</time></trkpt><trkpt lat="46.174190778262734" lon="10.282500146733334"><ele>842.0</ele><time>2026-04-27T11:13:06Z</time></trkpt><trkpt lat="46.174273683601115" lon="10.282661860302108"><ele>842.0</ele><time>2026-04-27T11:13:07Z</time></trkpt><trkpt lat="46.17437321732667" lon="10.282819659806647"><ele>842.0</ele><time>2026-04-27T11:13:08Z</time></trkpt><trkpt lat="46.17449849194433" lon="10.282967743184098"><ele>842.0</ele><time>2026-04-27T11:13:09Z</time></trkpt><trkpt lat="46.17463577841586" lon="10.283087514557222"><ele>842.0</ele><time>2026-04-27T11:13:10Z</time></trkpt><trkpt lat="46.174756138848984" lon="10.283193211931847"><ele>842.0</ele><time>2026-04-27T11:13:11Z</time></trkpt><trkpt lat="46.17487551978077" lon="10.283303788284174"><ele>842.0</ele><time>2026-04-27T11:13:12Z</time></trkpt><trkpt lat="46.17496263728123" lon="10.28344480810952"><ele>843.25</ele><time>2026-04-27T11:13:13Z</time></trkpt><trkpt lat="46.17500090718412" lon="10.283614964952363"><ele>844.5</ele><time>2026-04-27T11:13:14Z</time></trkpt><trkpt lat="46.17495512620201" lon="10.283775770361338"><ele>845.75</ele><time>2026-04-27T11:13:15Z</time></trkpt><trkpt lat="46.17486979410455" lon="10.283950155314967"><ele>847.0</ele><time>2026-04-27T11:13:16Z</time></trkpt><trkpt lat="46.17476081081468" lon="10.284154829190486"><ele>840.0</ele><time>2026-04-27T11:13:17Z</time></trkpt><trkpt lat="46.17466688262422" lon="10.284366037712026"><ele>833.0</ele><time>2026-04-27T11:13:18Z</time></trkpt><trkpt lat="46.17460519355181" lon="10.284560889465851"><ele>826.0</ele><time>2026-04-27T11:13:19Z</time></trkpt><trkpt lat="46.17456316491026" lon="10.284795015208932"><ele>824.6666666666666</ele><time>2026-04-27T11:13:20Z</time></trkpt><trkpt lat="46.174550930786864" lon="10.285059209556868"><ele>823.3333333333333</ele><time>2026-04-27T11:13:21Z</time></trkpt><trkpt lat="46.17457026274579" lon="10.285324091039016"><ele>822.0</ele><time>2026-04-27T11:13:22Z</time></trkpt><trkpt lat="46.174639824327414" lon="10.28558276776889"><ele>819.0</ele><time>2026-04-27T11:13:23Z</time></trkpt><trkpt lat="46.17469415095665" lon="10.285851452610219"><ele>816.0</ele><time>2026-04-27T11:13:24Z</time></trkpt><trkpt lat="46.17474575439735" lon="10.28612281998259"><ele>813.0</ele><time>2026-04-27T11:13:25Z</time></trkpt><trkpt lat="46.17479927462096" lon="10.286382966493473"><ele>813.0</ele><time>2026-04-27T11:13:26Z</time></trkpt><trkpt lat="46.17483872544496" lon="10.286621985145135"><ele>813.0</ele><time>2026-04-27T11:13:27Z</time></trkpt><trkpt lat="46.17484685869177" lon="10.286869439007074"><ele>813.0</ele><time>2026-04-27T11:13:28Z</time></trkpt><trkpt lat="46.17483530129268" lon="10.287146624449719"><ele>819.0</ele><time>2026-04-27T11:13:29Z</time></trkpt><trkpt lat="46.17481912242831" lon="10.287444801911125"><ele>825.0</ele><time>2026-04-27T11:13:30Z</time></trkpt><trkpt lat="46.17480155894081" lon="10.287748245126396"><ele>831.0</ele><time>2026-04-27T11:13:31Z</time></trkpt><trkpt lat="46.174785362546345" lon="10.288023470055911"><ele>838.0</ele><time>2026-04-27T11:13:32Z</time></trkpt><trkpt lat="46.17476902397712" lon="10.288301110893476"><ele>845.0</ele><time>2026-04-27T11:13:33Z</time></trkpt><trkpt lat="46.17475368776304" lon="10.288571472459784"><ele>852.0</ele><time>2026-04-27T11:13:34Z</time></trkpt><trkpt lat="46.17473907091161" lon="10.288833271410093"><ele>854.3333333333333</ele><time>2026-04-27T11:13:35Z</time></trkpt><trkpt lat="46.1747232702741" lon="10.28910682980927"><ele>856.6666666666666</ele><time>2026-04-27T11:13:36Z</time></trkpt><trkpt lat="46.174714529387096" lon="10.289417301496606"><ele>859.0</ele><time>2026-04-27T11:13:37.144Z</time></trkpt><trkpt lat="46.174692593873914" lon="10.289687514516876"><ele>846.0</ele><time>2026-04-27T11:13:38.144Z</time></trkpt><trkpt lat="46.174565566336476" lon="10.292037848624135"><ele>826.5</ele><time>2026-04-27T11:13:41.784Z</time></trkpt><trkpt lat="46.17455037789839" lon="10.292542348054875"><ele>807.0</ele><time>2026-04-27T11:13:50Z</time></trkpt><trkpt lat="46.1745335144708" lon="10.292801886376544"><ele>800.0</ele><time>2026-04-27T11:13:51Z</time></trkpt><trkpt lat="46.17449024142846" lon="10.293205738902769"><ele>793.0</ele><time>2026-04-27T11:13:52Z</time></trkpt><trkpt lat="46.17437716963374" lon="10.293801196833464"><ele>794.6666666666666</ele><time>2026-04-27T11:13:53Z</time></trkpt><trkpt lat="46.174287558060044" lon="10.294068706821669"><ele>796.3333333333333</ele><time>2026-04-27T11:13:54Z</time></trkpt><trkpt lat="46.17425354452964" lon="10.294290256767828"><ele>798.0</ele><time>2026-04-27T11:13:55Z</time></trkpt><trkpt lat="46.17420458159433" lon="10.294532427298774"><ele>801.3333333333333</ele><time>2026-04-27T11:13:56Z</time></trkpt><trkpt lat="46.17412404819574" lon="10.2947571500781"><ele>804.6666666666666</ele><time>2026-04-27T11:13:57Z</time></trkpt><trkpt lat="46.174016026105726" lon="10.295005063992399"><ele>808.0</ele><time>2026-04-27T11:13:58Z</time></trkpt><trkpt lat="46.17391158694233" lon="10.295240078869064"><ele>797.0</ele><time>2026-04-27T11:13:59Z</time></trkpt><trkpt lat="46.173821096184085" lon="10.295442767291588"><ele>786.0</ele><time>2026-04-27T11:14:00Z</time></trkpt><trkpt lat="46.173736560684034" lon="10.295632116657048"><ele>775.0</ele><time>2026-04-27T11:14:01Z</time></trkpt><trkpt lat="46.17365484638236" lon="10.295815236334567"><ele>775.0</ele><time>2026-04-27T11:14:02Z</time></trkpt><trkpt lat="46.17356757926091" lon="10.296007602840069"><ele>775.0</ele><time>2026-04-27T11:14:03Z</time></trkpt><trkpt lat="46.17349297305364" lon="10.296172060533102"><ele>775.0</ele><time>2026-04-27T11:14:04Z</time></trkpt><trkpt lat="46.1734202594897" lon="10.29633250397564"><ele>775.0</ele><time>2026-04-27T11:14:05Z</time></trkpt><trkpt lat="46.17334406379168" lon="10.296499531552259"><ele>778.75</ele><time>2026-04-27T11:14:06Z</time></trkpt><trkpt lat="46.17328101777854" lon="10.296677642517547"><ele>782.5</ele><time>2026-04-27T11:14:07Z</time></trkpt><trkpt lat="46.173191556667305" lon="10.296834439930414"><ele>786.25</ele><time>2026-04-27T11:14:08Z</time></trkpt><trkpt lat="46.17312743952912" lon="10.297038476402971"><ele>790.0</ele><time>2026-04-27T11:14:09Z</time></trkpt><trkpt lat="46.17309486805669" lon="10.297274777569012"><ele>772.0</ele><time>2026-04-27T11:14:10Z</time></trkpt><trkpt lat="46.17306927312246" lon="10.297526534078791"><ele>754.0</ele><time>2026-04-27T11:14:11Z</time></trkpt><trkpt lat="46.17305307388477" lon="10.29778091168118"><ele>736.0</ele><time>2026-04-27T11:14:12Z</time></trkpt><trkpt lat="46.17304802617345" lon="10.297992787707573"><ele>735.0</ele><time>2026-04-27T11:14:13Z</time></trkpt><trkpt lat="46.17306252599884" lon="10.298208761894566"><ele>734.0</ele><time>2026-04-27T11:14:14Z</time></trkpt><trkpt lat="46.17309401022261" lon="10.298426075117012"><ele>733.0</ele><time>2026-04-27T11:14:15Z</time></trkpt><trkpt lat="46.17312961014031" lon="10.298653726744343"><ele>733.0</ele><time>2026-04-27T11:14:16Z</time></trkpt><trkpt lat="46.173162340077056" lon="10.298860876241589"><ele>733.0</ele><time>2026-04-27T11:14:17Z</time></trkpt><trkpt lat="46.17321406996219" lon="10.299034850657394"><ele>733.0</ele><time>2026-04-27T11:14:18Z</time></trkpt><trkpt lat="46.17329185757785" lon="10.299187414454277"><ele>733.0</ele><time>2026-04-27T11:14:19Z</time></trkpt><trkpt lat="46.17340120957864" lon="10.299333936131744"><ele>749.6666666666667</ele><time>2026-04-27T11:14:20Z</time></trkpt><trkpt lat="46.17353567355761" lon="10.299465306480938"><ele>766.3333333333334</ele><time>2026-04-27T11:14:21Z</time></trkpt><trkpt lat="46.17367036889475" lon="10.29957752740439"><ele>783.0</ele><time>2026-04-27T11:14:22Z</time></trkpt><trkpt lat="46.173784969117484" lon="10.29969723630044"><ele>778.0</ele><time>2026-04-27T11:14:23Z</time></trkpt><trkpt lat="46.173895894306156" lon="10.299805336556467"><ele>773.0</ele><time>2026-04-27T11:14:24Z</time></trkpt><trkpt lat="46.1739999327048" lon="10.29993773470012"><ele>768.0</ele><time>2026-04-27T11:14:25Z</time></trkpt><trkpt lat="46.174086544785276" lon="10.300087548930987"><ele>763.0</ele><time>2026-04-27T11:14:26Z</time></trkpt><trkpt lat="46.1741573902094" lon="10.300246075448777"><ele>769.75</ele><time>2026-04-27T11:14:27Z</time></trkpt><trkpt lat="46.17420502259126" lon="10.300409935477768"><ele>776.5</ele><time>2026-04-27T11:14:28Z</time></trkpt><trkpt lat="46.17423216659318" lon="10.300611714524733"><ele>783.25</ele><time>2026-04-27T11:14:29Z</time></trkpt><trkpt lat="46.17424263009423" lon="10.300831083278789"><ele>790.0</ele><time>2026-04-27T11:14:30Z</time></trkpt><trkpt lat="46.174251262291" lon="10.301070234618933"><ele>790.0</ele><time>2026-04-27T11:14:31Z</time></trkpt><trkpt lat="46.17426311942745" lon="10.301295040454281"><ele>790.0</ele><time>2026-04-27T11:14:32Z</time></trkpt><trkpt lat="46.17428139188237" lon="10.301498591593255"><ele>790.0</ele><time>2026-04-27T11:14:33Z</time></trkpt><trkpt lat="46.17433608834086" lon="10.30170130242406"><ele>790.0</ele><time>2026-04-27T11:14:34Z</time></trkpt><trkpt lat="46.17442052924594" lon="10.301905292920228"><ele>786.0</ele><time>2026-04-27T11:14:35Z</time></trkpt><trkpt lat="46.174538701083776" lon="10.302090559280359"><ele>782.0</ele><time>2026-04-27T11:14:36Z</time></trkpt><trkpt lat="46.17463737785507" lon="10.302239081614465"><ele>778.0</ele><time>2026-04-27T11:14:37Z</time></trkpt><trkpt lat="46.174728687835334" lon="10.302407324807238"><ele>786.0</ele><time>2026-04-27T11:14:38Z</time></trkpt><trkpt lat="46.17479693018043" lon="10.302604313609262"><ele>794.0</ele><time>2026-04-27T11:14:39Z</time></trkpt><trkpt lat="46.17484136642953" lon="10.3028361084066"><ele>802.0</ele><time>2026-04-27T11:14:40Z</time></trkpt><trkpt lat="46.17488516942445" lon="10.303087344055193"><ele>802.0</ele><time>2026-04-27T11:14:41Z</time></trkpt><trkpt lat="46.174929847239106" lon="10.303329237916655"><ele>802.0</ele><time>2026-04-27T11:14:42Z</time></trkpt><trkpt lat="46.17497793532225" lon="10.303574795191214"><ele>802.0</ele><time>2026-04-27T11:14:43Z</time></trkpt><trkpt lat="46.1750196788749" lon="10.303828291761508"><ele>796.6666666666666</ele><time>2026-04-27T11:14:44Z</time></trkpt><trkpt lat="46.17505774427384" lon="10.304067514477941"><ele>791.3333333333333</ele><time>2026-04-27T11:14:45Z</time></trkpt><trkpt lat="46.175092864363975" lon="10.304288227364502"><ele>786.0</ele><time>2026-04-27T11:14:46Z</time></trkpt><trkpt lat="46.1751266264543" lon="10.304510696980913"><ele>786.0</ele><time>2026-04-27T11:14:47Z</time></trkpt><trkpt lat="46.17515068689574" lon="10.304730991843295"><ele>786.0</ele><time>2026-04-27T11:14:48Z</time></trkpt><trkpt lat="46.17514839822157" lon="10.304964531798529"><ele>786.0</ele><time>2026-04-27T11:14:49Z</time></trkpt><trkpt lat="46.17511709646948" lon="10.30521484352961"><ele>783.6666666666667</ele><time>2026-04-27T11:14:50Z</time></trkpt><trkpt lat="46.17508547627944" lon="10.305464054785247"><ele>781.3333333333334</ele><time>2026-04-27T11:14:51Z</time></trkpt><trkpt lat="46.1750664522764" lon="10.305718087913345"><ele>779.0</ele><time>2026-04-27T11:14:52Z</time></trkpt><trkpt lat="46.1750635562362" lon="10.305943372831424"><ele>779.0</ele><time>2026-04-27T11:14:53Z</time></trkpt><trkpt lat="46.17507941505346" lon="10.306149570922486"><ele>779.0</ele><time>2026-04-27T11:14:54Z</time></trkpt><trkpt lat="46.17511952487532" lon="10.306420131047973"><ele>779.0</ele><time>2026-04-27T11:14:55Z</time></trkpt><trkpt lat="46.17516548671411" lon="10.306664703163941"><ele>776.0</ele><time>2026-04-27T11:14:56Z</time></trkpt><trkpt lat="46.175208708264805" lon="10.306913928858279"><ele>773.0</ele><time>2026-04-27T11:14:57Z</time></trkpt><trkpt lat="46.17524605581073" lon="10.307126969555219"><ele>770.0</ele><time>2026-04-27T11:14:58Z</time></trkpt><trkpt lat="46.175285768086034" lon="10.307346947038292"><ele>765.6666666666667</ele><time>2026-04-27T11:14:59Z</time></trkpt><trkpt lat="46.17534913546204" lon="10.307575030187902"><ele>761.3333333333334</ele><time>2026-04-27T11:15:00Z</time></trkpt><trkpt lat="46.17539243351147" lon="10.307806694996781"><ele>757.0</ele><time>2026-04-27T11:15:01Z</time></trkpt><trkpt lat="46.17541370311745" lon="10.308053313590426"><ele>754.3333333333334</ele><time>2026-04-27T11:15:02Z</time></trkpt><trkpt lat="46.17543370489604" lon="10.308306031911572"><ele>751.6666666666666</ele><time>2026-04-27T11:15:03Z</time></trkpt><trkpt lat="46.175437558546726" lon="10.308565831509064"><ele>749.0</ele><time>2026-04-27T11:15:04Z</time></trkpt><trkpt lat="46.17542712954892" lon="10.308817514065566"><ele>747.6666666666666</ele><time>2026-04-27T11:15:05Z</time></trkpt><trkpt lat="46.175405387915106" lon="10.309052732208762"><ele>746.3333333333334</ele><time>2026-04-27T11:15:06Z</time></trkpt><trkpt lat="46.17538137358596" lon="10.30927240836196"><ele>745.0</ele><time>2026-04-27T11:15:07Z</time></trkpt><trkpt lat="46.17536307013696" lon="10.309496699112204"><ele>745.0</ele><time>2026-04-27T11:15:08Z</time></trkpt><trkpt lat="46.17536927881628" lon="10.30973658192724"><ele>745.0</ele><time>2026-04-27T11:15:09Z</time></trkpt><trkpt lat="46.17541101848092" lon="10.309979218808431"><ele>745.0</ele><time>2026-04-27T11:15:10Z</time></trkpt><trkpt lat="46.17547515068927" lon="10.310204770387505"><ele>744.5</ele><time>2026-04-27T11:15:11Z</time></trkpt><trkpt lat="46.175544659149935" lon="10.310389585107034"><ele>744.0</ele><time>2026-04-27T11:15:12Z</time></trkpt><trkpt lat="46.17563690368838" lon="10.310554929542517"><ele>743.5</ele><time>2026-04-27T11:15:13Z</time></trkpt><trkpt lat="46.17574603779697" lon="10.310716591176119"><ele>743.0</ele><time>2026-04-27T11:15:14Z</time></trkpt><trkpt lat="46.175872039062845" lon="10.31086578743958"><ele>748.3333333333333</ele><time>2026-04-27T11:15:15Z</time></trkpt><trkpt lat="46.175992282318866" lon="10.311017005596037"><ele>753.6666666666666</ele><time>2026-04-27T11:15:16Z</time></trkpt><trkpt lat="46.17610716595698" lon="10.311160825797828"><ele>759.0</ele><time>2026-04-27T11:15:17Z</time></trkpt><trkpt lat="46.17623695998474" lon="10.311287489438255"><ele>757.0</ele><time>2026-04-27T11:15:18Z</time></trkpt><trkpt lat="46.176369539420094" lon="10.311433364097828"><ele>755.0</ele><time>2026-04-27T11:15:19Z</time></trkpt><trkpt lat="46.17648917586748" lon="10.311569611985758"><ele>753.0</ele><time>2026-04-27T11:15:20Z</time></trkpt><trkpt lat="46.17661237950404" lon="10.311701472197793"><ele>753.0</ele><time>2026-04-27T11:15:21Z</time></trkpt><trkpt lat="46.17672516275912" lon="10.31184053633239"><ele>753.0</ele><time>2026-04-27T11:15:22Z</time></trkpt><trkpt lat="46.176840066590174" lon="10.311967362017961"><ele>753.0</ele><time>2026-04-27T11:15:23Z</time></trkpt><trkpt lat="46.17696467638825" lon="10.312076218085169"><ele>753.0</ele><time>2026-04-27T11:15:24Z</time></trkpt><trkpt lat="46.17709082898171" lon="10.312156511200241"><ele>751.0</ele><time>2026-04-27T11:15:25Z</time></trkpt><trkpt lat="46.17720400222652" lon="10.312248095656626"><ele>749.0</ele><time>2026-04-27T11:15:26Z</time></trkpt><trkpt lat="46.17732335789924" lon="10.31235852480163"><ele>747.0</ele><time>2026-04-27T11:15:27Z</time></trkpt><trkpt lat="46.17740303165475" lon="10.31255558153171"><ele>745.0</ele><time>2026-04-27T11:15:28Z</time></trkpt><trkpt lat="46.17743974154874" lon="10.312779861831903"><ele>747.0</ele><time>2026-04-27T11:15:29Z</time></trkpt><trkpt lat="46.177492677174136" lon="10.313013115609275"><ele>749.0</ele><time>2026-04-27T11:15:30Z</time></trkpt><trkpt lat="46.177516566389336" lon="10.31326219757394"><ele>751.0</ele><time>2026-04-27T11:15:31Z</time></trkpt><trkpt lat="46.17755073922951" lon="10.313495017882133"><ele>751.0</ele><time>2026-04-27T11:15:32Z</time></trkpt><trkpt lat="46.177587627355315" lon="10.313723891961574"><ele>751.0</ele><time>2026-04-27T11:15:33Z</time></trkpt><trkpt lat="46.17762553627732" lon="10.313939821831939"><ele>751.0</ele><time>2026-04-27T11:15:34Z</time></trkpt><trkpt lat="46.17767703470638" lon="10.314166675289913"><ele>747.6666666666667</ele><time>2026-04-27T11:15:35Z</time></trkpt><trkpt lat="46.17772566037168" lon="10.314386306671873"><ele>744.3333333333334</ele><time>2026-04-27T11:15:36Z</time></trkpt><trkpt lat="46.17776084916558" lon="10.314623462340327"><ele>741.0</ele><time>2026-04-27T11:15:37Z</time></trkpt><trkpt lat="46.177780024855295" lon="10.314880536633492"><ele>733.3333333333334</ele><time>2026-04-27T11:15:38Z</time></trkpt><trkpt lat="46.17780245587755" lon="10.315133806147852"><ele>725.6666666666667</ele><time>2026-04-27T11:15:39Z</time></trkpt><trkpt lat="46.17783835766529" lon="10.31536513407466"><ele>718.0</ele><time>2026-04-27T11:15:40Z</time></trkpt><trkpt lat="46.17789298458271" lon="10.31559005728924"><ele>711.3333333333334</ele><time>2026-04-27T11:15:41Z</time></trkpt><trkpt lat="46.17795835076074" lon="10.315826867214314"><ele>704.6666666666666</ele><time>2026-04-27T11:15:42Z</time></trkpt><trkpt lat="46.17802230674615" lon="10.31604534412"><ele>698.0</ele><time>2026-04-27T11:15:43Z</time></trkpt><trkpt lat="46.178077039687814" lon="10.316260879639701"><ele>695.5</ele><time>2026-04-27T11:15:44Z</time></trkpt><trkpt lat="46.17811140755534" lon="10.316469101499575"><ele>693.0</ele><time>2026-04-27T11:15:45Z</time></trkpt><trkpt lat="46.17816450557883" lon="10.316653084124486"><ele>690.5</ele><time>2026-04-27T11:15:46Z</time></trkpt><trkpt lat="46.17823097051047" lon="10.3168299334135"><ele>688.0</ele><time>2026-04-27T11:15:47Z</time></trkpt><trkpt lat="46.178281943366414" lon="10.317026012799573"><ele>694.0</ele><time>2026-04-27T11:15:48Z</time></trkpt><trkpt lat="46.178326435943376" lon="10.317219949625114"><ele>700.0</ele><time>2026-04-27T11:15:49Z</time></trkpt><trkpt lat="46.17833223366603" lon="10.317427701619627"><ele>706.0</ele><time>2026-04-27T11:15:50Z</time></trkpt><trkpt lat="46.17831992489711" lon="10.317637643537564"><ele>712.0</ele><time>2026-04-27T11:15:51Z</time></trkpt><trkpt lat="46.17829321261925" lon="10.317856359365129"><ele>708.0</ele><time>2026-04-27T11:15:52Z</time></trkpt><trkpt lat="46.17832791239743" lon="10.318070604247136"><ele>704.0</ele><time>2026-04-27T11:15:53Z</time></trkpt><trkpt lat="46.17838066569886" lon="10.318295656422132"><ele>700.0</ele><time>2026-04-27T11:15:54Z</time></trkpt><trkpt lat="46.178434846191685" lon="10.318535803938886"><ele>700.0</ele><time>2026-04-27T11:15:55Z</time></trkpt><trkpt lat="46.17848958904284" lon="10.318756678212305"><ele>700.0</ele><time>2026-04-27T11:15:56Z</time></trkpt><trkpt lat="46.178542492966514" lon="10.31896066466583"><ele>700.0</ele><time>2026-04-27T11:15:57Z</time></trkpt><trkpt lat="46.17858985400953" lon="10.319158715450506"><ele>697.25</ele><time>2026-04-27T11:15:58Z</time></trkpt><trkpt lat="46.17863084814817" lon="10.319338354285078"><ele>694.5</ele><time>2026-04-27T11:15:59Z</time></trkpt><trkpt lat="46.17868429225434" lon="10.319525205389304"><ele>691.75</ele><time>2026-04-27T11:16:00Z</time></trkpt><trkpt lat="46.178765774612" lon="10.319694891536049"><ele>689.0</ele><time>2026-04-27T11:16:01Z</time></trkpt><trkpt lat="46.17887349686153" lon="10.31985375329556"><ele>686.6666666666666</ele><time>2026-04-27T11:16:02Z</time></trkpt><trkpt lat="46.17900126993703" lon="10.320008950602578"><ele>684.3333333333334</ele><time>2026-04-27T11:16:03Z</time></trkpt><trkpt lat="46.179131430165945" lon="10.32016947085372"><ele>682.0</ele><time>2026-04-27T11:16:04Z</time></trkpt><trkpt lat="46.17925215386913" lon="10.320309446716665"><ele>685.3333333333334</ele><time>2026-04-27T11:16:05Z</time></trkpt><trkpt lat="46.17937299544313" lon="10.320457834862111"><ele>688.6666666666666</ele><time>2026-04-27T11:16:06Z</time></trkpt><trkpt lat="46.17948679011409" lon="10.320624176327057"><ele>692.0</ele><time>2026-04-27T11:16:07Z</time></trkpt><trkpt lat="46.17957848752744" lon="10.32082313823425"><ele>692.0</ele><time>2026-04-27T11:16:08Z</time></trkpt><trkpt lat="46.17964838043931" lon="10.321045567187227"><ele>692.0</ele><time>2026-04-27T11:16:09Z</time></trkpt><trkpt lat="46.17974057121491" lon="10.321274382356762"><ele>692.0</ele><time>2026-04-27T11:16:10Z</time></trkpt><trkpt lat="46.17982790150217" lon="10.32149490085507"><ele>692.75</ele><time>2026-04-27T11:16:11Z</time></trkpt><trkpt lat="46.17990530047968" lon="10.321695857160657"><ele>693.5</ele><time>2026-04-27T11:16:12Z</time></trkpt><trkpt lat="46.1799660301631" lon="10.321895229272764"><ele>694.25</ele><time>2026-04-27T11:16:13Z</time></trkpt><trkpt lat="46.18002476205515" lon="10.322073653745793"><ele>695.0</ele><time>2026-04-27T11:16:14Z</time></trkpt><trkpt lat="46.180047486757964" lon="10.322267134788763"><ele>695.0</ele><time>2026-04-27T11:16:15Z</time></trkpt><trkpt lat="46.18001740645475" lon="10.322494148171513"><ele>695.0</ele><time>2026-04-27T11:16:16Z</time></trkpt><trkpt lat="46.17995697325481" lon="10.322717447254998"><ele>695.0</ele><time>2026-04-27T11:16:17Z</time></trkpt><trkpt lat="46.17992594415765" lon="10.32293393142813"><ele>694.0</ele><time>2026-04-27T11:16:18Z</time></trkpt><trkpt lat="46.179927653200934" lon="10.323153218682924"><ele>693.0</ele><time>2026-04-27T11:16:19Z</time></trkpt><trkpt lat="46.17998963783527" lon="10.323371470697884"><ele>692.0</ele><time>2026-04-27T11:16:20Z</time></trkpt><trkpt lat="46.180047044981244" lon="10.323586141946679"><ele>692.0</ele><time>2026-04-27T11:16:21Z</time></trkpt><trkpt lat="46.18009178558271" lon="10.32380692316752"><ele>692.0</ele><time>2026-04-27T11:16:22Z</time></trkpt><trkpt lat="46.18012187929057" lon="10.324017326196394"><ele>692.0</ele><time>2026-04-27T11:16:23Z</time></trkpt><trkpt lat="46.18014106388874" lon="10.324222500185734"><ele>690.5</ele><time>2026-04-27T11:16:24Z</time></trkpt><trkpt lat="46.18014763363196" lon="10.324414569487233"><ele>689.0</ele><time>2026-04-27T11:16:25Z</time></trkpt><trkpt lat="46.18015605825107" lon="10.324591680774416"><ele>687.5</ele><time>2026-04-27T11:16:26Z</time></trkpt><trkpt lat="46.180166305327674" lon="10.324777856945516"><ele>686.0</ele><time>2026-04-27T11:16:27Z</time></trkpt><trkpt lat="46.18017794607364" lon="10.324968356929721"><ele>686.0</ele><time>2026-04-27T11:16:28Z</time></trkpt><trkpt lat="46.180188184773804" lon="10.325171799199834"><ele>686.0</ele><time>2026-04-27T11:16:29Z</time></trkpt><trkpt lat="46.18019383343938" lon="10.325358585072681"><ele>686.0</ele><time>2026-04-27T11:16:30Z</time></trkpt><trkpt lat="46.18020099753453" lon="10.325558665859637"><ele>686.0</ele><time>2026-04-27T11:16:31Z</time></trkpt><trkpt lat="46.18021139784684" lon="10.32576444466168"><ele>685.5</ele><time>2026-04-27T11:16:32Z</time></trkpt><trkpt lat="46.18022442441891" lon="10.32597401225843"><ele>685.0</ele><time>2026-04-27T11:16:33Z</time></trkpt><trkpt lat="46.18023915969771" lon="10.326185724021895"><ele>684.5</ele><time>2026-04-27T11:16:34Z</time></trkpt><trkpt lat="46.18020948746404" lon="10.326398556688615"><ele>684.0</ele><time>2026-04-27T11:16:35Z</time></trkpt><trkpt lat="46.18022068351225" lon="10.326592462004347"><ele>684.25</ele><time>2026-04-27T11:16:36Z</time></trkpt><trkpt lat="46.18023252991306" lon="10.32675986093319"><ele>684.5</ele><time>2026-04-27T11:16:37Z</time></trkpt><trkpt lat="46.18024520468975" lon="10.326944397056096"><ele>684.75</ele><time>2026-04-27T11:16:38Z</time></trkpt><trkpt lat="46.18025697301977" lon="10.32714561262465"><ele>685.0</ele><time>2026-04-27T11:16:39Z</time></trkpt><trkpt lat="46.180264741164116" lon="10.327349274499822"><ele>685.0</ele><time>2026-04-27T11:16:40Z</time></trkpt><trkpt lat="46.18027360175181" lon="10.327526764552987"><ele>685.0</ele><time>2026-04-27T11:16:41Z</time></trkpt><trkpt lat="46.18028339080349" lon="10.32770480614739"><ele>685.0</ele><time>2026-04-27T11:16:42Z</time></trkpt><trkpt lat="46.18030110189273" lon="10.327881848073133"><ele>685.0</ele><time>2026-04-27T11:16:43Z</time></trkpt><trkpt lat="46.18032031559325" lon="10.328079491000853"><ele>686.0</ele><time>2026-04-27T11:16:44Z</time></trkpt><trkpt lat="46.18033218276469" lon="10.328278059804887"><ele>687.0</ele><time>2026-04-27T11:16:45Z</time></trkpt><trkpt lat="46.18031979579722" lon="10.328480811237222"><ele>688.0</ele><time>2026-04-27T11:16:46Z</time></trkpt><trkpt lat="46.180325702610006" lon="10.328674681329522"><ele>689.0</ele><time>2026-04-27T11:16:47Z</time></trkpt><trkpt lat="46.180348899912055" lon="10.32887120730826"><ele>688.75</ele><time>2026-04-27T11:16:48Z</time></trkpt><trkpt lat="46.180312635776446" lon="10.329070335889329"><ele>688.5</ele><time>2026-04-27T11:16:49Z</time></trkpt><trkpt lat="46.18031529444707" lon="10.329249999741107"><ele>688.25</ele><time>2026-04-27T11:16:50Z</time></trkpt><trkpt lat="46.18031830153816" lon="10.329418162512773"><ele>688.0</ele><time>2026-04-27T11:16:51Z</time></trkpt><trkpt lat="46.18032978343896" lon="10.32955635863075"><ele>688.0</ele><time>2026-04-27T11:16:52Z</time></trkpt><trkpt lat="46.180339730336605" lon="10.329666095269756"><ele>688.0</ele><time>2026-04-27T11:16:53Z</time></trkpt><trkpt lat="46.18033071111784" lon="10.329826737045591"><ele>688.0</ele><time>2026-04-27T11:16:55Z</time></trkpt><trkpt lat="46.180286325614226" lon="10.329894986631219"><ele>688.0</ele><time>2026-04-27T11:16:56Z</time></trkpt><trkpt lat="46.18012616238467" lon="10.329856240359867"><ele>688.0</ele><time>2026-04-27T11:16:58Z</time></trkpt><trkpt lat="46.18002423097202" lon="10.32984016643574"><ele>687.25</ele><time>2026-04-27T11:16:59Z</time></trkpt><trkpt lat="46.17992126463788" lon="10.329823929313681"><ele>686.5</ele><time>2026-04-27T11:17:00Z</time></trkpt><trkpt lat="46.17979942921439" lon="10.329824662499572"><ele>685.75</ele><time>2026-04-27T11:17:01Z</time></trkpt><trkpt lat="46.17968324772658" lon="10.329788509131873"><ele>685.0</ele><time>2026-04-27T11:17:02Z</time></trkpt><trkpt lat="46.17956948209905" lon="10.329761939382031"><ele>683.75</ele><time>2026-04-27T11:17:03Z</time></trkpt><trkpt lat="46.17944213891259" lon="10.329731475619662"><ele>682.5</ele><time>2026-04-27T11:17:04Z</time></trkpt><trkpt lat="46.17931025951677" lon="10.329707960320174"><ele>681.25</ele><time>2026-04-27T11:17:05Z</time></trkpt><trkpt lat="46.179177444299" lon="10.32969306840821"><ele>680.0</ele><time>2026-04-27T11:17:06Z</time></trkpt><trkpt lat="46.179058577798344" lon="10.329675178386365"><ele>679.0</ele><time>2026-04-27T11:17:07Z</time></trkpt><trkpt lat="46.17895521792665" lon="10.329652779908491"><ele>678.0</ele><time>2026-04-27T11:17:08Z</time></trkpt><trkpt lat="46.17885518853532" lon="10.329649927373287"><ele>677.0</ele><time>2026-04-27T11:17:09Z</time></trkpt><trkpt lat="46.17875956417022" lon="10.329636693040431"><ele>676.0</ele><time>2026-04-27T11:17:10Z</time></trkpt><trkpt lat="46.17867691430283" lon="10.329614739002949"><ele>675.0</ele><time>2026-04-27T11:17:11Z</time></trkpt><trkpt lat="46.178587801391735" lon="10.329579708074341"><ele>675.0</ele><time>2026-04-27T11:17:13Z</time></trkpt><trkpt lat="46.17850099661172" lon="10.329584813975021"><ele>675.0</ele><time>2026-04-27T11:17:17Z</time></trkpt><trkpt lat="46.178383658965885" lon="10.329587946473858"><ele>675.0</ele><time>2026-04-27T11:17:19Z</time></trkpt><trkpt lat="46.178302706078384" lon="10.32957697588621"><ele>675.0</ele><time>2026-04-27T11:17:20Z</time></trkpt><trkpt lat="46.17820320081212" lon="10.329562321397306"><ele>675.0</ele><time>2026-04-27T11:17:21Z</time></trkpt><trkpt lat="46.17809413033002" lon="10.329550895633203"><ele>673.8</ele><time>2026-04-27T11:17:22Z</time></trkpt><trkpt lat="46.177979827585325" lon="10.32953657250645"><ele>672.6</ele><time>2026-04-27T11:17:23Z</time></trkpt><trkpt lat="46.177880148173855" lon="10.32952548569355"><ele>671.4000000000001</ele><time>2026-04-27T11:17:24Z</time></trkpt><trkpt lat="46.17779631324309" lon="10.329513522191192"><ele>670.2</ele><time>2026-04-27T11:17:25Z</time></trkpt><trkpt lat="46.17771838086191" lon="10.329499766492134"><ele>669.0</ele><time>2026-04-27T11:17:26Z</time></trkpt><trkpt lat="46.177628939928994" lon="10.329494242906003"><ele>669.0</ele><time>2026-04-27T11:17:27Z</time></trkpt><trkpt lat="46.1775411546999" lon="10.329483325794147"><ele>669.0</ele><time>2026-04-27T11:17:28Z</time></trkpt><trkpt lat="46.17747264777358" lon="10.329438547172693"><ele>669.0</ele><time>2026-04-27T11:17:29Z</time></trkpt><trkpt lat="46.177403047288614" lon="10.329390961149016"><ele>669.0</ele><time>2026-04-27T11:17:30Z</time></trkpt><trkpt lat="46.177321917160434" lon="10.329345698947717"><ele>669.0</ele><time>2026-04-27T11:17:31Z</time></trkpt><trkpt lat="46.177278099448976" lon="10.329221332908821"><ele>669.0</ele><time>2026-04-27T11:17:32Z</time></trkpt><trkpt lat="46.17726773971738" lon="10.329097554823539"><ele>668.0</ele><time>2026-04-27T11:17:33Z</time></trkpt><trkpt lat="46.177292055365584" lon="10.328919535996375"><ele>667.0</ele><time>2026-04-27T11:17:34Z</time></trkpt><trkpt lat="46.17731883441783" lon="10.328726570323083"><ele>666.0</ele><time>2026-04-27T11:17:35Z</time></trkpt><trkpt lat="46.177336569984" lon="10.328539043886556"><ele>665.0</ele><time>2026-04-27T11:17:36Z</time></trkpt><trkpt lat="46.17734534296946" lon="10.328357216739159"><ele>666.0</ele><time>2026-04-27T11:17:37Z</time></trkpt><trkpt lat="46.17735735984078" lon="10.32820009185968"><ele>667.0</ele><time>2026-04-27T11:17:38Z</time></trkpt><trkpt lat="46.177380943880095" lon="10.328029902633144"><ele>668.0</ele><time>2026-04-27T11:17:39Z</time></trkpt><trkpt lat="46.17739027449768" lon="10.327885316532317"><ele>669.0</ele><time>2026-04-27T11:17:40Z</time></trkpt><trkpt lat="46.177396721668586" lon="10.327755897342675"><ele>670.0</ele><time>2026-04-27T11:17:41Z</time></trkpt><trkpt lat="46.177405670463585" lon="10.327659274771305"><ele>670.0</ele><time>2026-04-27T11:17:42Z</time></trkpt><trkpt lat="46.17741873635596" lon="10.327558155437048"><ele>670.0</ele><time>2026-04-27T11:17:43Z</time></trkpt><trkpt lat="46.17742826177317" lon="10.327448015673594"><ele>670.0</ele><time>2026-04-27T11:17:44Z</time></trkpt><trkpt lat="46.17744178981061" lon="10.32732744429385"><ele>670.0</ele><time>2026-04-27T11:17:45Z</time></trkpt><trkpt lat="46.17745383324505" lon="10.327204479364108"><ele>670.0</ele><time>2026-04-27T11:17:46Z</time></trkpt><trkpt lat="46.17746158908001" lon="10.327047105190019"><ele>670.0</ele><time>2026-04-27T11:17:47Z</time></trkpt><trkpt lat="46.17746245457422" lon="10.326912235923574"><ele>669.8</ele><time>2026-04-27T11:17:48Z</time></trkpt><trkpt lat="46.17743518018098" lon="10.326813388144929"><ele>669.6</ele><time>2026-04-27T11:17:49Z</time></trkpt><trkpt lat="46.17740618698054" lon="10.326713949246988"><ele>669.4000000000001</ele><time>2026-04-27T11:17:50Z</time></trkpt><trkpt lat="46.177294157433714" lon="10.32663212354886"><ele>669.2</ele><time>2026-04-27T11:17:51Z</time></trkpt><trkpt lat="46.17717744532635" lon="10.326590942282069"><ele>669.0</ele><time>2026-04-27T11:17:52Z</time></trkpt><trkpt lat="46.17707077638416" lon="10.326595258545279"><ele>668.4000000000001</ele><time>2026-04-27T11:17:53Z</time></trkpt><trkpt lat="46.17698297427049" lon="10.326642416379007"><ele>667.8</ele><time>2026-04-27T11:17:54Z</time></trkpt><trkpt lat="46.17690779141555" lon="10.326752366690275"><ele>667.2</ele><time>2026-04-27T11:17:55Z</time></trkpt><trkpt lat="46.17686140564097" lon="10.32688865456613"><ele>666.5999999999999</ele><time>2026-04-27T11:17:56Z</time></trkpt><trkpt lat="46.17684198442254" lon="10.327063302122113"><ele>666.0</ele><time>2026-04-27T11:17:57Z</time></trkpt><trkpt lat="46.17684739915806" lon="10.3272696013102"><ele>666.0</ele><time>2026-04-27T11:17:58Z</time></trkpt><trkpt lat="46.1768295400201" lon="10.327485376266397"><ele>666.0</ele><time>2026-04-27T11:17:59Z</time></trkpt><trkpt lat="46.17681399037799" lon="10.32768239346428"><ele>666.0</ele><time>2026-04-27T11:18:00Z</time></trkpt><trkpt lat="46.17680073305787" lon="10.327858065906888"><ele>666.0</ele><time>2026-04-27T11:18:01Z</time></trkpt><trkpt lat="46.17679368340005" lon="10.328015314657844"><ele>665.8</ele><time>2026-04-27T11:18:02Z</time></trkpt><trkpt lat="46.17678716057148" lon="10.328175865068115"><ele>665.5999999999999</ele><time>2026-04-27T11:18:03Z</time></trkpt><trkpt lat="46.17676670747339" lon="10.328331909510975"><ele>665.4</ele><time>2026-04-27T11:18:04Z</time></trkpt><trkpt lat="46.176739496558135" lon="10.328481011550291"><ele>665.2</ele><time>2026-04-27T11:18:05Z</time></trkpt><trkpt lat="46.176736729063755" lon="10.328650626815483"><ele>665.0</ele><time>2026-04-27T11:18:06Z</time></trkpt><trkpt lat="46.17671885579652" lon="10.328821182745884"><ele>664.75</ele><time>2026-04-27T11:18:07Z</time></trkpt><trkpt lat="46.17669593007468" lon="10.328997743803917"><ele>664.5</ele><time>2026-04-27T11:18:08Z</time></trkpt><trkpt lat="46.17668114146268" lon="10.329188581303162"><ele>664.25</ele><time>2026-04-27T11:18:09Z</time></trkpt><trkpt lat="46.17666759507853" lon="10.329385277967814"><ele>664.0</ele><time>2026-04-27T11:18:10Z</time></trkpt><trkpt lat="46.176653488133965" lon="10.329591207882173"><ele>664.25</ele><time>2026-04-27T11:18:11Z</time></trkpt><trkpt lat="46.176636323195126" lon="10.3297888120465"><ele>664.5</ele><time>2026-04-27T11:18:12Z</time></trkpt><trkpt lat="46.17661423389824" lon="10.330005115861265"><ele>664.75</ele><time>2026-04-27T11:18:13Z</time></trkpt><trkpt lat="46.176596848065934" lon="10.330207923484592"><ele>665.0</ele><time>2026-04-27T11:18:14Z</time></trkpt><trkpt lat="46.17658250580181" lon="10.330410396214887"><ele>665.0</ele><time>2026-04-27T11:18:15Z</time></trkpt><trkpt lat="46.17652314319743" lon="10.330613594173752"><ele>665.0</ele><time>2026-04-27T11:18:16Z</time></trkpt><trkpt lat="46.176538714286764" lon="10.330837733132485"><ele>665.0</ele><time>2026-04-27T11:18:17Z</time></trkpt><trkpt lat="46.17652238155607" lon="10.331020429190339"><ele>665.0</ele><time>2026-04-27T11:18:18Z</time></trkpt><trkpt lat="46.176511236896346" lon="10.3311813981296"><ele>664.8333333333333</ele><time>2026-04-27T11:18:19Z</time></trkpt><trkpt lat="46.17650161180169" lon="10.33132433235997"><ele>664.6666666666666</ele><time>2026-04-27T11:18:20Z</time></trkpt><trkpt lat="46.176420905328534" lon="10.331426585548808"><ele>664.5</ele><time>2026-04-27T11:18:21Z</time></trkpt><trkpt lat="46.17636448667279" lon="10.33148365312885"><ele>664.3333333333334</ele><time>2026-04-27T11:18:22Z</time></trkpt><trkpt lat="46.17628685779972" lon="10.331523558962967"><ele>664.1666666666667</ele><time>2026-04-27T11:18:23Z</time></trkpt><trkpt lat="46.176197192154646" lon="10.331525269274849"><ele>664.0</ele><time>2026-04-27T11:18:24Z</time></trkpt><trkpt lat="46.176080605468876" lon="10.331495549217795"><ele>664.0</ele><time>2026-04-27T11:18:25Z</time></trkpt><trkpt lat="46.17594112296139" lon="10.331483870068679"><ele>664.0</ele><time>2026-04-27T11:18:26Z</time></trkpt><trkpt lat="46.1758146905044" lon="10.331474434807609"><ele>664.0</ele><time>2026-04-27T11:18:27Z</time></trkpt><trkpt lat="46.175679536646385" lon="10.331488098556461"><ele>664.0</ele><time>2026-04-27T11:18:28Z</time></trkpt><trkpt lat="46.17555497946025" lon="10.331459568039902"><ele>662.75</ele><time>2026-04-27T11:18:29Z</time></trkpt><trkpt lat="46.17542018803945" lon="10.331453306747255"><ele>661.5</ele><time>2026-04-27T11:18:30Z</time></trkpt><trkpt lat="46.17529556245173" lon="10.331444343835118"><ele>660.25</ele><time>2026-04-27T11:18:31Z</time></trkpt><trkpt lat="46.175180526194445" lon="10.331425004318518"><ele>659.0</ele><time>2026-04-27T11:18:32Z</time></trkpt><trkpt lat="46.17508717185443" lon="10.331380581153939"><ele>658.8000000000001</ele><time>2026-04-27T11:18:33Z</time></trkpt><trkpt lat="46.17500713402398" lon="10.3313064345866"><ele>658.6</ele><time>2026-04-27T11:18:34Z</time></trkpt><trkpt lat="46.17493088336871" lon="10.331216139883622"><ele>658.4</ele><time>2026-04-27T11:18:35Z</time></trkpt><trkpt lat="46.174863019336655" lon="10.331117448115158"><ele>658.2</ele><time>2026-04-27T11:18:36Z</time></trkpt><trkpt lat="46.17478691693053" lon="10.331057588194817"><ele>658.0</ele><time>2026-04-27T11:18:37Z</time></trkpt><trkpt lat="46.1747039752713" lon="10.331006995081431"><ele>657.5999999999999</ele><time>2026-04-27T11:18:38Z</time></trkpt><trkpt lat="46.17462017424498" lon="10.331046506283919"><ele>657.1999999999999</ele><time>2026-04-27T11:18:39Z</time></trkpt><trkpt lat="46.17456728855603" lon="10.331154632478055"><ele>656.8</ele><time>2026-04-27T11:18:40Z</time></trkpt><trkpt lat="46.17454504772559" lon="10.33128999011705"><ele>656.4</ele><time>2026-04-27T11:18:41Z</time></trkpt><trkpt lat="46.17457428866426" lon="10.331447342421553"><ele>656.0</ele><time>2026-04-27T11:18:42Z</time></trkpt><trkpt lat="46.17462114962544" lon="10.331639497513217"><ele>656.0</ele><time>2026-04-27T11:18:43Z</time></trkpt><trkpt lat="46.17465554390141" lon="10.331844814096742"><ele>656.0</ele><time>2026-04-27T11:18:44Z</time></trkpt><trkpt lat="46.174653015240246" lon="10.332061490889823"><ele>656.0</ele><time>2026-04-27T11:18:45Z</time></trkpt><trkpt lat="46.17463542833984" lon="10.332262130683512"><ele>656.0</ele><time>2026-04-27T11:18:46Z</time></trkpt><trkpt lat="46.1746129527813" lon="10.332437737961857"><ele>656.0</ele><time>2026-04-27T11:18:47Z</time></trkpt><trkpt lat="46.1745935627889" lon="10.33259263500383"><ele>656.0</ele><time>2026-04-27T11:18:48Z</time></trkpt><trkpt lat="46.17457038348044" lon="10.332747583948137"><ele>656.0</ele><time>2026-04-27T11:18:49Z</time></trkpt><trkpt lat="46.174543669872186" lon="10.33292445199064"><ele>656.0</ele><time>2026-04-27T11:18:50Z</time></trkpt><trkpt lat="46.174500615669515" lon="10.333122373882548"><ele>656.0</ele><time>2026-04-27T11:18:51Z</time></trkpt><trkpt lat="46.174459118158815" lon="10.333333175306713"><ele>656.0</ele><time>2026-04-27T11:18:52Z</time></trkpt><trkpt lat="46.17441487904426" lon="10.333552626537198"><ele>656.0</ele><time>2026-04-27T11:18:53Z</time></trkpt><trkpt lat="46.17436577208704" lon="10.333769484326222"><ele>655.6666666666666</ele><time>2026-04-27T11:18:54Z</time></trkpt><trkpt lat="46.1743143975029" lon="10.333990793460394"><ele>655.3333333333334</ele><time>2026-04-27T11:18:55Z</time></trkpt><trkpt lat="46.1742627019585" lon="10.334210869975706"><ele>655.0</ele><time>2026-04-27T11:18:56Z</time></trkpt><trkpt lat="46.174216243974215" lon="10.334419499676695"><ele>655.0</ele><time>2026-04-27T11:18:57Z</time></trkpt><trkpt lat="46.17417009642744" lon="10.334631631849076"><ele>655.0</ele><time>2026-04-27T11:18:58Z</time></trkpt><trkpt lat="46.17412429551636" lon="10.334853677237058"><ele>655.0</ele><time>2026-04-27T11:18:59Z</time></trkpt><trkpt lat="46.1740821898752" lon="10.335051612595949"><ele>655.0</ele><time>2026-04-27T11:19:00Z</time></trkpt><trkpt lat="46.17404320571686" lon="10.335242590899233"><ele>655.0</ele><time>2026-04-27T11:19:01Z</time></trkpt><trkpt lat="46.17401080218977" lon="10.33542099139963"><ele>655.0</ele><time>2026-04-27T11:19:02Z</time></trkpt><trkpt lat="46.17396878760678" lon="10.335592246304804"><ele>655.0</ele><time>2026-04-27T11:19:03Z</time></trkpt><trkpt lat="46.173921418572256" lon="10.335789251527766"><ele>655.0</ele><time>2026-04-27T11:19:04Z</time></trkpt><trkpt lat="46.173870911961195" lon="10.335979220561416"><ele>655.0</ele><time>2026-04-27T11:19:05Z</time></trkpt><trkpt lat="46.173824307597144" lon="10.336182925654324"><ele>655.0</ele><time>2026-04-27T11:19:06Z</time></trkpt><trkpt lat="46.173773448221816" lon="10.33640015991134"><ele>655.0</ele><time>2026-04-27T11:19:07Z</time></trkpt><trkpt lat="46.17372221058152" lon="10.336620000443368"><ele>654.0</ele><time>2026-04-27T11:19:08Z</time></trkpt><trkpt lat="46.17367053607953" lon="10.336855288752753"><ele>653.0</ele><time>2026-04-27T11:19:09Z</time></trkpt><trkpt lat="46.17361841005957" lon="10.337071079719976"><ele>652.0</ele><time>2026-04-27T11:19:10Z</time></trkpt><trkpt lat="46.173554669999284" lon="10.337300739406233"><ele>651.6666666666667</ele><time>2026-04-27T11:19:11Z</time></trkpt><trkpt lat="46.1734848013424" lon="10.337532225723034"><ele>651.3333333333334</ele><time>2026-04-27T11:19:12Z</time></trkpt><trkpt lat="46.17341910963081" lon="10.337744153985406"><ele>651.0</ele><time>2026-04-27T11:19:13Z</time></trkpt><trkpt lat="46.173351975838976" lon="10.337941803410889"><ele>651.0</ele><time>2026-04-27T11:19:14Z</time></trkpt><trkpt lat="46.17329906839879" lon="10.338119714519836"><ele>651.0</ele><time>2026-04-27T11:19:15Z</time></trkpt><trkpt lat="46.173234969953505" lon="10.338280017405792"><ele>651.0</ele><time>2026-04-27T11:19:16Z</time></trkpt><trkpt lat="46.173167608391964" lon="10.338458623128934"><ele>651.0</ele><time>2026-04-27T11:19:17Z</time></trkpt><trkpt lat="46.17309892992" lon="10.338637114827312"><ele>651.0</ele><time>2026-04-27T11:19:18Z</time></trkpt><trkpt lat="46.17302495379513" lon="10.338824434545618"><ele>651.0</ele><time>2026-04-27T11:19:19Z</time></trkpt><trkpt lat="46.17293127877878" lon="10.338982471461716"><ele>651.0</ele><time>2026-04-27T11:19:20Z</time></trkpt><trkpt lat="46.17285131828738" lon="10.339141106886371"><ele>651.0</ele><time>2026-04-27T11:19:21Z</time></trkpt><trkpt lat="46.17276642007818" lon="10.339297045904939"><ele>651.0</ele><time>2026-04-27T11:19:22Z</time></trkpt><trkpt lat="46.17268409594464" lon="10.33944260282156"><ele>651.0</ele><time>2026-04-27T11:19:23Z</time></trkpt><trkpt lat="46.172600132172526" lon="10.339584817022473"><ele>651.0</ele><time>2026-04-27T11:19:24Z</time></trkpt><trkpt lat="46.17252685053696" lon="10.33973994518312"><ele>651.0</ele><time>2026-04-27T11:19:25Z</time></trkpt><trkpt lat="46.17244405315618" lon="10.339850136887197"><ele>650.0</ele><time>2026-04-27T11:19:26Z</time></trkpt><trkpt lat="46.17237792040234" lon="10.33995780987556"><ele>649.0</ele><time>2026-04-27T11:19:27Z</time></trkpt><trkpt lat="46.172293897461635" lon="10.340087108088351"><ele>648.0</ele><time>2026-04-27T11:19:28Z</time></trkpt><trkpt lat="46.17219578841767" lon="10.340243628995244"><ele>647.0</ele><time>2026-04-27T11:19:29Z</time></trkpt><trkpt lat="46.17209324222176" lon="10.340410479160983"><ele>646.25</ele><time>2026-04-27T11:19:30Z</time></trkpt><trkpt lat="46.171999007387456" lon="10.340561254724747"><ele>645.5</ele><time>2026-04-27T11:19:31Z</time></trkpt><trkpt lat="46.17190960322333" lon="10.340707248043946"><ele>644.75</ele><time>2026-04-27T11:19:32Z</time></trkpt><trkpt lat="46.171821340701605" lon="10.34084300794639"><ele>644.0</ele><time>2026-04-27T11:19:33Z</time></trkpt><trkpt lat="46.171733905127795" lon="10.34097210908735"><ele>644.0</ele><time>2026-04-27T11:19:34Z</time></trkpt><trkpt lat="46.17164973230101" lon="10.34110760320816"><ele>644.0</ele><time>2026-04-27T11:19:35Z</time></trkpt><trkpt lat="46.17156255717621" lon="10.34124084076219"><ele>644.0</ele><time>2026-04-27T11:19:36Z</time></trkpt><trkpt lat="46.17147567566421" lon="10.341375191819697"><ele>644.0</ele><time>2026-04-27T11:19:37Z</time></trkpt><trkpt lat="46.17139390743723" lon="10.341496347464096"><ele>643.0</ele><time>2026-04-27T11:19:38Z</time></trkpt><trkpt lat="46.17132272227491" lon="10.341612730729697"><ele>642.0</ele><time>2026-04-27T11:19:39Z</time></trkpt><trkpt lat="46.171268820277305" lon="10.341742582717153"><ele>641.0</ele><time>2026-04-27T11:19:40Z</time></trkpt><trkpt lat="46.17124054595587" lon="10.341854321396035"><ele>640.0</ele><time>2026-04-27T11:19:41Z</time></trkpt><trkpt lat="46.171248413617135" lon="10.342065944923414"><ele>639.0</ele><time>2026-04-27T11:19:44Z</time></trkpt><trkpt lat="46.1712703946709" lon="10.34218055956935"><ele>639.2</ele><time>2026-04-27T11:19:46Z</time></trkpt><trkpt lat="46.171322190104966" lon="10.34231998320439"><ele>639.4</ele><time>2026-04-27T11:19:48Z</time></trkpt><trkpt lat="46.17135850493764" lon="10.342414876975761"><ele>639.6</ele><time>2026-04-27T11:19:49Z</time></trkpt><trkpt lat="46.171387233483436" lon="10.342546336144775"><ele>639.8</ele><time>2026-04-27T11:19:50Z</time></trkpt><trkpt lat="46.17139869509949" lon="10.34268726083283"><ele>640.0</ele><time>2026-04-27T11:19:51Z</time></trkpt><trkpt lat="46.17140246172422" lon="10.342838272238149"><ele>640.0</ele><time>2026-04-27T11:19:52Z</time></trkpt><trkpt lat="46.1713930918882" lon="10.343002555948354"><ele>640.0</ele><time>2026-04-27T11:19:53Z</time></trkpt><trkpt lat="46.17136231903747" lon="10.34318785791246"><ele>640.0</ele><time>2026-04-27T11:19:54Z</time></trkpt><trkpt lat="46.171309859950526" lon="10.343378964115592"><ele>640.0</ele><time>2026-04-27T11:19:55Z</time></trkpt><trkpt lat="46.171231560507465" lon="10.34359521548687"><ele>639.0</ele><time>2026-04-27T11:19:56Z</time></trkpt><trkpt lat="46.17114059300652" lon="10.343791457783254"><ele>638.0</ele><time>2026-04-27T11:19:57Z</time></trkpt><trkpt lat="46.171044041866914" lon="10.34395625151956"><ele>637.0</ele><time>2026-04-27T11:19:58Z</time></trkpt><trkpt lat="46.17095679124351" lon="10.34409829871435"><ele>636.0</ele><time>2026-04-27T11:19:59Z</time></trkpt><trkpt lat="46.170874310103855" lon="10.344228507776485"><ele>635.5</ele><time>2026-04-27T11:20:00Z</time></trkpt><trkpt lat="46.17079373358678" lon="10.344344756357465"><ele>635.0</ele><time>2026-04-27T11:20:01Z</time></trkpt><trkpt lat="46.17071966460915" lon="10.344462668361379"><ele>634.5</ele><time>2026-04-27T11:20:02Z</time></trkpt><trkpt lat="46.170640495071865" lon="10.344589574653709"><ele>634.0</ele><time>2026-04-27T11:20:03Z</time></trkpt><trkpt lat="46.17055935138018" lon="10.34472212252792"><ele>633.8</ele><time>2026-04-27T11:20:04Z</time></trkpt><trkpt lat="46.17049308572957" lon="10.344836351994516"><ele>633.5999999999999</ele><time>2026-04-27T11:20:05Z</time></trkpt><trkpt lat="46.17042938421027" lon="10.34494407458983"><ele>633.4</ele><time>2026-04-27T11:20:06Z</time></trkpt><trkpt lat="46.170369006243064" lon="10.345034677316828"><ele>633.1999999999999</ele><time>2026-04-27T11:20:07Z</time></trkpt><trkpt lat="46.17031054460965" lon="10.34512448736908"><ele>633.0</ele><time>2026-04-27T11:20:08Z</time></trkpt><trkpt lat="46.17024375602467" lon="10.345233405041581"><ele>633.0</ele><time>2026-04-27T11:20:09Z</time></trkpt><trkpt lat="46.17017241282628" lon="10.345345875887205"><ele>633.0</ele><time>2026-04-27T11:20:10Z</time></trkpt><trkpt lat="46.17007762923622" lon="10.345451309508908"><ele>633.0</ele><time>2026-04-27T11:20:11Z</time></trkpt><trkpt lat="46.16999665279665" lon="10.345586235773663"><ele>633.0</ele><time>2026-04-27T11:20:12Z</time></trkpt><trkpt lat="46.16991176753231" lon="10.345720814648548"><ele>632.4</ele><time>2026-04-27T11:20:13Z</time></trkpt><trkpt lat="46.16983118565092" lon="10.345854655853413"><ele>631.8</ele><time>2026-04-27T11:20:14Z</time></trkpt><trkpt lat="46.169765313720156" lon="10.34597462649012"><ele>631.2</ele><time>2026-04-27T11:20:15Z</time></trkpt><trkpt lat="46.16969887980477" lon="10.346085519233043"><ele>630.6</ele><time>2026-04-27T11:20:16Z</time></trkpt><trkpt lat="46.16964253909502" lon="10.346178711368047"><ele>630.0</ele><time>2026-04-27T11:20:17Z</time></trkpt><trkpt lat="46.169596913968526" lon="10.346264399258573"><ele>630.0</ele><time>2026-04-27T11:20:18Z</time></trkpt><trkpt lat="46.16954361224653" lon="10.346351750058792"><ele>630.0</ele><time>2026-04-27T11:20:19Z</time></trkpt><trkpt lat="46.1694879715751" lon="10.346443905435704"><ele>630.0</ele><time>2026-04-27T11:20:20Z</time></trkpt><trkpt lat="46.16944224396841" lon="10.346528078364129"><ele>630.0</ele><time>2026-04-27T11:20:21Z</time></trkpt><trkpt lat="46.169391964026595" lon="10.346598139299722"><ele>630.0</ele><time>2026-04-27T11:20:22Z</time></trkpt><trkpt lat="46.16931850813797" lon="10.346664564525959"><ele>630.0</ele><time>2026-04-27T11:20:23Z</time></trkpt><trkpt lat="46.16923328680651" lon="10.346699956066459"><ele>629.6666666666666</ele><time>2026-04-27T11:20:24Z</time></trkpt><trkpt lat="46.16917025908751" lon="10.346752454552032"><ele>629.3333333333334</ele><time>2026-04-27T11:20:25Z</time></trkpt><trkpt lat="46.169118075085784" lon="10.346853432072082"><ele>629.0</ele><time>2026-04-27T11:20:26Z</time></trkpt><trkpt lat="46.16909544862139" lon="10.346970608764224"><ele>628.6666666666667</ele><time>2026-04-27T11:20:27Z</time></trkpt><trkpt lat="46.169072459574124" lon="10.347089646354855"><ele>628.3333333333334</ele><time>2026-04-27T11:20:28Z</time></trkpt><trkpt lat="46.16902148292897" lon="10.347212252888212"><ele>628.0</ele><time>2026-04-27T11:20:29Z</time></trkpt><trkpt lat="46.16893030697446" lon="10.347352709232883"><ele>627.3333333333334</ele><time>2026-04-27T11:20:30Z</time></trkpt><trkpt lat="46.16883570665434" lon="10.347518744746383"><ele>626.6666666666666</ele><time>2026-04-27T11:20:31Z</time></trkpt><trkpt lat="46.16869581736573" lon="10.347668326086596"><ele>626.0</ele><time>2026-04-27T11:20:32Z</time></trkpt><trkpt lat="46.168563892542224" lon="10.347874481391957"><ele>626.3333333333333</ele><time>2026-04-27T11:20:33Z</time></trkpt><trkpt lat="46.16844724565048" lon="10.348055981375392"><ele>626.6666666666666</ele><time>2026-04-27T11:20:34Z</time></trkpt><trkpt lat="46.16834729330235" lon="10.348232880321227"><ele>627.0</ele><time>2026-04-27T11:20:35Z</time></trkpt><trkpt lat="46.168237205480885" lon="10.348371059290645"><ele>626.5</ele><time>2026-04-27T11:20:36Z</time></trkpt><trkpt lat="46.16814360032003" lon="10.34851749461924"><ele>626.0</ele><time>2026-04-27T11:20:37Z</time></trkpt><trkpt lat="46.16805044703746" lon="10.348657116624315"><ele>625.5</ele><time>2026-04-27T11:20:38Z</time></trkpt><trkpt lat="46.16795076826388" lon="10.348824383671289"><ele>625.0</ele><time>2026-04-27T11:20:39Z</time></trkpt><trkpt lat="46.16784990639792" lon="10.348973481371758"><ele>624.6666666666667</ele><time>2026-04-27T11:20:40Z</time></trkpt><trkpt lat="46.16774360088385" lon="10.349114701012743"><ele>624.3333333333334</ele><time>2026-04-27T11:20:41Z</time></trkpt><trkpt lat="46.16761821493431" lon="10.34923969140052"><ele>624.0</ele><time>2026-04-27T11:20:42Z</time></trkpt><trkpt lat="46.16747838448686" lon="10.349347674926403"><ele>622.6666666666666</ele><time>2026-04-27T11:20:43Z</time></trkpt><trkpt lat="46.16732123990813" lon="10.3494152251707"><ele>621.3333333333333</ele><time>2026-04-27T11:20:44Z</time></trkpt><trkpt lat="46.16714617996991" lon="10.349477487442742"><ele>620.0</ele><time>2026-04-27T11:20:45Z</time></trkpt><trkpt lat="46.16694522487611" lon="10.349533453831109"><ele>620.0</ele><time>2026-04-27T11:20:46Z</time></trkpt><trkpt lat="46.16675505435596" lon="10.349582003192808"><ele>620.0</ele><time>2026-04-27T11:20:47Z</time></trkpt><trkpt lat="46.16655894691319" lon="10.349632068211768"><ele>620.0</ele><time>2026-04-27T11:20:48Z</time></trkpt><trkpt lat="46.16637301996574" lon="10.349679534216504"><ele>621.6666666666666</ele><time>2026-04-27T11:20:49Z</time></trkpt><trkpt lat="46.1662061727393" lon="10.349722129287077"><ele>623.3333333333334</ele><time>2026-04-27T11:20:50Z</time></trkpt><trkpt lat="46.16605327345971" lon="10.349760766346318"><ele>625.0</ele><time>2026-04-27T11:20:51Z</time></trkpt><trkpt lat="46.16591317707757" lon="10.349796043617388"><ele>625.0</ele><time>2026-04-27T11:20:52Z</time></trkpt><trkpt lat="46.16577715075134" lon="10.349832276819923"><ele>625.0</ele><time>2026-04-27T11:20:53Z</time></trkpt><trkpt lat="46.16564231686912" lon="10.349873075256802"><ele>625.0</ele><time>2026-04-27T11:20:54Z</time></trkpt><trkpt lat="46.16551414982781" lon="10.349932897022164"><ele>625.0</ele><time>2026-04-27T11:20:55Z</time></trkpt><trkpt lat="46.165392824210876" lon="10.349975209511301"><ele>624.0</ele><time>2026-04-27T11:20:56Z</time></trkpt><trkpt lat="46.165281941549836" lon="10.350032188745665"><ele>623.0</ele><time>2026-04-27T11:20:57Z</time></trkpt><trkpt lat="46.16515866994463" lon="10.350083329081105"><ele>622.0</ele><time>2026-04-27T11:20:58Z</time></trkpt><trkpt lat="46.165041856976934" lon="10.350107220882688"><ele>621.0</ele><time>2026-04-27T11:20:59Z</time></trkpt><trkpt lat="46.16492128706241" lon="10.35013262014701"><ele>620.75</ele><time>2026-04-27T11:21:00Z</time></trkpt><trkpt lat="46.16480890155843" lon="10.350161897045696"><ele>620.5</ele><time>2026-04-27T11:21:01Z</time></trkpt><trkpt lat="46.16468711130523" lon="10.350183456235943"><ele>620.25</ele><time>2026-04-27T11:21:02Z</time></trkpt><trkpt lat="46.16456893100231" lon="10.350189598792564"><ele>620.0</ele><time>2026-04-27T11:21:03Z</time></trkpt><trkpt lat="46.16442105600368" lon="10.350223888488905"><ele>620.0</ele><time>2026-04-27T11:21:04Z</time></trkpt><trkpt lat="46.16426113649768" lon="10.350294954077604"><ele>620.0</ele><time>2026-04-27T11:21:05Z</time></trkpt><trkpt lat="46.16408760360646" lon="10.350354346970663"><ele>620.0</ele><time>2026-04-27T11:21:06Z</time></trkpt><trkpt lat="46.16390176053379" lon="10.350317436911533"><ele>619.3333333333333</ele><time>2026-04-27T11:21:07Z</time></trkpt><trkpt lat="46.163742646783554" lon="10.350359033279348"><ele>618.6666666666666</ele><time>2026-04-27T11:21:08Z</time></trkpt><trkpt lat="46.16359282829375" lon="10.350467391079498"><ele>618.0</ele><time>2026-04-27T11:21:09Z</time></trkpt><trkpt lat="46.163428825377224" lon="10.350507510341169"><ele>618.0</ele><time>2026-04-27T11:21:10Z</time></trkpt><trkpt lat="46.163262071929765" lon="10.35054619772206"><ele>618.0</ele><time>2026-04-27T11:21:11Z</time></trkpt><trkpt lat="46.16308771928192" lon="10.350579450214434"><ele>618.0</ele><time>2026-04-27T11:21:12Z</time></trkpt><trkpt lat="46.16290765700809" lon="10.350552527464203"><ele>618.0</ele><time>2026-04-27T11:21:13Z</time></trkpt><trkpt lat="46.16274661366243" lon="10.350613705146968"><ele>618.0</ele><time>2026-04-27T11:21:14Z</time></trkpt><trkpt lat="46.16259891313424" lon="10.350609673711812"><ele>618.0</ele><time>2026-04-27T11:21:15Z</time></trkpt><trkpt lat="46.16244977719361" lon="10.350595326626317"><ele>617.3333333333334</ele><time>2026-04-27T11:21:16Z</time></trkpt><trkpt lat="46.162294673087" lon="10.350562050305413"><ele>616.6666666666667</ele><time>2026-04-27T11:21:17Z</time></trkpt><trkpt lat="46.16214517790011" lon="10.350457980416909"><ele>616.0</ele><time>2026-04-27T11:21:18Z</time></trkpt><trkpt lat="46.162015728730964" lon="10.350401955973608"><ele>616.0</ele><time>2026-04-27T11:21:19Z</time></trkpt><trkpt lat="46.161923360203325" lon="10.350351768869814"><ele>616.0</ele><time>2026-04-27T11:21:20Z</time></trkpt><trkpt lat="46.16184621887711" lon="10.350305038933024"><ele>616.0</ele><time>2026-04-27T11:21:21Z</time></trkpt><trkpt lat="46.161771192657596" lon="10.350254922421795"><ele>616.0</ele><time>2026-04-27T11:21:22Z</time></trkpt><trkpt lat="46.16168902632568" lon="10.350195209194217"><ele>616.0</ele><time>2026-04-27T11:21:23Z</time></trkpt><trkpt lat="46.16158580014494" lon="10.350135560655259"><ele>615.5</ele><time>2026-04-27T11:21:24Z</time></trkpt><trkpt lat="46.16147307929147" lon="10.3500389313722"><ele>615.0</ele><time>2026-04-27T11:21:25Z</time></trkpt><trkpt lat="46.16134728802883" lon="10.349932963275615"><ele>614.5</ele><time>2026-04-27T11:21:26Z</time></trkpt><trkpt lat="46.16120968122736" lon="10.349822704246417"><ele>614.0</ele><time>2026-04-27T11:21:27Z</time></trkpt><trkpt lat="46.161055079754995" lon="10.3497076516434"><ele>614.0</ele><time>2026-04-27T11:21:28Z</time></trkpt><trkpt lat="46.16089349244005" lon="10.349585965005904"><ele>614.0</ele><time>2026-04-27T11:21:29Z</time></trkpt><trkpt lat="46.16073438433825" lon="10.34943272736726"><ele>614.0</ele><time>2026-04-27T11:21:30Z</time></trkpt><trkpt lat="46.16057168254301" lon="10.349315039173726"><ele>615.3333333333333</ele><time>2026-04-27T11:21:31Z</time></trkpt><trkpt lat="46.16041943252194" lon="10.349201445906726"><ele>616.6666666666666</ele><time>2026-04-27T11:21:32Z</time></trkpt><trkpt lat="46.160276621121064" lon="10.349099500164783"><ele>618.0</ele><time>2026-04-27T11:21:33Z</time></trkpt><trkpt lat="46.160138173886615" lon="10.349007482492821"><ele>618.0</ele><time>2026-04-27T11:21:34Z</time></trkpt><trkpt lat="46.16000326339361" lon="10.34891927842728"><ele>618.0</ele><time>2026-04-27T11:21:35Z</time></trkpt><trkpt lat="46.15987286591594" lon="10.34882742779781"><ele>618.0</ele><time>2026-04-27T11:21:36Z</time></trkpt><trkpt lat="46.159743672829336" lon="10.348733174653926"><ele>618.0</ele><time>2026-04-27T11:21:37Z</time></trkpt><trkpt lat="46.15959699402382" lon="10.348661117022976"><ele>616.3333333333334</ele><time>2026-04-27T11:21:38Z</time></trkpt><trkpt lat="46.159434433032736" lon="10.348623511978031"><ele>614.6666666666667</ele><time>2026-04-27T11:21:39Z</time></trkpt><trkpt lat="46.15927420104882" lon="10.348624425353028"><ele>613.0</ele><time>2026-04-27T11:21:40Z</time></trkpt><trkpt lat="46.159134913207104" lon="10.348613450687115"><ele>613.6666666666667</ele><time>2026-04-27T11:21:41Z</time></trkpt><trkpt lat="46.15898227401317" lon="10.348635375196794"><ele>614.3333333333334</ele><time>2026-04-27T11:21:42Z</time></trkpt><trkpt lat="46.15881546046017" lon="10.34868651913434"><ele>615.0</ele><time>2026-04-27T11:21:43Z</time></trkpt><trkpt lat="46.15866188264114" lon="10.348697949898545"><ele>615.0</ele><time>2026-04-27T11:21:44Z</time></trkpt><trkpt lat="46.15852650324154" lon="10.34872663366022"><ele>615.0</ele><time>2026-04-27T11:21:45Z</time></trkpt><trkpt lat="46.15838899201949" lon="10.34875556558224"><ele>615.0</ele><time>2026-04-27T11:21:46Z</time></trkpt><trkpt lat="46.158254697488125" lon="10.34879949564197"><ele>615.0</ele><time>2026-04-27T11:21:47Z</time></trkpt><trkpt lat="46.15813191612492" lon="10.348820277738795"><ele>614.4</ele><time>2026-04-27T11:21:48Z</time></trkpt><trkpt lat="46.15803055319411" lon="10.348839857570113"><ele>613.8</ele><time>2026-04-27T11:21:49Z</time></trkpt><trkpt lat="46.15794943705416" lon="10.348832707519623"><ele>613.2</ele><time>2026-04-27T11:21:50Z</time></trkpt><trkpt lat="46.157861334773344" lon="10.34878904358986"><ele>612.6</ele><time>2026-04-27T11:21:51Z</time></trkpt><trkpt lat="46.15777531216155" lon="10.348714002832214"><ele>612.0</ele><time>2026-04-27T11:21:52Z</time></trkpt><trkpt lat="46.15768795919161" lon="10.348657809555224"><ele>612.0</ele><time>2026-04-27T11:21:53Z</time></trkpt><trkpt lat="46.15762323814833" lon="10.348548038641177"><ele>612.0</ele><time>2026-04-27T11:21:54Z</time></trkpt><trkpt lat="46.1575893351693" lon="10.348382634437963"><ele>612.0</ele><time>2026-04-27T11:21:55Z</time></trkpt><trkpt lat="46.157584460985994" lon="10.348186243125117"><ele>612.0</ele><time>2026-04-27T11:21:56Z</time></trkpt><trkpt lat="46.15760561478666" lon="10.348011283008288"><ele>611.2</ele><time>2026-04-27T11:21:57Z</time></trkpt><trkpt lat="46.157606080330766" lon="10.347853526602682"><ele>610.4000000000001</ele><time>2026-04-27T11:21:58Z</time></trkpt><trkpt lat="46.15758568153486" lon="10.347713885738768"><ele>609.5999999999999</ele><time>2026-04-27T11:21:59Z</time></trkpt><trkpt lat="46.15753726839134" lon="10.347603071346228"><ele>608.8</ele><time>2026-04-27T11:22:00Z</time></trkpt><trkpt lat="46.157441833512095" lon="10.347493761900964"><ele>608.0</ele><time>2026-04-27T11:22:01Z</time></trkpt><trkpt lat="46.157304248540555" lon="10.347371416122453"><ele>608.0</ele><time>2026-04-27T11:22:02Z</time></trkpt><trkpt lat="46.15714913518585" lon="10.347220588464873"><ele>608.0</ele><time>2026-04-27T11:22:03Z</time></trkpt><trkpt lat="46.1569579369966" lon="10.347059202814828"><ele>608.0</ele><time>2026-04-27T11:22:04Z</time></trkpt><trkpt lat="46.15675727274523" lon="10.346888590583003"><ele>608.0</ele><time>2026-04-27T11:22:05Z</time></trkpt><trkpt lat="46.15655559437783" lon="10.346713597087982"><ele>608.0</ele><time>2026-04-27T11:22:06Z</time></trkpt><trkpt lat="46.15636418616358" lon="10.346565794000774"><ele>608.0</ele><time>2026-04-27T11:22:07Z</time></trkpt><trkpt lat="46.15620775701617" lon="10.346421534380761"><ele>608.0</ele><time>2026-04-27T11:22:08Z</time></trkpt><trkpt lat="46.156050266840424" lon="10.346296696249828"><ele>608.0</ele><time>2026-04-27T11:22:09Z</time></trkpt><trkpt lat="46.155894388787125" lon="10.346198691141222"><ele>611.0</ele><time>2026-04-27T11:22:10Z</time></trkpt><trkpt lat="46.155708545276056" lon="10.346145032572657"><ele>614.0</ele><time>2026-04-27T11:22:11Z</time></trkpt><trkpt lat="46.155497092337825" lon="10.346117962281907"><ele>617.0</ele><time>2026-04-27T11:22:12Z</time></trkpt><trkpt lat="46.15529293610557" lon="10.346097091829618"><ele>617.0</ele><time>2026-04-27T11:22:13Z</time></trkpt><trkpt lat="46.15511576205986" lon="10.3460911119415"><ele>617.0</ele><time>2026-04-27T11:22:14Z</time></trkpt><trkpt lat="46.15493385700141" lon="10.346089866682483"><ele>617.0</ele><time>2026-04-27T11:22:15Z</time></trkpt><trkpt lat="46.15474880746662" lon="10.346079582226826"><ele>617.0</ele><time>2026-04-27T11:22:16Z</time></trkpt><trkpt lat="46.15455251641335" lon="10.346053546780915"><ele>617.0</ele><time>2026-04-27T11:22:17Z</time></trkpt><trkpt lat="46.15436509895278" lon="10.345989442685529"><ele>617.0</ele><time>2026-04-27T11:22:18Z</time></trkpt><trkpt lat="46.154180488772546" lon="10.345903645874328"><ele>615.3333333333333</ele><time>2026-04-27T11:22:19Z</time></trkpt><trkpt lat="46.15402507275883" lon="10.345796866145955"><ele>613.6666666666666</ele><time>2026-04-27T11:22:20Z</time></trkpt><trkpt lat="46.15385835240741" lon="10.34569964659472"><ele>612.0</ele><time>2026-04-27T11:22:21Z</time></trkpt><trkpt lat="46.153697688037454" lon="10.345606658166037"><ele>618.0</ele><time>2026-04-27T11:22:22Z</time></trkpt><trkpt lat="46.15353607698061" lon="10.345538303897758"><ele>624.0</ele><time>2026-04-27T11:22:23Z</time></trkpt><trkpt lat="46.153357413792605" lon="10.345515194205998"><ele>630.0</ele><time>2026-04-27T11:22:24Z</time></trkpt><trkpt lat="46.153168134634356" lon="10.34553967009216"><ele>624.0</ele><time>2026-04-27T11:22:25Z</time></trkpt><trkpt lat="46.15297923724152" lon="10.345595720207644"><ele>618.0</ele><time>2026-04-27T11:22:26Z</time></trkpt><trkpt lat="46.152806267047914" lon="10.345659387905492"><ele>612.0</ele><time>2026-04-27T11:22:27Z</time></trkpt><trkpt lat="46.152634442906624" lon="10.345722471379856"><ele>612.0</ele><time>2026-04-27T11:22:28Z</time></trkpt><trkpt lat="46.15246128795385" lon="10.345770363677179"><ele>612.0</ele><time>2026-04-27T11:22:29Z</time></trkpt><trkpt lat="46.15229185936362" lon="10.345749816758325"><ele>612.0</ele><time>2026-04-27T11:22:30Z</time></trkpt><trkpt lat="46.15210705328913" lon="10.345722259751607"><ele>610.3333333333334</ele><time>2026-04-27T11:22:31Z</time></trkpt><trkpt lat="46.151927220917685" lon="10.34563588242505"><ele>608.6666666666667</ele><time>2026-04-27T11:22:32Z</time></trkpt><trkpt lat="46.15174287865635" lon="10.345559343161636"><ele>607.0</ele><time>2026-04-27T11:22:33Z</time></trkpt><trkpt lat="46.15156631621112" lon="10.345481114700078"><ele>611.3333333333334</ele><time>2026-04-27T11:22:34Z</time></trkpt><trkpt lat="46.15139432933407" lon="10.345404950619981"><ele>615.6666666666666</ele><time>2026-04-27T11:22:35Z</time></trkpt><trkpt lat="46.15121705717448" lon="10.345339247919629"><ele>620.0</ele><time>2026-04-27T11:22:36Z</time></trkpt><trkpt lat="46.15103083067354" lon="10.345271429290843"><ele>620.0</ele><time>2026-04-27T11:22:37Z</time></trkpt><trkpt lat="46.15084049061782" lon="10.345196865870186"><ele>620.0</ele><time>2026-04-27T11:22:38Z</time></trkpt><trkpt lat="46.150642871060974" lon="10.34512783772527"><ele>620.0</ele><time>2026-04-27T11:22:39Z</time></trkpt><trkpt lat="46.15045926848172" lon="10.345060999179616"><ele>615.6666666666666</ele><time>2026-04-27T11:22:40Z</time></trkpt><trkpt lat="46.15028349367787" lon="10.34499601618392"><ele>611.3333333333334</ele><time>2026-04-27T11:22:41Z</time></trkpt><trkpt lat="46.150091613069165" lon="10.344937660354454"><ele>607.0</ele><time>2026-04-27T11:22:42Z</time></trkpt><trkpt lat="46.149897721840574" lon="10.344883559020628"><ele>605.0</ele><time>2026-04-27T11:22:43Z</time></trkpt><trkpt lat="46.149712297484506" lon="10.344844179515968"><ele>603.0</ele><time>2026-04-27T11:22:44Z</time></trkpt><trkpt lat="46.149529772046485" lon="10.344824011075128"><ele>601.0</ele><time>2026-04-27T11:22:45Z</time></trkpt><trkpt lat="46.149356524604016" lon="10.344842977432082"><ele>601.0</ele><time>2026-04-27T11:22:46Z</time></trkpt><trkpt lat="46.1491854935574" lon="10.344884567367462"><ele>601.0</ele><time>2026-04-27T11:22:47Z</time></trkpt><trkpt lat="46.14900481291144" lon="10.344913304628442"><ele>601.0</ele><time>2026-04-27T11:22:48Z</time></trkpt><trkpt lat="46.14881756836708" lon="10.344865196411678"><ele>598.3333333333334</ele><time>2026-04-27T11:22:49Z</time></trkpt><trkpt lat="46.14863826366483" lon="10.344776197862231"><ele>595.6666666666666</ele><time>2026-04-27T11:22:50Z</time></trkpt><trkpt lat="46.14845783253377" lon="10.344664225126083"><ele>593.0</ele><time>2026-04-27T11:22:51Z</time></trkpt><trkpt lat="46.14827257682835" lon="10.344541892967651"><ele>591.6666666666666</ele><time>2026-04-27T11:22:52Z</time></trkpt><trkpt lat="46.14808722968374" lon="10.344395636333738"><ele>590.3333333333334</ele><time>2026-04-27T11:22:53Z</time></trkpt><trkpt lat="46.147899376312886" lon="10.344229653382072"><ele>589.0</ele><time>2026-04-27T11:22:54Z</time></trkpt><trkpt lat="46.14771371879983" lon="10.34406073381593"><ele>589.0</ele><time>2026-04-27T11:22:55Z</time></trkpt><trkpt lat="46.14753394008517" lon="10.343897327021782"><ele>589.0</ele><time>2026-04-27T11:22:56Z</time></trkpt><trkpt lat="46.14736124330637" lon="10.34374208398536"><ele>589.0</ele><time>2026-04-27T11:22:57Z</time></trkpt><trkpt lat="46.147185567615935" lon="10.343593580197334"><ele>587.3333333333334</ele><time>2026-04-27T11:22:58Z</time></trkpt><trkpt lat="46.14698964447296" lon="10.343467520638269"><ele>585.6666666666666</ele><time>2026-04-27T11:22:59Z</time></trkpt><trkpt lat="46.14677997117227" lon="10.343386832959313"><ele>584.0</ele><time>2026-04-27T11:23:00Z</time></trkpt><trkpt lat="46.14656320602018" lon="10.34330820171378"><ele>581.6666666666666</ele><time>2026-04-27T11:23:01Z</time></trkpt><trkpt lat="46.146355100571775" lon="10.34321620960219"><ele>579.3333333333334</ele><time>2026-04-27T11:23:02Z</time></trkpt><trkpt lat="46.14616656093798" lon="10.343088108122286"><ele>577.0</ele><time>2026-04-27T11:23:03Z</time></trkpt><trkpt lat="46.14596666193051" lon="10.342938585325854"><ele>577.0</ele><time>2026-04-27T11:23:04Z</time></trkpt><trkpt lat="46.145761813229946" lon="10.342782496637618"><ele>577.0</ele><time>2026-04-27T11:23:05Z</time></trkpt><trkpt lat="46.14556122571498" lon="10.342629654821815"><ele>575.6666666666667</ele><time>2026-04-27T11:23:06Z</time></trkpt><trkpt lat="46.14536843184627" lon="10.34248230630756"><ele>574.3333333333334</ele><time>2026-04-27T11:23:07Z</time></trkpt><trkpt lat="46.145178261415644" lon="10.342335773649108"><ele>573.0</ele><time>2026-04-27T11:23:08Z</time></trkpt><trkpt lat="46.14499611609941" lon="10.342195424611788"><ele>570.0</ele><time>2026-04-27T11:23:09Z</time></trkpt><trkpt lat="46.14480963701723" lon="10.342051736272364"><ele>567.0</ele><time>2026-04-27T11:23:10Z</time></trkpt><trkpt lat="46.144628197667195" lon="10.341913151309377"><ele>564.0</ele><time>2026-04-27T11:23:11Z</time></trkpt><trkpt lat="46.144444335818044" lon="10.341772878754549"><ele>564.0</ele><time>2026-04-27T11:23:12Z</time></trkpt><trkpt lat="46.14425065275809" lon="10.341625113453654"><ele>564.0</ele><time>2026-04-27T11:23:13Z</time></trkpt><trkpt lat="46.14405851819215" lon="10.341478899424821"><ele>564.0</ele><time>2026-04-27T11:23:14Z</time></trkpt><trkpt lat="46.14386353504232" lon="10.341330180511752"><ele>563.0</ele><time>2026-04-27T11:23:15Z</time></trkpt><trkpt lat="46.14367547265814" lon="10.34118287703234"><ele>562.0</ele><time>2026-04-27T11:23:16Z</time></trkpt><trkpt lat="46.14348488359338" lon="10.341033594492288"><ele>561.0</ele><time>2026-04-27T11:23:17Z</time></trkpt><trkpt lat="46.14329901303775" lon="10.340890126661657"><ele>560.0</ele><time>2026-04-27T11:23:18Z</time></trkpt><trkpt lat="46.143105764710555" lon="10.340768512500821"><ele>559.0</ele><time>2026-04-27T11:23:19Z</time></trkpt><trkpt lat="46.14292521024183" lon="10.340604092537754"><ele>558.0</ele><time>2026-04-27T11:23:20Z</time></trkpt><trkpt lat="46.14272212850743" lon="10.340456693092712"><ele>558.0</ele><time>2026-04-27T11:23:21Z</time></trkpt><trkpt lat="46.142524428278534" lon="10.340303164707553"><ele>558.0</ele><time>2026-04-27T11:23:22Z</time></trkpt><trkpt lat="46.142326658429916" lon="10.340152731026555"><ele>558.0</ele><time>2026-04-27T11:23:23Z</time></trkpt><trkpt lat="46.14212406353599" lon="10.340002702945272"><ele>557.6666666666666</ele><time>2026-04-27T11:23:24Z</time></trkpt><trkpt lat="46.14193852361439" lon="10.339829429684249"><ele>557.3333333333333</ele><time>2026-04-27T11:23:25Z</time></trkpt><trkpt lat="46.141739486073426" lon="10.339678653891118"><ele>557.0</ele><time>2026-04-27T11:23:26Z</time></trkpt><trkpt lat="46.14154072692572" lon="10.339536563733228"><ele>555.6666666666666</ele><time>2026-04-27T11:23:27Z</time></trkpt><trkpt lat="46.14134984338265" lon="10.339383261155957"><ele>554.3333333333334</ele><time>2026-04-27T11:23:28Z</time></trkpt><trkpt lat="46.14115579426141" lon="10.339268668872677"><ele>553.0</ele><time>2026-04-27T11:23:29Z</time></trkpt><trkpt lat="46.14097620355561" lon="10.339122630712325"><ele>553.0</ele><time>2026-04-27T11:23:30Z</time></trkpt><trkpt lat="46.14078589520367" lon="10.338997580086593"><ele>553.0</ele><time>2026-04-27T11:23:31Z</time></trkpt><trkpt lat="46.140593737961076" lon="10.338886685803445"><ele>553.0</ele><time>2026-04-27T11:23:32Z</time></trkpt><trkpt lat="46.14040715052291" lon="10.338781635592875"><ele>551.6666666666667</ele><time>2026-04-27T11:23:33Z</time></trkpt><trkpt lat="46.14021060258883" lon="10.338675415677338"><ele>550.3333333333334</ele><time>2026-04-27T11:23:34Z</time></trkpt><trkpt lat="46.14001031530995" lon="10.338564857990463"><ele>549.0</ele><time>2026-04-27T11:23:35Z</time></trkpt><trkpt lat="46.13981906106142" lon="10.338450090661853"><ele>548.3333333333334</ele><time>2026-04-27T11:23:36Z</time></trkpt><trkpt lat="46.13962148388106" lon="10.338336011092238"><ele>547.6666666666667</ele><time>2026-04-27T11:23:37Z</time></trkpt><trkpt lat="46.139421528763144" lon="10.338228858687907"><ele>547.0</ele><time>2026-04-27T11:23:38Z</time></trkpt><trkpt lat="46.13922935445723" lon="10.338119599601033"><ele>546.3333333333334</ele><time>2026-04-27T11:23:39Z</time></trkpt><trkpt lat="46.139039019610514" lon="10.338015913939252"><ele>545.6666666666666</ele><time>2026-04-27T11:23:40Z</time></trkpt><trkpt lat="46.138851550780615" lon="10.337916458272728"><ele>545.0</ele><time>2026-04-27T11:23:41Z</time></trkpt><trkpt lat="46.1386641112556" lon="10.33781702299671"><ele>545.0</ele><time>2026-04-27T11:23:42Z</time></trkpt><trkpt lat="46.13847825640455" lon="10.337709086141087"><ele>545.0</ele><time>2026-04-27T11:23:43Z</time></trkpt><trkpt lat="46.13829376498204" lon="10.337606370376971"><ele>545.0</ele><time>2026-04-27T11:23:44Z</time></trkpt><trkpt lat="46.13809958812689" lon="10.337498402235411"><ele>543.6666666666666</ele><time>2026-04-27T11:23:45Z</time></trkpt><trkpt lat="46.13790510196522" lon="10.337387116082152"><ele>542.3333333333334</ele><time>2026-04-27T11:23:46Z</time></trkpt><trkpt lat="46.137717099059536" lon="10.33727561922501"><ele>541.0</ele><time>2026-04-27T11:23:47Z</time></trkpt><trkpt lat="46.137525050970446" lon="10.337164159626221"><ele>541.3333333333334</ele><time>2026-04-27T11:23:48Z</time></trkpt><trkpt lat="46.13732935553764" lon="10.33705024654327"><ele>541.6666666666666</ele><time>2026-04-27T11:23:49Z</time></trkpt><trkpt lat="46.13712888994793" lon="10.336935696067867"><ele>542.0</ele><time>2026-04-27T11:23:50Z</time></trkpt><trkpt lat="46.136919292369036" lon="10.33681857473962"><ele>542.0</ele><time>2026-04-27T11:23:51Z</time></trkpt><trkpt lat="46.13671662162339" lon="10.336703945778071"><ele>542.0</ele><time>2026-04-27T11:23:52Z</time></trkpt><trkpt lat="46.13650837036776" lon="10.336590029170125"><ele>542.0</ele><time>2026-04-27T11:23:53Z</time></trkpt><trkpt lat="46.13629888607666" lon="10.336476793899548"><ele>541.0</ele><time>2026-04-27T11:23:54Z</time></trkpt><trkpt lat="46.136106811806336" lon="10.336364049426232"><ele>540.0</ele><time>2026-04-27T11:23:55Z</time></trkpt><trkpt lat="46.13593009015063" lon="10.336258790995114"><ele>539.0</ele><time>2026-04-27T11:23:56Z</time></trkpt><trkpt lat="46.13575774120489" lon="10.336152828859499"><ele>538.0</ele><time>2026-04-27T11:23:57Z</time></trkpt><trkpt lat="46.13558373936618" lon="10.336042204843608"><ele>537.0</ele><time>2026-04-27T11:23:58Z</time></trkpt><trkpt lat="46.13540865406185" lon="10.33591771502951"><ele>536.0</ele><time>2026-04-27T11:23:59Z</time></trkpt><trkpt lat="46.13523282954597" lon="10.335775202859644"><ele>536.0</ele><time>2026-04-27T11:24:00Z</time></trkpt><trkpt lat="46.13506532045821" lon="10.335620205833942"><ele>536.0</ele><time>2026-04-27T11:24:01Z</time></trkpt><trkpt lat="46.13490808007871" lon="10.335458440649804"><ele>536.0</ele><time>2026-04-27T11:24:02Z</time></trkpt><trkpt lat="46.134764057221936" lon="10.335303720928565"><ele>535.3333333333333</ele><time>2026-04-27T11:24:03Z</time></trkpt><trkpt lat="46.13461150966249" lon="10.33515122559825"><ele>534.6666666666666</ele><time>2026-04-27T11:24:04Z</time></trkpt><trkpt lat="46.1344607066296" lon="10.334993648291599"><ele>534.0</ele><time>2026-04-27T11:24:05Z</time></trkpt><trkpt lat="46.13431065189459" lon="10.33483940914483"><ele>534.3333333333334</ele><time>2026-04-27T11:24:06Z</time></trkpt><trkpt lat="46.13416342164026" lon="10.334683938063161"><ele>534.6666666666667</ele><time>2026-04-27T11:24:07Z</time></trkpt><trkpt lat="46.13402353537096" lon="10.334540400255731"><ele>535.0</ele><time>2026-04-27T11:24:08Z</time></trkpt><trkpt lat="46.133894927298" lon="10.334414265540724"><ele>534.5</ele><time>2026-04-27T11:24:09Z</time></trkpt><trkpt lat="46.133781484892886" lon="10.334299488976365"><ele>534.0</ele><time>2026-04-27T11:24:10Z</time></trkpt><trkpt lat="46.13368326073584" lon="10.3342002411282"><ele>533.5</ele><time>2026-04-27T11:24:11Z</time></trkpt><trkpt lat="46.133590337086176" lon="10.334087413873508"><ele>533.0</ele><time>2026-04-27T11:24:12Z</time></trkpt><trkpt lat="46.13353377313699" lon="10.333964153319954"><ele>532.0</ele><time>2026-04-27T11:24:13Z</time></trkpt><trkpt lat="46.13350051090588" lon="10.333801974953435"><ele>531.0</ele><time>2026-04-27T11:24:14Z</time></trkpt><trkpt lat="46.133461067183504" lon="10.333648729001172"><ele>530.0</ele><time>2026-04-27T11:24:15Z</time></trkpt><trkpt lat="46.13340187190321" lon="10.333555151454133"><ele>529.0</ele><time>2026-04-27T11:24:16Z</time></trkpt><trkpt lat="46.133308229718835" lon="10.333502238379541"><ele>528.0</ele><time>2026-04-27T11:24:17Z</time></trkpt><trkpt lat="46.13320683450121" lon="10.333507834076668"><ele>528.0</ele><time>2026-04-27T11:24:18Z</time></trkpt><trkpt lat="46.13308692456404" lon="10.333506491332404"><ele>528.0</ele><time>2026-04-27T11:24:19Z</time></trkpt><trkpt lat="46.132962524557904" lon="10.333438260484765"><ele>528.0</ele><time>2026-04-27T11:24:20Z</time></trkpt><trkpt lat="46.132836269605406" lon="10.333310095839362"><ele>528.0</ele><time>2026-04-27T11:24:21Z</time></trkpt><trkpt lat="46.13270076949507" lon="10.33315438141499"><ele>528.3333333333334</ele><time>2026-04-27T11:24:22Z</time></trkpt><trkpt lat="46.132558061080665" lon="10.332991412259052"><ele>528.6666666666667</ele><time>2026-04-27T11:24:23Z</time></trkpt><trkpt lat="46.132407681018485" lon="10.332841909425577"><ele>529.0</ele><time>2026-04-27T11:24:24Z</time></trkpt><trkpt lat="46.13224666644002" lon="10.332678029159434"><ele>529.0</ele><time>2026-04-27T11:24:25Z</time></trkpt><trkpt lat="46.13207678897569" lon="10.332505314027896"><ele>529.0</ele><time>2026-04-27T11:24:26Z</time></trkpt><trkpt lat="46.13190759768363" lon="10.3323231702438"><ele>529.0</ele><time>2026-04-27T11:24:27Z</time></trkpt><trkpt lat="46.13174121950582" lon="10.33214726861894"><ele>527.6666666666667</ele><time>2026-04-27T11:24:28Z</time></trkpt><trkpt lat="46.13158392233865" lon="10.331981416723519"><ele>526.3333333333334</ele><time>2026-04-27T11:24:29Z</time></trkpt><trkpt lat="46.131429434809675" lon="10.33182818113411"><ele>525.0</ele><time>2026-04-27T11:24:30Z</time></trkpt><trkpt lat="46.13128122261363" lon="10.331678123996525"><ele>525.0</ele><time>2026-04-27T11:24:31Z</time></trkpt><trkpt lat="46.1311316360036" lon="10.331525392329569"><ele>525.0</ele><time>2026-04-27T11:24:32Z</time></trkpt><trkpt lat="46.130972047405926" lon="10.33136738286026"><ele>525.0</ele><time>2026-04-27T11:24:33Z</time></trkpt><trkpt lat="46.13082221449946" lon="10.331213488999353"><ele>523.6666666666666</ele><time>2026-04-27T11:24:34Z</time></trkpt><trkpt lat="46.13066866363186" lon="10.331052277417951"><ele>522.3333333333333</ele><time>2026-04-27T11:24:35Z</time></trkpt><trkpt lat="46.13051400389005" lon="10.330899550387551"><ele>521.0</ele><time>2026-04-27T11:24:36Z</time></trkpt><trkpt lat="46.130365777088066" lon="10.330744115626466"><ele>521.0</ele><time>2026-04-27T11:24:37Z</time></trkpt><trkpt lat="46.130219288999044" lon="10.330583493972833"><ele>521.0</ele><time>2026-04-27T11:24:38Z</time></trkpt><trkpt lat="46.13007304612757" lon="10.330428260652702"><ele>521.0</ele><time>2026-04-27T11:24:39Z</time></trkpt><trkpt lat="46.12993105695055" lon="10.330270596078662"><ele>520.3333333333333</ele><time>2026-04-27T11:24:40Z</time></trkpt><trkpt lat="46.12978152289324" lon="10.330110019978564"><ele>519.6666666666666</ele><time>2026-04-27T11:24:41Z</time></trkpt><trkpt lat="46.12962182337689" lon="10.32994124014294"><ele>519.0</ele><time>2026-04-27T11:24:42Z</time></trkpt><trkpt lat="46.12947013049947" lon="10.329777624678671"><ele>518.6666666666666</ele><time>2026-04-27T11:24:43Z</time></trkpt><trkpt lat="46.129321623178726" lon="10.329619158628777"><ele>518.3333333333333</ele><time>2026-04-27T11:24:44Z</time></trkpt><trkpt lat="46.129169087298806" lon="10.32945878039114"><ele>518.0</ele><time>2026-04-27T11:24:45Z</time></trkpt><trkpt lat="46.12902024660337" lon="10.329303030786415"><ele>518.0</ele><time>2026-04-27T11:24:46Z</time></trkpt><trkpt lat="46.128874200484326" lon="10.329147781200914"><ele>518.0</ele><time>2026-04-27T11:24:47Z</time></trkpt><trkpt lat="46.128724655907895" lon="10.328990853940466"><ele>518.0</ele><time>2026-04-27T11:24:48Z</time></trkpt><trkpt lat="46.128577024227624" lon="10.328840649172143"><ele>517.6666666666666</ele><time>2026-04-27T11:24:49Z</time></trkpt><trkpt lat="46.12845034817253" lon="10.328662421761887"><ele>517.3333333333334</ele><time>2026-04-27T11:24:50Z</time></trkpt><trkpt lat="46.12830677138622" lon="10.32851253481593"><ele>517.0</ele><time>2026-04-27T11:24:51Z</time></trkpt><trkpt lat="46.1281768208795" lon="10.328376817991593"><ele>516.6666666666667</ele><time>2026-04-27T11:24:52Z</time></trkpt><trkpt lat="46.12804965101846" lon="10.328241793928417"><ele>516.3333333333334</ele><time>2026-04-27T11:24:53Z</time></trkpt><trkpt lat="46.12791205634988" lon="10.328103619473731"><ele>516.0</ele><time>2026-04-27T11:24:54Z</time></trkpt><trkpt lat="46.127778728494455" lon="10.32796635372804"><ele>516.0</ele><time>2026-04-27T11:24:55Z</time></trkpt><trkpt lat="46.12764306545885" lon="10.327829012952698"><ele>516.0</ele><time>2026-04-27T11:24:56Z</time></trkpt><trkpt lat="46.127507317914684" lon="10.327686645095223"><ele>516.0</ele><time>2026-04-27T11:24:57Z</time></trkpt><trkpt lat="46.12736954602615" lon="10.32753895152812"><ele>515.3333333333334</ele><time>2026-04-27T11:24:58Z</time></trkpt><trkpt lat="46.127224323346184" lon="10.327389813221968"><ele>514.6666666666667</ele><time>2026-04-27T11:24:59Z</time></trkpt><trkpt lat="46.12708650250334" lon="10.327241021920912"><ele>514.0</ele><time>2026-04-27T11:25:00Z</time></trkpt><trkpt lat="46.12695154027389" lon="10.327109179892794"><ele>513.75</ele><time>2026-04-27T11:25:01Z</time></trkpt><trkpt lat="46.12682830457248" lon="10.32698150896168"><ele>513.5</ele><time>2026-04-27T11:25:02Z</time></trkpt><trkpt lat="46.126714412419595" lon="10.326858570338903"><ele>513.25</ele><time>2026-04-27T11:25:03Z</time></trkpt><trkpt lat="46.1266049914327" lon="10.326747603090213"><ele>513.0</ele><time>2026-04-27T11:25:04Z</time></trkpt><trkpt lat="46.126482643752226" lon="10.326629928164682"><ele>513.0</ele><time>2026-04-27T11:25:05Z</time></trkpt><trkpt lat="46.12636631670822" lon="10.326503602822497"><ele>513.0</ele><time>2026-04-27T11:25:06Z</time></trkpt><trkpt lat="46.126244225625214" lon="10.326375074446615"><ele>513.0</ele><time>2026-04-27T11:25:07Z</time></trkpt><trkpt lat="46.12612579157279" lon="10.326258187547591"><ele>513.0</ele><time>2026-04-27T11:25:08Z</time></trkpt><trkpt lat="46.12600606735343" lon="10.326134342722753"><ele>513.0</ele><time>2026-04-27T11:25:09Z</time></trkpt><trkpt lat="46.12588263787915" lon="10.326010084717344"><ele>513.0</ele><time>2026-04-27T11:25:10Z</time></trkpt><trkpt lat="46.12578067958524" lon="10.325853414786463"><ele>513.0</ele><time>2026-04-27T11:25:11Z</time></trkpt><trkpt lat="46.12564565850438" lon="10.325716351271266"><ele>513.0</ele><time>2026-04-27T11:25:12Z</time></trkpt><trkpt lat="46.12549861964274" lon="10.32556863454185"><ele>513.0</ele><time>2026-04-27T11:25:13Z</time></trkpt><trkpt lat="46.12534871942385" lon="10.32542102030206"><ele>513.0</ele><time>2026-04-27T11:25:14Z</time></trkpt><trkpt lat="46.12519573821968" lon="10.3252786501706"><ele>512.6666666666666</ele><time>2026-04-27T11:25:15Z</time></trkpt><trkpt lat="46.12504034793522" lon="10.325127070588675"><ele>512.3333333333333</ele><time>2026-04-27T11:25:16Z</time></trkpt><trkpt lat="46.124878675303286" lon="10.324937714148795"><ele>512.0</ele><time>2026-04-27T11:25:17Z</time></trkpt><trkpt lat="46.12470681702157" lon="10.32475675045495"><ele>511.66666666666663</ele><time>2026-04-27T11:25:18Z</time></trkpt><trkpt lat="46.12452174334169" lon="10.324581492676268"><ele>511.33333333333337</ele><time>2026-04-27T11:25:19Z</time></trkpt><trkpt lat="46.124378553717044" lon="10.324377016856591"><ele>511.0</ele><time>2026-04-27T11:25:20Z</time></trkpt><trkpt lat="46.12424012282231" lon="10.324230227962165"><ele>511.0</ele><time>2026-04-27T11:25:21Z</time></trkpt><trkpt lat="46.12412832150651" lon="10.324135224019171"><ele>511.0</ele><time>2026-04-27T11:25:22Z</time></trkpt><trkpt lat="46.124039965110626" lon="10.324045239375781"><ele>511.0</ele><time>2026-04-27T11:25:23Z</time></trkpt><trkpt lat="46.12394559609084" lon="10.323949953220216"><ele>511.0</ele><time>2026-04-27T11:25:24Z</time></trkpt><trkpt lat="46.12386238395278" lon="10.323863795041994"><ele>511.0</ele><time>2026-04-27T11:25:25Z</time></trkpt><trkpt lat="46.123780566753176" lon="10.323780437312479"><ele>511.0</ele><time>2026-04-27T11:25:26Z</time></trkpt><trkpt lat="46.12369556165598" lon="10.323680490142893"><ele>511.0</ele><time>2026-04-27T11:25:27Z</time></trkpt><trkpt lat="46.123590720173645" lon="10.323571807236455"><ele>511.0</ele><time>2026-04-27T11:25:28Z</time></trkpt><trkpt lat="46.123482875258674" lon="10.323452354671398"><ele>511.0</ele><time>2026-04-27T11:25:29Z</time></trkpt><trkpt lat="46.12336323738251" lon="10.323335769340623"><ele>511.0</ele><time>2026-04-27T11:25:30Z</time></trkpt><trkpt lat="46.12323715187022" lon="10.323217996009548"><ele>511.0</ele><time>2026-04-27T11:25:31Z</time></trkpt><trkpt lat="46.123117551445866" lon="10.323100984893804"><ele>511.0</ele><time>2026-04-27T11:25:32Z</time></trkpt><trkpt lat="46.12301301921097" lon="10.322988605845694"><ele>510.25</ele><time>2026-04-27T11:25:33Z</time></trkpt><trkpt lat="46.12291833266489" lon="10.322846784203854"><ele>509.5</ele><time>2026-04-27T11:25:34Z</time></trkpt><trkpt lat="46.12278823809996" lon="10.322718206063424"><ele>508.75</ele><time>2026-04-27T11:25:35Z</time></trkpt><trkpt lat="46.12267145322062" lon="10.322598230256931"><ele>508.0</ele><time>2026-04-27T11:25:36Z</time></trkpt><trkpt lat="46.122557387064205" lon="10.322482914499552"><ele>508.0</ele><time>2026-04-27T11:25:37Z</time></trkpt><trkpt lat="46.122439700185076" lon="10.322364890331873"><ele>508.0</ele><time>2026-04-27T11:25:38Z</time></trkpt><trkpt lat="46.122323639302195" lon="10.322250569697703"><ele>508.0</ele><time>2026-04-27T11:25:39Z</time></trkpt><trkpt lat="46.12222348341569" lon="10.322148729593346"><ele>508.0</ele><time>2026-04-27T11:25:40Z</time></trkpt><trkpt lat="46.12210386415919" lon="10.322033340182854"><ele>508.33333333333337</ele><time>2026-04-27T11:25:41Z</time></trkpt><trkpt lat="46.12197409731434" lon="10.321907674249703"><ele>508.66666666666663</ele><time>2026-04-27T11:25:42Z</time></trkpt><trkpt lat="46.12185274472905" lon="10.32175483208886"><ele>509.0</ele><time>2026-04-27T11:25:43Z</time></trkpt><trkpt lat="46.121728888719225" lon="10.321625548376959"><ele>509.0</ele><time>2026-04-27T11:25:44Z</time></trkpt><trkpt lat="46.121605208852536" lon="10.321497378659299"><ele>509.0</ele><time>2026-04-27T11:25:45Z</time></trkpt><trkpt lat="46.121477037147905" lon="10.321389626423095"><ele>509.0</ele><time>2026-04-27T11:25:46Z</time></trkpt><trkpt lat="46.121358658129566" lon="10.321263007711536"><ele>509.0</ele><time>2026-04-27T11:25:47Z</time></trkpt><trkpt lat="46.12124276930629" lon="10.321139707125836"><ele>509.75</ele><time>2026-04-27T11:25:48Z</time></trkpt><trkpt lat="46.121132230373824" lon="10.321022246090939"><ele>510.5</ele><time>2026-04-27T11:25:49Z</time></trkpt><trkpt lat="46.1210313773156" lon="10.320914597362977"><ele>511.25</ele><time>2026-04-27T11:25:50Z</time></trkpt><trkpt lat="46.12094251132342" lon="10.320798075103898"><ele>512.0</ele><time>2026-04-27T11:25:51Z</time></trkpt><trkpt lat="46.12085161364944" lon="10.320702798192926"><ele>512.0</ele><time>2026-04-27T11:25:52Z</time></trkpt><trkpt lat="46.120754552214144" lon="10.320601060368496"><ele>512.0</ele><time>2026-04-27T11:25:53Z</time></trkpt><trkpt lat="46.12067615134303" lon="10.320518882206166"><ele>512.0</ele><time>2026-04-27T11:25:54Z</time></trkpt><trkpt lat="46.12061213753826" lon="10.320451460221395"><ele>512.0</ele><time>2026-04-27T11:25:55Z</time></trkpt><trkpt lat="46.120548848160595" lon="10.320384145656208"><ele>512.0</ele><time>2026-04-27T11:25:56Z</time></trkpt><trkpt lat="46.12047571663105" lon="10.320306283242306"><ele>511.49999999999994</ele><time>2026-04-27T11:25:58Z</time></trkpt><trkpt lat="46.1204221437381" lon="10.320249225987657"><ele>511.0</ele><time>2026-04-27T11:26:00Z</time></trkpt><trkpt lat="46.120330694619845" lon="10.320178131562304"><ele>510.5</ele><time>2026-04-27T11:26:10Z</time></trkpt><trkpt lat="46.1202758636366" lon="10.320097428626074"><ele>510.0</ele><time>2026-04-27T11:26:11Z</time></trkpt><trkpt lat="46.120207963083075" lon="10.32002541591868"><ele>509.49999999999994</ele><time>2026-04-27T11:26:12Z</time></trkpt><trkpt lat="46.12012949495523" lon="10.319942195659198"><ele>509.0</ele><time>2026-04-27T11:26:13Z</time></trkpt><trkpt lat="46.120029287350604" lon="10.319862033489782"><ele>509.0</ele><time>2026-04-27T11:26:14Z</time></trkpt><trkpt lat="46.119932899752314" lon="10.31976259680935"><ele>509.0</ele><time>2026-04-27T11:26:15Z</time></trkpt><trkpt lat="46.11984010858429" lon="10.31963535523922"><ele>509.0</ele><time>2026-04-27T11:26:16Z</time></trkpt><trkpt lat="46.119721735547685" lon="10.31951003175182"><ele>509.0</ele><time>2026-04-27T11:26:17Z</time></trkpt><trkpt lat="46.119610907741745" lon="10.319392953024629"><ele>508.25</ele><time>2026-04-27T11:26:18Z</time></trkpt><trkpt lat="46.11950354324445" lon="10.31927953304715"><ele>507.5</ele><time>2026-04-27T11:26:19Z</time></trkpt><trkpt lat="46.119402305354505" lon="10.31917258520261"><ele>506.75</ele><time>2026-04-27T11:26:20Z</time></trkpt><trkpt lat="46.119276760980924" lon="10.319049844156854"><ele>506.0</ele><time>2026-04-27T11:26:21Z</time></trkpt><trkpt lat="46.119134113423705" lon="10.31894139237907"><ele>507.66666666666663</ele><time>2026-04-27T11:26:22Z</time></trkpt><trkpt lat="46.118985964338876" lon="10.318847320145498"><ele>509.33333333333337</ele><time>2026-04-27T11:26:23Z</time></trkpt><trkpt lat="46.11881890690442" lon="10.318784757025098"><ele>511.0</ele><time>2026-04-27T11:26:24Z</time></trkpt><trkpt lat="46.1186500431451" lon="10.318699602883186"><ele>511.0</ele><time>2026-04-27T11:26:25Z</time></trkpt><trkpt lat="46.11846563510065" lon="10.31864073795138"><ele>511.0</ele><time>2026-04-27T11:26:26Z</time></trkpt><trkpt lat="46.118277459544274" lon="10.3186112513587"><ele>511.0</ele><time>2026-04-27T11:26:27Z</time></trkpt><trkpt lat="46.11808809750927" lon="10.318603801397726"><ele>510.0</ele><time>2026-04-27T11:26:28Z</time></trkpt><trkpt lat="46.11788708951369" lon="10.318608177854196"><ele>509.0</ele><time>2026-04-27T11:26:29Z</time></trkpt><trkpt lat="46.11768171786478" lon="10.318620511883422"><ele>508.0</ele><time>2026-04-27T11:26:30Z</time></trkpt><trkpt lat="46.117482190166974" lon="10.318616875021288"><ele>506.0</ele><time>2026-04-27T11:26:31Z</time></trkpt><trkpt lat="46.11728378856143" lon="10.318558786012392"><ele>504.0</ele><time>2026-04-27T11:26:32Z</time></trkpt><trkpt lat="46.117091178874965" lon="10.318489932943507"><ele>502.0</ele><time>2026-04-27T11:26:33Z</time></trkpt><trkpt lat="46.11690511312306" lon="10.318378879835258"><ele>502.0</ele><time>2026-04-27T11:26:34Z</time></trkpt><trkpt lat="46.11672162827088" lon="10.318246817599922"><ele>502.0</ele><time>2026-04-27T11:26:35Z</time></trkpt><trkpt lat="46.116540353730954" lon="10.31811421498536"><ele>502.0</ele><time>2026-04-27T11:26:36Z</time></trkpt><trkpt lat="46.11637419796554" lon="10.317989540813631"><ele>503.0</ele><time>2026-04-27T11:26:37Z</time></trkpt><trkpt lat="46.11620885174456" lon="10.317864643701261"><ele>504.0</ele><time>2026-04-27T11:26:38Z</time></trkpt><trkpt lat="46.116037326314206" lon="10.317732228570456"><ele>505.0</ele><time>2026-04-27T11:26:39Z</time></trkpt><trkpt lat="46.11586878004525" lon="10.317579003068714"><ele>504.0</ele><time>2026-04-27T11:26:40Z</time></trkpt><trkpt lat="46.11570239452288" lon="10.317396795315416"><ele>503.0</ele><time>2026-04-27T11:26:41Z</time></trkpt><trkpt lat="46.115535370300115" lon="10.317187874708381"><ele>502.0</ele><time>2026-04-27T11:26:42Z</time></trkpt><trkpt lat="46.1153776455717" lon="10.316984364325341"><ele>502.0</ele><time>2026-04-27T11:26:43Z</time></trkpt><trkpt lat="46.115236308654374" lon="10.316801902100362"><ele>502.0</ele><time>2026-04-27T11:26:44Z</time></trkpt><trkpt lat="46.11509543488175" lon="10.316620037899364"><ele>502.0</ele><time>2026-04-27T11:26:45Z</time></trkpt><trkpt lat="46.11494871056563" lon="10.316430620828545"><ele>500.33333333333337</ele><time>2026-04-27T11:26:46Z</time></trkpt><trkpt lat="46.114794334974874" lon="10.316231326253392"><ele>498.66666666666663</ele><time>2026-04-27T11:26:47Z</time></trkpt><trkpt lat="46.114641386963726" lon="10.316033547438826"><ele>497.0</ele><time>2026-04-27T11:26:48Z</time></trkpt><trkpt lat="46.114482122932074" lon="10.315828123290435"><ele>497.0</ele><time>2026-04-27T11:26:49Z</time></trkpt><trkpt lat="46.11431668202408" lon="10.315615396457842"><ele>497.0</ele><time>2026-04-27T11:26:50Z</time></trkpt><trkpt lat="46.11414998844243" lon="10.31540045710782"><ele>497.0</ele><time>2026-04-27T11:26:51Z</time></trkpt><trkpt lat="46.11397662504844" lon="10.31517691745926"><ele>497.3333333333333</ele><time>2026-04-27T11:26:52Z</time></trkpt><trkpt lat="46.11381334700504" lon="10.314966382177703"><ele>497.66666666666663</ele><time>2026-04-27T11:26:53Z</time></trkpt><trkpt lat="46.11366485298686" lon="10.314774909822582"><ele>498.0</ele><time>2026-04-27T11:26:54Z</time></trkpt><trkpt lat="46.113518344501216" lon="10.314585997726923"><ele>498.0</ele><time>2026-04-27T11:26:55Z</time></trkpt><trkpt lat="46.11337322998046" lon="10.31439897453407"><ele>498.0</ele><time>2026-04-27T11:26:56Z</time></trkpt><trkpt lat="46.11322683952971" lon="10.314210819573184"><ele>498.0</ele><time>2026-04-27T11:26:57Z</time></trkpt><trkpt lat="46.11307728638471" lon="10.314019997443669"><ele>497.66666666666663</ele><time>2026-04-27T11:26:58Z</time></trkpt><trkpt lat="46.11291855657532" lon="10.313858480830914"><ele>497.3333333333333</ele><time>2026-04-27T11:26:59Z</time></trkpt><trkpt lat="46.11277976204249" lon="10.313691746774246"><ele>497.0</ele><time>2026-04-27T11:27:00Z</time></trkpt><trkpt lat="46.112643171348985" lon="10.313513019611209"><ele>497.0</ele><time>2026-04-27T11:27:01Z</time></trkpt><trkpt lat="46.11249132444867" lon="10.313386429823199"><ele>497.0</ele><time>2026-04-27T11:27:02Z</time></trkpt><trkpt lat="46.112319366158474" lon="10.313271346608472"><ele>497.0</ele><time>2026-04-27T11:27:03Z</time></trkpt><trkpt lat="46.11214254562662" lon="10.313170505428866"><ele>498.0</ele><time>2026-04-27T11:27:04Z</time></trkpt><trkpt lat="46.11198150993914" lon="10.313083932194509"><ele>499.0</ele><time>2026-04-27T11:27:05Z</time></trkpt><trkpt lat="46.11180996443114" lon="10.312992165278152"><ele>500.0</ele><time>2026-04-27T11:27:06Z</time></trkpt><trkpt lat="46.111638874319475" lon="10.312895543953452"><ele>498.3333333333333</ele><time>2026-04-27T11:27:07Z</time></trkpt><trkpt lat="46.111481591607095" lon="10.312802621950167"><ele>496.66666666666663</ele><time>2026-04-27T11:27:08Z</time></trkpt><trkpt lat="46.111312817366766" lon="10.312708869537296"><ele>495.0</ele><time>2026-04-27T11:27:09Z</time></trkpt><trkpt lat="46.11113178555263" lon="10.312610100653623"><ele>495.0</ele><time>2026-04-27T11:27:10Z</time></trkpt><trkpt lat="46.11094790371894" lon="10.312511831478336"><ele>495.0</ele><time>2026-04-27T11:27:11Z</time></trkpt><trkpt lat="46.110779062451336" lon="10.312421885604165"><ele>495.0</ele><time>2026-04-27T11:27:12Z</time></trkpt><trkpt lat="46.11060578581143" lon="10.312330074136783"><ele>493.66666666666663</ele><time>2026-04-27T11:27:13Z</time></trkpt><trkpt lat="46.11045574453787" lon="10.312254920729304"><ele>492.3333333333333</ele><time>2026-04-27T11:27:14Z</time></trkpt><trkpt lat="46.110292057006234" lon="10.312194627748275"><ele>491.0</ele><time>2026-04-27T11:27:15Z</time></trkpt><trkpt lat="46.11011004308496" lon="10.31216847541465"><ele>492.3333333333333</ele><time>2026-04-27T11:27:16Z</time></trkpt><trkpt lat="46.1099326415939" lon="10.312191933457186"><ele>493.66666666666663</ele><time>2026-04-27T11:27:17Z</time></trkpt><trkpt lat="46.10977728756546" lon="10.31226219221119"><ele>495.0</ele><time>2026-04-27T11:27:18Z</time></trkpt><trkpt lat="46.1096244257311" lon="10.312388024829577"><ele>495.0</ele><time>2026-04-27T11:27:19Z</time></trkpt><trkpt lat="46.10947814845975" lon="10.312569252572343"><ele>495.0</ele><time>2026-04-27T11:27:20Z</time></trkpt><trkpt lat="46.10935854288974" lon="10.312776462629934"><ele>495.0</ele><time>2026-04-27T11:27:21Z</time></trkpt><trkpt lat="46.109261211770544" lon="10.313004126165403"><ele>494.33333333333337</ele><time>2026-04-27T11:27:22Z</time></trkpt><trkpt lat="46.10917312311278" lon="10.313251004024167"><ele>493.6666666666667</ele><time>2026-04-27T11:27:23Z</time></trkpt><trkpt lat="46.109069567654494" lon="10.313494109696116"><ele>493.0</ele><time>2026-04-27T11:27:24Z</time></trkpt><trkpt lat="46.10897693424163" lon="10.313718640002856"><ele>496.75</ele><time>2026-04-27T11:27:25Z</time></trkpt><trkpt lat="46.10889149086684" lon="10.313921777828078"><ele>500.5</ele><time>2026-04-27T11:27:26Z</time></trkpt><trkpt lat="46.108813793687396" lon="10.314089480360089"><ele>504.25</ele><time>2026-04-27T11:27:27Z</time></trkpt><trkpt lat="46.1087239665359" lon="10.314217109292272"><ele>508.0</ele><time>2026-04-27T11:27:28Z</time></trkpt><trkpt lat="46.108608548222506" lon="10.314305442393835"><ele>508.0</ele><time>2026-04-27T11:27:29Z</time></trkpt><trkpt lat="46.108483979448444" lon="10.314320010985602"><ele>508.0</ele><time>2026-04-27T11:27:30Z</time></trkpt><trkpt lat="46.10834839996595" lon="10.314279212668364"><ele>508.0</ele><time>2026-04-27T11:27:31Z</time></trkpt><trkpt lat="46.108182114676545" lon="10.314212465979388"><ele>508.0</ele><time>2026-04-27T11:27:32Z</time></trkpt><trkpt lat="46.10800302564771" lon="10.314133991758615"><ele>505.33333333333337</ele><time>2026-04-27T11:27:33Z</time></trkpt><trkpt lat="46.107832972736574" lon="10.314057110575437"><ele>502.66666666666663</ele><time>2026-04-27T11:27:34Z</time></trkpt><trkpt lat="46.10766369636429" lon="10.313959573822414"><ele>500.0</ele><time>2026-04-27T11:27:35Z</time></trkpt><trkpt lat="46.1074942640979" lon="10.313846561739206"><ele>502.66666666666663</ele><time>2026-04-27T11:27:36Z</time></trkpt><trkpt lat="46.10732186391936" lon="10.313731900149548"><ele>505.33333333333337</ele><time>2026-04-27T11:27:37Z</time></trkpt><trkpt lat="46.107141742651606" lon="10.313620697204422"><ele>508.0</ele><time>2026-04-27T11:27:38Z</time></trkpt><trkpt lat="46.1069662199802" lon="10.313513228664926"><ele>508.0</ele><time>2026-04-27T11:27:39Z</time></trkpt><trkpt lat="46.10680304479555" lon="10.313414939147243"><ele>508.0</ele><time>2026-04-27T11:27:40Z</time></trkpt><trkpt lat="46.1066397374857" lon="10.313316052918546"><ele>508.0</ele><time>2026-04-27T11:27:41Z</time></trkpt><trkpt lat="46.10648577660055" lon="10.313222651433923"><ele>510.33333333333337</ele><time>2026-04-27T11:27:42Z</time></trkpt><trkpt lat="46.10634134041613" lon="10.313140837151105"><ele>512.6666666666666</ele><time>2026-04-27T11:27:43Z</time></trkpt><trkpt lat="46.106205630194815" lon="10.313077200347532"><ele>515.0</ele><time>2026-04-27T11:27:44Z</time></trkpt><trkpt lat="46.10605154556537" lon="10.313027943247922"><ele>508.66666666666663</ele><time>2026-04-27T11:27:45Z</time></trkpt><trkpt lat="46.10588388938335" lon="10.313012131842667"><ele>502.33333333333337</ele><time>2026-04-27T11:27:46Z</time></trkpt><trkpt lat="46.105708478756966" lon="10.313026006672136"><ele>496.0</ele><time>2026-04-27T11:27:47Z</time></trkpt><trkpt lat="46.10552892328965" lon="10.313051048647345"><ele>504.33333333333337</ele><time>2026-04-27T11:27:48Z</time></trkpt><trkpt lat="46.105347468367555" lon="10.313113390592749"><ele>512.6666666666666</ele><time>2026-04-27T11:27:49Z</time></trkpt><trkpt lat="46.105162227997575" lon="10.31313784095444"><ele>521.0</ele><time>2026-04-27T11:27:50Z</time></trkpt><trkpt lat="46.10497581015679" lon="10.313134329796059"><ele>523.6666666666666</ele><time>2026-04-27T11:27:51Z</time></trkpt><trkpt lat="46.10477791548703" lon="10.31311148334335"><ele>526.3333333333334</ele><time>2026-04-27T11:27:52Z</time></trkpt><trkpt lat="46.10459354307666" lon="10.31308497472971"><ele>529.0</ele><time>2026-04-27T11:27:53Z</time></trkpt><trkpt lat="46.10442790161101" lon="10.31305262217886"><ele>524.6666666666667</ele><time>2026-04-27T11:27:54Z</time></trkpt><trkpt lat="46.10425940167631" lon="10.313038706470643"><ele>520.3333333333334</ele><time>2026-04-27T11:27:55Z</time></trkpt><trkpt lat="46.10407262687573" lon="10.313062454179247"><ele>516.0</ele><time>2026-04-27T11:27:56Z</time></trkpt><trkpt lat="46.10388771900176" lon="10.31311108497242"><ele>516.0</ele><time>2026-04-27T11:27:57Z</time></trkpt><trkpt lat="46.10370596437616" lon="10.313163481758771"><ele>516.0</ele><time>2026-04-27T11:27:58Z</time></trkpt><trkpt lat="46.10352193108186" lon="10.31321944742865"><ele>516.0</ele><time>2026-04-27T11:27:59Z</time></trkpt><trkpt lat="46.103343412759926" lon="10.313285415168073"><ele>510.0</ele><time>2026-04-27T11:28:00Z</time></trkpt><trkpt lat="46.10317401486345" lon="10.313355272255972"><ele>504.0</ele><time>2026-04-27T11:28:01Z</time></trkpt><trkpt lat="46.10301402087189" lon="10.313456470198028"><ele>498.0</ele><time>2026-04-27T11:28:02Z</time></trkpt><trkpt lat="46.10286512769317" lon="10.313562342154773"><ele>498.0</ele><time>2026-04-27T11:28:03Z</time></trkpt><trkpt lat="46.10273015799352" lon="10.313676157500382"><ele>498.0</ele><time>2026-04-27T11:28:04Z</time></trkpt><trkpt lat="46.10260756749676" lon="10.313822975947858"><ele>498.0</ele><time>2026-04-27T11:28:05Z</time></trkpt><trkpt lat="46.10250213304197" lon="10.313984497651475"><ele>500.5</ele><time>2026-04-27T11:28:06Z</time></trkpt><trkpt lat="46.10241383095909" lon="10.314160662510307"><ele>503.0</ele><time>2026-04-27T11:28:07Z</time></trkpt><trkpt lat="46.102320890441824" lon="10.314297896389624"><ele>505.5</ele><time>2026-04-27T11:28:08Z</time></trkpt><trkpt lat="46.102206233599695" lon="10.314409318551359"><ele>508.0</ele><time>2026-04-27T11:28:09Z</time></trkpt><trkpt lat="46.1020436214444" lon="10.314448970536525"><ele>508.0</ele><time>2026-04-27T11:28:10Z</time></trkpt><trkpt lat="46.10188771133459" lon="10.31441688292976"><ele>508.0</ele><time>2026-04-27T11:28:11Z</time></trkpt><trkpt lat="46.10173045413875" lon="10.314307022057857"><ele>508.0</ele><time>2026-04-27T11:28:12Z</time></trkpt><trkpt lat="46.101569755144546" lon="10.314172496359168"><ele>504.0</ele><time>2026-04-27T11:28:13Z</time></trkpt><trkpt lat="46.101405975695734" lon="10.314034122682504"><ele>500.0</ele><time>2026-04-27T11:28:14Z</time></trkpt><trkpt lat="46.1012310022375" lon="10.313922869730455"><ele>496.0</ele><time>2026-04-27T11:28:15Z</time></trkpt><trkpt lat="46.10106590845718" lon="10.313816016056121"><ele>496.0</ele><time>2026-04-27T11:28:16Z</time></trkpt><trkpt lat="46.100916686067265" lon="10.31371428719953"><ele>496.0</ele><time>2026-04-27T11:28:17Z</time></trkpt><trkpt lat="46.10075839263824" lon="10.313612280584117"><ele>496.0</ele><time>2026-04-27T11:28:18Z</time></trkpt><trkpt lat="46.100581788838255" lon="10.313538882820913"><ele>495.33333333333337</ele><time>2026-04-27T11:28:19Z</time></trkpt><trkpt lat="46.100396638011475" lon="10.313488921280884"><ele>494.66666666666663</ele><time>2026-04-27T11:28:20Z</time></trkpt><trkpt lat="46.100207943316796" lon="10.313478818267788"><ele>494.0</ele><time>2026-04-27T11:28:21Z</time></trkpt><trkpt lat="46.10001997509995" lon="10.313529405088156"><ele>490.0</ele><time>2026-04-27T11:28:22Z</time></trkpt><trkpt lat="46.09984092140994" lon="10.313627690202667"><ele>486.0</ele><time>2026-04-27T11:28:23Z</time></trkpt><trkpt lat="46.09967201303331" lon="10.313721670714592"><ele>482.0</ele><time>2026-04-27T11:28:24Z</time></trkpt><trkpt lat="46.09953369623413" lon="10.313847878559802"><ele>487.66666666666663</ele><time>2026-04-27T11:28:25Z</time></trkpt><trkpt lat="46.09939870068524" lon="10.31401396140956"><ele>493.33333333333337</ele><time>2026-04-27T11:28:26Z</time></trkpt><trkpt lat="46.099280748064395" lon="10.314208147903878"><ele>499.0</ele><time>2026-04-27T11:28:27Z</time></trkpt><trkpt lat="46.09915395495918" lon="10.314380999259747"><ele>502.6666666666667</ele><time>2026-04-27T11:28:28Z</time></trkpt><trkpt lat="46.09901427983395" lon="10.314541675218702"><ele>506.33333333333337</ele><time>2026-04-27T11:28:29Z</time></trkpt><trkpt lat="46.098852658459904" lon="10.314667833622675"><ele>510.0</ele><time>2026-04-27T11:28:30Z</time></trkpt><trkpt lat="46.09868705436963" lon="10.314770670713939"><ele>510.0</ele><time>2026-04-27T11:28:31Z</time></trkpt><trkpt lat="46.09852149975883" lon="10.314824710980824"><ele>510.0</ele><time>2026-04-27T11:28:32Z</time></trkpt><trkpt lat="46.098339162496" lon="10.314843877386027"><ele>510.0</ele><time>2026-04-27T11:28:33Z</time></trkpt><trkpt lat="46.0981454637396" lon="10.31481453520523"><ele>513.0</ele><time>2026-04-27T11:28:34Z</time></trkpt><trkpt lat="46.09794488571909" lon="10.314776816511575"><ele>516.0</ele><time>2026-04-27T11:28:35Z</time></trkpt><trkpt lat="46.09774734687011" lon="10.314737167053906"><ele>519.0</ele><time>2026-04-27T11:28:36Z</time></trkpt><trkpt lat="46.097548501533424" lon="10.314696570271659"><ele>512.3333333333334</ele><time>2026-04-27T11:28:37Z</time></trkpt><trkpt lat="46.097350114561046" lon="10.314656067153555"><ele>505.6666666666667</ele><time>2026-04-27T11:28:38Z</time></trkpt><trkpt lat="46.0971584531204" lon="10.3146169371342"><ele>499.0</ele><time>2026-04-27T11:28:39Z</time></trkpt><trkpt lat="46.09696663074656" lon="10.314577774238003"><ele>499.0</ele><time>2026-04-27T11:28:40Z</time></trkpt><trkpt lat="46.096782018438624" lon="10.314540083381129"><ele>499.0</ele><time>2026-04-27T11:28:41Z</time></trkpt><trkpt lat="46.096587996972126" lon="10.314501253277784"><ele>499.0</ele><time>2026-04-27T11:28:42Z</time></trkpt><trkpt lat="46.09640910793599" lon="10.314467239986904"><ele>497.6666666666667</ele><time>2026-04-27T11:28:43Z</time></trkpt><trkpt lat="46.09624373918826" lon="10.314439411863669"><ele>496.33333333333337</ele><time>2026-04-27T11:28:44Z</time></trkpt><trkpt lat="46.09607481567322" lon="10.314419948504046"><ele>495.0</ele><time>2026-04-27T11:28:45Z</time></trkpt><trkpt lat="46.09590545140079" lon="10.314422146853099"><ele>490.66666666666663</ele><time>2026-04-27T11:28:46Z</time></trkpt><trkpt lat="46.09572818298233" lon="10.314464875632405"><ele>486.3333333333333</ele><time>2026-04-27T11:28:47Z</time></trkpt><trkpt lat="46.095543305122526" lon="10.314544488094478"><ele>482.0</ele><time>2026-04-27T11:28:48Z</time></trkpt><trkpt lat="46.09535215464907" lon="10.314654767891861"><ele>482.0</ele><time>2026-04-27T11:28:49Z</time></trkpt><trkpt lat="46.09515567468147" lon="10.314778587941063"><ele>482.0</ele><time>2026-04-27T11:28:50Z</time></trkpt><trkpt lat="46.094955595853286" lon="10.31490371497548"><ele>482.0</ele><time>2026-04-27T11:28:51Z</time></trkpt><trkpt lat="46.094759468851024" lon="10.315025692807296"><ele>482.0</ele><time>2026-04-27T11:28:52Z</time></trkpt><trkpt lat="46.09456795830622" lon="10.315143418562336"><ele>482.0</ele><time>2026-04-27T11:28:53Z</time></trkpt><trkpt lat="46.09439081264932" lon="10.315251900009667"><ele>482.0</ele><time>2026-04-27T11:28:54Z</time></trkpt><trkpt lat="46.09420965464852" lon="10.315362225446197"><ele>479.3333333333333</ele><time>2026-04-27T11:28:55Z</time></trkpt><trkpt lat="46.094026469200514" lon="10.31547006659051"><ele>476.66666666666663</ele><time>2026-04-27T11:28:56Z</time></trkpt><trkpt lat="46.09383923844524" lon="10.315579942998648"><ele>474.0</ele><time>2026-04-27T11:28:57Z</time></trkpt><trkpt lat="46.09365100186235" lon="10.31568889255566"><ele>474.66666666666663</ele><time>2026-04-27T11:28:58Z</time></trkpt><trkpt lat="46.09346268798369" lon="10.315796344718276"><ele>475.3333333333333</ele><time>2026-04-27T11:28:59Z</time></trkpt><trkpt lat="46.09326644041149" lon="10.315901805951263"><ele>476.0</ele><time>2026-04-27T11:29:00Z</time></trkpt><trkpt lat="46.09307072690968" lon="10.316005761639131"><ele>476.0</ele><time>2026-04-27T11:29:01Z</time></trkpt><trkpt lat="46.09287761965583" lon="10.31610185392244"><ele>476.0</ele><time>2026-04-27T11:29:02Z</time></trkpt><trkpt lat="46.09266699702459" lon="10.316181238687113"><ele>476.0</ele><time>2026-04-27T11:29:03Z</time></trkpt><trkpt lat="46.09245458384093" lon="10.316235916112854"><ele>475.66666666666663</ele><time>2026-04-27T11:29:04Z</time></trkpt><trkpt lat="46.09224704914758" lon="10.316283470625093"><ele>475.33333333333337</ele><time>2026-04-27T11:29:05Z</time></trkpt><trkpt lat="46.092040435597376" lon="10.316308001771523"><ele>475.0</ele><time>2026-04-27T11:29:06Z</time></trkpt><trkpt lat="46.09183346652054" lon="10.316320758587581"><ele>475.0</ele><time>2026-04-27T11:29:07Z</time></trkpt><trkpt lat="46.09163668884054" lon="10.3163313877559"><ele>475.0</ele><time>2026-04-27T11:29:08Z</time></trkpt><trkpt lat="46.09146177673908" lon="10.316340835845493"><ele>475.0</ele><time>2026-04-27T11:29:09Z</time></trkpt><trkpt lat="46.09129421245802" lon="10.316342925166788"><ele>473.33333333333337</ele><time>2026-04-27T11:29:10Z</time></trkpt><trkpt lat="46.09113806103314" lon="10.316338563072684"><ele>471.66666666666663</ele><time>2026-04-27T11:29:11Z</time></trkpt><trkpt lat="46.09098543849705" lon="10.316332679413984"><ele>470.0</ele><time>2026-04-27T11:29:12Z</time></trkpt><trkpt lat="46.09082405106445" lon="10.316349798685573"><ele>469.66666666666663</ele><time>2026-04-27T11:29:13Z</time></trkpt><trkpt lat="46.09068388468703" lon="10.31643321237748"><ele>469.33333333333337</ele><time>2026-04-27T11:29:14Z</time></trkpt><trkpt lat="46.09052010222543" lon="10.316515944820981"><ele>469.0</ele><time>2026-04-27T11:29:15Z</time></trkpt><trkpt lat="46.09036724961806" lon="10.316636958492968"><ele>469.0</ele><time>2026-04-27T11:29:16Z</time></trkpt><trkpt lat="46.090213000464495" lon="10.316783329317627"><ele>469.0</ele><time>2026-04-27T11:29:17Z</time></trkpt><trkpt lat="46.09009423677086" lon="10.31695242616836"><ele>469.0</ele><time>2026-04-27T11:29:18Z</time></trkpt><trkpt lat="46.08999658159971" lon="10.317101221071345"><ele>467.6666666666667</ele><time>2026-04-27T11:29:19Z</time></trkpt><trkpt lat="46.08990869815372" lon="10.317278480022237"><ele>466.33333333333337</ele><time>2026-04-27T11:29:20Z</time></trkpt><trkpt lat="46.08983573497037" lon="10.317459101177818"><ele>465.0</ele><time>2026-04-27T11:29:21Z</time></trkpt><trkpt lat="46.08974009961641" lon="10.317667824939349"><ele>465.0</ele><time>2026-04-27T11:29:22Z</time></trkpt><trkpt lat="46.08962288892395" lon="10.317881305046486"><ele>465.0</ele><time>2026-04-27T11:29:23Z</time></trkpt><trkpt lat="46.08946707412727" lon="10.318065904787524"><ele>465.0</ele><time>2026-04-27T11:29:24Z</time></trkpt><trkpt lat="46.0892921764664" lon="10.318207426214551"><ele>464.0</ele><time>2026-04-27T11:29:25Z</time></trkpt><trkpt lat="46.08915011570694" lon="10.318340306507134"><ele>463.0</ele><time>2026-04-27T11:29:26Z</time></trkpt><trkpt lat="46.08902645138171" lon="10.318473321180994"><ele>462.0</ele><time>2026-04-27T11:29:27Z</time></trkpt><trkpt lat="46.08891025415348" lon="10.318594772414412"><ele>462.0</ele><time>2026-04-27T11:29:28Z</time></trkpt><trkpt lat="46.08880993665628" lon="10.318701491755096"><ele>462.00000000000006</ele><time>2026-04-27T11:29:29Z</time></trkpt><trkpt lat="46.08872160362034" lon="10.318791017665"><ele>462.00000000000006</ele><time>2026-04-27T11:29:30Z</time></trkpt><trkpt lat="46.08863979300383" lon="10.318856301280311"><ele>462.0</ele><time>2026-04-27T11:29:31Z</time></trkpt><trkpt lat="46.08856944524647" lon="10.318912847164807"><ele>462.0</ele><time>2026-04-27T11:29:32Z</time></trkpt><trkpt lat="46.08850034312835" lon="10.31893672126303"><ele>461.3333333333333</ele><time>2026-04-27T11:29:33Z</time></trkpt><trkpt lat="46.08841511289863" lon="10.318954305356105"><ele>460.66666666666663</ele><time>2026-04-27T11:29:34Z</time></trkpt><trkpt lat="46.088341704650745" lon="10.318981423218375"><ele>460.0</ele><time>2026-04-27T11:29:35Z</time></trkpt><trkpt lat="46.088282696623516" lon="10.319034402347071"><ele>459.3333333333333</ele><time>2026-04-27T11:29:36Z</time></trkpt><trkpt lat="46.08823642811609" lon="10.319140447321713"><ele>458.66666666666663</ele><time>2026-04-27T11:29:37Z</time></trkpt><trkpt lat="46.08818984815958" lon="10.319303089415898"><ele>458.0</ele><time>2026-04-27T11:29:38Z</time></trkpt><trkpt lat="46.08811701549045" lon="10.319459429028653"><ele>458.0</ele><time>2026-04-27T11:29:39Z</time></trkpt><trkpt lat="46.088028718738" lon="10.319628440600065"><ele>458.0</ele><time>2026-04-27T11:29:40Z</time></trkpt><trkpt lat="46.08795577819638" lon="10.319810751513623"><ele>458.0</ele><time>2026-04-27T11:29:41Z</time></trkpt><trkpt lat="46.08788810952844" lon="10.320063328130132"><ele>458.3333333333333</ele><time>2026-04-27T11:29:42Z</time></trkpt><trkpt lat="46.08780775011124" lon="10.320332993186009"><ele>458.66666666666663</ele><time>2026-04-27T11:29:43Z</time></trkpt><trkpt lat="46.087757664135864" lon="10.320596023768756"><ele>459.0</ele><time>2026-04-27T11:29:44Z</time></trkpt><trkpt lat="46.08771005484103" lon="10.320843233073372"><ele>459.33333333333337</ele><time>2026-04-27T11:29:45Z</time></trkpt><trkpt lat="46.087658133106856" lon="10.321114912357018"><ele>459.6666666666667</ele><time>2026-04-27T11:29:46Z</time></trkpt><trkpt lat="46.087611002324" lon="10.321363687293074"><ele>460.0</ele><time>2026-04-27T11:29:47Z</time></trkpt><trkpt lat="46.087557819496375" lon="10.321643705648505"><ele>459.33333333333337</ele><time>2026-04-27T11:29:48Z</time></trkpt><trkpt lat="46.08750573398906" lon="10.321922247032507"><ele>458.66666666666663</ele><time>2026-04-27T11:29:49Z</time></trkpt><trkpt lat="46.08748041544011" lon="10.322199537391795"><ele>458.0</ele><time>2026-04-27T11:29:50Z</time></trkpt><trkpt lat="46.08742032123371" lon="10.322478736188621"><ele>458.0</ele><time>2026-04-27T11:29:51Z</time></trkpt><trkpt lat="46.087346981353825" lon="10.322729371622824"><ele>458.0</ele><time>2026-04-27T11:29:52Z</time></trkpt><trkpt lat="46.08726753067166" lon="10.322960029694354"><ele>458.0</ele><time>2026-04-27T11:29:53Z</time></trkpt><trkpt lat="46.087189621179135" lon="10.32319545040193"><ele>459.3333333333333</ele><time>2026-04-27T11:29:54Z</time></trkpt><trkpt lat="46.08711405967864" lon="10.323453243655985"><ele>460.66666666666663</ele><time>2026-04-27T11:29:55Z</time></trkpt><trkpt lat="46.08705550679034" lon="10.323719702332884"><ele>462.0</ele><time>2026-04-27T11:29:56Z</time></trkpt><trkpt lat="46.08701001714878" lon="10.32397810583617"><ele>463.33333333333337</ele><time>2026-04-27T11:29:57Z</time></trkpt><trkpt lat="46.08699608193287" lon="10.324230387109724"><ele>464.6666666666667</ele><time>2026-04-27T11:29:58Z</time></trkpt><trkpt lat="46.086995129159654" lon="10.32448356659056"><ele>466.0</ele><time>2026-04-27T11:29:59Z</time></trkpt><trkpt lat="46.08700262289882" lon="10.324742461956198"><ele>472.6666666666667</ele><time>2026-04-27T11:30:00Z</time></trkpt><trkpt lat="46.0870059372844" lon="10.325010605884547"><ele>479.33333333333337</ele><time>2026-04-27T11:30:01Z</time></trkpt><trkpt lat="46.08700437226615" lon="10.325281575704263"><ele>486.0</ele><time>2026-04-27T11:30:02Z</time></trkpt><trkpt lat="46.08701582228936" lon="10.325555610728324"><ele>490.33333333333337</ele><time>2026-04-27T11:30:03Z</time></trkpt><trkpt lat="46.087013831896016" lon="10.325820541757208"><ele>494.6666666666667</ele><time>2026-04-27T11:30:04Z</time></trkpt><trkpt lat="46.087005617438464" lon="10.326122182971268"><ele>499.0</ele><time>2026-04-27T11:30:05.144Z</time></trkpt><trkpt lat="46.086540730080294" lon="10.32783076354019"><ele>476.0</ele><time>2026-04-27T11:30:08.781Z</time></trkpt><trkpt lat="46.08636070597416" lon="10.328276769752353"><ele>453.0</ele><time>2026-04-27T11:30:09.778Z</time></trkpt><trkpt lat="46.08654431369346" lon="10.328758373269803"><ele>472.5</ele><time>2026-04-27T11:30:13.781Z</time></trkpt><trkpt lat="46.08689577792063" lon="10.328647293872342"><ele>492.0</ele><time>2026-04-27T11:30:14.781Z</time></trkpt><trkpt lat="46.087246173897896" lon="10.32853113939212"><ele>514.5</ele><time>2026-04-27T11:30:15.781Z</time></trkpt><trkpt lat="46.087547316224004" lon="10.328256361851148"><ele>537.0</ele><time>2026-04-27T11:30:16.781Z</time></trkpt><trkpt lat="46.08566801621139" lon="10.329239003780014"><ele>507.0</ele><time>2026-04-27T11:30:19Z</time></trkpt><trkpt lat="46.085496507668715" lon="10.329409882069848"><ele>477.0</ele><time>2026-04-27T11:30:20Z</time></trkpt><trkpt lat="46.08532015894186" lon="10.329608169648875"><ele>447.0</ele><time>2026-04-27T11:30:21Z</time></trkpt><trkpt lat="46.085145489421855" lon="10.329820735109326"><ele>447.0</ele><time>2026-04-27T11:30:22Z</time></trkpt><trkpt lat="46.08496814271453" lon="10.330014942460984"><ele>447.0</ele><time>2026-04-27T11:30:23Z</time></trkpt><trkpt lat="46.084810004834274" lon="10.330198279419363"><ele>447.0</ele><time>2026-04-27T11:30:24Z</time></trkpt><trkpt lat="46.08464755454268" lon="10.330384345246978"><ele>451.33333333333337</ele><time>2026-04-27T11:30:25Z</time></trkpt><trkpt lat="46.08447265317748" lon="10.330537262926692"><ele>455.6666666666667</ele><time>2026-04-27T11:30:26Z</time></trkpt><trkpt lat="46.08431304129329" lon="10.330702242728304"><ele>460.0</ele><time>2026-04-27T11:30:27Z</time></trkpt><trkpt lat="46.08415017459574" lon="10.330870771151968"><ele>485.6666666666667</ele><time>2026-04-27T11:30:28Z</time></trkpt><trkpt lat="46.08398790221454" lon="10.33103814352078"><ele>511.33333333333337</ele><time>2026-04-27T11:30:29Z</time></trkpt><trkpt lat="46.08383819019597" lon="10.331215973596178"><ele>537.0</ele><time>2026-04-27T11:30:30Z</time></trkpt><trkpt lat="46.083666977743015" lon="10.331392147098596"><ele>538.0</ele><time>2026-04-27T11:30:31Z</time></trkpt><trkpt lat="46.08349253050205" lon="10.33156390478952"><ele>539.0</ele><time>2026-04-27T11:30:32Z</time></trkpt><trkpt lat="46.08331112697893" lon="10.331755092938693"><ele>540.0</ele><time>2026-04-27T11:30:33Z</time></trkpt><trkpt lat="46.08312442540973" lon="10.331943219005408"><ele>568.0</ele><time>2026-04-27T11:30:34Z</time></trkpt><trkpt lat="46.082935835839535" lon="10.332132535207304"><ele>596.0</ele><time>2026-04-27T11:30:35Z</time></trkpt><trkpt lat="46.08324572282067" lon="10.331803648491963"><ele>745.0</ele><time>2026-04-27T11:30:36.144Z</time></trkpt><trkpt lat="46.08159837204984" lon="10.333526724615059"><ele>748.0</ele><time>2026-04-27T11:30:39.781Z</time></trkpt><trkpt lat="46.081084721854204" lon="10.334046837137654"><ele>795.0</ele><time>2026-04-27T11:30:40.778Z</time></trkpt><trkpt lat="46.08057509259011" lon="10.334581853039237"><ele>779.0</ele><time>2026-04-27T11:30:41.781Z</time></trkpt><trkpt lat="46.08007228559632" lon="10.335119675052528"><ele>792.0</ele><time>2026-04-27T11:30:42.776Z</time></trkpt><trkpt lat="46.0795475723058" lon="10.335627358976858"><ele>828.0</ele><time>2026-04-27T11:30:43.781Z</time></trkpt><trkpt lat="46.079039948934884" lon="10.336162842122077"><ele>799.0</ele><time>2026-04-27T11:30:44.781Z</time></trkpt><trkpt lat="46.07851385428654" lon="10.33666001774245"><ele>781.0</ele><time>2026-04-27T11:30:45.781Z</time></trkpt><trkpt lat="46.07798448480191" lon="10.337150493484724"><ele>739.0</ele><time>2026-04-27T11:30:46.781Z</time></trkpt><trkpt lat="46.0775209" lon="10.3375795"><ele>375.0</ele><time>2026-04-27T11:30:47.779Z</time></trkpt><trkpt lat="46.0379496821795" lon="10.346651442835682"><ele>375.0</ele><time>2026-04-27T11:34:10.999Z</time></trkpt><trkpt lat="46.03770611154764" lon="10.346934397907356"><ele>375.0</ele><time>2026-04-27T11:34:11.999Z</time></trkpt><trkpt lat="46.037515745660954" lon="10.34714572437767"><ele>375.6666666666667</ele><time>2026-04-27T11:34:12.999Z</time></trkpt><trkpt lat="46.0372935494866" lon="10.347240385278255"><ele>376.33333333333337</ele><time>2026-04-27T11:34:13.999Z</time></trkpt><trkpt lat="46.037133571261855" lon="10.347388609130176"><ele>377.0</ele><time>2026-04-27T11:34:14.999Z</time></trkpt><trkpt lat="46.036983808175734" lon="10.34752716969452"><ele>377.0</ele><time>2026-04-27T11:34:16Z</time></trkpt><trkpt lat="46.03683409972245" lon="10.347665809593915"><ele>377.0</ele><time>2026-04-27T11:34:17Z</time></trkpt><trkpt lat="46.036664738664705" lon="10.34782301760668"><ele>377.0</ele><time>2026-04-27T11:34:18Z</time></trkpt><trkpt lat="46.036493684739" lon="10.347984124629763"><ele>378.33333333333337</ele><time>2026-04-27T11:34:19Z</time></trkpt><trkpt lat="46.03633112986832" lon="10.348137127076264"><ele>379.6666666666667</ele><time>2026-04-27T11:34:20Z</time></trkpt><trkpt lat="46.03617361432244" lon="10.348285184579572"><ele>381.0</ele><time>2026-04-27T11:34:21Z</time></trkpt><trkpt lat="46.03602562488696" lon="10.3484245923641"><ele>381.0</ele><time>2026-04-27T11:34:22Z</time></trkpt><trkpt lat="46.03587652798244" lon="10.348565204852415"><ele>381.0</ele><time>2026-04-27T11:34:23Z</time></trkpt><trkpt lat="46.03572003072213" lon="10.348712373337367"><ele>381.0</ele><time>2026-04-27T11:34:24Z</time></trkpt><trkpt lat="46.03556552017635" lon="10.34885646310318"><ele>383.33333333333337</ele><time>2026-04-27T11:34:25Z</time></trkpt><trkpt lat="46.03540884910671" lon="10.349002567685332"><ele>385.6666666666667</ele><time>2026-04-27T11:34:26Z</time></trkpt><trkpt lat="46.03525339317178" lon="10.349147168413642"><ele>388.0</ele><time>2026-04-27T11:34:27Z</time></trkpt><trkpt lat="46.035092022932794" lon="10.349296230664988"><ele>389.6666666666667</ele><time>2026-04-27T11:34:28Z</time></trkpt><trkpt lat="46.03493312195868" lon="10.349437567350371"><ele>391.33333333333337</ele><time>2026-04-27T11:34:29Z</time></trkpt><trkpt lat="46.03477692996107" lon="10.34957181336593"><ele>393.0</ele><time>2026-04-27T11:34:30Z</time></trkpt><trkpt lat="46.034584849162" lon="10.349730018947655"><ele>394.66666666666663</ele><time>2026-04-27T11:34:31Z</time></trkpt><trkpt lat="46.03443222296468" lon="10.349851861682689"><ele>396.3333333333333</ele><time>2026-04-27T11:34:32Z</time></trkpt><trkpt lat="46.03427541267025" lon="10.349976218322038"><ele>398.0</ele><time>2026-04-27T11:34:33Z</time></trkpt><trkpt lat="46.03412198540143" lon="10.350093996221634"><ele>398.3333333333333</ele><time>2026-04-27T11:34:34Z</time></trkpt><trkpt lat="46.03396373556259" lon="10.35021014804624"><ele>398.66666666666663</ele><time>2026-04-27T11:34:35Z</time></trkpt><trkpt lat="46.03380439909102" lon="10.350323543718204"><ele>399.0</ele><time>2026-04-27T11:34:36Z</time></trkpt><trkpt lat="46.03364104049818" lon="10.350433852925613"><ele>401.33333333333337</ele><time>2026-04-27T11:34:37Z</time></trkpt><trkpt lat="46.03346242054175" lon="10.350551619931053"><ele>403.6666666666667</ele><time>2026-04-27T11:34:38Z</time></trkpt><trkpt lat="46.033301289430895" lon="10.350654837324697"><ele>406.0</ele><time>2026-04-27T11:34:39Z</time></trkpt><trkpt lat="46.033145502127795" lon="10.350752397440699"><ele>406.6666666666667</ele><time>2026-04-27T11:34:40Z</time></trkpt><trkpt lat="46.032977599201104" lon="10.350848761889452"><ele>407.33333333333337</ele><time>2026-04-27T11:34:41.144Z</time></trkpt><trkpt lat="46.032821288894326" lon="10.350931145967392"><ele>408.0</ele><time>2026-04-27T11:34:42.144Z</time></trkpt><trkpt lat="46.03087598528965" lon="10.351734075111043"><ele>458.0</ele><time>2026-04-27T11:34:45.776Z</time></trkpt><trkpt lat="46.03025192483973" lon="10.351879743273512"><ele>482.0</ele><time>2026-04-27T11:34:46.78Z</time></trkpt><trkpt lat="46.02962574943823" lon="10.351974977334809"><ele>482.0</ele><time>2026-04-27T11:34:47.78Z</time></trkpt><trkpt lat="46.0294049" lon="10.3520008"><ele>482.0</ele><time>2026-04-27T11:34:48.778Z</time></trkpt><trkpt lat="46.016162256471816" lon="10.35008605646281"><ele>443.3333333333333</ele><time>2026-04-27T11:36:08Z</time></trkpt><trkpt lat="46.016020782938185" lon="10.350002923682416"><ele>404.66666666666663</ele><time>2026-04-27T11:36:09Z</time></trkpt><trkpt lat="46.01588979169488" lon="10.349896668580001"><ele>366.0</ele><time>2026-04-27T11:36:10Z</time></trkpt><trkpt lat="46.01575980660232" lon="10.349794622042765"><ele>366.0</ele><time>2026-04-27T11:36:11Z</time></trkpt><trkpt lat="46.015547095912034" lon="10.349755654649"><ele>366.0</ele><time>2026-04-27T11:36:12Z</time></trkpt><trkpt lat="46.01535967869055" lon="10.349722540118265"><ele>366.0</ele><time>2026-04-27T11:36:13Z</time></trkpt><trkpt lat="46.01516006189483" lon="10.349736062199739"><ele>365.3333333333333</ele><time>2026-04-27T11:36:14Z</time></trkpt><trkpt lat="46.01497726530965" lon="10.349701767089075"><ele>364.66666666666663</ele><time>2026-04-27T11:36:15Z</time></trkpt><trkpt lat="46.014777132897706" lon="10.349655766837593"><ele>364.0</ele><time>2026-04-27T11:36:16Z</time></trkpt><trkpt lat="46.01457559742568" lon="10.349606791844769"><ele>364.0</ele><time>2026-04-27T11:36:17Z</time></trkpt><trkpt lat="46.014368414456264" lon="10.349525363022586"><ele>364.0</ele><time>2026-04-27T11:36:18Z</time></trkpt><trkpt lat="46.014147208653384" lon="10.34939403412138"><ele>369.0</ele><time>2026-04-27T11:36:19Z</time></trkpt><trkpt lat="46.01391363352966" lon="10.349255304124805"><ele>374.0</ele><time>2026-04-27T11:36:20Z</time></trkpt><trkpt lat="46.01365339723317" lon="10.349100061896763"><ele>374.0</ele><time>2026-04-27T11:36:21Z</time></trkpt><trkpt lat="46.01340460928598" lon="10.348952746560299"><ele>374.0</ele><time>2026-04-27T11:36:22Z</time></trkpt><trkpt lat="46.013181488321166" lon="10.34882238770535"><ele>376.0</ele><time>2026-04-27T11:36:23Z</time></trkpt><trkpt lat="46.012958654398766" lon="10.348690063288402"><ele>378.0</ele><time>2026-04-27T11:36:24Z</time></trkpt><trkpt lat="46.0127570454966" lon="10.348569490675805"><ele>378.0</ele><time>2026-04-27T11:36:25Z</time></trkpt><trkpt lat="46.01255349341249" lon="10.348471695163399"><ele>378.0</ele><time>2026-04-27T11:36:26Z</time></trkpt><trkpt lat="46.012382728308886" lon="10.348333978753875"><ele>378.0</ele><time>2026-04-27T11:36:27Z</time></trkpt><trkpt lat="46.01219127081375" lon="10.348228728973767"><ele>378.3333333333333</ele><time>2026-04-27T11:36:28Z</time></trkpt><trkpt lat="46.011991955258054" lon="10.3481135151886"><ele>378.66666666666663</ele><time>2026-04-27T11:36:29Z</time></trkpt><trkpt lat="46.011783398435604" lon="10.347992525820638"><ele>379.0</ele><time>2026-04-27T11:36:30Z</time></trkpt><trkpt lat="46.01157382068613" lon="10.347869326442726"><ele>380.66666666666663</ele><time>2026-04-27T11:36:31Z</time></trkpt><trkpt lat="46.011358914882486" lon="10.347751519278502"><ele>382.3333333333333</ele><time>2026-04-27T11:36:32Z</time></trkpt><trkpt lat="46.011158374011124" lon="10.347655656039308"><ele>384.0</ele><time>2026-04-27T11:36:33Z</time></trkpt><trkpt lat="46.010970436324804" lon="10.347566995037322"><ele>384.66666666666663</ele><time>2026-04-27T11:36:34Z</time></trkpt><trkpt lat="46.010778086168834" lon="10.34747012694903"><ele>385.3333333333333</ele><time>2026-04-27T11:36:35Z</time></trkpt><trkpt lat="46.01058773304983" lon="10.347422224343623"><ele>386.0</ele><time>2026-04-27T11:36:36Z</time></trkpt><trkpt lat="46.010397005175655" lon="10.347378116434157"><ele>386.0</ele><time>2026-04-27T11:36:37Z</time></trkpt><trkpt lat="46.010187420986895" lon="10.347336411498533"><ele>386.0</ele><time>2026-04-27T11:36:38Z</time></trkpt><trkpt lat="46.00997551594008" lon="10.347308445686727"><ele>386.0</ele><time>2026-04-27T11:36:39Z</time></trkpt><trkpt lat="46.00976353015418" lon="10.347307332844856"><ele>385.5</ele><time>2026-04-27T11:36:40Z</time></trkpt><trkpt lat="46.009538850967814" lon="10.347308611531378"><ele>385.0</ele><time>2026-04-27T11:36:41Z</time></trkpt><trkpt lat="46.0093032069211" lon="10.347313071806848"><ele>383.0</ele><time>2026-04-27T11:36:42Z</time></trkpt><trkpt lat="46.00908307095873" lon="10.34732736644036"><ele>381.0</ele><time>2026-04-27T11:36:43Z</time></trkpt><trkpt lat="46.00884822226987" lon="10.347358444059802"><ele>381.0</ele><time>2026-04-27T11:36:44Z</time></trkpt><trkpt lat="46.008586243918806" lon="10.347404738417886"><ele>381.0</ele><time>2026-04-27T11:36:45Z</time></trkpt><trkpt lat="46.008309492305884" lon="10.347463023286108"><ele>378.5</ele><time>2026-04-27T11:36:46Z</time></trkpt><trkpt lat="46.00800531632965" lon="10.347530912983748"><ele>376.0</ele><time>2026-04-27T11:36:47Z</time></trkpt><trkpt lat="46.00773022076393" lon="10.347593107152145"><ele>376.0</ele><time>2026-04-27T11:36:48Z</time></trkpt><trkpt lat="46.007517643802096" lon="10.34764137229741"><ele>376.0</ele><time>2026-04-27T11:36:49Z</time></trkpt><trkpt lat="46.00730901256717" lon="10.347688901962936"><ele>376.0</ele><time>2026-04-27T11:36:50Z</time></trkpt><trkpt lat="46.00718516999882" lon="10.347717207811042"><ele>374.3333333333333</ele><time>2026-04-27T11:36:51Z</time></trkpt><trkpt lat="46.007017512890165" lon="10.347755528020842"><ele>372.6666666666667</ele><time>2026-04-27T11:36:52Z</time></trkpt><trkpt lat="46.0068530811763" lon="10.347792414476036"><ele>371.0</ele><time>2026-04-27T11:36:53Z</time></trkpt><trkpt lat="46.00664677360059" lon="10.347782701724375"><ele>369.33333333333337</ele><time>2026-04-27T11:36:54Z</time></trkpt><trkpt lat="46.006438134632994" lon="10.347793665485861"><ele>367.6666666666667</ele><time>2026-04-27T11:36:55Z</time></trkpt><trkpt lat="46.006253657649545" lon="10.347930119137027"><ele>366.0</ele><time>2026-04-27T11:36:56Z</time></trkpt><trkpt lat="46.006023397175944" lon="10.34798274817833"><ele>366.0</ele><time>2026-04-27T11:36:57Z</time></trkpt><trkpt lat="46.005788719492145" lon="10.348036386821827"><ele>366.0</ele><time>2026-04-27T11:36:58Z</time></trkpt><trkpt lat="46.00555487127672" lon="10.348089835866968"><ele>366.0</ele><time>2026-04-27T11:36:59Z</time></trkpt><trkpt lat="46.00530922399225" lon="10.3481459817528"><ele>366.0</ele><time>2026-04-27T11:37:00Z</time></trkpt><trkpt lat="46.00505751286331" lon="10.348203513611269"><ele>365.5</ele><time>2026-04-27T11:37:01Z</time></trkpt><trkpt lat="46.0048014913688" lon="10.348262030659177"><ele>365.0</ele><time>2026-04-27T11:37:02Z</time></trkpt><trkpt lat="46.00456071475925" lon="10.348317063288262"><ele>365.0</ele><time>2026-04-27T11:37:03Z</time></trkpt><trkpt lat="46.004301861097275" lon="10.348376227730908"><ele>365.0</ele><time>2026-04-27T11:37:04Z</time></trkpt><trkpt lat="46.00406151873865" lon="10.348431161175803"><ele>363.0</ele><time>2026-04-27T11:37:05Z</time></trkpt><trkpt lat="46.00383038632209" lon="10.348509353275377"><ele>361.0</ele><time>2026-04-27T11:37:06Z</time></trkpt><trkpt lat="46.00359207381277" lon="10.348563524815564"><ele>361.0</ele><time>2026-04-27T11:37:07Z</time></trkpt><trkpt lat="46.00335549064336" lon="10.348620253178298"><ele>361.0</ele><time>2026-04-27T11:37:08Z</time></trkpt><trkpt lat="46.00312959228028" lon="10.348669602927195"><ele>360.0</ele><time>2026-04-27T11:37:09Z</time></trkpt><trkpt lat="46.002903530779996" lon="10.348716246946859"><ele>359.0</ele><time>2026-04-27T11:37:10Z</time></trkpt><trkpt lat="46.00267535759576" lon="10.348740621305978"><ele>359.0</ele><time>2026-04-27T11:37:11Z</time></trkpt><trkpt lat="46.002452204412315" lon="10.34874598520917"><ele>359.0</ele><time>2026-04-27T11:37:12Z</time></trkpt><trkpt lat="46.00222126605353" lon="10.348720946861098"><ele>359.0</ele><time>2026-04-27T11:37:13Z</time></trkpt><trkpt lat="46.002001852590894" lon="10.348677034064679"><ele>359.0</ele><time>2026-04-27T11:37:14Z</time></trkpt><trkpt lat="46.001782478731" lon="10.34862445268986"><ele>359.0</ele><time>2026-04-27T11:37:15Z</time></trkpt><trkpt lat="46.00156226426229" lon="10.348556540610852"><ele>358.5</ele><time>2026-04-27T11:37:16Z</time></trkpt><trkpt lat="46.00133588772525" lon="10.34847080933366"><ele>358.0</ele><time>2026-04-27T11:37:17Z</time></trkpt><trkpt lat="46.00111169842319" lon="10.348348579767759"><ele>358.0</ele><time>2026-04-27T11:37:18Z</time></trkpt><trkpt lat="46.00091115943375" lon="10.348108973098253"><ele>358.0</ele><time>2026-04-27T11:37:19Z</time></trkpt><trkpt lat="46.00071728703086" lon="10.347975675694746"><ele>358.66666666666663</ele><time>2026-04-27T11:37:20Z</time></trkpt><trkpt lat="46.00052275885859" lon="10.34784508679548"><ele>359.3333333333333</ele><time>2026-04-27T11:37:21Z</time></trkpt><trkpt lat="46.00032908143383" lon="10.347696698952534"><ele>360.0</ele><time>2026-04-27T11:37:22Z</time></trkpt><trkpt lat="46.00014273029679" lon="10.34751688236353"><ele>360.0</ele><time>2026-04-27T11:37:23Z</time></trkpt><trkpt lat="45.99995768630728" lon="10.347306642118385"><ele>360.0</ele><time>2026-04-27T11:37:24Z</time></trkpt><trkpt lat="45.999792260546144" lon="10.347094976038672"><ele>359.6666666666667</ele><time>2026-04-27T11:37:25Z</time></trkpt><trkpt lat="45.99962829101055" lon="10.34689020692906"><ele>359.33333333333337</ele><time>2026-04-27T11:37:26Z</time></trkpt><trkpt lat="45.999475373935276" lon="10.346644052601874"><ele>359.0</ele><time>2026-04-27T11:37:27Z</time></trkpt><trkpt lat="45.99933080724463" lon="10.34640932711411"><ele>359.0</ele><time>2026-04-27T11:37:28Z</time></trkpt><trkpt lat="45.99918173389544" lon="10.346154817968975"><ele>359.0</ele><time>2026-04-27T11:37:29Z</time></trkpt><trkpt lat="45.99904252565412" lon="10.345916736604156"><ele>359.0</ele><time>2026-04-27T11:37:30Z</time></trkpt><trkpt lat="45.998889672997464" lon="10.345677893690421"><ele>359.6666666666667</ele><time>2026-04-27T11:37:31Z</time></trkpt><trkpt lat="45.998747912107994" lon="10.34544939594117"><ele>360.3333333333333</ele><time>2026-04-27T11:37:32Z</time></trkpt><trkpt lat="45.99860414745641" lon="10.345221611543181"><ele>361.0</ele><time>2026-04-27T11:37:33Z</time></trkpt><trkpt lat="45.99845419292027" lon="10.344989440809888"><ele>363.5</ele><time>2026-04-27T11:37:34Z</time></trkpt><trkpt lat="45.99828308264261" lon="10.344717322982778"><ele>366.0</ele><time>2026-04-27T11:37:35.144Z</time></trkpt><trkpt lat="45.998133158190356" lon="10.34448298225035"><ele>364.0</ele><time>2026-04-27T11:37:36.146Z</time></trkpt><trkpt lat="45.99409237499523" lon="10.339330340907424"><ele>364.0</ele><time>2026-04-27T11:38:03Z</time></trkpt><trkpt lat="45.993903909699185" lon="10.339204066212021"><ele>364.0</ele><time>2026-04-27T11:38:04Z</time></trkpt><trkpt lat="45.99369649700827" lon="10.339009364267575"><ele>361.66666666666663</ele><time>2026-04-27T11:38:05Z</time></trkpt><trkpt lat="45.99351216878346" lon="10.338778685971862"><ele>359.3333333333333</ele><time>2026-04-27T11:38:06Z</time></trkpt><trkpt lat="45.99331513883264" lon="10.338724365211803"><ele>357.0</ele><time>2026-04-27T11:38:07Z</time></trkpt><trkpt lat="45.99311599861041" lon="10.338622482361233"><ele>357.0</ele><time>2026-04-27T11:38:08Z</time></trkpt><trkpt lat="45.99290861213755" lon="10.338539074371294"><ele>357.0</ele><time>2026-04-27T11:38:09Z</time></trkpt><trkpt lat="45.992715110785426" lon="10.338430942732243"><ele>357.0</ele><time>2026-04-27T11:38:10Z</time></trkpt><trkpt lat="45.99252377745592" lon="10.33825118373304"><ele>357.0</ele><time>2026-04-27T11:38:11Z</time></trkpt><trkpt lat="45.992305962795875" lon="10.33812840284707"><ele>357.0</ele><time>2026-04-27T11:38:12Z</time></trkpt><trkpt lat="45.9920867799458" lon="10.33800324025606"><ele>353.0</ele><time>2026-04-27T11:38:13Z</time></trkpt><trkpt lat="45.9918749662756" lon="10.337882940642926"><ele>349.0</ele><time>2026-04-27T11:38:14Z</time></trkpt><trkpt lat="45.99166618398821" lon="10.33776964583315"><ele>348.3333333333333</ele><time>2026-04-27T11:38:15Z</time></trkpt><trkpt lat="45.991457676119474" lon="10.33766841982809"><ele>347.6666666666667</ele><time>2026-04-27T11:38:16Z</time></trkpt><trkpt lat="45.99127389979966" lon="10.33754183961148"><ele>347.0</ele><time>2026-04-27T11:38:17Z</time></trkpt><trkpt lat="45.99106599628631" lon="10.337422565214593"><ele>346.0</ele><time>2026-04-27T11:38:18Z</time></trkpt><trkpt lat="45.990836293490304" lon="10.337291481897388"><ele>345.0</ele><time>2026-04-27T11:38:19Z</time></trkpt><trkpt lat="45.99061839153208" lon="10.337168734696784"><ele>345.0</ele><time>2026-04-27T11:38:20Z</time></trkpt><trkpt lat="45.99041153185897" lon="10.337052159332362"><ele>345.0</ele><time>2026-04-27T11:38:21Z</time></trkpt><trkpt lat="45.99020517088286" lon="10.336944420392122"><ele>345.0</ele><time>2026-04-27T11:38:22Z</time></trkpt><trkpt lat="45.9899892057799" lon="10.336840756739695"><ele>346.0</ele><time>2026-04-27T11:38:23Z</time></trkpt><trkpt lat="45.9897681550771" lon="10.33674607321123"><ele>347.0</ele><time>2026-04-27T11:38:24Z</time></trkpt><trkpt lat="45.9895575311398" lon="10.336664679855474"><ele>348.0</ele><time>2026-04-27T11:38:25Z</time></trkpt><trkpt lat="45.98932901683728" lon="10.336579919109532"><ele>348.0</ele><time>2026-04-27T11:38:26Z</time></trkpt><trkpt lat="45.98910895343616" lon="10.336509257485169"><ele>348.0</ele><time>2026-04-27T11:38:27Z</time></trkpt><trkpt lat="45.98888900360867" lon="10.336441610713344"><ele>346.0</ele><time>2026-04-27T11:38:28Z</time></trkpt><trkpt lat="45.98866641227996" lon="10.336373800172579"><ele>344.0</ele><time>2026-04-27T11:38:29Z</time></trkpt><trkpt lat="45.98844275047241" lon="10.33630801949798"><ele>342.5</ele><time>2026-04-27T11:38:30Z</time></trkpt><trkpt lat="45.98821466043709" lon="10.336240936416331"><ele>341.0</ele><time>2026-04-27T11:38:31Z</time></trkpt><trkpt lat="45.987983929318496" lon="10.336173489131996"><ele>341.0</ele><time>2026-04-27T11:38:32Z</time></trkpt><trkpt lat="45.987755106760034" lon="10.336103208708101"><ele>341.0</ele><time>2026-04-27T11:38:33Z</time></trkpt><trkpt lat="45.98752806460411" lon="10.336032825229998"><ele>341.0</ele><time>2026-04-27T11:38:34Z</time></trkpt><trkpt lat="45.987300033872444" lon="10.335961718033477"><ele>341.0</ele><time>2026-04-27T11:38:35Z</time></trkpt><trkpt lat="45.98707548992259" lon="10.335885320152228"><ele>341.0</ele><time>2026-04-27T11:38:36Z</time></trkpt><trkpt lat="45.986844804535565" lon="10.335800795213228"><ele>341.0</ele><time>2026-04-27T11:38:37Z</time></trkpt><trkpt lat="45.98661551514186" lon="10.335707638430936"><ele>341.5</ele><time>2026-04-27T11:38:38Z</time></trkpt><trkpt lat="45.98640072507468" lon="10.335608496808982"><ele>342.0</ele><time>2026-04-27T11:38:39Z</time></trkpt><trkpt lat="45.98618528854656" lon="10.335499663980096"><ele>339.5</ele><time>2026-04-27T11:38:40Z</time></trkpt><trkpt lat="45.98597467054741" lon="10.335377486569321"><ele>337.0</ele><time>2026-04-27T11:38:41Z</time></trkpt><trkpt lat="45.985766181889296" lon="10.33523846436121"><ele>337.0</ele><time>2026-04-27T11:38:42Z</time></trkpt><trkpt lat="45.98555623350466" lon="10.33508611770607"><ele>337.0</ele><time>2026-04-27T11:38:43Z</time></trkpt><trkpt lat="45.98535596165435" lon="10.33492683764772"><ele>337.0</ele><time>2026-04-27T11:38:44Z</time></trkpt><trkpt lat="45.98516080699938" lon="10.334752668773493"><ele>337.0</ele><time>2026-04-27T11:38:45Z</time></trkpt><trkpt lat="45.984972639491126" lon="10.33457089022606"><ele>336.3333333333333</ele><time>2026-04-27T11:38:46Z</time></trkpt><trkpt lat="45.984791783337904" lon="10.334388787820345"><ele>335.6666666666667</ele><time>2026-04-27T11:38:47Z</time></trkpt><trkpt lat="45.98461180534694" lon="10.334189099167167"><ele>335.0</ele><time>2026-04-27T11:38:48Z</time></trkpt><trkpt lat="45.984441330620875" lon="10.33397573330314"><ele>336.5</ele><time>2026-04-27T11:38:49Z</time></trkpt><trkpt lat="45.98427119175896" lon="10.333750914759811"><ele>338.0</ele><time>2026-04-27T11:38:50Z</time></trkpt><trkpt lat="45.984105456753674" lon="10.333512679087828"><ele>338.0</ele><time>2026-04-27T11:38:51Z</time></trkpt><trkpt lat="45.98394075749602" lon="10.333267344122328"><ele>338.0</ele><time>2026-04-27T11:38:52Z</time></trkpt><trkpt lat="45.98378670878013" lon="10.333023668613114"><ele>336.5</ele><time>2026-04-27T11:38:53Z</time></trkpt><trkpt lat="45.983634999150624" lon="10.3327735567389"><ele>335.0</ele><time>2026-04-27T11:38:54Z</time></trkpt><trkpt lat="45.983483147613605" lon="10.332517762521126"><ele>336.5</ele><time>2026-04-27T11:38:55Z</time></trkpt><trkpt lat="45.98332485965522" lon="10.332246508540923"><ele>338.0</ele><time>2026-04-27T11:38:56Z</time></trkpt><trkpt lat="45.9831735451292" lon="10.331984785438252"><ele>338.0</ele><time>2026-04-27T11:38:57Z</time></trkpt><trkpt lat="45.9830125734012" lon="10.331742704288951"><ele>338.0</ele><time>2026-04-27T11:38:58Z</time></trkpt><trkpt lat="45.98287376928409" lon="10.331491143255553"><ele>335.5</ele><time>2026-04-27T11:38:59Z</time></trkpt><trkpt lat="45.982725883194185" lon="10.331232582799322"><ele>333.0</ele><time>2026-04-27T11:39:00Z</time></trkpt><trkpt lat="45.98258729237311" lon="10.330985310855027"><ele>333.0</ele><time>2026-04-27T11:39:01Z</time></trkpt><trkpt lat="45.982441471738774" lon="10.330735321302297"><ele>333.0</ele><time>2026-04-27T11:39:02Z</time></trkpt><trkpt lat="45.9822975347789" lon="10.330486245436072"><ele>333.0</ele><time>2026-04-27T11:39:03Z</time></trkpt><trkpt lat="45.98214805076498" lon="10.330234547709237"><ele>333.0</ele><time>2026-04-27T11:39:04Z</time></trkpt><trkpt lat="45.98200251812696" lon="10.32998657151817"><ele>333.0</ele><time>2026-04-27T11:39:05Z</time></trkpt><trkpt lat="45.981866188846794" lon="10.329745987737178"><ele>333.0</ele><time>2026-04-27T11:39:06Z</time></trkpt><trkpt lat="45.98172540776449" lon="10.329497819975392"><ele>333.0</ele><time>2026-04-27T11:39:07Z</time></trkpt><trkpt lat="45.98158370597883" lon="10.32925055276296"><ele>333.6666666666667</ele><time>2026-04-27T11:39:08Z</time></trkpt><trkpt lat="45.98145081241061" lon="10.329007714622723"><ele>334.33333333333337</ele><time>2026-04-27T11:39:09Z</time></trkpt><trkpt lat="45.98130606749387" lon="10.328752566858713"><ele>335.0</ele><time>2026-04-27T11:39:10Z</time></trkpt><trkpt lat="45.9811593708149" lon="10.328501471242795"><ele>335.0</ele><time>2026-04-27T11:39:11Z</time></trkpt><trkpt lat="45.981000283945626" lon="10.328248476534128"><ele>335.0</ele><time>2026-04-27T11:39:12Z</time></trkpt><trkpt lat="45.98085329026173" lon="10.328001055874724"><ele>336.0</ele><time>2026-04-27T11:39:13Z</time></trkpt><trkpt lat="45.98069862570975" lon="10.327750559101224"><ele>337.0</ele><time>2026-04-27T11:39:14Z</time></trkpt><trkpt lat="45.980547912157746" lon="10.327507953071533"><ele>337.0</ele><time>2026-04-27T11:39:15Z</time></trkpt><trkpt lat="45.98037416976479" lon="10.327247661357402"><ele>337.0</ele><time>2026-04-27T11:39:16Z</time></trkpt><trkpt lat="45.98019830569711" lon="10.326999611766151"><ele>336.0</ele><time>2026-04-27T11:39:17Z</time></trkpt><trkpt lat="45.98002328378822" lon="10.32677640384373"><ele>335.0</ele><time>2026-04-27T11:39:18Z</time></trkpt><trkpt lat="45.97984051271158" lon="10.326566140150346"><ele>332.0</ele><time>2026-04-27T11:39:19Z</time></trkpt><trkpt lat="45.979646718672015" lon="10.326363902815634"><ele>329.0</ele><time>2026-04-27T11:39:20Z</time></trkpt><trkpt lat="45.979450523357514" lon="10.326163750542658"><ele>329.0</ele><time>2026-04-27T11:39:21Z</time></trkpt><trkpt lat="45.97925060612599" lon="10.325980223017773"><ele>329.0</ele><time>2026-04-27T11:39:22Z</time></trkpt><trkpt lat="45.97904358004318" lon="10.325813375872636"><ele>328.33333333333337</ele><time>2026-04-27T11:39:23Z</time></trkpt><trkpt lat="45.97887376336466" lon="10.325653142341826"><ele>327.6666666666667</ele><time>2026-04-27T11:39:24Z</time></trkpt><trkpt lat="45.97866623419724" lon="10.32549835200179"><ele>327.0</ele><time>2026-04-27T11:39:25Z</time></trkpt><trkpt lat="45.97847380022262" lon="10.325357323366065"><ele>328.0</ele><time>2026-04-27T11:39:26Z</time></trkpt><trkpt lat="45.978270209016166" lon="10.325221097157325"><ele>329.0</ele><time>2026-04-27T11:39:27Z</time></trkpt><trkpt lat="45.97805209273928" lon="10.325091318665114"><ele>329.0</ele><time>2026-04-27T11:39:28Z</time></trkpt><trkpt lat="45.977848591853636" lon="10.324958146437147"><ele>329.0</ele><time>2026-04-27T11:39:29Z</time></trkpt><trkpt lat="45.97764288082627" lon="10.3248273193659"><ele>329.0</ele><time>2026-04-27T11:39:30Z</time></trkpt><trkpt lat="45.97742458157797" lon="10.324685025554158"><ele>325.5</ele><time>2026-04-27T11:39:31Z</time></trkpt><trkpt lat="45.977208956789404" lon="10.324541727540867"><ele>322.0</ele><time>2026-04-27T11:39:32Z</time></trkpt><trkpt lat="45.976989275323035" lon="10.324399155954318"><ele>322.0</ele><time>2026-04-27T11:39:33Z</time></trkpt><trkpt lat="45.97677628137995" lon="10.324249305014368"><ele>322.0</ele><time>2026-04-27T11:39:34Z</time></trkpt><trkpt lat="45.97656300103607" lon="10.324107990655557"><ele>323.0</ele><time>2026-04-27T11:39:35Z</time></trkpt><trkpt lat="45.97634909951805" lon="10.32396540530761"><ele>324.0</ele><time>2026-04-27T11:39:36Z</time></trkpt><trkpt lat="45.97612801752016" lon="10.323821102947903"><ele>323.0</ele><time>2026-04-27T11:39:37Z</time></trkpt><trkpt lat="45.97591277208045" lon="10.323677110529987"><ele>322.0</ele><time>2026-04-27T11:39:38Z</time></trkpt><trkpt lat="45.975693406309084" lon="10.323536229372442"><ele>322.0</ele><time>2026-04-27T11:39:39Z</time></trkpt><trkpt lat="45.97547519490247" lon="10.323397906937727"><ele>322.0</ele><time>2026-04-27T11:39:40Z</time></trkpt><trkpt lat="45.97525310516966" lon="10.323260176052207"><ele>322.0</ele><time>2026-04-27T11:39:41Z</time></trkpt><trkpt lat="45.975037793208564" lon="10.32311141555064"><ele>322.0</ele><time>2026-04-27T11:39:42Z</time></trkpt><trkpt lat="45.97482812935228" lon="10.322963873348748"><ele>320.0</ele><time>2026-04-27T11:39:43Z</time></trkpt><trkpt lat="45.974607908712635" lon="10.322824044195837"><ele>318.0</ele><time>2026-04-27T11:39:44Z</time></trkpt><trkpt lat="45.97439687232725" lon="10.322679636865736"><ele>318.5</ele><time>2026-04-27T11:39:45Z</time></trkpt><trkpt lat="45.97418540498513" lon="10.322544155251189"><ele>319.0</ele><time>2026-04-27T11:39:46Z</time></trkpt><trkpt lat="45.973966287246206" lon="10.32239958217397"><ele>319.0</ele><time>2026-04-27T11:39:47Z</time></trkpt><trkpt lat="45.97375446394006" lon="10.322262047145843"><ele>319.0</ele><time>2026-04-27T11:39:48Z</time></trkpt><trkpt lat="45.97354446923711" lon="10.322123048927747"><ele>318.0</ele><time>2026-04-27T11:39:49Z</time></trkpt><trkpt lat="45.97333496676391" lon="10.321985720317642"><ele>317.0</ele><time>2026-04-27T11:39:50Z</time></trkpt><trkpt lat="45.97312769610479" lon="10.321847827501792"><ele>317.0</ele><time>2026-04-27T11:39:51Z</time></trkpt><trkpt lat="45.97291998472311" lon="10.321706813071117"><ele>317.0</ele><time>2026-04-27T11:39:52Z</time></trkpt><trkpt lat="45.972709014690594" lon="10.321567361524778"><ele>318.5</ele><time>2026-04-27T11:39:53Z</time></trkpt><trkpt lat="45.97249256667492" lon="10.321429517419269"><ele>320.0</ele><time>2026-04-27T11:39:54Z</time></trkpt><trkpt lat="45.972285964672245" lon="10.32130053272176"><ele>316.5</ele><time>2026-04-27T11:39:55Z</time></trkpt><trkpt lat="45.97207379546896" lon="10.3211704965368"><ele>313.0</ele><time>2026-04-27T11:39:56Z</time></trkpt><trkpt lat="45.97185803448701" lon="10.32103199024673"><ele>315.0</ele><time>2026-04-27T11:39:57Z</time></trkpt><trkpt lat="45.971640334763755" lon="10.320880188573552"><ele>317.0</ele><time>2026-04-27T11:39:58Z</time></trkpt><trkpt lat="45.971423042908" lon="10.320733025702365"><ele>317.0</ele><time>2026-04-27T11:39:59Z</time></trkpt><trkpt lat="45.97120591013732" lon="10.320593350877736"><ele>317.0</ele><time>2026-04-27T11:40:00Z</time></trkpt><trkpt lat="45.97098994329638" lon="10.320459761203448"><ele>314.5</ele><time>2026-04-27T11:40:01Z</time></trkpt><trkpt lat="45.97078407269801" lon="10.320322796703742"><ele>312.0</ele><time>2026-04-27T11:40:02Z</time></trkpt><trkpt lat="45.97057824679757" lon="10.32018941825441"><ele>312.0</ele><time>2026-04-27T11:40:03Z</time></trkpt><trkpt lat="45.97037596424956" lon="10.320048896611443"><ele>312.0</ele><time>2026-04-27T11:40:04Z</time></trkpt><trkpt lat="45.970169553942725" lon="10.319903322038046"><ele>312.5</ele><time>2026-04-27T11:40:05Z</time></trkpt><trkpt lat="45.96996111071536" lon="10.319753889781358"><ele>313.0</ele><time>2026-04-27T11:40:06Z</time></trkpt><trkpt lat="45.969748310631715" lon="10.319600807331728"><ele>310.5</ele><time>2026-04-27T11:40:07Z</time></trkpt><trkpt lat="45.96953573769579" lon="10.31943764985095"><ele>308.0</ele><time>2026-04-27T11:40:08Z</time></trkpt><trkpt lat="45.96932974329851" lon="10.319264471391538"><ele>307.5</ele><time>2026-04-27T11:40:09Z</time></trkpt><trkpt lat="45.9691215611485" lon="10.319087173631704"><ele>307.0</ele><time>2026-04-27T11:40:10Z</time></trkpt><trkpt lat="45.9689161355715" lon="10.318904559774836"><ele>306.0</ele><time>2026-04-27T11:40:11Z</time></trkpt><trkpt lat="45.96873785962197" lon="10.318655827490165"><ele>305.0</ele><time>2026-04-27T11:40:12Z</time></trkpt><trkpt lat="45.96853527326803" lon="10.318453661068842"><ele>304.5</ele><time>2026-04-27T11:40:13Z</time></trkpt><trkpt lat="45.96833600804971" lon="10.31824526026239"><ele>304.0</ele><time>2026-04-27T11:40:14Z</time></trkpt><trkpt lat="45.968135335493585" lon="10.318027385242972"><ele>302.0</ele><time>2026-04-27T11:40:15Z</time></trkpt><trkpt lat="45.9679395719977" lon="10.317808777254587"><ele>300.0</ele><time>2026-04-27T11:40:16Z</time></trkpt><trkpt lat="45.96774047390762" lon="10.31757309236406"><ele>300.0</ele><time>2026-04-27T11:40:17Z</time></trkpt><trkpt lat="45.967548592085194" lon="10.31733630396768"><ele>300.0</ele><time>2026-04-27T11:40:18Z</time></trkpt><trkpt lat="45.96735690222238" lon="10.317088707187029"><ele>297.5</ele><time>2026-04-27T11:40:19Z</time></trkpt><trkpt lat="45.967174498112186" lon="10.316844281713587"><ele>295.0</ele><time>2026-04-27T11:40:20Z</time></trkpt><trkpt lat="45.967011118346235" lon="10.316614838009999"><ele>294.0</ele><time>2026-04-27T11:40:21Z</time></trkpt><trkpt lat="45.96684641598438" lon="10.316374169541236"><ele>293.0</ele><time>2026-04-27T11:40:22Z</time></trkpt><trkpt lat="45.96667223279397" lon="10.316113173604128"><ele>293.0</ele><time>2026-04-27T11:40:23Z</time></trkpt><trkpt lat="45.966506026106" lon="10.315849729565596"><ele>293.0</ele><time>2026-04-27T11:40:24Z</time></trkpt><trkpt lat="45.96634511435456" lon="10.31558729401552"><ele>293.0</ele><time>2026-04-27T11:40:25Z</time></trkpt><trkpt lat="45.966192748170535" lon="10.315325960876068"><ele>293.0</ele><time>2026-04-27T11:40:26Z</time></trkpt><trkpt lat="45.96603691696949" lon="10.315055614238611"><ele>293.0</ele><time>2026-04-27T11:40:27Z</time></trkpt><trkpt lat="45.96587053468377" lon="10.31479549351363"><ele>293.0</ele><time>2026-04-27T11:40:28Z</time></trkpt><trkpt lat="45.96571990701163" lon="10.314504722152886"><ele>292.0</ele><time>2026-04-27T11:40:29Z</time></trkpt><trkpt lat="45.96557242110105" lon="10.314193234523916"><ele>291.0</ele><time>2026-04-27T11:40:30Z</time></trkpt><trkpt lat="45.96543664010502" lon="10.313872594647844"><ele>290.5</ele><time>2026-04-27T11:40:31Z</time></trkpt><trkpt lat="45.96531348551303" lon="10.31354314643216"><ele>290.0</ele><time>2026-04-27T11:40:32Z</time></trkpt><trkpt lat="45.96519881668189" lon="10.31321277466978"><ele>290.0</ele><time>2026-04-27T11:40:33Z</time></trkpt><trkpt lat="45.96509846505244" lon="10.312890292113122"><ele>290.0</ele><time>2026-04-27T11:40:34Z</time></trkpt><trkpt lat="45.96500335709823" lon="10.312569592136793"><ele>290.0</ele><time>2026-04-27T11:40:35Z</time></trkpt><trkpt lat="45.96490642055397" lon="10.312259455744023"><ele>290.0</ele><time>2026-04-27T11:40:36Z</time></trkpt><trkpt lat="45.96479758542122" lon="10.311943619407943"><ele>290.0</ele><time>2026-04-27T11:40:37Z</time></trkpt><trkpt lat="45.964694885100585" lon="10.31162980066308"><ele>290.0</ele><time>2026-04-27T11:40:38Z</time></trkpt><trkpt lat="45.96458576975964" lon="10.31131772684768"><ele>290.5</ele><time>2026-04-27T11:40:39Z</time></trkpt><trkpt lat="45.96449399448059" lon="10.311015298835045"><ele>291.0</ele><time>2026-04-27T11:40:40Z</time></trkpt><trkpt lat="45.96438648913866" lon="10.310708647095202"><ele>291.0</ele><time>2026-04-27T11:40:41Z</time></trkpt><trkpt lat="45.964290293701836" lon="10.310407515563817"><ele>291.0</ele><time>2026-04-27T11:40:42Z</time></trkpt><trkpt lat="45.964205391117375" lon="10.310110072024637"><ele>291.5</ele><time>2026-04-27T11:40:43Z</time></trkpt><trkpt lat="45.964106083595475" lon="10.30980743691901"><ele>292.0</ele><time>2026-04-27T11:40:44Z</time></trkpt><trkpt lat="45.964008709272946" lon="10.3095109734922"><ele>292.0</ele><time>2026-04-27T11:40:45Z</time></trkpt><trkpt lat="45.96391803441267" lon="10.309214125234643"><ele>292.0</ele><time>2026-04-27T11:40:46Z</time></trkpt><trkpt lat="45.963822489106626" lon="10.30891984078395"><ele>291.3333333333333</ele><time>2026-04-27T11:40:47Z</time></trkpt><trkpt lat="45.963729797269394" lon="10.30863445722589"><ele>290.6666666666667</ele><time>2026-04-27T11:40:48Z</time></trkpt><trkpt lat="45.96363557002897" lon="10.308344676086989"><ele>290.0</ele><time>2026-04-27T11:40:49Z</time></trkpt><trkpt lat="45.963540162653906" lon="10.308047081876843"><ele>290.0</ele><time>2026-04-27T11:40:50Z</time></trkpt><trkpt lat="45.963442771908866" lon="10.307750922784825"><ele>290.0</ele><time>2026-04-27T11:40:51Z</time></trkpt><trkpt lat="45.963352148339446" lon="10.307460022752352"><ele>290.0</ele><time>2026-04-27T11:40:52Z</time></trkpt><trkpt lat="45.96325860241641" lon="10.30716557241896"><ele>290.0</ele><time>2026-04-27T11:40:53Z</time></trkpt><trkpt lat="45.96316436187698" lon="10.30687674127622"><ele>290.0</ele><time>2026-04-27T11:40:54Z</time></trkpt><trkpt lat="45.96306467515523" lon="10.306587028397693"><ele>290.0</ele><time>2026-04-27T11:40:55Z</time></trkpt><trkpt lat="45.96296331939167" lon="10.306287383449433"><ele>289.5</ele><time>2026-04-27T11:40:56Z</time></trkpt><trkpt lat="45.96286875531862" lon="10.3059820668252"><ele>289.0</ele><time>2026-04-27T11:40:57Z</time></trkpt><trkpt lat="45.96276550699827" lon="10.305668161037389"><ele>289.5</ele><time>2026-04-27T11:40:58Z</time></trkpt><trkpt lat="45.962675409236844" lon="10.305374449636071"><ele>290.0</ele><time>2026-04-27T11:40:59Z</time></trkpt><trkpt lat="45.9625738973795" lon="10.305062651864185"><ele>290.5</ele><time>2026-04-27T11:41:00Z</time></trkpt><trkpt lat="45.9624756126113" lon="10.304746553840056"><ele>291.0</ele><time>2026-04-27T11:41:01Z</time></trkpt><trkpt lat="45.96237064890992" lon="10.304428064963014"><ele>292.0</ele><time>2026-04-27T11:41:02Z</time></trkpt><trkpt lat="45.96226421594025" lon="10.304102600513033"><ele>293.0</ele><time>2026-04-27T11:41:03Z</time></trkpt><trkpt lat="45.962155629673816" lon="10.30377566108343"><ele>294.0</ele><time>2026-04-27T11:41:04Z</time></trkpt><trkpt lat="45.96206985236576" lon="10.303475786125055"><ele>295.0</ele><time>2026-04-27T11:41:05Z</time></trkpt><trkpt lat="45.961979769694246" lon="10.30319164171095"><ele>296.0</ele><time>2026-04-27T11:41:06Z</time></trkpt><trkpt lat="45.96189540416026" lon="10.302919905311702"><ele>305.6666666666667</ele><time>2026-04-27T11:41:07Z</time></trkpt><trkpt lat="45.96180414591743" lon="10.30264256476399"><ele>315.3333333333333</ele><time>2026-04-27T11:41:08Z</time></trkpt><trkpt lat="45.96171002217012" lon="10.302368092511696"><ele>325.0</ele><time>2026-04-27T11:41:09Z</time></trkpt><trkpt lat="45.96161779046936" lon="10.302087966792252"><ele>328.0</ele><time>2026-04-27T11:41:10Z</time></trkpt><trkpt lat="45.96152665413816" lon="10.30181474384753"><ele>331.0</ele><time>2026-04-27T11:41:11Z</time></trkpt><trkpt lat="45.96142914641869" lon="10.30153805691412"><ele>334.0</ele><time>2026-04-27T11:41:12Z</time></trkpt><trkpt lat="45.961320226734784" lon="10.301263016567301"><ele>347.3333333333333</ele><time>2026-04-27T11:41:13Z</time></trkpt><trkpt lat="45.96122275985045" lon="10.300994652789294"><ele>360.6666666666667</ele><time>2026-04-27T11:41:14Z</time></trkpt><trkpt lat="45.96112669742041" lon="10.300724890318168"><ele>374.0</ele><time>2026-04-27T11:41:15Z</time></trkpt><trkpt lat="45.96103694542603" lon="10.300469676325454"><ele>377.6666666666667</ele><time>2026-04-27T11:41:16Z</time></trkpt><trkpt lat="45.96095877276087" lon="10.300215267246363"><ele>381.33333333333337</ele><time>2026-04-27T11:41:17Z</time></trkpt><trkpt lat="45.96086657355323" lon="10.299947340465012"><ele>385.0</ele><time>2026-04-27T11:41:18Z</time></trkpt><trkpt lat="45.960751547518264" lon="10.299658086762856"><ele>385.0</ele><time>2026-04-27T11:41:19Z</time></trkpt><trkpt lat="45.960657254265556" lon="10.299389576895082"><ele>385.0</ele><time>2026-04-27T11:41:20Z</time></trkpt><trkpt lat="45.96025414865057" lon="10.298257632076956"><ele>319.0</ele><time>2026-04-27T11:41:37.566Z</time></trkpt><trkpt lat="45.95877512738539" lon="10.294057455308716"><ele>314.66666666666663</ele><time>2026-04-27T11:41:40Z</time></trkpt><trkpt lat="45.95864437395925" lon="10.293794294161204"><ele>310.3333333333333</ele><time>2026-04-27T11:41:41Z</time></trkpt><trkpt lat="45.95854965492601" lon="10.293536838528436"><ele>306.0</ele><time>2026-04-27T11:41:42Z</time></trkpt><trkpt lat="45.958414754285926" lon="10.293307551558922"><ele>300.0</ele><time>2026-04-27T11:41:43Z</time></trkpt><trkpt lat="45.95830934291072" lon="10.293077064968307"><ele>294.0</ele><time>2026-04-27T11:41:44Z</time></trkpt><trkpt lat="45.95819952270488" lon="10.292867802912314"><ele>288.0</ele><time>2026-04-27T11:41:45Z</time></trkpt><trkpt lat="45.958097996471956" lon="10.292649509714128"><ele>288.0</ele><time>2026-04-27T11:41:46Z</time></trkpt><trkpt lat="45.957992826130855" lon="10.29242394133851"><ele>288.0</ele><time>2026-04-27T11:41:47Z</time></trkpt><trkpt lat="45.957878857487955" lon="10.292196410233128"><ele>288.0</ele><time>2026-04-27T11:41:48Z</time></trkpt><trkpt lat="45.95775120604545" lon="10.291953367121645"><ele>287.3333333333333</ele><time>2026-04-27T11:41:49Z</time></trkpt><trkpt lat="45.95763468797451" lon="10.291718054176801"><ele>286.66666666666663</ele><time>2026-04-27T11:41:50Z</time></trkpt><trkpt lat="45.95750331676996" lon="10.291467112937244"><ele>286.0</ele><time>2026-04-27T11:41:51Z</time></trkpt><trkpt lat="45.957382658373206" lon="10.291233284488142"><ele>286.0</ele><time>2026-04-27T11:41:52Z</time></trkpt><trkpt lat="45.95726200388997" lon="10.291000750986177"><ele>286.0</ele><time>2026-04-27T11:41:53Z</time></trkpt><trkpt lat="45.957154735845315" lon="10.29078540698539"><ele>286.0</ele><time>2026-04-27T11:41:54Z</time></trkpt><trkpt lat="45.95704341777926" lon="10.290568844069815"><ele>286.66666666666663</ele><time>2026-04-27T11:41:55Z</time></trkpt><trkpt lat="45.956926617750334" lon="10.2903400381944"><ele>287.3333333333333</ele><time>2026-04-27T11:41:56Z</time></trkpt><trkpt lat="45.956811779610284" lon="10.290113151940243"><ele>288.0</ele><time>2026-04-27T11:41:57Z</time></trkpt><trkpt lat="45.956700648509845" lon="10.289892942663155"><ele>288.0</ele><time>2026-04-27T11:41:58Z</time></trkpt><trkpt lat="45.956585228085956" lon="10.289671497328282"><ele>288.0</ele><time>2026-04-27T11:41:59Z</time></trkpt><trkpt lat="45.9564699112627" lon="10.289452193478258"><ele>288.0</ele><time>2026-04-27T11:42:00Z</time></trkpt><trkpt lat="45.95635731980761" lon="10.289234236251618"><ele>288.0</ele><time>2026-04-27T11:42:01Z</time></trkpt><trkpt lat="45.95624827404378" lon="10.289021336107506"><ele>288.0</ele><time>2026-04-27T11:42:02Z</time></trkpt><trkpt lat="45.956128545562024" lon="10.288797956762934"><ele>288.0</ele><time>2026-04-27T11:42:03Z</time></trkpt><trkpt lat="45.95601544797087" lon="10.288579116776999"><ele>287.0</ele><time>2026-04-27T11:42:04Z</time></trkpt><trkpt lat="45.955895689803874" lon="10.288355215107812"><ele>286.0</ele><time>2026-04-27T11:42:05Z</time></trkpt><trkpt lat="45.95576767728387" lon="10.288131416857661"><ele>285.0</ele><time>2026-04-27T11:42:06Z</time></trkpt><trkpt lat="45.95563189593936" lon="10.287912111915393"><ele>288.6666666666667</ele><time>2026-04-27T11:42:07Z</time></trkpt><trkpt lat="45.95548687615176" lon="10.287695180320483"><ele>292.33333333333337</ele><time>2026-04-27T11:42:08Z</time></trkpt><trkpt lat="45.955343154144025" lon="10.287486110218985"><ele>296.0</ele><time>2026-04-27T11:42:09Z</time></trkpt><trkpt lat="45.95519480056157" lon="10.287291816298897"><ele>297.6666666666667</ele><time>2026-04-27T11:42:10Z</time></trkpt><trkpt lat="45.95504928003371" lon="10.287120779686997"><ele>299.3333333333333</ele><time>2026-04-27T11:42:11Z</time></trkpt><trkpt lat="45.95490273194667" lon="10.286956695313743"><ele>301.0</ele><time>2026-04-27T11:42:12Z</time></trkpt><trkpt lat="45.954745425410195" lon="10.28678851312787"><ele>298.3333333333333</ele><time>2026-04-27T11:42:13.001Z</time></trkpt><trkpt lat="45.954571992396474" lon="10.286619848525744"><ele>295.6666666666667</ele><time>2026-04-27T11:42:14Z</time></trkpt><trkpt lat="45.954392492531014" lon="10.286461217330782"><ele>293.0</ele><time>2026-04-27T11:42:14.999Z</time></trkpt><trkpt lat="45.95420768372638" lon="10.286305072556392"><ele>280.0</ele><time>2026-04-27T11:42:15.999Z</time></trkpt><trkpt lat="45.95433778721711" lon="10.285580117540471"><ele>283.0</ele><time>2026-04-27T11:42:17.144Z</time></trkpt><trkpt lat="45.94160117972549" lon="10.281692065806173"><ele>283.0</ele><time>2026-04-27T11:43:22.999Z</time></trkpt><trkpt lat="45.941418650692164" lon="10.281518982619543"><ele>283.0</ele><time>2026-04-27T11:43:23.999Z</time></trkpt><trkpt lat="45.94135374613065" lon="10.281415320877223"><ele>283.0</ele><time>2026-04-27T11:43:24.999Z</time></trkpt><trkpt lat="45.941208910596266" lon="10.281239592995467"><ele>281.3333333333333</ele><time>2026-04-27T11:43:25.999Z</time></trkpt><trkpt lat="45.94107321502948" lon="10.281069101336383"><ele>279.6666666666667</ele><time>2026-04-27T11:43:26.999Z</time></trkpt><trkpt lat="45.940940508008474" lon="10.280869958494192"><ele>278.0</ele><time>2026-04-27T11:43:27.999Z</time></trkpt><trkpt lat="45.940823970944564" lon="10.2806480104334"><ele>277.0</ele><time>2026-04-27T11:43:28.999Z</time></trkpt><trkpt lat="45.94070290106653" lon="10.280388511704569"><ele>276.0</ele><time>2026-04-27T11:43:29.999Z</time></trkpt><trkpt lat="45.940595959113736" lon="10.280134079206267"><ele>275.0</ele><time>2026-04-27T11:43:30.999Z</time></trkpt><trkpt lat="45.94050382183372" lon="10.279865340138388"><ele>273.6666666666667</ele><time>2026-04-27T11:43:31.999Z</time></trkpt><trkpt lat="45.94040858153124" lon="10.279584869803852"><ele>272.3333333333333</ele><time>2026-04-27T11:43:32.999Z</time></trkpt><trkpt lat="45.94030805078586" lon="10.279291957597819"><ele>271.0</ele><time>2026-04-27T11:43:33.999Z</time></trkpt><trkpt lat="45.94021422614278" lon="10.278990537663773"><ele>270.5</ele><time>2026-04-27T11:43:34.999Z</time></trkpt><trkpt lat="45.94010464198213" lon="10.27864979189579"><ele>270.0</ele><time>2026-04-27T11:43:35.999Z</time></trkpt><trkpt lat="45.93998816360089" lon="10.278299080340291"><ele>269.0</ele><time>2026-04-27T11:43:36.999Z</time></trkpt><trkpt lat="45.93986884676522" lon="10.277929982952493"><ele>268.0</ele><time>2026-04-27T11:43:37.999Z</time></trkpt><trkpt lat="45.93975966158805" lon="10.277552961640756"><ele>268.5</ele><time>2026-04-27T11:43:38.999Z</time></trkpt><trkpt lat="45.939651128393194" lon="10.27717652897852"><ele>269.0</ele><time>2026-04-27T11:43:39.999Z</time></trkpt><trkpt lat="45.9395473263766" lon="10.27680933438018"><ele>269.0</ele><time>2026-04-27T11:43:40.999Z</time></trkpt><trkpt lat="45.939455579684456" lon="10.276440739333362"><ele>269.0</ele><time>2026-04-27T11:43:41.999Z</time></trkpt><trkpt lat="45.93934508102714" lon="10.276082704731461"><ele>268.5</ele><time>2026-04-27T11:43:42.999Z</time></trkpt><trkpt lat="45.93922865839719" lon="10.275732730850716"><ele>268.0</ele><time>2026-04-27T11:43:43.999Z</time></trkpt><trkpt lat="45.939116603991415" lon="10.275374611755714"><ele>266.5</ele><time>2026-04-27T11:43:44.999Z</time></trkpt><trkpt lat="45.93900870721612" lon="10.27501426031908"><ele>265.0</ele><time>2026-04-27T11:43:45.999Z</time></trkpt><trkpt lat="45.93890255239514" lon="10.274658341762208"><ele>265.0</ele><time>2026-04-27T11:43:46.999Z</time></trkpt><trkpt lat="45.93881441186164" lon="10.274347436939205"><ele>265.0</ele><time>2026-04-27T11:43:47.999Z</time></trkpt><trkpt lat="45.93872883175984" lon="10.274045917546228"><ele>265.3333333333333</ele><time>2026-04-27T11:43:48.999Z</time></trkpt><trkpt lat="45.9386570756411" lon="10.273780749741675"><ele>265.6666666666667</ele><time>2026-04-27T11:43:49.999Z</time></trkpt><trkpt lat="45.93858783013932" lon="10.273526319172895"><ele>266.0</ele><time>2026-04-27T11:43:50.999Z</time></trkpt><trkpt lat="45.938517205139206" lon="10.273266410236404"><ele>266.0</ele><time>2026-04-27T11:43:51.999Z</time></trkpt><trkpt lat="45.93843269566013" lon="10.272980552029914"><ele>266.0</ele><time>2026-04-27T11:43:52.999Z</time></trkpt><trkpt lat="45.93834206301459" lon="10.272680991359243"><ele>266.0</ele><time>2026-04-27T11:43:53.999Z</time></trkpt><trkpt lat="45.93826671089708" lon="10.272414756030587"><ele>265.0</ele><time>2026-04-27T11:43:54.999Z</time></trkpt><trkpt lat="45.938193021928555" lon="10.272147059665125"><ele>264.0</ele><time>2026-04-27T11:43:55.999Z</time></trkpt><trkpt lat="45.93811506962523" lon="10.271876798793658"><ele>263.0</ele><time>2026-04-27T11:43:56.999Z</time></trkpt><trkpt lat="45.93803634221718" lon="10.271617357217087"><ele>262.6666666666667</ele><time>2026-04-27T11:43:57.999Z</time></trkpt><trkpt lat="45.93796965544766" lon="10.271359093621212"><ele>262.3333333333333</ele><time>2026-04-27T11:43:58.999Z</time></trkpt><trkpt lat="45.937882851544025" lon="10.271087691114431"><ele>262.0</ele><time>2026-04-27T11:43:59.999Z</time></trkpt><trkpt lat="45.9377994793758" lon="10.270814177188118"><ele>261.66666666666663</ele><time>2026-04-27T11:44:00.999Z</time></trkpt><trkpt lat="45.93771318564576" lon="10.270533519485797"><ele>261.3333333333333</ele><time>2026-04-27T11:44:01.999Z</time></trkpt><trkpt lat="45.937619250383385" lon="10.270237551785378"><ele>261.0</ele><time>2026-04-27T11:44:02.999Z</time></trkpt><trkpt lat="45.93751718658174" lon="10.26992051416274"><ele>262.0</ele><time>2026-04-27T11:44:03.999Z</time></trkpt><trkpt lat="45.937414448937886" lon="10.269590155770308"><ele>263.0</ele><time>2026-04-27T11:44:04.999Z</time></trkpt><trkpt lat="45.93731801515044" lon="10.269255544978876"><ele>263.0</ele><time>2026-04-27T11:44:05.999Z</time></trkpt><trkpt lat="45.937227289022964" lon="10.26893558020089"><ele>263.0</ele><time>2026-04-27T11:44:06.999Z</time></trkpt><trkpt lat="45.93714971954171" lon="10.268627041653358"><ele>263.0</ele><time>2026-04-27T11:44:07.999Z</time></trkpt><trkpt lat="45.93705459675269" lon="10.268302033153327"><ele>263.0</ele><time>2026-04-27T11:44:08.999Z</time></trkpt><trkpt lat="45.9369590881438" lon="10.267973034083562"><ele>262.0</ele><time>2026-04-27T11:44:09.999Z</time></trkpt><trkpt lat="45.93686341019359" lon="10.267651314415737"><ele>261.0</ele><time>2026-04-27T11:44:10.999Z</time></trkpt><trkpt lat="45.936775868257484" lon="10.267343480573661"><ele>261.0</ele><time>2026-04-27T11:44:11.999Z</time></trkpt><trkpt lat="45.93668751181711" lon="10.267045852043758"><ele>261.0</ele><time>2026-04-27T11:44:12.999Z</time></trkpt><trkpt lat="45.93659898959013" lon="10.266749860300303"><ele>261.0</ele><time>2026-04-27T11:44:13.999Z</time></trkpt><trkpt lat="45.93650332196272" lon="10.266449261137302"><ele>260.5</ele><time>2026-04-27T11:44:14.999Z</time></trkpt><trkpt lat="45.93640844815693" lon="10.266155094814897"><ele>260.0</ele><time>2026-04-27T11:44:15.999Z</time></trkpt><trkpt lat="45.93631529209209" lon="10.265855536670296"><ele>259.5</ele><time>2026-04-27T11:44:16.999Z</time></trkpt><trkpt lat="45.93622227712318" lon="10.265565502878065"><ele>259.0</ele><time>2026-04-27T11:44:17.999Z</time></trkpt><trkpt lat="45.9361342563501" lon="10.265258154231693"><ele>259.0</ele><time>2026-04-27T11:44:18.999Z</time></trkpt><trkpt lat="45.93604111421057" lon="10.264947424610588"><ele>259.0</ele><time>2026-04-27T11:44:19.999Z</time></trkpt><trkpt lat="45.935942233528294" lon="10.26462424851944"><ele>259.0</ele><time>2026-04-27T11:44:20.999Z</time></trkpt><trkpt lat="45.93584968746039" lon="10.26432092331363"><ele>259.0</ele><time>2026-04-27T11:44:21.999Z</time></trkpt><trkpt lat="45.935754331405036" lon="10.264006875223235"><ele>257.5</ele><time>2026-04-27T11:44:22.999Z</time></trkpt><trkpt lat="45.935656263404866" lon="10.26368905911509"><ele>256.0</ele><time>2026-04-27T11:44:23.999Z</time></trkpt><trkpt lat="45.93556134872475" lon="10.263379737627734"><ele>257.0</ele><time>2026-04-27T11:44:24.999Z</time></trkpt><trkpt lat="45.93546462312219" lon="10.263071886314604"><ele>258.0</ele><time>2026-04-27T11:44:25.999Z</time></trkpt><trkpt lat="45.93536219524314" lon="10.262760548552418"><ele>258.0</ele><time>2026-04-27T11:44:26.999Z</time></trkpt><trkpt lat="45.93526970266492" lon="10.262452767514295"><ele>258.0</ele><time>2026-04-27T11:44:27.999Z</time></trkpt><trkpt lat="45.935179151524686" lon="10.262151073219329"><ele>258.0</ele><time>2026-04-27T11:44:28.999Z</time></trkpt><trkpt lat="45.93508547070978" lon="10.261848015892042"><ele>258.0</ele><time>2026-04-27T11:44:29.999Z</time></trkpt><trkpt lat="45.934993617812" lon="10.261551566816594"><ele>257.0</ele><time>2026-04-27T11:44:30.999Z</time></trkpt><trkpt lat="45.9349025061415" lon="10.26125311523726"><ele>256.0</ele><time>2026-04-27T11:44:31.999Z</time></trkpt><trkpt lat="45.93481080903453" lon="10.260955557421386"><ele>256.0</ele><time>2026-04-27T11:44:32.999Z</time></trkpt><trkpt lat="45.93472283623568" lon="10.260666102421496"><ele>256.0</ele><time>2026-04-27T11:44:33.999Z</time></trkpt><trkpt lat="45.93463952784909" lon="10.260378554508018"><ele>256.0</ele><time>2026-04-27T11:44:34.999Z</time></trkpt><trkpt lat="45.93455501664366" lon="10.26009707845821"><ele>256.0</ele><time>2026-04-27T11:44:35.999Z</time></trkpt><trkpt lat="45.934467904177495" lon="10.259809249535362"><ele>256.0</ele><time>2026-04-27T11:44:36.999Z</time></trkpt><trkpt lat="45.934374272852104" lon="10.259511541411452"><ele>256.0</ele><time>2026-04-27T11:44:37.999Z</time></trkpt><trkpt lat="45.93428650082786" lon="10.259219831045353"><ele>255.33333333333331</ele><time>2026-04-27T11:44:38.999Z</time></trkpt><trkpt lat="45.93421092931843" lon="10.258938890421872"><ele>254.66666666666669</ele><time>2026-04-27T11:44:39.999Z</time></trkpt><trkpt lat="45.93412664524959" lon="10.258645780758616"><ele>254.0</ele><time>2026-04-27T11:44:40.999Z</time></trkpt><trkpt lat="45.93404305234621" lon="10.258362139718228"><ele>254.33333333333334</ele><time>2026-04-27T11:44:41.999Z</time></trkpt><trkpt lat="45.93395564135081" lon="10.258069521854914"><ele>254.66666666666669</ele><time>2026-04-27T11:44:42.999Z</time></trkpt><trkpt lat="45.933867120434705" lon="10.257773988668989"><ele>255.0</ele><time>2026-04-27T11:44:43.999Z</time></trkpt><trkpt lat="45.933780834107566" lon="10.257486503787193"><ele>255.0</ele><time>2026-04-27T11:44:44.999Z</time></trkpt><trkpt lat="45.93369434015554" lon="10.257203638184043"><ele>255.0</ele><time>2026-04-27T11:44:45.999Z</time></trkpt><trkpt lat="45.93361234609757" lon="10.256930336051612"><ele>255.0</ele><time>2026-04-27T11:44:46.999Z</time></trkpt><trkpt lat="45.93352658448016" lon="10.25666013896765"><ele>254.66666666666669</ele><time>2026-04-27T11:44:47.999Z</time></trkpt><trkpt lat="45.93343526087504" lon="10.256379153059264"><ele>254.33333333333334</ele><time>2026-04-27T11:44:48.999Z</time></trkpt><trkpt lat="45.93333791182505" lon="10.256097668980702"><ele>254.0</ele><time>2026-04-27T11:44:49.999Z</time></trkpt><trkpt lat="45.9332415718837" lon="10.255819671919506"><ele>253.66666666666669</ele><time>2026-04-27T11:44:50.999Z</time></trkpt><trkpt lat="45.933142794548026" lon="10.25555101270095"><ele>253.33333333333331</ele><time>2026-04-27T11:44:51.999Z</time></trkpt><trkpt lat="45.93303099717598" lon="10.255269060959995"><ele>253.0</ele><time>2026-04-27T11:44:52.999Z</time></trkpt><trkpt lat="45.9329223382731" lon="10.254988792833482"><ele>253.0</ele><time>2026-04-27T11:44:53.999Z</time></trkpt><trkpt lat="45.93281082421377" lon="10.254709109702834"><ele>253.0</ele><time>2026-04-27T11:44:54.999Z</time></trkpt><trkpt lat="45.93268970753115" lon="10.254424575329677"><ele>253.0</ele><time>2026-04-27T11:44:55.999Z</time></trkpt><trkpt lat="45.93257510027595" lon="10.254142887360285"><ele>253.0</ele><time>2026-04-27T11:44:56.999Z</time></trkpt><trkpt lat="45.93245876394183" lon="10.253858876388222"><ele>253.5</ele><time>2026-04-27T11:44:57.999Z</time></trkpt><trkpt lat="45.932349446473296" lon="10.253580428666808"><ele>254.0</ele><time>2026-04-27T11:44:58.999Z</time></trkpt><trkpt lat="45.93223000495377" lon="10.253292640925677"><ele>252.0</ele><time>2026-04-27T11:44:59.999Z</time></trkpt><trkpt lat="45.9321114778973" lon="10.253012520867545"><ele>250.0</ele><time>2026-04-27T11:45:00.999Z</time></trkpt><trkpt lat="45.93199376311109" lon="10.252729153938681"><ele>250.0</ele><time>2026-04-27T11:45:01.999Z</time></trkpt><trkpt lat="45.93188262493927" lon="10.252449161128927"><ele>250.0</ele><time>2026-04-27T11:45:02.999Z</time></trkpt><trkpt lat="45.931778651819805" lon="10.252179892629767"><ele>250.0</ele><time>2026-04-27T11:45:03.999Z</time></trkpt><trkpt lat="45.931660223590896" lon="10.251896775294483"><ele>252.0</ele><time>2026-04-27T11:45:04.999Z</time></trkpt><trkpt lat="45.931535503961534" lon="10.251602195090644"><ele>254.0</ele><time>2026-04-27T11:45:05.999Z</time></trkpt><trkpt lat="45.93140880705904" lon="10.251300349138567"><ele>254.0</ele><time>2026-04-27T11:45:06.999Z</time></trkpt><trkpt lat="45.93129230176166" lon="10.251009547802186"><ele>254.0</ele><time>2026-04-27T11:45:07.999Z</time></trkpt><trkpt lat="45.93116839059013" lon="10.250715498581854"><ele>252.5</ele><time>2026-04-27T11:45:08.999Z</time></trkpt><trkpt lat="45.93105619720555" lon="10.250430481463793"><ele>251.0</ele><time>2026-04-27T11:45:09.999Z</time></trkpt><trkpt lat="45.930942455541725" lon="10.250149651599576"><ele>252.66666666666669</ele><time>2026-04-27T11:45:10.999Z</time></trkpt><trkpt lat="45.93082880572819" lon="10.249873344392572"><ele>254.33333333333331</ele><time>2026-04-27T11:45:11.999Z</time></trkpt><trkpt lat="45.930717928282505" lon="10.249605990920802"><ele>256.0</ele><time>2026-04-27T11:45:12.999Z</time></trkpt><trkpt lat="45.93060540415596" lon="10.249329838492974"><ele>256.0</ele><time>2026-04-27T11:45:13.999Z</time></trkpt><trkpt lat="45.93049791993144" lon="10.249051303175014"><ele>256.0</ele><time>2026-04-27T11:45:14.999Z</time></trkpt><trkpt lat="45.930382684349496" lon="10.248765416543138"><ele>256.0</ele><time>2026-04-27T11:45:15.999Z</time></trkpt><trkpt lat="45.9302732132394" lon="10.24848581876728"><ele>256.0</ele><time>2026-04-27T11:45:16.999Z</time></trkpt><trkpt lat="45.930154783447" lon="10.248202723660599"><ele>256.5</ele><time>2026-04-27T11:45:17.999Z</time></trkpt><trkpt lat="45.93003438066958" lon="10.247922265699339"><ele>257.0</ele><time>2026-04-27T11:45:18.999Z</time></trkpt><trkpt lat="45.92991387094106" lon="10.247640794209056"><ele>257.0</ele><time>2026-04-27T11:45:19.999Z</time></trkpt><trkpt lat="45.92979665717321" lon="10.24735742293194"><ele>257.0</ele><time>2026-04-27T11:45:20.999Z</time></trkpt><trkpt lat="45.9296818892056" lon="10.247086570699018"><ele>256.6666666666667</ele><time>2026-04-27T11:45:21.999Z</time></trkpt><trkpt lat="45.92957015307206" lon="10.246821565674884"><ele>256.3333333333333</ele><time>2026-04-27T11:45:22.999Z</time></trkpt><trkpt lat="45.92944877834863" lon="10.246560249495566"><ele>256.0</ele><time>2026-04-27T11:45:23.999Z</time></trkpt><trkpt lat="45.929320926840546" lon="10.246307586534865"><ele>256.0</ele><time>2026-04-27T11:45:24.999Z</time></trkpt><trkpt lat="45.92919084158699" lon="10.246070944359257"><ele>256.0</ele><time>2026-04-27T11:45:25.999Z</time></trkpt><trkpt lat="45.929052467681686" lon="10.245831263820355"><ele>256.0</ele><time>2026-04-27T11:45:26.999Z</time></trkpt><trkpt lat="45.928904320012954" lon="10.245595262895355"><ele>256.0</ele><time>2026-04-27T11:45:27.999Z</time></trkpt><trkpt lat="45.92875428497696" lon="10.245381909014311"><ele>256.0</ele><time>2026-04-27T11:45:28.999Z</time></trkpt><trkpt lat="45.928587513583125" lon="10.245171072435907"><ele>256.0</ele><time>2026-04-27T11:45:29.999Z</time></trkpt><trkpt lat="45.92841892485983" lon="10.244979249302338"><ele>255.33333333333331</ele><time>2026-04-27T11:45:30.999Z</time></trkpt><trkpt lat="45.92824677468604" lon="10.244789045961713"><ele>254.66666666666669</ele><time>2026-04-27T11:45:31.999Z</time></trkpt><trkpt lat="45.9280637418465" lon="10.244594166802912"><ele>254.0</ele><time>2026-04-27T11:45:32.999Z</time></trkpt><trkpt lat="45.92788125079503" lon="10.244411893550813"><ele>254.0</ele><time>2026-04-27T11:45:33.999Z</time></trkpt><trkpt lat="45.92768049098684" lon="10.244232938283739"><ele>254.0</ele><time>2026-04-27T11:45:34.999Z</time></trkpt><trkpt lat="45.92748007756828" lon="10.244065573106347"><ele>254.0</ele><time>2026-04-27T11:45:35.999Z</time></trkpt><trkpt lat="45.927276459267844" lon="10.243902011132274"><ele>254.0</ele><time>2026-04-27T11:45:36.999Z</time></trkpt><trkpt lat="45.92707331583942" lon="10.24373887403506"><ele>254.0</ele><time>2026-04-27T11:45:37.999Z</time></trkpt><trkpt lat="45.92686715209781" lon="10.243572953204335"><ele>254.0</ele><time>2026-04-27T11:45:38.999Z</time></trkpt><trkpt lat="45.92666025940951" lon="10.243406249921938"><ele>254.5</ele><time>2026-04-27T11:45:39.999Z</time></trkpt><trkpt lat="45.926454762630016" lon="10.24324475292182"><ele>255.0</ele><time>2026-04-27T11:45:40.999Z</time></trkpt><trkpt lat="45.926248480004254" lon="10.243080474720744"><ele>254.0</ele><time>2026-04-27T11:45:41.999Z</time></trkpt><trkpt lat="45.92604672174219" lon="10.2429178441968"><ele>253.0</ele><time>2026-04-27T11:45:42.999Z</time></trkpt><trkpt lat="45.92583832691807" lon="10.242754707342213"><ele>253.0</ele><time>2026-04-27T11:45:43.999Z</time></trkpt><trkpt lat="45.92563512626051" lon="10.242595479846587"><ele>253.0</ele><time>2026-04-27T11:45:44.999Z</time></trkpt><trkpt lat="45.92542953803025" lon="10.242434576405252"><ele>252.0</ele><time>2026-04-27T11:45:45.999Z</time></trkpt><trkpt lat="45.92522366321542" lon="10.242279833441044"><ele>251.0</ele><time>2026-04-27T11:45:46.999Z</time></trkpt><trkpt lat="45.92501385568991" lon="10.242122963727558"><ele>251.0</ele><time>2026-04-27T11:45:47.999Z</time></trkpt><trkpt lat="45.92480522560272" lon="10.241958621330854"><ele>251.0</ele><time>2026-04-27T11:45:48.999Z</time></trkpt><trkpt lat="45.9245972668483" lon="10.241793776413758"><ele>251.0</ele><time>2026-04-27T11:45:49.999Z</time></trkpt><trkpt lat="45.924394130911146" lon="10.241625614854748"><ele>251.0</ele><time>2026-04-27T11:45:50.999Z</time></trkpt><trkpt lat="45.92420169217209" lon="10.241427763318987"><ele>250.5</ele><time>2026-04-27T11:45:51.999Z</time></trkpt><trkpt lat="45.92400171690973" lon="10.241264409500051"><ele>250.0</ele><time>2026-04-27T11:45:52.999Z</time></trkpt><trkpt lat="45.92379608130258" lon="10.241097780262594"><ele>250.0</ele><time>2026-04-27T11:45:53.999Z</time></trkpt><trkpt lat="45.92359276629222" lon="10.240932106437926"><ele>250.0</ele><time>2026-04-27T11:45:54.999Z</time></trkpt><trkpt lat="45.92339413186805" lon="10.240771294549537"><ele>250.0</ele><time>2026-04-27T11:45:55.999Z</time></trkpt><trkpt lat="45.92319140796641" lon="10.240607090233473"><ele>250.0</ele><time>2026-04-27T11:45:56.999Z</time></trkpt><trkpt lat="45.92299402208948" lon="10.24044702270402"><ele>250.0</ele><time>2026-04-27T11:45:57.999Z</time></trkpt><trkpt lat="45.92278946319518" lon="10.240282012528551"><ele>250.0</ele><time>2026-04-27T11:45:58.999Z</time></trkpt><trkpt lat="45.92259009060856" lon="10.2401205125376"><ele>249.5</ele><time>2026-04-27T11:45:59.999Z</time></trkpt><trkpt lat="45.922387850678604" lon="10.239956189777365"><ele>249.0</ele><time>2026-04-27T11:46:00.999Z</time></trkpt><trkpt lat="45.92218959736189" lon="10.239790373275788"><ele>248.0</ele><time>2026-04-27T11:46:01.999Z</time></trkpt><trkpt lat="45.92198796383813" lon="10.239614191229583"><ele>247.0</ele><time>2026-04-27T11:46:02.999Z</time></trkpt><trkpt lat="45.92178563760794" lon="10.239429142386756"><ele>248.0</ele><time>2026-04-27T11:46:03.999Z</time></trkpt><trkpt lat="45.92158513338083" lon="10.23923465837778"><ele>249.0</ele><time>2026-04-27T11:46:04.999Z</time></trkpt><trkpt lat="45.921395952758104" lon="10.239043764934936"><ele>248.5</ele><time>2026-04-27T11:46:05.999Z</time></trkpt><trkpt lat="45.92120088792662" lon="10.238845292232511"><ele>248.0</ele><time>2026-04-27T11:46:06.999Z</time></trkpt><trkpt lat="45.92100280318096" lon="10.238643355989627"><ele>249.0</ele><time>2026-04-27T11:46:07.999Z</time></trkpt><trkpt lat="45.92081344535391" lon="10.238450886964225"><ele>250.0</ele><time>2026-04-27T11:46:08.999Z</time></trkpt><trkpt lat="45.920622046105066" lon="10.238255413838885"><ele>249.0</ele><time>2026-04-27T11:46:09.999Z</time></trkpt><trkpt lat="45.920426089700605" lon="10.23805412706654"><ele>248.0</ele><time>2026-04-27T11:46:10.999Z</time></trkpt><trkpt lat="45.92022474803876" lon="10.2378688839984"><ele>248.0</ele><time>2026-04-27T11:46:11.999Z</time></trkpt><trkpt lat="45.92003815858935" lon="10.237672879964904"><ele>248.0</ele><time>2026-04-27T11:46:12.999Z</time></trkpt><trkpt lat="45.91985021927224" lon="10.237468237725551"><ele>247.5</ele><time>2026-04-27T11:46:13.999Z</time></trkpt><trkpt lat="45.919660787242364" lon="10.23726775026308"><ele>247.0</ele><time>2026-04-27T11:46:14.999Z</time></trkpt><trkpt lat="45.919460206155115" lon="10.237072408731226"><ele>247.0</ele><time>2026-04-27T11:46:15.999Z</time></trkpt><trkpt lat="45.91925193756168" lon="10.236859646028002"><ele>247.0</ele><time>2026-04-27T11:46:16.999Z</time></trkpt><trkpt lat="45.91905527901874" lon="10.236657608703691"><ele>246.0</ele><time>2026-04-27T11:46:17.999Z</time></trkpt><trkpt lat="45.918857551606294" lon="10.236464815851678"><ele>245.0</ele><time>2026-04-27T11:46:18.999Z</time></trkpt><trkpt lat="45.91867527059171" lon="10.236247310011256"><ele>245.0</ele><time>2026-04-27T11:46:19.999Z</time></trkpt><trkpt lat="45.91847353944353" lon="10.236038769469486"><ele>245.0</ele><time>2026-04-27T11:46:20.999Z</time></trkpt><trkpt lat="45.918270798633955" lon="10.235829185178236"><ele>245.0</ele><time>2026-04-27T11:46:21.999Z</time></trkpt><trkpt lat="45.91808019791542" lon="10.235632150710169"><ele>245.0</ele><time>2026-04-27T11:46:22.999Z</time></trkpt><trkpt lat="45.917872779271704" lon="10.235442838494006"><ele>245.0</ele><time>2026-04-27T11:46:23.999Z</time></trkpt><trkpt lat="45.917688916222" lon="10.235227663139725"><ele>245.0</ele><time>2026-04-27T11:46:24.999Z</time></trkpt><trkpt lat="45.917491203696045" lon="10.235023276934657"><ele>244.0</ele><time>2026-04-27T11:46:25.999Z</time></trkpt><trkpt lat="45.91729351287432" lon="10.234818912882206"><ele>243.0</ele><time>2026-04-27T11:46:26.999Z</time></trkpt><trkpt lat="45.91710035696402" lon="10.23461981765504"><ele>242.0</ele><time>2026-04-27T11:46:27.999Z</time></trkpt><trkpt lat="45.91690408722007" lon="10.234418008663708"><ele>241.0</ele><time>2026-04-27T11:46:28.999Z</time></trkpt><trkpt lat="45.91671145576858" lon="10.234219940601905"><ele>241.0</ele><time>2026-04-27T11:46:29.999Z</time></trkpt><trkpt lat="45.91651785049327" lon="10.234020700609507"><ele>241.0</ele><time>2026-04-27T11:46:30.999Z</time></trkpt><trkpt lat="45.91632575212185" lon="10.233822979614231"><ele>241.5</ele><time>2026-04-27T11:46:31.999Z</time></trkpt><trkpt lat="45.91614038220653" lon="10.233632027004683"><ele>242.0</ele><time>2026-04-27T11:46:32.999Z</time></trkpt><trkpt lat="45.91595555269287" lon="10.233441578648595"><ele>242.5</ele><time>2026-04-27T11:46:33.999Z</time></trkpt><trkpt lat="45.9157716667676" lon="10.233252222029842"><ele>243.0</ele><time>2026-04-27T11:46:34.999Z</time></trkpt><trkpt lat="45.91558100080351" lon="10.233055533961242"><ele>242.0</ele><time>2026-04-27T11:46:35.999Z</time></trkpt><trkpt lat="45.9153871295756" lon="10.232855355740996"><ele>241.0</ele><time>2026-04-27T11:46:36.999Z</time></trkpt><trkpt lat="45.91519393784818" lon="10.23265587908812"><ele>241.0</ele><time>2026-04-27T11:46:37.999Z</time></trkpt><trkpt lat="45.91500205907734" lon="10.232457758078496"><ele>241.0</ele><time>2026-04-27T11:46:38.999Z</time></trkpt><trkpt lat="45.9147990855457" lon="10.232248181474377"><ele>241.0</ele><time>2026-04-27T11:46:39.999Z</time></trkpt><trkpt lat="45.914604524805185" lon="10.23204729129119"><ele>241.0</ele><time>2026-04-27T11:46:40.999Z</time></trkpt><trkpt lat="45.914407219155244" lon="10.231843566834947"><ele>240.5</ele><time>2026-04-27T11:46:41.999Z</time></trkpt><trkpt lat="45.91421231552439" lon="10.231642322650833"><ele>240.0</ele><time>2026-04-27T11:46:42.999Z</time></trkpt><trkpt lat="45.914015199989784" lon="10.231438794545085"><ele>240.0</ele><time>2026-04-27T11:46:43.999Z</time></trkpt><trkpt lat="45.91382053690707" lon="10.231237798714103"><ele>240.0</ele><time>2026-04-27T11:46:44.999Z</time></trkpt><trkpt lat="45.913622436479244" lon="10.231033084709253"><ele>240.0</ele><time>2026-04-27T11:46:45.999Z</time></trkpt><trkpt lat="45.91342270178953" lon="10.230826591217077"><ele>240.0</ele><time>2026-04-27T11:46:46.999Z</time></trkpt><trkpt lat="45.91322553741775" lon="10.23062275502879"><ele>239.0</ele><time>2026-04-27T11:46:47.999Z</time></trkpt><trkpt lat="45.91302830653537" lon="10.230418850090059"><ele>238.0</ele><time>2026-04-27T11:46:48.999Z</time></trkpt><trkpt lat="45.912827619859236" lon="10.23021137148628"><ele>238.0</ele><time>2026-04-27T11:46:49.999Z</time></trkpt><trkpt lat="45.91263321120609" lon="10.230003684794315"><ele>238.0</ele><time>2026-04-27T11:46:50.999Z</time></trkpt><trkpt lat="45.91244415958805" lon="10.229804782135163"><ele>237.5</ele><time>2026-04-27T11:46:51.999Z</time></trkpt><trkpt lat="45.91225320406384" lon="10.229602096803625"><ele>237.0</ele><time>2026-04-27T11:46:52.999Z</time></trkpt><trkpt lat="45.91205322426986" lon="10.229394936966866"><ele>237.0</ele><time>2026-04-27T11:46:53.999Z</time></trkpt><trkpt lat="45.91186412999514" lon="10.229202193160564"><ele>237.0</ele><time>2026-04-27T11:46:54.999Z</time></trkpt><trkpt lat="45.91166341386382" lon="10.228997606264068"><ele>237.5</ele><time>2026-04-27T11:46:55.999Z</time></trkpt><trkpt lat="45.91145642136815" lon="10.228790871032759"><ele>238.0</ele><time>2026-04-27T11:46:56.999Z</time></trkpt><trkpt lat="45.91124216076511" lon="10.228567061295163"><ele>238.0</ele><time>2026-04-27T11:46:57.999Z</time></trkpt><trkpt lat="45.91102899130088" lon="10.228349039370357"><ele>238.0</ele><time>2026-04-27T11:46:58.999Z</time></trkpt><trkpt lat="45.910811937877725" lon="10.228127230309672"><ele>237.0</ele><time>2026-04-27T11:46:59.999Z</time></trkpt><trkpt lat="45.910598305960576" lon="10.227905632329444"><ele>236.0</ele><time>2026-04-27T11:47:00.999Z</time></trkpt><trkpt lat="45.91038561427778" lon="10.227697281744202"><ele>236.0</ele><time>2026-04-27T11:47:01.999Z</time></trkpt><trkpt lat="45.91017570083536" lon="10.227495862023689"><ele>236.0</ele><time>2026-04-27T11:47:02.999Z</time></trkpt><trkpt lat="45.909972741116384" lon="10.227283383432281"><ele>237.0</ele><time>2026-04-27T11:47:03.999Z</time></trkpt><trkpt lat="45.90976417539965" lon="10.227069285542322"><ele>238.0</ele><time>2026-04-27T11:47:04.999Z</time></trkpt><trkpt lat="45.90955931145233" lon="10.226865532897248"><ele>238.0</ele><time>2026-04-27T11:47:05.999Z</time></trkpt><trkpt lat="45.909358656187756" lon="10.226667386933842"><ele>238.0</ele><time>2026-04-27T11:47:06.999Z</time></trkpt><trkpt lat="45.90915908781042" lon="10.226465497005083"><ele>237.5</ele><time>2026-04-27T11:47:07.999Z</time></trkpt><trkpt lat="45.90895237554554" lon="10.226254047664993"><ele>237.0</ele><time>2026-04-27T11:47:08.999Z</time></trkpt><trkpt lat="45.90874755452742" lon="10.22605298665927"><ele>237.0</ele><time>2026-04-27T11:47:09.999Z</time></trkpt><trkpt lat="45.908547509372404" lon="10.225842631257326"><ele>237.0</ele><time>2026-04-27T11:47:10.999Z</time></trkpt><trkpt lat="45.908344129825096" lon="10.225639288844333"><ele>236.0</ele><time>2026-04-27T11:47:11.999Z</time></trkpt><trkpt lat="45.90814978348156" lon="10.225434962537536"><ele>235.0</ele><time>2026-04-27T11:47:12.999Z</time></trkpt><trkpt lat="45.90793899932193" lon="10.225227319703508"><ele>235.0</ele><time>2026-04-27T11:47:13.999Z</time></trkpt><trkpt lat="45.90772881315883" lon="10.225016366881196"><ele>235.0</ele><time>2026-04-27T11:47:14.999Z</time></trkpt><trkpt lat="45.90751483015689" lon="10.224800527420857"><ele>235.0</ele><time>2026-04-27T11:47:15.999Z</time></trkpt><trkpt lat="45.90730665246206" lon="10.224586076923444"><ele>235.0</ele><time>2026-04-27T11:47:16.999Z</time></trkpt><trkpt lat="45.90709479501568" lon="10.224368066906214"><ele>235.0</ele><time>2026-04-27T11:47:17.999Z</time></trkpt><trkpt lat="45.90688215509796" lon="10.224147617766198"><ele>235.0</ele><time>2026-04-27T11:47:18.999Z</time></trkpt><trkpt lat="45.90668001911563" lon="10.223945446849292"><ele>234.0</ele><time>2026-04-27T11:47:19.999Z</time></trkpt><trkpt lat="45.906471028060096" lon="10.22372995034978"><ele>233.0</ele><time>2026-04-27T11:47:20.999Z</time></trkpt><trkpt lat="45.90628232543503" lon="10.223531533989874"><ele>233.0</ele><time>2026-04-27T11:47:21.999Z</time></trkpt><trkpt lat="45.90610358911087" lon="10.223338279143855"><ele>233.0</ele><time>2026-04-27T11:47:22.999Z</time></trkpt><trkpt lat="45.90591859477869" lon="10.223142510292547"><ele>233.0</ele><time>2026-04-27T11:47:23.999Z</time></trkpt><trkpt lat="45.905738751994996" lon="10.222909445120983"><ele>233.0</ele><time>2026-04-27T11:47:24.999Z</time></trkpt><trkpt lat="45.90556963534268" lon="10.222689809861901"><ele>233.0</ele><time>2026-04-27T11:47:25.999Z</time></trkpt><trkpt lat="45.90540384441945" lon="10.222443559026933"><ele>233.0</ele><time>2026-04-27T11:47:26.999Z</time></trkpt><trkpt lat="45.90523712844154" lon="10.222198146763125"><ele>233.0</ele><time>2026-04-27T11:47:27.999Z</time></trkpt><trkpt lat="45.905080971192504" lon="10.221951694430617"><ele>233.0</ele><time>2026-04-27T11:47:28.999Z</time></trkpt><trkpt lat="45.90493863504876" lon="10.221718479366304"><ele>233.0</ele><time>2026-04-27T11:47:29.999Z</time></trkpt><trkpt lat="45.9048050583527" lon="10.22149765159827"><ele>233.66666666666669</ele><time>2026-04-27T11:47:30.999Z</time></trkpt><trkpt lat="45.90468478893114" lon="10.221283719518693"><ele>234.33333333333331</ele><time>2026-04-27T11:47:31.999Z</time></trkpt><trkpt lat="45.904555558195725" lon="10.22105902674365"><ele>235.0</ele><time>2026-04-27T11:47:32.999Z</time></trkpt><trkpt lat="45.90441128534836" lon="10.220818231579939"><ele>235.0</ele><time>2026-04-27T11:47:33.999Z</time></trkpt><trkpt lat="45.90425989326754" lon="10.220567022054146"><ele>235.0</ele><time>2026-04-27T11:47:34.999Z</time></trkpt><trkpt lat="45.90412792351818" lon="10.220347351929036"><ele>235.0</ele><time>2026-04-27T11:47:35.999Z</time></trkpt><trkpt lat="45.90396849241094" lon="10.220104989202792"><ele>233.5</ele><time>2026-04-27T11:47:36.999Z</time></trkpt><trkpt lat="45.90380375179238" lon="10.21985589725627"><ele>232.0</ele><time>2026-04-27T11:47:37.999Z</time></trkpt><trkpt lat="45.903639082000026" lon="10.219590945048518"><ele>232.0</ele><time>2026-04-27T11:47:38.999Z</time></trkpt><trkpt lat="45.90348506830467" lon="10.219344375559976"><ele>232.0</ele><time>2026-04-27T11:47:39.999Z</time></trkpt><trkpt lat="45.903327828377684" lon="10.219087501876409"><ele>233.0</ele><time>2026-04-27T11:47:40.999Z</time></trkpt><trkpt lat="45.90317797199477" lon="10.218827946076726"><ele>234.0</ele><time>2026-04-27T11:47:41.999Z</time></trkpt><trkpt lat="45.90301906241824" lon="10.218555156888744"><ele>234.0</ele><time>2026-04-27T11:47:42.999Z</time></trkpt><trkpt lat="45.902852152142245" lon="10.218285602436204"><ele>234.0</ele><time>2026-04-27T11:47:43.999Z</time></trkpt><trkpt lat="45.902667900306504" lon="10.217996304969017"><ele>232.0</ele><time>2026-04-27T11:47:44.999Z</time></trkpt><trkpt lat="45.90250107635703" lon="10.217719227574149"><ele>230.0</ele><time>2026-04-27T11:47:45.999Z</time></trkpt><trkpt lat="45.9023504185686" lon="10.217452487700077"><ele>229.0</ele><time>2026-04-27T11:47:46.999Z</time></trkpt><trkpt lat="45.90219929253964" lon="10.217188414348493"><ele>228.0</ele><time>2026-04-27T11:47:47.999Z</time></trkpt><trkpt lat="45.9020510098215" lon="10.216940279886167"><ele>228.0</ele><time>2026-04-27T11:47:48.999Z</time></trkpt><trkpt lat="45.90189453169748" lon="10.21668020675237"><ele>228.0</ele><time>2026-04-27T11:47:49.999Z</time></trkpt><trkpt lat="45.901736312293465" lon="10.216419655993151"><ele>228.66666666666669</ele><time>2026-04-27T11:47:50.999Z</time></trkpt><trkpt lat="45.90158498497656" lon="10.216167259709001"><ele>229.33333333333334</ele><time>2026-04-27T11:47:51.999Z</time></trkpt><trkpt lat="45.90145050534897" lon="10.215935172702553"><ele>230.0</ele><time>2026-04-27T11:47:52.999Z</time></trkpt><trkpt lat="45.90129784983129" lon="10.215685295583352"><ele>229.0</ele><time>2026-04-27T11:47:53.999Z</time></trkpt><trkpt lat="45.901144141690935" lon="10.215433982034803"><ele>228.0</ele><time>2026-04-27T11:47:54.999Z</time></trkpt><trkpt lat="45.900994441638524" lon="10.215188095958599"><ele>228.0</ele><time>2026-04-27T11:47:55.999Z</time></trkpt><trkpt lat="45.90084391171009" lon="10.2149437444107"><ele>228.0</ele><time>2026-04-27T11:47:56.999Z</time></trkpt><trkpt lat="45.90070149801433" lon="10.214698781661362"><ele>228.0</ele><time>2026-04-27T11:47:57.999Z</time></trkpt><trkpt lat="45.90053946721687" lon="10.21442773614137"><ele>228.0</ele><time>2026-04-27T11:47:58.999Z</time></trkpt><trkpt lat="45.900378102434125" lon="10.214173900061743"><ele>228.0</ele><time>2026-04-27T11:47:59.999Z</time></trkpt><trkpt lat="45.900219811954955" lon="10.213920675162957"><ele>228.0</ele><time>2026-04-27T11:48:00.999Z</time></trkpt><trkpt lat="45.900059535263736" lon="10.213671161852783"><ele>228.0</ele><time>2026-04-27T11:48:01.999Z</time></trkpt><trkpt lat="45.899901599963435" lon="10.213411236720187"><ele>228.0</ele><time>2026-04-27T11:48:02.999Z</time></trkpt><trkpt lat="45.89974699158068" lon="10.213163132552676"><ele>228.0</ele><time>2026-04-27T11:48:03.999Z</time></trkpt><trkpt lat="45.89958726069753" lon="10.212903015128786"><ele>227.5</ele><time>2026-04-27T11:48:04.999Z</time></trkpt><trkpt lat="45.89943601729205" lon="10.212648791298184"><ele>227.0</ele><time>2026-04-27T11:48:05.999Z</time></trkpt><trkpt lat="45.89928411475241" lon="10.212393139305428"><ele>227.0</ele><time>2026-04-27T11:48:06.999Z</time></trkpt><trkpt lat="45.89912312370025" lon="10.212145253711043"><ele>227.0</ele><time>2026-04-27T11:48:07.999Z</time></trkpt><trkpt lat="45.89898020349647" lon="10.21190494957477"><ele>227.0</ele><time>2026-04-27T11:48:08.999Z</time></trkpt><trkpt lat="45.89882775655084" lon="10.211654795104792"><ele>227.0</ele><time>2026-04-27T11:48:09.999Z</time></trkpt><trkpt lat="45.898669343422306" lon="10.211388941920404"><ele>227.0</ele><time>2026-04-27T11:48:10.999Z</time></trkpt><trkpt lat="45.89851512801004" lon="10.211131496156455"><ele>227.0</ele><time>2026-04-27T11:48:11.999Z</time></trkpt><trkpt lat="45.898364484307734" lon="10.210893377849743"><ele>226.33333333333334</ele><time>2026-04-27T11:48:12.999Z</time></trkpt><trkpt lat="45.898230827180235" lon="10.21064478805862"><ele>225.66666666666669</ele><time>2026-04-27T11:48:13.999Z</time></trkpt><trkpt lat="45.898077740996655" lon="10.210399979057483"><ele>225.0</ele><time>2026-04-27T11:48:14.999Z</time></trkpt><trkpt lat="45.8979316801294" lon="10.21016630170476"><ele>225.0</ele><time>2026-04-27T11:48:15.999Z</time></trkpt><trkpt lat="45.89778782344179" lon="10.209924761097328"><ele>225.0</ele><time>2026-04-27T11:48:16.999Z</time></trkpt><trkpt lat="45.8976464144602" lon="10.209688570618432"><ele>225.0</ele><time>2026-04-27T11:48:17.999Z</time></trkpt><trkpt lat="45.897503317808" lon="10.20945364472715"><ele>228.0</ele><time>2026-04-27T11:48:18.999Z</time></trkpt><trkpt lat="45.89735825152596" lon="10.20920912991721"><ele>231.0</ele><time>2026-04-27T11:48:19.999Z</time></trkpt><trkpt lat="45.89720565768326" lon="10.20896422286749"><ele>234.33333333333331</ele><time>2026-04-27T11:48:20.999Z</time></trkpt><trkpt lat="45.89706867031369" lon="10.208738909107314"><ele>237.66666666666666</ele><time>2026-04-27T11:48:21.999Z</time></trkpt><trkpt lat="45.89693869468325" lon="10.208522228243242"><ele>241.0</ele><time>2026-04-27T11:48:22.999Z</time></trkpt><trkpt lat="45.89680521075034" lon="10.208297220028259"><ele>238.33333333333331</ele><time>2026-04-27T11:48:23.999Z</time></trkpt><trkpt lat="45.8966673238317" lon="10.20807608010863"><ele>235.66666666666669</ele><time>2026-04-27T11:48:24.999Z</time></trkpt><trkpt lat="45.89651045018201" lon="10.207833394049592"><ele>233.0</ele><time>2026-04-27T11:48:25.999Z</time></trkpt><trkpt lat="45.89635516758212" lon="10.207581707000317"><ele>233.0</ele><time>2026-04-27T11:48:26.999Z</time></trkpt><trkpt lat="45.89619029238668" lon="10.20733161730938"><ele>233.0</ele><time>2026-04-27T11:48:27.999Z</time></trkpt><trkpt lat="45.896014404588946" lon="10.2070817530003"><ele>228.0</ele><time>2026-04-27T11:48:28.999Z</time></trkpt><trkpt lat="45.89583703302637" lon="10.206822877075497"><ele>223.0</ele><time>2026-04-27T11:48:29.999Z</time></trkpt><trkpt lat="45.895675440728965" lon="10.206576209549727"><ele>227.66666666666666</ele><time>2026-04-27T11:48:30.999Z</time></trkpt><trkpt lat="45.89551540779986" lon="10.206349841947297"><ele>232.33333333333331</ele><time>2026-04-27T11:48:31.999Z</time></trkpt><trkpt lat="45.89536245784646" lon="10.206137381775894"><ele>237.0</ele><time>2026-04-27T11:48:32.998Z</time></trkpt><trkpt lat="45.89522213408073" lon="10.205950620587037"><ele>232.66666666666669</ele><time>2026-04-27T11:48:33.998Z</time></trkpt><trkpt lat="45.895076659371945" lon="10.205766513482317"><ele>228.33333333333334</ele><time>2026-04-27T11:48:34.998Z</time></trkpt><trkpt lat="45.894946856051924" lon="10.205593687501372"><ele>224.0</ele><time>2026-04-27T11:48:35.998Z</time></trkpt><trkpt lat="45.894803953210186" lon="10.20541953451858"><ele>224.0</ele><time>2026-04-27T11:48:36.998Z</time></trkpt><trkpt lat="45.89466617547331" lon="10.205240779381064"><ele>224.0</ele><time>2026-04-27T11:48:37.998Z</time></trkpt><trkpt lat="45.894528826399934" lon="10.205070916856744"><ele>224.0</ele><time>2026-04-27T11:48:38.998Z</time></trkpt><trkpt lat="45.89440214261451" lon="10.204912547808595"><ele>224.0</ele><time>2026-04-27T11:48:39.998Z</time></trkpt><trkpt lat="45.894258308714754" lon="10.2047460461278"><ele>224.0</ele><time>2026-04-27T11:48:40.998Z</time></trkpt><trkpt lat="45.894116196332725" lon="10.204566934520994"><ele>224.0</ele><time>2026-04-27T11:48:41.998Z</time></trkpt><trkpt lat="45.89397163014396" lon="10.20438306651178"><ele>224.0</ele><time>2026-04-27T11:48:42.998Z</time></trkpt><trkpt lat="45.89383162241934" lon="10.204206307121416"><ele>224.0</ele><time>2026-04-27T11:48:43.998Z</time></trkpt><trkpt lat="45.893700399039716" lon="10.204038526516351"><ele>224.0</ele><time>2026-04-27T11:48:44.998Z</time></trkpt><trkpt lat="45.893567752373244" lon="10.20387570133824"><ele>224.33333333333334</ele><time>2026-04-27T11:48:45.998Z</time></trkpt><trkpt lat="45.8934419833496" lon="10.203711606638251"><ele>224.66666666666669</ele><time>2026-04-27T11:48:46.998Z</time></trkpt><trkpt lat="45.893307333942346" lon="10.203531603841553"><ele>225.0</ele><time>2026-04-27T11:48:47.998Z</time></trkpt><trkpt lat="45.89317666302677" lon="10.203358758297066"><ele>225.0</ele><time>2026-04-27T11:48:48.998Z</time></trkpt><trkpt lat="45.89303540153275" lon="10.203184517221347"><ele>225.0</ele><time>2026-04-27T11:48:49.998Z</time></trkpt><trkpt lat="45.892889144516275" lon="10.203005416249677"><ele>225.0</ele><time>2026-04-27T11:48:50.998Z</time></trkpt><trkpt lat="45.8927469864197" lon="10.202830722599879"><ele>224.66666666666669</ele><time>2026-04-27T11:48:51.998Z</time></trkpt><trkpt lat="45.89259926950431" lon="10.202646216609114"><ele>224.33333333333334</ele><time>2026-04-27T11:48:52.998Z</time></trkpt><trkpt lat="45.89245288395698" lon="10.202464890356259"><ele>224.0</ele><time>2026-04-27T11:48:53.998Z</time></trkpt><trkpt lat="45.89231578315971" lon="10.202290773665922"><ele>225.0</ele><time>2026-04-27T11:48:54.998Z</time></trkpt><trkpt lat="45.89217268305016" lon="10.202119289598878"><ele>226.0</ele><time>2026-04-27T11:48:55.998Z</time></trkpt><trkpt lat="45.892020352755104" lon="10.201936257397957"><ele>227.0</ele><time>2026-04-27T11:48:56.998Z</time></trkpt><trkpt lat="45.89186853227163" lon="10.201756061325511"><ele>225.66666666666669</ele><time>2026-04-27T11:48:57.998Z</time></trkpt><trkpt lat="45.89173245595867" lon="10.201563366090994"><ele>224.33333333333331</ele><time>2026-04-27T11:48:58.998Z</time></trkpt><trkpt lat="45.89157933466262" lon="10.20140438796781"><ele>223.0</ele><time>2026-04-27T11:48:59.998Z</time></trkpt><trkpt lat="45.89144242790775" lon="10.201248594219223"><ele>222.66666666666666</ele><time>2026-04-27T11:49:00.998Z</time></trkpt><trkpt lat="45.89129477290944" lon="10.201083112673558"><ele>222.33333333333331</ele><time>2026-04-27T11:49:01.998Z</time></trkpt><trkpt lat="45.89114060566575" lon="10.200920065948074"><ele>222.0</ele><time>2026-04-27T11:49:02.998Z</time></trkpt><trkpt lat="45.890974134849635" lon="10.200765031011441"><ele>222.33333333333331</ele><time>2026-04-27T11:49:03.998Z</time></trkpt><trkpt lat="45.89081108315067" lon="10.200584270077524"><ele>222.66666666666666</ele><time>2026-04-27T11:49:04.998Z</time></trkpt><trkpt lat="45.89063703643405" lon="10.200425822195848"><ele>223.0</ele><time>2026-04-27T11:49:05.998Z</time></trkpt><trkpt lat="45.89047168635844" lon="10.200278061472625"><ele>223.0</ele><time>2026-04-27T11:49:06.998Z</time></trkpt><trkpt lat="45.89030640461773" lon="10.200137828309416"><ele>223.0</ele><time>2026-04-27T11:49:07.998Z</time></trkpt><trkpt lat="45.8901368559495" lon="10.20003315915557"><ele>223.0</ele><time>2026-04-27T11:49:08.998Z</time></trkpt><trkpt lat="45.88996945535486" lon="10.19990907026688"><ele>224.0</ele><time>2026-04-27T11:49:09.998Z</time></trkpt><trkpt lat="45.889800590798885" lon="10.199797452315334"><ele>225.0</ele><time>2026-04-27T11:49:10.998Z</time></trkpt><trkpt lat="45.88963197729589" lon="10.199691919269172"><ele>226.0</ele><time>2026-04-27T11:49:11.998Z</time></trkpt><trkpt lat="45.88944081394242" lon="10.19957582767034"><ele>226.0</ele><time>2026-04-27T11:49:12.998Z</time></trkpt><trkpt lat="45.88925950451782" lon="10.199465871311599"><ele>226.0</ele><time>2026-04-27T11:49:13.998Z</time></trkpt><trkpt lat="45.88908828675393" lon="10.199364719965901"><ele>226.0</ele><time>2026-04-27T11:49:14.998Z</time></trkpt><trkpt lat="45.88891177288715" lon="10.199252657613316"><ele>224.66666666666666</ele><time>2026-04-27T11:49:15.998Z</time></trkpt><trkpt lat="45.88873134784365" lon="10.199155048361558"><ele>223.33333333333331</ele><time>2026-04-27T11:49:16.998Z</time></trkpt><trkpt lat="45.8885432019546" lon="10.199053189425948"><ele>222.0</ele><time>2026-04-27T11:49:17.998Z</time></trkpt><trkpt lat="45.88833862677698" lon="10.19894243594686"><ele>221.66666666666669</ele><time>2026-04-27T11:49:18.998Z</time></trkpt><trkpt lat="45.8881362013618" lon="10.198832976587498"><ele>221.33333333333334</ele><time>2026-04-27T11:49:19.998Z</time></trkpt><trkpt lat="45.88792978427415" lon="10.198720042578723"><ele>221.0</ele><time>2026-04-27T11:49:20.998Z</time></trkpt><trkpt lat="45.8877064410855" lon="10.198596787107777"><ele>221.0</ele><time>2026-04-27T11:49:21.998Z</time></trkpt><trkpt lat="45.88746326634704" lon="10.198462587268041"><ele>221.0</ele><time>2026-04-27T11:49:22.998Z</time></trkpt><trkpt lat="45.8872140419816" lon="10.19832516580315"><ele>221.0</ele><time>2026-04-27T11:49:23.998Z</time></trkpt><trkpt lat="45.88696147561622" lon="10.198186098802472"><ele>221.0</ele><time>2026-04-27T11:49:24.998Z</time></trkpt><trkpt lat="45.88673149769903" lon="10.19808362822153"><ele>221.33333333333334</ele><time>2026-04-27T11:49:25.998Z</time></trkpt><trkpt lat="45.88653412185908" lon="10.197950934209965"><ele>221.66666666666669</ele><time>2026-04-27T11:49:26.998Z</time></trkpt><trkpt lat="45.88634091365028" lon="10.197844482542685"><ele>222.0</ele><time>2026-04-27T11:49:27.998Z</time></trkpt><trkpt lat="45.88615636328985" lon="10.197742801034824"><ele>222.0</ele><time>2026-04-27T11:49:28.998Z</time></trkpt><trkpt lat="45.885963400933214" lon="10.197636484876021"><ele>222.0</ele><time>2026-04-27T11:49:29.998Z</time></trkpt><trkpt lat="45.88576943609538" lon="10.19752913695298"><ele>222.0</ele><time>2026-04-27T11:49:30.998Z</time></trkpt><trkpt lat="45.88558079359257" lon="10.197445460093437"><ele>223.66666666666669</ele><time>2026-04-27T11:49:31.998Z</time></trkpt><trkpt lat="45.88540091567424" lon="10.197307161785114"><ele>225.33333333333334</ele><time>2026-04-27T11:49:32.998Z</time></trkpt><trkpt lat="45.88522017304867" lon="10.197165126480558"><ele>227.0</ele><time>2026-04-27T11:49:33.998Z</time></trkpt><trkpt lat="45.88504456318201" lon="10.197006110120672"><ele>229.0</ele><time>2026-04-27T11:49:34.998Z</time></trkpt><trkpt lat="45.884877307793644" lon="10.196832516766689"><ele>231.0</ele><time>2026-04-27T11:49:35.998Z</time></trkpt><trkpt lat="45.8847104901204" lon="10.196631446249537"><ele>233.0</ele><time>2026-04-27T11:49:36.998Z</time></trkpt><trkpt lat="45.88454419703628" lon="10.196432557437808"><ele>233.0</ele><time>2026-04-27T11:49:37.998Z</time></trkpt><trkpt lat="45.88440448261728" lon="10.196220461591432"><ele>233.0</ele><time>2026-04-27T11:49:38.998Z</time></trkpt><trkpt lat="45.88427084921448" lon="10.195989228266804"><ele>233.0</ele><time>2026-04-27T11:49:39.998Z</time></trkpt><trkpt lat="45.88413178794226" lon="10.195743868087991"><ele>236.5</ele><time>2026-04-27T11:49:40.998Z</time></trkpt><trkpt lat="45.88401269333162" lon="10.195482133050803"><ele>240.0</ele><time>2026-04-27T11:49:41.998Z</time></trkpt><trkpt lat="45.883801091763324" lon="10.194974819801054"><ele>238.0</ele><time>2026-04-27T11:49:43.998Z</time></trkpt><trkpt lat="45.88368463692209" lon="10.194692290481516"><ele>236.0</ele><time>2026-04-27T11:49:44.998Z</time></trkpt><trkpt lat="45.883570631484375" lon="10.19442517928702"><ele>234.0</ele><time>2026-04-27T11:49:45.998Z</time></trkpt><trkpt lat="45.88344835350221" lon="10.194150086441097"><ele>237.5</ele><time>2026-04-27T11:49:46.998Z</time></trkpt><trkpt lat="45.88331294860537" lon="10.193866895784707"><ele>241.0</ele><time>2026-04-27T11:49:47.998Z</time></trkpt><trkpt lat="45.88319452597753" lon="10.193596251689115"><ele>241.0</ele><time>2026-04-27T11:49:48.998Z</time></trkpt><trkpt lat="45.88307034190471" lon="10.193320401308782"><ele>241.0</ele><time>2026-04-27T11:49:49.998Z</time></trkpt><trkpt lat="45.8829559741152" lon="10.193043291363434"><ele>238.5</ele><time>2026-04-27T11:49:50.998Z</time></trkpt><trkpt lat="45.882828334331684" lon="10.192767115940846"><ele>236.0</ele><time>2026-04-27T11:49:51.998Z</time></trkpt><trkpt lat="45.88269110294" lon="10.192511790306186"><ele>237.0</ele><time>2026-04-27T11:49:52.998Z</time></trkpt><trkpt lat="45.88253892039928" lon="10.192260473504819"><ele>238.0</ele><time>2026-04-27T11:49:53.998Z</time></trkpt><trkpt lat="45.882362669225984" lon="10.192026977579568"><ele>238.0</ele><time>2026-04-27T11:49:54.998Z</time></trkpt><trkpt lat="45.88221816291013" lon="10.191822557023956"><ele>238.0</ele><time>2026-04-27T11:49:55.998Z</time></trkpt><trkpt lat="45.88207240839445" lon="10.19163100099845"><ele>238.0</ele><time>2026-04-27T11:49:56.998Z</time></trkpt><trkpt lat="45.881905044318415" lon="10.191457800766374"><ele>239.5</ele><time>2026-04-27T11:49:57.998Z</time></trkpt><trkpt lat="45.88172108356872" lon="10.191245577986448"><ele>241.0</ele><time>2026-04-27T11:49:58.998Z</time></trkpt><trkpt lat="45.88153603138259" lon="10.191085197266958"><ele>241.0</ele><time>2026-04-27T11:49:59.998Z</time></trkpt><trkpt lat="45.88135649038757" lon="10.190891223853935"><ele>241.0</ele><time>2026-04-27T11:50:00.998Z</time></trkpt><trkpt lat="45.881174377107996" lon="10.190702407616362"><ele>241.0</ele><time>2026-04-27T11:50:01.998Z</time></trkpt><trkpt lat="45.880985023361184" lon="10.190518701865923"><ele>241.0</ele><time>2026-04-27T11:50:02.998Z</time></trkpt><trkpt lat="45.8808099905887" lon="10.19034339615176"><ele>241.0</ele><time>2026-04-27T11:50:03.998Z</time></trkpt><trkpt lat="45.88062851014177" lon="10.190164598314045"><ele>241.0</ele><time>2026-04-27T11:50:04.998Z</time></trkpt><trkpt lat="45.880443774185004" lon="10.189950497635"><ele>241.5</ele><time>2026-04-27T11:50:05.998Z</time></trkpt><trkpt lat="45.880250620482784" lon="10.18977979131144"><ele>242.0</ele><time>2026-04-27T11:50:06.998Z</time></trkpt><trkpt lat="45.88006406090724" lon="10.189588756126856"><ele>242.0</ele><time>2026-04-27T11:50:07.998Z</time></trkpt><trkpt lat="45.87989217309798" lon="10.189391135585161"><ele>242.0</ele><time>2026-04-27T11:50:08.998Z</time></trkpt><trkpt lat="45.87970648346424" lon="10.189202874220548"><ele>242.0</ele><time>2026-04-27T11:50:09.998Z</time></trkpt><trkpt lat="45.8795235135974" lon="10.189036078440756"><ele>241.66666666666669</ele><time>2026-04-27T11:50:10.998Z</time></trkpt><trkpt lat="45.87934290977831" lon="10.188851180687893"><ele>241.33333333333331</ele><time>2026-04-27T11:50:11.998Z</time></trkpt><trkpt lat="45.87916821698826" lon="10.188664430804161"><ele>241.0</ele><time>2026-04-27T11:50:12.998Z</time></trkpt><trkpt lat="45.87899280551048" lon="10.188485059608341"><ele>241.0</ele><time>2026-04-27T11:50:13.998Z</time></trkpt><trkpt lat="45.87881222790028" lon="10.188310630398059"><ele>241.0</ele><time>2026-04-27T11:50:14.998Z</time></trkpt><trkpt lat="45.878646499895076" lon="10.188138393612862"><ele>241.0</ele><time>2026-04-27T11:50:15.998Z</time></trkpt><trkpt lat="45.8784852997636" lon="10.187960817904555"><ele>242.0</ele><time>2026-04-27T11:50:16.998Z</time></trkpt><trkpt lat="45.878326345724496" lon="10.187777863987517"><ele>243.0</ele><time>2026-04-27T11:50:17.998Z</time></trkpt><trkpt lat="45.87815790801135" lon="10.187580211363931"><ele>244.0</ele><time>2026-04-27T11:50:18.998Z</time></trkpt><trkpt lat="45.87801486118404" lon="10.187381522742232"><ele>243.33333333333331</ele><time>2026-04-27T11:50:19.998Z</time></trkpt><trkpt lat="45.87786840721988" lon="10.187176088733914"><ele>242.66666666666669</ele><time>2026-04-27T11:50:20.998Z</time></trkpt><trkpt lat="45.87772116604937" lon="10.186964516814696"><ele>242.0</ele><time>2026-04-27T11:50:21.998Z</time></trkpt><trkpt lat="45.87758428100868" lon="10.18675015712438"><ele>242.0</ele><time>2026-04-27T11:50:22.998Z</time></trkpt><trkpt lat="45.87744626899306" lon="10.186532294620745"><ele>242.0</ele><time>2026-04-27T11:50:23.998Z</time></trkpt><trkpt lat="45.877309245216146" lon="10.186323617939033"><ele>242.0</ele><time>2026-04-27T11:50:24.998Z</time></trkpt><trkpt lat="45.87719633507246" lon="10.186131419508673"><ele>242.0</ele><time>2026-04-27T11:50:25.998Z</time></trkpt><trkpt lat="45.877088517043" lon="10.185965823411658"><ele>242.0</ele><time>2026-04-27T11:50:26.998Z</time></trkpt><trkpt lat="45.87697522434481" lon="10.18579429141373"><ele>242.0</ele><time>2026-04-27T11:50:27.998Z</time></trkpt><trkpt lat="45.876843549621064" lon="10.185602602295678"><ele>242.66666666666669</ele><time>2026-04-27T11:50:28.998Z</time></trkpt><trkpt lat="45.876718947748834" lon="10.185414983037843"><ele>243.33333333333331</ele><time>2026-04-27T11:50:29.998Z</time></trkpt><trkpt lat="45.87659808737752" lon="10.185229621727084"><ele>244.0</ele><time>2026-04-27T11:50:30.998Z</time></trkpt><trkpt lat="45.87648051625606" lon="10.185049494140268"><ele>244.0</ele><time>2026-04-27T11:50:31.998Z</time></trkpt><trkpt lat="45.87637895373217" lon="10.184880778734367"><ele>244.0</ele><time>2026-04-27T11:50:32.998Z</time></trkpt><trkpt lat="45.876271616069005" lon="10.184703009724862"><ele>244.0</ele><time>2026-04-27T11:50:33.998Z</time></trkpt><trkpt lat="45.87615174820542" lon="10.184505470470102"><ele>243.66666666666666</ele><time>2026-04-27T11:50:34.998Z</time></trkpt><trkpt lat="45.87603151448101" lon="10.184311148075281"><ele>243.33333333333331</ele><time>2026-04-27T11:50:35.998Z</time></trkpt><trkpt lat="45.87591220049192" lon="10.184124056428175"><ele>243.0</ele><time>2026-04-27T11:50:36.998Z</time></trkpt><trkpt lat="45.87580398872233" lon="10.183954516833237"><ele>242.0</ele><time>2026-04-27T11:50:37.998Z</time></trkpt><trkpt lat="45.875676606662545" lon="10.183762956247422"><ele>241.0</ele><time>2026-04-27T11:50:38.998Z</time></trkpt><trkpt lat="45.875563252881705" lon="10.183571804648508"><ele>240.0</ele><time>2026-04-27T11:50:39.998Z</time></trkpt><trkpt lat="45.87545033434257" lon="10.183388096601659"><ele>240.0</ele><time>2026-04-27T11:50:40.998Z</time></trkpt><trkpt lat="45.87532674663442" lon="10.183193845822789"><ele>240.0</ele><time>2026-04-27T11:50:41.998Z</time></trkpt><trkpt lat="45.875203013058915" lon="10.183004414677391"><ele>240.0</ele><time>2026-04-27T11:50:42.998Z</time></trkpt><trkpt lat="45.875080797643065" lon="10.182817264536913"><ele>240.66666666666669</ele><time>2026-04-27T11:50:43.998Z</time></trkpt><trkpt lat="45.87495838393421" lon="10.182631491320109"><ele>241.33333333333334</ele><time>2026-04-27T11:50:44.998Z</time></trkpt><trkpt lat="45.87483155452843" lon="10.182424671955438"><ele>242.0</ele><time>2026-04-27T11:50:45.998Z</time></trkpt><trkpt lat="45.87470220718155" lon="10.182228555321931"><ele>240.66666666666669</ele><time>2026-04-27T11:50:46.998Z</time></trkpt><trkpt lat="45.87456247724354" lon="10.182015937214278"><ele>239.33333333333331</ele><time>2026-04-27T11:50:47.998Z</time></trkpt><trkpt lat="45.87441103847861" lon="10.181792241770882"><ele>238.0</ele><time>2026-04-27T11:50:48.998Z</time></trkpt><trkpt lat="45.874276421210446" lon="10.181580191216483"><ele>239.0</ele><time>2026-04-27T11:50:49.998Z</time></trkpt><trkpt lat="45.874134785552144" lon="10.181371800336708"><ele>240.0</ele><time>2026-04-27T11:50:50.998Z</time></trkpt><trkpt lat="45.87397351448484" lon="10.181142673257474"><ele>241.0</ele><time>2026-04-27T11:50:51.998Z</time></trkpt><trkpt lat="45.873824681577936" lon="10.180910749993156"><ele>241.0</ele><time>2026-04-27T11:50:52.998Z</time></trkpt><trkpt lat="45.87368903992273" lon="10.18070714951237"><ele>241.0</ele><time>2026-04-27T11:50:53.998Z</time></trkpt><trkpt lat="45.873556193599875" lon="10.180501836189148"><ele>241.0</ele><time>2026-04-27T11:50:54.998Z</time></trkpt><trkpt lat="45.87343450250008" lon="10.180306247402697"><ele>242.33333333333331</ele><time>2026-04-27T11:50:55.998Z</time></trkpt><trkpt lat="45.87329697935526" lon="10.180092052517134"><ele>243.66666666666669</ele><time>2026-04-27T11:50:56.998Z</time></trkpt><trkpt lat="45.87317111890803" lon="10.179879650229017"><ele>245.0</ele><time>2026-04-27T11:50:57.998Z</time></trkpt><trkpt lat="45.87303459010549" lon="10.179660611313961"><ele>242.33333333333334</ele><time>2026-04-27T11:50:58.998Z</time></trkpt><trkpt lat="45.87292046980685" lon="10.179469907507736"><ele>239.66666666666669</ele><time>2026-04-27T11:50:59.998Z</time></trkpt><trkpt lat="45.87280373309738" lon="10.179276059153757"><ele>237.0</ele><time>2026-04-27T11:51:00.998Z</time></trkpt><trkpt lat="45.87268107771904" lon="10.1790522000901"><ele>236.33333333333331</ele><time>2026-04-27T11:51:01.998Z</time></trkpt><trkpt lat="45.87257615441585" lon="10.178831779260625"><ele>235.66666666666666</ele><time>2026-04-27T11:51:02.998Z</time></trkpt><trkpt lat="45.87247110875128" lon="10.178605320835679"><ele>235.0</ele><time>2026-04-27T11:51:03.998Z</time></trkpt><trkpt lat="45.872387599389945" lon="10.17839879234419"><ele>235.0</ele><time>2026-04-27T11:51:04.998Z</time></trkpt><trkpt lat="45.8723114838647" lon="10.178190014420569"><ele>235.0</ele><time>2026-04-27T11:51:05.998Z</time></trkpt><trkpt lat="45.87224099224758" lon="10.177966920484462"><ele>235.0</ele><time>2026-04-27T11:51:06.998Z</time></trkpt><trkpt lat="45.872167582405034" lon="10.177733488854694"><ele>235.0</ele><time>2026-04-27T11:51:07.998Z</time></trkpt><trkpt lat="45.872099202079674" lon="10.177501831141313"><ele>235.0</ele><time>2026-04-27T11:51:08.998Z</time></trkpt><trkpt lat="45.87203515447551" lon="10.177259290850785"><ele>235.0</ele><time>2026-04-27T11:51:09.998Z</time></trkpt><trkpt lat="45.87197495083967" lon="10.177017547222283"><ele>233.66666666666666</ele><time>2026-04-27T11:51:10.998Z</time></trkpt><trkpt lat="45.87192354950508" lon="10.176763898178923"><ele>232.33333333333331</ele><time>2026-04-27T11:51:11.998Z</time></trkpt><trkpt lat="45.87188423762921" lon="10.176492572541159"><ele>231.0</ele><time>2026-04-27T11:51:12.998Z</time></trkpt><trkpt lat="45.87184485942205" lon="10.176191870336604"><ele>229.0</ele><time>2026-04-27T11:51:13.998Z</time></trkpt><trkpt lat="45.87183415893607" lon="10.17585559084794"><ele>227.0</ele><time>2026-04-27T11:51:14.998Z</time></trkpt><trkpt lat="45.87182546687924" lon="10.175542285074998"><ele>225.66666666666669</ele><time>2026-04-27T11:51:15.998Z</time></trkpt><trkpt lat="45.87182392660263" lon="10.175222638729808"><ele>224.33333333333331</ele><time>2026-04-27T11:51:16.998Z</time></trkpt><trkpt lat="45.87183533236765" lon="10.174936980087965"><ele>223.0</ele><time>2026-04-27T11:51:17.998Z</time></trkpt><trkpt lat="45.87184707066967" lon="10.174656666808247"><ele>222.66666666666666</ele><time>2026-04-27T11:51:18.998Z</time></trkpt><trkpt lat="45.87186125841274" lon="10.174362466543387"><ele>222.33333333333331</ele><time>2026-04-27T11:51:19.998Z</time></trkpt><trkpt lat="45.87187636580995" lon="10.174070786854735"><ele>222.0</ele><time>2026-04-27T11:51:20.998Z</time></trkpt><trkpt lat="45.87188604329897" lon="10.173805854606314"><ele>221.33333333333331</ele><time>2026-04-27T11:51:21.998Z</time></trkpt><trkpt lat="45.87189796650238" lon="10.173559606897523"><ele>220.66666666666666</ele><time>2026-04-27T11:51:22.998Z</time></trkpt><trkpt lat="45.871903535103506" lon="10.17331343968437"><ele>220.0</ele><time>2026-04-27T11:51:23.998Z</time></trkpt><trkpt lat="45.87191233556682" lon="10.173092261248646"><ele>219.33333333333331</ele><time>2026-04-27T11:51:24.998Z</time></trkpt><trkpt lat="45.87193085326203" lon="10.17286867428332"><ele>218.66666666666669</ele><time>2026-04-27T11:51:25.998Z</time></trkpt><trkpt lat="45.87194628591129" lon="10.172611780242189"><ele>218.0</ele><time>2026-04-27T11:51:26.998Z</time></trkpt><trkpt lat="45.87195862246025" lon="10.172326159959873"><ele>216.66666666666669</ele><time>2026-04-27T11:51:27.998Z</time></trkpt><trkpt lat="45.87197064134305" lon="10.172018460186013"><ele>215.33333333333331</ele><time>2026-04-27T11:51:28.998Z</time></trkpt><trkpt lat="45.871987157793576" lon="10.171717967222715"><ele>214.0</ele><time>2026-04-27T11:51:29.998Z</time></trkpt><trkpt lat="45.87200817162614" lon="10.171422413707258"><ele>214.0</ele><time>2026-04-27T11:51:30.998Z</time></trkpt><trkpt lat="45.87202519957363" lon="10.17113805811875"><ele>214.0</ele><time>2026-04-27T11:51:31.998Z</time></trkpt><trkpt lat="45.87204014670648" lon="10.170832922310453"><ele>214.0</ele><time>2026-04-27T11:51:32.998Z</time></trkpt><trkpt lat="45.87205542059042" lon="10.170535522491182"><ele>214.0</ele><time>2026-04-27T11:51:33.998Z</time></trkpt><trkpt lat="45.872072719464754" lon="10.170256072900735"><ele>214.0</ele><time>2026-04-27T11:51:34.998Z</time></trkpt><trkpt lat="45.872091408186044" lon="10.169957535017296"><ele>214.0</ele><time>2026-04-27T11:51:35.998Z</time></trkpt><trkpt lat="45.87210761020862" lon="10.169638126539054"><ele>214.0</ele><time>2026-04-27T11:51:36.998Z</time></trkpt><trkpt lat="45.87212458926995" lon="10.169289713921192"><ele>214.0</ele><time>2026-04-27T11:51:37.998Z</time></trkpt><trkpt lat="45.87214908601424" lon="10.16896055065356"><ele>214.0</ele><time>2026-04-27T11:51:38.998Z</time></trkpt><trkpt lat="45.87217122947795" lon="10.168661509929235"><ele>214.0</ele><time>2026-04-27T11:51:39.998Z</time></trkpt><trkpt lat="45.872184245471445" lon="10.168350820778572"><ele>214.0</ele><time>2026-04-27T11:51:40.998Z</time></trkpt><trkpt lat="45.872204754455645" lon="10.16807456950809"><ele>213.0</ele><time>2026-04-27T11:51:41.998Z</time></trkpt><trkpt lat="45.872226733733584" lon="10.167788237239124"><ele>212.0</ele><time>2026-04-27T11:51:42.998Z</time></trkpt><trkpt lat="45.872246496400436" lon="10.167500210150026"><ele>211.0</ele><time>2026-04-27T11:51:43.998Z</time></trkpt><trkpt lat="45.87226004858964" lon="10.167208788114216"><ele>210.66666666666666</ele><time>2026-04-27T11:51:44.998Z</time></trkpt><trkpt lat="45.87228057528827" lon="10.166926785326655"><ele>210.33333333333331</ele><time>2026-04-27T11:51:45.998Z</time></trkpt><trkpt lat="45.87229240847697" lon="10.166654792027801"><ele>210.0</ele><time>2026-04-27T11:51:46.998Z</time></trkpt><trkpt lat="45.87229904666368" lon="10.166365660588472"><ele>210.0</ele><time>2026-04-27T11:51:47.998Z</time></trkpt><trkpt lat="45.872299157371536" lon="10.166067372810534"><ele>210.0</ele><time>2026-04-27T11:51:48.998Z</time></trkpt><trkpt lat="45.87229333604618" lon="10.165776710023184"><ele>210.0</ele><time>2026-04-27T11:51:49.998Z</time></trkpt><trkpt lat="45.87228917590327" lon="10.165511951398265"><ele>210.0</ele><time>2026-04-27T11:51:50.998Z</time></trkpt><trkpt lat="45.872273786492585" lon="10.165239202834218"><ele>210.0</ele><time>2026-04-27T11:51:51.998Z</time></trkpt><trkpt lat="45.872261028622084" lon="10.164975089439734"><ele>210.0</ele><time>2026-04-27T11:51:52.998Z</time></trkpt><trkpt lat="45.87223612583334" lon="10.164702634157392"><ele>209.33333333333331</ele><time>2026-04-27T11:51:53.998Z</time></trkpt><trkpt lat="45.87219571434529" lon="10.164411953524633"><ele>208.66666666666666</ele><time>2026-04-27T11:51:54.998Z</time></trkpt><trkpt lat="45.872141041787984" lon="10.164114925623013"><ele>208.0</ele><time>2026-04-27T11:51:55.998Z</time></trkpt><trkpt lat="45.872070582508705" lon="10.163821302045875"><ele>207.0</ele><time>2026-04-27T11:51:56.998Z</time></trkpt><trkpt lat="45.87200052321092" lon="10.163548205980346"><ele>206.0</ele><time>2026-04-27T11:51:57.998Z</time></trkpt><trkpt lat="45.8719251421745" lon="10.163286185411764"><ele>205.0</ele><time>2026-04-27T11:51:58.998Z</time></trkpt><trkpt lat="45.87183307303891" lon="10.163016697275722"><ele>205.66666666666666</ele><time>2026-04-27T11:51:59.998Z</time></trkpt><trkpt lat="45.87173276921281" lon="10.162759563548372"><ele>206.33333333333331</ele><time>2026-04-27T11:52:00.998Z</time></trkpt><trkpt lat="45.871611476549106" lon="10.16249425721914"><ele>207.0</ele><time>2026-04-27T11:52:01.998Z</time></trkpt><trkpt lat="45.87149388405772" lon="10.162245766260144"><ele>207.33333333333331</ele><time>2026-04-27T11:52:02.998Z</time></trkpt><trkpt lat="45.871365301213416" lon="10.16200709984051"><ele>207.66666666666666</ele><time>2026-04-27T11:52:03.998Z</time></trkpt><trkpt lat="45.87121772223473" lon="10.161782054273683"><ele>208.0</ele><time>2026-04-27T11:52:04.998Z</time></trkpt><trkpt lat="45.87108159161839" lon="10.161579216188159"><ele>208.0</ele><time>2026-04-27T11:52:05.998Z</time></trkpt><trkpt lat="45.87094415993761" lon="10.161404895819233"><ele>208.0</ele><time>2026-04-27T11:52:06.998Z</time></trkpt><trkpt lat="45.87080083918706" lon="10.161237941110075"><ele>208.0</ele><time>2026-04-27T11:52:07.998Z</time></trkpt><trkpt lat="45.870645144035365" lon="10.161068405767734"><ele>207.66666666666666</ele><time>2026-04-27T11:52:08.998Z</time></trkpt><trkpt lat="45.87048911671113" lon="10.160916348110767"><ele>207.33333333333331</ele><time>2026-04-27T11:52:09.998Z</time></trkpt><trkpt lat="45.87033993894801" lon="10.160748021984565"><ele>207.0</ele><time>2026-04-27T11:52:10.998Z</time></trkpt><trkpt lat="45.87019309892984" lon="10.160612843794864"><ele>206.33333333333331</ele><time>2026-04-27T11:52:11.998Z</time></trkpt><trkpt lat="45.8700201803094" lon="10.160490203583638"><ele>205.66666666666666</ele><time>2026-04-27T11:52:12.998Z</time></trkpt><trkpt lat="45.86984266872289" lon="10.160368694619454"><ele>205.0</ele><time>2026-04-27T11:52:13.998Z</time></trkpt><trkpt lat="45.869661384105385" lon="10.160248748709513"><ele>205.0</ele><time>2026-04-27T11:52:14.998Z</time></trkpt><trkpt lat="45.8694802337768" lon="10.160130288213157"><ele>205.0</ele><time>2026-04-27T11:52:15.998Z</time></trkpt><trkpt lat="45.869294351959034" lon="10.160008835433372"><ele>205.0</ele><time>2026-04-27T11:52:16.998Z</time></trkpt><trkpt lat="45.86912092297953" lon="10.159892966700495"><ele>204.0</ele><time>2026-04-27T11:52:17.998Z</time></trkpt><trkpt lat="45.868940191539956" lon="10.159773988901886"><ele>203.0</ele><time>2026-04-27T11:52:18.998Z</time></trkpt><trkpt lat="45.86875535867379" lon="10.159663831654962"><ele>202.0</ele><time>2026-04-27T11:52:19.998Z</time></trkpt><trkpt lat="45.86857909779418" lon="10.159564444349899"><ele>203.33333333333331</ele><time>2026-04-27T11:52:20.998Z</time></trkpt><trkpt lat="45.86839419874411" lon="10.15945030636436"><ele>204.66666666666669</ele><time>2026-04-27T11:52:21.998Z</time></trkpt><trkpt lat="45.8682128034703" lon="10.159332071391354"><ele>206.0</ele><time>2026-04-27T11:52:22.998Z</time></trkpt><trkpt lat="45.868021384999906" lon="10.159206992040545"><ele>206.0</ele><time>2026-04-27T11:52:23.998Z</time></trkpt><trkpt lat="45.86781395732737" lon="10.159071449801882"><ele>206.0</ele><time>2026-04-27T11:52:24.998Z</time></trkpt><trkpt lat="45.867587170301945" lon="10.158923396956748"><ele>205.5</ele><time>2026-04-27T11:52:25.998Z</time></trkpt><trkpt lat="45.8673562480698" lon="10.158772737827187"><ele>205.0</ele><time>2026-04-27T11:52:26.998Z</time></trkpt><trkpt lat="45.867125960519076" lon="10.158622490620731"><ele>205.0</ele><time>2026-04-27T11:52:27.998Z</time></trkpt><trkpt lat="45.86690273632528" lon="10.158475776602595"><ele>205.0</ele><time>2026-04-27T11:52:28.998Z</time></trkpt><trkpt lat="45.86669945033872" lon="10.158341836016563"><ele>205.66666666666666</ele><time>2026-04-27T11:52:29.998Z</time></trkpt><trkpt lat="45.86650931265098" lon="10.158216558736797"><ele>206.33333333333331</ele><time>2026-04-27T11:52:30.998Z</time></trkpt><trkpt lat="45.8663154281283" lon="10.158088812711554"><ele>207.0</ele><time>2026-04-27T11:52:31.998Z</time></trkpt><trkpt lat="45.866129248427846" lon="10.157967236323426"><ele>207.0</ele><time>2026-04-27T11:52:32.998Z</time></trkpt><trkpt lat="45.8659483985074" lon="10.157850022716238"><ele>207.0</ele><time>2026-04-27T11:52:33.998Z</time></trkpt><trkpt lat="45.86575526729815" lon="10.157724849461164"><ele>207.0</ele><time>2026-04-27T11:52:34.998Z</time></trkpt><trkpt lat="45.86557387951804" lon="10.157607287654837"><ele>207.33333333333331</ele><time>2026-04-27T11:52:35.998Z</time></trkpt><trkpt lat="45.865390448818964" lon="10.157488401801343"><ele>207.66666666666666</ele><time>2026-04-27T11:52:36.998Z</time></trkpt><trkpt lat="45.865201180073285" lon="10.157365731700837"><ele>208.0</ele><time>2026-04-27T11:52:37.998Z</time></trkpt><trkpt lat="45.8650189300497" lon="10.157246373445147"><ele>206.66666666666666</ele><time>2026-04-27T11:52:38.998Z</time></trkpt><trkpt lat="45.86484395602057" lon="10.157131602431788"><ele>205.33333333333331</ele><time>2026-04-27T11:52:39.998Z</time></trkpt><trkpt lat="45.86468175953931" lon="10.15702521235405"><ele>204.0</ele><time>2026-04-27T11:52:40.998Z</time></trkpt><trkpt lat="45.864523215812135" lon="10.156921218493368"><ele>204.0</ele><time>2026-04-27T11:52:41.998Z</time></trkpt><trkpt lat="45.8643648491211" lon="10.156817340620053"><ele>204.0</ele><time>2026-04-27T11:52:42.998Z</time></trkpt><trkpt lat="45.864214688401205" lon="10.156718845429351"><ele>204.0</ele><time>2026-04-27T11:52:43.998Z</time></trkpt><trkpt lat="45.86405518902855" lon="10.156614224414195"><ele>204.0</ele><time>2026-04-27T11:52:44.998Z</time></trkpt><trkpt lat="45.86389549220874" lon="10.156509474224265"><ele>204.0</ele><time>2026-04-27T11:52:45.998Z</time></trkpt><trkpt lat="45.86373643528474" lon="10.15640533855576"><ele>204.0</ele><time>2026-04-27T11:52:46.998Z</time></trkpt><trkpt lat="45.8635693212201" lon="10.156296014325982"><ele>204.0</ele><time>2026-04-27T11:52:47.998Z</time></trkpt><trkpt lat="45.86340100664126" lon="10.156185904583369"><ele>204.0</ele><time>2026-04-27T11:52:48.998Z</time></trkpt><trkpt lat="45.86325148307542" lon="10.156088088027555"><ele>204.0</ele><time>2026-04-27T11:52:49.998Z</time></trkpt><trkpt lat="45.86309680836994" lon="10.155986901501436"><ele>204.0</ele><time>2026-04-27T11:52:50.998Z</time></trkpt><trkpt lat="45.86294933588411" lon="10.15589042653906"><ele>204.0</ele><time>2026-04-27T11:52:51.998Z</time></trkpt><trkpt lat="45.862790623402475" lon="10.155786428473089"><ele>204.0</ele><time>2026-04-27T11:52:52.998Z</time></trkpt><trkpt lat="45.86263960703828" lon="10.155686667287155"><ele>204.0</ele><time>2026-04-27T11:52:53.998Z</time></trkpt><trkpt lat="45.86247876030773" lon="10.155577168650982"><ele>204.0</ele><time>2026-04-27T11:52:54.998Z</time></trkpt><trkpt lat="45.86232550566985" lon="10.155467920309958"><ele>204.0</ele><time>2026-04-27T11:52:55.998Z</time></trkpt><trkpt lat="45.8621607690317" lon="10.155370824538489"><ele>204.0</ele><time>2026-04-27T11:52:56.998Z</time></trkpt><trkpt lat="45.8620076241804" lon="10.15523137998713"><ele>204.0</ele><time>2026-04-27T11:52:57.998Z</time></trkpt><trkpt lat="45.86185230135468" lon="10.15511129372474"><ele>204.0</ele><time>2026-04-27T11:52:58.998Z</time></trkpt><trkpt lat="45.86171571126386" lon="10.155001535873879"><ele>204.33333333333331</ele><time>2026-04-27T11:52:59.998Z</time></trkpt><trkpt lat="45.861564583936534" lon="10.154876465786913"><ele>204.66666666666666</ele><time>2026-04-27T11:53:00.998Z</time></trkpt><trkpt lat="45.86141206870576" lon="10.15474702101151"><ele>205.0</ele><time>2026-04-27T11:53:01.998Z</time></trkpt><trkpt lat="45.861265783319766" lon="10.154618856240605"><ele>205.0</ele><time>2026-04-27T11:53:02.998Z</time></trkpt><trkpt lat="45.86112164473808" lon="10.154488452388353"><ele>205.0</ele><time>2026-04-27T11:53:03.998Z</time></trkpt><trkpt lat="45.86098318415476" lon="10.154363188951427"><ele>205.0</ele><time>2026-04-27T11:53:04.998Z</time></trkpt><trkpt lat="45.86083750316544" lon="10.154231393575309"><ele>205.0</ele><time>2026-04-27T11:53:05.998Z</time></trkpt><trkpt lat="45.86068402648411" lon="10.154118737475203"><ele>205.0</ele><time>2026-04-27T11:53:06.998Z</time></trkpt><trkpt lat="45.860555075258404" lon="10.153969952185902"><ele>205.0</ele><time>2026-04-27T11:53:07.998Z</time></trkpt><trkpt lat="45.86042743792512" lon="10.153839365168766"><ele>205.0</ele><time>2026-04-27T11:53:08.998Z</time></trkpt><trkpt lat="45.860297612074675" lon="10.153702489770632"><ele>205.0</ele><time>2026-04-27T11:53:09.998Z</time></trkpt><trkpt lat="45.86017613129961" lon="10.153571046661408"><ele>205.0</ele><time>2026-04-27T11:53:10.998Z</time></trkpt><trkpt lat="45.86005915913838" lon="10.153442416303117"><ele>204.66666666666666</ele><time>2026-04-27T11:53:11.998Z</time></trkpt><trkpt lat="45.859938986457664" lon="10.153309365999815"><ele>204.33333333333331</ele><time>2026-04-27T11:53:12.998Z</time></trkpt><trkpt lat="45.85981979225381" lon="10.153165650398863"><ele>204.0</ele><time>2026-04-27T11:53:13.998Z</time></trkpt><trkpt lat="45.859708717693714" lon="10.15302911341391"><ele>204.0</ele><time>2026-04-27T11:53:14.998Z</time></trkpt><trkpt lat="45.859591088709195" lon="10.152884564159992"><ele>204.0</ele><time>2026-04-27T11:53:15.998Z</time></trkpt><trkpt lat="45.8594857610062" lon="10.152744120156614"><ele>204.0</ele><time>2026-04-27T11:53:16.998Z</time></trkpt><trkpt lat="45.8593835798333" lon="10.15259968850438"><ele>204.0</ele><time>2026-04-27T11:53:17.998Z</time></trkpt><trkpt lat="45.85924011998047" lon="10.152427110246578"><ele>203.5</ele><time>2026-04-27T11:53:18.998Z</time></trkpt><trkpt lat="45.85907349884399" lon="10.152232623990194"><ele>203.0</ele><time>2026-04-27T11:53:19.998Z</time></trkpt><trkpt lat="45.85888990689248" lon="10.152009398379798"><ele>203.0</ele><time>2026-04-27T11:53:20.998Z</time></trkpt><trkpt lat="45.85871100035175" lon="10.151776981049153"><ele>203.0</ele><time>2026-04-27T11:53:21.998Z</time></trkpt><trkpt lat="45.85851375807758" lon="10.151530792224065"><ele>203.0</ele><time>2026-04-27T11:53:22.998Z</time></trkpt><trkpt lat="45.85832592610372" lon="10.151274532974668"><ele>203.0</ele><time>2026-04-27T11:53:23.998Z</time></trkpt><trkpt lat="45.8581228201058" lon="10.151026885642638"><ele>203.0</ele><time>2026-04-27T11:53:24.998Z</time></trkpt><trkpt lat="45.857933421007594" lon="10.150781835236629"><ele>203.0</ele><time>2026-04-27T11:53:25.998Z</time></trkpt><trkpt lat="45.857763372482445" lon="10.15057227213917"><ele>202.66666666666669</ele><time>2026-04-27T11:53:26.998Z</time></trkpt><trkpt lat="45.85761897407904" lon="10.150385516830458"><ele>202.33333333333331</ele><time>2026-04-27T11:53:27.998Z</time></trkpt><trkpt lat="45.857467025195966" lon="10.150204929339834"><ele>202.0</ele><time>2026-04-27T11:53:28.998Z</time></trkpt><trkpt lat="45.85732840803801" lon="10.150040654856923"><ele>202.0</ele><time>2026-04-27T11:53:29.998Z</time></trkpt><trkpt lat="45.857187478919805" lon="10.149860080861387"><ele>202.0</ele><time>2026-04-27T11:53:30.998Z</time></trkpt><trkpt lat="45.857035142609895" lon="10.149672047645902"><ele>202.0</ele><time>2026-04-27T11:53:31.998Z</time></trkpt><trkpt lat="45.85687419604284" lon="10.14947411855432"><ele>202.33333333333331</ele><time>2026-04-27T11:53:32.998Z</time></trkpt><trkpt lat="45.856728197304186" lon="10.149280396823611"><ele>202.66666666666669</ele><time>2026-04-27T11:53:33.998Z</time></trkpt><trkpt lat="45.85655728584365" lon="10.149072258045939"><ele>203.0</ele><time>2026-04-27T11:53:34.998Z</time></trkpt><trkpt lat="45.85640911961467" lon="10.148880008379958"><ele>203.0</ele><time>2026-04-27T11:53:35.998Z</time></trkpt><trkpt lat="45.856263571744734" lon="10.148691161972415"><ele>203.0</ele><time>2026-04-27T11:53:36.998Z</time></trkpt><trkpt lat="45.85610253214964" lon="10.148485006734594"><ele>203.0</ele><time>2026-04-27T11:53:37.998Z</time></trkpt><trkpt lat="45.855923770943065" lon="10.148273492237486"><ele>203.33333333333334</ele><time>2026-04-27T11:53:38.998Z</time></trkpt><trkpt lat="45.855761840475196" lon="10.148075280301347"><ele>203.66666666666669</ele><time>2026-04-27T11:53:39.998Z</time></trkpt><trkpt lat="45.85562213403044" lon="10.14788114256119"><ele>204.0</ele><time>2026-04-27T11:53:40.998Z</time></trkpt><trkpt lat="45.855490493778326" lon="10.147709990097194"><ele>204.0</ele><time>2026-04-27T11:53:41.998Z</time></trkpt><trkpt lat="45.85536547554072" lon="10.147540574491913"><ele>204.0</ele><time>2026-04-27T11:53:42.998Z</time></trkpt><trkpt lat="45.8552641036977" lon="10.14738976372041"><ele>204.0</ele><time>2026-04-27T11:53:43.998Z</time></trkpt><trkpt lat="45.85513595792024" lon="10.147230417709906"><ele>204.0</ele><time>2026-04-27T11:53:44.998Z</time></trkpt><trkpt lat="45.85499580336358" lon="10.147056228877656"><ele>204.0</ele><time>2026-04-27T11:53:45.998Z</time></trkpt><trkpt lat="45.854856195414854" lon="10.146895724596273"><ele>204.0</ele><time>2026-04-27T11:53:46.998Z</time></trkpt><trkpt lat="45.85472102213739" lon="10.146721863619112"><ele>203.33333333333331</ele><time>2026-04-27T11:53:47.998Z</time></trkpt><trkpt lat="45.85456525730701" lon="10.146536338684626"><ele>202.66666666666666</ele><time>2026-04-27T11:53:48.998Z</time></trkpt><trkpt lat="45.85438216933037" lon="10.146326531395214"><ele>202.0</ele><time>2026-04-27T11:53:49.998Z</time></trkpt><trkpt lat="45.85418544583916" lon="10.146093824327304"><ele>202.0</ele><time>2026-04-27T11:53:50.998Z</time></trkpt><trkpt lat="45.85399794779061" lon="10.14585312601616"><ele>202.0</ele><time>2026-04-27T11:53:51.998Z</time></trkpt><trkpt lat="45.85380912438595" lon="10.145612780012897"><ele>202.0</ele><time>2026-04-27T11:53:52.998Z</time></trkpt><trkpt lat="45.853627118451406" lon="10.145373315784948"><ele>202.0</ele><time>2026-04-27T11:53:53.998Z</time></trkpt><trkpt lat="45.85345492779044" lon="10.145151254327718"><ele>202.66666666666666</ele><time>2026-04-27T11:53:54.998Z</time></trkpt><trkpt lat="45.85328961804319" lon="10.14494088932606"><ele>203.33333333333331</ele><time>2026-04-27T11:53:55.998Z</time></trkpt><trkpt lat="45.853133723905046" lon="10.144707245189228"><ele>204.0</ele><time>2026-04-27T11:53:56.998Z</time></trkpt><trkpt lat="45.85295837689269" lon="10.144486018476533"><ele>204.0</ele><time>2026-04-27T11:53:57.998Z</time></trkpt><trkpt lat="45.85280273420004" lon="10.144289589162508"><ele>204.0</ele><time>2026-04-27T11:53:58.998Z</time></trkpt><trkpt lat="45.85263410179031" lon="10.144076720324174"><ele>204.0</ele><time>2026-04-27T11:53:59.998Z</time></trkpt><trkpt lat="45.852462402414034" lon="10.143859919650364"><ele>203.0</ele><time>2026-04-27T11:54:00.998Z</time></trkpt><trkpt lat="45.85230000795652" lon="10.143654868053718"><ele>202.0</ele><time>2026-04-27T11:54:01.998Z</time></trkpt><trkpt lat="45.85212989072733" lon="10.143441337161267"><ele>201.0</ele><time>2026-04-27T11:54:02.998Z</time></trkpt><trkpt lat="45.851960250314434" lon="10.143227949950363"><ele>200.66666666666669</ele><time>2026-04-27T11:54:03.998Z</time></trkpt><trkpt lat="45.851809033827564" lon="10.1430377378057"><ele>200.33333333333334</ele><time>2026-04-27T11:54:04.998Z</time></trkpt><trkpt lat="45.851655290480274" lon="10.142843701000526"><ele>200.0</ele><time>2026-04-27T11:54:05.998Z</time></trkpt><trkpt lat="45.851504493927145" lon="10.142653178603805"><ele>200.66666666666669</ele><time>2026-04-27T11:54:06.998Z</time></trkpt><trkpt lat="45.85135220274747" lon="10.142460767848478"><ele>201.33333333333331</ele><time>2026-04-27T11:54:07.998Z</time></trkpt><trkpt lat="45.85121569278271" lon="10.142288295698076"><ele>202.0</ele><time>2026-04-27T11:54:08.998Z</time></trkpt><trkpt lat="45.851061006281135" lon="10.14209213769662"><ele>201.66666666666666</ele><time>2026-04-27T11:54:09.998Z</time></trkpt><trkpt lat="45.850916100160305" lon="10.141907955920756"><ele>201.33333333333331</ele><time>2026-04-27T11:54:10.998Z</time></trkpt><trkpt lat="45.85076294826681" lon="10.141713293413737"><ele>201.0</ele><time>2026-04-27T11:54:11.998Z</time></trkpt><trkpt lat="45.85062661325928" lon="10.14154001257327"><ele>200.0</ele><time>2026-04-27T11:54:12.998Z</time></trkpt><trkpt lat="45.850480070286125" lon="10.141355688563863"><ele>199.0</ele><time>2026-04-27T11:54:13.998Z</time></trkpt><trkpt lat="45.85032670209774" lon="10.141162901785227"><ele>198.0</ele><time>2026-04-27T11:54:14.998Z</time></trkpt><trkpt lat="45.85015225240339" lon="10.140944234068828"><ele>198.5</ele><time>2026-04-27T11:54:15.998Z</time></trkpt><trkpt lat="45.84997435569474" lon="10.140720557106672"><ele>199.0</ele><time>2026-04-27T11:54:16.998Z</time></trkpt><trkpt lat="45.849786340715546" lon="10.140484157983147"><ele>199.0</ele><time>2026-04-27T11:54:17.998Z</time></trkpt><trkpt lat="45.849612304204584" lon="10.140263901626309"><ele>199.0</ele><time>2026-04-27T11:54:18.998Z</time></trkpt><trkpt lat="45.84946127243138" lon="10.140073188345761"><ele>199.0</ele><time>2026-04-27T11:54:19.998Z</time></trkpt><trkpt lat="45.84931432403659" lon="10.139887576443476"><ele>198.66666666666666</ele><time>2026-04-27T11:54:20.998Z</time></trkpt><trkpt lat="45.84917352306047" lon="10.139710384894807"><ele>198.33333333333331</ele><time>2026-04-27T11:54:21.998Z</time></trkpt><trkpt lat="45.84903497842115" lon="10.139538427919762"><ele>198.0</ele><time>2026-04-27T11:54:22.998Z</time></trkpt><trkpt lat="45.8488869697919" lon="10.139357217595823"><ele>198.0</ele><time>2026-04-27T11:54:23.998Z</time></trkpt><trkpt lat="45.84874235412306" lon="10.139181736053771"><ele>198.0</ele><time>2026-04-27T11:54:24.998Z</time></trkpt><trkpt lat="45.848594634942124" lon="10.139004143548396"><ele>198.0</ele><time>2026-04-27T11:54:25.998Z</time></trkpt><trkpt lat="45.84845242018626" lon="10.138838431313765"><ele>198.0</ele><time>2026-04-27T11:54:26.998Z</time></trkpt><trkpt lat="45.84830386899574" lon="10.138669215559995"><ele>198.0</ele><time>2026-04-27T11:54:27.998Z</time></trkpt><trkpt lat="45.848136106811324" lon="10.138491004487138"><ele>198.0</ele><time>2026-04-27T11:54:28.998Z</time></trkpt><trkpt lat="45.84799222343056" lon="10.138335058882511"><ele>198.0</ele><time>2026-04-27T11:54:29.998Z</time></trkpt><trkpt lat="45.84784910690849" lon="10.13818210793834"><ele>198.0</ele><time>2026-04-27T11:54:30.998Z</time></trkpt><trkpt lat="45.84770665902328" lon="10.138031451350283"><ele>198.0</ele><time>2026-04-27T11:54:31.998Z</time></trkpt><trkpt lat="45.84754558594804" lon="10.137873523876674"><ele>198.33333333333331</ele><time>2026-04-27T11:54:32.998Z</time></trkpt><trkpt lat="45.84737785911109" lon="10.137715669431538"><ele>198.66666666666666</ele><time>2026-04-27T11:54:33.998Z</time></trkpt><trkpt lat="45.847213207711235" lon="10.1375646817244"><ele>199.0</ele><time>2026-04-27T11:54:34.998Z</time></trkpt><trkpt lat="45.847054698783886" lon="10.137422563799225"><ele>198.33333333333331</ele><time>2026-04-27T11:54:35.998Z</time></trkpt><trkpt lat="45.84689234087919" lon="10.137279619297153"><ele>197.66666666666669</ele><time>2026-04-27T11:54:36.998Z</time></trkpt><trkpt lat="45.846738519361665" lon="10.137144190486556"><ele>197.0</ele><time>2026-04-27T11:54:37.997Z</time></trkpt><trkpt lat="45.84658592311746" lon="10.137009737431764"><ele>197.66666666666669</ele><time>2026-04-27T11:54:38.997Z</time></trkpt><trkpt lat="45.84641904796575" lon="10.136860994886634"><ele>198.33333333333331</ele><time>2026-04-27T11:54:39.997Z</time></trkpt><trkpt lat="45.84623453903229" lon="10.136696505888631"><ele>199.0</ele><time>2026-04-27T11:54:40.997Z</time></trkpt><trkpt lat="45.846040594655435" lon="10.136526749898156"><ele>199.33333333333331</ele><time>2026-04-27T11:54:41.997Z</time></trkpt><trkpt lat="45.84583907143301" lon="10.136351200212134"><ele>199.66666666666669</ele><time>2026-04-27T11:54:42.997Z</time></trkpt><trkpt lat="45.845657801259236" lon="10.136190820552008"><ele>200.0</ele><time>2026-04-27T11:54:43.997Z</time></trkpt><trkpt lat="45.84549759636133" lon="10.136049078488195"><ele>200.0</ele><time>2026-04-27T11:54:44.997Z</time></trkpt><trkpt lat="45.84534476806181" lon="10.135913859845676"><ele>200.0</ele><time>2026-04-27T11:54:45.997Z</time></trkpt><trkpt lat="45.84519374855282" lon="10.135780718365803"><ele>200.0</ele><time>2026-04-27T11:54:46.997Z</time></trkpt><trkpt lat="45.84504341153172" lon="10.135648178531785"><ele>199.0</ele><time>2026-04-27T11:54:47.997Z</time></trkpt><trkpt lat="45.84489340831964" lon="10.135515933004802"><ele>198.0</ele><time>2026-04-27T11:54:48.997Z</time></trkpt><trkpt lat="45.84473635775874" lon="10.135377474407173"><ele>197.0</ele><time>2026-04-27T11:54:49.997Z</time></trkpt><trkpt lat="45.8445768092229" lon="10.13523681360465"><ele>197.0</ele><time>2026-04-27T11:54:50.997Z</time></trkpt><trkpt lat="45.844440339617876" lon="10.135116499450572"><ele>197.0</ele><time>2026-04-27T11:54:51.997Z</time></trkpt><trkpt lat="45.84430240670085" lon="10.134994897769396"><ele>197.0</ele><time>2026-04-27T11:54:52.997Z</time></trkpt><trkpt lat="45.84417033948235" lon="10.134878107482018"><ele>196.33333333333334</ele><time>2026-04-27T11:54:53.997Z</time></trkpt><trkpt lat="45.84402697519265" lon="10.13474969622673"><ele>195.66666666666669</ele><time>2026-04-27T11:54:54.997Z</time></trkpt><trkpt lat="45.843863624606044" lon="10.134605853526793"><ele>195.0</ele><time>2026-04-27T11:54:55.997Z</time></trkpt><trkpt lat="45.84369246204971" lon="10.13445513308467"><ele>195.0</ele><time>2026-04-27T11:54:56.997Z</time></trkpt><trkpt lat="45.84350648028387" lon="10.134287880114087"><ele>195.0</ele><time>2026-04-27T11:54:57.997Z</time></trkpt><trkpt lat="45.84330802358932" lon="10.134114705594778"><ele>195.0</ele><time>2026-04-27T11:54:58.997Z</time></trkpt><trkpt lat="45.84309935677639" lon="10.133968014680114"><ele>195.0</ele><time>2026-04-27T11:54:59.996Z</time></trkpt><trkpt lat="45.84289309317733" lon="10.133782535909972"><ele>195.0</ele><time>2026-04-27T11:55:00.996Z</time></trkpt><trkpt lat="45.842688067599774" lon="10.133611936564117"><ele>195.0</ele><time>2026-04-27T11:55:01.996Z</time></trkpt><trkpt lat="45.84251485038435" lon="10.133455164692942"><ele>195.0</ele><time>2026-04-27T11:55:02.996Z</time></trkpt><trkpt lat="45.842348522407015" lon="10.133300061227258"><ele>196.0</ele><time>2026-04-27T11:55:03.996Z</time></trkpt><trkpt lat="45.842199774429666" lon="10.133165086009123"><ele>197.0</ele><time>2026-04-27T11:55:04.996Z</time></trkpt><trkpt lat="45.84205253920872" lon="10.133034371407959"><ele>198.0</ele><time>2026-04-27T11:55:05.996Z</time></trkpt><trkpt lat="45.84192442135166" lon="10.13290942475286"><ele>198.0</ele><time>2026-04-27T11:55:06.996Z</time></trkpt><trkpt lat="45.841790162717565" lon="10.132781738071325"><ele>198.0</ele><time>2026-04-27T11:55:07.996Z</time></trkpt><trkpt lat="45.841645593512595" lon="10.13265761307909"><ele>198.0</ele><time>2026-04-27T11:55:08.996Z</time></trkpt><trkpt lat="45.84151112435384" lon="10.13253645753798"><ele>198.0</ele><time>2026-04-27T11:55:09.996Z</time></trkpt><trkpt lat="45.84137598334363" lon="10.132415245427694"><ele>198.0</ele><time>2026-04-27T11:55:10.996Z</time></trkpt><trkpt lat="45.84124479233585" lon="10.132282162276942"><ele>198.0</ele><time>2026-04-27T11:55:11.996Z</time></trkpt><trkpt lat="45.841115756866515" lon="10.132144942205159"><ele>197.66666666666669</ele><time>2026-04-27T11:55:12.996Z</time></trkpt><trkpt lat="45.84100151465317" lon="10.1320101733915"><ele>197.33333333333334</ele><time>2026-04-27T11:55:13.996Z</time></trkpt><trkpt lat="45.84088698198164" lon="10.131864300252241"><ele>197.0</ele><time>2026-04-27T11:55:14.996Z</time></trkpt><trkpt lat="45.840770859919125" lon="10.131706279173658"><ele>197.0</ele><time>2026-04-27T11:55:15.996Z</time></trkpt><trkpt lat="45.840665789602035" lon="10.131544279483588"><ele>197.0</ele><time>2026-04-27T11:55:16.996Z</time></trkpt><trkpt lat="45.84055200193133" lon="10.131370228342893"><ele>197.0</ele><time>2026-04-27T11:55:17.996Z</time></trkpt><trkpt lat="45.8404444824898" lon="10.1311938435945"><ele>197.0</ele><time>2026-04-27T11:55:18.996Z</time></trkpt><trkpt lat="45.84033964482523" lon="10.131005386170447"><ele>197.0</ele><time>2026-04-27T11:55:19.996Z</time></trkpt><trkpt lat="45.840238370429454" lon="10.13081490768146"><ele>197.0</ele><time>2026-04-27T11:55:20.996Z</time></trkpt><trkpt lat="45.8401384887727" lon="10.130614049466198"><ele>197.0</ele><time>2026-04-27T11:55:21.996Z</time></trkpt><trkpt lat="45.84003841591695" lon="10.130410347568748"><ele>197.0</ele><time>2026-04-27T11:55:22.996Z</time></trkpt><trkpt lat="45.839953200325425" lon="10.130228592206086"><ele>197.0</ele><time>2026-04-27T11:55:23.996Z</time></trkpt><trkpt lat="45.839849185113465" lon="10.129992553165378"><ele>197.0</ele><time>2026-04-27T11:55:24.996Z</time></trkpt><trkpt lat="45.839725645901254" lon="10.129741050927501"><ele>197.0</ele><time>2026-04-27T11:55:25.996Z</time></trkpt><trkpt lat="45.839603487258664" lon="10.129527139849365"><ele>197.0</ele><time>2026-04-27T11:55:26.996Z</time></trkpt><trkpt lat="45.83950870890409" lon="10.1293231421143"><ele>197.0</ele><time>2026-04-27T11:55:27.996Z</time></trkpt><trkpt lat="45.83942448721219" lon="10.129135169910148"><ele>197.0</ele><time>2026-04-27T11:55:28.996Z</time></trkpt><trkpt lat="45.839344703323256" lon="10.128942649791604"><ele>197.0</ele><time>2026-04-27T11:55:29.996Z</time></trkpt><trkpt lat="45.83925733419799" lon="10.128753646857518"><ele>196.66666666666669</ele><time>2026-04-27T11:55:30.996Z</time></trkpt><trkpt lat="45.839165541687734" lon="10.128561180782834"><ele>196.33333333333331</ele><time>2026-04-27T11:55:31.996Z</time></trkpt><trkpt lat="45.83907927131564" lon="10.128381544296731"><ele>196.0</ele><time>2026-04-27T11:55:32.996Z</time></trkpt><trkpt lat="45.838993735564074" lon="10.128198362495734"><ele>195.75</ele><time>2026-04-27T11:55:33.996Z</time></trkpt><trkpt lat="45.83892061889032" lon="10.128030388237399"><ele>195.5</ele><time>2026-04-27T11:55:34.996Z</time></trkpt><trkpt lat="45.83884521155002" lon="10.127851531889666"><ele>195.25</ele><time>2026-04-27T11:55:35.996Z</time></trkpt><trkpt lat="45.838771876118244" lon="10.127661162670199"><ele>195.0</ele><time>2026-04-27T11:55:36.996Z</time></trkpt><trkpt lat="45.83870238527267" lon="10.127459939589832"><ele>195.0</ele><time>2026-04-27T11:55:37.996Z</time></trkpt><trkpt lat="45.838638054941555" lon="10.127254983368074"><ele>195.0</ele><time>2026-04-27T11:55:38.996Z</time></trkpt><trkpt lat="45.83856793330677" lon="10.12704541187545"><ele>195.0</ele><time>2026-04-27T11:55:39.996Z</time></trkpt><trkpt lat="45.838503647402575" lon="10.126851552350972"><ele>195.0</ele><time>2026-04-27T11:55:40.996Z</time></trkpt><trkpt lat="45.838436259241014" lon="10.1266645448578"><ele>195.0</ele><time>2026-04-27T11:55:41.996Z</time></trkpt><trkpt lat="45.83836750546101" lon="10.126479955956212"><ele>195.0</ele><time>2026-04-27T11:55:42.996Z</time></trkpt><trkpt lat="45.838286892243275" lon="10.126300974818355"><ele>195.0</ele><time>2026-04-27T11:55:43.996Z</time></trkpt><trkpt lat="45.83819381874494" lon="10.126130385480135"><ele>194.33333333333331</ele><time>2026-04-27T11:55:44.996Z</time></trkpt><trkpt lat="45.83807751021891" lon="10.125964778052294"><ele>193.66666666666666</ele><time>2026-04-27T11:55:45.996Z</time></trkpt><trkpt lat="45.83794769578971" lon="10.125829766889986"><ele>193.0</ele><time>2026-04-27T11:55:46.996Z</time></trkpt><trkpt lat="45.83780053929776" lon="10.12572065020004"><ele>193.0</ele><time>2026-04-27T11:55:47.996Z</time></trkpt><trkpt lat="45.837652888383296" lon="10.125634315102165"><ele>193.0</ele><time>2026-04-27T11:55:48.996Z</time></trkpt><trkpt lat="45.83749474147849" lon="10.125545250320641"><ele>193.0</ele><time>2026-04-27T11:55:49.996Z</time></trkpt><trkpt lat="45.83731712478191" lon="10.12548948619002"><ele>193.33333333333331</ele><time>2026-04-27T11:55:50.996Z</time></trkpt><trkpt lat="45.83713257583624" lon="10.125406228189826"><ele>193.66666666666669</ele><time>2026-04-27T11:55:51.996Z</time></trkpt><trkpt lat="45.83693877420302" lon="10.12533673245531"><ele>194.0</ele><time>2026-04-27T11:55:52.996Z</time></trkpt><trkpt lat="45.83672996043264" lon="10.12523936965909"><ele>195.0</ele><time>2026-04-27T11:55:53.996Z</time></trkpt><trkpt lat="45.836527181899804" lon="10.125140246914999"><ele>196.0</ele><time>2026-04-27T11:55:54.996Z</time></trkpt><trkpt lat="45.83632195389871" lon="10.125041215625021"><ele>197.0</ele><time>2026-04-27T11:55:55.996Z</time></trkpt><trkpt lat="45.836108439650864" lon="10.124949106682728"><ele>194.5</ele><time>2026-04-27T11:55:56.996Z</time></trkpt><trkpt lat="45.83589009708865" lon="10.124854409186932"><ele>192.0</ele><time>2026-04-27T11:55:57.996Z</time></trkpt><trkpt lat="45.83566747574205" lon="10.124749056412801"><ele>192.0</ele><time>2026-04-27T11:55:58.996Z</time></trkpt><trkpt lat="45.83544057403851" lon="10.124646641015165"><ele>192.0</ele><time>2026-04-27T11:55:59.996Z</time></trkpt><trkpt lat="45.83520015950369" lon="10.124540523218966"><ele>191.5</ele><time>2026-04-27T11:56:00.996Z</time></trkpt><trkpt lat="45.834946315459426" lon="10.12442977709893"><ele>191.0</ele><time>2026-04-27T11:56:01.996Z</time></trkpt><trkpt lat="45.834694413640904" lon="10.124321792695836"><ele>191.0</ele><time>2026-04-27T11:56:02.996Z</time></trkpt><trkpt lat="45.83444882220025" lon="10.12420992759065"><ele>191.0</ele><time>2026-04-27T11:56:03.996Z</time></trkpt><trkpt lat="45.834212741040204" lon="10.124099811030066"><ele>190.5</ele><time>2026-04-27T11:56:04.996Z</time></trkpt><trkpt lat="45.83397057022499" lon="10.123993716003044"><ele>190.0</ele><time>2026-04-27T11:56:05.996Z</time></trkpt><trkpt lat="45.8337375309015" lon="10.123887519646019"><ele>190.0</ele><time>2026-04-27T11:56:06.996Z</time></trkpt><trkpt lat="45.83350060848209" lon="10.123786994189006"><ele>190.0</ele><time>2026-04-27T11:56:07.996Z</time></trkpt><trkpt lat="45.83326772294397" lon="10.123686060995128"><ele>191.5</ele><time>2026-04-27T11:56:08.996Z</time></trkpt><trkpt lat="45.83302433527429" lon="10.123581824156446"><ele>193.0</ele><time>2026-04-27T11:56:09.996Z</time></trkpt><trkpt lat="45.83279271751362" lon="10.12348096661315"><ele>193.0</ele><time>2026-04-27T11:56:10.996Z</time></trkpt><trkpt lat="45.832564005518556" lon="10.123377964389498"><ele>193.0</ele><time>2026-04-27T11:56:11.996Z</time></trkpt><trkpt lat="45.832337333814266" lon="10.12327576883119"><ele>192.5</ele><time>2026-04-27T11:56:12.996Z</time></trkpt><trkpt lat="45.83211263994835" lon="10.123168613018207"><ele>192.0</ele><time>2026-04-27T11:56:13.996Z</time></trkpt><trkpt lat="45.8318793690339" lon="10.123063961886865"><ele>192.5</ele><time>2026-04-27T11:56:14.996Z</time></trkpt><trkpt lat="45.83165250705193" lon="10.122960383954256"><ele>193.0</ele><time>2026-04-27T11:56:15.996Z</time></trkpt><trkpt lat="45.83142668499708" lon="10.122860115811488"><ele>193.0</ele><time>2026-04-27T11:56:16.996Z</time></trkpt><trkpt lat="45.83119879697313" lon="10.122752966851298"><ele>193.0</ele><time>2026-04-27T11:56:17.996Z</time></trkpt><trkpt lat="45.83096585109114" lon="10.12265229522277"><ele>193.0</ele><time>2026-04-27T11:56:18.996Z</time></trkpt><trkpt lat="45.83073303633108" lon="10.122553962206167"><ele>193.0</ele><time>2026-04-27T11:56:19.996Z</time></trkpt><trkpt lat="45.830509752238136" lon="10.122449917685541"><ele>192.5</ele><time>2026-04-27T11:56:20.996Z</time></trkpt><trkpt lat="45.83028555269834" lon="10.122359420724596"><ele>192.0</ele><time>2026-04-27T11:56:21.996Z</time></trkpt><trkpt lat="45.83006485258738" lon="10.122262962892401"><ele>192.0</ele><time>2026-04-27T11:56:22.996Z</time></trkpt><trkpt lat="45.82984098429944" lon="10.122163448915346"><ele>192.0</ele><time>2026-04-27T11:56:23.996Z</time></trkpt><trkpt lat="45.829613281917105" lon="10.1220656968063"><ele>192.0</ele><time>2026-04-27T11:56:24.996Z</time></trkpt><trkpt lat="45.82940376315387" lon="10.121897024946781"><ele>192.0</ele><time>2026-04-27T11:56:25.996Z</time></trkpt><trkpt lat="45.82916468924516" lon="10.121789824418595"><ele>190.5</ele><time>2026-04-27T11:56:26.996Z</time></trkpt><trkpt lat="45.8289336286437" lon="10.121684272772757"><ele>189.0</ele><time>2026-04-27T11:56:27.999Z</time></trkpt><trkpt lat="45.82870194103862" lon="10.121575748246542"><ele>189.0</ele><time>2026-04-27T11:56:28.999Z</time></trkpt><trkpt lat="45.828474994685095" lon="10.121472960823848"><ele>189.0</ele><time>2026-04-27T11:56:29.999Z</time></trkpt><trkpt lat="45.82824346279948" lon="10.121367246890443"><ele>189.0</ele><time>2026-04-27T11:56:30.999Z</time></trkpt><trkpt lat="45.82800934124945" lon="10.121266276472493"><ele>189.0</ele><time>2026-04-27T11:56:31.999Z</time></trkpt><trkpt lat="45.827780076009056" lon="10.121167737591854"><ele>190.5</ele><time>2026-04-27T11:56:32.999Z</time></trkpt><trkpt lat="45.82754901318615" lon="10.121065630803043"><ele>192.0</ele><time>2026-04-27T11:56:33.999Z</time></trkpt><trkpt lat="45.82731563775664" lon="10.120961956512259"><ele>192.0</ele><time>2026-04-27T11:56:34.999Z</time></trkpt><trkpt lat="45.8270748437019" lon="10.120850185941796"><ele>192.0</ele><time>2026-04-27T11:56:35.999Z</time></trkpt><trkpt lat="45.82683277343926" lon="10.120741088039328"><ele>192.0</ele><time>2026-04-27T11:56:36.999Z</time></trkpt><trkpt lat="45.82658775317965" lon="10.120638224755421"><ele>192.0</ele><time>2026-04-27T11:56:37.999Z</time></trkpt><trkpt lat="45.8263424273923" lon="10.12053436242718"><ele>192.0</ele><time>2026-04-27T11:56:38.999Z</time></trkpt><trkpt lat="45.826097408010654" lon="10.120432436961401"><ele>192.0</ele><time>2026-04-27T11:56:39.999Z</time></trkpt><trkpt lat="45.82585567579827" lon="10.120329932013837"><ele>192.0</ele><time>2026-04-27T11:56:40.999Z</time></trkpt><trkpt lat="45.825626943900204" lon="10.120226248745933"><ele>192.0</ele><time>2026-04-27T11:56:41.999Z</time></trkpt><trkpt lat="45.825392391036004" lon="10.120127877887587"><ele>191.0</ele><time>2026-04-27T11:56:42.999Z</time></trkpt><trkpt lat="45.82514227062751" lon="10.120044970020631"><ele>190.0</ele><time>2026-04-27T11:56:43.999Z</time></trkpt><trkpt lat="45.82489400034954" lon="10.119982407842572"><ele>190.0</ele><time>2026-04-27T11:56:44.999Z</time></trkpt><trkpt lat="45.82464972286132" lon="10.11994885491222"><ele>190.0</ele><time>2026-04-27T11:56:45.999Z</time></trkpt><trkpt lat="45.82438696348464" lon="10.119929596439114"><ele>190.0</ele><time>2026-04-27T11:56:46.999Z</time></trkpt><trkpt lat="45.82413489412" lon="10.11992934458412"><ele>190.0</ele><time>2026-04-27T11:56:47.999Z</time></trkpt><trkpt lat="45.82388853657294" lon="10.119946282952704"><ele>190.0</ele><time>2026-04-27T11:56:48.999Z</time></trkpt><trkpt lat="45.8236380960178" lon="10.119980196583064"><ele>190.0</ele><time>2026-04-27T11:56:49.999Z</time></trkpt><trkpt lat="45.823385538266464" lon="10.120030707339842"><ele>190.0</ele><time>2026-04-27T11:56:50.999Z</time></trkpt><trkpt lat="45.82313028452288" lon="10.120094671978986"><ele>190.0</ele><time>2026-04-27T11:56:51.999Z</time></trkpt><trkpt lat="45.82287872135842" lon="10.120151611160694"><ele>189.0</ele><time>2026-04-27T11:56:52.999Z</time></trkpt><trkpt lat="45.82263373838515" lon="10.120209380561397"><ele>188.0</ele><time>2026-04-27T11:56:53.999Z</time></trkpt><trkpt lat="45.82239749398218" lon="10.120264294847846"><ele>188.0</ele><time>2026-04-27T11:56:54.999Z</time></trkpt><trkpt lat="45.82218584976856" lon="10.120315088289846"><ele>188.0</ele><time>2026-04-27T11:56:55.999Z</time></trkpt><trkpt lat="45.82197561761489" lon="10.120364403337721"><ele>188.0</ele><time>2026-04-27T11:56:56.999Z</time></trkpt><trkpt lat="45.82177299608389" lon="10.120406062966195"><ele>188.66666666666666</ele><time>2026-04-27T11:56:57.999Z</time></trkpt><trkpt lat="45.82156654494199" lon="10.120454037291369"><ele>189.33333333333334</ele><time>2026-04-27T11:56:58.999Z</time></trkpt><trkpt lat="45.82136659831917" lon="10.120497742900373"><ele>190.0</ele><time>2026-04-27T11:56:59.999Z</time></trkpt><trkpt lat="45.82117135669868" lon="10.120539951603714"><ele>189.66666666666669</ele><time>2026-04-27T11:57:00.999Z</time></trkpt><trkpt lat="45.82096826270963" lon="10.120589250311756"><ele>189.33333333333334</ele><time>2026-04-27T11:57:01.999Z</time></trkpt><trkpt lat="45.82075938415526" lon="10.120639928164545"><ele>189.0</ele><time>2026-04-27T11:57:02.999Z</time></trkpt><trkpt lat="45.82055737288236" lon="10.12068328614545"><ele>189.0</ele><time>2026-04-27T11:57:03.999Z</time></trkpt><trkpt lat="45.82035257337654" lon="10.12072878780909"><ele>189.0</ele><time>2026-04-27T11:57:04.999Z</time></trkpt><trkpt lat="45.82013938359529" lon="10.120775437688051"><ele>189.0</ele><time>2026-04-27T11:57:05.999Z</time></trkpt><trkpt lat="45.81992507599287" lon="10.120823672555646"><ele>190.0</ele><time>2026-04-27T11:57:06.999Z</time></trkpt><trkpt lat="45.81971902821287" lon="10.120869899022894"><ele>191.0</ele><time>2026-04-27T11:57:07.999Z</time></trkpt><trkpt lat="45.819521719207245" lon="10.12091874752139"><ele>192.0</ele><time>2026-04-27T11:57:08.999Z</time></trkpt><trkpt lat="45.81933830827578" lon="10.12096446998892"><ele>192.33333333333331</ele><time>2026-04-27T11:57:09.999Z</time></trkpt><trkpt lat="45.81915794653535" lon="10.12100627253031"><ele>192.66666666666666</ele><time>2026-04-27T11:57:10.999Z</time></trkpt><trkpt lat="45.818981264791" lon="10.121047084209293"><ele>193.0</ele><time>2026-04-27T11:57:11.999Z</time></trkpt><trkpt lat="45.81879582565177" lon="10.121087857454967"><ele>193.0</ele><time>2026-04-27T11:57:12.999Z</time></trkpt><trkpt lat="45.818616495898354" lon="10.121128493106157"><ele>193.0</ele><time>2026-04-27T11:57:13.999Z</time></trkpt><trkpt lat="45.81842899927389" lon="10.121169812900607"><ele>193.0</ele><time>2026-04-27T11:57:14.999Z</time></trkpt><trkpt lat="45.818262568033646" lon="10.121207788321959"><ele>193.33333333333331</ele><time>2026-04-27T11:57:15.999Z</time></trkpt><trkpt lat="45.818101708081365" lon="10.121240349332721"><ele>193.66666666666669</ele><time>2026-04-27T11:57:16.999Z</time></trkpt><trkpt lat="45.8179381766336" lon="10.121278379253736"><ele>194.0</ele><time>2026-04-27T11:57:17.999Z</time></trkpt><trkpt lat="45.81777762260111" lon="10.121311390676865"><ele>195.66666666666669</ele><time>2026-04-27T11:57:18.999Z</time></trkpt><trkpt lat="45.817615148105524" lon="10.121338922866919"><ele>197.33333333333331</ele><time>2026-04-27T11:57:19.999Z</time></trkpt><trkpt lat="45.817445565044" lon="10.121380811029638"><ele>199.0</ele><time>2026-04-27T11:57:20.999Z</time></trkpt><trkpt lat="45.81728488359043" lon="10.121424136766164"><ele>199.0</ele><time>2026-04-27T11:57:21.999Z</time></trkpt><trkpt lat="45.81713358400626" lon="10.121459453343151"><ele>199.0</ele><time>2026-04-27T11:57:22.999Z</time></trkpt><trkpt lat="45.81698530341868" lon="10.121487160052082"><ele>199.0</ele><time>2026-04-27T11:57:23.999Z</time></trkpt><trkpt lat="45.81683034389345" lon="10.121515348820928"><ele>203.66666666666666</ele><time>2026-04-27T11:57:24.999Z</time></trkpt><trkpt lat="45.816676219182696" lon="10.121550366112873"><ele>208.33333333333331</ele><time>2026-04-27T11:57:25.999Z</time></trkpt><trkpt lat="45.8165176322922" lon="10.121588994262838"><ele>213.0</ele><time>2026-04-27T11:57:26.999Z</time></trkpt><trkpt lat="45.81635145969822" lon="10.121625301919318"><ele>218.66666666666669</ele><time>2026-04-27T11:57:27.999Z</time></trkpt><trkpt lat="45.816175102463646" lon="10.121666641326584"><ele>224.33333333333334</ele><time>2026-04-27T11:57:28.999Z</time></trkpt><trkpt lat="45.81599173747094" lon="10.12170503935373"><ele>230.0</ele><time>2026-04-27T11:57:29.999Z</time></trkpt><trkpt lat="45.815802423822454" lon="10.121743735754437"><ele>244.33333333333334</ele><time>2026-04-27T11:57:30.999Z</time></trkpt><trkpt lat="45.81560908263297" lon="10.121779384851642"><ele>258.6666666666667</ele><time>2026-04-27T11:57:31.999Z</time></trkpt><trkpt lat="45.81541159995221" lon="10.121811061231174"><ele>273.0</ele><time>2026-04-27T11:57:32.999Z</time></trkpt><trkpt lat="45.81518408068039" lon="10.121852604778592"><ele>362.0</ele><time>2026-04-27T11:57:34.141Z</time></trkpt><trkpt lat="45.81319951937391" lon="10.121410764123524"><ele>183.0</ele><time>2026-04-27T11:57:37.776Z</time></trkpt><trkpt lat="45.78532294187487" lon="10.084097414404582"><ele>186.66666666666669</ele><time>2026-04-27T12:01:05.998Z</time></trkpt><trkpt lat="45.78514653638832" lon="10.083828311605808"><ele>190.33333333333334</ele><time>2026-04-27T12:01:06.998Z</time></trkpt><trkpt lat="45.78509473489124" lon="10.083662521139294"><ele>194.0</ele><time>2026-04-27T12:01:07.998Z</time></trkpt><trkpt lat="45.78509349692531" lon="10.083434256861526"><ele>192.66666666666669</ele><time>2026-04-27T12:01:08.998Z</time></trkpt><trkpt lat="45.78502467383134" lon="10.083211270654887"><ele>191.33333333333334</ele><time>2026-04-27T12:01:09.998Z</time></trkpt><trkpt lat="45.78498995748336" lon="10.083005106167738"><ele>190.0</ele><time>2026-04-27T12:01:10.998Z</time></trkpt><trkpt lat="45.78493343306337" lon="10.082771608690436"><ele>190.0</ele><time>2026-04-27T12:01:11.999Z</time></trkpt><trkpt lat="45.78486458532063" lon="10.08253710089046"><ele>190.0</ele><time>2026-04-27T12:01:12.999Z</time></trkpt><trkpt lat="45.78478318507877" lon="10.082318318335142"><ele>190.0</ele><time>2026-04-27T12:01:13.999Z</time></trkpt><trkpt lat="45.784704128760254" lon="10.082098649846916"><ele>188.33333333333334</ele><time>2026-04-27T12:01:14.998Z</time></trkpt><trkpt lat="45.7845987116803" lon="10.081854753977584"><ele>186.66666666666666</ele><time>2026-04-27T12:01:15.998Z</time></trkpt><trkpt lat="45.78451657090908" lon="10.081608746918121"><ele>185.0</ele><time>2026-04-27T12:01:16.998Z</time></trkpt><trkpt lat="45.78439547335418" lon="10.0813841028593"><ele>188.0</ele><time>2026-04-27T12:01:17.999Z</time></trkpt><trkpt lat="45.784256218839936" lon="10.081169319645495"><ele>191.0</ele><time>2026-04-27T12:01:18.999Z</time></trkpt><trkpt lat="45.78413846173454" lon="10.080993946292212"><ele>194.0</ele><time>2026-04-27T12:01:19.999Z</time></trkpt><trkpt lat="45.784024650589686" lon="10.080832015243057"><ele>191.33333333333334</ele><time>2026-04-27T12:01:20.999Z</time></trkpt><trkpt lat="45.78391314126896" lon="10.08065574837928"><ele>188.66666666666669</ele><time>2026-04-27T12:01:21.999Z</time></trkpt><trkpt lat="45.78383998713775" lon="10.080463655369003"><ele>186.0</ele><time>2026-04-27T12:01:22.999Z</time></trkpt><trkpt lat="45.783765183368835" lon="10.080273598436857"><ele>186.0</ele><time>2026-04-27T12:01:23.998Z</time></trkpt><trkpt lat="45.78368958594182" lon="10.080067178713126"><ele>186.0</ele><time>2026-04-27T12:01:24.999Z</time></trkpt><trkpt lat="45.78363690608476" lon="10.079842311354264"><ele>186.0</ele><time>2026-04-27T12:01:25.999Z</time></trkpt><trkpt lat="45.783605907934025" lon="10.079598723115257"><ele>189.0</ele><time>2026-04-27T12:01:26.999Z</time></trkpt><trkpt lat="45.783592039140274" lon="10.079345453911694"><ele>192.0</ele><time>2026-04-27T12:01:27.999Z</time></trkpt><trkpt lat="45.783574002865485" lon="10.079079453486878"><ele>195.0</ele><time>2026-04-27T12:01:28.999Z</time></trkpt><trkpt lat="45.78354310660129" lon="10.078825387463942"><ele>199.66666666666669</ele><time>2026-04-27T12:01:29.999Z</time></trkpt><trkpt lat="45.7835179247833" lon="10.078592459047055"><ele>204.33333333333334</ele><time>2026-04-27T12:01:30.999Z</time></trkpt><trkpt lat="45.78347623096276" lon="10.078355761690691"><ele>209.0</ele><time>2026-04-27T12:01:31.999Z</time></trkpt><trkpt lat="45.78342368915972" lon="10.078103881230897"><ele>247.0</ele><time>2026-04-27T12:01:32.999Z</time></trkpt><trkpt lat="45.78338050298924" lon="10.077858882924591"><ele>285.0</ele><time>2026-04-27T12:01:33.999Z</time></trkpt><trkpt lat="45.78350680291467" lon="10.077569722752424"><ele>323.0</ele><time>2026-04-27T12:01:34.999Z</time></trkpt><trkpt lat="45.783483470024606" lon="10.077341093541895"><ele>327.6666666666667</ele><time>2026-04-27T12:01:35.999Z</time></trkpt><trkpt lat="45.78345756368641" lon="10.07708728349605"><ele>332.3333333333333</ele><time>2026-04-27T12:01:36.999Z</time></trkpt><trkpt lat="45.78343786316117" lon="10.076894824330934"><ele>337.0</ele><time>2026-04-27T12:01:37.999Z</time></trkpt><trkpt lat="45.78340976624691" lon="10.076620339095898"><ele>289.0</ele><time>2026-04-27T12:01:39.142Z</time></trkpt><trkpt lat="45.78273481494264" lon="10.07454549898085"><ele>281.5</ele><time>2026-04-27T12:01:42.776Z</time></trkpt><trkpt lat="45.78236365608063" lon="10.074186556848037"><ele>274.0</ele><time>2026-04-27T12:01:43.776Z</time></trkpt><trkpt lat="45.78194849905328" lon="10.073940135949183"><ele>247.0</ele><time>2026-04-27T12:01:44.776Z</time></trkpt><trkpt lat="45.781521391261194" lon="10.073742779131486"><ele>220.0</ele><time>2026-04-27T12:01:45.773Z</time></trkpt><trkpt lat="45.781088614669734" lon="10.07356245936592"><ele>247.0</ele><time>2026-04-27T12:01:46.776Z</time></trkpt><trkpt lat="45.78065103271207" lon="10.073414376389653"><ele>247.0</ele><time>2026-04-27T12:01:47.775Z</time></trkpt><trkpt lat="45.7803359" lon="10.0733335"><ele>247.0</ele><time>2026-04-27T12:01:48.773Z</time></trkpt><trkpt lat="45.77126379979182" lon="10.06903037196465"><ele>246.33333333333331</ele><time>2026-04-27T12:03:06.998Z</time></trkpt><trkpt lat="45.77105268697086" lon="10.06887074718371"><ele>245.66666666666669</ele><time>2026-04-27T12:03:07.998Z</time></trkpt><trkpt lat="45.77091476259626" lon="10.068749196080404"><ele>245.0</ele><time>2026-04-27T12:03:08.998Z</time></trkpt><trkpt lat="45.77077558624594" lon="10.068599628726616"><ele>242.66666666666669</ele><time>2026-04-27T12:03:09.998Z</time></trkpt><trkpt lat="45.770638274787025" lon="10.068608142764884"><ele>240.33333333333331</ele><time>2026-04-27T12:03:10.998Z</time></trkpt><trkpt lat="45.77047288213561" lon="10.068627935924667"><ele>238.0</ele><time>2026-04-27T12:03:11.998Z</time></trkpt><trkpt lat="45.770312419026844" lon="10.068657524502472"><ele>237.33333333333331</ele><time>2026-04-27T12:03:12.998Z</time></trkpt><trkpt lat="45.77015688424289" lon="10.06869643618533"><ele>236.66666666666669</ele><time>2026-04-27T12:03:13.998Z</time></trkpt><trkpt lat="45.7700061386918" lon="10.068740539270316"><ele>236.0</ele><time>2026-04-27T12:03:14.998Z</time></trkpt><trkpt lat="45.76985482201248" lon="10.068790414231573"><ele>236.0</ele><time>2026-04-27T12:03:15.998Z</time></trkpt><trkpt lat="45.76970299009812" lon="10.068841442593763"><ele>236.0</ele><time>2026-04-27T12:03:16.998Z</time></trkpt><trkpt lat="45.76955338773177" lon="10.06889281751635"><ele>236.0</ele><time>2026-04-27T12:03:17.999Z</time></trkpt><trkpt lat="45.769393689207206" lon="10.06896578006813"><ele>241.33333333333334</ele><time>2026-04-27T12:03:18.999Z</time></trkpt><trkpt lat="45.76924423765818" lon="10.069054859987636"><ele>246.66666666666669</ele><time>2026-04-27T12:03:19.999Z</time></trkpt><trkpt lat="45.76913085097282" lon="10.069135258049842"><ele>252.0</ele><time>2026-04-27T12:03:20.998Z</time></trkpt><trkpt lat="45.76898478522703" lon="10.069252005190645"><ele>252.0</ele><time>2026-04-27T12:03:21.999Z</time></trkpt><trkpt lat="45.7688584827472" lon="10.06936796376325"><ele>252.0</ele><time>2026-04-27T12:03:22.999Z</time></trkpt><trkpt lat="45.7687366693832" lon="10.069504597532637"><ele>252.0</ele><time>2026-04-27T12:03:23.998Z</time></trkpt><trkpt lat="45.76862735912242" lon="10.069642977366374"><ele>252.0</ele><time>2026-04-27T12:03:24.998Z</time></trkpt><trkpt lat="45.7685330778865" lon="10.069795766802299"><ele>252.0</ele><time>2026-04-27T12:03:25.998Z</time></trkpt><trkpt lat="45.76843331869808" lon="10.069929770585183"><ele>252.0</ele><time>2026-04-27T12:03:26.999Z</time></trkpt><trkpt lat="45.76828763119171" lon="10.070051371789205"><ele>252.0</ele><time>2026-04-27T12:03:27.998Z</time></trkpt><trkpt lat="45.76821012245649" lon="10.070184712173237"><ele>250.5</ele><time>2026-04-27T12:03:28.998Z</time></trkpt><trkpt lat="45.768147791510565" lon="10.070301136894871"><ele>249.0</ele><time>2026-04-27T12:03:29.999Z</time></trkpt><trkpt lat="45.767961974360915" lon="10.070411907178666"><ele>247.5</ele><time>2026-04-27T12:03:30.999Z</time></trkpt><trkpt lat="45.76786703754447" lon="10.070532668530673"><ele>246.0</ele><time>2026-04-27T12:03:31.999Z</time></trkpt><trkpt lat="45.767770485781185" lon="10.070656637115878"><ele>248.75</ele><time>2026-04-27T12:03:32.999Z</time></trkpt><trkpt lat="45.76768352624473" lon="10.070793409897794"><ele>251.5</ele><time>2026-04-27T12:03:33.999Z</time></trkpt><trkpt lat="45.76759106972756" lon="10.07093122908672"><ele>254.25</ele><time>2026-04-27T12:03:34.999Z</time></trkpt><trkpt lat="45.76766544474086" lon="10.070907621795508"><ele>257.0</ele><time>2026-04-27T12:03:36.142Z</time></trkpt><trkpt lat="45.7659120806418" lon="10.072344627504986"><ele>285.0</ele><time>2026-04-27T12:03:39.775Z</time></trkpt><trkpt lat="45.76536118695131" lon="10.0727745500956"><ele>226.0</ele><time>2026-04-27T12:03:40.772Z</time></trkpt><trkpt lat="45.76480654290614" lon="10.073207106709125"><ele>246.0</ele><time>2026-04-27T12:03:41.775Z</time></trkpt><trkpt lat="45.76424038587825" lon="10.073592160482237"><ele>246.0</ele><time>2026-04-27T12:03:42.771Z</time></trkpt><trkpt lat="45.763653856492496" lon="10.073929631478997"><ele>240.0</ele><time>2026-04-27T12:03:43.775Z</time></trkpt><trkpt lat="45.7631394" lon="10.0741759"><ele>185.0</ele><time>2026-04-27T12:03:44.775Z</time></trkpt><trkpt lat="45.76263942713419" lon="10.07406037156414"><ele>198.0</ele><time>2026-04-27T12:04:07.999Z</time></trkpt><trkpt lat="45.7624080886172" lon="10.07427827556973"><ele>211.0</ele><time>2026-04-27T12:04:08.999Z</time></trkpt><trkpt lat="45.76221514583955" lon="10.074405651895269"><ele>211.0</ele><time>2026-04-27T12:04:09.999Z</time></trkpt><trkpt lat="45.762021121784294" lon="10.074521756601444"><ele>211.0</ele><time>2026-04-27T12:04:10.999Z</time></trkpt><trkpt lat="45.761832096080994" lon="10.07470055317543"><ele>211.0</ele><time>2026-04-27T12:04:11.999Z</time></trkpt><trkpt lat="45.76166878810562" lon="10.074820158165865"><ele>206.0</ele><time>2026-04-27T12:04:12.999Z</time></trkpt><trkpt lat="45.76149824366361" lon="10.07489621598008"><ele>201.0</ele><time>2026-04-27T12:04:13.999Z</time></trkpt><trkpt lat="45.761329830405565" lon="10.074971323473719"><ele>196.0</ele><time>2026-04-27T12:04:14.999Z</time></trkpt><trkpt lat="45.76116052265502" lon="10.075047524382299"><ele>205.33333333333331</ele><time>2026-04-27T12:04:15.999Z</time></trkpt><trkpt lat="45.76099337495118" lon="10.075123302659732"><ele>214.66666666666669</ele><time>2026-04-27T12:04:16.999Z</time></trkpt><trkpt lat="45.76083091401232" lon="10.07519695608125"><ele>224.0</ele><time>2026-04-27T12:04:17.999Z</time></trkpt><trkpt lat="45.76066680782319" lon="10.07527154670926"><ele>224.0</ele><time>2026-04-27T12:04:18.999Z</time></trkpt><trkpt lat="45.76035280658175" lon="10.075264389952604"><ele>224.0</ele><time>2026-04-27T12:04:19.999Z</time></trkpt><trkpt lat="45.76017264111997" lon="10.07535339580483"><ele>216.0</ele><time>2026-04-27T12:04:20.999Z</time></trkpt><trkpt lat="45.76000317867928" lon="10.07544069309345"><ele>208.0</ele><time>2026-04-27T12:04:21.999Z</time></trkpt><trkpt lat="45.759839092984066" lon="10.075541674329115"><ele>200.0</ele><time>2026-04-27T12:04:22.999Z</time></trkpt><trkpt lat="45.75968788121487" lon="10.07564917902672"><ele>204.33333333333334</ele><time>2026-04-27T12:04:23.999Z</time></trkpt><trkpt lat="45.7595412639908" lon="10.07577385863769"><ele>208.66666666666669</ele><time>2026-04-27T12:04:24.999Z</time></trkpt><trkpt lat="45.75940774705578" lon="10.075902470037267"><ele>213.0</ele><time>2026-04-27T12:04:25.999Z</time></trkpt><trkpt lat="45.75927515025258" lon="10.07605153179607"><ele>210.0</ele><time>2026-04-27T12:04:27.142Z</time></trkpt><trkpt lat="45.75784815411656" lon="10.078168301138799"><ele>205.66666666666669</ele><time>2026-04-27T12:04:38.999Z</time></trkpt><trkpt lat="45.75766683060829" lon="10.07834983315673"><ele>201.33333333333334</ele><time>2026-04-27T12:04:39.999Z</time></trkpt><trkpt lat="45.7575001378231" lon="10.0784942078143"><ele>197.0</ele><time>2026-04-27T12:04:40.999Z</time></trkpt><trkpt lat="45.7572998095606" lon="10.078756398801621"><ele>197.0</ele><time>2026-04-27T12:04:41.999Z</time></trkpt><trkpt lat="45.75714364229247" lon="10.07890306672852"><ele>197.0</ele><time>2026-04-27T12:04:42.999Z</time></trkpt><trkpt lat="45.75700421332014" lon="10.079018623280783"><ele>197.0</ele><time>2026-04-27T12:04:43.999Z</time></trkpt><trkpt lat="45.75694993493596" lon="10.07913659709454"><ele>197.0</ele><time>2026-04-27T12:04:44.999Z</time></trkpt><trkpt lat="45.756764115637644" lon="10.079318478622577"><ele>199.0</ele><time>2026-04-27T12:04:45.999Z</time></trkpt><trkpt lat="45.756564737143265" lon="10.079467520811857"><ele>201.0</ele><time>2026-04-27T12:04:46.999Z</time></trkpt><trkpt lat="45.75635198204537" lon="10.079651020847871"><ele>201.0</ele><time>2026-04-27T12:04:47.999Z</time></trkpt><trkpt lat="45.75617597200907" lon="10.07980424513663"><ele>201.0</ele><time>2026-04-27T12:04:48.999Z</time></trkpt><trkpt lat="45.75600698696954" lon="10.079952287009307"><ele>201.0</ele><time>2026-04-27T12:04:49.999Z</time></trkpt><trkpt lat="45.75585652016096" lon="10.080085967268538"><ele>203.0</ele><time>2026-04-27T12:04:50.999Z</time></trkpt><trkpt lat="45.755729809438016" lon="10.080201282579313"><ele>205.0</ele><time>2026-04-27T12:04:51.999Z</time></trkpt><trkpt lat="45.755603907600324" lon="10.080321821859323"><ele>207.0</ele><time>2026-04-27T12:04:52.999Z</time></trkpt><trkpt lat="45.75545236285783" lon="10.08047916368145"><ele>207.0</ele><time>2026-04-27T12:04:53.999Z</time></trkpt><trkpt lat="45.75532574531037" lon="10.08063114652958"><ele>207.0</ele><time>2026-04-27T12:04:54.999Z</time></trkpt><trkpt lat="45.755189854442506" lon="10.080818947826232"><ele>207.0</ele><time>2026-04-27T12:04:55.999Z</time></trkpt><trkpt lat="45.75506687424927" lon="10.081011100073102"><ele>205.66666666666669</ele><time>2026-04-27T12:04:56.999Z</time></trkpt><trkpt lat="45.75496190037205" lon="10.081196820548143"><ele>204.33333333333334</ele><time>2026-04-27T12:04:57.999Z</time></trkpt><trkpt lat="45.75486345483801" lon="10.081396574552652"><ele>203.0</ele><time>2026-04-27T12:04:58.999Z</time></trkpt><trkpt lat="45.754761883887866" lon="10.081629973115929"><ele>208.66666666666669</ele><time>2026-04-27T12:04:59.999Z</time></trkpt><trkpt lat="45.754659568604254" lon="10.081849049468536"><ele>214.33333333333331</ele><time>2026-04-27T12:05:00.999Z</time></trkpt><trkpt lat="45.75456606574798" lon="10.082061392687482"><ele>220.0</ele><time>2026-04-27T12:05:01.999Z</time></trkpt><trkpt lat="45.7544698181224" lon="10.082246888089308"><ele>215.66666666666666</ele><time>2026-04-27T12:05:02.999Z</time></trkpt><trkpt lat="45.754351475521" lon="10.082412129709713"><ele>211.33333333333331</ele><time>2026-04-27T12:05:03.999Z</time></trkpt><trkpt lat="45.75424140366767" lon="10.082569555379802"><ele>207.0</ele><time>2026-04-27T12:05:04.999Z</time></trkpt><trkpt lat="45.75412820794218" lon="10.08272072307781"><ele>207.0</ele><time>2026-04-27T12:05:05.999Z</time></trkpt><trkpt lat="45.75404475142328" lon="10.0829103424403"><ele>207.0</ele><time>2026-04-27T12:05:06.999Z</time></trkpt><trkpt lat="45.753889702222594" lon="10.083030092805215"><ele>207.0</ele><time>2026-04-27T12:05:07.999Z</time></trkpt><trkpt lat="45.75375284812123" lon="10.083170836853341"><ele>207.66666666666669</ele><time>2026-04-27T12:05:08.999Z</time></trkpt><trkpt lat="45.753634634963" lon="10.083329185360814"><ele>208.33333333333334</ele><time>2026-04-27T12:05:09.999Z</time></trkpt><trkpt lat="45.75345710488357" lon="10.083396306964014"><ele>209.0</ele><time>2026-04-27T12:05:10.999Z</time></trkpt><trkpt lat="45.75331505158158" lon="10.083523072205223"><ele>209.0</ele><time>2026-04-27T12:05:11.999Z</time></trkpt><trkpt lat="45.75317319899442" lon="10.08365054378291"><ele>209.0</ele><time>2026-04-27T12:05:12.999Z</time></trkpt><trkpt lat="45.75303267431526" lon="10.083776822247584"><ele>209.0</ele><time>2026-04-27T12:05:13.999Z</time></trkpt><trkpt lat="45.75289244619496" lon="10.0838966721589"><ele>205.5</ele><time>2026-04-27T12:05:14.999Z</time></trkpt><trkpt lat="45.75258419698982" lon="10.084151450987596"><ele>202.0</ele><time>2026-04-27T12:05:15.999Z</time></trkpt><trkpt lat="45.75239872496488" lon="10.084292708179879"><ele>202.0</ele><time>2026-04-27T12:05:16.999Z</time></trkpt><trkpt lat="45.7522409994465" lon="10.08443349421853"><ele>202.0</ele><time>2026-04-27T12:05:17.999Z</time></trkpt><trkpt lat="45.75208902975695" lon="10.084528693909371"><ele>202.0</ele><time>2026-04-27T12:05:18.999Z</time></trkpt><trkpt lat="45.75188556586329" lon="10.08465675554795"><ele>199.66666666666666</ele><time>2026-04-27T12:05:19.999Z</time></trkpt><trkpt lat="45.751728012724875" lon="10.084783766862383"><ele>197.33333333333331</ele><time>2026-04-27T12:05:20.999Z</time></trkpt><trkpt lat="45.751540847501644" lon="10.084928785500312"><ele>195.0</ele><time>2026-04-27T12:05:21.999Z</time></trkpt><trkpt lat="45.751362934752905" lon="10.085068754394086"><ele>195.0</ele><time>2026-04-27T12:05:22.999Z</time></trkpt><trkpt lat="45.75120794526883" lon="10.085180360588827"><ele>195.0</ele><time>2026-04-27T12:05:23.999Z</time></trkpt><trkpt lat="45.75104536962048" lon="10.085351330692069"><ele>195.0</ele><time>2026-04-27T12:05:24.999Z</time></trkpt><trkpt lat="45.75089515946429" lon="10.085492066697782"><ele>197.0</ele><time>2026-04-27T12:05:25.999Z</time></trkpt><trkpt lat="45.75074291661337" lon="10.085644179317843"><ele>199.0</ele><time>2026-04-27T12:05:26.998Z</time></trkpt><trkpt lat="45.7505836540939" lon="10.085806759684852"><ele>201.0</ele><time>2026-04-27T12:05:27.999Z</time></trkpt><trkpt lat="45.750422692234956" lon="10.085963237557088"><ele>201.0</ele><time>2026-04-27T12:05:28.999Z</time></trkpt><trkpt lat="45.75027554960414" lon="10.086111274122034"><ele>201.0</ele><time>2026-04-27T12:05:29.999Z</time></trkpt><trkpt lat="45.75014231146218" lon="10.086246736976367"><ele>201.0</ele><time>2026-04-27T12:05:30.999Z</time></trkpt><trkpt lat="45.75001050784235" lon="10.086366394870993"><ele>199.33333333333331</ele><time>2026-04-27T12:05:31.999Z</time></trkpt><trkpt lat="45.749867103956554" lon="10.08648864325742"><ele>197.66666666666666</ele><time>2026-04-27T12:05:32.999Z</time></trkpt><trkpt lat="45.74974596137328" lon="10.086631341103898"><ele>196.0</ele><time>2026-04-27T12:05:33.999Z</time></trkpt><trkpt lat="45.7495995627682" lon="10.086774915310263"><ele>196.0</ele><time>2026-04-27T12:05:34.999Z</time></trkpt><trkpt lat="45.749410868087814" lon="10.086973531505164"><ele>196.0</ele><time>2026-04-27T12:05:35.999Z</time></trkpt><trkpt lat="45.74928645699985" lon="10.087129133800127"><ele>196.0</ele><time>2026-04-27T12:05:36.999Z</time></trkpt><trkpt lat="45.74912945686173" lon="10.087263942120057"><ele>194.33333333333331</ele><time>2026-04-27T12:05:37.999Z</time></trkpt><trkpt lat="45.74896293605283" lon="10.08740602472305"><ele>192.66666666666666</ele><time>2026-04-27T12:05:38.999Z</time></trkpt><trkpt lat="45.748800018158306" lon="10.087549507673346"><ele>191.0</ele><time>2026-04-27T12:05:39.999Z</time></trkpt><trkpt lat="45.748622550504955" lon="10.08771670853161"><ele>188.66666666666666</ele><time>2026-04-27T12:05:40.999Z</time></trkpt><trkpt lat="45.748460282968644" lon="10.087866515724606"><ele>186.33333333333334</ele><time>2026-04-27T12:05:41.999Z</time></trkpt><trkpt lat="45.748302384657045" lon="10.088023402803179"><ele>184.0</ele><time>2026-04-27T12:05:42.999Z</time></trkpt><trkpt lat="45.74811721030809" lon="10.088170507144243"><ele>186.0</ele><time>2026-04-27T12:05:43.999Z</time></trkpt><trkpt lat="45.747934503473154" lon="10.08830416777628"><ele>188.0</ele><time>2026-04-27T12:05:44.999Z</time></trkpt><trkpt lat="45.74772865144633" lon="10.088403646016777"><ele>190.0</ele><time>2026-04-27T12:05:45.999Z</time></trkpt><trkpt lat="45.74752833694344" lon="10.08847708150696"><ele>190.0</ele><time>2026-04-27T12:05:46.999Z</time></trkpt><trkpt lat="45.747328283596694" lon="10.088542526048883"><ele>190.0</ele><time>2026-04-27T12:05:47.999Z</time></trkpt><trkpt lat="45.74713126028297" lon="10.088622248183965"><ele>190.0</ele><time>2026-04-27T12:05:48.999Z</time></trkpt><trkpt lat="45.74694767780616" lon="10.088700490894704"><ele>187.66666666666669</ele><time>2026-04-27T12:05:49.999Z</time></trkpt><trkpt lat="45.74674902948271" lon="10.088784374672064"><ele>185.33333333333334</ele><time>2026-04-27T12:05:50.999Z</time></trkpt><trkpt lat="45.74656126979582" lon="10.088869262253972"><ele>183.0</ele><time>2026-04-27T12:05:51.999Z</time></trkpt><trkpt lat="45.74638058175412" lon="10.088947929455134"><ele>183.0</ele><time>2026-04-27T12:05:52.999Z</time></trkpt><trkpt lat="45.74619687571167" lon="10.089033539220717"><ele>183.0</ele><time>2026-04-27T12:05:53.999Z</time></trkpt><trkpt lat="45.74601411735076" lon="10.08913071265"><ele>183.0</ele><time>2026-04-27T12:05:54.999Z</time></trkpt><trkpt lat="45.745843453628176" lon="10.08924061895892"><ele>184.66666666666666</ele><time>2026-04-27T12:05:55.999Z</time></trkpt><trkpt lat="45.745673666876215" lon="10.089338878027235"><ele>186.33333333333331</ele><time>2026-04-27T12:05:56.999Z</time></trkpt><trkpt lat="45.7454904521643" lon="10.089425622555932"><ele>188.0</ele><time>2026-04-27T12:05:57.999Z</time></trkpt><trkpt lat="45.74531429651787" lon="10.089516452135252"><ele>186.66666666666666</ele><time>2026-04-27T12:05:58.999Z</time></trkpt><trkpt lat="45.74516013734505" lon="10.089601620820039"><ele>185.33333333333334</ele><time>2026-04-27T12:05:59.999Z</time></trkpt><trkpt lat="45.7450119095964" lon="10.08967304971137"><ele>184.0</ele><time>2026-04-27T12:06:00.999Z</time></trkpt><trkpt lat="45.74486155397361" lon="10.089739223007314"><ele>184.0</ele><time>2026-04-27T12:06:01.999Z</time></trkpt><trkpt lat="45.744698542985034" lon="10.08978369516947"><ele>184.0</ele><time>2026-04-27T12:06:02.999Z</time></trkpt><trkpt lat="45.74457003028301" lon="10.08983020492551"><ele>184.0</ele><time>2026-04-27T12:06:03.999Z</time></trkpt><trkpt lat="45.74444585127126" lon="10.089881018135916"><ele>184.0</ele><time>2026-04-27T12:06:04.999Z</time></trkpt><trkpt lat="45.74428348195262" lon="10.089939997936408"><ele>190.0</ele><time>2026-04-27T12:06:05.999Z</time></trkpt><trkpt lat="45.74414958388032" lon="10.089995163277752"><ele>196.0</ele><time>2026-04-27T12:06:06.999Z</time></trkpt><trkpt lat="45.74402582576377" lon="10.090069105827189"><ele>202.0</ele><time>2026-04-27T12:06:07.999Z</time></trkpt><trkpt lat="45.74389240237857" lon="10.09014301871967"><ele>208.0</ele><time>2026-04-27T12:06:08.999Z</time></trkpt><trkpt lat="45.74375105921924" lon="10.090189473807767"><ele>208.0</ele><time>2026-04-27T12:06:09.999Z</time></trkpt><trkpt lat="45.7436136700139" lon="10.090241576038371"><ele>208.0</ele><time>2026-04-27T12:06:10.999Z</time></trkpt><trkpt lat="45.74349392458452" lon="10.090298580394435"><ele>208.0</ele><time>2026-04-27T12:06:11.999Z</time></trkpt><trkpt lat="45.74337864640239" lon="10.090360549588874"><ele>208.0</ele><time>2026-04-27T12:06:12.999Z</time></trkpt><trkpt lat="45.74324886471777" lon="10.090405596833053"><ele>208.25</ele><time>2026-04-27T12:06:13.999Z</time></trkpt><trkpt lat="45.74312235552981" lon="10.090446209349638"><ele>208.5</ele><time>2026-04-27T12:06:14.999Z</time></trkpt><trkpt lat="45.7429924804989" lon="10.09048352514198"><ele>208.75</ele><time>2026-04-27T12:06:15.999Z</time></trkpt><trkpt lat="45.74284277569883" lon="10.090549386850222"><ele>209.0</ele><time>2026-04-27T12:06:16.999Z</time></trkpt><trkpt lat="45.74271474765102" lon="10.090608925633795"><ele>211.0</ele><time>2026-04-27T12:06:17.999Z</time></trkpt><trkpt lat="45.742585328768136" lon="10.09069858890699"><ele>213.0</ele><time>2026-04-27T12:06:18.999Z</time></trkpt><trkpt lat="45.74246725548241" lon="10.090781778790117"><ele>215.0</ele><time>2026-04-27T12:06:19.999Z</time></trkpt><trkpt lat="45.742370022928135" lon="10.090887452728719"><ele>217.0</ele><time>2026-04-27T12:06:20.999Z</time></trkpt><trkpt lat="45.742279693114" lon="10.090999169656362"><ele>217.0</ele><time>2026-04-27T12:06:21.999Z</time></trkpt><trkpt lat="45.74215289813078" lon="10.091089504144312"><ele>217.0</ele><time>2026-04-27T12:06:22.999Z</time></trkpt><trkpt lat="45.742048722464965" lon="10.091241126966198"><ele>217.0</ele><time>2026-04-27T12:06:23.999Z</time></trkpt><trkpt lat="45.742012010406995" lon="10.091344869451387"><ele>217.0</ele><time>2026-04-27T12:06:25.998Z</time></trkpt><trkpt lat="45.74189984844362" lon="10.091455063188107"><ele>210.0</ele><time>2026-04-27T12:06:26.998Z</time></trkpt><trkpt lat="45.74178029758573" lon="10.091574397807854"><ele>203.0</ele><time>2026-04-27T12:06:28.142Z</time></trkpt><trkpt lat="45.741496393282866" lon="10.091837793061668"><ele>203.0</ele><time>2026-04-27T12:06:30.998Z</time></trkpt><trkpt lat="45.741382379254375" lon="10.091899070697684"><ele>203.0</ele><time>2026-04-27T12:06:31.998Z</time></trkpt><trkpt lat="45.74130168821604" lon="10.09189255365004"><ele>203.0</ele><time>2026-04-27T12:06:32.998Z</time></trkpt><trkpt lat="45.74120649342923" lon="10.09186484179801"><ele>203.0</ele><time>2026-04-27T12:06:33.998Z</time></trkpt><trkpt lat="45.741084944020606" lon="10.09186249290175"><ele>203.0</ele><time>2026-04-27T12:06:34.998Z</time></trkpt><trkpt lat="45.740869131174456" lon="10.091872242701061"><ele>201.00000000000003</ele><time>2026-04-27T12:06:35.998Z</time></trkpt><trkpt lat="45.740775752691405" lon="10.091817201001483"><ele>199.0</ele><time>2026-04-27T12:06:36.998Z</time></trkpt><trkpt lat="45.74070970068952" lon="10.091804209682845"><ele>197.0</ele><time>2026-04-27T12:06:37.998Z</time></trkpt><trkpt lat="45.74063372131287" lon="10.091795036096194"><ele>195.0</ele><time>2026-04-27T12:06:38.998Z</time></trkpt><trkpt lat="45.740565370605594" lon="10.091781373037797"><ele>193.0</ele><time>2026-04-27T12:06:39.998Z</time></trkpt><trkpt lat="45.740441168797425" lon="10.091777055497476"><ele>191.0</ele><time>2026-04-27T12:06:41.998Z</time></trkpt><trkpt lat="45.74030865796529" lon="10.091749892107208"><ele>191.0</ele><time>2026-04-27T12:06:43.998Z</time></trkpt><trkpt lat="45.740218479700616" lon="10.09175740070827"><ele>191.0</ele><time>2026-04-27T12:06:44.998Z</time></trkpt><trkpt lat="45.74012838801677" lon="10.091751908891732"><ele>191.0</ele><time>2026-04-27T12:06:45.998Z</time></trkpt><trkpt lat="45.740042092723506" lon="10.091746660819357"><ele>191.0</ele><time>2026-04-27T12:06:46.998Z</time></trkpt><trkpt lat="45.739955924654026" lon="10.091753160070219"><ele>191.0</ele><time>2026-04-27T12:06:47.998Z</time></trkpt><trkpt lat="45.73987988506929" lon="10.091765257633423"><ele>191.0</ele><time>2026-04-27T12:06:48.998Z</time></trkpt><trkpt lat="45.73980371687942" lon="10.091798232421985"><ele>191.33333333333331</ele><time>2026-04-27T12:06:49.998Z</time></trkpt><trkpt lat="45.73973175697655" lon="10.091833023228649"><ele>191.66666666666666</ele><time>2026-04-27T12:06:50.998Z</time></trkpt><trkpt lat="45.73966635979958" lon="10.091856267698827"><ele>192.0</ele><time>2026-04-27T12:06:51.998Z</time></trkpt><trkpt lat="45.73959504355983" lon="10.091877882783496"><ele>192.33333333333331</ele><time>2026-04-27T12:06:52.998Z</time></trkpt><trkpt lat="45.73951122035244" lon="10.09192026877183"><ele>192.66666666666666</ele><time>2026-04-27T12:06:53.998Z</time></trkpt><trkpt lat="45.73943494506826" lon="10.09197012862687"><ele>193.0</ele><time>2026-04-27T12:06:54.998Z</time></trkpt><trkpt lat="45.73937553661094" lon="10.092001737697796"><ele>192.99999999999997</ele><time>2026-04-27T12:06:55.998Z</time></trkpt><trkpt lat="45.73932398541496" lon="10.092063148323835"><ele>193.0</ele><time>2026-04-27T12:06:56.998Z</time></trkpt><trkpt lat="45.73926563348112" lon="10.092101201739736"><ele>193.0</ele><time>2026-04-27T12:06:57.998Z</time></trkpt><trkpt lat="45.739179748672434" lon="10.09214865652481"><ele>193.0</ele><time>2026-04-27T12:06:58.998Z</time></trkpt><trkpt lat="45.7391033528877" lon="10.092184299666183"><ele>192.99999999999997</ele><time>2026-04-27T12:06:59.998Z</time></trkpt><trkpt lat="45.7390225051719" lon="10.092210948909276"><ele>193.0</ele><time>2026-04-27T12:07:00.998Z</time></trkpt><trkpt lat="45.73892933360787" lon="10.092226288344914"><ele>193.0</ele><time>2026-04-27T12:07:01.998Z</time></trkpt><trkpt lat="45.73882431170356" lon="10.092214766254497"><ele>193.0</ele><time>2026-04-27T12:07:02.998Z</time></trkpt><trkpt lat="45.73870495658226" lon="10.092208891861647"><ele>193.0</ele><time>2026-04-27T12:07:03.998Z</time></trkpt><trkpt lat="45.73859884402013" lon="10.092200724102899"><ele>193.0</ele><time>2026-04-27T12:07:04.998Z</time></trkpt><trkpt lat="45.73851100733066" lon="10.092202581423141"><ele>193.0</ele><time>2026-04-27T12:07:05.998Z</time></trkpt><trkpt lat="45.738408446916694" lon="10.092201789206282"><ele>192.60000000000002</ele><time>2026-04-27T12:07:06.998Z</time></trkpt><trkpt lat="45.738312676262105" lon="10.092183043564258"><ele>192.20000000000002</ele><time>2026-04-27T12:07:07.998Z</time></trkpt><trkpt lat="45.738215881223596" lon="10.092161180317337"><ele>191.8</ele><time>2026-04-27T12:07:08.998Z</time></trkpt><trkpt lat="45.73810164681799" lon="10.092153162620004"><ele>191.4</ele><time>2026-04-27T12:07:09.998Z</time></trkpt><trkpt lat="45.73797825320414" lon="10.09214613646662"><ele>191.0</ele><time>2026-04-27T12:07:10.998Z</time></trkpt><trkpt lat="45.73784177767382" lon="10.092137358069557"><ele>191.25</ele><time>2026-04-27T12:07:11.998Z</time></trkpt><trkpt lat="45.73770343640508" lon="10.092131050866799"><ele>191.5</ele><time>2026-04-27T12:07:12.998Z</time></trkpt><trkpt lat="45.73756988028634" lon="10.09211578905165"><ele>191.75</ele><time>2026-04-27T12:07:13.998Z</time></trkpt><trkpt lat="45.737423797351504" lon="10.092099995365409"><ele>192.0</ele><time>2026-04-27T12:07:14.998Z</time></trkpt><trkpt lat="45.73728088454358" lon="10.092088746371678"><ele>192.0</ele><time>2026-04-27T12:07:15.998Z</time></trkpt><trkpt lat="45.73713206709474" lon="10.09207284680128"><ele>192.0</ele><time>2026-04-27T12:07:16.998Z</time></trkpt><trkpt lat="45.73698481373861" lon="10.092057067278896"><ele>192.0</ele><time>2026-04-27T12:07:17.998Z</time></trkpt><trkpt lat="45.73683455788872" lon="10.092040871318009"><ele>192.0</ele><time>2026-04-27T12:07:18.998Z</time></trkpt><trkpt lat="45.73668236572005" lon="10.092026578198187"><ele>192.25</ele><time>2026-04-27T12:07:19.998Z</time></trkpt><trkpt lat="45.736544301981354" lon="10.092011860117427"><ele>192.5</ele><time>2026-04-27T12:07:20.998Z</time></trkpt><trkpt lat="45.73641848264571" lon="10.09199858430167"><ele>192.75</ele><time>2026-04-27T12:07:21.998Z</time></trkpt><trkpt lat="45.7362930146102" lon="10.091976085121482"><ele>193.0</ele><time>2026-04-27T12:07:22.998Z</time></trkpt><trkpt lat="45.73615578727482" lon="10.091951430396557"><ele>193.0</ele><time>2026-04-27T12:07:23.998Z</time></trkpt><trkpt lat="45.73600227853917" lon="10.09193269067857"><ele>193.0</ele><time>2026-04-27T12:07:24.998Z</time></trkpt><trkpt lat="45.73584927297831" lon="10.091903084796197"><ele>193.0</ele><time>2026-04-27T12:07:25.998Z</time></trkpt><trkpt lat="45.73568718676057" lon="10.091876811636887"><ele>193.0</ele><time>2026-04-27T12:07:26.998Z</time></trkpt><trkpt lat="45.73551130590769" lon="10.091864075969628"><ele>193.0</ele><time>2026-04-27T12:07:27.998Z</time></trkpt><trkpt lat="45.735345651066794" lon="10.091856447585103"><ele>193.0</ele><time>2026-04-27T12:07:28.998Z</time></trkpt><trkpt lat="45.73517132729018" lon="10.091855887624973"><ele>193.0</ele><time>2026-04-27T12:07:29.998Z</time></trkpt><trkpt lat="45.73499322554845" lon="10.091881207619739"><ele>193.0</ele><time>2026-04-27T12:07:30.999Z</time></trkpt><trkpt lat="45.734819361797754" lon="10.091912113808652"><ele>193.0</ele><time>2026-04-27T12:07:31.999Z</time></trkpt><trkpt lat="45.73463727543893" lon="10.091947891246067"><ele>193.0</ele><time>2026-04-27T12:07:32.999Z</time></trkpt><trkpt lat="45.734455237873114" lon="10.092008790329151"><ele>193.0</ele><time>2026-04-27T12:07:33.999Z</time></trkpt><trkpt lat="45.73427097999166" lon="10.09208002339437"><ele>193.0</ele><time>2026-04-27T12:07:34.999Z</time></trkpt><trkpt lat="45.73409096770805" lon="10.09217422694708"><ele>192.66666666666666</ele><time>2026-04-27T12:07:35.999Z</time></trkpt><trkpt lat="45.733917066351" lon="10.092276527354514"><ele>192.33333333333331</ele><time>2026-04-27T12:07:36.998Z</time></trkpt><trkpt lat="45.73374659205519" lon="10.092388061745998"><ele>192.0</ele><time>2026-04-27T12:07:37.998Z</time></trkpt><trkpt lat="45.73357765807128" lon="10.092490928020876"><ele>191.33333333333334</ele><time>2026-04-27T12:07:38.999Z</time></trkpt><trkpt lat="45.73341598116149" lon="10.092593070480111"><ele>190.66666666666669</ele><time>2026-04-27T12:07:39.998Z</time></trkpt><trkpt lat="45.733265829578535" lon="10.09268775834728"><ele>190.0</ele><time>2026-04-27T12:07:40.998Z</time></trkpt><trkpt lat="45.733128771155634" lon="10.092777596641662"><ele>190.0</ele><time>2026-04-27T12:07:41.998Z</time></trkpt><trkpt lat="45.732991673240655" lon="10.092871123854987"><ele>190.0</ele><time>2026-04-27T12:07:42.999Z</time></trkpt><trkpt lat="45.73285111866797" lon="10.092919942911035"><ele>190.0</ele><time>2026-04-27T12:07:43.999Z</time></trkpt><trkpt lat="45.73272697075144" lon="10.093006977578971"><ele>190.0</ele><time>2026-04-27T12:07:44.999Z</time></trkpt><trkpt lat="45.7325903717057" lon="10.093097548340378"><ele>189.33333333333334</ele><time>2026-04-27T12:07:45.999Z</time></trkpt><trkpt lat="45.73243420988767" lon="10.0932047303577"><ele>188.66666666666666</ele><time>2026-04-27T12:07:46.999Z</time></trkpt><trkpt lat="45.732274146367864" lon="10.093309723306671"><ele>188.0</ele><time>2026-04-27T12:07:47.999Z</time></trkpt><trkpt lat="45.732125199345774" lon="10.093413195607154"><ele>188.0</ele><time>2026-04-27T12:07:48.999Z</time></trkpt><trkpt lat="45.73199012649726" lon="10.093503949132513"><ele>188.0</ele><time>2026-04-27T12:07:49.999Z</time></trkpt><trkpt lat="45.73186525273336" lon="10.093600386186841"><ele>188.0</ele><time>2026-04-27T12:07:50.999Z</time></trkpt><trkpt lat="45.73173690103655" lon="10.093691898626716"><ele>188.0</ele><time>2026-04-27T12:07:51.999Z</time></trkpt><trkpt lat="45.73159233363291" lon="10.093794169242258"><ele>188.0</ele><time>2026-04-27T12:07:52.999Z</time></trkpt><trkpt lat="45.73143150892404" lon="10.093903597849211"><ele>188.0</ele><time>2026-04-27T12:07:53.999Z</time></trkpt><trkpt lat="45.73126308753831" lon="10.094021909554238"><ele>188.0</ele><time>2026-04-27T12:07:54.999Z</time></trkpt><trkpt lat="45.731114130317074" lon="10.094124155262946"><ele>188.33333333333331</ele><time>2026-04-27T12:07:55.999Z</time></trkpt><trkpt lat="45.73096779561858" lon="10.09423044371861"><ele>188.66666666666666</ele><time>2026-04-27T12:07:56.999Z</time></trkpt><trkpt lat="45.73081577267543" lon="10.09434376005331"><ele>189.0</ele><time>2026-04-27T12:07:57.999Z</time></trkpt><trkpt lat="45.73066122731169" lon="10.09445256425701"><ele>189.0</ele><time>2026-04-27T12:07:58.999Z</time></trkpt><trkpt lat="45.730499475005686" lon="10.094563024988833"><ele>189.0</ele><time>2026-04-27T12:07:59.999Z</time></trkpt><trkpt lat="45.730336010727" lon="10.094680042547845"><ele>189.0</ele><time>2026-04-27T12:08:00.999Z</time></trkpt><trkpt lat="45.73015806707951" lon="10.094803276532632"><ele>188.33333333333334</ele><time>2026-04-27T12:08:01.999Z</time></trkpt><trkpt lat="45.72998215637165" lon="10.094916049897236"><ele>187.66666666666669</ele><time>2026-04-27T12:08:02.999Z</time></trkpt><trkpt lat="45.72981000078049" lon="10.095025216858568"><ele>187.0</ele><time>2026-04-27T12:08:03.999Z</time></trkpt><trkpt lat="45.72964140312422" lon="10.095135913454277"><ele>187.33333333333334</ele><time>2026-04-27T12:08:04.999Z</time></trkpt><trkpt lat="45.729491614836434" lon="10.095240847470608"><ele>187.66666666666666</ele><time>2026-04-27T12:08:05.999Z</time></trkpt><trkpt lat="45.72932927762213" lon="10.095370186926475"><ele>188.0</ele><time>2026-04-27T12:08:06.999Z</time></trkpt><trkpt lat="45.72916585100089" lon="10.095517539520085"><ele>188.0</ele><time>2026-04-27T12:08:07.999Z</time></trkpt><trkpt lat="45.72900370587571" lon="10.095682704727167"><ele>188.0</ele><time>2026-04-27T12:08:08.999Z</time></trkpt><trkpt lat="45.728863626739695" lon="10.095834627764939"><ele>188.0</ele><time>2026-04-27T12:08:09.999Z</time></trkpt><trkpt lat="45.728733064594785" lon="10.095981903328303"><ele>187.33333333333331</ele><time>2026-04-27T12:08:10.999Z</time></trkpt><trkpt lat="45.728601600494414" lon="10.096133337928697"><ele>186.66666666666666</ele><time>2026-04-27T12:08:11.999Z</time></trkpt><trkpt lat="45.72845910587556" lon="10.096284570680885"><ele>186.0</ele><time>2026-04-27T12:08:12.999Z</time></trkpt><trkpt lat="45.72830221434909" lon="10.096420186809336"><ele>186.0</ele><time>2026-04-27T12:08:13.999Z</time></trkpt><trkpt lat="45.72813303227404" lon="10.096561314222072"><ele>186.0</ele><time>2026-04-27T12:08:14.999Z</time></trkpt><trkpt lat="45.727973223156795" lon="10.096684676536537"><ele>186.0</ele><time>2026-04-27T12:08:15.999Z</time></trkpt><trkpt lat="45.727827617822655" lon="10.096851890054845"><ele>185.33333333333334</ele><time>2026-04-27T12:08:16.999Z</time></trkpt><trkpt lat="45.72769814936514" lon="10.09702022396828"><ele>184.66666666666669</ele><time>2026-04-27T12:08:17.999Z</time></trkpt><trkpt lat="45.72757112712565" lon="10.097206340512193"><ele>184.0</ele><time>2026-04-27T12:08:18.999Z</time></trkpt><trkpt lat="45.72744092062356" lon="10.097399172492599"><ele>185.66666666666669</ele><time>2026-04-27T12:08:19.999Z</time></trkpt><trkpt lat="45.727312316276354" lon="10.097593227541916"><ele>187.33333333333334</ele><time>2026-04-27T12:08:20.999Z</time></trkpt><trkpt lat="45.727193224411124" lon="10.097780587320106"><ele>189.0</ele><time>2026-04-27T12:08:21.999Z</time></trkpt><trkpt lat="45.72708031326733" lon="10.097981621125806"><ele>189.0</ele><time>2026-04-27T12:08:22.999Z</time></trkpt><trkpt lat="45.72698348740253" lon="10.098189307886996"><ele>189.0</ele><time>2026-04-27T12:08:23.999Z</time></trkpt><trkpt lat="45.7269019784345" lon="10.09837769264861"><ele>189.0</ele><time>2026-04-27T12:08:24.999Z</time></trkpt><trkpt lat="45.726822696190645" lon="10.098580697830144"><ele>188.66666666666666</ele><time>2026-04-27T12:08:25.999Z</time></trkpt><trkpt lat="45.72673715585568" lon="10.098787054864019"><ele>188.33333333333331</ele><time>2026-04-27T12:08:26.999Z</time></trkpt><trkpt lat="45.726656903204955" lon="10.099009149510744"><ele>188.0</ele><time>2026-04-27T12:08:27.999Z</time></trkpt><trkpt lat="45.72658702360691" lon="10.099237935489578"><ele>188.0</ele><time>2026-04-27T12:08:28.999Z</time></trkpt><trkpt lat="45.72652695228666" lon="10.099477028680814"><ele>188.0</ele><time>2026-04-27T12:08:29.999Z</time></trkpt><trkpt lat="45.726473474817915" lon="10.099693211405185"><ele>188.0</ele><time>2026-04-27T12:08:30.999Z</time></trkpt><trkpt lat="45.726413477429325" lon="10.099911130186856"><ele>190.0</ele><time>2026-04-27T12:08:31.999Z</time></trkpt><trkpt lat="45.7263527231149" lon="10.100144479448762"><ele>192.0</ele><time>2026-04-27T12:08:32.999Z</time></trkpt><trkpt lat="45.726289580520096" lon="10.10037935805906"><ele>194.0</ele><time>2026-04-27T12:08:33.999Z</time></trkpt><trkpt lat="45.726235736461106" lon="10.100588233775683"><ele>195.25</ele><time>2026-04-27T12:08:34.999Z</time></trkpt><trkpt lat="45.72618458504441" lon="10.100781040026144"><ele>196.5</ele><time>2026-04-27T12:08:35.999Z</time></trkpt><trkpt lat="45.726149957382795" lon="10.100984066781555"><ele>197.75</ele><time>2026-04-27T12:08:36.999Z</time></trkpt><trkpt lat="45.72610688528324" lon="10.10116638452925"><ele>199.0</ele><time>2026-04-27T12:08:37.999Z</time></trkpt><trkpt lat="45.7260567789016" lon="10.101370247120135"><ele>196.0</ele><time>2026-04-27T12:08:38.999Z</time></trkpt><trkpt lat="45.725996529615784" lon="10.101564325133317"><ele>193.0</ele><time>2026-04-27T12:08:39.999Z</time></trkpt><trkpt lat="45.72596215364687" lon="10.101725876299463"><ele>190.0</ele><time>2026-04-27T12:08:40.999Z</time></trkpt><trkpt lat="45.72593581505177" lon="10.101890759703101"><ele>187.0</ele><time>2026-04-27T12:08:41.999Z</time></trkpt><trkpt lat="45.72593218340576" lon="10.102051394223292"><ele>186.5</ele><time>2026-04-27T12:08:42.999Z</time></trkpt><trkpt lat="45.725900456455584" lon="10.102201595232124"><ele>186.0</ele><time>2026-04-27T12:08:43.999Z</time></trkpt><trkpt lat="45.72588622161036" lon="10.102346695918138"><ele>185.5</ele><time>2026-04-27T12:08:44.999Z</time></trkpt><trkpt lat="45.72587068045658" lon="10.102521248833144"><ele>185.0</ele><time>2026-04-27T12:08:45.999Z</time></trkpt><trkpt lat="45.72585322423814" lon="10.102715080284616"><ele>185.0</ele><time>2026-04-27T12:08:46.999Z</time></trkpt><trkpt lat="45.72583400923495" lon="10.102924052048294"><ele>185.0</ele><time>2026-04-27T12:08:47.999Z</time></trkpt><trkpt lat="45.72581348383541" lon="10.103130111237226"><ele>185.0</ele><time>2026-04-27T12:08:48.999Z</time></trkpt><trkpt lat="45.72579599891437" lon="10.103334283776546"><ele>185.0</ele><time>2026-04-27T12:08:49.999Z</time></trkpt><trkpt lat="45.72576641039547" lon="10.103513525945107"><ele>186.5</ele><time>2026-04-27T12:08:50.999Z</time></trkpt><trkpt lat="45.725735095593734" lon="10.103680988144685"><ele>188.0</ele><time>2026-04-27T12:08:51.999Z</time></trkpt><trkpt lat="45.72568929753357" lon="10.103834363128836"><ele>189.5</ele><time>2026-04-27T12:08:52.999Z</time></trkpt><trkpt lat="45.72562477915298" lon="10.103974669679799"><ele>191.0</ele><time>2026-04-27T12:08:53.999Z</time></trkpt><trkpt lat="45.725560058014686" lon="10.104133025861607"><ele>191.33333333333331</ele><time>2026-04-27T12:08:54.999Z</time></trkpt><trkpt lat="45.72546701531306" lon="10.104288125129315"><ele>191.66666666666666</ele><time>2026-04-27T12:08:55.999Z</time></trkpt><trkpt lat="45.72534435809428" lon="10.104419280627775"><ele>192.0</ele><time>2026-04-27T12:08:56.999Z</time></trkpt><trkpt lat="45.72520692381642" lon="10.10454788859029"><ele>192.66666666666669</ele><time>2026-04-27T12:08:57.999Z</time></trkpt><trkpt lat="45.72506826469144" lon="10.104688848270952"><ele>193.33333333333334</ele><time>2026-04-27T12:08:58.999Z</time></trkpt><trkpt lat="45.72493597069101" lon="10.104827170980805"><ele>194.0</ele><time>2026-04-27T12:08:59.999Z</time></trkpt><trkpt lat="45.724813094682446" lon="10.104953503331975"><ele>194.0</ele><time>2026-04-27T12:09:00.999Z</time></trkpt><trkpt lat="45.72469202565794" lon="10.105077322948814"><ele>194.0</ele><time>2026-04-27T12:09:01.999Z</time></trkpt><trkpt lat="45.724549984854775" lon="10.105241238098202"><ele>194.0</ele><time>2026-04-27T12:09:02.999Z</time></trkpt><trkpt lat="45.724391357597916" lon="10.105393932379892"><ele>193.0</ele><time>2026-04-27T12:09:03.999Z</time></trkpt><trkpt lat="45.72421560137555" lon="10.105530045201998"><ele>192.0</ele><time>2026-04-27T12:09:04.999Z</time></trkpt><trkpt lat="45.7240683052492" lon="10.105735607320364"><ele>191.0</ele><time>2026-04-27T12:09:05.999Z</time></trkpt><trkpt lat="45.72390297320762" lon="10.105883584454144"><ele>191.0</ele><time>2026-04-27T12:09:06.999Z</time></trkpt><trkpt lat="45.723754380474794" lon="10.106010674498446"><ele>191.0</ele><time>2026-04-27T12:09:07.999Z</time></trkpt><trkpt lat="45.723619706958075" lon="10.106131013367847"><ele>191.0</ele><time>2026-04-27T12:09:08.999Z</time></trkpt><trkpt lat="45.72348936826953" lon="10.106251588105337"><ele>191.0</ele><time>2026-04-27T12:09:09.999Z</time></trkpt><trkpt lat="45.723355112945264" lon="10.106390976599489"><ele>191.0</ele><time>2026-04-27T12:09:10.999Z</time></trkpt><trkpt lat="45.72322523199605" lon="10.10651601922951"><ele>191.0</ele><time>2026-04-27T12:09:11.999Z</time></trkpt><trkpt lat="45.72309665644268" lon="10.106637016317231"><ele>191.0</ele><time>2026-04-27T12:09:12.999Z</time></trkpt><trkpt lat="45.72297232257947" lon="10.106757919146416"><ele>191.0</ele><time>2026-04-27T12:09:13.999Z</time></trkpt><trkpt lat="45.72284951184506" lon="10.10687385237199"><ele>191.0</ele><time>2026-04-27T12:09:14.999Z</time></trkpt><trkpt lat="45.72273173434886" lon="10.106985088781098"><ele>191.0</ele><time>2026-04-27T12:09:15.999Z</time></trkpt><trkpt lat="45.722614362574625" lon="10.107108018722302"><ele>191.0</ele><time>2026-04-27T12:09:16.999Z</time></trkpt><trkpt lat="45.72249262159598" lon="10.107225672646635"><ele>191.0</ele><time>2026-04-27T12:09:17.999Z</time></trkpt><trkpt lat="45.722377469078914" lon="10.107358541283613"><ele>191.0</ele><time>2026-04-27T12:09:18.999Z</time></trkpt><trkpt lat="45.722282335430684" lon="10.107482971241676"><ele>191.0</ele><time>2026-04-27T12:09:19.999Z</time></trkpt><trkpt lat="45.72219858569695" lon="10.107600808626204"><ele>191.0</ele><time>2026-04-27T12:09:20.999Z</time></trkpt><trkpt lat="45.72212942805695" lon="10.107711617990226"><ele>191.0</ele><time>2026-04-27T12:09:21.999Z</time></trkpt><trkpt lat="45.722051152990616" lon="10.107822680108013"><ele>191.0</ele><time>2026-04-27T12:09:22.999Z</time></trkpt><trkpt lat="45.72196481548374" lon="10.107948198103024"><ele>191.0</ele><time>2026-04-27T12:09:23.999Z</time></trkpt><trkpt lat="45.72187745627071" lon="10.108086186746146"><ele>190.20000000000002</ele><time>2026-04-27T12:09:24.999Z</time></trkpt><trkpt lat="45.721785348431574" lon="10.108219327742562"><ele>189.4</ele><time>2026-04-27T12:09:25.999Z</time></trkpt><trkpt lat="45.72170368685469" lon="10.108332318154838"><ele>188.6</ele><time>2026-04-27T12:09:26.999Z</time></trkpt><trkpt lat="45.721625863995484" lon="10.108417115317009"><ele>187.8</ele><time>2026-04-27T12:09:27.999Z</time></trkpt><trkpt lat="45.72154558246507" lon="10.108494329888025"><ele>187.0</ele><time>2026-04-27T12:09:28.999Z</time></trkpt><trkpt lat="45.72145991068463" lon="10.108571399908962"><ele>187.0</ele><time>2026-04-27T12:09:29.999Z</time></trkpt><trkpt lat="45.72137867189018" lon="10.108624730600791"><ele>187.0</ele><time>2026-04-27T12:09:30.999Z</time></trkpt><trkpt lat="45.7212932527725" lon="10.108678756243009"><ele>187.0</ele><time>2026-04-27T12:09:31.999Z</time></trkpt><trkpt lat="45.72121340660211" lon="10.108717433378569"><ele>187.0</ele><time>2026-04-27T12:09:32.999Z</time></trkpt><trkpt lat="45.72111594577282" lon="10.108776306861902"><ele>187.0</ele><time>2026-04-27T12:09:33.999Z</time></trkpt><trkpt lat="45.72099954829663" lon="10.108864737185712"><ele>187.75</ele><time>2026-04-27T12:09:34.999Z</time></trkpt><trkpt lat="45.72087654330839" lon="10.10896954229134"><ele>188.5</ele><time>2026-04-27T12:09:35.999Z</time></trkpt><trkpt lat="45.72076623067321" lon="10.109080684613346"><ele>189.25</ele><time>2026-04-27T12:09:36.998Z</time></trkpt><trkpt lat="45.720651527119664" lon="10.109153375423848"><ele>190.0</ele><time>2026-04-27T12:09:37.998Z</time></trkpt><trkpt lat="45.720580556482126" lon="10.109255625615308"><ele>190.0</ele><time>2026-04-27T12:09:38.998Z</time></trkpt><trkpt lat="45.72051252351116" lon="10.109355158370038"><ele>190.0</ele><time>2026-04-27T12:09:39.999Z</time></trkpt><trkpt lat="45.72044541005399" lon="10.109479918223192"><ele>190.0</ele><time>2026-04-27T12:09:40.999Z</time></trkpt><trkpt lat="45.72035653309391" lon="10.109548153432632"><ele>190.0</ele><time>2026-04-27T12:09:41.999Z</time></trkpt><trkpt lat="45.720256891603185" lon="10.10961445708418"><ele>190.0</ele><time>2026-04-27T12:09:42.998Z</time></trkpt><trkpt lat="45.72015490259375" lon="10.10966124202271"><ele>188.25</ele><time>2026-04-27T12:09:43.998Z</time></trkpt><trkpt lat="45.72004673372877" lon="10.109691566888353"><ele>186.5</ele><time>2026-04-27T12:09:44.998Z</time></trkpt><trkpt lat="45.71993393304903" lon="10.109723561041122"><ele>184.75</ele><time>2026-04-27T12:09:45.999Z</time></trkpt><trkpt lat="45.71981774187182" lon="10.10975010076407"><ele>183.0</ele><time>2026-04-27T12:09:46.999Z</time></trkpt><trkpt lat="45.719693652030905" lon="10.109787356965144"><ele>183.0</ele><time>2026-04-27T12:09:47.999Z</time></trkpt><trkpt lat="45.71957040816728" lon="10.109825368175413"><ele>183.0</ele><time>2026-04-27T12:09:48.998Z</time></trkpt><trkpt lat="45.71945669908762" lon="10.10986428347531"><ele>183.0</ele><time>2026-04-27T12:09:49.998Z</time></trkpt><trkpt lat="45.719337250346825" lon="10.10989662081136"><ele>183.0</ele><time>2026-04-27T12:09:50.998Z</time></trkpt><trkpt lat="45.71922500409772" lon="10.109933833374711"><ele>184.5</ele><time>2026-04-27T12:09:51.998Z</time></trkpt><trkpt lat="45.71910145533221" lon="10.109979288642226"><ele>186.0</ele><time>2026-04-27T12:09:52.998Z</time></trkpt><trkpt lat="45.718964756554605" lon="10.110030495274207"><ele>187.5</ele><time>2026-04-27T12:09:53.998Z</time></trkpt><trkpt lat="45.71880338079338" lon="10.110086895238014"><ele>189.0</ele><time>2026-04-27T12:09:54.998Z</time></trkpt><trkpt lat="45.71866021340113" lon="10.110174182538165"><ele>188.75</ele><time>2026-04-27T12:09:55.998Z</time></trkpt><trkpt lat="45.71854196552671" lon="10.1102524093356"><ele>188.5</ele><time>2026-04-27T12:09:56.998Z</time></trkpt><trkpt lat="45.71843424340751" lon="10.110322506095066"><ele>188.25</ele><time>2026-04-27T12:09:57.998Z</time></trkpt><trkpt lat="45.71831816014023" lon="10.110380038962656"><ele>188.0</ele><time>2026-04-27T12:09:58.998Z</time></trkpt><trkpt lat="45.718212402893" lon="10.110440981979533"><ele>188.0</ele><time>2026-04-27T12:09:59.998Z</time></trkpt><trkpt lat="45.71809993421459" lon="10.110500410584503"><ele>188.0</ele><time>2026-04-27T12:10:00.998Z</time></trkpt><trkpt lat="45.71798553924087" lon="10.110521765612548"><ele>188.0</ele><time>2026-04-27T12:10:01.998Z</time></trkpt><trkpt lat="45.7178767633048" lon="10.110532543032672"><ele>188.0</ele><time>2026-04-27T12:10:02.998Z</time></trkpt><trkpt lat="45.71779130121804" lon="10.110517707980632"><ele>188.0</ele><time>2026-04-27T12:10:03.998Z</time></trkpt><trkpt lat="45.71770716048096" lon="10.110503110966313"><ele>187.83333333333331</ele><time>2026-04-27T12:10:04.998Z</time></trkpt><trkpt lat="45.71763234192999" lon="10.110486615714608"><ele>187.66666666666666</ele><time>2026-04-27T12:10:05.998Z</time></trkpt><trkpt lat="45.71755416654837" lon="10.110480665972457"><ele>187.5</ele><time>2026-04-27T12:10:06.998Z</time></trkpt><trkpt lat="45.71749438346569" lon="10.110414441445043"><ele>187.33333333333334</ele><time>2026-04-27T12:10:07.998Z</time></trkpt><trkpt lat="45.71741466384809" lon="10.110392593863073"><ele>187.16666666666669</ele><time>2026-04-27T12:10:08.998Z</time></trkpt><trkpt lat="45.71732103692168" lon="10.110382592706674"><ele>187.0</ele><time>2026-04-27T12:10:09.998Z</time></trkpt><trkpt lat="45.71723524315845" lon="10.110378976206324"><ele>187.0</ele><time>2026-04-27T12:10:10.998Z</time></trkpt><trkpt lat="45.7171257664867" lon="10.110368008764324"><ele>187.0</ele><time>2026-04-27T12:10:11.998Z</time></trkpt><trkpt lat="45.717031942625376" lon="10.110343891310364"><ele>187.0</ele><time>2026-04-27T12:10:12.998Z</time></trkpt><trkpt lat="45.71693451634322" lon="10.110311355689584"><ele>187.0</ele><time>2026-04-27T12:10:13.998Z</time></trkpt><trkpt lat="45.71684932528377" lon="10.110254481022203"><ele>187.0</ele><time>2026-04-27T12:10:14.998Z</time></trkpt><trkpt lat="45.71676919970083" lon="10.11019390395347"><ele>186.8</ele><time>2026-04-27T12:10:15.998Z</time></trkpt><trkpt lat="45.716668060373976" lon="10.110149083630805"><ele>186.6</ele><time>2026-04-27T12:10:16.998Z</time></trkpt><trkpt lat="45.716557821499" lon="10.110131677391147"><ele>186.4</ele><time>2026-04-27T12:10:17.998Z</time></trkpt><trkpt lat="45.716455861523436" lon="10.110082155426174"><ele>186.20000000000002</ele><time>2026-04-27T12:10:18.998Z</time></trkpt><trkpt lat="45.71635850147608" lon="10.110082401974827"><ele>186.0</ele><time>2026-04-27T12:10:19.998Z</time></trkpt><trkpt lat="45.71627252219356" lon="10.110073730339142"><ele>186.0</ele><time>2026-04-27T12:10:20.998Z</time></trkpt><trkpt lat="45.71620130693968" lon="10.110027880033002"><ele>186.0</ele><time>2026-04-27T12:10:21.998Z</time></trkpt><trkpt lat="45.716103523702834" lon="10.110031131144861"><ele>186.0</ele><time>2026-04-27T12:10:22.998Z</time></trkpt><trkpt lat="45.71598172013432" lon="10.110034309884234"><ele>186.0</ele><time>2026-04-27T12:10:23.998Z</time></trkpt><trkpt lat="45.71585801676505" lon="10.110052847770714"><ele>186.0</ele><time>2026-04-27T12:10:24.998Z</time></trkpt><trkpt lat="45.71575646552552" lon="10.110073038354418"><ele>186.0</ele><time>2026-04-27T12:10:25.998Z</time></trkpt><trkpt lat="45.715655268803104" lon="10.11008726647452"><ele>186.0</ele><time>2026-04-27T12:10:26.998Z</time></trkpt><trkpt lat="45.71555298037201" lon="10.110093551767797"><ele>186.0</ele><time>2026-04-27T12:10:27.998Z</time></trkpt><trkpt lat="45.715447870364294" lon="10.110112268290806"><ele>186.0</ele><time>2026-04-27T12:10:28.998Z</time></trkpt><trkpt lat="45.71534588128515" lon="10.11014627612708"><ele>186.0</ele><time>2026-04-27T12:10:29.998Z</time></trkpt><trkpt lat="45.71523712703325" lon="10.110185920597889"><ele>186.0</ele><time>2026-04-27T12:10:30.998Z</time></trkpt><trkpt lat="45.71514353719094" lon="10.110217342718883"><ele>186.0</ele><time>2026-04-27T12:10:31.998Z</time></trkpt><trkpt lat="45.71505343854483" lon="10.11024532994922"><ele>186.0</ele><time>2026-04-27T12:10:32.998Z</time></trkpt><trkpt lat="45.71498130483836" lon="10.110269523126453"><ele>186.0</ele><time>2026-04-27T12:10:33.998Z</time></trkpt><trkpt lat="45.71490994698906" lon="10.110296303580391"><ele>186.0</ele><time>2026-04-27T12:10:34.998Z</time></trkpt><trkpt lat="45.714832745515025" lon="10.110315748558072"><ele>186.0</ele><time>2026-04-27T12:10:35.998Z</time></trkpt><trkpt lat="45.71476428332838" lon="10.110341071304832"><ele>186.0</ele><time>2026-04-27T12:10:36.998Z</time></trkpt><trkpt lat="45.71468615002945" lon="10.110364231475385"><ele>186.0</ele><time>2026-04-27T12:10:37.998Z</time></trkpt><trkpt lat="45.714604787931606" lon="10.110344341126114"><ele>186.0</ele><time>2026-04-27T12:10:38.998Z</time></trkpt><trkpt lat="45.714521470293676" lon="10.110368570281835"><ele>186.0</ele><time>2026-04-27T12:10:39.998Z</time></trkpt><trkpt lat="45.71441746358783" lon="10.110407886123056"><ele>186.0</ele><time>2026-04-27T12:10:40.998Z</time></trkpt><trkpt lat="45.71430947856722" lon="10.110422023302842"><ele>185.25</ele><time>2026-04-27T12:10:41.998Z</time></trkpt><trkpt lat="45.71419453109908" lon="10.110427441819711"><ele>184.5</ele><time>2026-04-27T12:10:42.998Z</time></trkpt><trkpt lat="45.71407740909893" lon="10.110410135513815"><ele>183.75</ele><time>2026-04-27T12:10:43.998Z</time></trkpt><trkpt lat="45.713965504414034" lon="10.110386927122436"><ele>183.0</ele><time>2026-04-27T12:10:44.998Z</time></trkpt><trkpt lat="45.713855346831934" lon="10.110348137730153"><ele>183.0</ele><time>2026-04-27T12:10:45.998Z</time></trkpt><trkpt lat="45.71373704958868" lon="10.11031456865622"><ele>183.0</ele><time>2026-04-27T12:10:46.998Z</time></trkpt><trkpt lat="45.713632827008624" lon="10.110263269476642"><ele>183.0</ele><time>2026-04-27T12:10:47.998Z</time></trkpt><trkpt lat="45.71353994049877" lon="10.110214204015975"><ele>183.0</ele><time>2026-04-27T12:10:48.998Z</time></trkpt><trkpt lat="45.71343929012673" lon="10.11015747905487"><ele>183.0</ele><time>2026-04-27T12:10:49.998Z</time></trkpt><trkpt lat="45.7133230372285" lon="10.11010809720632"><ele>183.75</ele><time>2026-04-27T12:10:50.998Z</time></trkpt><trkpt lat="45.71320286605591" lon="10.110063553580943"><ele>184.5</ele><time>2026-04-27T12:10:51.998Z</time></trkpt><trkpt lat="45.713074452914704" lon="10.11001906419328"><ele>185.25</ele><time>2026-04-27T12:10:52.998Z</time></trkpt><trkpt lat="45.71295205631473" lon="10.109970050003916"><ele>186.0</ele><time>2026-04-27T12:10:53.998Z</time></trkpt><trkpt lat="45.71282386730949" lon="10.109926813657347"><ele>186.60000000000002</ele><time>2026-04-27T12:10:54.998Z</time></trkpt><trkpt lat="45.71271949237376" lon="10.109909730777767"><ele>187.2</ele><time>2026-04-27T12:10:55.998Z</time></trkpt><trkpt lat="45.71263180101512" lon="10.109887807013019"><ele>187.8</ele><time>2026-04-27T12:10:56.998Z</time></trkpt><trkpt lat="45.71252890910894" lon="10.10985258004273"><ele>188.39999999999998</ele><time>2026-04-27T12:10:57.998Z</time></trkpt><trkpt lat="45.71241483199615" lon="10.10981258169222"><ele>189.0</ele><time>2026-04-27T12:10:58.998Z</time></trkpt><trkpt lat="45.71229872057073" lon="10.109755845631128"><ele>188.25</ele><time>2026-04-27T12:10:59.998Z</time></trkpt><trkpt lat="45.712189566533695" lon="10.10972020453191"><ele>187.5</ele><time>2026-04-27T12:11:00.998Z</time></trkpt><trkpt lat="45.71208500311314" lon="10.10970736104509"><ele>186.75</ele><time>2026-04-27T12:11:01.998Z</time></trkpt><trkpt lat="45.71196936113274" lon="10.109672868145319"><ele>186.0</ele><time>2026-04-27T12:11:02.998Z</time></trkpt><trkpt lat="45.711850326438814" lon="10.109664875111214"><ele>186.0</ele><time>2026-04-27T12:11:03.998Z</time></trkpt><trkpt lat="45.7117431616587" lon="10.109671942277743"><ele>186.0</ele><time>2026-04-27T12:11:04.998Z</time></trkpt><trkpt lat="45.71162505759697" lon="10.109681057810459"><ele>186.0</ele><time>2026-04-27T12:11:05.998Z</time></trkpt><trkpt lat="45.71151920549873" lon="10.109691606408713"><ele>186.0</ele><time>2026-04-27T12:11:06.998Z</time></trkpt><trkpt lat="45.711403706869326" lon="10.109696470574173"><ele>186.0</ele><time>2026-04-27T12:11:07.998Z</time></trkpt><trkpt lat="45.71126624278024" lon="10.109673588248722"><ele>186.0</ele><time>2026-04-27T12:11:08.998Z</time></trkpt><trkpt lat="45.7111178996178" lon="10.10966882939776"><ele>186.0</ele><time>2026-04-27T12:11:09.998Z</time></trkpt><trkpt lat="45.7109611780179" lon="10.10966413660507"><ele>186.0</ele><time>2026-04-27T12:11:10.998Z</time></trkpt><trkpt lat="45.7107937339359" lon="10.109657726190145"><ele>186.0</ele><time>2026-04-27T12:11:11.998Z</time></trkpt><trkpt lat="45.71061912019787" lon="10.1096870092271"><ele>186.0</ele><time>2026-04-27T12:11:12.998Z</time></trkpt><trkpt lat="45.71043891202236" lon="10.109689024366423"><ele>186.0</ele><time>2026-04-27T12:11:13.998Z</time></trkpt><trkpt lat="45.71027587379945" lon="10.109689678698452"><ele>185.25</ele><time>2026-04-27T12:11:14.998Z</time></trkpt><trkpt lat="45.7101380557469" lon="10.109696256146922"><ele>184.5</ele><time>2026-04-27T12:11:15.998Z</time></trkpt><trkpt lat="45.71002353542855" lon="10.109700030724014"><ele>183.75</ele><time>2026-04-27T12:11:16.998Z</time></trkpt><trkpt lat="45.709910293871445" lon="10.109715268492863"><ele>183.0</ele><time>2026-04-27T12:11:17.998Z</time></trkpt><trkpt lat="45.709794577670536" lon="10.109732650941183"><ele>183.0</ele><time>2026-04-27T12:11:18.998Z</time></trkpt><trkpt lat="45.709666188234344" lon="10.109745183461008"><ele>183.0</ele><time>2026-04-27T12:11:19.998Z</time></trkpt><trkpt lat="45.709542397451294" lon="10.109750185754155"><ele>183.0</ele><time>2026-04-27T12:11:20.998Z</time></trkpt><trkpt lat="45.709402428904944" lon="10.109760198006581"><ele>183.0</ele><time>2026-04-27T12:11:21.998Z</time></trkpt><trkpt lat="45.70926904266559" lon="10.109713216289036"><ele>183.0</ele><time>2026-04-27T12:11:22.998Z</time></trkpt><trkpt lat="45.70910333272679" lon="10.109707159709613"><ele>183.0</ele><time>2026-04-27T12:11:23.998Z</time></trkpt><trkpt lat="45.70893614031428" lon="10.109688553113559"><ele>183.0</ele><time>2026-04-27T12:11:24.998Z</time></trkpt><trkpt lat="45.70878468572118" lon="10.109679189789015"><ele>183.0</ele><time>2026-04-27T12:11:25.998Z</time></trkpt><trkpt lat="45.7086376737937" lon="10.109672252806051"><ele>183.0</ele><time>2026-04-27T12:11:26.998Z</time></trkpt><trkpt lat="45.708507173573864" lon="10.109672015240362"><ele>183.0</ele><time>2026-04-27T12:11:27.998Z</time></trkpt><trkpt lat="45.70837041121977" lon="10.109658487859377"><ele>183.0</ele><time>2026-04-27T12:11:28.998Z</time></trkpt><trkpt lat="45.708240301710006" lon="10.109621975499566"><ele>183.25</ele><time>2026-04-27T12:11:29.998Z</time></trkpt><trkpt lat="45.70809989795719" lon="10.10958943321781"><ele>183.5</ele><time>2026-04-27T12:11:30.998Z</time></trkpt><trkpt lat="45.70797242951931" lon="10.109547802122599"><ele>183.75</ele><time>2026-04-27T12:11:31.998Z</time></trkpt><trkpt lat="45.70784070764556" lon="10.109510088624816"><ele>184.0</ele><time>2026-04-27T12:11:32.998Z</time></trkpt><trkpt lat="45.707718648711776" lon="10.109463323766963"><ele>184.0</ele><time>2026-04-27T12:11:33.998Z</time></trkpt><trkpt lat="45.70758088296913" lon="10.109426101045875"><ele>184.0</ele><time>2026-04-27T12:11:34.998Z</time></trkpt><trkpt lat="45.7074530941781" lon="10.109384562899978"><ele>184.0</ele><time>2026-04-27T12:11:35.998Z</time></trkpt><trkpt lat="45.707326749093774" lon="10.109339354406611"><ele>184.0</ele><time>2026-04-27T12:11:36.998Z</time></trkpt><trkpt lat="45.70719666741024" lon="10.109295909144501"><ele>184.0</ele><time>2026-04-27T12:11:37.998Z</time></trkpt><trkpt lat="45.70708133662572" lon="10.109245246076142"><ele>184.0</ele><time>2026-04-27T12:11:38.998Z</time></trkpt><trkpt lat="45.7069696625139" lon="10.109197412519048"><ele>184.0</ele><time>2026-04-27T12:11:39.998Z</time></trkpt><trkpt lat="45.706871158324326" lon="10.109152201548737"><ele>184.0</ele><time>2026-04-27T12:11:40.998Z</time></trkpt><trkpt lat="45.706772216245945" lon="10.109108254119525"><ele>184.0</ele><time>2026-04-27T12:11:41.999Z</time></trkpt><trkpt lat="45.706696170403276" lon="10.109080403199815"><ele>184.2</ele><time>2026-04-27T12:11:42.998Z</time></trkpt><trkpt lat="45.706614365128594" lon="10.109061998323916"><ele>184.39999999999998</ele><time>2026-04-27T12:11:43.998Z</time></trkpt><trkpt lat="45.706522363151784" lon="10.10899445229027"><ele>184.6</ele><time>2026-04-27T12:11:44.999Z</time></trkpt><trkpt lat="45.70642233020699" lon="10.108963622719328"><ele>184.8</ele><time>2026-04-27T12:11:45.999Z</time></trkpt><trkpt lat="45.70633430603052" lon="10.10893374014539"><ele>185.0</ele><time>2026-04-27T12:11:46.999Z</time></trkpt><trkpt lat="45.70624655142139" lon="10.108907356509267"><ele>185.0</ele><time>2026-04-27T12:11:47.999Z</time></trkpt><trkpt lat="45.70611727292226" lon="10.10886915427695"><ele>185.0</ele><time>2026-04-27T12:11:49.998Z</time></trkpt><trkpt lat="45.70604854474397" lon="10.10882549329224"><ele>185.0</ele><time>2026-04-27T12:11:50.998Z</time></trkpt><trkpt lat="45.70597165206923" lon="10.108767926937832"><ele>185.0</ele><time>2026-04-27T12:11:51.999Z</time></trkpt><trkpt lat="45.70588753072001" lon="10.10871470691446"><ele>185.0</ele><time>2026-04-27T12:11:52.999Z</time></trkpt><trkpt lat="45.705802926008126" lon="10.108666278470263"><ele>186.4</ele><time>2026-04-27T12:11:53.999Z</time></trkpt><trkpt lat="45.70571811052376" lon="10.108603454012503"><ele>187.8</ele><time>2026-04-27T12:11:54.998Z</time></trkpt><trkpt lat="45.70562922953783" lon="10.108540729449699"><ele>189.2</ele><time>2026-04-27T12:11:55.998Z</time></trkpt><trkpt lat="45.70553989667514" lon="10.108483484831673"><ele>190.6</ele><time>2026-04-27T12:11:56.998Z</time></trkpt><trkpt lat="45.705471124973585" lon="10.108434805050013"><ele>192.0</ele><time>2026-04-27T12:11:57.998Z</time></trkpt><trkpt lat="45.70539047174548" lon="10.108396136693216"><ele>192.0</ele><time>2026-04-27T12:11:58.998Z</time></trkpt><trkpt lat="45.7053013986932" lon="10.108357282991484"><ele>192.0</ele><time>2026-04-27T12:11:59.998Z</time></trkpt><trkpt lat="45.70519556851068" lon="10.108328637013981"><ele>192.0</ele><time>2026-04-27T12:12:00.998Z</time></trkpt><trkpt lat="45.705099232515295" lon="10.108305941135443"><ele>192.0</ele><time>2026-04-27T12:12:01.998Z</time></trkpt><trkpt lat="45.704984002928505" lon="10.108288041056454"><ele>192.0</ele><time>2026-04-27T12:12:02.998Z</time></trkpt><trkpt lat="45.70482753146649" lon="10.10827783109067"><ele>190.66666666666666</ele><time>2026-04-27T12:12:03.998Z</time></trkpt><trkpt lat="45.704652207522436" lon="10.108217036935413"><ele>189.33333333333331</ele><time>2026-04-27T12:12:04.998Z</time></trkpt><trkpt lat="45.704453446456455" lon="10.108202818472666"><ele>188.0</ele><time>2026-04-27T12:12:05.998Z</time></trkpt><trkpt lat="45.70424271575549" lon="10.108199678876973"><ele>188.0</ele><time>2026-04-27T12:12:06.998Z</time></trkpt><trkpt lat="45.70401887476507" lon="10.108205969910696"><ele>188.0</ele><time>2026-04-27T12:12:07.998Z</time></trkpt><trkpt lat="45.70379267729382" lon="10.108213746215263"><ele>187.0</ele><time>2026-04-27T12:12:08.998Z</time></trkpt><trkpt lat="45.703569667889795" lon="10.108235259300931"><ele>186.0</ele><time>2026-04-27T12:12:09.998Z</time></trkpt><trkpt lat="45.703335542013285" lon="10.108243873107767"><ele>189.0</ele><time>2026-04-27T12:12:10.998Z</time></trkpt><trkpt lat="45.70309732768474" lon="10.108255142416251"><ele>192.0</ele><time>2026-04-27T12:12:11.998Z</time></trkpt><trkpt lat="45.70286172081666" lon="10.108273788563727"><ele>191.0</ele><time>2026-04-27T12:12:12.998Z</time></trkpt><trkpt lat="45.702626038133936" lon="10.108293144183143"><ele>190.0</ele><time>2026-04-27T12:12:13.998Z</time></trkpt><trkpt lat="45.70238698987042" lon="10.108321157289968"><ele>190.0</ele><time>2026-04-27T12:12:14.998Z</time></trkpt><trkpt lat="45.70217151661792" lon="10.108334255504841"><ele>190.0</ele><time>2026-04-27T12:12:15.998Z</time></trkpt><trkpt lat="45.70196459334797" lon="10.108310448288844"><ele>190.0</ele><time>2026-04-27T12:12:16.998Z</time></trkpt><trkpt lat="45.7017506244251" lon="10.108289513250535"><ele>187.66666666666669</ele><time>2026-04-27T12:12:17.998Z</time></trkpt><trkpt lat="45.70153379129729" lon="10.108229972652696"><ele>185.33333333333334</ele><time>2026-04-27T12:12:18.998Z</time></trkpt><trkpt lat="45.701330627174194" lon="10.108174154535375"><ele>183.0</ele><time>2026-04-27T12:12:19.998Z</time></trkpt><trkpt lat="45.70112974676901" lon="10.108115384786373"><ele>182.66666666666666</ele><time>2026-04-27T12:12:20.998Z</time></trkpt><trkpt lat="45.70092881565601" lon="10.10809803717411"><ele>182.33333333333331</ele><time>2026-04-27T12:12:21.998Z</time></trkpt><trkpt lat="45.70073264360772" lon="10.108057191641047"><ele>182.0</ele><time>2026-04-27T12:12:22.998Z</time></trkpt><trkpt lat="45.7005437693669" lon="10.1080090729896"><ele>182.0</ele><time>2026-04-27T12:12:23.998Z</time></trkpt><trkpt lat="45.70034024977546" lon="10.107953383184977"><ele>182.0</ele><time>2026-04-27T12:12:24.998Z</time></trkpt><trkpt lat="45.700147138638165" lon="10.107869732922072"><ele>182.0</ele><time>2026-04-27T12:12:25.998Z</time></trkpt><trkpt lat="45.69994893333837" lon="10.107765780635232"><ele>182.33333333333331</ele><time>2026-04-27T12:12:26.998Z</time></trkpt><trkpt lat="45.69976942134127" lon="10.107660419320506"><ele>182.66666666666666</ele><time>2026-04-27T12:12:27.998Z</time></trkpt><trkpt lat="45.69959198927551" lon="10.10754364123711"><ele>183.0</ele><time>2026-04-27T12:12:28.998Z</time></trkpt><trkpt lat="45.6994214256421" lon="10.107423897016401"><ele>183.0</ele><time>2026-04-27T12:12:29.998Z</time></trkpt><trkpt lat="45.69925411158241" lon="10.107305636804325"><ele>183.0</ele><time>2026-04-27T12:12:30.998Z</time></trkpt><trkpt lat="45.6990873602679" lon="10.107205507075957"><ele>183.0</ele><time>2026-04-27T12:12:31.998Z</time></trkpt><trkpt lat="45.69892680005619" lon="10.107081309574006"><ele>183.0</ele><time>2026-04-27T12:12:32.998Z</time></trkpt><trkpt lat="45.69876378160444" lon="10.106965621325763"><ele>183.0</ele><time>2026-04-27T12:12:33.998Z</time></trkpt><trkpt lat="45.69860772180724" lon="10.106842663776646"><ele>183.0</ele><time>2026-04-27T12:12:34.998Z</time></trkpt><trkpt lat="45.69844176062007" lon="10.106711845234644"><ele>183.33333333333334</ele><time>2026-04-27T12:12:35.998Z</time></trkpt><trkpt lat="45.69827208991128" lon="10.106576818218482"><ele>183.66666666666669</ele><time>2026-04-27T12:12:36.998Z</time></trkpt><trkpt lat="45.69812705701293" lon="10.10642705374821"><ele>184.0</ele><time>2026-04-27T12:12:37.998Z</time></trkpt><trkpt lat="45.697988220522944" lon="10.106302749592993"><ele>184.0</ele><time>2026-04-27T12:12:38.998Z</time></trkpt><trkpt lat="45.69786012881064" lon="10.106177230195383"><ele>184.0</ele><time>2026-04-27T12:12:39.998Z</time></trkpt><trkpt lat="45.69772378156757" lon="10.10606015245179"><ele>184.0</ele><time>2026-04-27T12:12:40.998Z</time></trkpt><trkpt lat="45.697573639245334" lon="10.105921797453652"><ele>183.66666666666669</ele><time>2026-04-27T12:12:41.998Z</time></trkpt><trkpt lat="45.69741959770983" lon="10.105769272937895"><ele>183.33333333333334</ele><time>2026-04-27T12:12:42.998Z</time></trkpt><trkpt lat="45.69728228151254" lon="10.105579975870413"><ele>183.0</ele><time>2026-04-27T12:12:43.998Z</time></trkpt><trkpt lat="45.69712396693564" lon="10.105421685157172"><ele>183.0</ele><time>2026-04-27T12:12:44.998Z</time></trkpt><trkpt lat="45.6970112386448" lon="10.105207659258529"><ele>183.0</ele><time>2026-04-27T12:12:45.998Z</time></trkpt><trkpt lat="45.69688901567123" lon="10.105053611253096"><ele>183.0</ele><time>2026-04-27T12:12:46.998Z</time></trkpt><trkpt lat="45.69675704460513" lon="10.104922958372402"><ele>183.0</ele><time>2026-04-27T12:12:47.998Z</time></trkpt><trkpt lat="45.69661553959773" lon="10.104794576828462"><ele>183.0</ele><time>2026-04-27T12:12:48.998Z</time></trkpt><trkpt lat="45.69646195749496" lon="10.104658804607016"><ele>183.0</ele><time>2026-04-27T12:12:49.998Z</time></trkpt><trkpt lat="45.69629661911847" lon="10.104538723877102"><ele>183.0</ele><time>2026-04-27T12:12:50.998Z</time></trkpt><trkpt lat="45.69613022423904" lon="10.104399099479492"><ele>183.0</ele><time>2026-04-27T12:12:51.998Z</time></trkpt><trkpt lat="45.69597249119553" lon="10.104276232659863"><ele>183.0</ele><time>2026-04-27T12:12:52.998Z</time></trkpt><trkpt lat="45.695818361508856" lon="10.104174300365782"><ele>182.66666666666666</ele><time>2026-04-27T12:12:53.998Z</time></trkpt><trkpt lat="45.69567447913222" lon="10.104079863622303"><ele>182.33333333333331</ele><time>2026-04-27T12:12:54.998Z</time></trkpt><trkpt lat="45.69551433297249" lon="10.103994512425913"><ele>182.0</ele><time>2026-04-27T12:12:55.998Z</time></trkpt><trkpt lat="45.69534840757533" lon="10.103922394792653"><ele>182.66666666666666</ele><time>2026-04-27T12:12:56.998Z</time></trkpt><trkpt lat="45.69519563943425" lon="10.103862511961884"><ele>183.33333333333334</ele><time>2026-04-27T12:12:57.998Z</time></trkpt><trkpt lat="45.6950555785485" lon="10.103800193579788"><ele>184.0</ele><time>2026-04-27T12:12:58.998Z</time></trkpt><trkpt lat="45.69489155374622" lon="10.103736616126758"><ele>184.0</ele><time>2026-04-27T12:12:59.998Z</time></trkpt><trkpt lat="45.6947315996832" lon="10.103697253593548"><ele>184.0</ele><time>2026-04-27T12:13:00.998Z</time></trkpt><trkpt lat="45.694588605494374" lon="10.103675294128283"><ele>184.0</ele><time>2026-04-27T12:13:01.998Z</time></trkpt><trkpt lat="45.69444506972967" lon="10.103652805606266"><ele>186.33333333333334</ele><time>2026-04-27T12:13:02.998Z</time></trkpt><trkpt lat="45.6942849026781" lon="10.103620946383447"><ele>188.66666666666666</ele><time>2026-04-27T12:13:03.998Z</time></trkpt><trkpt lat="45.69412363219275" lon="10.103606186698045"><ele>191.0</ele><time>2026-04-27T12:13:04.998Z</time></trkpt><trkpt lat="45.693967335265874" lon="10.103579790782979"><ele>191.0</ele><time>2026-04-27T12:13:05.998Z</time></trkpt><trkpt lat="45.69379640142301" lon="10.103562652968474"><ele>191.0</ele><time>2026-04-27T12:13:06.998Z</time></trkpt><trkpt lat="45.69363533372992" lon="10.103535035160036"><ele>191.0</ele><time>2026-04-27T12:13:07.998Z</time></trkpt><trkpt lat="45.69348111749041" lon="10.103500229046755"><ele>191.66666666666666</ele><time>2026-04-27T12:13:08.998Z</time></trkpt><trkpt lat="45.69331493558285" lon="10.103480046187425"><ele>192.33333333333331</ele><time>2026-04-27T12:13:09.998Z</time></trkpt><trkpt lat="45.69316401764536" lon="10.103475827576823"><ele>193.0</ele><time>2026-04-27T12:13:10.998Z</time></trkpt><trkpt lat="45.693015078292106" lon="10.103458634748403"><ele>193.0</ele><time>2026-04-27T12:13:11.998Z</time></trkpt><trkpt lat="45.69285923172325" lon="10.10343777722293"><ele>193.0</ele><time>2026-04-27T12:13:12.998Z</time></trkpt><trkpt lat="45.69270914820123" lon="10.103379432562654"><ele>193.0</ele><time>2026-04-27T12:13:13.998Z</time></trkpt><trkpt lat="45.692573405219214" lon="10.103288193142397"><ele>190.33333333333331</ele><time>2026-04-27T12:13:14.998Z</time></trkpt><trkpt lat="45.692442530297" lon="10.103142391219453"><ele>187.66666666666666</ele><time>2026-04-27T12:13:15.998Z</time></trkpt><trkpt lat="45.69231436537093" lon="10.10300719111759"><ele>185.0</ele><time>2026-04-27T12:13:16.998Z</time></trkpt><trkpt lat="45.692211714138686" lon="10.10280340441108"><ele>185.0</ele><time>2026-04-27T12:13:17.998Z</time></trkpt><trkpt lat="45.692112837838934" lon="10.102616812047813"><ele>185.0</ele><time>2026-04-27T12:13:18.998Z</time></trkpt><trkpt lat="45.69203214109036" lon="10.102407597195144"><ele>185.0</ele><time>2026-04-27T12:13:19.998Z</time></trkpt><trkpt lat="45.69196284143957" lon="10.102212141228078"><ele>185.0</ele><time>2026-04-27T12:13:20.998Z</time></trkpt><trkpt lat="45.6918979268362" lon="10.102024521440335"><ele>185.0</ele><time>2026-04-27T12:13:21.998Z</time></trkpt><trkpt lat="45.691820371129126" lon="10.10185360257135"><ele>185.0</ele><time>2026-04-27T12:13:22.998Z</time></trkpt><trkpt lat="45.69176182715508" lon="10.101696755674451"><ele>185.0</ele><time>2026-04-27T12:13:23.998Z</time></trkpt><trkpt lat="45.691700685967476" lon="10.10154364749175"><ele>185.0</ele><time>2026-04-27T12:13:24.998Z</time></trkpt><trkpt lat="45.691648935720735" lon="10.101385914057577"><ele>185.0</ele><time>2026-04-27T12:13:25.998Z</time></trkpt><trkpt lat="45.691597311650334" lon="10.101237436858872"><ele>185.0</ele><time>2026-04-27T12:13:26.998Z</time></trkpt><trkpt lat="45.69151083382178" lon="10.101095098276877"><ele>185.0</ele><time>2026-04-27T12:13:27.998Z</time></trkpt><trkpt lat="45.69140334182094" lon="10.100979519161578"><ele>185.0</ele><time>2026-04-27T12:13:28.998Z</time></trkpt><trkpt lat="45.69128961861761" lon="10.10089180964534"><ele>185.0</ele><time>2026-04-27T12:13:29.998Z</time></trkpt><trkpt lat="45.691150438566694" lon="10.100822793796647"><ele>185.0</ele><time>2026-04-27T12:13:30.998Z</time></trkpt><trkpt lat="45.69101728143279" lon="10.100762982902257"><ele>185.0</ele><time>2026-04-27T12:13:31.998Z</time></trkpt><trkpt lat="45.69089557291397" lon="10.100696238359706"><ele>185.6</ele><time>2026-04-27T12:13:32.998Z</time></trkpt><trkpt lat="45.690776066492155" lon="10.100635270444084"><ele>186.2</ele><time>2026-04-27T12:13:33.998Z</time></trkpt><trkpt lat="45.690668430445186" lon="10.100571787248287"><ele>186.8</ele><time>2026-04-27T12:13:34.998Z</time></trkpt><trkpt lat="45.69057941016946" lon="10.100506782428655"><ele>187.4</ele><time>2026-04-27T12:13:35.998Z</time></trkpt><trkpt lat="45.69048247537396" lon="10.100454907280142"><ele>188.0</ele><time>2026-04-27T12:13:36.998Z</time></trkpt><trkpt lat="45.690391296546025" lon="10.100396802995224"><ele>188.0</ele><time>2026-04-27T12:13:37.998Z</time></trkpt><trkpt lat="45.69031434672874" lon="10.100335403297052"><ele>188.0</ele><time>2026-04-27T12:13:38.998Z</time></trkpt><trkpt lat="45.69023708681643" lon="10.100268107839527"><ele>188.0</ele><time>2026-04-27T12:13:39.998Z</time></trkpt><trkpt lat="45.69015327155941" lon="10.100205932912962"><ele>188.0</ele><time>2026-04-27T12:13:40.998Z</time></trkpt><trkpt lat="45.69005446766877" lon="10.100141712890762"><ele>188.0</ele><time>2026-04-27T12:13:41.998Z</time></trkpt><trkpt lat="45.689976450664076" lon="10.100086753835269"><ele>188.4</ele><time>2026-04-27T12:13:42.998Z</time></trkpt><trkpt lat="45.689903859329206" lon="10.100031949318197"><ele>188.8</ele><time>2026-04-27T12:13:43.998Z</time></trkpt><trkpt lat="45.689819515866915" lon="10.09996907762522"><ele>189.2</ele><time>2026-04-27T12:13:45.998Z</time></trkpt><trkpt lat="45.689723941744205" lon="10.099925170633181"><ele>189.6</ele><time>2026-04-27T12:13:47.999Z</time></trkpt><trkpt lat="45.689623310911486" lon="10.099909919226253"><ele>190.0</ele><time>2026-04-27T12:13:49.998Z</time></trkpt><trkpt lat="45.689519250508056" lon="10.099868984312362"><ele>190.8</ele><time>2026-04-27T12:13:51.999Z</time></trkpt><trkpt lat="45.68941915593858" lon="10.099820388836575"><ele>191.6</ele><time>2026-04-27T12:13:53.998Z</time></trkpt><trkpt lat="45.689309714584425" lon="10.099767494766805"><ele>192.39999999999998</ele><time>2026-04-27T12:13:55.999Z</time></trkpt><trkpt lat="45.68923690338355" lon="10.099737479922586"><ele>193.2</ele><time>2026-04-27T12:13:56.999Z</time></trkpt><trkpt lat="45.6891647049647" lon="10.0997024439112"><ele>194.0</ele><time>2026-04-27T12:13:57.999Z</time></trkpt><trkpt lat="45.68910230751116" lon="10.099629565380102"><ele>194.0</ele><time>2026-04-27T12:13:58.999Z</time></trkpt><trkpt lat="45.689015795273555" lon="10.099580308989056"><ele>194.0</ele><time>2026-04-27T12:13:59.998Z</time></trkpt><trkpt lat="45.688932882854665" lon="10.09953266968973"><ele>194.0</ele><time>2026-04-27T12:14:00.998Z</time></trkpt><trkpt lat="45.688852626770796" lon="10.099483680657746"><ele>194.0</ele><time>2026-04-27T12:14:01.998Z</time></trkpt><trkpt lat="45.68877026617538" lon="10.099432470188383"><ele>194.0</ele><time>2026-04-27T12:14:02.998Z</time></trkpt><trkpt lat="45.688682276319994" lon="10.099378087316373"><ele>194.0</ele><time>2026-04-27T12:14:03.998Z</time></trkpt><trkpt lat="45.68859699212982" lon="10.099324360230364"><ele>194.0</ele><time>2026-04-27T12:14:04.998Z</time></trkpt><trkpt lat="45.68851785954697" lon="10.09927796005167"><ele>194.0</ele><time>2026-04-27T12:14:05.998Z</time></trkpt><trkpt lat="45.688430992057235" lon="10.099228849733558"><ele>194.0</ele><time>2026-04-27T12:14:06.998Z</time></trkpt><trkpt lat="45.68834665058329" lon="10.099175494830149"><ele>194.0</ele><time>2026-04-27T12:14:07.998Z</time></trkpt><trkpt lat="45.68826050472362" lon="10.099126698093933"><ele>193.0</ele><time>2026-04-27T12:14:08.998Z</time></trkpt><trkpt lat="45.68816414986396" lon="10.0990669894891"><ele>192.0</ele><time>2026-04-27T12:14:09.998Z</time></trkpt><trkpt lat="45.68807150084359" lon="10.099021771622832"><ele>191.0</ele><time>2026-04-27T12:14:10.998Z</time></trkpt><trkpt lat="45.68799138334495" lon="10.098976818614746"><ele>190.0</ele><time>2026-04-27T12:14:11.998Z</time></trkpt><trkpt lat="45.687909280702" lon="10.098929620252997"><ele>189.0</ele><time>2026-04-27T12:14:12.998Z</time></trkpt><trkpt lat="45.687820533944645" lon="10.098888185529097"><ele>189.75</ele><time>2026-04-27T12:14:13.998Z</time></trkpt><trkpt lat="45.68772438927844" lon="10.098844274787183"><ele>190.5</ele><time>2026-04-27T12:14:14.998Z</time></trkpt><trkpt lat="45.68761705826778" lon="10.098783360040276"><ele>191.25</ele><time>2026-04-27T12:14:15.998Z</time></trkpt><trkpt lat="45.68749636669951" lon="10.098719574784662"><ele>192.0</ele><time>2026-04-27T12:14:16.998Z</time></trkpt><trkpt lat="45.68739204470426" lon="10.098653297033897"><ele>192.0</ele><time>2026-04-27T12:14:17.998Z</time></trkpt><trkpt lat="45.687286256388234" lon="10.098590944141417"><ele>192.0</ele><time>2026-04-27T12:14:18.998Z</time></trkpt><trkpt lat="45.687168545305454" lon="10.098526124732732"><ele>192.0</ele><time>2026-04-27T12:14:19.998Z</time></trkpt><trkpt lat="45.687061645901764" lon="10.098468109812442"><ele>192.0</ele><time>2026-04-27T12:14:20.998Z</time></trkpt><trkpt lat="45.68694830133301" lon="10.098403468864765"><ele>191.5</ele><time>2026-04-27T12:14:21.998Z</time></trkpt><trkpt lat="45.68683680713093" lon="10.098333696129494"><ele>191.0</ele><time>2026-04-27T12:14:22.998Z</time></trkpt><trkpt lat="45.68672380761065" lon="10.098264551844487"><ele>190.5</ele><time>2026-04-27T12:14:23.998Z</time></trkpt><trkpt lat="45.68659292987083" lon="10.098197348046405"><ele>190.0</ele><time>2026-04-27T12:14:24.998Z</time></trkpt><trkpt lat="45.68646754757128" lon="10.098124310300348"><ele>190.4</ele><time>2026-04-27T12:14:25.998Z</time></trkpt><trkpt lat="45.686357809418624" lon="10.098052398805441"><ele>190.8</ele><time>2026-04-27T12:14:26.998Z</time></trkpt><trkpt lat="45.68626319635682" lon="10.09798437562471"><ele>191.2</ele><time>2026-04-27T12:14:27.998Z</time></trkpt><trkpt lat="45.68617822850377" lon="10.097916675222843"><ele>191.6</ele><time>2026-04-27T12:14:28.998Z</time></trkpt><trkpt lat="45.68608607842835" lon="10.097826975003898"><ele>192.0</ele><time>2026-04-27T12:14:29.998Z</time></trkpt><trkpt lat="45.685995704196976" lon="10.097732315514644"><ele>192.0</ele><time>2026-04-27T12:14:30.998Z</time></trkpt><trkpt lat="45.685897241269814" lon="10.097630358383077"><ele>192.0</ele><time>2026-04-27T12:14:31.998Z</time></trkpt><trkpt lat="45.685798924810335" lon="10.097520921183115"><ele>192.0</ele><time>2026-04-27T12:14:32.998Z</time></trkpt><trkpt lat="45.6857161552792" lon="10.097410214287303"><ele>192.0</ele><time>2026-04-27T12:14:33.998Z</time></trkpt><trkpt lat="45.685631061041654" lon="10.097290463797677"><ele>190.25</ele><time>2026-04-27T12:14:34.998Z</time></trkpt><trkpt lat="45.68555306879047" lon="10.097143601059736"><ele>188.5</ele><time>2026-04-27T12:14:35.998Z</time></trkpt><trkpt lat="45.68548232193142" lon="10.09698375806579"><ele>186.75</ele><time>2026-04-27T12:14:36.998Z</time></trkpt><trkpt lat="45.68541790340485" lon="10.09682784880148"><ele>185.0</ele><time>2026-04-27T12:14:37.998Z</time></trkpt><trkpt lat="45.685366620816275" lon="10.096673903513231"><ele>184.5</ele><time>2026-04-27T12:14:38.998Z</time></trkpt><trkpt lat="45.685303718639034" lon="10.096516780857081"><ele>184.0</ele><time>2026-04-27T12:14:39.998Z</time></trkpt><trkpt lat="45.68525052766438" lon="10.096359966704867"><ele>183.5</ele><time>2026-04-27T12:14:40.998Z</time></trkpt><trkpt lat="45.68519129246156" lon="10.09621050510578"><ele>183.0</ele><time>2026-04-27T12:14:41.998Z</time></trkpt><trkpt lat="45.68511646502191" lon="10.096068971817582"><ele>183.5</ele><time>2026-04-27T12:14:42.998Z</time></trkpt><trkpt lat="45.685049973799664" lon="10.095934415917322"><ele>184.0</ele><time>2026-04-27T12:14:43.998Z</time></trkpt><trkpt lat="45.68497023194178" lon="10.095798353018655"><ele>184.5</ele><time>2026-04-27T12:14:44.998Z</time></trkpt><trkpt lat="45.68487959710132" lon="10.095678276683053"><ele>185.0</ele><time>2026-04-27T12:14:45.998Z</time></trkpt><trkpt lat="45.68480285261419" lon="10.095577039305596"><ele>185.0</ele><time>2026-04-27T12:14:46.998Z</time></trkpt><trkpt lat="45.6847169837793" lon="10.095451453400559"><ele>185.0</ele><time>2026-04-27T12:14:47.998Z</time></trkpt><trkpt lat="45.68463418177101" lon="10.09532648108965"><ele>185.0</ele><time>2026-04-27T12:14:48.998Z</time></trkpt><trkpt lat="45.68456251440964" lon="10.095181700631418"><ele>185.0</ele><time>2026-04-27T12:14:49.998Z</time></trkpt><trkpt lat="45.68449668845263" lon="10.095036455812622"><ele>184.4</ele><time>2026-04-27T12:14:50.998Z</time></trkpt><trkpt lat="45.684448590947845" lon="10.094898153882022"><ele>183.8</ele><time>2026-04-27T12:14:51.998Z</time></trkpt><trkpt lat="45.684395812011346" lon="10.094762305288317"><ele>183.2</ele><time>2026-04-27T12:14:52.998Z</time></trkpt><trkpt lat="45.684340356921815" lon="10.09462499752747"><ele>182.6</ele><time>2026-04-27T12:14:53.998Z</time></trkpt><trkpt lat="45.684277689984754" lon="10.094498288986506"><ele>182.0</ele><time>2026-04-27T12:14:54.998Z</time></trkpt><trkpt lat="45.68419753569134" lon="10.094375745372583"><ele>182.25</ele><time>2026-04-27T12:14:55.998Z</time></trkpt><trkpt lat="45.68411875271126" lon="10.094274381587315"><ele>182.5</ele><time>2026-04-27T12:14:56.998Z</time></trkpt><trkpt lat="45.68402293233092" lon="10.094168561447823"><ele>182.75</ele><time>2026-04-27T12:14:57.998Z</time></trkpt><trkpt lat="45.683932045926625" lon="10.094067289576405"><ele>183.0</ele><time>2026-04-27T12:14:58.998Z</time></trkpt><trkpt lat="45.683850138824276" lon="10.093965833010024"><ele>183.0</ele><time>2026-04-27T12:14:59.998Z</time></trkpt><trkpt lat="45.68377664214763" lon="10.093885931139463"><ele>183.0</ele><time>2026-04-27T12:15:00.998Z</time></trkpt><trkpt lat="45.6836958918728" lon="10.093792852602816"><ele>183.0</ele><time>2026-04-27T12:15:01.998Z</time></trkpt><trkpt lat="45.68360624064203" lon="10.093694532755718"><ele>183.0</ele><time>2026-04-27T12:15:02.998Z</time></trkpt><trkpt lat="45.68351802948979" lon="10.09359015599824"><ele>183.0</ele><time>2026-04-27T12:15:03.998Z</time></trkpt><trkpt lat="45.683413450462666" lon="10.093482345177339"><ele>183.0</ele><time>2026-04-27T12:15:04.998Z</time></trkpt><trkpt lat="45.683304863327166" lon="10.093366904886894"><ele>183.0</ele><time>2026-04-27T12:15:05.998Z</time></trkpt><trkpt lat="45.68317955952403" lon="10.093256758415569"><ele>183.0</ele><time>2026-04-27T12:15:06.998Z</time></trkpt><trkpt lat="45.683051188065804" lon="10.09311998294184"><ele>183.0</ele><time>2026-04-27T12:15:07.998Z</time></trkpt><trkpt lat="45.68292300630573" lon="10.092937785578787"><ele>185.33333333333334</ele><time>2026-04-27T12:15:08.998Z</time></trkpt><trkpt lat="45.68275463290365" lon="10.092795898409385"><ele>187.66666666666669</ele><time>2026-04-27T12:15:09.998Z</time></trkpt><trkpt lat="45.68258325294414" lon="10.09264178489617"><ele>190.0</ele><time>2026-04-27T12:15:10.998Z</time></trkpt><trkpt lat="45.68241261809092" lon="10.092480278727374"><ele>187.33333333333334</ele><time>2026-04-27T12:15:11.998Z</time></trkpt><trkpt lat="45.68226008712981" lon="10.09233738161278"><ele>184.66666666666666</ele><time>2026-04-27T12:15:12.998Z</time></trkpt><trkpt lat="45.68211039541533" lon="10.092218169153162"><ele>182.0</ele><time>2026-04-27T12:15:13.998Z</time></trkpt><trkpt lat="45.68197398853465" lon="10.092110955123145"><ele>183.5</ele><time>2026-04-27T12:15:14.998Z</time></trkpt><trkpt lat="45.681855575437716" lon="10.09201609706848"><ele>185.0</ele><time>2026-04-27T12:15:15.998Z</time></trkpt><trkpt lat="45.68175554144682" lon="10.091941325138386"><ele>186.5</ele><time>2026-04-27T12:15:16.998Z</time></trkpt><trkpt lat="45.68165907311724" lon="10.091865121233669"><ele>188.0</ele><time>2026-04-27T12:15:17.998Z</time></trkpt><trkpt lat="45.681554238245326" lon="10.091784740223405"><ele>188.0</ele><time>2026-04-27T12:15:18.998Z</time></trkpt><trkpt lat="45.68143506411283" lon="10.091687654557251"><ele>188.0</ele><time>2026-04-27T12:15:19.998Z</time></trkpt><trkpt lat="45.681317238404255" lon="10.09158206761942"><ele>188.0</ele><time>2026-04-27T12:15:20.998Z</time></trkpt><trkpt lat="45.6811968691661" lon="10.091457072968034"><ele>188.0</ele><time>2026-04-27T12:15:21.998Z</time></trkpt><trkpt lat="45.681078622936475" lon="10.091309729732055"><ele>187.33333333333331</ele><time>2026-04-27T12:15:22.998Z</time></trkpt><trkpt lat="45.680938134917604" lon="10.091156293205408"><ele>186.66666666666666</ele><time>2026-04-27T12:15:23.998Z</time></trkpt><trkpt lat="45.680792139864316" lon="10.090985828004392"><ele>186.0</ele><time>2026-04-27T12:15:24.998Z</time></trkpt><trkpt lat="45.68064596219719" lon="10.090794595512339"><ele>185.33333333333334</ele><time>2026-04-27T12:15:25.998Z</time></trkpt><trkpt lat="45.6805126800955" lon="10.090624434004388"><ele>184.66666666666669</ele><time>2026-04-27T12:15:26.998Z</time></trkpt><trkpt lat="45.68040511975593" lon="10.090479741874516"><ele>184.0</ele><time>2026-04-27T12:15:27.998Z</time></trkpt><trkpt lat="45.68031010549911" lon="10.090353665056664"><ele>184.25</ele><time>2026-04-27T12:15:28.998Z</time></trkpt><trkpt lat="45.68021741315753" lon="10.090230316522005"><ele>184.5</ele><time>2026-04-27T12:15:29.998Z</time></trkpt><trkpt lat="45.6801358450464" lon="10.090121934967986"><ele>184.75</ele><time>2026-04-27T12:15:30.998Z</time></trkpt><trkpt lat="45.680048271841834" lon="10.09000665887165"><ele>185.0</ele><time>2026-04-27T12:15:31.998Z</time></trkpt><trkpt lat="45.67995643963048" lon="10.089902077344059"><ele>185.0</ele><time>2026-04-27T12:15:32.998Z</time></trkpt><trkpt lat="45.679866756367204" lon="10.089787531556189"><ele>185.0</ele><time>2026-04-27T12:15:33.998Z</time></trkpt><trkpt lat="45.679777201283656" lon="10.089669011571587"><ele>185.0</ele><time>2026-04-27T12:15:34.998Z</time></trkpt><trkpt lat="45.67967696666091" lon="10.089545929434003"><ele>185.0</ele><time>2026-04-27T12:15:35.998Z</time></trkpt><trkpt lat="45.6795807651199" lon="10.089434526061941"><ele>185.0</ele><time>2026-04-27T12:15:36.998Z</time></trkpt><trkpt lat="45.67948885507089" lon="10.089313204328047"><ele>185.0</ele><time>2026-04-27T12:15:37.998Z</time></trkpt><trkpt lat="45.6794128527308" lon="10.089204023870609"><ele>185.0</ele><time>2026-04-27T12:15:38.998Z</time></trkpt><trkpt lat="45.679333294713985" lon="10.08907821235122"><ele>185.0</ele><time>2026-04-27T12:15:39.998Z</time></trkpt><trkpt lat="45.67926127801223" lon="10.08894758746984"><ele>185.0</ele><time>2026-04-27T12:15:40.998Z</time></trkpt><trkpt lat="45.67918395814432" lon="10.088819591061124"><ele>185.0</ele><time>2026-04-27T12:15:41.998Z</time></trkpt><trkpt lat="45.67909986582542" lon="10.088695869648923"><ele>185.0</ele><time>2026-04-27T12:15:42.998Z</time></trkpt><trkpt lat="45.67901742660846" lon="10.088554669058261"><ele>185.0</ele><time>2026-04-27T12:15:43.998Z</time></trkpt><trkpt lat="45.678934714918846" lon="10.08840437183424"><ele>184.5</ele><time>2026-04-27T12:15:44.998Z</time></trkpt><trkpt lat="45.67885237410438" lon="10.088253927585107"><ele>184.0</ele><time>2026-04-27T12:15:45.998Z</time></trkpt><trkpt lat="45.67878431005185" lon="10.088090290947875"><ele>183.5</ele><time>2026-04-27T12:15:46.998Z</time></trkpt><trkpt lat="45.67873302946079" lon="10.087915645176999"><ele>183.0</ele><time>2026-04-27T12:15:47.998Z</time></trkpt><trkpt lat="45.678697902367134" lon="10.087731440155485"><ele>183.0</ele><time>2026-04-27T12:15:48.998Z</time></trkpt><trkpt lat="45.67866875800634" lon="10.087558623796834"><ele>183.0</ele><time>2026-04-27T12:15:49.998Z</time></trkpt><trkpt lat="45.67864542966098" lon="10.087383434914837"><ele>183.0</ele><time>2026-04-27T12:15:50.998Z</time></trkpt><trkpt lat="45.678611473239336" lon="10.087212880510263"><ele>183.0</ele><time>2026-04-27T12:15:51.998Z</time></trkpt><trkpt lat="45.6785838441136" lon="10.087062228179231"><ele>184.5</ele><time>2026-04-27T12:15:52.998Z</time></trkpt><trkpt lat="45.678545849135176" lon="10.086903393009308"><ele>186.0</ele><time>2026-04-27T12:15:53.999Z</time></trkpt><trkpt lat="45.67849536061717" lon="10.086750941294214"><ele>187.5</ele><time>2026-04-27T12:15:54.999Z</time></trkpt><trkpt lat="45.678447880679336" lon="10.08660497586288"><ele>189.0</ele><time>2026-04-27T12:15:55.999Z</time></trkpt><trkpt lat="45.67840061599028" lon="10.086461862329203"><ele>189.0</ele><time>2026-04-27T12:15:56.998Z</time></trkpt><trkpt lat="45.67834917966801" lon="10.086323015869382"><ele>189.0</ele><time>2026-04-27T12:15:57.999Z</time></trkpt><trkpt lat="45.67830771192096" lon="10.08619423382891"><ele>189.0</ele><time>2026-04-27T12:15:58.999Z</time></trkpt><trkpt lat="45.67826409018933" lon="10.086061031006597"><ele>189.0</ele><time>2026-04-27T12:15:59.999Z</time></trkpt><trkpt lat="45.67820870665101" lon="10.0859282820112"><ele>189.0</ele><time>2026-04-27T12:16:00.998Z</time></trkpt><trkpt lat="45.67816574887304" lon="10.085797221786699"><ele>188.6</ele><time>2026-04-27T12:16:01.998Z</time></trkpt><trkpt lat="45.67811712208847" lon="10.085667720509514"><ele>188.2</ele><time>2026-04-27T12:16:02.998Z</time></trkpt><trkpt lat="45.67806680643675" lon="10.085542482119898"><ele>187.79999999999998</ele><time>2026-04-27T12:16:03.998Z</time></trkpt><trkpt lat="45.678012904835796" lon="10.085424285144896"><ele>187.39999999999998</ele><time>2026-04-27T12:16:04.998Z</time></trkpt><trkpt lat="45.67797161234395" lon="10.085328184021012"><ele>187.0</ele><time>2026-04-27T12:16:05.999Z</time></trkpt><trkpt lat="45.677923326479075" lon="10.085226221815239"><ele>187.0</ele><time>2026-04-27T12:16:06.998Z</time></trkpt><trkpt lat="45.67787860235608" lon="10.08513432720696"><ele>187.0</ele><time>2026-04-27T12:16:07.998Z</time></trkpt><trkpt lat="45.677815932334795" lon="10.08502724012398"><ele>187.0</ele><time>2026-04-27T12:16:08.998Z</time></trkpt><trkpt lat="45.67774859678505" lon="10.084909510399621"><ele>187.0</ele><time>2026-04-27T12:16:09.998Z</time></trkpt><trkpt lat="45.67768011119647" lon="10.084785142683376"><ele>187.0</ele><time>2026-04-27T12:16:10.998Z</time></trkpt><trkpt lat="45.67763138959433" lon="10.084676656431574"><ele>187.5</ele><time>2026-04-27T12:16:11.998Z</time></trkpt><trkpt lat="45.67758329765933" lon="10.08459053866148"><ele>188.0</ele><time>2026-04-27T12:16:12.998Z</time></trkpt><trkpt lat="45.67752516810515" lon="10.084497607493148"><ele>188.5</ele><time>2026-04-27T12:16:14.998Z</time></trkpt><trkpt lat="45.67747747011267" lon="10.084429083853287"><ele>189.0</ele><time>2026-04-27T12:16:16.998Z</time></trkpt><trkpt lat="45.677374781452755" lon="10.084334755890639"><ele>189.5</ele><time>2026-04-27T12:17:34.998Z</time></trkpt><trkpt lat="45.677311116092966" lon="10.084287319717308"><ele>190.0</ele><time>2026-04-27T12:19:14.998Z</time></trkpt><trkpt lat="45.677254615458956" lon="10.084241142061176"><ele>190.0</ele><time>2026-04-27T12:19:16.998Z</time></trkpt><trkpt lat="45.67717869683154" lon="10.084204653943466"><ele>190.0</ele><time>2026-04-27T12:19:18.998Z</time></trkpt><trkpt lat="45.67707841817092" lon="10.084131827990978"><ele>190.0</ele><time>2026-04-27T12:19:20.998Z</time></trkpt><trkpt lat="45.67701511976932" lon="10.08404956616309"><ele>190.0</ele><time>2026-04-27T12:19:21.998Z</time></trkpt><trkpt lat="45.67695546291028" lon="10.083965645927853"><ele>190.0</ele><time>2026-04-27T12:19:22.998Z</time></trkpt><trkpt lat="45.6769094418411" lon="10.083873459205245"><ele>190.0</ele><time>2026-04-27T12:19:23.998Z</time></trkpt><trkpt lat="45.67685183642099" lon="10.083766217832743"><ele>190.75</ele><time>2026-04-27T12:19:24.998Z</time></trkpt><trkpt lat="45.67678720130163" lon="10.083641764229311"><ele>191.5</ele><time>2026-04-27T12:19:25.998Z</time></trkpt><trkpt lat="45.67673502314707" lon="10.083526406935862"><ele>192.25</ele><time>2026-04-27T12:19:26.998Z</time></trkpt><trkpt lat="45.67666206094686" lon="10.083381277235011"><ele>193.0</ele><time>2026-04-27T12:19:27.998Z</time></trkpt><trkpt lat="45.67655954218821" lon="10.083222415629372"><ele>193.33333333333331</ele><time>2026-04-27T12:19:28.998Z</time></trkpt><trkpt lat="45.6764551583787" lon="10.083055386488528"><ele>193.66666666666669</ele><time>2026-04-27T12:19:29.998Z</time></trkpt><trkpt lat="45.67634900266858" lon="10.082895172015084"><ele>194.0</ele><time>2026-04-27T12:19:30.998Z</time></trkpt><trkpt lat="45.67623431594294" lon="10.082721386413663"><ele>194.0</ele><time>2026-04-27T12:19:31.998Z</time></trkpt><trkpt lat="45.6761196036186" lon="10.082541356852074"><ele>194.0</ele><time>2026-04-27T12:19:32.998Z</time></trkpt><trkpt lat="45.675998120732245" lon="10.082366402505189"><ele>194.0</ele><time>2026-04-27T12:19:33.998Z</time></trkpt><trkpt lat="45.67587625603103" lon="10.08219101396975"><ele>193.0</ele><time>2026-04-27T12:19:34.998Z</time></trkpt><trkpt lat="45.67574787122095" lon="10.082010694935734"><ele>192.0</ele><time>2026-04-27T12:19:35.998Z</time></trkpt><trkpt lat="45.67563300231659" lon="10.08181752648117"><ele>191.0</ele><time>2026-04-27T12:19:36.998Z</time></trkpt><trkpt lat="45.675510744556966" lon="10.081646531767369"><ele>191.25</ele><time>2026-04-27T12:19:37.998Z</time></trkpt><trkpt lat="45.675402668348376" lon="10.081501966533205"><ele>191.5</ele><time>2026-04-27T12:19:38.998Z</time></trkpt><trkpt lat="45.6753154315704" lon="10.081372214194213"><ele>191.75</ele><time>2026-04-27T12:19:39.998Z</time></trkpt><trkpt lat="45.675219861885296" lon="10.081235025610601"><ele>192.0</ele><time>2026-04-27T12:19:40.998Z</time></trkpt><trkpt lat="45.675118126855374" lon="10.081093213185436"><ele>192.0</ele><time>2026-04-27T12:19:41.998Z</time></trkpt><trkpt lat="45.67487857619702" lon="10.080787735327945"><ele>192.0</ele><time>2026-04-27T12:19:43.998Z</time></trkpt><trkpt lat="45.67477059662845" lon="10.08063721110093"><ele>191.5</ele><time>2026-04-27T12:19:44.998Z</time></trkpt><trkpt lat="45.674663692389764" lon="10.080489208252729"><ele>191.0</ele><time>2026-04-27T12:19:45.998Z</time></trkpt><trkpt lat="45.674570791490446" lon="10.0803262115746"><ele>190.5</ele><time>2026-04-27T12:19:46.998Z</time></trkpt><trkpt lat="45.67447111278574" lon="10.08018609896592"><ele>190.0</ele><time>2026-04-27T12:19:47.998Z</time></trkpt><trkpt lat="45.674374812419664" lon="10.080052447072362"><ele>190.25</ele><time>2026-04-27T12:19:48.998Z</time></trkpt><trkpt lat="45.67427232330465" lon="10.079910621114538"><ele>190.5</ele><time>2026-04-27T12:19:49.998Z</time></trkpt><trkpt lat="45.67415941684377" lon="10.079786820357358"><ele>190.75</ele><time>2026-04-27T12:19:50.998Z</time></trkpt><trkpt lat="45.67407817061301" lon="10.079606958106003"><ele>191.0</ele><time>2026-04-27T12:19:51.998Z</time></trkpt><trkpt lat="45.67397721227529" lon="10.079437779975656"><ele>191.0</ele><time>2026-04-27T12:19:52.998Z</time></trkpt><trkpt lat="45.673867647443835" lon="10.079277675944333"><ele>191.0</ele><time>2026-04-27T12:19:53.998Z</time></trkpt><trkpt lat="45.6737482089213" lon="10.079122448645473"><ele>191.0</ele><time>2026-04-27T12:19:54.998Z</time></trkpt><trkpt lat="45.67362338037247" lon="10.07897874021549"><ele>191.0</ele><time>2026-04-27T12:19:55.998Z</time></trkpt><trkpt lat="45.6734985032706" lon="10.07883546985044"><ele>191.0</ele><time>2026-04-27T12:19:56.998Z</time></trkpt><trkpt lat="45.67335910201326" lon="10.07869936616756"><ele>191.0</ele><time>2026-04-27T12:19:57.998Z</time></trkpt><trkpt lat="45.67320825944067" lon="10.078579350726667"><ele>191.0</ele><time>2026-04-27T12:19:58.998Z</time></trkpt><trkpt lat="45.67305803517972" lon="10.078455499198624"><ele>191.0</ele><time>2026-04-27T12:19:59.998Z</time></trkpt><trkpt lat="45.67291802556105" lon="10.078325270904212"><ele>191.0</ele><time>2026-04-27T12:20:00.998Z</time></trkpt><trkpt lat="45.67278436681896" lon="10.078184457581006"><ele>190.66666666666666</ele><time>2026-04-27T12:20:01.998Z</time></trkpt><trkpt lat="45.6726518964595" lon="10.078034316864006"><ele>190.33333333333334</ele><time>2026-04-27T12:20:02.998Z</time></trkpt><trkpt lat="45.67253529684246" lon="10.077883175421523"><ele>190.0</ele><time>2026-04-27T12:20:03.998Z</time></trkpt><trkpt lat="45.67242618826511" lon="10.077737533192488"><ele>190.0</ele><time>2026-04-27T12:20:04.998Z</time></trkpt><trkpt lat="45.67231173399254" lon="10.077584270891833"><ele>190.0</ele><time>2026-04-27T12:20:05.997Z</time></trkpt><trkpt lat="45.67218894477288" lon="10.07742606852994"><ele>190.0</ele><time>2026-04-27T12:20:06.998Z</time></trkpt><trkpt lat="45.6720693814796" lon="10.077258005536798"><ele>189.66666666666669</ele><time>2026-04-27T12:20:07.998Z</time></trkpt><trkpt lat="45.67194851177521" lon="10.077093587466317"><ele>189.33333333333334</ele><time>2026-04-27T12:20:08.998Z</time></trkpt><trkpt lat="45.67182341430437" lon="10.076922127569684"><ele>189.0</ele><time>2026-04-27T12:20:09.998Z</time></trkpt><trkpt lat="45.671704015180346" lon="10.076761284623489"><ele>188.33333333333334</ele><time>2026-04-27T12:20:10.998Z</time></trkpt><trkpt lat="45.67158036300641" lon="10.07659230077783"><ele>187.66666666666669</ele><time>2026-04-27T12:20:11.997Z</time></trkpt><trkpt lat="45.67145377145598" lon="10.076422421950046"><ele>187.0</ele><time>2026-04-27T12:20:12.997Z</time></trkpt><trkpt lat="45.671333423416485" lon="10.076264792219005"><ele>187.0</ele><time>2026-04-27T12:20:13.997Z</time></trkpt><trkpt lat="45.6712120157989" lon="10.07612854214764"><ele>187.0</ele><time>2026-04-27T12:20:14.997Z</time></trkpt><trkpt lat="45.671105437466395" lon="10.0760016100241"><ele>187.0</ele><time>2026-04-27T12:20:15.998Z</time></trkpt><trkpt lat="45.67101370480848" lon="10.075898332251898"><ele>187.0</ele><time>2026-04-27T12:20:16.998Z</time></trkpt><trkpt lat="45.67092959054834" lon="10.07579618941846"><ele>186.75</ele><time>2026-04-27T12:20:17.998Z</time></trkpt><trkpt lat="45.670829603294095" lon="10.075681735361853"><ele>186.5</ele><time>2026-04-27T12:20:18.998Z</time></trkpt><trkpt lat="45.670721945895195" lon="10.07556608468437"><ele>186.25</ele><time>2026-04-27T12:20:19.998Z</time></trkpt><trkpt lat="45.67061091492984" lon="10.07544889314385"><ele>186.0</ele><time>2026-04-27T12:20:20.998Z</time></trkpt><trkpt lat="45.670497049717824" lon="10.075340248749356"><ele>186.0</ele><time>2026-04-27T12:20:21.998Z</time></trkpt><trkpt lat="45.67038246022324" lon="10.075236750788406"><ele>186.0</ele><time>2026-04-27T12:20:22.998Z</time></trkpt><trkpt lat="45.67025394134611" lon="10.075130660842577"><ele>186.0</ele><time>2026-04-27T12:20:23.998Z</time></trkpt><trkpt lat="45.670113143972436" lon="10.074994625510236"><ele>186.66666666666666</ele><time>2026-04-27T12:20:24.998Z</time></trkpt><trkpt lat="45.66998386171677" lon="10.07480344586817"><ele>187.33333333333331</ele><time>2026-04-27T12:20:25.998Z</time></trkpt><trkpt lat="45.669873874754884" lon="10.074595572804139"><ele>188.0</ele><time>2026-04-27T12:20:26.998Z</time></trkpt><trkpt lat="45.66976202056311" lon="10.074395715297758"><ele>188.0</ele><time>2026-04-27T12:20:27.998Z</time></trkpt><trkpt lat="45.66964880778899" lon="10.074192464076383"><ele>188.0</ele><time>2026-04-27T12:20:28.998Z</time></trkpt><trkpt lat="45.669541263418246" lon="10.07399501670067"><ele>188.0</ele><time>2026-04-27T12:20:29.998Z</time></trkpt><trkpt lat="45.66943038816348" lon="10.073795967126214"><ele>188.33333333333331</ele><time>2026-04-27T12:20:30.998Z</time></trkpt><trkpt lat="45.66931700070325" lon="10.073573262782121"><ele>188.66666666666666</ele><time>2026-04-27T12:20:31.998Z</time></trkpt><trkpt lat="45.669246250055984" lon="10.073311555286864"><ele>189.0</ele><time>2026-04-27T12:20:32.998Z</time></trkpt><trkpt lat="45.66914597384905" lon="10.073081296122364"><ele>189.0</ele><time>2026-04-27T12:20:33.998Z</time></trkpt><trkpt lat="45.669054089893976" lon="10.072852145771902"><ele>189.0</ele><time>2026-04-27T12:20:34.998Z</time></trkpt><trkpt lat="45.66894777633216" lon="10.072631498005038"><ele>189.0</ele><time>2026-04-27T12:20:35.998Z</time></trkpt><trkpt lat="45.668859125498024" lon="10.072400971962443"><ele>188.66666666666666</ele><time>2026-04-27T12:20:36.998Z</time></trkpt><trkpt lat="45.66877666865184" lon="10.072161340639228"><ele>188.33333333333331</ele><time>2026-04-27T12:20:37.998Z</time></trkpt><trkpt lat="45.66867852289281" lon="10.071918127088987"><ele>188.0</ele><time>2026-04-27T12:20:38.998Z</time></trkpt><trkpt lat="45.668582342652265" lon="10.07167370201579"><ele>187.66666666666666</ele><time>2026-04-27T12:20:39.998Z</time></trkpt><trkpt lat="45.66850106167519" lon="10.071445561830258"><ele>187.33333333333334</ele><time>2026-04-27T12:20:40.998Z</time></trkpt><trkpt lat="45.66840605590268" lon="10.071207065502998"><ele>187.0</ele><time>2026-04-27T12:20:41.998Z</time></trkpt><trkpt lat="45.66831315367111" lon="10.070967530802445"><ele>187.66666666666669</ele><time>2026-04-27T12:20:42.998Z</time></trkpt><trkpt lat="45.66822912814642" lon="10.070730746728682"><ele>188.33333333333334</ele><time>2026-04-27T12:20:43.998Z</time></trkpt><trkpt lat="45.66815169399193" lon="10.070494126996921"><ele>189.0</ele><time>2026-04-27T12:20:44.998Z</time></trkpt><trkpt lat="45.66807032723224" lon="10.07025711755088"><ele>189.0</ele><time>2026-04-27T12:20:45.998Z</time></trkpt><trkpt lat="45.667989700731496" lon="10.070021737271968"><ele>189.0</ele><time>2026-04-27T12:20:46.998Z</time></trkpt><trkpt lat="45.66790710573742" lon="10.069792031954444"><ele>189.0</ele><time>2026-04-27T12:20:47.998Z</time></trkpt><trkpt lat="45.66782462085102" lon="10.06955564979989"><ele>188.33333333333334</ele><time>2026-04-27T12:20:48.998Z</time></trkpt><trkpt lat="45.667728958720694" lon="10.069335953927354"><ele>187.66666666666669</ele><time>2026-04-27T12:20:49.998Z</time></trkpt><trkpt lat="45.66763082134883" lon="10.069124360705128"><ele>187.0</ele><time>2026-04-27T12:20:50.998Z</time></trkpt><trkpt lat="45.66751726032201" lon="10.068916433314305"><ele>187.0</ele><time>2026-04-27T12:20:51.998Z</time></trkpt><trkpt lat="45.667410482374144" lon="10.068725705730765"><ele>187.0</ele><time>2026-04-27T12:20:52.998Z</time></trkpt><trkpt lat="45.66729860179706" lon="10.068544529499675"><ele>187.0</ele><time>2026-04-27T12:20:53.998Z</time></trkpt><trkpt lat="45.66717534355574" lon="10.068367721947569"><ele>188.0</ele><time>2026-04-27T12:20:54.998Z</time></trkpt><trkpt lat="45.66709411028172" lon="10.06816193589438"><ele>189.0</ele><time>2026-04-27T12:20:55.998Z</time></trkpt><trkpt lat="45.666979176550804" lon="10.06796907048707"><ele>190.0</ele><time>2026-04-27T12:20:56.998Z</time></trkpt><trkpt lat="45.66687109851752" lon="10.067782947062858"><ele>190.0</ele><time>2026-04-27T12:20:57.998Z</time></trkpt><trkpt lat="45.666766152133576" lon="10.067611400648357"><ele>190.0</ele><time>2026-04-27T12:20:58.998Z</time></trkpt><trkpt lat="45.666652200379865" lon="10.067436666376155"><ele>190.0</ele><time>2026-04-27T12:20:59.998Z</time></trkpt><trkpt lat="45.66653783535938" lon="10.067258868314358"><ele>188.75</ele><time>2026-04-27T12:21:00.998Z</time></trkpt><trkpt lat="45.66642883346514" lon="10.067107943919336"><ele>187.5</ele><time>2026-04-27T12:21:01.998Z</time></trkpt><trkpt lat="45.66632106891381" lon="10.066970887989413"><ele>186.25</ele><time>2026-04-27T12:21:02.998Z</time></trkpt><trkpt lat="45.66620757534022" lon="10.066858472259865"><ele>185.0</ele><time>2026-04-27T12:21:03.998Z</time></trkpt><trkpt lat="45.66609319427253" lon="10.066742175022286"><ele>186.25</ele><time>2026-04-27T12:21:04.998Z</time></trkpt><trkpt lat="45.665981895245444" lon="10.066616675906205"><ele>187.5</ele><time>2026-04-27T12:21:05.998Z</time></trkpt><trkpt lat="45.66588522141818" lon="10.066476015097715"><ele>188.75</ele><time>2026-04-27T12:21:06.998Z</time></trkpt><trkpt lat="45.665798364231684" lon="10.066317108742966"><ele>190.0</ele><time>2026-04-27T12:21:07.998Z</time></trkpt><trkpt lat="45.66572227218826" lon="10.06613827362754"><ele>190.0</ele><time>2026-04-27T12:21:08.998Z</time></trkpt><trkpt lat="45.665670363603766" lon="10.0659707877738"><ele>190.0</ele><time>2026-04-27T12:21:09.998Z</time></trkpt><trkpt lat="45.66563089998037" lon="10.065808084360693"><ele>190.0</ele><time>2026-04-27T12:21:10.998Z</time></trkpt><trkpt lat="45.66560672074064" lon="10.065657125554234"><ele>190.0</ele><time>2026-04-27T12:21:11.998Z</time></trkpt><trkpt lat="45.6655370913407" lon="10.065520711326966"><ele>189.6</ele><time>2026-04-27T12:21:12.998Z</time></trkpt><trkpt lat="45.66550039672632" lon="10.065369087643626"><ele>189.2</ele><time>2026-04-27T12:21:13.998Z</time></trkpt><trkpt lat="45.66550197578069" lon="10.065239357558896"><ele>188.8</ele><time>2026-04-27T12:21:14.998Z</time></trkpt><trkpt lat="45.66547961696875" lon="10.065115455698258"><ele>188.4</ele><time>2026-04-27T12:21:15.998Z</time></trkpt><trkpt lat="45.66543027981152" lon="10.065031526510028"><ele>188.0</ele><time>2026-04-27T12:21:16.998Z</time></trkpt><trkpt lat="45.66535205618177" lon="10.064982677988901"><ele>190.5</ele><time>2026-04-27T12:21:17.998Z</time></trkpt><trkpt lat="45.6652636304865" lon="10.065001802927377"><ele>193.0</ele><time>2026-04-27T12:21:18.998Z</time></trkpt><trkpt lat="45.665163559855905" lon="10.065075867170057"><ele>195.5</ele><time>2026-04-27T12:21:19.998Z</time></trkpt><trkpt lat="45.66504546035946" lon="10.065096887309457"><ele>198.0</ele><time>2026-04-27T12:21:20.998Z</time></trkpt><trkpt lat="45.66491583346592" lon="10.065083927537147"><ele>198.0</ele><time>2026-04-27T12:21:21.998Z</time></trkpt><trkpt lat="45.66476785867088" lon="10.06505933939415"><ele>198.0</ele><time>2026-04-27T12:21:22.998Z</time></trkpt><trkpt lat="45.66459180390715" lon="10.06503106408283"><ele>198.0</ele><time>2026-04-27T12:21:23.998Z</time></trkpt><trkpt lat="45.66442699402349" lon="10.064949495392415"><ele>199.33333333333331</ele><time>2026-04-27T12:21:24.998Z</time></trkpt><trkpt lat="45.66425441594457" lon="10.064873064541567"><ele>200.66666666666666</ele><time>2026-04-27T12:21:25.997Z</time></trkpt><trkpt lat="45.66409207589531" lon="10.06474874103231"><ele>202.0</ele><time>2026-04-27T12:21:26.997Z</time></trkpt><trkpt lat="45.66391990996732" lon="10.064603729342569"><ele>202.0</ele><time>2026-04-27T12:21:27.997Z</time></trkpt><trkpt lat="45.663755663573966" lon="10.064431968787078"><ele>202.0</ele><time>2026-04-27T12:21:28.997Z</time></trkpt><trkpt lat="45.66362318751145" lon="10.064250821703915"><ele>202.0</ele><time>2026-04-27T12:21:29.997Z</time></trkpt><trkpt lat="45.66350803683418" lon="10.064078362123135"><ele>204.33333333333331</ele><time>2026-04-27T12:21:30.997Z</time></trkpt><trkpt lat="45.66338664631407" lon="10.063903994442908"><ele>206.66666666666669</ele><time>2026-04-27T12:21:31.997Z</time></trkpt><trkpt lat="45.663268852594236" lon="10.063730181273781"><ele>209.0</ele><time>2026-04-27T12:21:32.997Z</time></trkpt><trkpt lat="45.66314683213581" lon="10.063567552702764"><ele>209.0</ele><time>2026-04-27T12:21:33.997Z</time></trkpt><trkpt lat="45.66304025913734" lon="10.063425361667978"><ele>209.0</ele><time>2026-04-27T12:21:34.997Z</time></trkpt><trkpt lat="45.66291064538843" lon="10.063308074717884"><ele>209.0</ele><time>2026-04-27T12:21:35.997Z</time></trkpt><trkpt lat="45.662777155535174" lon="10.063190427274343"><ele>212.33333333333334</ele><time>2026-04-27T12:21:36.997Z</time></trkpt><trkpt lat="45.662638168302216" lon="10.063090455514416"><ele>215.66666666666669</ele><time>2026-04-27T12:21:37.997Z</time></trkpt><trkpt lat="45.66249805461814" lon="10.06299946338527"><ele>219.0</ele><time>2026-04-27T12:21:38.997Z</time></trkpt><trkpt lat="45.662366795463136" lon="10.062912130703706"><ele>219.0</ele><time>2026-04-27T12:21:39.997Z</time></trkpt><trkpt lat="45.662235139339735" lon="10.062846682817769"><ele>219.0</ele><time>2026-04-27T12:21:40.997Z</time></trkpt><trkpt lat="45.6620973710322" lon="10.062788822620323"><ele>219.0</ele><time>2026-04-27T12:21:41.997Z</time></trkpt><trkpt lat="45.661945415660796" lon="10.062754028014657"><ele>219.0</ele><time>2026-04-27T12:21:42.997Z</time></trkpt><trkpt lat="45.6617954026617" lon="10.06274101483206"><ele>220.5</ele><time>2026-04-27T12:21:43.997Z</time></trkpt><trkpt lat="45.66165169233771" lon="10.062740947905212"><ele>222.0</ele><time>2026-04-27T12:21:44.997Z</time></trkpt><trkpt lat="45.661509399167905" lon="10.062749708356044"><ele>223.5</ele><time>2026-04-27T12:21:45.997Z</time></trkpt><trkpt lat="45.66137275781075" lon="10.062762978715245"><ele>225.0</ele><time>2026-04-27T12:21:46.997Z</time></trkpt><trkpt lat="45.66123371975677" lon="10.062767791783262"><ele>226.25</ele><time>2026-04-27T12:21:47.997Z</time></trkpt><trkpt lat="45.66109986272304" lon="10.062773185580905"><ele>227.5</ele><time>2026-04-27T12:21:48.997Z</time></trkpt><trkpt lat="45.66096477197106" lon="10.062772945422576"><ele>228.75</ele><time>2026-04-27T12:21:49.997Z</time></trkpt><trkpt lat="45.660832530676096" lon="10.062780751186908"><ele>230.0</ele><time>2026-04-27T12:21:50.997Z</time></trkpt><trkpt lat="45.66069998456016" lon="10.062783429679866"><ele>230.0</ele><time>2026-04-27T12:21:51.997Z</time></trkpt><trkpt lat="45.66056015471263" lon="10.062794722788505"><ele>230.0</ele><time>2026-04-27T12:21:52.997Z</time></trkpt><trkpt lat="45.66041495108104" lon="10.062803316326182"><ele>230.0</ele><time>2026-04-27T12:21:53.997Z</time></trkpt><trkpt lat="45.66027031226638" lon="10.062803115812734"><ele>230.0</ele><time>2026-04-27T12:21:54.997Z</time></trkpt><trkpt lat="45.66012755226431" lon="10.062800935402707"><ele>230.25</ele><time>2026-04-27T12:21:55.997Z</time></trkpt><trkpt lat="45.65998750802732" lon="10.062805511418524"><ele>230.5</ele><time>2026-04-27T12:21:56.997Z</time></trkpt><trkpt lat="45.659851860155634" lon="10.062808883570245"><ele>230.75</ele><time>2026-04-27T12:21:57.997Z</time></trkpt><trkpt lat="45.659717712593434" lon="10.062810170884445"><ele>231.0</ele><time>2026-04-27T12:21:58.997Z</time></trkpt><trkpt lat="45.65958121416796" lon="10.06281964025526"><ele>233.25</ele><time>2026-04-27T12:21:59.997Z</time></trkpt><trkpt lat="45.65943826088868" lon="10.062829827060177"><ele>235.5</ele><time>2026-04-27T12:22:00.997Z</time></trkpt><trkpt lat="45.65929149592769" lon="10.062838353785521"><ele>237.75</ele><time>2026-04-27T12:22:01.997Z</time></trkpt><trkpt lat="45.65914656234263" lon="10.06284476393012"><ele>240.0</ele><time>2026-04-27T12:22:02.997Z</time></trkpt><trkpt lat="45.65900075632194" lon="10.06284382924391"><ele>240.0</ele><time>2026-04-27T12:22:03.997Z</time></trkpt><trkpt lat="45.65885220154831" lon="10.062847974448736"><ele>240.0</ele><time>2026-04-27T12:22:04.997Z</time></trkpt><trkpt lat="45.6587074555951" lon="10.06285044515092"><ele>240.0</ele><time>2026-04-27T12:22:05.997Z</time></trkpt><trkpt lat="45.658561405340365" lon="10.062851207041703"><ele>240.0</ele><time>2026-04-27T12:22:06.997Z</time></trkpt><trkpt lat="45.65841196508437" lon="10.062848798016187"><ele>243.25</ele><time>2026-04-27T12:22:07.997Z</time></trkpt><trkpt lat="45.65827127560005" lon="10.06284281509448"><ele>246.5</ele><time>2026-04-27T12:22:08.997Z</time></trkpt><trkpt lat="45.65812392357752" lon="10.062826650667496"><ele>249.75</ele><time>2026-04-27T12:22:09.997Z</time></trkpt><trkpt lat="45.657969992847605" lon="10.062796145753193"><ele>253.0</ele><time>2026-04-27T12:22:10.997Z</time></trkpt><trkpt lat="45.657820575157245" lon="10.062758020540702"><ele>256.66666666666663</ele><time>2026-04-27T12:22:11.998Z</time></trkpt><trkpt lat="45.657673877653" lon="10.062703345447057"><ele>260.3333333333333</ele><time>2026-04-27T12:22:12.997Z</time></trkpt><trkpt lat="45.65752385838891" lon="10.062631090085112"><ele>264.0</ele><time>2026-04-27T12:22:13.997Z</time></trkpt><trkpt lat="45.65738001279874" lon="10.062558651106041"><ele>264.0</ele><time>2026-04-27T12:22:14.997Z</time></trkpt><trkpt lat="45.65725303684685" lon="10.062485842735978"><ele>264.0</ele><time>2026-04-27T12:22:15.998Z</time></trkpt><trkpt lat="45.657134237959234" lon="10.062410067407745"><ele>264.0</ele><time>2026-04-27T12:22:16.998Z</time></trkpt><trkpt lat="45.65702357340981" lon="10.062331553899584"><ele>264.0</ele><time>2026-04-27T12:22:17.997Z</time></trkpt><trkpt lat="45.65690954614137" lon="10.06227061733136"><ele>262.2</ele><time>2026-04-27T12:22:18.998Z</time></trkpt><trkpt lat="45.656809831258066" lon="10.062194689128557"><ele>260.4</ele><time>2026-04-27T12:22:19.998Z</time></trkpt><trkpt lat="45.65669574874176" lon="10.062127151166212"><ele>258.6</ele><time>2026-04-27T12:22:20.997Z</time></trkpt><trkpt lat="45.65660243849513" lon="10.062052654367042"><ele>256.8</ele><time>2026-04-27T12:22:21.997Z</time></trkpt><trkpt lat="45.65652349275637" lon="10.061981400570849"><ele>255.0</ele><time>2026-04-27T12:22:22.997Z</time></trkpt><trkpt lat="45.65645300467059" lon="10.061931795028965"><ele>255.0</ele><time>2026-04-27T12:22:23.997Z</time></trkpt><trkpt lat="45.656396212205486" lon="10.06187458474561"><ele>255.0</ele><time>2026-04-27T12:22:24.997Z</time></trkpt><trkpt lat="45.656340820387676" lon="10.06181961688317"><ele>255.0</ele><time>2026-04-27T12:22:25.997Z</time></trkpt><trkpt lat="45.6562592446975" lon="10.0618069540179"><ele>255.0</ele><time>2026-04-27T12:22:26.997Z</time></trkpt><trkpt lat="45.65618667169731" lon="10.061736280348159"><ele>255.0</ele><time>2026-04-27T12:22:27.997Z</time></trkpt><trkpt lat="45.65609600973656" lon="10.061643219161532"><ele>255.0</ele><time>2026-04-27T12:22:28.997Z</time></trkpt><trkpt lat="45.65601473233403" lon="10.061509838165112"><ele>256.0</ele><time>2026-04-27T12:22:29.997Z</time></trkpt><trkpt lat="45.65591844975499" lon="10.061381221351608"><ele>257.0</ele><time>2026-04-27T12:22:30.997Z</time></trkpt><trkpt lat="45.65581001887769" lon="10.061231910584429"><ele>258.0</ele><time>2026-04-27T12:22:31.997Z</time></trkpt><trkpt lat="45.655690079398035" lon="10.06107666719636"><ele>259.0</ele><time>2026-04-27T12:22:32.997Z</time></trkpt><trkpt lat="45.655583453809726" lon="10.060892306753582"><ele>257.0</ele><time>2026-04-27T12:22:33.997Z</time></trkpt><trkpt lat="45.65550299957545" lon="10.060651028260205"><ele>255.0</ele><time>2026-04-27T12:22:34.997Z</time></trkpt><trkpt lat="45.65539164665365" lon="10.060427474028664"><ele>253.0</ele><time>2026-04-27T12:22:35.997Z</time></trkpt><trkpt lat="45.65528330794436" lon="10.06021130427931"><ele>253.0</ele><time>2026-04-27T12:22:36.997Z</time></trkpt><trkpt lat="45.655173551358814" lon="10.059994209855049"><ele>253.0</ele><time>2026-04-27T12:22:37.997Z</time></trkpt><trkpt lat="45.65505754186128" lon="10.059764747331883"><ele>253.0</ele><time>2026-04-27T12:22:38.997Z</time></trkpt><trkpt lat="45.65494383520438" lon="10.059539839798234"><ele>253.0</ele><time>2026-04-27T12:22:39.997Z</time></trkpt><trkpt lat="45.65483028519153" lon="10.059315242063956"><ele>253.0</ele><time>2026-04-27T12:22:40.997Z</time></trkpt><trkpt lat="45.6547131391743" lon="10.059083531613593"><ele>253.0</ele><time>2026-04-27T12:22:41.997Z</time></trkpt><trkpt lat="45.65459526151814" lon="10.058859964312653"><ele>256.3333333333333</ele><time>2026-04-27T12:22:42.997Z</time></trkpt><trkpt lat="45.654488067741475" lon="10.05862238120083"><ele>259.6666666666667</ele><time>2026-04-27T12:22:43.997Z</time></trkpt><trkpt lat="45.65436787556345" lon="10.05839066308109"><ele>263.0</ele><time>2026-04-27T12:22:44.997Z</time></trkpt><trkpt lat="45.654269999996465" lon="10.058163870236985"><ele>255.66666666666669</ele><time>2026-04-27T12:22:45.997Z</time></trkpt><trkpt lat="45.65415546049111" lon="10.057951049644561"><ele>248.33333333333331</ele><time>2026-04-27T12:22:46.997Z</time></trkpt><trkpt lat="45.65403357572809" lon="10.057735655775726"><ele>241.0</ele><time>2026-04-27T12:22:47.997Z</time></trkpt><trkpt lat="45.65391075332993" lon="10.057523295242461"><ele>246.33333333333331</ele><time>2026-04-27T12:22:48.997Z</time></trkpt><trkpt lat="45.653773851048676" lon="10.057303552436872"><ele>251.66666666666669</ele><time>2026-04-27T12:22:49.997Z</time></trkpt><trkpt lat="45.653626700979515" lon="10.057092703369488"><ele>257.0</ele><time>2026-04-27T12:22:50.997Z</time></trkpt><trkpt lat="45.65349765892707" lon="10.0568992167228"><ele>257.0</ele><time>2026-04-27T12:22:51.997Z</time></trkpt><trkpt lat="45.6533731168015" lon="10.056687290102172"><ele>257.0</ele><time>2026-04-27T12:22:52.997Z</time></trkpt><trkpt lat="45.65324351987148" lon="10.056495360593681"><ele>257.0</ele><time>2026-04-27T12:22:53.997Z</time></trkpt><trkpt lat="45.65311619726629" lon="10.05630679923267"><ele>256.33333333333337</ele><time>2026-04-27T12:22:54.997Z</time></trkpt><trkpt lat="45.65299269244403" lon="10.056115273864604"><ele>255.66666666666669</ele><time>2026-04-27T12:22:55.997Z</time></trkpt><trkpt lat="45.65286315802418" lon="10.05591132535749"><ele>255.0</ele><time>2026-04-27T12:22:56.997Z</time></trkpt><trkpt lat="45.65273448258281" lon="10.055708730254414"><ele>255.0</ele><time>2026-04-27T12:22:57.997Z</time></trkpt><trkpt lat="45.65260228658274" lon="10.055500590212478"><ele>255.0</ele><time>2026-04-27T12:22:58.997Z</time></trkpt><trkpt lat="45.65246675563725" lon="10.055287200796771"><ele>255.0</ele><time>2026-04-27T12:22:59.997Z</time></trkpt><trkpt lat="45.65234252034193" lon="10.055091799660913"><ele>261.0</ele><time>2026-04-27T12:23:00.997Z</time></trkpt><trkpt lat="45.65219444368291" lon="10.054858545477119"><ele>267.0</ele><time>2026-04-27T12:23:02.14Z</time></trkpt><trkpt lat="45.65082278420966" lon="10.052734092955642"><ele>283.0</ele><time>2026-04-27T12:23:05.772Z</time></trkpt><trkpt lat="45.650279138232115" lon="10.051878320836497"><ele>259.0</ele><time>2026-04-27T12:23:06.772Z</time></trkpt><trkpt lat="45.64973606056622" lon="10.051023341171955"><ele>281.0</ele><time>2026-04-27T12:23:07.771Z</time></trkpt><trkpt lat="45.64919229016643" lon="10.050166296751051"><ele>269.5</ele><time>2026-04-27T12:23:08.772Z</time></trkpt><trkpt lat="45.6489614" lon="10.0498023"><ele>258.0</ele><time>2026-04-27T12:23:09.772Z</time></trkpt><trkpt lat="45.64950299650394" lon="10.04135293274361"><ele>222.5</ele><time>2026-04-27T12:24:02.997Z</time></trkpt><trkpt lat="45.64960974811543" lon="10.04136260809956"><ele>187.0</ele><time>2026-04-27T12:24:03.997Z</time></trkpt><trkpt lat="45.64985883071801" lon="10.041777830132824"><ele>187.0</ele><time>2026-04-27T12:24:06.997Z</time></trkpt><trkpt lat="45.65001562661898" lon="10.041732974425628"><ele>187.0</ele><time>2026-04-27T12:24:08.997Z</time></trkpt><trkpt lat="45.65024996966416" lon="10.041911338710229"><ele>187.0</ele><time>2026-04-27T12:24:16.997Z</time></trkpt><trkpt lat="45.6502930973238" lon="10.041991644772944"><ele>186.0</ele><time>2026-04-27T12:24:17.997Z</time></trkpt><trkpt lat="45.65035064381241" lon="10.042054322744725"><ele>185.0</ele><time>2026-04-27T12:24:18.997Z</time></trkpt><trkpt lat="45.65038763991011" lon="10.042173913047787"><ele>184.0</ele><time>2026-04-27T12:24:19.997Z</time></trkpt><trkpt lat="45.65046759493228" lon="10.042272251365674"><ele>183.0</ele><time>2026-04-27T12:24:20.997Z</time></trkpt><trkpt lat="45.65056802352922" lon="10.042345570095296"><ele>182.0</ele><time>2026-04-27T12:24:21.997Z</time></trkpt><trkpt lat="45.65068212681355" lon="10.042383208055321"><ele>182.0</ele><time>2026-04-27T12:24:22.997Z</time></trkpt><trkpt lat="45.65080169808932" lon="10.042362310848477"><ele>182.0</ele><time>2026-04-27T12:24:23.998Z</time></trkpt><trkpt lat="45.65091243376803" lon="10.042297302464554"><ele>182.0</ele><time>2026-04-27T12:24:24.997Z</time></trkpt><trkpt lat="45.651004745108715" lon="10.042189043599508"><ele>182.0</ele><time>2026-04-27T12:24:25.997Z</time></trkpt><trkpt lat="45.651074247494336" lon="10.042044586931869"><ele>182.0</ele><time>2026-04-27T12:24:26.997Z</time></trkpt><trkpt lat="45.651108750752954" lon="10.04188332988093"><ele>182.0</ele><time>2026-04-27T12:24:27.997Z</time></trkpt><trkpt lat="45.65111683781728" lon="10.041681545310226"><ele>182.0</ele><time>2026-04-27T12:24:28.997Z</time></trkpt><trkpt lat="45.651124225451944" lon="10.04149646430968"><ele>182.0</ele><time>2026-04-27T12:24:29.997Z</time></trkpt><trkpt lat="45.6511238306923" lon="10.041303351099318"><ele>182.75</ele><time>2026-04-27T12:24:30.997Z</time></trkpt><trkpt lat="45.651140150801986" lon="10.04111054099284"><ele>183.5</ele><time>2026-04-27T12:24:31.997Z</time></trkpt><trkpt lat="45.6511931266626" lon="10.040949940873057"><ele>184.25</ele><time>2026-04-27T12:24:32.997Z</time></trkpt><trkpt lat="45.65127358523955" lon="10.04080629004815"><ele>185.0</ele><time>2026-04-27T12:24:33.997Z</time></trkpt><trkpt lat="45.65139933870807" lon="10.040686284016964"><ele>185.66666666666666</ele><time>2026-04-27T12:24:34.997Z</time></trkpt><trkpt lat="45.65154607053723" lon="10.040585870324763"><ele>186.33333333333334</ele><time>2026-04-27T12:24:35.997Z</time></trkpt><trkpt lat="45.65170234317279" lon="10.040474545648681"><ele>187.0</ele><time>2026-04-27T12:24:36.997Z</time></trkpt><trkpt lat="45.651851670609304" lon="10.040385613074118"><ele>186.75</ele><time>2026-04-27T12:24:37.997Z</time></trkpt><trkpt lat="45.65197919803637" lon="10.040294437842494"><ele>186.5</ele><time>2026-04-27T12:24:38.997Z</time></trkpt><trkpt lat="45.65209515218903" lon="10.040212014921245"><ele>186.25</ele><time>2026-04-27T12:24:39.997Z</time></trkpt><trkpt lat="45.65221849996635" lon="10.040194040919777"><ele>186.0</ele><time>2026-04-27T12:24:40.997Z</time></trkpt><trkpt lat="45.65233075981255" lon="10.040123775483156"><ele>186.0</ele><time>2026-04-27T12:24:41.997Z</time></trkpt><trkpt lat="45.6524458021371" lon="10.040056146647105"><ele>186.0</ele><time>2026-04-27T12:24:42.997Z</time></trkpt><trkpt lat="45.652565116608216" lon="10.039987340236639"><ele>186.0</ele><time>2026-04-27T12:24:43.997Z</time></trkpt><trkpt lat="45.652682510739844" lon="10.039905719869605"><ele>186.0</ele><time>2026-04-27T12:24:44.997Z</time></trkpt><trkpt lat="45.65280243798243" lon="10.039827630179852"><ele>185.8</ele><time>2026-04-27T12:24:45.997Z</time></trkpt><trkpt lat="45.65290862825052" lon="10.039759579378957"><ele>185.60000000000002</ele><time>2026-04-27T12:24:46.997Z</time></trkpt><trkpt lat="45.653007769961675" lon="10.039689821544847"><ele>185.4</ele><time>2026-04-27T12:24:47.997Z</time></trkpt><trkpt lat="45.65310395185338" lon="10.039613442018268"><ele>185.2</ele><time>2026-04-27T12:24:48.997Z</time></trkpt><trkpt lat="45.65319355590651" lon="10.03953228628832"><ele>185.0</ele><time>2026-04-27T12:24:49.997Z</time></trkpt><trkpt lat="45.653297515176845" lon="10.039448094125119"><ele>185.0</ele><time>2026-04-27T12:24:50.997Z</time></trkpt><trkpt lat="45.65340732094538" lon="10.039361165615123"><ele>185.0</ele><time>2026-04-27T12:24:51.997Z</time></trkpt><trkpt lat="45.653525692452206" lon="10.039273365830905"><ele>185.0</ele><time>2026-04-27T12:24:52.997Z</time></trkpt><trkpt lat="45.65365616964679" lon="10.039170294609207"><ele>185.0</ele><time>2026-04-27T12:24:53.997Z</time></trkpt><trkpt lat="45.65379189835573" lon="10.039057017297461"><ele>185.25</ele><time>2026-04-27T12:24:54.997Z</time></trkpt><trkpt lat="45.65391577409962" lon="10.038931362561927"><ele>185.5</ele><time>2026-04-27T12:24:55.997Z</time></trkpt><trkpt lat="45.65403545677105" lon="10.038798606625965"><ele>185.75</ele><time>2026-04-27T12:24:56.997Z</time></trkpt><trkpt lat="45.65414121484848" lon="10.038681790891387"><ele>186.0</ele><time>2026-04-27T12:24:57.997Z</time></trkpt><trkpt lat="45.654236708933624" lon="10.038565781877423"><ele>186.0</ele><time>2026-04-27T12:24:58.997Z</time></trkpt><trkpt lat="45.6543273301495" lon="10.038429208912282"><ele>186.0</ele><time>2026-04-27T12:24:59.997Z</time></trkpt><trkpt lat="45.654427827121125" lon="10.038298037495132"><ele>186.0</ele><time>2026-04-27T12:25:00.997Z</time></trkpt><trkpt lat="45.65451717138403" lon="10.038144380958546"><ele>186.0</ele><time>2026-04-27T12:25:01.997Z</time></trkpt><trkpt lat="45.65460113329895" lon="10.03798329981104"><ele>186.0</ele><time>2026-04-27T12:25:02.997Z</time></trkpt><trkpt lat="45.6546757978653" lon="10.037813263777318"><ele>186.0</ele><time>2026-04-27T12:25:03.997Z</time></trkpt><trkpt lat="45.654745768270864" lon="10.037640683326641"><ele>186.0</ele><time>2026-04-27T12:25:04.997Z</time></trkpt><trkpt lat="45.65484753896172" lon="10.037493832914643"><ele>186.0</ele><time>2026-04-27T12:25:05.997Z</time></trkpt><trkpt lat="45.65490721631025" lon="10.037299304369498"><ele>186.0</ele><time>2026-04-27T12:25:06.997Z</time></trkpt><trkpt lat="45.65496460166723" lon="10.037089750571676"><ele>186.0</ele><time>2026-04-27T12:25:07.997Z</time></trkpt><trkpt lat="45.65502130065038" lon="10.036886228909621"><ele>186.0</ele><time>2026-04-27T12:25:08.997Z</time></trkpt><trkpt lat="45.655076683367696" lon="10.036666230504826"><ele>185.66666666666666</ele><time>2026-04-27T12:25:09.997Z</time></trkpt><trkpt lat="45.65515778448945" lon="10.03645887329169"><ele>185.33333333333331</ele><time>2026-04-27T12:25:10.997Z</time></trkpt><trkpt lat="45.65518764963463" lon="10.036249142113517"><ele>185.0</ele><time>2026-04-27T12:25:11.997Z</time></trkpt><trkpt lat="45.65520974636074" lon="10.036029392102312"><ele>185.0</ele><time>2026-04-27T12:25:12.997Z</time></trkpt><trkpt lat="45.65521763332841" lon="10.035828148118085"><ele>185.0</ele><time>2026-04-27T12:25:13.997Z</time></trkpt><trkpt lat="45.65521381630026" lon="10.03562831498894"><ele>185.0</ele><time>2026-04-27T12:25:14.997Z</time></trkpt><trkpt lat="45.65520705244174" lon="10.03542205002019"><ele>185.0</ele><time>2026-04-27T12:25:15.997Z</time></trkpt><trkpt lat="45.65518637412456" lon="10.035200024099481"><ele>185.0</ele><time>2026-04-27T12:25:16.997Z</time></trkpt><trkpt lat="45.65516170923659" lon="10.034977404803886"><ele>185.0</ele><time>2026-04-27T12:25:17.997Z</time></trkpt><trkpt lat="45.655116913485905" lon="10.034757355134506"><ele>185.0</ele><time>2026-04-27T12:25:18.997Z</time></trkpt><trkpt lat="45.65506601629085" lon="10.034538229479228"><ele>185.0</ele><time>2026-04-27T12:25:19.997Z</time></trkpt><trkpt lat="45.65499674307876" lon="10.034328149680524"><ele>185.0</ele><time>2026-04-27T12:25:20.997Z</time></trkpt><trkpt lat="45.654919814158845" lon="10.034117410565715"><ele>185.0</ele><time>2026-04-27T12:25:21.997Z</time></trkpt><trkpt lat="45.65486205012502" lon="10.033930498312449"><ele>185.25</ele><time>2026-04-27T12:25:22.997Z</time></trkpt><trkpt lat="45.65478045695432" lon="10.033757325177623"><ele>185.5</ele><time>2026-04-27T12:25:23.997Z</time></trkpt><trkpt lat="45.65470132448766" lon="10.033596475152498"><ele>185.75</ele><time>2026-04-27T12:25:24.997Z</time></trkpt><trkpt lat="45.65461229849172" lon="10.033418478712756"><ele>186.0</ele><time>2026-04-27T12:25:25.997Z</time></trkpt><trkpt lat="45.65452310291661" lon="10.033236347342086"><ele>186.0</ele><time>2026-04-27T12:25:26.997Z</time></trkpt><trkpt lat="45.65444123000259" lon="10.033054177909518"><ele>186.0</ele><time>2026-04-27T12:25:27.997Z</time></trkpt><trkpt lat="45.65437502916152" lon="10.03285967794065"><ele>186.0</ele><time>2026-04-27T12:25:28.997Z</time></trkpt><trkpt lat="45.65432072835742" lon="10.032642599885767"><ele>186.0</ele><time>2026-04-27T12:25:29.997Z</time></trkpt><trkpt lat="45.65426300168481" lon="10.032422540992032"><ele>186.0</ele><time>2026-04-27T12:25:30.997Z</time></trkpt><trkpt lat="45.65425356360005" lon="10.0321972198583"><ele>186.0</ele><time>2026-04-27T12:25:31.997Z</time></trkpt><trkpt lat="45.65422571669157" lon="10.031976378822423"><ele>186.0</ele><time>2026-04-27T12:25:32.997Z</time></trkpt><trkpt lat="45.65419731953348" lon="10.031754089577507"><ele>186.0</ele><time>2026-04-27T12:25:33.997Z</time></trkpt><trkpt lat="45.654174936257064" lon="10.031528662149338"><ele>186.0</ele><time>2026-04-27T12:25:34.997Z</time></trkpt><trkpt lat="45.65414715586429" lon="10.031302695438454"><ele>185.75</ele><time>2026-04-27T12:25:35.997Z</time></trkpt><trkpt lat="45.654122684228305" lon="10.031110245600464"><ele>185.5</ele><time>2026-04-27T12:25:36.997Z</time></trkpt><trkpt lat="45.654105047389365" lon="10.030940392262158"><ele>185.25</ele><time>2026-04-27T12:25:37.997Z</time></trkpt><trkpt lat="45.654086444668515" lon="10.030775408549596"><ele>185.0</ele><time>2026-04-27T12:25:38.997Z</time></trkpt><trkpt lat="45.65405839114074" lon="10.030594950044682"><ele>185.75</ele><time>2026-04-27T12:25:39.997Z</time></trkpt><trkpt lat="45.654012375150565" lon="10.030400108025344"><ele>186.5</ele><time>2026-04-27T12:25:40.997Z</time></trkpt><trkpt lat="45.6539680878767" lon="10.030216861176276"><ele>187.25</ele><time>2026-04-27T12:25:41.997Z</time></trkpt><trkpt lat="45.65390749478751" lon="10.030040034686712"><ele>188.0</ele><time>2026-04-27T12:25:42.997Z</time></trkpt><trkpt lat="45.65384361912704" lon="10.029881743161356"><ele>189.0</ele><time>2026-04-27T12:25:43.997Z</time></trkpt><trkpt lat="45.65378535486986" lon="10.029740362203944"><ele>190.0</ele><time>2026-04-27T12:25:44.997Z</time></trkpt><trkpt lat="45.6537271064801" lon="10.0296041987682"><ele>191.0</ele><time>2026-04-27T12:25:45.997Z</time></trkpt><trkpt lat="45.653672403164975" lon="10.0294580937161"><ele>192.0</ele><time>2026-04-27T12:25:46.997Z</time></trkpt><trkpt lat="45.65362365791746" lon="10.029320672980125"><ele>191.66666666666666</ele><time>2026-04-27T12:25:47.997Z</time></trkpt><trkpt lat="45.6535781970375" lon="10.029201213852623"><ele>191.33333333333334</ele><time>2026-04-27T12:25:48.997Z</time></trkpt><trkpt lat="45.653531194923005" lon="10.029091614220336"><ele>191.0</ele><time>2026-04-27T12:25:49.997Z</time></trkpt><trkpt lat="45.65348973067971" lon="10.028978074258333"><ele>190.66666666666669</ele><time>2026-04-27T12:25:50.997Z</time></trkpt><trkpt lat="45.65344591373227" lon="10.028867440686875"><ele>190.33333333333334</ele><time>2026-04-27T12:25:51.997Z</time></trkpt><trkpt lat="45.65340749226724" lon="10.028758863106285"><ele>190.0</ele><time>2026-04-27T12:25:52.997Z</time></trkpt><trkpt lat="45.65336662066494" lon="10.02864603055577"><ele>190.0</ele><time>2026-04-27T12:25:53.997Z</time></trkpt><trkpt lat="45.6533234699143" lon="10.028543239588085"><ele>190.0</ele><time>2026-04-27T12:25:54.997Z</time></trkpt><trkpt lat="45.65328152461963" lon="10.028434028287808"><ele>190.0</ele><time>2026-04-27T12:25:55.997Z</time></trkpt><trkpt lat="45.65324792070219" lon="10.028330640017524"><ele>190.0</ele><time>2026-04-27T12:25:56.997Z</time></trkpt><trkpt lat="45.653213642644104" lon="10.028229538360403"><ele>190.0</ele><time>2026-04-27T12:25:57.997Z</time></trkpt><trkpt lat="45.653166799286495" lon="10.028116256601134"><ele>190.0</ele><time>2026-04-27T12:25:58.997Z</time></trkpt><trkpt lat="45.65312360991103" lon="10.027998328249165"><ele>189.8</ele><time>2026-04-27T12:25:59.997Z</time></trkpt><trkpt lat="45.65308313500305" lon="10.027873390087503"><ele>189.6</ele><time>2026-04-27T12:26:00.997Z</time></trkpt><trkpt lat="45.65303719997139" lon="10.027746333196799"><ele>189.39999999999998</ele><time>2026-04-27T12:26:01.997Z</time></trkpt><trkpt lat="45.6529933350208" lon="10.027626534842558"><ele>189.2</ele><time>2026-04-27T12:26:02.997Z</time></trkpt><trkpt lat="45.65294610146719" lon="10.027520701115055"><ele>189.0</ele><time>2026-04-27T12:26:03.997Z</time></trkpt><trkpt lat="45.65290583137817" lon="10.027413622510995"><ele>189.0</ele><time>2026-04-27T12:26:04.997Z</time></trkpt><trkpt lat="45.65285924711453" lon="10.02729703404899"><ele>189.0</ele><time>2026-04-27T12:26:05.997Z</time></trkpt><trkpt lat="45.65281054003391" lon="10.027179086063635"><ele>189.0</ele><time>2026-04-27T12:26:06.997Z</time></trkpt><trkpt lat="45.65276884725652" lon="10.027057071804343"><ele>189.0</ele><time>2026-04-27T12:26:07.997Z</time></trkpt><trkpt lat="45.65272480473742" lon="10.02695155028012"><ele>189.0</ele><time>2026-04-27T12:26:08.997Z</time></trkpt><trkpt lat="45.65268685986207" lon="10.026849040219446"><ele>188.83333333333334</ele><time>2026-04-27T12:26:09.997Z</time></trkpt><trkpt lat="45.65264668502154" lon="10.026740679269865"><ele>188.66666666666666</ele><time>2026-04-27T12:26:10.997Z</time></trkpt><trkpt lat="45.652607699117624" lon="10.026622240847338"><ele>188.5</ele><time>2026-04-27T12:26:11.997Z</time></trkpt><trkpt lat="45.65257363262652" lon="10.026514791403535"><ele>188.33333333333331</ele><time>2026-04-27T12:26:12.997Z</time></trkpt><trkpt lat="45.652534878187986" lon="10.026418678044347"><ele>188.16666666666666</ele><time>2026-04-27T12:26:13.997Z</time></trkpt><trkpt lat="45.652494106502125" lon="10.026313882707065"><ele>188.0</ele><time>2026-04-27T12:26:14.997Z</time></trkpt><trkpt lat="45.65245147354692" lon="10.026216145829476"><ele>188.0</ele><time>2026-04-27T12:26:15.997Z</time></trkpt><trkpt lat="45.652411047165856" lon="10.026103618093648"><ele>188.0</ele><time>2026-04-27T12:26:16.997Z</time></trkpt><trkpt lat="45.6524084160512" lon="10.025986645626475"><ele>188.0</ele><time>2026-04-27T12:26:17.997Z</time></trkpt><trkpt lat="45.65236265918451" lon="10.025862145401536"><ele>188.0</ele><time>2026-04-27T12:26:18.996Z</time></trkpt><trkpt lat="45.652315518583436" lon="10.025728069250897"><ele>188.0</ele><time>2026-04-27T12:26:19.996Z</time></trkpt><trkpt lat="45.65226394711812" lon="10.025585820956843"><ele>188.5</ele><time>2026-04-27T12:26:20.996Z</time></trkpt><trkpt lat="45.652209799798406" lon="10.025444733368344"><ele>189.0</ele><time>2026-04-27T12:26:21.996Z</time></trkpt><trkpt lat="45.65215878739532" lon="10.025304467020984"><ele>189.5</ele><time>2026-04-27T12:26:22.996Z</time></trkpt><trkpt lat="45.65210546963667" lon="10.025162540367129"><ele>190.0</ele><time>2026-04-27T12:26:23.997Z</time></trkpt><trkpt lat="45.65205080144862" lon="10.025016240256305"><ele>189.6</ele><time>2026-04-27T12:26:24.997Z</time></trkpt><trkpt lat="45.651991797720086" lon="10.024868494972631"><ele>189.2</ele><time>2026-04-27T12:26:25.997Z</time></trkpt><trkpt lat="45.651942843695075" lon="10.024733876112615"><ele>188.8</ele><time>2026-04-27T12:26:26.997Z</time></trkpt><trkpt lat="45.651899331032006" lon="10.024613151553973"><ele>188.4</ele><time>2026-04-27T12:26:27.997Z</time></trkpt><trkpt lat="45.65185324526176" lon="10.024493500647427"><ele>188.0</ele><time>2026-04-27T12:26:28.997Z</time></trkpt><trkpt lat="45.651816695872476" lon="10.024384610440448"><ele>188.0</ele><time>2026-04-27T12:26:29.997Z</time></trkpt><trkpt lat="45.65178249170604" lon="10.024282578472688"><ele>188.0</ele><time>2026-04-27T12:26:30.997Z</time></trkpt><trkpt lat="45.65175345370111" lon="10.024192484904548"><ele>188.0</ele><time>2026-04-27T12:26:31.997Z</time></trkpt><trkpt lat="45.65172675786474" lon="10.02409244501444"><ele>188.0</ele><time>2026-04-27T12:26:32.997Z</time></trkpt><trkpt lat="45.65169926382509" lon="10.023989756970776"><ele>188.0</ele><time>2026-04-27T12:26:33.997Z</time></trkpt><trkpt lat="45.65166935085082" lon="10.023880848587114"><ele>188.0</ele><time>2026-04-27T12:26:34.997Z</time></trkpt><trkpt lat="45.651647581279136" lon="10.02375127022657"><ele>187.8</ele><time>2026-04-27T12:26:35.997Z</time></trkpt><trkpt lat="45.65163184992438" lon="10.023610063467794"><ele>187.60000000000002</ele><time>2026-04-27T12:26:36.997Z</time></trkpt><trkpt lat="45.65162027462786" lon="10.023460386459476"><ele>187.39999999999998</ele><time>2026-04-27T12:26:37.997Z</time></trkpt><trkpt lat="45.651608417642684" lon="10.023300513871014"><ele>187.2</ele><time>2026-04-27T12:26:38.997Z</time></trkpt><trkpt lat="45.651600243580496" lon="10.023139405534065"><ele>187.0</ele><time>2026-04-27T12:26:39.997Z</time></trkpt><trkpt lat="45.65158818792095" lon="10.02298338187286"><ele>187.0</ele><time>2026-04-27T12:26:40.997Z</time></trkpt><trkpt lat="45.65157722787683" lon="10.022849779874031"><ele>187.0</ele><time>2026-04-27T12:26:41.997Z</time></trkpt><trkpt lat="45.651574268183936" lon="10.022726355511299"><ele>187.0</ele><time>2026-04-27T12:26:42.997Z</time></trkpt><trkpt lat="45.651576946594865" lon="10.022616874816025"><ele>187.0</ele><time>2026-04-27T12:26:43.997Z</time></trkpt><trkpt lat="45.65158415858263" lon="10.022512547781268"><ele>187.0</ele><time>2026-04-27T12:26:44.997Z</time></trkpt><trkpt lat="45.651606445862214" lon="10.022408778683987"><ele>187.0</ele><time>2026-04-27T12:26:45.997Z</time></trkpt><trkpt lat="45.65162957895069" lon="10.022291176082778"><ele>187.75</ele><time>2026-04-27T12:26:46.997Z</time></trkpt><trkpt lat="45.65164822183158" lon="10.022176631417423"><ele>188.5</ele><time>2026-04-27T12:26:47.997Z</time></trkpt><trkpt lat="45.65159832599257" lon="10.021993054949128"><ele>189.25</ele><time>2026-04-27T12:26:49.997Z</time></trkpt><trkpt lat="45.651514007994315" lon="10.021897615592728"><ele>190.0</ele><time>2026-04-27T12:26:50.997Z</time></trkpt><trkpt lat="45.65140345273822" lon="10.02179340180538"><ele>190.0</ele><time>2026-04-27T12:26:51.997Z</time></trkpt><trkpt lat="45.65127428142064" lon="10.021694302842468"><ele>190.0</ele><time>2026-04-27T12:26:52.997Z</time></trkpt><trkpt lat="45.65115065916722" lon="10.021590656530028"><ele>190.0</ele><time>2026-04-27T12:26:53.997Z</time></trkpt><trkpt lat="45.651017290888845" lon="10.021510948778126"><ele>190.0</ele><time>2026-04-27T12:26:54.997Z</time></trkpt><trkpt lat="45.65086952496987" lon="10.021433828309172"><ele>192.33333333333334</ele><time>2026-04-27T12:26:55.997Z</time></trkpt><trkpt lat="45.650712888084705" lon="10.021370312846539"><ele>194.66666666666669</ele><time>2026-04-27T12:26:56.997Z</time></trkpt><trkpt lat="45.650547270819224" lon="10.021304141148656"><ele>197.0</ele><time>2026-04-27T12:26:57.997Z</time></trkpt><trkpt lat="45.650382653792796" lon="10.021240123770054"><ele>196.66666666666669</ele><time>2026-04-27T12:26:58.997Z</time></trkpt><trkpt lat="45.65021118717323" lon="10.02117805203543"><ele>196.33333333333331</ele><time>2026-04-27T12:26:59.997Z</time></trkpt><trkpt lat="45.65003896793988" lon="10.021112826119099"><ele>196.0</ele><time>2026-04-27T12:27:00.997Z</time></trkpt><trkpt lat="45.649882475271724" lon="10.02105043010957"><ele>196.0</ele><time>2026-04-27T12:27:01.997Z</time></trkpt><trkpt lat="45.649740070441" lon="10.02098998897504"><ele>196.0</ele><time>2026-04-27T12:27:02.997Z</time></trkpt><trkpt lat="45.64958235081567" lon="10.020920003541292"><ele>196.0</ele><time>2026-04-27T12:27:03.997Z</time></trkpt><trkpt lat="45.64942609627208" lon="10.020846641622047"><ele>197.33333333333331</ele><time>2026-04-27T12:27:04.996Z</time></trkpt><trkpt lat="45.64926529610352" lon="10.020771206985131"><ele>198.66666666666669</ele><time>2026-04-27T12:27:05.996Z</time></trkpt><trkpt lat="45.64910640998132" lon="10.02069793829676"><ele>200.0</ele><time>2026-04-27T12:27:06.996Z</time></trkpt><trkpt lat="45.64894213355811" lon="10.02062780599524"><ele>200.0</ele><time>2026-04-27T12:27:07.996Z</time></trkpt><trkpt lat="45.648776266211655" lon="10.020561150207813"><ele>200.0</ele><time>2026-04-27T12:27:08.996Z</time></trkpt><trkpt lat="45.648602931558216" lon="10.020489459857538"><ele>200.0</ele><time>2026-04-27T12:27:09.996Z</time></trkpt><trkpt lat="45.64845149263964" lon="10.020421080541444"><ele>198.25</ele><time>2026-04-27T12:27:10.996Z</time></trkpt><trkpt lat="45.648317740005275" lon="10.020360585517038"><ele>196.5</ele><time>2026-04-27T12:27:11.996Z</time></trkpt><trkpt lat="45.64819194271006" lon="10.020306522446628"><ele>194.75</ele><time>2026-04-27T12:27:12.996Z</time></trkpt><trkpt lat="45.64807121878396" lon="10.020243353644045"><ele>193.0</ele><time>2026-04-27T12:27:13.996Z</time></trkpt><trkpt lat="45.64795108401487" lon="10.020145014721141"><ele>193.0</ele><time>2026-04-27T12:27:14.996Z</time></trkpt><trkpt lat="45.64784802794146" lon="10.019998559468652"><ele>193.0</ele><time>2026-04-27T12:27:15.996Z</time></trkpt><trkpt lat="45.647773810692335" lon="10.01980476822579"><ele>193.0</ele><time>2026-04-27T12:27:16.996Z</time></trkpt><trkpt lat="45.64770243968226" lon="10.019583396196053"><ele>193.33333333333331</ele><time>2026-04-27T12:27:17.996Z</time></trkpt><trkpt lat="45.6476186669268" lon="10.019363704874287"><ele>193.66666666666669</ele><time>2026-04-27T12:27:18.996Z</time></trkpt><trkpt lat="45.64752238139595" lon="10.019143858393136"><ele>194.0</ele><time>2026-04-27T12:27:19.996Z</time></trkpt><trkpt lat="45.64743241775593" lon="10.018926766698426"><ele>193.33333333333334</ele><time>2026-04-27T12:27:20.996Z</time></trkpt><trkpt lat="45.647368181735075" lon="10.01871021127325"><ele>192.66666666666669</ele><time>2026-04-27T12:27:21.996Z</time></trkpt><trkpt lat="45.64730483248508" lon="10.018521249907725"><ele>192.0</ele><time>2026-04-27T12:27:22.996Z</time></trkpt><trkpt lat="45.64724354755615" lon="10.018338446083211"><ele>192.33333333333331</ele><time>2026-04-27T12:27:23.996Z</time></trkpt><trkpt lat="45.64717530336463" lon="10.018130379948438"><ele>192.66666666666666</ele><time>2026-04-27T12:27:24.996Z</time></trkpt><trkpt lat="45.64709682840871" lon="10.017922292141096"><ele>193.0</ele><time>2026-04-27T12:27:25.996Z</time></trkpt><trkpt lat="45.647024301814625" lon="10.017695966464542"><ele>192.33333333333331</ele><time>2026-04-27T12:27:26.996Z</time></trkpt><trkpt lat="45.646951092608006" lon="10.017466720064517"><ele>191.66666666666666</ele><time>2026-04-27T12:27:27.996Z</time></trkpt><trkpt lat="45.64687507003835" lon="10.017249979563728"><ele>191.0</ele><time>2026-04-27T12:27:28.996Z</time></trkpt><trkpt lat="45.64681231800469" lon="10.017050215551542"><ele>191.0</ele><time>2026-04-27T12:27:29.996Z</time></trkpt><trkpt lat="45.646750861301975" lon="10.016845272679799"><ele>191.0</ele><time>2026-04-27T12:27:30.996Z</time></trkpt><trkpt lat="45.646680678992254" lon="10.016625403322323"><ele>191.0</ele><time>2026-04-27T12:27:31.996Z</time></trkpt><trkpt lat="45.64660744426977" lon="10.016405092966906"><ele>191.66666666666666</ele><time>2026-04-27T12:27:32.996Z</time></trkpt><trkpt lat="45.646546608280815" lon="10.016206925059988"><ele>192.33333333333331</ele><time>2026-04-27T12:27:33.996Z</time></trkpt><trkpt lat="45.64648819847424" lon="10.015996208930687"><ele>193.0</ele><time>2026-04-27T12:27:34.996Z</time></trkpt><trkpt lat="45.64643252076881" lon="10.015791080404341"><ele>193.0</ele><time>2026-04-27T12:27:35.996Z</time></trkpt><trkpt lat="45.64637214863804" lon="10.015595922423351"><ele>193.0</ele><time>2026-04-27T12:27:36.996Z</time></trkpt><trkpt lat="45.646298429845544" lon="10.015399618673499"><ele>193.0</ele><time>2026-04-27T12:27:37.996Z</time></trkpt><trkpt lat="45.64622450941163" lon="10.015208400816213"><ele>193.0</ele><time>2026-04-27T12:27:38.996Z</time></trkpt><trkpt lat="45.6461491289282" lon="10.015039861403022"><ele>193.0</ele><time>2026-04-27T12:27:39.996Z</time></trkpt><trkpt lat="45.64607046013648" lon="10.014866893724307"><ele>193.0</ele><time>2026-04-27T12:27:40.996Z</time></trkpt><trkpt lat="45.64598935557359" lon="10.014705105526344"><ele>193.0</ele><time>2026-04-27T12:27:41.996Z</time></trkpt><trkpt lat="45.64589874177082" lon="10.014541857445414"><ele>194.0</ele><time>2026-04-27T12:27:42.996Z</time></trkpt><trkpt lat="45.64580604858472" lon="10.014374210265968"><ele>195.0</ele><time>2026-04-27T12:27:43.996Z</time></trkpt><trkpt lat="45.645723724586" lon="10.014189668804288"><ele>196.0</ele><time>2026-04-27T12:27:44.996Z</time></trkpt><trkpt lat="45.6456423977074" lon="10.013999857934126"><ele>196.0</ele><time>2026-04-27T12:27:45.996Z</time></trkpt><trkpt lat="45.645557384770484" lon="10.013812732582656"><ele>196.0</ele><time>2026-04-27T12:27:46.996Z</time></trkpt><trkpt lat="45.64547125203461" lon="10.01362840431509"><ele>196.0</ele><time>2026-04-27T12:27:47.996Z</time></trkpt><trkpt lat="45.64543135071691" lon="10.013443413963783"><ele>196.0</ele><time>2026-04-27T12:27:48.996Z</time></trkpt><trkpt lat="45.64535587521872" lon="10.013267967597775"><ele>196.75</ele><time>2026-04-27T12:27:49.996Z</time></trkpt><trkpt lat="45.64527851430206" lon="10.013101971882831"><ele>197.5</ele><time>2026-04-27T12:27:50.996Z</time></trkpt><trkpt lat="45.645202183016856" lon="10.012945511514058"><ele>198.25</ele><time>2026-04-27T12:27:51.996Z</time></trkpt><trkpt lat="45.64512011006796" lon="10.012807392466504"><ele>199.0</ele><time>2026-04-27T12:27:52.996Z</time></trkpt><trkpt lat="45.64502828114457" lon="10.012680660688257"><ele>199.0</ele><time>2026-04-27T12:27:53.996Z</time></trkpt><trkpt lat="45.644935159116905" lon="10.012573377053252"><ele>199.0</ele><time>2026-04-27T12:27:54.996Z</time></trkpt><trkpt lat="45.64484838135694" lon="10.012486711369363"><ele>199.0</ele><time>2026-04-27T12:27:55.996Z</time></trkpt><trkpt lat="45.64477129616814" lon="10.012395753398541"><ele>199.0</ele><time>2026-04-27T12:27:56.996Z</time></trkpt><trkpt lat="45.644703324439725" lon="10.012299148956153"><ele>199.0</ele><time>2026-04-27T12:27:57.996Z</time></trkpt><trkpt lat="45.6446282464897" lon="10.012228568002605"><ele>199.16666666666666</ele><time>2026-04-27T12:27:58.996Z</time></trkpt><trkpt lat="45.644571171582584" lon="10.012159412584225"><ele>199.33333333333331</ele><time>2026-04-27T12:27:59.996Z</time></trkpt><trkpt lat="45.644517142154996" lon="10.012064625311934"><ele>199.5</ele><time>2026-04-27T12:28:00.996Z</time></trkpt><trkpt lat="45.64446093576925" lon="10.01199710603035"><ele>199.66666666666669</ele><time>2026-04-27T12:28:01.996Z</time></trkpt><trkpt lat="45.64438852525319" lon="10.011975635709542"><ele>199.83333333333334</ele><time>2026-04-27T12:28:02.996Z</time></trkpt><trkpt lat="45.64432538947146" lon="10.012002866577962"><ele>200.0</ele><time>2026-04-27T12:28:03.996Z</time></trkpt><trkpt lat="45.64426002348601" lon="10.01207344360176"><ele>200.6</ele><time>2026-04-27T12:28:04.996Z</time></trkpt><trkpt lat="45.64425247094812" lon="10.012203365633226"><ele>201.2</ele><time>2026-04-27T12:28:05.996Z</time></trkpt><trkpt lat="45.644225280614165" lon="10.012311850815301"><ele>201.8</ele><time>2026-04-27T12:28:06.996Z</time></trkpt><trkpt lat="45.64413731779317" lon="10.01243492091637"><ele>202.4</ele><time>2026-04-27T12:28:08.996Z</time></trkpt><trkpt lat="45.64406453718961" lon="10.012426814769139"><ele>203.0</ele><time>2026-04-27T12:28:09.996Z</time></trkpt><trkpt lat="45.64398884742295" lon="10.012366505755919"><ele>203.0</ele><time>2026-04-27T12:28:10.996Z</time></trkpt><trkpt lat="45.64394340463932" lon="10.012271276585203"><ele>203.0</ele><time>2026-04-27T12:28:11.996Z</time></trkpt><trkpt lat="45.6438751148682" lon="10.012187780871692"><ele>203.0</ele><time>2026-04-27T12:28:12.996Z</time></trkpt><trkpt lat="45.643775743629284" lon="10.012151166457773"><ele>203.0</ele><time>2026-04-27T12:28:13.996Z</time></trkpt><trkpt lat="45.64368199499497" lon="10.012116072306808"><ele>203.0</ele><time>2026-04-27T12:28:14.996Z</time></trkpt><trkpt lat="45.64358579871122" lon="10.012090040496817"><ele>203.33333333333334</ele><time>2026-04-27T12:28:15.996Z</time></trkpt><trkpt lat="45.64348658655007" lon="10.012063324919193"><ele>203.66666666666669</ele><time>2026-04-27T12:28:16.996Z</time></trkpt><trkpt lat="45.64341151294022" lon="10.012043659159236"><ele>204.0</ele><time>2026-04-27T12:28:17.996Z</time></trkpt><trkpt lat="45.64333713101975" lon="10.012015984055347"><ele>204.33333333333331</ele><time>2026-04-27T12:28:19.996Z</time></trkpt><trkpt lat="45.64325518787031" lon="10.012020968847606"><ele>204.66666666666666</ele><time>2026-04-27T12:28:22.996Z</time></trkpt><trkpt lat="45.64321571637676" lon="10.012161143041912"><ele>205.0</ele><time>2026-04-27T12:28:24.996Z</time></trkpt><trkpt lat="45.64319263942246" lon="10.012341721211659"><ele>204.99999999999997</ele><time>2026-04-27T12:28:26.996Z</time></trkpt><trkpt lat="45.643179216747896" lon="10.012433731992084"><ele>205.0</ele><time>2026-04-27T12:28:27.996Z</time></trkpt><trkpt lat="45.643153386713934" lon="10.012571954546793"><ele>205.0</ele><time>2026-04-27T12:28:29.997Z</time></trkpt><trkpt lat="45.64313084620655" lon="10.012674854394591"><ele>205.0</ele><time>2026-04-27T12:28:31.997Z</time></trkpt><trkpt lat="45.64312391826032" lon="10.012793239186157"><ele>204.99999999999997</ele><time>2026-04-27T12:28:33.997Z</time></trkpt><trkpt lat="45.64310668970203" lon="10.012899749629556"><ele>205.0</ele><time>2026-04-27T12:28:35.997Z</time></trkpt><trkpt lat="45.64311687765515" lon="10.012999661397041"><ele>205.4</ele><time>2026-04-27T12:28:37.997Z</time></trkpt><trkpt lat="45.64315739167688" lon="10.013088505554867"><ele>205.8</ele><time>2026-04-27T12:28:40.997Z</time></trkpt><trkpt lat="45.643268495419974" lon="10.012964306062507"><ele>206.2</ele><time>2026-04-27T12:28:44.997Z</time></trkpt><trkpt lat="45.64328249165798" lon="10.012871253218481"><ele>206.6</ele><time>2026-04-27T12:28:45.997Z</time></trkpt><trkpt lat="45.64326026959838" lon="10.012746363771972"><ele>207.0</ele><time>2026-04-27T12:28:46.997Z</time></trkpt><trkpt lat="45.64328852479179" lon="10.012633444069387"><ele>207.0</ele><time>2026-04-27T12:28:47.997Z</time></trkpt><trkpt lat="45.64331294664951" lon="10.01252346402844"><ele>207.0</ele><time>2026-04-27T12:28:48.997Z</time></trkpt><trkpt lat="45.64333063279586" lon="10.012417514682408"><ele>207.0</ele><time>2026-04-27T12:28:49.997Z</time></trkpt><trkpt lat="45.64334812554734" lon="10.012306756815013"><ele>207.0</ele><time>2026-04-27T12:28:50.997Z</time></trkpt><trkpt lat="45.64335340884057" lon="10.012153281073966"><ele>207.0</ele><time>2026-04-27T12:28:52.997Z</time></trkpt><trkpt lat="45.64341486833092" lon="10.01208096433198"><ele>207.0</ele><time>2026-04-27T12:28:54.997Z</time></trkpt><trkpt lat="45.64348073658518" lon="10.012088995986362"><ele>206.66666666666666</ele><time>2026-04-27T12:28:55.997Z</time></trkpt><trkpt lat="45.64354705387128" lon="10.012114616542302"><ele>206.33333333333331</ele><time>2026-04-27T12:28:56.997Z</time></trkpt><trkpt lat="45.643628185198345" lon="10.01214998516135"><ele>206.0</ele><time>2026-04-27T12:28:57.997Z</time></trkpt><trkpt lat="45.643717196889526" lon="10.012186030334188"><ele>205.66666666666666</ele><time>2026-04-27T12:28:58.997Z</time></trkpt><trkpt lat="45.643802945379775" lon="10.012224024409743"><ele>205.33333333333331</ele><time>2026-04-27T12:28:59.997Z</time></trkpt><trkpt lat="45.64386906902886" lon="10.012264661003638"><ele>205.0</ele><time>2026-04-27T12:29:00.997Z</time></trkpt><trkpt lat="45.64392223817544" lon="10.012313355408255"><ele>204.85714285714286</ele><time>2026-04-27T12:29:01.997Z</time></trkpt><trkpt lat="45.643970436614524" lon="10.012388050603475"><ele>204.7142857142857</ele><time>2026-04-27T12:29:02.997Z</time></trkpt><trkpt lat="45.64401857508792" lon="10.012462794218672"><ele>204.57142857142856</ele><time>2026-04-27T12:29:03.997Z</time></trkpt><trkpt lat="45.64409184668873" lon="10.012492028964283"><ele>204.42857142857144</ele><time>2026-04-27T12:29:04.997Z</time></trkpt><trkpt lat="45.6441681977413" lon="10.01246756405147"><ele>204.28571428571428</ele><time>2026-04-27T12:29:05.997Z</time></trkpt><trkpt lat="45.644236224310745" lon="10.012430779706555"><ele>204.14285714285714</ele><time>2026-04-27T12:29:06.997Z</time></trkpt><trkpt lat="45.644289602551595" lon="10.01236533112129"><ele>204.0</ele><time>2026-04-27T12:29:07.997Z</time></trkpt><trkpt lat="45.64437405984066" lon="10.012363179396981"><ele>203.79999999999998</ele><time>2026-04-27T12:29:08.997Z</time></trkpt><trkpt lat="45.644441972464605" lon="10.012298528215291"><ele>203.6</ele><time>2026-04-27T12:29:09.997Z</time></trkpt><trkpt lat="45.644482087983434" lon="10.012208155404435"><ele>203.4</ele><time>2026-04-27T12:29:10.997Z</time></trkpt><trkpt lat="45.64450429037784" lon="10.012071254155723"><ele>203.2</ele><time>2026-04-27T12:29:11.997Z</time></trkpt><trkpt lat="45.644517239233295" lon="10.011924370624307"><ele>203.0</ele><time>2026-04-27T12:29:12.997Z</time></trkpt><trkpt lat="45.64453120675936" lon="10.011764363279994"><ele>202.5</ele><time>2026-04-27T12:29:13.997Z</time></trkpt><trkpt lat="45.64455263519968" lon="10.01159517332548"><ele>202.0</ele><time>2026-04-27T12:29:14.997Z</time></trkpt><trkpt lat="45.64458986424506" lon="10.011422582323458"><ele>201.5</ele><time>2026-04-27T12:29:15.997Z</time></trkpt><trkpt lat="45.644621589957715" lon="10.01124066003845"><ele>201.0</ele><time>2026-04-27T12:29:16.997Z</time></trkpt><trkpt lat="45.64465510645498" lon="10.011049990727415"><ele>201.0</ele><time>2026-04-27T12:29:17.997Z</time></trkpt><trkpt lat="45.644677308496874" lon="10.010849479285543"><ele>201.0</ele><time>2026-04-27T12:29:18.997Z</time></trkpt><trkpt lat="45.64474870604557" lon="10.010654939016842"><ele>201.0</ele><time>2026-04-27T12:29:19.997Z</time></trkpt><trkpt lat="45.64479860315532" lon="10.01045646294601"><ele>201.0</ele><time>2026-04-27T12:29:20.997Z</time></trkpt><trkpt lat="45.64484530347398" lon="10.010247571197057"><ele>201.0</ele><time>2026-04-27T12:29:21.997Z</time></trkpt><trkpt lat="45.64488857652428" lon="10.01004366849576"><ele>201.0</ele><time>2026-04-27T12:29:22.997Z</time></trkpt><trkpt lat="45.644928792732486" lon="10.00983568082154"><ele>201.0</ele><time>2026-04-27T12:29:23.997Z</time></trkpt><trkpt lat="45.64496703733819" lon="10.009627485413022"><ele>200.66666666666669</ele><time>2026-04-27T12:29:24.997Z</time></trkpt><trkpt lat="45.64500602488631" lon="10.009409256390592"><ele>200.33333333333334</ele><time>2026-04-27T12:29:25.997Z</time></trkpt><trkpt lat="45.64504403376826" lon="10.00919380165679"><ele>200.0</ele><time>2026-04-27T12:29:26.997Z</time></trkpt><trkpt lat="45.64508476391143" lon="10.00898827908061"><ele>199.66666666666669</ele><time>2026-04-27T12:29:27.997Z</time></trkpt><trkpt lat="45.64512510537567" lon="10.008781533272254"><ele>199.33333333333331</ele><time>2026-04-27T12:29:28.997Z</time></trkpt><trkpt lat="45.64516742288047" lon="10.008564601534838"><ele>199.0</ele><time>2026-04-27T12:29:29.997Z</time></trkpt><trkpt lat="45.64521335006809" lon="10.008349776519525"><ele>199.33333333333331</ele><time>2026-04-27T12:29:30.997Z</time></trkpt><trkpt lat="45.64525678353624" lon="10.008136112909268"><ele>199.66666666666669</ele><time>2026-04-27T12:29:31.997Z</time></trkpt><trkpt lat="45.64529253590364" lon="10.00791681343344"><ele>200.0</ele><time>2026-04-27T12:29:32.997Z</time></trkpt><trkpt lat="45.645332139422585" lon="10.00769309361357"><ele>199.33333333333334</ele><time>2026-04-27T12:29:33.997Z</time></trkpt><trkpt lat="45.64536869926904" lon="10.007478879992501"><ele>198.66666666666669</ele><time>2026-04-27T12:29:34.997Z</time></trkpt><trkpt lat="45.64540618177556" lon="10.007266598704465"><ele>198.0</ele><time>2026-04-27T12:29:35.997Z</time></trkpt><trkpt lat="45.645444035295014" lon="10.00706684770252"><ele>198.0</ele><time>2026-04-27T12:29:36.997Z</time></trkpt><trkpt lat="45.64547457172578" lon="10.006882273337059"><ele>198.0</ele><time>2026-04-27T12:29:37.997Z</time></trkpt><trkpt lat="45.64552426089898" lon="10.006719217984877"><ele>198.0</ele><time>2026-04-27T12:29:38.997Z</time></trkpt><trkpt lat="45.64559350059131" lon="10.006547971666304"><ele>198.0</ele><time>2026-04-27T12:29:39.997Z</time></trkpt><trkpt lat="45.64569178564979" lon="10.006400487598306"><ele>197.0</ele><time>2026-04-27T12:29:40.997Z</time></trkpt><trkpt lat="45.64579862044241" lon="10.00625576099556"><ele>196.0</ele><time>2026-04-27T12:29:41.997Z</time></trkpt><trkpt lat="45.64590549008248" lon="10.006100257361485"><ele>195.0</ele><time>2026-04-27T12:29:42.997Z</time></trkpt><trkpt lat="45.64600615887931" lon="10.005932406173855"><ele>195.0</ele><time>2026-04-27T12:29:43.997Z</time></trkpt><trkpt lat="45.646077671430675" lon="10.005755997389068"><ele>195.0</ele><time>2026-04-27T12:29:44.997Z</time></trkpt><trkpt lat="45.646127032103465" lon="10.005550727991693"><ele>195.0</ele><time>2026-04-27T12:29:45.997Z</time></trkpt><trkpt lat="45.64616598693443" lon="10.005354077436735"><ele>195.0</ele><time>2026-04-27T12:29:46.997Z</time></trkpt><trkpt lat="45.64620397090835" lon="10.005159002823694"><ele>195.0</ele><time>2026-04-27T12:29:47.997Z</time></trkpt><trkpt lat="45.64623897897307" lon="10.004956860804375"><ele>195.0</ele><time>2026-04-27T12:29:48.997Z</time></trkpt><trkpt lat="45.646267798327806" lon="10.00477284341593"><ele>195.0</ele><time>2026-04-27T12:29:49.997Z</time></trkpt><trkpt lat="45.64628986682509" lon="10.004601844268947"><ele>195.0</ele><time>2026-04-27T12:29:50.997Z</time></trkpt><trkpt lat="45.64630574151076" lon="10.004457274639568"><ele>195.0</ele><time>2026-04-27T12:29:51.997Z</time></trkpt><trkpt lat="45.646316500200115" lon="10.00429609432118"><ele>195.0</ele><time>2026-04-27T12:29:52.997Z</time></trkpt><trkpt lat="45.64632830941073" lon="10.004140639258015"><ele>195.0</ele><time>2026-04-27T12:29:53.997Z</time></trkpt><trkpt lat="45.64637212582037" lon="10.004022596203459"><ele>195.0</ele><time>2026-04-27T12:29:54.997Z</time></trkpt><trkpt lat="45.64643477999357" lon="10.003926584085757"><ele>195.0</ele><time>2026-04-27T12:29:55.997Z</time></trkpt><trkpt lat="45.64651058356745" lon="10.003869370549168"><ele>195.0</ele><time>2026-04-27T12:29:56.997Z</time></trkpt><trkpt lat="45.64660083344434" lon="10.003833712480764"><ele>195.0</ele><time>2026-04-27T12:29:57.997Z</time></trkpt><trkpt lat="45.64668454399225" lon="10.003778755598104"><ele>195.0</ele><time>2026-04-27T12:29:58.997Z</time></trkpt><trkpt lat="45.64674437620526" lon="10.003670997467633"><ele>195.0</ele><time>2026-04-27T12:29:59.997Z</time></trkpt><trkpt lat="45.64677909396891" lon="10.003532863109848"><ele>195.0</ele><time>2026-04-27T12:30:00.997Z</time></trkpt><trkpt lat="45.64680574654798" lon="10.003373171841092"><ele>195.0</ele><time>2026-04-27T12:30:01.997Z</time></trkpt><trkpt lat="45.64683612827184" lon="10.003214599777898"><ele>195.0</ele><time>2026-04-27T12:30:02.997Z</time></trkpt><trkpt lat="45.64686087322401" lon="10.00308784090584"><ele>195.0</ele><time>2026-04-27T12:30:03.997Z</time></trkpt><trkpt lat="45.64688609740332" lon="10.002956554357358"><ele>195.0</ele><time>2026-04-27T12:30:04.997Z</time></trkpt><trkpt lat="45.646906725692986" lon="10.002847855929199"><ele>195.0</ele><time>2026-04-27T12:30:05.997Z</time></trkpt><trkpt lat="45.64691023689908" lon="10.002751662147789"><ele>195.0</ele><time>2026-04-27T12:30:06.997Z</time></trkpt><trkpt lat="45.646868393492205" lon="10.002588577555079"><ele>194.6</ele><time>2026-04-27T12:30:08.997Z</time></trkpt><trkpt lat="45.646820411027456" lon="10.002478504699486"><ele>194.2</ele><time>2026-04-27T12:30:09.997Z</time></trkpt><trkpt lat="45.646725865135224" lon="10.002384912920702"><ele>193.8</ele><time>2026-04-27T12:30:10.997Z</time></trkpt><trkpt lat="45.64666576309244" lon="10.002241377823188"><ele>193.4</ele><time>2026-04-27T12:30:11.997Z</time></trkpt><trkpt lat="45.64664705264724" lon="10.002068120741729"><ele>193.0</ele><time>2026-04-27T12:30:12.997Z</time></trkpt><trkpt lat="45.646648106770904" lon="10.001893043078542"><ele>193.0</ele><time>2026-04-27T12:30:13.997Z</time></trkpt><trkpt lat="45.646640695596915" lon="10.001719153545917"><ele>193.0</ele><time>2026-04-27T12:30:14.997Z</time></trkpt><trkpt lat="45.64662801469038" lon="10.001538837712499"><ele>193.0</ele><time>2026-04-27T12:30:15.997Z</time></trkpt><trkpt lat="45.646616080926314" lon="10.00133805253537"><ele>193.0</ele><time>2026-04-27T12:30:16.997Z</time></trkpt><trkpt lat="45.64660798350643" lon="10.00112614109155"><ele>193.25</ele><time>2026-04-27T12:30:17.997Z</time></trkpt><trkpt lat="45.6466038265527" lon="10.000919433836282"><ele>193.5</ele><time>2026-04-27T12:30:18.997Z</time></trkpt><trkpt lat="45.6466094345151" lon="10.000741291084065"><ele>193.75</ele><time>2026-04-27T12:30:19.997Z</time></trkpt><trkpt lat="45.64661191888528" lon="10.000565836326922"><ele>194.0</ele><time>2026-04-27T12:30:20.997Z</time></trkpt><trkpt lat="45.64661714128598" lon="10.0003774789841"><ele>194.25</ele><time>2026-04-27T12:30:21.997Z</time></trkpt><trkpt lat="45.64662053757609" lon="10.000196771414016"><ele>194.5</ele><time>2026-04-27T12:30:22.997Z</time></trkpt><trkpt lat="45.64662935323091" lon="10.0000142242199"><ele>194.75</ele><time>2026-04-27T12:30:23.997Z</time></trkpt><trkpt lat="45.646644545524296" lon="9.999832292213956"><ele>195.0</ele><time>2026-04-27T12:30:24.997Z</time></trkpt><trkpt lat="45.646653972668986" lon="9.999647173124895"><ele>195.0</ele><time>2026-04-27T12:30:25.997Z</time></trkpt><trkpt lat="45.64666724237867" lon="9.999461329333169"><ele>195.0</ele><time>2026-04-27T12:30:26.997Z</time></trkpt><trkpt lat="45.64666853075524" lon="9.99928137904849"><ele>195.0</ele><time>2026-04-27T12:30:27.997Z</time></trkpt><trkpt lat="45.64667891025203" lon="9.999109541612995"><ele>195.0</ele><time>2026-04-27T12:30:28.997Z</time></trkpt><trkpt lat="45.64668920103342" lon="9.998961157778353"><ele>195.2</ele><time>2026-04-27T12:30:29.997Z</time></trkpt><trkpt lat="45.646693144796764" lon="9.998812958458732"><ele>195.4</ele><time>2026-04-27T12:30:30.997Z</time></trkpt><trkpt lat="45.64669962262998" lon="9.998700097305486"><ele>195.60000000000002</ele><time>2026-04-27T12:30:31.997Z</time></trkpt><trkpt lat="45.646718516796874" lon="9.998550520600945"><ele>195.8</ele><time>2026-04-27T12:30:33.997Z</time></trkpt><trkpt lat="45.64668199298193" lon="9.998437956159467"><ele>196.0</ele><time>2026-04-27T12:30:35.997Z</time></trkpt><trkpt lat="45.64651493022305" lon="9.998298567533979"><ele>196.5</ele><time>2026-04-27T12:30:37.997Z</time></trkpt><trkpt lat="45.646373629753654" lon="9.998238797807385"><ele>197.0</ele><time>2026-04-27T12:30:38.997Z</time></trkpt><trkpt lat="45.64625969066609" lon="9.998201427628375"><ele>197.5</ele><time>2026-04-27T12:30:39.997Z</time></trkpt><trkpt lat="45.646166740429834" lon="9.99815526491838"><ele>198.0</ele><time>2026-04-27T12:30:40.997Z</time></trkpt><trkpt lat="45.64606201019875" lon="9.998085688636912"><ele>198.60000000000002</ele><time>2026-04-27T12:30:41.997Z</time></trkpt><trkpt lat="45.64596802130547" lon="9.99802482938439"><ele>199.20000000000002</ele><time>2026-04-27T12:30:42.997Z</time></trkpt><trkpt lat="45.64588244100564" lon="9.997952835527606"><ele>199.8</ele><time>2026-04-27T12:30:43.997Z</time></trkpt><trkpt lat="45.645817068672265" lon="9.99788881945317"><ele>200.4</ele><time>2026-04-27T12:30:44.997Z</time></trkpt><trkpt lat="45.64572417302391" lon="9.99776133319619"><ele>201.0</ele><time>2026-04-27T12:30:46.996Z</time></trkpt><trkpt lat="45.64568848556258" lon="9.997684210357006"><ele>201.0</ele><time>2026-04-27T12:30:47.997Z</time></trkpt><trkpt lat="45.64562984631019" lon="9.997640451550229"><ele>201.0</ele><time>2026-04-27T12:30:48.996Z</time></trkpt><trkpt lat="45.64555273286787" lon="9.997654212560235"><ele>201.0</ele><time>2026-04-27T12:30:49.996Z</time></trkpt><trkpt lat="45.6454779242621" lon="9.997695027135002"><ele>201.0</ele><time>2026-04-27T12:30:50.996Z</time></trkpt><trkpt lat="45.64538966231937" lon="9.997728431713847"><ele>201.0</ele><time>2026-04-27T12:30:51.996Z</time></trkpt><trkpt lat="45.64528839021772" lon="9.997660564954199"><ele>201.0</ele><time>2026-04-27T12:30:52.996Z</time></trkpt><trkpt lat="45.64519568936593" lon="9.997567022401936"><ele>202.5</ele><time>2026-04-27T12:30:53.996Z</time></trkpt><trkpt lat="45.645094773457316" lon="9.997480613002423"><ele>204.0</ele><time>2026-04-27T12:30:54.996Z</time></trkpt><trkpt lat="45.64498587168813" lon="9.997400736595296"><ele>205.5</ele><time>2026-04-27T12:30:55.996Z</time></trkpt><trkpt lat="45.64488843891384" lon="9.997311789929483"><ele>207.0</ele><time>2026-04-27T12:30:56.996Z</time></trkpt><trkpt lat="45.644795858548775" lon="9.997215717822128"><ele>207.0</ele><time>2026-04-27T12:30:57.996Z</time></trkpt><trkpt lat="45.644702556983866" lon="9.997117928972656"><ele>207.0</ele><time>2026-04-27T12:30:58.996Z</time></trkpt><trkpt lat="45.644627827688396" lon="9.997005393116224"><ele>207.0</ele><time>2026-04-27T12:30:59.996Z</time></trkpt><trkpt lat="45.64454562903104" lon="9.996889186998352"><ele>207.0</ele><time>2026-04-27T12:31:00.996Z</time></trkpt><trkpt lat="45.64447407769552" lon="9.996774443424247"><ele>207.0</ele><time>2026-04-27T12:31:01.996Z</time></trkpt><trkpt lat="45.64439166496664" lon="9.996689020853655"><ele>208.0</ele><time>2026-04-27T12:31:02.996Z</time></trkpt><trkpt lat="45.644326795573114" lon="9.99661828164323"><ele>209.0</ele><time>2026-04-27T12:31:03.996Z</time></trkpt><trkpt lat="45.644296600309126" lon="9.996460373082414"><ele>210.0</ele><time>2026-04-27T12:31:05.996Z</time></trkpt><trkpt lat="45.64425081867859" lon="9.99631911802593"><ele>211.0</ele><time>2026-04-27T12:31:07.996Z</time></trkpt><trkpt lat="45.644150716244" lon="9.996323914251276"><ele>212.0</ele><time>2026-04-27T12:31:09.996Z</time></trkpt><trkpt lat="45.64407900698624" lon="9.99641151633946"><ele>212.00000000000003</ele><time>2026-04-27T12:31:10.996Z</time></trkpt><trkpt lat="45.64405728531341" lon="9.996518961577438"><ele>212.0</ele><time>2026-04-27T12:31:11.996Z</time></trkpt><trkpt lat="45.64401147642933" lon="9.996595142596549"><ele>212.0</ele><time>2026-04-27T12:31:12.996Z</time></trkpt><trkpt lat="45.643947604840484" lon="9.996582772549322"><ele>212.0</ele><time>2026-04-27T12:31:13.996Z</time></trkpt><trkpt lat="45.64386288397742" lon="9.996565369739365"><ele>212.00000000000003</ele><time>2026-04-27T12:31:14.996Z</time></trkpt><trkpt lat="45.64377603489562" lon="9.99651748319142"><ele>212.0</ele><time>2026-04-27T12:31:15.996Z</time></trkpt><trkpt lat="45.643689158870735" lon="9.996467173400001"><ele>212.39999999999998</ele><time>2026-04-27T12:31:16.996Z</time></trkpt><trkpt lat="45.64358696295505" lon="9.996427666629671"><ele>212.79999999999998</ele><time>2026-04-27T12:31:17.996Z</time></trkpt><trkpt lat="45.64351019519819" lon="9.996395745640669"><ele>213.2</ele><time>2026-04-27T12:31:18.996Z</time></trkpt><trkpt lat="45.643442955913336" lon="9.996363300981844"><ele>213.6</ele><time>2026-04-27T12:31:19.996Z</time></trkpt><trkpt lat="45.64333171432067" lon="9.996316415022523"><ele>214.0</ele><time>2026-04-27T12:31:21.996Z</time></trkpt><trkpt lat="45.643221322429355" lon="9.996283876792926"><ele>214.0</ele><time>2026-04-27T12:31:23.996Z</time></trkpt><trkpt lat="45.643149570329555" lon="9.996241109502318"><ele>214.0</ele><time>2026-04-27T12:31:25.996Z</time></trkpt><trkpt lat="45.64308507316037" lon="9.996220881159427"><ele>214.0</ele><time>2026-04-27T12:31:28.996Z</time></trkpt><trkpt lat="45.643066279087826" lon="9.996061560569427"><ele>214.0</ele><time>2026-04-27T12:31:58.996Z</time></trkpt><trkpt lat="45.64311016589522" lon="9.99597523581894"><ele>214.0</ele><time>2026-04-27T12:32:03.996Z</time></trkpt></trkseg></trk></gpx>